<?xml version='1.0' encoding='UTF-8'?><gpx version="1.1" creator="JPX - https://github.com/jenetics/jpx" xmlns="http://www.topografix.com/GPX/1/1"><trk><trkseg><trkpt lat="44.225215" lon="11.78027"><ele>97.00000000000001</ele><time>2026-04-26T10:03:09.583Z</time></trkpt><trkpt lat="44.2251533" lon="11.7802917"><ele>97.0</ele><time>2026-04-26T10:03:12.595Z</time></trkpt><trkpt lat="44.2251183" lon="11.780425"><ele>97.0</ele><time>2026-04-26T10:03:31.597Z</time></trkpt><trkpt lat="44.225175" lon="11.7805833"><ele>97.0</ele><time>2026-04-26T10:03:33.603Z</time></trkpt><trkpt lat="44.2252083" lon="11.7806683"><ele>97.00000000000001</ele><time>2026-04-26T10:03:34.595Z</time></trkpt><trkpt lat="44.2252433" lon="11.7807633"><ele>97.0</ele><time>2026-04-26T10:03:35.595Z</time></trkpt><trkpt lat="44.22529" lon="11.7808517"><ele>97.00000000000001</ele><time>2026-04-26T10:03:36.63Z</time></trkpt><trkpt lat="44.2253383" lon="11.7809467"><ele>97.0</ele><time>2026-04-26T10:03:37.596Z</time></trkpt><trkpt lat="44.2253883" lon="11.78104"><ele>97.0</ele><time>2026-04-26T10:03:38.595Z</time></trkpt><trkpt lat="44.225445" lon="11.7811383"><ele>97.0</ele><time>2026-04-26T10:03:39.603Z</time></trkpt><trkpt lat="44.2255083" lon="11.7812317"><ele>97.00000000000001</ele><time>2026-04-26T10:03:40.588Z</time></trkpt><trkpt lat="44.2255783" lon="11.781325"><ele>97.0</ele><time>2026-04-26T10:03:41.591Z</time></trkpt><trkpt lat="44.2256517" lon="11.78142"><ele>97.0</ele><time>2026-04-26T10:03:42.601Z</time></trkpt><trkpt lat="44.2257233" lon="11.7815133"><ele>97.0</ele><time>2026-04-26T10:03:43.597Z</time></trkpt><trkpt lat="44.2257983" lon="11.7815983"><ele>97.0</ele><time>2026-04-26T10:03:44.585Z</time></trkpt><trkpt lat="44.2258733" lon="11.7816867"><ele>97.0</ele><time>2026-04-26T10:03:45.594Z</time></trkpt><trkpt lat="44.225945" lon="11.7817783"><ele>97.0</ele><time>2026-04-26T10:03:46.604Z</time></trkpt><trkpt lat="44.2260183" lon="11.7818683"><ele>97.0</ele><time>2026-04-26T10:03:47.601Z</time></trkpt><trkpt lat="44.226095" lon="11.7819683"><ele>97.0</ele><time>2026-04-26T10:03:48.595Z</time></trkpt><trkpt lat="44.2261667" lon="11.78208"><ele>97.0</ele><time>2026-04-26T10:03:49.589Z</time></trkpt><trkpt lat="44.2262333" lon="11.78221"><ele>97.0</ele><time>2026-04-26T10:03:50.592Z</time></trkpt><trkpt lat="44.2262917" lon="11.7823533"><ele>97.0</ele><time>2026-04-26T10:03:51.586Z</time></trkpt><trkpt lat="44.22634" lon="11.7825067"><ele>97.0</ele><time>2026-04-26T10:03:52.602Z</time></trkpt><trkpt lat="44.226385" lon="11.7826633"><ele>97.0</ele><time>2026-04-26T10:03:53.6Z</time></trkpt><trkpt lat="44.226425" lon="11.7828217"><ele>97.0</ele><time>2026-04-26T10:03:54.601Z</time></trkpt><trkpt lat="44.226465" lon="11.7829783"><ele>97.0</ele><time>2026-04-26T10:03:55.607Z</time></trkpt><trkpt lat="44.2265067" lon="11.7831317"><ele>97.0</ele><time>2026-04-26T10:03:56.594Z</time></trkpt><trkpt lat="44.2265533" lon="11.7832867"><ele>97.0</ele><time>2026-04-26T10:03:57.603Z</time></trkpt><trkpt lat="44.2266033" lon="11.783445"><ele>97.0</ele><time>2026-04-26T10:03:58.6Z</time></trkpt><trkpt lat="44.2266567" lon="11.7836033"><ele>97.0</ele><time>2026-04-26T10:03:59.6Z</time></trkpt><trkpt lat="44.2267083" lon="11.783765"><ele>96.25</ele><time>2026-04-26T10:04:00.596Z</time></trkpt><trkpt lat="44.226755" lon="11.7839267"><ele>95.5</ele><time>2026-04-26T10:04:01.588Z</time></trkpt><trkpt lat="44.2268067" lon="11.784085"><ele>94.75</ele><time>2026-04-26T10:04:02.606Z</time></trkpt><trkpt lat="44.2268517" lon="11.7842367"><ele>94.0</ele><time>2026-04-26T10:04:03.598Z</time></trkpt><trkpt lat="44.2268967" lon="11.7843883"><ele>93.25</ele><time>2026-04-26T10:04:04.607Z</time></trkpt><trkpt lat="44.22694" lon="11.784535"><ele>92.5</ele><time>2026-04-26T10:04:05.6Z</time></trkpt><trkpt lat="44.22698" lon="11.7846833"><ele>91.75</ele><time>2026-04-26T10:04:06.602Z</time></trkpt><trkpt lat="44.2270217" lon="11.7848317"><ele>91.0</ele><time>2026-04-26T10:04:07.608Z</time></trkpt><trkpt lat="44.2270583" lon="11.7849833"><ele>91.0</ele><time>2026-04-26T10:04:08.608Z</time></trkpt><trkpt lat="44.2271" lon="11.7851333"><ele>91.0</ele><time>2026-04-26T10:04:09.596Z</time></trkpt><trkpt lat="44.227135" lon="11.785285"><ele>91.0</ele><time>2026-04-26T10:04:10.586Z</time></trkpt><trkpt lat="44.2271633" lon="11.7854417"><ele>91.0</ele><time>2026-04-26T10:04:11.588Z</time></trkpt><trkpt lat="44.2271867" lon="11.785595"><ele>90.4</ele><time>2026-04-26T10:04:12.598Z</time></trkpt><trkpt lat="44.2272067" lon="11.7857433"><ele>89.8</ele><time>2026-04-26T10:04:13.599Z</time></trkpt><trkpt lat="44.2272217" lon="11.7858833"><ele>89.2</ele><time>2026-04-26T10:04:14.595Z</time></trkpt><trkpt lat="44.2272367" lon="11.7860083"><ele>88.60000000000001</ele><time>2026-04-26T10:04:15.596Z</time></trkpt><trkpt lat="44.2272517" lon="11.7861133"><ele>88.0</ele><time>2026-04-26T10:04:16.586Z</time></trkpt><trkpt lat="44.227285" lon="11.78626"><ele>87.83333333333333</ele><time>2026-04-26T10:04:18.604Z</time></trkpt><trkpt lat="44.22738" lon="11.7862917"><ele>87.66666666666666</ele><time>2026-04-26T10:04:20.596Z</time></trkpt><trkpt lat="44.2274933" lon="11.7862483"><ele>87.5</ele><time>2026-04-26T10:04:22.6Z</time></trkpt><trkpt lat="44.2275567" lon="11.78622"><ele>87.33333333333333</ele><time>2026-04-26T10:04:23.617Z</time></trkpt><trkpt lat="44.2276183" lon="11.7861833"><ele>87.16666666666667</ele><time>2026-04-26T10:04:24.62Z</time></trkpt><trkpt lat="44.22768" lon="11.7861383"><ele>87.0</ele><time>2026-04-26T10:04:25.593Z</time></trkpt><trkpt lat="44.22774" lon="11.78609"><ele>87.0</ele><time>2026-04-26T10:04:26.594Z</time></trkpt><trkpt lat="44.2278" lon="11.7860417"><ele>87.0</ele><time>2026-04-26T10:04:27.594Z</time></trkpt><trkpt lat="44.22786" lon="11.78599"><ele>87.0</ele><time>2026-04-26T10:04:28.605Z</time></trkpt><trkpt lat="44.22792" lon="11.78594"><ele>87.0</ele><time>2026-04-26T10:04:29.591Z</time></trkpt><trkpt lat="44.227985" lon="11.7858967"><ele>87.0</ele><time>2026-04-26T10:04:30.593Z</time></trkpt><trkpt lat="44.2280483" lon="11.7858583"><ele>87.0</ele><time>2026-04-26T10:04:31.605Z</time></trkpt><trkpt lat="44.22812" lon="11.78582"><ele>87.0</ele><time>2026-04-26T10:04:32.605Z</time></trkpt><trkpt lat="44.2281933" lon="11.78578"><ele>86.19999999999999</ele><time>2026-04-26T10:04:33.6Z</time></trkpt><trkpt lat="44.2282717" lon="11.7857333"><ele>85.4</ele><time>2026-04-26T10:04:34.599Z</time></trkpt><trkpt lat="44.2283583" lon="11.7857"><ele>84.6</ele><time>2026-04-26T10:04:35.605Z</time></trkpt><trkpt lat="44.2284567" lon="11.7856567"><ele>83.80000000000001</ele><time>2026-04-26T10:04:36.599Z</time></trkpt><trkpt lat="44.2285583" lon="11.7856133"><ele>83.0</ele><time>2026-04-26T10:04:37.604Z</time></trkpt><trkpt lat="44.2286583" lon="11.7855717"><ele>83.0</ele><time>2026-04-26T10:04:38.621Z</time></trkpt><trkpt lat="44.2287583" lon="11.78553"><ele>83.0</ele><time>2026-04-26T10:04:39.588Z</time></trkpt><trkpt lat="44.2288567" lon="11.7854933"><ele>83.0</ele><time>2026-04-26T10:04:40.588Z</time></trkpt><trkpt lat="44.22895" lon="11.7854633"><ele>83.0</ele><time>2026-04-26T10:04:41.575Z</time></trkpt><trkpt lat="44.229035" lon="11.7854417"><ele>83.0</ele><time>2026-04-26T10:04:42.587Z</time></trkpt><trkpt lat="44.22911" lon="11.785445"><ele>82.5</ele><time>2026-04-26T10:04:43.593Z</time></trkpt><trkpt lat="44.2291733" lon="11.7854633"><ele>82.0</ele><time>2026-04-26T10:04:44.592Z</time></trkpt><trkpt lat="44.2292367" lon="11.7854933"><ele>81.5</ele><time>2026-04-26T10:04:45.592Z</time></trkpt><trkpt lat="44.2293083" lon="11.7856117"><ele>81.0</ele><time>2026-04-26T10:04:47.596Z</time></trkpt><trkpt lat="44.22936" lon="11.7857517"><ele>80.5</ele><time>2026-04-26T10:04:49.608Z</time></trkpt><trkpt lat="44.2294267" lon="11.7858117"><ele>80.0</ele><time>2026-04-26T10:04:51.602Z</time></trkpt><trkpt lat="44.2295183" lon="11.7857817"><ele>80.0</ele><time>2026-04-26T10:05:10.587Z</time></trkpt><trkpt lat="44.229625" lon="11.7857317"><ele>80.0</ele><time>2026-04-26T10:05:12.595Z</time></trkpt><trkpt lat="44.2296867" lon="11.785695"><ele>80.0</ele><time>2026-04-26T10:05:13.588Z</time></trkpt><trkpt lat="44.229755" lon="11.78565"><ele>80.0</ele><time>2026-04-26T10:05:14.587Z</time></trkpt><trkpt lat="44.22983" lon="11.7856017"><ele>80.0</ele><time>2026-04-26T10:05:15.595Z</time></trkpt><trkpt lat="44.2299067" lon="11.785555"><ele>80.0</ele><time>2026-04-26T10:05:16.593Z</time></trkpt><trkpt lat="44.229985" lon="11.7855133"><ele>81.2</ele><time>2026-04-26T10:05:17.608Z</time></trkpt><trkpt lat="44.230065" lon="11.7854683"><ele>82.4</ele><time>2026-04-26T10:05:18.589Z</time></trkpt><trkpt lat="44.230145" lon="11.78541"><ele>83.6</ele><time>2026-04-26T10:05:19.604Z</time></trkpt><trkpt lat="44.230225" lon="11.78535"><ele>84.8</ele><time>2026-04-26T10:05:20.589Z</time></trkpt><trkpt lat="44.23031" lon="11.7852833"><ele>86.0</ele><time>2026-04-26T10:05:21.601Z</time></trkpt><trkpt lat="44.2304" lon="11.7852117"><ele>85.8</ele><time>2026-04-26T10:05:22.6Z</time></trkpt><trkpt lat="44.2304883" lon="11.7851367"><ele>85.6</ele><time>2026-04-26T10:05:23.596Z</time></trkpt><trkpt lat="44.230575" lon="11.7850617"><ele>85.4</ele><time>2026-04-26T10:05:24.598Z</time></trkpt><trkpt lat="44.2306633" lon="11.7849867"><ele>85.2</ele><time>2026-04-26T10:05:25.604Z</time></trkpt><trkpt lat="44.230755" lon="11.78491"><ele>85.0</ele><time>2026-04-26T10:05:26.599Z</time></trkpt><trkpt lat="44.230845" lon="11.7848317"><ele>85.0</ele><time>2026-04-26T10:05:27.6Z</time></trkpt><trkpt lat="44.2309367" lon="11.784745"><ele>85.0</ele><time>2026-04-26T10:05:28.603Z</time></trkpt><trkpt lat="44.23103" lon="11.7846583"><ele>85.0</ele><time>2026-04-26T10:05:29.584Z</time></trkpt><trkpt lat="44.23112" lon="11.7845633"><ele>85.0</ele><time>2026-04-26T10:05:30.589Z</time></trkpt><trkpt lat="44.23121" lon="11.7844667"><ele>85.0</ele><time>2026-04-26T10:05:31.592Z</time></trkpt><trkpt lat="44.2312983" lon="11.7843733"><ele>85.0</ele><time>2026-04-26T10:05:32.595Z</time></trkpt><trkpt lat="44.2313833" lon="11.78428"><ele>85.0</ele><time>2026-04-26T10:05:33.592Z</time></trkpt><trkpt lat="44.2314633" lon="11.7841817"><ele>85.0</ele><time>2026-04-26T10:05:34.593Z</time></trkpt><trkpt lat="44.2315533" lon="11.78407"><ele>85.0</ele><time>2026-04-26T10:05:35.601Z</time></trkpt><trkpt lat="44.2316483" lon="11.7839633"><ele>85.0</ele><time>2026-04-26T10:05:36.595Z</time></trkpt><trkpt lat="44.2317433" lon="11.78386"><ele>85.0</ele><time>2026-04-26T10:05:37.597Z</time></trkpt><trkpt lat="44.23184" lon="11.783755"><ele>85.0</ele><time>2026-04-26T10:05:38.601Z</time></trkpt><trkpt lat="44.231935" lon="11.7836633"><ele>85.0</ele><time>2026-04-26T10:05:39.599Z</time></trkpt><trkpt lat="44.2320267" lon="11.7835883"><ele>85.0</ele><time>2026-04-26T10:05:40.61Z</time></trkpt><trkpt lat="44.2321217" lon="11.783535"><ele>85.0</ele><time>2026-04-26T10:05:41.593Z</time></trkpt><trkpt lat="44.2322183" lon="11.7834933"><ele>85.0</ele><time>2026-04-26T10:05:42.592Z</time></trkpt><trkpt lat="44.23232" lon="11.7834717"><ele>85.0</ele><time>2026-04-26T10:05:43.576Z</time></trkpt><trkpt lat="44.2324217" lon="11.783465"><ele>85.0</ele><time>2026-04-26T10:05:44.594Z</time></trkpt><trkpt lat="44.2325217" lon="11.78346"><ele>85.2</ele><time>2026-04-26T10:05:45.603Z</time></trkpt><trkpt lat="44.232615" lon="11.78344"><ele>85.4</ele><time>2026-04-26T10:05:46.587Z</time></trkpt><trkpt lat="44.2326983" lon="11.7834"><ele>85.6</ele><time>2026-04-26T10:05:47.606Z</time></trkpt><trkpt lat="44.2327783" lon="11.7833433"><ele>85.8</ele><time>2026-04-26T10:05:48.584Z</time></trkpt><trkpt lat="44.2328417" lon="11.7832533"><ele>86.0</ele><time>2026-04-26T10:05:49.591Z</time></trkpt><trkpt lat="44.2328983" lon="11.7831367"><ele>86.0</ele><time>2026-04-26T10:05:50.608Z</time></trkpt><trkpt lat="44.2329483" lon="11.7830067"><ele>86.0</ele><time>2026-04-26T10:05:51.593Z</time></trkpt><trkpt lat="44.2329883" lon="11.7828633"><ele>86.0</ele><time>2026-04-26T10:05:52.605Z</time></trkpt><trkpt lat="44.2330367" lon="11.7827183"><ele>86.0</ele><time>2026-04-26T10:05:53.599Z</time></trkpt><trkpt lat="44.23309" lon="11.7825767"><ele>86.0</ele><time>2026-04-26T10:05:54.6Z</time></trkpt><trkpt lat="44.2331483" lon="11.7824333"><ele>87.0</ele><time>2026-04-26T10:05:55.604Z</time></trkpt><trkpt lat="44.233215" lon="11.7822983"><ele>88.0</ele><time>2026-04-26T10:05:56.597Z</time></trkpt><trkpt lat="44.23329" lon="11.782175"><ele>89.0</ele><time>2026-04-26T10:05:57.596Z</time></trkpt><trkpt lat="44.2333683" lon="11.7820617"><ele>90.0</ele><time>2026-04-26T10:05:58.583Z</time></trkpt><trkpt lat="44.2334467" lon="11.7819533"><ele>89.4</ele><time>2026-04-26T10:05:59.598Z</time></trkpt><trkpt lat="44.2335133" lon="11.7818367"><ele>88.8</ele><time>2026-04-26T10:06:00.593Z</time></trkpt><trkpt lat="44.2335733" lon="11.7817117"><ele>88.19999999999999</ele><time>2026-04-26T10:06:01.6Z</time></trkpt><trkpt lat="44.2336383" lon="11.781595"><ele>87.6</ele><time>2026-04-26T10:06:02.601Z</time></trkpt><trkpt lat="44.2336967" lon="11.7814733"><ele>87.0</ele><time>2026-04-26T10:06:03.6Z</time></trkpt><trkpt lat="44.233755" lon="11.78135"><ele>87.0</ele><time>2026-04-26T10:06:04.595Z</time></trkpt><trkpt lat="44.233815" lon="11.7812217"><ele>87.0</ele><time>2026-04-26T10:06:05.604Z</time></trkpt><trkpt lat="44.2338683" lon="11.7810783"><ele>87.0</ele><time>2026-04-26T10:06:06.59Z</time></trkpt><trkpt lat="44.2339233" lon="11.7809367"><ele>87.0</ele><time>2026-04-26T10:06:07.602Z</time></trkpt><trkpt lat="44.23398" lon="11.7807933"><ele>87.75</ele><time>2026-04-26T10:06:08.601Z</time></trkpt><trkpt lat="44.23404" lon="11.7806517"><ele>88.5</ele><time>2026-04-26T10:06:09.595Z</time></trkpt><trkpt lat="44.2340933" lon="11.7805017"><ele>89.25</ele><time>2026-04-26T10:06:10.592Z</time></trkpt><trkpt lat="44.234135" lon="11.7803467"><ele>90.0</ele><time>2026-04-26T10:06:11.598Z</time></trkpt><trkpt lat="44.2341683" lon="11.7801883"><ele>89.0</ele><time>2026-04-26T10:06:12.598Z</time></trkpt><trkpt lat="44.234195" lon="11.78003"><ele>88.0</ele><time>2026-04-26T10:06:13.593Z</time></trkpt><trkpt lat="44.2342133" lon="11.7798683"><ele>87.0</ele><time>2026-04-26T10:06:14.598Z</time></trkpt><trkpt lat="44.2342283" lon="11.7797067"><ele>86.0</ele><time>2026-04-26T10:06:15.591Z</time></trkpt><trkpt lat="44.2342433" lon="11.77954"><ele>86.0</ele><time>2026-04-26T10:06:16.598Z</time></trkpt><trkpt lat="44.2342533" lon="11.7793733"><ele>86.0</ele><time>2026-04-26T10:06:17.606Z</time></trkpt><trkpt lat="44.2342567" lon="11.7792133"><ele>86.0</ele><time>2026-04-26T10:06:18.621Z</time></trkpt><trkpt lat="44.2342583" lon="11.7790567"><ele>86.0</ele><time>2026-04-26T10:06:19.596Z</time></trkpt><trkpt lat="44.2342667" lon="11.7789083"><ele>86.19999999999999</ele><time>2026-04-26T10:06:20.604Z</time></trkpt><trkpt lat="44.2342867" lon="11.7787733"><ele>86.39999999999999</ele><time>2026-04-26T10:06:21.598Z</time></trkpt><trkpt lat="44.2343167" lon="11.7786433"><ele>86.6</ele><time>2026-04-26T10:06:22.604Z</time></trkpt><trkpt lat="44.23436" lon="11.7785217"><ele>86.8</ele><time>2026-04-26T10:06:23.599Z</time></trkpt><trkpt lat="44.2344067" lon="11.7783967"><ele>87.0</ele><time>2026-04-26T10:06:24.596Z</time></trkpt><trkpt lat="44.234455" lon="11.7782717"><ele>87.0</ele><time>2026-04-26T10:06:25.613Z</time></trkpt><trkpt lat="44.2345017" lon="11.7781383"><ele>87.0</ele><time>2026-04-26T10:06:26.6Z</time></trkpt><trkpt lat="44.2345367" lon="11.7779967"><ele>87.0</ele><time>2026-04-26T10:06:27.59Z</time></trkpt><trkpt lat="44.2345617" lon="11.7778583"><ele>87.0</ele><time>2026-04-26T10:06:28.6Z</time></trkpt><trkpt lat="44.2345767" lon="11.7777183"><ele>87.0</ele><time>2026-04-26T10:06:29.601Z</time></trkpt><trkpt lat="44.2345883" lon="11.77758"><ele>87.19999999999999</ele><time>2026-04-26T10:06:30.597Z</time></trkpt><trkpt lat="44.2345967" lon="11.7774483"><ele>87.4</ele><time>2026-04-26T10:06:31.6Z</time></trkpt><trkpt lat="44.2346033" lon="11.7773167"><ele>87.6</ele><time>2026-04-26T10:06:32.589Z</time></trkpt><trkpt lat="44.2346117" lon="11.7771883"><ele>87.80000000000001</ele><time>2026-04-26T10:06:33.595Z</time></trkpt><trkpt lat="44.2346083" lon="11.7770617"><ele>88.0</ele><time>2026-04-26T10:06:34.607Z</time></trkpt><trkpt lat="44.2346083" lon="11.77693"><ele>88.60000000000001</ele><time>2026-04-26T10:06:35.593Z</time></trkpt><trkpt lat="44.2346133" lon="11.7767983"><ele>89.2</ele><time>2026-04-26T10:06:36.598Z</time></trkpt><trkpt lat="44.234625" lon="11.77666"><ele>89.8</ele><time>2026-04-26T10:06:37.591Z</time></trkpt><trkpt lat="44.2346383" lon="11.7765183"><ele>90.4</ele><time>2026-04-26T10:06:38.59Z</time></trkpt><trkpt lat="44.23465" lon="11.7763717"><ele>91.0</ele><time>2026-04-26T10:06:39.588Z</time></trkpt><trkpt lat="44.2346533" lon="11.7762217"><ele>91.0</ele><time>2026-04-26T10:06:40.593Z</time></trkpt><trkpt lat="44.2346633" lon="11.77607"><ele>91.0</ele><time>2026-04-26T10:06:41.591Z</time></trkpt><trkpt lat="44.234675" lon="11.7759183"><ele>91.0</ele><time>2026-04-26T10:06:42.601Z</time></trkpt><trkpt lat="44.234685" lon="11.77577"><ele>91.0</ele><time>2026-04-26T10:06:43.595Z</time></trkpt><trkpt lat="44.2346983" lon="11.7756233"><ele>91.0</ele><time>2026-04-26T10:06:44.597Z</time></trkpt><trkpt lat="44.234715" lon="11.775475"><ele>91.19999999999999</ele><time>2026-04-26T10:06:45.595Z</time></trkpt><trkpt lat="44.2347333" lon="11.77533"><ele>91.39999999999999</ele><time>2026-04-26T10:06:46.584Z</time></trkpt><trkpt lat="44.2347517" lon="11.775185"><ele>91.6</ele><time>2026-04-26T10:06:47.588Z</time></trkpt><trkpt lat="44.234775" lon="11.7750417"><ele>91.8</ele><time>2026-04-26T10:06:48.593Z</time></trkpt><trkpt lat="44.2348067" lon="11.774905"><ele>92.0</ele><time>2026-04-26T10:06:49.59Z</time></trkpt><trkpt lat="44.23484" lon="11.77478"><ele>92.83333333333334</ele><time>2026-04-26T10:06:50.601Z</time></trkpt><trkpt lat="44.23487" lon="11.7746533"><ele>93.66666666666667</ele><time>2026-04-26T10:06:51.604Z</time></trkpt><trkpt lat="44.2348917" lon="11.77453"><ele>94.5</ele><time>2026-04-26T10:06:52.596Z</time></trkpt><trkpt lat="44.2349017" lon="11.77442"><ele>95.33333333333334</ele><time>2026-04-26T10:06:53.599Z</time></trkpt><trkpt lat="44.2348667" lon="11.77434"><ele>96.16666666666667</ele><time>2026-04-26T10:06:54.607Z</time></trkpt><trkpt lat="44.2348167" lon="11.77428"><ele>97.0</ele><time>2026-04-26T10:06:55.596Z</time></trkpt><trkpt lat="44.23475" lon="11.77424"><ele>97.16666666666667</ele><time>2026-04-26T10:06:56.599Z</time></trkpt><trkpt lat="44.2346817" lon="11.7741933"><ele>97.33333333333334</ele><time>2026-04-26T10:06:57.596Z</time></trkpt><trkpt lat="44.234625" lon="11.774125"><ele>97.5</ele><time>2026-04-26T10:06:58.596Z</time></trkpt><trkpt lat="44.23459" lon="11.7740317"><ele>97.66666666666666</ele><time>2026-04-26T10:06:59.593Z</time></trkpt><trkpt lat="44.2345917" lon="11.7739217"><ele>97.83333333333333</ele><time>2026-04-26T10:07:00.593Z</time></trkpt><trkpt lat="44.2346117" lon="11.7738067"><ele>98.0</ele><time>2026-04-26T10:07:01.586Z</time></trkpt><trkpt lat="44.234645" lon="11.773685"><ele>98.0</ele><time>2026-04-26T10:07:02.599Z</time></trkpt><trkpt lat="44.23468" lon="11.7735583"><ele>98.0</ele><time>2026-04-26T10:07:03.589Z</time></trkpt><trkpt lat="44.2347133" lon="11.77343"><ele>98.0</ele><time>2026-04-26T10:07:04.587Z</time></trkpt><trkpt lat="44.23475" lon="11.773305"><ele>98.0</ele><time>2026-04-26T10:07:05.588Z</time></trkpt><trkpt lat="44.2347883" lon="11.7731817"><ele>98.0</ele><time>2026-04-26T10:07:06.598Z</time></trkpt><trkpt lat="44.2348283" lon="11.7730617"><ele>98.0</ele><time>2026-04-26T10:07:07.598Z</time></trkpt><trkpt lat="44.23487" lon="11.772945"><ele>98.0</ele><time>2026-04-26T10:07:08.6Z</time></trkpt><trkpt lat="44.2349167" lon="11.7728267"><ele>98.0</ele><time>2026-04-26T10:07:09.597Z</time></trkpt><trkpt lat="44.23497" lon="11.7727083"><ele>98.0</ele><time>2026-04-26T10:07:10.585Z</time></trkpt><trkpt lat="44.2350267" lon="11.77259"><ele>98.0</ele><time>2026-04-26T10:07:11.59Z</time></trkpt><trkpt lat="44.2350817" lon="11.77247"><ele>98.0</ele><time>2026-04-26T10:07:12.596Z</time></trkpt><trkpt lat="44.2351383" lon="11.7723583"><ele>98.0</ele><time>2026-04-26T10:07:13.6Z</time></trkpt><trkpt lat="44.235195" lon="11.772245"><ele>98.0</ele><time>2026-04-26T10:07:14.59Z</time></trkpt><trkpt lat="44.2352517" lon="11.772125"><ele>98.0</ele><time>2026-04-26T10:07:15.592Z</time></trkpt><trkpt lat="44.2353117" lon="11.771995"><ele>98.0</ele><time>2026-04-26T10:07:16.596Z</time></trkpt><trkpt lat="44.2353717" lon="11.7718633"><ele>98.75</ele><time>2026-04-26T10:07:17.592Z</time></trkpt><trkpt lat="44.2354417" lon="11.7717283"><ele>99.5</ele><time>2026-04-26T10:07:18.598Z</time></trkpt><trkpt lat="44.235515" lon="11.7715933"><ele>100.25</ele><time>2026-04-26T10:07:19.587Z</time></trkpt><trkpt lat="44.2355883" lon="11.771455"><ele>101.0</ele><time>2026-04-26T10:07:20.588Z</time></trkpt><trkpt lat="44.23566" lon="11.77131"><ele>101.0</ele><time>2026-04-26T10:07:21.599Z</time></trkpt><trkpt lat="44.2357267" lon="11.7711617"><ele>101.0</ele><time>2026-04-26T10:07:22.593Z</time></trkpt><trkpt lat="44.23579" lon="11.77102"><ele>101.0</ele><time>2026-04-26T10:07:23.597Z</time></trkpt><trkpt lat="44.2358483" lon="11.7708817"><ele>101.0</ele><time>2026-04-26T10:07:24.59Z</time></trkpt><trkpt lat="44.2359083" lon="11.770745"><ele>101.19999999999999</ele><time>2026-04-26T10:07:25.585Z</time></trkpt><trkpt lat="44.235965" lon="11.7706117"><ele>101.39999999999999</ele><time>2026-04-26T10:07:26.594Z</time></trkpt><trkpt lat="44.2360183" lon="11.7704783"><ele>101.6</ele><time>2026-04-26T10:07:27.583Z</time></trkpt><trkpt lat="44.2360667" lon="11.77034"><ele>101.8</ele><time>2026-04-26T10:07:28.582Z</time></trkpt><trkpt lat="44.2361083" lon="11.7701967"><ele>102.0</ele><time>2026-04-26T10:07:29.592Z</time></trkpt><trkpt lat="44.2361483" lon="11.7700483"><ele>103.0</ele><time>2026-04-26T10:07:30.59Z</time></trkpt><trkpt lat="44.2361867" lon="11.7699"><ele>104.0</ele><time>2026-04-26T10:07:31.589Z</time></trkpt><trkpt lat="44.2362267" lon="11.7697517"><ele>105.0</ele><time>2026-04-26T10:07:32.592Z</time></trkpt><trkpt lat="44.2362733" lon="11.7696067"><ele>106.0</ele><time>2026-04-26T10:07:33.602Z</time></trkpt><trkpt lat="44.236325" lon="11.7694633"><ele>106.25</ele><time>2026-04-26T10:07:34.601Z</time></trkpt><trkpt lat="44.2363783" lon="11.76932"><ele>106.5</ele><time>2026-04-26T10:07:35.591Z</time></trkpt><trkpt lat="44.2364333" lon="11.769175"><ele>106.75</ele><time>2026-04-26T10:07:36.581Z</time></trkpt><trkpt lat="44.2364967" lon="11.7690333"><ele>107.0</ele><time>2026-04-26T10:07:37.597Z</time></trkpt><trkpt lat="44.2365567" lon="11.7688933"><ele>106.25</ele><time>2026-04-26T10:07:38.586Z</time></trkpt><trkpt lat="44.23662" lon="11.7687567"><ele>105.5</ele><time>2026-04-26T10:07:39.598Z</time></trkpt><trkpt lat="44.2366883" lon="11.7686167"><ele>104.75</ele><time>2026-04-26T10:07:40.607Z</time></trkpt><trkpt lat="44.2367567" lon="11.7684817"><ele>104.0</ele><time>2026-04-26T10:07:41.596Z</time></trkpt><trkpt lat="44.2368217" lon="11.7683417"><ele>104.0</ele><time>2026-04-26T10:07:42.598Z</time></trkpt><trkpt lat="44.2368833" lon="11.768195"><ele>104.0</ele><time>2026-04-26T10:07:43.605Z</time></trkpt><trkpt lat="44.2369333" lon="11.7680467"><ele>104.0</ele><time>2026-04-26T10:07:44.589Z</time></trkpt><trkpt lat="44.23698" lon="11.7678983"><ele>104.0</ele><time>2026-04-26T10:07:45.611Z</time></trkpt><trkpt lat="44.2370283" lon="11.7677533"><ele>106.25</ele><time>2026-04-26T10:07:46.59Z</time></trkpt><trkpt lat="44.2370817" lon="11.76761"><ele>108.5</ele><time>2026-04-26T10:07:47.591Z</time></trkpt><trkpt lat="44.237145" lon="11.767475"><ele>110.75</ele><time>2026-04-26T10:07:48.602Z</time></trkpt><trkpt lat="44.2372183" lon="11.7673517"><ele>113.0</ele><time>2026-04-26T10:07:49.592Z</time></trkpt><trkpt lat="44.2373017" lon="11.7672417"><ele>112.2</ele><time>2026-04-26T10:07:50.6Z</time></trkpt><trkpt lat="44.23739" lon="11.7671417"><ele>111.4</ele><time>2026-04-26T10:07:51.616Z</time></trkpt><trkpt lat="44.2374817" lon="11.7670467"><ele>110.60000000000001</ele><time>2026-04-26T10:07:52.585Z</time></trkpt><trkpt lat="44.2375683" lon="11.7669583"><ele>109.80000000000001</ele><time>2026-04-26T10:07:53.603Z</time></trkpt><trkpt lat="44.2376467" lon="11.7668667"><ele>109.0</ele><time>2026-04-26T10:07:54.59Z</time></trkpt><trkpt lat="44.23772" lon="11.7667733"><ele>109.0</ele><time>2026-04-26T10:07:55.604Z</time></trkpt><trkpt lat="44.2377783" lon="11.7666633"><ele>109.0</ele><time>2026-04-26T10:07:56.613Z</time></trkpt><trkpt lat="44.237825" lon="11.7665383"><ele>109.0</ele><time>2026-04-26T10:07:57.596Z</time></trkpt><trkpt lat="44.2378617" lon="11.7664017"><ele>109.0</ele><time>2026-04-26T10:07:58.611Z</time></trkpt><trkpt lat="44.23789" lon="11.7662617"><ele>109.0</ele><time>2026-04-26T10:07:59.593Z</time></trkpt><trkpt lat="44.2379233" lon="11.7661283"><ele>109.0</ele><time>2026-04-26T10:08:00.596Z</time></trkpt><trkpt lat="44.2379733" lon="11.7660083"><ele>109.0</ele><time>2026-04-26T10:08:01.598Z</time></trkpt><trkpt lat="44.2380317" lon="11.7658917"><ele>109.0</ele><time>2026-04-26T10:08:02.59Z</time></trkpt><trkpt lat="44.23809" lon="11.76578"><ele>109.0</ele><time>2026-04-26T10:08:03.589Z</time></trkpt><trkpt lat="44.2381533" lon="11.765665"><ele>109.0</ele><time>2026-04-26T10:08:04.585Z</time></trkpt><trkpt lat="44.2382167" lon="11.7655517"><ele>109.0</ele><time>2026-04-26T10:08:05.595Z</time></trkpt><trkpt lat="44.2382833" lon="11.765435"><ele>109.0</ele><time>2026-04-26T10:08:06.599Z</time></trkpt><trkpt lat="44.2383533" lon="11.76532"><ele>109.0</ele><time>2026-04-26T10:08:07.586Z</time></trkpt><trkpt lat="44.238425" lon="11.7652083"><ele>109.0</ele><time>2026-04-26T10:08:08.584Z</time></trkpt><trkpt lat="44.2384983" lon="11.7651017"><ele>109.0</ele><time>2026-04-26T10:08:09.594Z</time></trkpt><trkpt lat="44.23857" lon="11.7649983"><ele>109.4</ele><time>2026-04-26T10:08:10.599Z</time></trkpt><trkpt lat="44.2386433" lon="11.7648933"><ele>109.80000000000001</ele><time>2026-04-26T10:08:11.589Z</time></trkpt><trkpt lat="44.238715" lon="11.7647883"><ele>110.19999999999999</ele><time>2026-04-26T10:08:12.591Z</time></trkpt><trkpt lat="44.2387867" lon="11.764675"><ele>110.6</ele><time>2026-04-26T10:08:13.609Z</time></trkpt><trkpt lat="44.23886" lon="11.7645633"><ele>111.0</ele><time>2026-04-26T10:08:14.596Z</time></trkpt><trkpt lat="44.23893" lon="11.7644467"><ele>111.25</ele><time>2026-04-26T10:08:15.594Z</time></trkpt><trkpt lat="44.238995" lon="11.7643167"><ele>111.5</ele><time>2026-04-26T10:08:16.597Z</time></trkpt><trkpt lat="44.2390567" lon="11.764175"><ele>111.75</ele><time>2026-04-26T10:08:17.591Z</time></trkpt><trkpt lat="44.2391183" lon="11.76403"><ele>112.0</ele><time>2026-04-26T10:08:18.6Z</time></trkpt><trkpt lat="44.23918" lon="11.763885"><ele>112.0</ele><time>2026-04-26T10:08:19.595Z</time></trkpt><trkpt lat="44.2392417" lon="11.7637383"><ele>112.0</ele><time>2026-04-26T10:08:20.598Z</time></trkpt><trkpt lat="44.2393" lon="11.76359"><ele>112.0</ele><time>2026-04-26T10:08:21.588Z</time></trkpt><trkpt lat="44.2393583" lon="11.7634433"><ele>112.0</ele><time>2026-04-26T10:08:22.595Z</time></trkpt><trkpt lat="44.2394133" lon="11.7632933"><ele>112.5</ele><time>2026-04-26T10:08:23.595Z</time></trkpt><trkpt lat="44.2394667" lon="11.7631433"><ele>113.0</ele><time>2026-04-26T10:08:24.601Z</time></trkpt><trkpt lat="44.2395167" lon="11.7629883"><ele>113.5</ele><time>2026-04-26T10:08:25.589Z</time></trkpt><trkpt lat="44.23956" lon="11.7628317"><ele>114.0</ele><time>2026-04-26T10:08:26.588Z</time></trkpt><trkpt lat="44.2395883" lon="11.76267"><ele>115.2</ele><time>2026-04-26T10:08:27.585Z</time></trkpt><trkpt lat="44.2395983" lon="11.7625117"><ele>116.4</ele><time>2026-04-26T10:08:28.585Z</time></trkpt><trkpt lat="44.2395983" lon="11.7623533"><ele>117.6</ele><time>2026-04-26T10:08:29.592Z</time></trkpt><trkpt lat="44.2395933" lon="11.7622067"><ele>118.8</ele><time>2026-04-26T10:08:30.59Z</time></trkpt><trkpt lat="44.23959" lon="11.7620783"><ele>120.0</ele><time>2026-04-26T10:08:31.595Z</time></trkpt><trkpt lat="44.2395917" lon="11.7619633"><ele>119.66666666666667</ele><time>2026-04-26T10:08:32.602Z</time></trkpt><trkpt lat="44.2396" lon="11.7618617"><ele>119.33333333333334</ele><time>2026-04-26T10:08:33.597Z</time></trkpt><trkpt lat="44.2396583" lon="11.761735"><ele>119.0</ele><time>2026-04-26T10:08:35.602Z</time></trkpt><trkpt lat="44.2397717" lon="11.76169"><ele>118.66666666666667</ele><time>2026-04-26T10:08:37.592Z</time></trkpt><trkpt lat="44.2398367" lon="11.7616833"><ele>118.33333333333334</ele><time>2026-04-26T10:08:38.593Z</time></trkpt><trkpt lat="44.2399033" lon="11.76167"><ele>118.0</ele><time>2026-04-26T10:08:39.593Z</time></trkpt><trkpt lat="44.239965" lon="11.7616217"><ele>118.00000000000001</ele><time>2026-04-26T10:08:40.588Z</time></trkpt><trkpt lat="44.24002" lon="11.761555"><ele>118.0</ele><time>2026-04-26T10:08:41.59Z</time></trkpt><trkpt lat="44.2400633" lon="11.7614767"><ele>118.0</ele><time>2026-04-26T10:08:42.6Z</time></trkpt><trkpt lat="44.2401117" lon="11.7613933"><ele>118.0</ele><time>2026-04-26T10:08:43.595Z</time></trkpt><trkpt lat="44.2401583" lon="11.7613167"><ele>118.00000000000001</ele><time>2026-04-26T10:08:44.593Z</time></trkpt><trkpt lat="44.2402117" lon="11.7612417"><ele>118.0</ele><time>2026-04-26T10:08:45.591Z</time></trkpt><trkpt lat="44.240275" lon="11.76117"><ele>118.0</ele><time>2026-04-26T10:08:46.599Z</time></trkpt><trkpt lat="44.2403433" lon="11.7610967"><ele>118.00000000000001</ele><time>2026-04-26T10:08:47.588Z</time></trkpt><trkpt lat="44.2404317" lon="11.7610267"><ele>118.00000000000001</ele><time>2026-04-26T10:08:48.601Z</time></trkpt><trkpt lat="44.2405183" lon="11.7609533"><ele>118.0</ele><time>2026-04-26T10:08:49.602Z</time></trkpt><trkpt lat="44.2406067" lon="11.7608833"><ele>118.0</ele><time>2026-04-26T10:08:50.618Z</time></trkpt><trkpt lat="44.2406967" lon="11.7608133"><ele>118.80000000000001</ele><time>2026-04-26T10:08:51.589Z</time></trkpt><trkpt lat="44.2407883" lon="11.7607367"><ele>119.60000000000001</ele><time>2026-04-26T10:08:52.587Z</time></trkpt><trkpt lat="44.2408783" lon="11.760655"><ele>120.39999999999999</ele><time>2026-04-26T10:08:53.586Z</time></trkpt><trkpt lat="44.2409717" lon="11.7605767"><ele>121.19999999999999</ele><time>2026-04-26T10:08:54.593Z</time></trkpt><trkpt lat="44.2410683" lon="11.760505"><ele>122.0</ele><time>2026-04-26T10:08:55.601Z</time></trkpt><trkpt lat="44.241165" lon="11.7604383"><ele>122.0</ele><time>2026-04-26T10:08:56.584Z</time></trkpt><trkpt lat="44.241265" lon="11.760375"><ele>121.99999999999999</ele><time>2026-04-26T10:08:57.599Z</time></trkpt><trkpt lat="44.241365" lon="11.76032"><ele>121.99999999999999</ele><time>2026-04-26T10:08:58.591Z</time></trkpt><trkpt lat="44.2414717" lon="11.7602667"><ele>122.0</ele><time>2026-04-26T10:08:59.588Z</time></trkpt><trkpt lat="44.2415733" lon="11.76021"><ele>122.0</ele><time>2026-04-26T10:09:00.611Z</time></trkpt><trkpt lat="44.241675" lon="11.7601583"><ele>122.39999999999999</ele><time>2026-04-26T10:09:01.591Z</time></trkpt><trkpt lat="44.2417733" lon="11.7601067"><ele>122.79999999999998</ele><time>2026-04-26T10:09:02.592Z</time></trkpt><trkpt lat="44.2418717" lon="11.7600583"><ele>123.2</ele><time>2026-04-26T10:09:03.602Z</time></trkpt><trkpt lat="44.2419683" lon="11.7600083"><ele>123.6</ele><time>2026-04-26T10:09:04.595Z</time></trkpt><trkpt lat="44.242065" lon="11.75996"><ele>124.0</ele><time>2026-04-26T10:09:05.598Z</time></trkpt><trkpt lat="44.2421617" lon="11.7599217"><ele>124.0</ele><time>2026-04-26T10:09:06.601Z</time></trkpt><trkpt lat="44.2422633" lon="11.7598983"><ele>124.0</ele><time>2026-04-26T10:09:07.605Z</time></trkpt><trkpt lat="44.2423583" lon="11.7598967"><ele>124.0</ele><time>2026-04-26T10:09:08.6Z</time></trkpt><trkpt lat="44.24245" lon="11.75993"><ele>124.0</ele><time>2026-04-26T10:09:09.59Z</time></trkpt><trkpt lat="44.2425367" lon="11.759985"><ele>124.0</ele><time>2026-04-26T10:09:10.593Z</time></trkpt><trkpt lat="44.2426233" lon="11.760055"><ele>125.0</ele><time>2026-04-26T10:09:11.585Z</time></trkpt><trkpt lat="44.24271" lon="11.7601333"><ele>126.0</ele><time>2026-04-26T10:09:12.593Z</time></trkpt><trkpt lat="44.2427967" lon="11.7602133"><ele>127.0</ele><time>2026-04-26T10:09:13.59Z</time></trkpt><trkpt lat="44.2428817" lon="11.7603"><ele>128.0</ele><time>2026-04-26T10:09:14.615Z</time></trkpt><trkpt lat="44.24297" lon="11.7603883"><ele>129.0</ele><time>2026-04-26T10:09:15.596Z</time></trkpt><trkpt lat="44.2430533" lon="11.7604783"><ele>130.2</ele><time>2026-04-26T10:09:16.596Z</time></trkpt><trkpt lat="44.2431367" lon="11.7605667"><ele>131.4</ele><time>2026-04-26T10:09:17.593Z</time></trkpt><trkpt lat="44.2432217" lon="11.7606533"><ele>132.6</ele><time>2026-04-26T10:09:18.593Z</time></trkpt><trkpt lat="44.2433067" lon="11.760735"><ele>133.8</ele><time>2026-04-26T10:09:19.589Z</time></trkpt><trkpt lat="44.2433967" lon="11.7608133"><ele>135.0</ele><time>2026-04-26T10:09:20.586Z</time></trkpt><trkpt lat="44.2434917" lon="11.7608817"><ele>135.0</ele><time>2026-04-26T10:09:21.604Z</time></trkpt><trkpt lat="44.2435883" lon="11.7609483"><ele>135.0</ele><time>2026-04-26T10:09:22.591Z</time></trkpt><trkpt lat="44.243685" lon="11.7610133"><ele>135.0</ele><time>2026-04-26T10:09:23.597Z</time></trkpt><trkpt lat="44.2437967" lon="11.761065"><ele>135.0</ele><time>2026-04-26T10:09:24.603Z</time></trkpt><trkpt lat="44.2439117" lon="11.761115"><ele>138.25</ele><time>2026-04-26T10:09:25.58Z</time></trkpt><trkpt lat="44.24402" lon="11.7611683"><ele>141.5</ele><time>2026-04-26T10:09:26.6Z</time></trkpt><trkpt lat="44.24413" lon="11.7612233"><ele>144.75</ele><time>2026-04-26T10:09:27.589Z</time></trkpt><trkpt lat="44.244245" lon="11.76128"><ele>148.0</ele><time>2026-04-26T10:09:28.598Z</time></trkpt><trkpt lat="44.244355" lon="11.7613383"><ele>148.0</ele><time>2026-04-26T10:09:29.597Z</time></trkpt><trkpt lat="44.2444633" lon="11.7613983"><ele>148.0</ele><time>2026-04-26T10:09:30.603Z</time></trkpt><trkpt lat="44.2445717" lon="11.7614617"><ele>148.0</ele><time>2026-04-26T10:09:31.589Z</time></trkpt><trkpt lat="44.2446783" lon="11.7615267"><ele>148.0</ele><time>2026-04-26T10:09:32.597Z</time></trkpt><trkpt lat="44.2447767" lon="11.7616"><ele>147.8</ele><time>2026-04-26T10:09:33.598Z</time></trkpt><trkpt lat="44.2448617" lon="11.7616883"><ele>147.60000000000002</ele><time>2026-04-26T10:09:34.598Z</time></trkpt><trkpt lat="44.2449333" lon="11.7617883"><ele>147.39999999999998</ele><time>2026-04-26T10:09:35.588Z</time></trkpt><trkpt lat="44.244995" lon="11.7619033"><ele>147.2</ele><time>2026-04-26T10:09:36.595Z</time></trkpt><trkpt lat="44.2450433" lon="11.7620183"><ele>147.0</ele><time>2026-04-26T10:09:37.601Z</time></trkpt><trkpt lat="44.2450833" lon="11.762115"><ele>148.6</ele><time>2026-04-26T10:09:38.597Z</time></trkpt><trkpt lat="44.24512" lon="11.7621867"><ele>150.2</ele><time>2026-04-26T10:09:39.602Z</time></trkpt><trkpt lat="44.2452083" lon="11.76226"><ele>151.8</ele><time>2026-04-26T10:09:41.588Z</time></trkpt><trkpt lat="44.2452983" lon="11.7621467"><ele>153.4</ele><time>2026-04-26T10:09:43.59Z</time></trkpt><trkpt lat="44.2453133" lon="11.7620383"><ele>155.0</ele><time>2026-04-26T10:09:44.601Z</time></trkpt><trkpt lat="44.2453167" lon="11.7619217"><ele>153.66666666666666</ele><time>2026-04-26T10:09:45.597Z</time></trkpt><trkpt lat="44.2453167" lon="11.7617983"><ele>152.33333333333331</ele><time>2026-04-26T10:09:46.596Z</time></trkpt><trkpt lat="44.245325" lon="11.761675"><ele>151.0</ele><time>2026-04-26T10:09:47.581Z</time></trkpt><trkpt lat="44.2453417" lon="11.7615633"><ele>149.66666666666666</ele><time>2026-04-26T10:09:48.591Z</time></trkpt><trkpt lat="44.24537" lon="11.7614667"><ele>148.33333333333334</ele><time>2026-04-26T10:09:49.596Z</time></trkpt><trkpt lat="44.2454133" lon="11.761385"><ele>147.0</ele><time>2026-04-26T10:09:50.607Z</time></trkpt><trkpt lat="44.24547" lon="11.7613283"><ele>147.0</ele><time>2026-04-26T10:09:51.589Z</time></trkpt><trkpt lat="44.2455417" lon="11.7612933"><ele>147.0</ele><time>2026-04-26T10:09:52.594Z</time></trkpt><trkpt lat="44.2456217" lon="11.7612833"><ele>147.0</ele><time>2026-04-26T10:09:53.601Z</time></trkpt><trkpt lat="44.2457" lon="11.761295"><ele>147.0</ele><time>2026-04-26T10:09:54.593Z</time></trkpt><trkpt lat="44.2457767" lon="11.761305"><ele>147.0</ele><time>2026-04-26T10:09:55.586Z</time></trkpt><trkpt lat="44.2458433" lon="11.7613017"><ele>147.0</ele><time>2026-04-26T10:09:56.594Z</time></trkpt><trkpt lat="44.24592" lon="11.7611767"><ele>149.42857142857142</ele><time>2026-04-26T10:09:58.601Z</time></trkpt><trkpt lat="44.2459283" lon="11.7610883"><ele>151.85714285714286</ele><time>2026-04-26T10:09:59.59Z</time></trkpt><trkpt lat="44.245915" lon="11.761"><ele>154.28571428571428</ele><time>2026-04-26T10:10:00.596Z</time></trkpt><trkpt lat="44.2458883" lon="11.7609133"><ele>156.71428571428572</ele><time>2026-04-26T10:10:01.596Z</time></trkpt><trkpt lat="44.2458467" lon="11.7608167"><ele>159.14285714285714</ele><time>2026-04-26T10:10:02.591Z</time></trkpt><trkpt lat="44.2458083" lon="11.7607117"><ele>161.57142857142856</ele><time>2026-04-26T10:10:03.599Z</time></trkpt><trkpt lat="44.2457617" lon="11.76061"><ele>164.0</ele><time>2026-04-26T10:10:04.592Z</time></trkpt><trkpt lat="44.2457083" lon="11.76052"><ele>164.16666666666666</ele><time>2026-04-26T10:10:05.592Z</time></trkpt><trkpt lat="44.24564" lon="11.76046"><ele>164.33333333333331</ele><time>2026-04-26T10:10:06.593Z</time></trkpt><trkpt lat="44.24555" lon="11.76046"><ele>164.5</ele><time>2026-04-26T10:10:07.614Z</time></trkpt><trkpt lat="44.2454667" lon="11.760485"><ele>164.66666666666666</ele><time>2026-04-26T10:10:08.598Z</time></trkpt><trkpt lat="44.2453883" lon="11.7605183"><ele>164.83333333333334</ele><time>2026-04-26T10:10:09.61Z</time></trkpt><trkpt lat="44.245315" lon="11.7605383"><ele>165.0</ele><time>2026-04-26T10:10:10.586Z</time></trkpt><trkpt lat="44.245245" lon="11.7605433"><ele>162.66666666666666</ele><time>2026-04-26T10:10:11.582Z</time></trkpt><trkpt lat="44.245145" lon="11.7604433"><ele>160.33333333333334</ele><time>2026-04-26T10:10:13.596Z</time></trkpt><trkpt lat="44.2451483" lon="11.7603517"><ele>158.0</ele><time>2026-04-26T10:10:14.602Z</time></trkpt><trkpt lat="44.245235" lon="11.7602533"><ele>155.66666666666669</ele><time>2026-04-26T10:10:16.595Z</time></trkpt><trkpt lat="44.2453033" lon="11.76025"><ele>153.33333333333334</ele><time>2026-04-26T10:10:17.604Z</time></trkpt><trkpt lat="44.24537" lon="11.7602617"><ele>151.0</ele><time>2026-04-26T10:10:18.587Z</time></trkpt><trkpt lat="44.2454433" lon="11.760265"><ele>151.0</ele><time>2026-04-26T10:10:19.585Z</time></trkpt><trkpt lat="44.2455167" lon="11.760245"><ele>151.0</ele><time>2026-04-26T10:10:20.588Z</time></trkpt><trkpt lat="44.245595" lon="11.760205"><ele>151.0</ele><time>2026-04-26T10:10:21.607Z</time></trkpt><trkpt lat="44.2456717" lon="11.7601567"><ele>151.0</ele><time>2026-04-26T10:10:22.595Z</time></trkpt><trkpt lat="44.2457433" lon="11.7601267"><ele>151.0</ele><time>2026-04-26T10:10:23.597Z</time></trkpt><trkpt lat="44.2458217" lon="11.7601117"><ele>151.0</ele><time>2026-04-26T10:10:24.59Z</time></trkpt><trkpt lat="44.2458983" lon="11.7601383"><ele>153.33333333333334</ele><time>2026-04-26T10:10:25.591Z</time></trkpt><trkpt lat="44.2459633" lon="11.7601983"><ele>155.66666666666669</ele><time>2026-04-26T10:10:26.59Z</time></trkpt><trkpt lat="44.2460083" lon="11.76029"><ele>158.0</ele><time>2026-04-26T10:10:27.596Z</time></trkpt><trkpt lat="44.2460333" lon="11.7604033"><ele>160.33333333333334</ele><time>2026-04-26T10:10:28.595Z</time></trkpt><trkpt lat="44.2460533" lon="11.7605183"><ele>162.66666666666666</ele><time>2026-04-26T10:10:29.596Z</time></trkpt><trkpt lat="44.2460867" lon="11.7606167"><ele>165.0</ele><time>2026-04-26T10:10:30.593Z</time></trkpt><trkpt lat="44.2461433" lon="11.7606867"><ele>165.0</ele><time>2026-04-26T10:10:31.595Z</time></trkpt><trkpt lat="44.2462133" lon="11.7607533"><ele>165.0</ele><time>2026-04-26T10:10:32.595Z</time></trkpt><trkpt lat="44.2462767" lon="11.76083"><ele>165.0</ele><time>2026-04-26T10:10:33.586Z</time></trkpt><trkpt lat="44.2463333" lon="11.760915"><ele>165.0</ele><time>2026-04-26T10:10:34.577Z</time></trkpt><trkpt lat="44.2463833" lon="11.7610017"><ele>165.0</ele><time>2026-04-26T10:10:35.599Z</time></trkpt><trkpt lat="44.24644" lon="11.7610817"><ele>165.0</ele><time>2026-04-26T10:10:36.589Z</time></trkpt><trkpt lat="44.2465117" lon="11.7611483"><ele>168.33333333333334</ele><time>2026-04-26T10:10:37.604Z</time></trkpt><trkpt lat="44.24659" lon="11.7612183"><ele>171.66666666666666</ele><time>2026-04-26T10:10:38.595Z</time></trkpt><trkpt lat="44.2466583" lon="11.7613067"><ele>175.0</ele><time>2026-04-26T10:10:39.596Z</time></trkpt><trkpt lat="44.24671" lon="11.7614067"><ele>178.33333333333331</ele><time>2026-04-26T10:10:40.594Z</time></trkpt><trkpt lat="44.2467583" lon="11.7615"><ele>181.66666666666666</ele><time>2026-04-26T10:10:41.602Z</time></trkpt><trkpt lat="44.24681" lon="11.76157"><ele>185.0</ele><time>2026-04-26T10:10:42.59Z</time></trkpt><trkpt lat="44.2468667" lon="11.761615"><ele>185.0</ele><time>2026-04-26T10:10:43.601Z</time></trkpt><trkpt lat="44.2469433" lon="11.7615933"><ele>185.0</ele><time>2026-04-26T10:10:44.588Z</time></trkpt><trkpt lat="44.247025" lon="11.7615583"><ele>185.0</ele><time>2026-04-26T10:10:45.601Z</time></trkpt><trkpt lat="44.2471117" lon="11.7615283"><ele>185.0</ele><time>2026-04-26T10:10:46.591Z</time></trkpt><trkpt lat="44.2471817" lon="11.7615017"><ele>185.0</ele><time>2026-04-26T10:10:47.589Z</time></trkpt><trkpt lat="44.24727" lon="11.76144"><ele>185.0</ele><time>2026-04-26T10:10:49.587Z</time></trkpt><trkpt lat="44.2473217" lon="11.7613233"><ele>184.8</ele><time>2026-04-26T10:10:51.594Z</time></trkpt><trkpt lat="44.2473433" lon="11.761135"><ele>184.6</ele><time>2026-04-26T10:10:53.6Z</time></trkpt><trkpt lat="44.2473433" lon="11.7610217"><ele>184.39999999999998</ele><time>2026-04-26T10:10:54.595Z</time></trkpt><trkpt lat="44.2473517" lon="11.7609067"><ele>184.2</ele><time>2026-04-26T10:10:55.596Z</time></trkpt><trkpt lat="44.2473633" lon="11.760795"><ele>184.0</ele><time>2026-04-26T10:10:56.601Z</time></trkpt><trkpt lat="44.2473817" lon="11.7606783"><ele>183.39999999999998</ele><time>2026-04-26T10:10:57.608Z</time></trkpt><trkpt lat="44.2474067" lon="11.7605583"><ele>182.8</ele><time>2026-04-26T10:10:58.585Z</time></trkpt><trkpt lat="44.2474517" lon="11.76044"><ele>182.2</ele><time>2026-04-26T10:10:59.591Z</time></trkpt><trkpt lat="44.2475083" lon="11.760335"><ele>181.60000000000002</ele><time>2026-04-26T10:11:00.597Z</time></trkpt><trkpt lat="44.247565" lon="11.7602367"><ele>181.0</ele><time>2026-04-26T10:11:01.591Z</time></trkpt><trkpt lat="44.2476217" lon="11.76013"><ele>180.8</ele><time>2026-04-26T10:11:02.601Z</time></trkpt><trkpt lat="44.2476717" lon="11.7600167"><ele>180.60000000000002</ele><time>2026-04-26T10:11:03.596Z</time></trkpt><trkpt lat="44.2477183" lon="11.7599017"><ele>180.4</ele><time>2026-04-26T10:11:04.61Z</time></trkpt><trkpt lat="44.2477517" lon="11.7597733"><ele>180.2</ele><time>2026-04-26T10:11:05.601Z</time></trkpt><trkpt lat="44.2477717" lon="11.759635"><ele>180.0</ele><time>2026-04-26T10:11:06.609Z</time></trkpt><trkpt lat="44.2477733" lon="11.7594917"><ele>179.0</ele><time>2026-04-26T10:11:07.601Z</time></trkpt><trkpt lat="44.2477683" lon="11.7593567"><ele>178.0</ele><time>2026-04-26T10:11:08.595Z</time></trkpt><trkpt lat="44.2477533" lon="11.7592333"><ele>177.0</ele><time>2026-04-26T10:11:09.604Z</time></trkpt><trkpt lat="44.2477167" lon="11.759125"><ele>176.0</ele><time>2026-04-26T10:11:10.591Z</time></trkpt><trkpt lat="44.2476667" lon="11.7590283"><ele>175.0</ele><time>2026-04-26T10:11:11.604Z</time></trkpt><trkpt lat="44.247605" lon="11.758935"><ele>174.0</ele><time>2026-04-26T10:11:12.591Z</time></trkpt><trkpt lat="44.2475417" lon="11.75884"><ele>174.0</ele><time>2026-04-26T10:11:13.586Z</time></trkpt><trkpt lat="44.247485" lon="11.75874"><ele>174.0</ele><time>2026-04-26T10:11:14.583Z</time></trkpt><trkpt lat="44.2474267" lon="11.75864"><ele>174.0</ele><time>2026-04-26T10:11:15.6Z</time></trkpt><trkpt lat="44.2473667" lon="11.75854"><ele>174.0</ele><time>2026-04-26T10:11:16.597Z</time></trkpt><trkpt lat="44.2473" lon="11.7584517"><ele>174.0</ele><time>2026-04-26T10:11:17.604Z</time></trkpt><trkpt lat="44.2472317" lon="11.7583683"><ele>175.0</ele><time>2026-04-26T10:11:18.614Z</time></trkpt><trkpt lat="44.2471567" lon="11.75831"><ele>176.0</ele><time>2026-04-26T10:11:19.589Z</time></trkpt><trkpt lat="44.2470767" lon="11.75827"><ele>177.0</ele><time>2026-04-26T10:11:20.588Z</time></trkpt><trkpt lat="44.2470017" lon="11.758235"><ele>178.0</ele><time>2026-04-26T10:11:21.596Z</time></trkpt><trkpt lat="44.2469367" lon="11.7581817"><ele>179.0</ele><time>2026-04-26T10:11:22.599Z</time></trkpt><trkpt lat="44.24689" lon="11.75812"><ele>180.0</ele><time>2026-04-26T10:11:23.586Z</time></trkpt><trkpt lat="44.2468733" lon="11.7580283"><ele>180.0</ele><time>2026-04-26T10:11:24.591Z</time></trkpt><trkpt lat="44.2468633" lon="11.7579233"><ele>180.0</ele><time>2026-04-26T10:11:25.596Z</time></trkpt><trkpt lat="44.2468517" lon="11.7578133"><ele>180.0</ele><time>2026-04-26T10:11:26.599Z</time></trkpt><trkpt lat="44.246845" lon="11.7577017"><ele>180.0</ele><time>2026-04-26T10:11:27.602Z</time></trkpt><trkpt lat="44.2468417" lon="11.757585"><ele>180.0</ele><time>2026-04-26T10:11:28.606Z</time></trkpt><trkpt lat="44.246835" lon="11.7574717"><ele>180.0</ele><time>2026-04-26T10:11:29.592Z</time></trkpt><trkpt lat="44.2468383" lon="11.75736"><ele>179.83333333333334</ele><time>2026-04-26T10:11:30.591Z</time></trkpt><trkpt lat="44.2468583" lon="11.7572583"><ele>179.66666666666666</ele><time>2026-04-26T10:11:31.604Z</time></trkpt><trkpt lat="44.2468933" lon="11.7571767"><ele>179.5</ele><time>2026-04-26T10:11:32.598Z</time></trkpt><trkpt lat="44.2469633" lon="11.75713"><ele>179.33333333333331</ele><time>2026-04-26T10:11:33.59Z</time></trkpt><trkpt lat="44.247045" lon="11.7570983"><ele>179.16666666666666</ele><time>2026-04-26T10:11:34.593Z</time></trkpt><trkpt lat="44.2471283" lon="11.7570867"><ele>179.0</ele><time>2026-04-26T10:11:35.649Z</time></trkpt><trkpt lat="44.247215" lon="11.7570733"><ele>179.0</ele><time>2026-04-26T10:11:36.588Z</time></trkpt><trkpt lat="44.24729" lon="11.7570233"><ele>179.0</ele><time>2026-04-26T10:11:37.594Z</time></trkpt><trkpt lat="44.2473517" lon="11.7569383"><ele>179.0</ele><time>2026-04-26T10:11:38.588Z</time></trkpt><trkpt lat="44.247425" lon="11.7568517"><ele>179.0</ele><time>2026-04-26T10:11:39.592Z</time></trkpt><trkpt lat="44.2475083" lon="11.7567883"><ele>179.0</ele><time>2026-04-26T10:11:40.594Z</time></trkpt><trkpt lat="44.2476033" lon="11.7567517"><ele>180.83333333333331</ele><time>2026-04-26T10:11:41.588Z</time></trkpt><trkpt lat="44.2477017" lon="11.75675"><ele>182.66666666666666</ele><time>2026-04-26T10:11:42.597Z</time></trkpt><trkpt lat="44.247795" lon="11.7567717"><ele>184.5</ele><time>2026-04-26T10:11:43.587Z</time></trkpt><trkpt lat="44.2478783" lon="11.75679"><ele>186.33333333333334</ele><time>2026-04-26T10:11:44.573Z</time></trkpt><trkpt lat="44.2479567" lon="11.7567933"><ele>188.16666666666669</ele><time>2026-04-26T10:11:45.594Z</time></trkpt><trkpt lat="44.2480317" lon="11.7567783"><ele>190.0</ele><time>2026-04-26T10:11:46.597Z</time></trkpt><trkpt lat="44.2481083" lon="11.756735"><ele>189.4</ele><time>2026-04-26T10:11:47.592Z</time></trkpt><trkpt lat="44.2481867" lon="11.7566883"><ele>188.8</ele><time>2026-04-26T10:11:48.596Z</time></trkpt><trkpt lat="44.2482717" lon="11.756655"><ele>188.2</ele><time>2026-04-26T10:11:49.602Z</time></trkpt><trkpt lat="44.248365" lon="11.7566317"><ele>187.6</ele><time>2026-04-26T10:11:50.602Z</time></trkpt><trkpt lat="44.2484583" lon="11.756615"><ele>187.0</ele><time>2026-04-26T10:11:51.596Z</time></trkpt><trkpt lat="44.2485483" lon="11.7565983"><ele>187.0</ele><time>2026-04-26T10:11:52.59Z</time></trkpt><trkpt lat="44.24864" lon="11.7565833"><ele>187.0</ele><time>2026-04-26T10:11:53.589Z</time></trkpt><trkpt lat="44.248735" lon="11.75656"><ele>187.0</ele><time>2026-04-26T10:11:54.594Z</time></trkpt><trkpt lat="44.2488317" lon="11.7565433"><ele>187.0</ele><time>2026-04-26T10:11:55.594Z</time></trkpt><trkpt lat="44.24893" lon="11.7565383"><ele>187.0</ele><time>2026-04-26T10:11:56.594Z</time></trkpt><trkpt lat="44.249025" lon="11.756545"><ele>187.0</ele><time>2026-04-26T10:11:57.596Z</time></trkpt><trkpt lat="44.2491083" lon="11.7565483"><ele>187.0</ele><time>2026-04-26T10:11:58.594Z</time></trkpt><trkpt lat="44.2491733" lon="11.756515"><ele>187.0</ele><time>2026-04-26T10:11:59.589Z</time></trkpt><trkpt lat="44.2492317" lon="11.7564567"><ele>187.0</ele><time>2026-04-26T10:12:00.597Z</time></trkpt><trkpt lat="44.2492833" lon="11.75639"><ele>187.0</ele><time>2026-04-26T10:12:01.58Z</time></trkpt><trkpt lat="44.2493367" lon="11.7563183"><ele>187.0</ele><time>2026-04-26T10:12:02.596Z</time></trkpt><trkpt lat="44.2494017" lon="11.7562617"><ele>187.0</ele><time>2026-04-26T10:12:03.635Z</time></trkpt><trkpt lat="44.2494767" lon="11.75623"><ele>187.0</ele><time>2026-04-26T10:12:04.598Z</time></trkpt><trkpt lat="44.249555" lon="11.7562383"><ele>187.0</ele><time>2026-04-26T10:12:05.599Z</time></trkpt><trkpt lat="44.2496317" lon="11.75628"><ele>187.0</ele><time>2026-04-26T10:12:06.588Z</time></trkpt><trkpt lat="44.2497033" lon="11.7563417"><ele>187.0</ele><time>2026-04-26T10:12:07.595Z</time></trkpt><trkpt lat="44.24978" lon="11.7563933"><ele>187.0</ele><time>2026-04-26T10:12:08.589Z</time></trkpt><trkpt lat="44.249865" lon="11.7564217"><ele>187.0</ele><time>2026-04-26T10:12:09.603Z</time></trkpt><trkpt lat="44.249955" lon="11.7564367"><ele>188.2</ele><time>2026-04-26T10:12:10.592Z</time></trkpt><trkpt lat="44.2500483" lon="11.756455"><ele>189.39999999999998</ele><time>2026-04-26T10:12:11.592Z</time></trkpt><trkpt lat="44.25014" lon="11.756485"><ele>190.60000000000002</ele><time>2026-04-26T10:12:12.605Z</time></trkpt><trkpt lat="44.2502283" lon="11.7565233"><ele>191.8</ele><time>2026-04-26T10:12:13.595Z</time></trkpt><trkpt lat="44.250315" lon="11.756565"><ele>193.0</ele><time>2026-04-26T10:12:14.585Z</time></trkpt><trkpt lat="44.250405" lon="11.7565983"><ele>193.0</ele><time>2026-04-26T10:12:15.586Z</time></trkpt><trkpt lat="44.2505" lon="11.7566217"><ele>193.0</ele><time>2026-04-26T10:12:16.589Z</time></trkpt><trkpt lat="44.2506017" lon="11.7566417"><ele>193.0</ele><time>2026-04-26T10:12:17.599Z</time></trkpt><trkpt lat="44.25071" lon="11.7566617"><ele>193.0</ele><time>2026-04-26T10:12:18.592Z</time></trkpt><trkpt lat="44.2508183" lon="11.7566917"><ele>193.0</ele><time>2026-04-26T10:12:19.606Z</time></trkpt><trkpt lat="44.2509217" lon="11.7567317"><ele>191.0</ele><time>2026-04-26T10:12:20.587Z</time></trkpt><trkpt lat="44.2510217" lon="11.7567833"><ele>189.0</ele><time>2026-04-26T10:12:21.591Z</time></trkpt><trkpt lat="44.251125" lon="11.7568417"><ele>187.0</ele><time>2026-04-26T10:12:22.599Z</time></trkpt><trkpt lat="44.25123" lon="11.7569033"><ele>185.0</ele><time>2026-04-26T10:12:23.597Z</time></trkpt><trkpt lat="44.2513383" lon="11.7569733"><ele>185.0</ele><time>2026-04-26T10:12:24.603Z</time></trkpt><trkpt lat="44.251445" lon="11.75705"><ele>185.0</ele><time>2026-04-26T10:12:25.588Z</time></trkpt><trkpt lat="44.2515533" lon="11.757135"><ele>185.0</ele><time>2026-04-26T10:12:26.596Z</time></trkpt><trkpt lat="44.2516633" lon="11.757225"><ele>185.0</ele><time>2026-04-26T10:12:27.603Z</time></trkpt><trkpt lat="44.2517733" lon="11.7573183"><ele>187.5</ele><time>2026-04-26T10:12:28.6Z</time></trkpt><trkpt lat="44.251885" lon="11.7574083"><ele>190.0</ele><time>2026-04-26T10:12:29.589Z</time></trkpt><trkpt lat="44.2519917" lon="11.7574967"><ele>192.5</ele><time>2026-04-26T10:12:30.58Z</time></trkpt><trkpt lat="44.2520933" lon="11.7575783"><ele>195.0</ele><time>2026-04-26T10:12:31.604Z</time></trkpt><trkpt lat="44.25219" lon="11.757655"><ele>195.0</ele><time>2026-04-26T10:12:32.602Z</time></trkpt><trkpt lat="44.2522817" lon="11.757735"><ele>195.0</ele><time>2026-04-26T10:12:33.608Z</time></trkpt><trkpt lat="44.2523733" lon="11.7578083"><ele>195.0</ele><time>2026-04-26T10:12:34.598Z</time></trkpt><trkpt lat="44.252465" lon="11.757885"><ele>195.0</ele><time>2026-04-26T10:12:35.592Z</time></trkpt><trkpt lat="44.2525533" lon="11.75796"><ele>195.0</ele><time>2026-04-26T10:12:36.598Z</time></trkpt><trkpt lat="44.252645" lon="11.7580333"><ele>195.0</ele><time>2026-04-26T10:12:37.593Z</time></trkpt><trkpt lat="44.2527367" lon="11.7581067"><ele>195.0</ele><time>2026-04-26T10:12:38.59Z</time></trkpt><trkpt lat="44.252825" lon="11.7581817"><ele>195.0</ele><time>2026-04-26T10:12:39.601Z</time></trkpt><trkpt lat="44.252915" lon="11.7582583"><ele>195.0</ele><time>2026-04-26T10:12:40.604Z</time></trkpt><trkpt lat="44.2530067" lon="11.7583383"><ele>195.0</ele><time>2026-04-26T10:12:41.604Z</time></trkpt><trkpt lat="44.2531" lon="11.7584183"><ele>194.2</ele><time>2026-04-26T10:12:42.607Z</time></trkpt><trkpt lat="44.2531883" lon="11.7584967"><ele>193.4</ele><time>2026-04-26T10:12:43.597Z</time></trkpt><trkpt lat="44.2532733" lon="11.7585667"><ele>192.60000000000002</ele><time>2026-04-26T10:12:44.598Z</time></trkpt><trkpt lat="44.2533617" lon="11.7586233"><ele>191.8</ele><time>2026-04-26T10:12:45.578Z</time></trkpt><trkpt lat="44.253455" lon="11.75866"><ele>191.0</ele><time>2026-04-26T10:12:46.594Z</time></trkpt><trkpt lat="44.2535583" lon="11.75868"><ele>191.0</ele><time>2026-04-26T10:12:47.594Z</time></trkpt><trkpt lat="44.253665" lon="11.75869"><ele>191.0</ele><time>2026-04-26T10:12:48.594Z</time></trkpt><trkpt lat="44.2537717" lon="11.758695"><ele>191.0</ele><time>2026-04-26T10:12:49.606Z</time></trkpt><trkpt lat="44.2538767" lon="11.7586967"><ele>191.0</ele><time>2026-04-26T10:12:50.592Z</time></trkpt><trkpt lat="44.2539867" lon="11.7586867"><ele>191.0</ele><time>2026-04-26T10:12:51.601Z</time></trkpt><trkpt lat="44.2540933" lon="11.7586783"><ele>190.4</ele><time>2026-04-26T10:12:52.59Z</time></trkpt><trkpt lat="44.2542017" lon="11.758675"><ele>189.8</ele><time>2026-04-26T10:12:53.596Z</time></trkpt><trkpt lat="44.2543117" lon="11.7586767"><ele>189.20000000000002</ele><time>2026-04-26T10:12:54.594Z</time></trkpt><trkpt lat="44.254425" lon="11.7586867"><ele>188.60000000000002</ele><time>2026-04-26T10:12:55.59Z</time></trkpt><trkpt lat="44.2545367" lon="11.7587033"><ele>188.0</ele><time>2026-04-26T10:12:56.599Z</time></trkpt><trkpt lat="44.2546483" lon="11.7587183"><ele>188.0</ele><time>2026-04-26T10:12:57.593Z</time></trkpt><trkpt lat="44.2547583" lon="11.7587333"><ele>188.0</ele><time>2026-04-26T10:12:58.592Z</time></trkpt><trkpt lat="44.2548633" lon="11.75875"><ele>188.0</ele><time>2026-04-26T10:12:59.589Z</time></trkpt><trkpt lat="44.25496" lon="11.758775"><ele>188.0</ele><time>2026-04-26T10:13:00.594Z</time></trkpt><trkpt lat="44.25505" lon="11.758825"><ele>188.0</ele><time>2026-04-26T10:13:01.602Z</time></trkpt><trkpt lat="44.2551367" lon="11.7588883"><ele>188.4</ele><time>2026-04-26T10:13:02.608Z</time></trkpt><trkpt lat="44.255225" lon="11.7589633"><ele>188.8</ele><time>2026-04-26T10:13:03.593Z</time></trkpt><trkpt lat="44.2553133" lon="11.75904"><ele>189.2</ele><time>2026-04-26T10:13:04.607Z</time></trkpt><trkpt lat="44.2553983" lon="11.7591233"><ele>189.6</ele><time>2026-04-26T10:13:05.593Z</time></trkpt><trkpt lat="44.2554833" lon="11.7592167"><ele>190.0</ele><time>2026-04-26T10:13:06.591Z</time></trkpt><trkpt lat="44.2555583" lon="11.7593217"><ele>188.75</ele><time>2026-04-26T10:13:07.6Z</time></trkpt><trkpt lat="44.2556333" lon="11.759435"><ele>187.5</ele><time>2026-04-26T10:13:08.595Z</time></trkpt><trkpt lat="44.25571" lon="11.75955"><ele>186.25</ele><time>2026-04-26T10:13:09.595Z</time></trkpt><trkpt lat="44.2557883" lon="11.7596667"><ele>185.0</ele><time>2026-04-26T10:13:10.604Z</time></trkpt><trkpt lat="44.2558683" lon="11.75978"><ele>185.0</ele><time>2026-04-26T10:13:11.59Z</time></trkpt><trkpt lat="44.2559483" lon="11.7598883"><ele>185.0</ele><time>2026-04-26T10:13:12.591Z</time></trkpt><trkpt lat="44.2560233" lon="11.7599967"><ele>185.0</ele><time>2026-04-26T10:13:13.591Z</time></trkpt><trkpt lat="44.256095" lon="11.760105"><ele>185.0</ele><time>2026-04-26T10:13:14.588Z</time></trkpt><trkpt lat="44.256165" lon="11.7602117"><ele>185.0</ele><time>2026-04-26T10:13:15.581Z</time></trkpt><trkpt lat="44.256235" lon="11.7603133"><ele>184.4</ele><time>2026-04-26T10:13:16.62Z</time></trkpt><trkpt lat="44.2563067" lon="11.7604117"><ele>183.8</ele><time>2026-04-26T10:13:17.588Z</time></trkpt><trkpt lat="44.2563767" lon="11.7605083"><ele>183.2</ele><time>2026-04-26T10:13:18.607Z</time></trkpt><trkpt lat="44.2564417" lon="11.7606083"><ele>182.6</ele><time>2026-04-26T10:13:19.592Z</time></trkpt><trkpt lat="44.2565067" lon="11.7607117"><ele>182.0</ele><time>2026-04-26T10:13:20.592Z</time></trkpt><trkpt lat="44.25657" lon="11.760815"><ele>182.0</ele><time>2026-04-26T10:13:21.586Z</time></trkpt><trkpt lat="44.25664" lon="11.7609167"><ele>182.0</ele><time>2026-04-26T10:13:22.588Z</time></trkpt><trkpt lat="44.2567167" lon="11.7610117"><ele>182.0</ele><time>2026-04-26T10:13:23.589Z</time></trkpt><trkpt lat="44.2567983" lon="11.7610933"><ele>182.0</ele><time>2026-04-26T10:13:24.59Z</time></trkpt><trkpt lat="44.2568783" lon="11.76116"><ele>182.0</ele><time>2026-04-26T10:13:25.611Z</time></trkpt><trkpt lat="44.2569567" lon="11.7612183"><ele>180.39999999999998</ele><time>2026-04-26T10:13:26.593Z</time></trkpt><trkpt lat="44.257035" lon="11.7612767"><ele>178.79999999999998</ele><time>2026-04-26T10:13:27.597Z</time></trkpt><trkpt lat="44.2571117" lon="11.761345"><ele>177.2</ele><time>2026-04-26T10:13:28.598Z</time></trkpt><trkpt lat="44.257185" lon="11.7614233"><ele>175.6</ele><time>2026-04-26T10:13:29.582Z</time></trkpt><trkpt lat="44.25726" lon="11.7615033"><ele>174.0</ele><time>2026-04-26T10:13:30.6Z</time></trkpt><trkpt lat="44.2573383" lon="11.7615767"><ele>174.0</ele><time>2026-04-26T10:13:31.594Z</time></trkpt><trkpt lat="44.2574217" lon="11.7616433"><ele>174.0</ele><time>2026-04-26T10:13:32.6Z</time></trkpt><trkpt lat="44.2575" lon="11.7617017"><ele>174.0</ele><time>2026-04-26T10:13:33.605Z</time></trkpt><trkpt lat="44.2575767" lon="11.7617433"><ele>174.0</ele><time>2026-04-26T10:13:34.591Z</time></trkpt><trkpt lat="44.2576583" lon="11.7617633"><ele>174.0</ele><time>2026-04-26T10:13:35.602Z</time></trkpt><trkpt lat="44.2577383" lon="11.7617567"><ele>174.0</ele><time>2026-04-26T10:13:36.592Z</time></trkpt><trkpt lat="44.25782" lon="11.7617283"><ele>174.0</ele><time>2026-04-26T10:13:37.598Z</time></trkpt><trkpt lat="44.257905" lon="11.7616817"><ele>174.0</ele><time>2026-04-26T10:13:38.588Z</time></trkpt><trkpt lat="44.2579933" lon="11.7616367"><ele>174.0</ele><time>2026-04-26T10:13:39.59Z</time></trkpt><trkpt lat="44.2580883" lon="11.7615883"><ele>174.0</ele><time>2026-04-26T10:13:40.6Z</time></trkpt><trkpt lat="44.2581833" lon="11.76154"><ele>174.0</ele><time>2026-04-26T10:13:41.603Z</time></trkpt><trkpt lat="44.25828" lon="11.7614917"><ele>172.79999999999998</ele><time>2026-04-26T10:13:42.6Z</time></trkpt><trkpt lat="44.2583783" lon="11.76145"><ele>171.6</ele><time>2026-04-26T10:13:43.594Z</time></trkpt><trkpt lat="44.2584767" lon="11.761405"><ele>170.4</ele><time>2026-04-26T10:13:44.589Z</time></trkpt><trkpt lat="44.2585733" lon="11.7613567"><ele>169.2</ele><time>2026-04-26T10:13:45.588Z</time></trkpt><trkpt lat="44.25866" lon="11.7613"><ele>168.0</ele><time>2026-04-26T10:13:46.588Z</time></trkpt><trkpt lat="44.2587383" lon="11.7612333"><ele>168.0</ele><time>2026-04-26T10:13:47.591Z</time></trkpt><trkpt lat="44.2588133" lon="11.76116"><ele>168.0</ele><time>2026-04-26T10:13:48.611Z</time></trkpt><trkpt lat="44.258885" lon="11.7610717"><ele>168.0</ele><time>2026-04-26T10:13:49.589Z</time></trkpt><trkpt lat="44.2589533" lon="11.7609733"><ele>168.0</ele><time>2026-04-26T10:13:50.597Z</time></trkpt><trkpt lat="44.2590217" lon="11.7608733"><ele>168.0</ele><time>2026-04-26T10:13:51.595Z</time></trkpt><trkpt lat="44.2590917" lon="11.7607717"><ele>167.60000000000002</ele><time>2026-04-26T10:13:52.597Z</time></trkpt><trkpt lat="44.2591567" lon="11.7606617"><ele>167.20000000000002</ele><time>2026-04-26T10:13:53.604Z</time></trkpt><trkpt lat="44.259215" lon="11.7605467"><ele>166.8</ele><time>2026-04-26T10:13:54.6Z</time></trkpt><trkpt lat="44.2592633" lon="11.7604367"><ele>166.4</ele><time>2026-04-26T10:13:55.59Z</time></trkpt><trkpt lat="44.2593133" lon="11.7603417"><ele>166.0</ele><time>2026-04-26T10:13:56.589Z</time></trkpt><trkpt lat="44.2593667" lon="11.7602667"><ele>166.0</ele><time>2026-04-26T10:13:57.599Z</time></trkpt><trkpt lat="44.2594233" lon="11.7602133"><ele>166.0</ele><time>2026-04-26T10:13:58.593Z</time></trkpt><trkpt lat="44.2594917" lon="11.7601967"><ele>166.0</ele><time>2026-04-26T10:13:59.598Z</time></trkpt><trkpt lat="44.2595683" lon="11.7601917"><ele>166.0</ele><time>2026-04-26T10:14:00.587Z</time></trkpt><trkpt lat="44.2596517" lon="11.7601833"><ele>166.0</ele><time>2026-04-26T10:14:01.606Z</time></trkpt><trkpt lat="44.2597417" lon="11.76018"><ele>166.0</ele><time>2026-04-26T10:14:02.602Z</time></trkpt><trkpt lat="44.2598467" lon="11.76016"><ele>165.60000000000002</ele><time>2026-04-26T10:14:03.596Z</time></trkpt><trkpt lat="44.2599533" lon="11.7601233"><ele>165.2</ele><time>2026-04-26T10:14:04.595Z</time></trkpt><trkpt lat="44.2600617" lon="11.7600867"><ele>164.8</ele><time>2026-04-26T10:14:05.592Z</time></trkpt><trkpt lat="44.260165" lon="11.7600633"><ele>164.39999999999998</ele><time>2026-04-26T10:14:06.613Z</time></trkpt><trkpt lat="44.2602667" lon="11.7600467"><ele>164.0</ele><time>2026-04-26T10:14:07.59Z</time></trkpt><trkpt lat="44.2603733" lon="11.7600467"><ele>164.0</ele><time>2026-04-26T10:14:08.587Z</time></trkpt><trkpt lat="44.2604783" lon="11.7600567"><ele>164.0</ele><time>2026-04-26T10:14:09.588Z</time></trkpt><trkpt lat="44.2605867" lon="11.760075"><ele>164.0</ele><time>2026-04-26T10:14:10.588Z</time></trkpt><trkpt lat="44.2606883" lon="11.760105"><ele>164.0</ele><time>2026-04-26T10:14:11.593Z</time></trkpt><trkpt lat="44.260785" lon="11.7601483"><ele>164.0</ele><time>2026-04-26T10:14:12.59Z</time></trkpt><trkpt lat="44.2608783" lon="11.7602033"><ele>159.6</ele><time>2026-04-26T10:14:13.601Z</time></trkpt><trkpt lat="44.260975" lon="11.7602617"><ele>155.2</ele><time>2026-04-26T10:14:14.6Z</time></trkpt><trkpt lat="44.2610633" lon="11.7603233"><ele>150.79999999999998</ele><time>2026-04-26T10:14:15.598Z</time></trkpt><trkpt lat="44.26115" lon="11.760385"><ele>146.39999999999998</ele><time>2026-04-26T10:14:16.595Z</time></trkpt><trkpt lat="44.26124" lon="11.7604383"><ele>142.0</ele><time>2026-04-26T10:14:17.588Z</time></trkpt><trkpt lat="44.261335" lon="11.7604833"><ele>142.0</ele><time>2026-04-26T10:14:18.592Z</time></trkpt><trkpt lat="44.2614317" lon="11.7605217"><ele>142.0</ele><time>2026-04-26T10:14:19.603Z</time></trkpt><trkpt lat="44.2615217" lon="11.76056"><ele>142.0</ele><time>2026-04-26T10:14:20.593Z</time></trkpt><trkpt lat="44.2616067" lon="11.7606017"><ele>142.0</ele><time>2026-04-26T10:14:21.598Z</time></trkpt><trkpt lat="44.261695" lon="11.7606417"><ele>142.0</ele><time>2026-04-26T10:14:22.594Z</time></trkpt><trkpt lat="44.2617817" lon="11.7606883"><ele>141.0</ele><time>2026-04-26T10:14:23.589Z</time></trkpt><trkpt lat="44.2618733" lon="11.7607433"><ele>140.0</ele><time>2026-04-26T10:14:24.59Z</time></trkpt><trkpt lat="44.2619633" lon="11.7608"><ele>139.0</ele><time>2026-04-26T10:14:25.598Z</time></trkpt><trkpt lat="44.26205" lon="11.760855"><ele>138.0</ele><time>2026-04-26T10:14:26.59Z</time></trkpt><trkpt lat="44.262145" lon="11.7609083"><ele>137.0</ele><time>2026-04-26T10:14:27.607Z</time></trkpt><trkpt lat="44.26224" lon="11.7609533"><ele>136.4</ele><time>2026-04-26T10:14:28.599Z</time></trkpt><trkpt lat="44.2623367" lon="11.761"><ele>135.79999999999998</ele><time>2026-04-26T10:14:29.596Z</time></trkpt><trkpt lat="44.2624317" lon="11.76104"><ele>135.2</ele><time>2026-04-26T10:14:30.581Z</time></trkpt><trkpt lat="44.2625233" lon="11.76106"><ele>134.6</ele><time>2026-04-26T10:14:31.58Z</time></trkpt><trkpt lat="44.2626083" lon="11.76106"><ele>134.0</ele><time>2026-04-26T10:14:32.595Z</time></trkpt><trkpt lat="44.2626883" lon="11.7610433"><ele>134.0</ele><time>2026-04-26T10:14:33.602Z</time></trkpt><trkpt lat="44.2627633" lon="11.7610017"><ele>134.0</ele><time>2026-04-26T10:14:34.597Z</time></trkpt><trkpt lat="44.2628417" lon="11.7609467"><ele>134.0</ele><time>2026-04-26T10:14:35.593Z</time></trkpt><trkpt lat="44.262925" lon="11.7608767"><ele>134.0</ele><time>2026-04-26T10:14:36.593Z</time></trkpt><trkpt lat="44.2630117" lon="11.7607967"><ele>134.0</ele><time>2026-04-26T10:14:37.585Z</time></trkpt><trkpt lat="44.2631033" lon="11.76071"><ele>130.6</ele><time>2026-04-26T10:14:38.626Z</time></trkpt><trkpt lat="44.26319" lon="11.76063"><ele>127.2</ele><time>2026-04-26T10:14:39.596Z</time></trkpt><trkpt lat="44.26327" lon="11.76055"><ele>123.79999999999998</ele><time>2026-04-26T10:14:40.588Z</time></trkpt><trkpt lat="44.2633483" lon="11.76048"><ele>120.39999999999999</ele><time>2026-04-26T10:14:41.589Z</time></trkpt><trkpt lat="44.26342" lon="11.760415"><ele>117.0</ele><time>2026-04-26T10:14:42.597Z</time></trkpt><trkpt lat="44.2634833" lon="11.7603517"><ele>117.0</ele><time>2026-04-26T10:14:43.587Z</time></trkpt><trkpt lat="44.26353" lon="11.7602767"><ele>117.0</ele><time>2026-04-26T10:14:44.608Z</time></trkpt><trkpt lat="44.263555" lon="11.7601867"><ele>117.0</ele><time>2026-04-26T10:14:45.593Z</time></trkpt><trkpt lat="44.26356" lon="11.7600867"><ele>117.0</ele><time>2026-04-26T10:14:46.602Z</time></trkpt><trkpt lat="44.26355" lon="11.7599683"><ele>117.0</ele><time>2026-04-26T10:14:47.594Z</time></trkpt><trkpt lat="44.2635283" lon="11.7598367"><ele>117.0</ele><time>2026-04-26T10:14:48.588Z</time></trkpt><trkpt lat="44.2635067" lon="11.7597017"><ele>117.0</ele><time>2026-04-26T10:14:49.603Z</time></trkpt><trkpt lat="44.26349" lon="11.759565"><ele>116.99999999999999</ele><time>2026-04-26T10:14:50.599Z</time></trkpt><trkpt lat="44.2634717" lon="11.75943"><ele>116.99999999999999</ele><time>2026-04-26T10:14:51.603Z</time></trkpt><trkpt lat="44.2634567" lon="11.7592967"><ele>117.0</ele><time>2026-04-26T10:14:52.586Z</time></trkpt><trkpt lat="44.263445" lon="11.759165"><ele>117.0</ele><time>2026-04-26T10:14:53.58Z</time></trkpt><trkpt lat="44.2634317" lon="11.759035"><ele>117.0</ele><time>2026-04-26T10:14:54.579Z</time></trkpt><trkpt lat="44.2634217" lon="11.7589083"><ele>117.0</ele><time>2026-04-26T10:14:55.596Z</time></trkpt><trkpt lat="44.26341" lon="11.75879"><ele>117.0</ele><time>2026-04-26T10:14:56.599Z</time></trkpt><trkpt lat="44.2634017" lon="11.758675"><ele>117.0</ele><time>2026-04-26T10:14:57.603Z</time></trkpt><trkpt lat="44.2633867" lon="11.7585617"><ele>117.0</ele><time>2026-04-26T10:14:58.603Z</time></trkpt><trkpt lat="44.263375" lon="11.7584517"><ele>117.0</ele><time>2026-04-26T10:14:59.589Z</time></trkpt><trkpt lat="44.263365" lon="11.7583383"><ele>116.0</ele><time>2026-04-26T10:15:00.599Z</time></trkpt><trkpt lat="44.263355" lon="11.7582217"><ele>115.0</ele><time>2026-04-26T10:15:01.593Z</time></trkpt><trkpt lat="44.2633467" lon="11.7580983"><ele>114.0</ele><time>2026-04-26T10:15:02.592Z</time></trkpt><trkpt lat="44.2633417" lon="11.757975"><ele>113.0</ele><time>2026-04-26T10:15:03.599Z</time></trkpt><trkpt lat="44.2633367" lon="11.757855"><ele>112.0</ele><time>2026-04-26T10:15:04.593Z</time></trkpt><trkpt lat="44.2633333" lon="11.757735"><ele>111.0</ele><time>2026-04-26T10:15:05.6Z</time></trkpt><trkpt lat="44.2633267" lon="11.75761"><ele>109.14285714285714</ele><time>2026-04-26T10:15:06.611Z</time></trkpt><trkpt lat="44.2633217" lon="11.7574917"><ele>107.28571428571429</ele><time>2026-04-26T10:15:07.608Z</time></trkpt><trkpt lat="44.2633233" lon="11.7573833"><ele>105.42857142857143</ele><time>2026-04-26T10:15:08.599Z</time></trkpt><trkpt lat="44.2633317" lon="11.7572867"><ele>103.57142857142857</ele><time>2026-04-26T10:15:09.583Z</time></trkpt><trkpt lat="44.2633567" lon="11.7572033"><ele>101.71428571428572</ele><time>2026-04-26T10:15:10.598Z</time></trkpt><trkpt lat="44.2634017" lon="11.7571333"><ele>99.85714285714286</ele><time>2026-04-26T10:15:11.591Z</time></trkpt><trkpt lat="44.2634583" lon="11.757085"><ele>98.0</ele><time>2026-04-26T10:15:12.594Z</time></trkpt><trkpt lat="44.2635267" lon="11.75705"><ele>97.99999999999999</ele><time>2026-04-26T10:15:13.593Z</time></trkpt><trkpt lat="44.2636033" lon="11.7570417"><ele>98.0</ele><time>2026-04-26T10:15:14.595Z</time></trkpt><trkpt lat="44.2636783" lon="11.7570417"><ele>98.0</ele><time>2026-04-26T10:15:15.604Z</time></trkpt><trkpt lat="44.263745" lon="11.7570517"><ele>98.0</ele><time>2026-04-26T10:15:16.59Z</time></trkpt><trkpt lat="44.2638533" lon="11.7570117"><ele>97.99999999999999</ele><time>2026-04-26T10:15:18.593Z</time></trkpt><trkpt lat="44.2639083" lon="11.7569133"><ele>98.0</ele><time>2026-04-26T10:15:20.596Z</time></trkpt><trkpt lat="44.2638467" lon="11.7568167"><ele>95.83333333333333</ele><time>2026-04-26T10:15:23.598Z</time></trkpt><trkpt lat="44.2637783" lon="11.7568"><ele>93.66666666666666</ele><time>2026-04-26T10:15:24.594Z</time></trkpt><trkpt lat="44.2636967" lon="11.7567817"><ele>91.5</ele><time>2026-04-26T10:15:25.605Z</time></trkpt><trkpt lat="44.26362" lon="11.7567617"><ele>89.33333333333333</ele><time>2026-04-26T10:15:26.589Z</time></trkpt><trkpt lat="44.2635467" lon="11.75675"><ele>87.16666666666666</ele><time>2026-04-26T10:15:27.589Z</time></trkpt><trkpt lat="44.2634267" lon="11.7567733"><ele>85.0</ele><time>2026-04-26T10:15:29.593Z</time></trkpt><trkpt lat="44.2633167" lon="11.7568567"><ele>86.85714285714286</ele><time>2026-04-26T10:15:31.591Z</time></trkpt><trkpt lat="44.2632617" lon="11.7569117"><ele>88.71428571428571</ele><time>2026-04-26T10:15:32.603Z</time></trkpt><trkpt lat="44.263205" lon="11.7569667"><ele>90.57142857142857</ele><time>2026-04-26T10:15:33.612Z</time></trkpt><trkpt lat="44.2631517" lon="11.7570183"><ele>92.42857142857143</ele><time>2026-04-26T10:15:34.595Z</time></trkpt><trkpt lat="44.2631" lon="11.757075"><ele>94.28571428571428</ele><time>2026-04-26T10:15:35.602Z</time></trkpt><trkpt lat="44.2630517" lon="11.7571367"><ele>96.14285714285714</ele><time>2026-04-26T10:15:36.596Z</time></trkpt><trkpt lat="44.2630033" lon="11.7572017"><ele>98.0</ele><time>2026-04-26T10:15:37.594Z</time></trkpt><trkpt lat="44.26295" lon="11.7572567"><ele>98.33333333333333</ele><time>2026-04-26T10:15:38.594Z</time></trkpt><trkpt lat="44.262825" lon="11.7572433"><ele>98.66666666666666</ele><time>2026-04-26T10:15:40.597Z</time></trkpt><trkpt lat="44.2627617" lon="11.7571883"><ele>99.0</ele><time>2026-04-26T10:15:41.593Z</time></trkpt><trkpt lat="44.2627083" lon="11.7571067"><ele>99.33333333333334</ele><time>2026-04-26T10:15:42.59Z</time></trkpt><trkpt lat="44.2626617" lon="11.7570117"><ele>99.66666666666667</ele><time>2026-04-26T10:15:43.59Z</time></trkpt><trkpt lat="44.262635" lon="11.7569083"><ele>100.0</ele><time>2026-04-26T10:15:44.594Z</time></trkpt><trkpt lat="44.2626183" lon="11.7568133"><ele>98.71428571428572</ele><time>2026-04-26T10:15:45.593Z</time></trkpt><trkpt lat="44.2626217" lon="11.7567133"><ele>97.42857142857143</ele><time>2026-04-26T10:15:46.593Z</time></trkpt><trkpt lat="44.2626517" lon="11.7566283"><ele>96.14285714285714</ele><time>2026-04-26T10:15:47.6Z</time></trkpt><trkpt lat="44.262695" lon="11.7565517"><ele>94.85714285714286</ele><time>2026-04-26T10:15:48.585Z</time></trkpt><trkpt lat="44.2627333" lon="11.7564667"><ele>93.57142857142857</ele><time>2026-04-26T10:15:49.58Z</time></trkpt><trkpt lat="44.262775" lon="11.7563717"><ele>92.28571428571429</ele><time>2026-04-26T10:15:50.593Z</time></trkpt><trkpt lat="44.2628167" lon="11.7562717"><ele>91.0</ele><time>2026-04-26T10:15:51.595Z</time></trkpt><trkpt lat="44.26284" lon="11.7561733"><ele>91.0</ele><time>2026-04-26T10:15:52.6Z</time></trkpt><trkpt lat="44.2628433" lon="11.7560817"><ele>91.0</ele><time>2026-04-26T10:15:53.596Z</time></trkpt><trkpt lat="44.262825" lon="11.755985"><ele>91.0</ele><time>2026-04-26T10:15:54.587Z</time></trkpt><trkpt lat="44.2627933" lon="11.7558867"><ele>91.0</ele><time>2026-04-26T10:15:55.59Z</time></trkpt><trkpt lat="44.2627433" lon="11.755785"><ele>91.0</ele><time>2026-04-26T10:15:56.607Z</time></trkpt><trkpt lat="44.262685" lon="11.7556767"><ele>91.0</ele><time>2026-04-26T10:15:57.591Z</time></trkpt><trkpt lat="44.2626217" lon="11.7555567"><ele>89.4</ele><time>2026-04-26T10:15:58.594Z</time></trkpt><trkpt lat="44.26256" lon="11.7554383"><ele>87.8</ele><time>2026-04-26T10:15:59.596Z</time></trkpt><trkpt lat="44.262495" lon="11.7553267"><ele>86.2</ele><time>2026-04-26T10:16:00.593Z</time></trkpt><trkpt lat="44.262435" lon="11.75522"><ele>84.60000000000001</ele><time>2026-04-26T10:16:01.594Z</time></trkpt><trkpt lat="44.26238" lon="11.7551067"><ele>83.0</ele><time>2026-04-26T10:16:02.597Z</time></trkpt><trkpt lat="44.262335" lon="11.7549967"><ele>84.33333333333334</ele><time>2026-04-26T10:16:03.581Z</time></trkpt><trkpt lat="44.2622917" lon="11.7548883"><ele>85.66666666666667</ele><time>2026-04-26T10:16:04.583Z</time></trkpt><trkpt lat="44.2622517" lon="11.7547667"><ele>87.0</ele><time>2026-04-26T10:16:05.603Z</time></trkpt><trkpt lat="44.2622167" lon="11.75465"><ele>88.33333333333333</ele><time>2026-04-26T10:16:06.595Z</time></trkpt><trkpt lat="44.2621867" lon="11.7545467"><ele>89.66666666666666</ele><time>2026-04-26T10:16:07.59Z</time></trkpt><trkpt lat="44.26216" lon="11.7544533"><ele>91.0</ele><time>2026-04-26T10:16:08.589Z</time></trkpt><trkpt lat="44.2621633" lon="11.7542983"><ele>88.33333333333333</ele><time>2026-04-26T10:16:10.595Z</time></trkpt><trkpt lat="44.2622383" lon="11.7541867"><ele>85.66666666666666</ele><time>2026-04-26T10:16:12.597Z</time></trkpt><trkpt lat="44.2622917" lon="11.7541367"><ele>83.0</ele><time>2026-04-26T10:16:13.586Z</time></trkpt><trkpt lat="44.2623517" lon="11.754085"><ele>80.33333333333333</ele><time>2026-04-26T10:16:14.585Z</time></trkpt><trkpt lat="44.2624183" lon="11.75403"><ele>77.66666666666667</ele><time>2026-04-26T10:16:15.59Z</time></trkpt><trkpt lat="44.2624883" lon="11.7539717"><ele>75.0</ele><time>2026-04-26T10:16:16.596Z</time></trkpt><trkpt lat="44.26256" lon="11.7539133"><ele>73.16666666666667</ele><time>2026-04-26T10:16:17.591Z</time></trkpt><trkpt lat="44.2626283" lon="11.7538533"><ele>71.33333333333333</ele><time>2026-04-26T10:16:18.595Z</time></trkpt><trkpt lat="44.2626967" lon="11.7537933"><ele>69.5</ele><time>2026-04-26T10:16:19.624Z</time></trkpt><trkpt lat="44.2627733" lon="11.7537417"><ele>67.66666666666666</ele><time>2026-04-26T10:16:20.59Z</time></trkpt><trkpt lat="44.2628533" lon="11.7537033"><ele>65.83333333333333</ele><time>2026-04-26T10:16:21.598Z</time></trkpt><trkpt lat="44.26293" lon="11.7536717"><ele>64.0</ele><time>2026-04-26T10:16:22.591Z</time></trkpt><trkpt lat="44.2630083" lon="11.75365"><ele>63.99999999999999</ele><time>2026-04-26T10:16:23.599Z</time></trkpt><trkpt lat="44.26309" lon="11.7536317"><ele>64.0</ele><time>2026-04-26T10:16:24.597Z</time></trkpt><trkpt lat="44.26317" lon="11.75362"><ele>64.0</ele><time>2026-04-26T10:16:25.589Z</time></trkpt><trkpt lat="44.26325" lon="11.75362"><ele>64.0</ele><time>2026-04-26T10:16:26.595Z</time></trkpt><trkpt lat="44.263325" lon="11.7536033"><ele>63.99999999999999</ele><time>2026-04-26T10:16:27.584Z</time></trkpt><trkpt lat="44.26339" lon="11.7535783"><ele>64.0</ele><time>2026-04-26T10:16:28.596Z</time></trkpt><trkpt lat="44.2634433" lon="11.75353"><ele>64.42857142857143</ele><time>2026-04-26T10:16:29.598Z</time></trkpt><trkpt lat="44.2634833" lon="11.7534617"><ele>64.85714285714285</ele><time>2026-04-26T10:16:30.592Z</time></trkpt><trkpt lat="44.2635117" lon="11.7533767"><ele>65.28571428571428</ele><time>2026-04-26T10:16:31.611Z</time></trkpt><trkpt lat="44.2635367" lon="11.75329"><ele>65.71428571428571</ele><time>2026-04-26T10:16:32.59Z</time></trkpt><trkpt lat="44.2635533" lon="11.753195"><ele>66.14285714285714</ele><time>2026-04-26T10:16:33.589Z</time></trkpt><trkpt lat="44.2635567" lon="11.7530983"><ele>66.57142857142857</ele><time>2026-04-26T10:16:34.589Z</time></trkpt><trkpt lat="44.2635517" lon="11.7530033"><ele>67.0</ele><time>2026-04-26T10:16:35.589Z</time></trkpt><trkpt lat="44.263535" lon="11.7529083"><ele>67.0</ele><time>2026-04-26T10:16:36.583Z</time></trkpt><trkpt lat="44.26351" lon="11.75281"><ele>67.0</ele><time>2026-04-26T10:16:37.59Z</time></trkpt><trkpt lat="44.26348" lon="11.7527"><ele>67.0</ele><time>2026-04-26T10:16:38.589Z</time></trkpt><trkpt lat="44.2634483" lon="11.7525917"><ele>67.0</ele><time>2026-04-26T10:16:39.59Z</time></trkpt><trkpt lat="44.263415" lon="11.7524967"><ele>67.0</ele><time>2026-04-26T10:16:40.592Z</time></trkpt><trkpt lat="44.2633817" lon="11.75238"><ele>67.0</ele><time>2026-04-26T10:16:41.596Z</time></trkpt><trkpt lat="44.26335" lon="11.7522617"><ele>68.16666666666666</ele><time>2026-04-26T10:16:42.587Z</time></trkpt><trkpt lat="44.2633183" lon="11.75215"><ele>69.33333333333333</ele><time>2026-04-26T10:16:43.594Z</time></trkpt><trkpt lat="44.2632917" lon="11.752035"><ele>70.5</ele><time>2026-04-26T10:16:44.597Z</time></trkpt><trkpt lat="44.263275" lon="11.7519233"><ele>71.66666666666667</ele><time>2026-04-26T10:16:45.605Z</time></trkpt><trkpt lat="44.2632733" lon="11.751815"><ele>72.83333333333334</ele><time>2026-04-26T10:16:46.581Z</time></trkpt><trkpt lat="44.2632833" lon="11.7517017"><ele>74.0</ele><time>2026-04-26T10:16:47.587Z</time></trkpt><trkpt lat="44.263305" lon="11.751585"><ele>75.0</ele><time>2026-04-26T10:16:48.586Z</time></trkpt><trkpt lat="44.2633317" lon="11.75147"><ele>76.0</ele><time>2026-04-26T10:16:49.606Z</time></trkpt><trkpt lat="44.2633633" lon="11.75136"><ele>77.0</ele><time>2026-04-26T10:16:50.601Z</time></trkpt><trkpt lat="44.2633983" lon="11.7512467"><ele>78.0</ele><time>2026-04-26T10:16:51.603Z</time></trkpt><trkpt lat="44.263435" lon="11.7511283"><ele>79.0</ele><time>2026-04-26T10:16:52.589Z</time></trkpt><trkpt lat="44.2634767" lon="11.75101"><ele>80.0</ele><time>2026-04-26T10:16:53.577Z</time></trkpt><trkpt lat="44.2635217" lon="11.7508867"><ele>81.0</ele><time>2026-04-26T10:16:54.592Z</time></trkpt><trkpt lat="44.26357" lon="11.750755"><ele>82.0</ele><time>2026-04-26T10:16:55.609Z</time></trkpt><trkpt lat="44.2636133" lon="11.75062"><ele>83.0</ele><time>2026-04-26T10:16:56.605Z</time></trkpt><trkpt lat="44.2636583" lon="11.7504733"><ele>84.0</ele><time>2026-04-26T10:16:57.58Z</time></trkpt><trkpt lat="44.263705" lon="11.7503367"><ele>85.0</ele><time>2026-04-26T10:16:58.599Z</time></trkpt><trkpt lat="44.2637483" lon="11.7502217"><ele>85.33333333333333</ele><time>2026-04-26T10:16:59.586Z</time></trkpt><trkpt lat="44.2637867" lon="11.7501167"><ele>85.66666666666666</ele><time>2026-04-26T10:17:00.581Z</time></trkpt><trkpt lat="44.263835" lon="11.75001"><ele>86.0</ele><time>2026-04-26T10:17:01.594Z</time></trkpt><trkpt lat="44.26388" lon="11.7499083"><ele>86.33333333333333</ele><time>2026-04-26T10:17:02.609Z</time></trkpt><trkpt lat="44.2639283" lon="11.7498"><ele>86.66666666666667</ele><time>2026-04-26T10:17:03.59Z</time></trkpt><trkpt lat="44.263975" lon="11.7496917"><ele>87.0</ele><time>2026-04-26T10:17:04.586Z</time></trkpt><trkpt lat="44.264025" lon="11.74959"><ele>87.16666666666667</ele><time>2026-04-26T10:17:05.59Z</time></trkpt><trkpt lat="44.2640767" lon="11.7494867"><ele>87.33333333333333</ele><time>2026-04-26T10:17:06.6Z</time></trkpt><trkpt lat="44.264135" lon="11.7493833"><ele>87.5</ele><time>2026-04-26T10:17:07.6Z</time></trkpt><trkpt lat="44.26419" lon="11.7492817"><ele>87.66666666666666</ele><time>2026-04-26T10:17:08.591Z</time></trkpt><trkpt lat="44.2642417" lon="11.7491883"><ele>87.83333333333333</ele><time>2026-04-26T10:17:09.607Z</time></trkpt><trkpt lat="44.2642917" lon="11.74911"><ele>88.0</ele><time>2026-04-26T10:17:10.574Z</time></trkpt><trkpt lat="44.264345" lon="11.749045"><ele>88.0</ele><time>2026-04-26T10:17:11.589Z</time></trkpt><trkpt lat="44.2644" lon="11.7489967"><ele>88.0</ele><time>2026-04-26T10:17:12.599Z</time></trkpt><trkpt lat="44.2644567" lon="11.748955"><ele>88.0</ele><time>2026-04-26T10:17:13.588Z</time></trkpt><trkpt lat="44.2645217" lon="11.748925"><ele>88.0</ele><time>2026-04-26T10:17:14.588Z</time></trkpt><trkpt lat="44.2645883" lon="11.7489067"><ele>88.0</ele><time>2026-04-26T10:17:15.607Z</time></trkpt><trkpt lat="44.2646533" lon="11.7488917"><ele>88.0</ele><time>2026-04-26T10:17:16.635Z</time></trkpt><trkpt lat="44.2647667" lon="11.7488783"><ele>88.0</ele><time>2026-04-26T10:17:18.59Z</time></trkpt><trkpt lat="44.2648483" lon="11.7488267"><ele>88.0</ele><time>2026-04-26T10:17:20.593Z</time></trkpt><trkpt lat="44.2649033" lon="11.748725"><ele>88.0</ele><time>2026-04-26T10:17:22.603Z</time></trkpt><trkpt lat="44.2649383" lon="11.7485983"><ele>88.0</ele><time>2026-04-26T10:17:24.597Z</time></trkpt><trkpt lat="44.264965" lon="11.7485083"><ele>88.0</ele><time>2026-04-26T10:17:27.591Z</time></trkpt><trkpt lat="44.264905" lon="11.7483767"><ele>88.0</ele><time>2026-04-26T10:17:33.603Z</time></trkpt><trkpt lat="44.2648567" lon="11.74832"><ele>88.0</ele><time>2026-04-26T10:17:34.591Z</time></trkpt><trkpt lat="44.2647967" lon="11.74826"><ele>88.33333333333333</ele><time>2026-04-26T10:17:35.594Z</time></trkpt><trkpt lat="44.2647317" lon="11.7481983"><ele>88.66666666666666</ele><time>2026-04-26T10:17:36.595Z</time></trkpt><trkpt lat="44.2646683" lon="11.748135"><ele>89.0</ele><time>2026-04-26T10:17:37.605Z</time></trkpt><trkpt lat="44.264595" lon="11.7480683"><ele>89.33333333333333</ele><time>2026-04-26T10:17:38.596Z</time></trkpt><trkpt lat="44.2645183" lon="11.748005"><ele>89.66666666666667</ele><time>2026-04-26T10:17:39.595Z</time></trkpt><trkpt lat="44.2644367" lon="11.7479467"><ele>90.0</ele><time>2026-04-26T10:17:40.613Z</time></trkpt><trkpt lat="44.26435" lon="11.7478933"><ele>90.0</ele><time>2026-04-26T10:17:41.589Z</time></trkpt><trkpt lat="44.2642567" lon="11.747845"><ele>90.0</ele><time>2026-04-26T10:17:42.589Z</time></trkpt><trkpt lat="44.2641633" lon="11.7478033"><ele>90.0</ele><time>2026-04-26T10:17:43.592Z</time></trkpt><trkpt lat="44.2640733" lon="11.74776"><ele>90.0</ele><time>2026-04-26T10:17:44.596Z</time></trkpt><trkpt lat="44.2639883" lon="11.7477133"><ele>90.0</ele><time>2026-04-26T10:17:45.596Z</time></trkpt><trkpt lat="44.26391" lon="11.7476617"><ele>90.0</ele><time>2026-04-26T10:17:46.595Z</time></trkpt><trkpt lat="44.2638317" lon="11.7476017"><ele>90.0</ele><time>2026-04-26T10:17:47.603Z</time></trkpt><trkpt lat="44.263755" lon="11.74754"><ele>90.0</ele><time>2026-04-26T10:17:48.597Z</time></trkpt><trkpt lat="44.2636767" lon="11.74747"><ele>90.0</ele><time>2026-04-26T10:17:49.601Z</time></trkpt><trkpt lat="44.2635967" lon="11.7473967"><ele>90.0</ele><time>2026-04-26T10:17:50.597Z</time></trkpt><trkpt lat="44.2635117" lon="11.74732"><ele>90.0</ele><time>2026-04-26T10:17:51.588Z</time></trkpt><trkpt lat="44.2634233" lon="11.7472417"><ele>90.0</ele><time>2026-04-26T10:17:52.597Z</time></trkpt><trkpt lat="44.2633267" lon="11.747165"><ele>90.0</ele><time>2026-04-26T10:17:53.606Z</time></trkpt><trkpt lat="44.2632317" lon="11.7470833"><ele>90.0</ele><time>2026-04-26T10:17:54.615Z</time></trkpt><trkpt lat="44.2631317" lon="11.747"><ele>90.0</ele><time>2026-04-26T10:17:55.586Z</time></trkpt><trkpt lat="44.26303" lon="11.746915"><ele>90.5</ele><time>2026-04-26T10:17:56.584Z</time></trkpt><trkpt lat="44.2629233" lon="11.7468267"><ele>91.0</ele><time>2026-04-26T10:17:57.596Z</time></trkpt><trkpt lat="44.2628133" lon="11.74674"><ele>91.5</ele><time>2026-04-26T10:17:58.594Z</time></trkpt><trkpt lat="44.262705" lon="11.7466517"><ele>92.0</ele><time>2026-04-26T10:17:59.591Z</time></trkpt><trkpt lat="44.2625933" lon="11.74656"><ele>92.0</ele><time>2026-04-26T10:18:00.599Z</time></trkpt><trkpt lat="44.2624833" lon="11.7464633"><ele>92.0</ele><time>2026-04-26T10:18:01.595Z</time></trkpt><trkpt lat="44.2623717" lon="11.7463617"><ele>92.0</ele><time>2026-04-26T10:18:02.589Z</time></trkpt><trkpt lat="44.26226" lon="11.746265"><ele>92.0</ele><time>2026-04-26T10:18:03.605Z</time></trkpt><trkpt lat="44.26215" lon="11.7461683"><ele>92.25</ele><time>2026-04-26T10:18:04.592Z</time></trkpt><trkpt lat="44.2620433" lon="11.7460733"><ele>92.5</ele><time>2026-04-26T10:18:05.586Z</time></trkpt><trkpt lat="44.2619367" lon="11.7459783"><ele>92.75</ele><time>2026-04-26T10:18:06.599Z</time></trkpt><trkpt lat="44.26183" lon="11.7458883"><ele>93.0</ele><time>2026-04-26T10:18:07.593Z</time></trkpt><trkpt lat="44.2617267" lon="11.7458033"><ele>93.0</ele><time>2026-04-26T10:18:08.588Z</time></trkpt><trkpt lat="44.2616333" lon="11.7457183"><ele>93.0</ele><time>2026-04-26T10:18:09.588Z</time></trkpt><trkpt lat="44.2615467" lon="11.74564"><ele>93.0</ele><time>2026-04-26T10:18:10.597Z</time></trkpt><trkpt lat="44.2614667" lon="11.7455667"><ele>93.0</ele><time>2026-04-26T10:18:11.589Z</time></trkpt><trkpt lat="44.261395" lon="11.7454983"><ele>93.0</ele><time>2026-04-26T10:18:12.591Z</time></trkpt><trkpt lat="44.2613317" lon="11.7454333"><ele>93.16666666666667</ele><time>2026-04-26T10:18:13.593Z</time></trkpt><trkpt lat="44.2612767" lon="11.7453717"><ele>93.33333333333333</ele><time>2026-04-26T10:18:14.592Z</time></trkpt><trkpt lat="44.2612267" lon="11.7453083"><ele>93.5</ele><time>2026-04-26T10:18:15.6Z</time></trkpt><trkpt lat="44.2611617" lon="11.7452583"><ele>93.66666666666666</ele><time>2026-04-26T10:18:16.593Z</time></trkpt><trkpt lat="44.2610833" lon="11.7452267"><ele>93.83333333333333</ele><time>2026-04-26T10:18:17.597Z</time></trkpt><trkpt lat="44.2609983" lon="11.745205"><ele>94.0</ele><time>2026-04-26T10:18:18.602Z</time></trkpt><trkpt lat="44.2609067" lon="11.7451717"><ele>94.4</ele><time>2026-04-26T10:18:19.602Z</time></trkpt><trkpt lat="44.2608117" lon="11.7451233"><ele>94.80000000000001</ele><time>2026-04-26T10:18:20.599Z</time></trkpt><trkpt lat="44.26071" lon="11.745065"><ele>95.19999999999999</ele><time>2026-04-26T10:18:21.584Z</time></trkpt><trkpt lat="44.2606033" lon="11.745"><ele>95.6</ele><time>2026-04-26T10:18:22.582Z</time></trkpt><trkpt lat="44.2604967" lon="11.744935"><ele>96.0</ele><time>2026-04-26T10:18:23.593Z</time></trkpt><trkpt lat="44.2603917" lon="11.7448683"><ele>96.25</ele><time>2026-04-26T10:18:24.585Z</time></trkpt><trkpt lat="44.2602817" lon="11.7447967"><ele>96.5</ele><time>2026-04-26T10:18:25.609Z</time></trkpt><trkpt lat="44.26017" lon="11.7447283"><ele>96.75</ele><time>2026-04-26T10:18:26.587Z</time></trkpt><trkpt lat="44.260055" lon="11.74466"><ele>97.0</ele><time>2026-04-26T10:18:27.588Z</time></trkpt><trkpt lat="44.2599383" lon="11.7445933"><ele>97.0</ele><time>2026-04-26T10:18:28.598Z</time></trkpt><trkpt lat="44.2598233" lon="11.7445233"><ele>97.0</ele><time>2026-04-26T10:18:29.587Z</time></trkpt><trkpt lat="44.2597067" lon="11.7444567"><ele>97.0</ele><time>2026-04-26T10:18:30.598Z</time></trkpt><trkpt lat="44.25959" lon="11.74439"><ele>97.0</ele><time>2026-04-26T10:18:31.596Z</time></trkpt><trkpt lat="44.2594767" lon="11.7443233"><ele>97.0</ele><time>2026-04-26T10:18:32.589Z</time></trkpt><trkpt lat="44.2593667" lon="11.7442517"><ele>97.0</ele><time>2026-04-26T10:18:33.591Z</time></trkpt><trkpt lat="44.2592633" lon="11.74418"><ele>97.0</ele><time>2026-04-26T10:18:34.588Z</time></trkpt><trkpt lat="44.259165" lon="11.7440983"><ele>97.0</ele><time>2026-04-26T10:18:35.595Z</time></trkpt><trkpt lat="44.2590717" lon="11.7440067"><ele>97.0</ele><time>2026-04-26T10:18:36.594Z</time></trkpt><trkpt lat="44.258985" lon="11.7439067"><ele>97.0</ele><time>2026-04-26T10:18:37.599Z</time></trkpt><trkpt lat="44.2589083" lon="11.7437967"><ele>97.0</ele><time>2026-04-26T10:18:38.597Z</time></trkpt><trkpt lat="44.2588333" lon="11.7436833"><ele>97.0</ele><time>2026-04-26T10:18:39.6Z</time></trkpt><trkpt lat="44.258765" lon="11.7435617"><ele>97.0</ele><time>2026-04-26T10:18:40.593Z</time></trkpt><trkpt lat="44.2587033" lon="11.74343"><ele>93.75</ele><time>2026-04-26T10:18:41.602Z</time></trkpt><trkpt lat="44.25865" lon="11.7432883"><ele>90.5</ele><time>2026-04-26T10:18:42.586Z</time></trkpt><trkpt lat="44.2586067" lon="11.7431333"><ele>87.25</ele><time>2026-04-26T10:18:43.585Z</time></trkpt><trkpt lat="44.2585667" lon="11.7429733"><ele>84.0</ele><time>2026-04-26T10:18:44.587Z</time></trkpt><trkpt lat="44.2585233" lon="11.7428067"><ele>84.25</ele><time>2026-04-26T10:18:45.601Z</time></trkpt><trkpt lat="44.2584867" lon="11.74263"><ele>84.5</ele><time>2026-04-26T10:18:46.595Z</time></trkpt><trkpt lat="44.258455" lon="11.74245"><ele>84.75</ele><time>2026-04-26T10:18:47.582Z</time></trkpt><trkpt lat="44.258425" lon="11.7422617"><ele>85.0</ele><time>2026-04-26T10:18:48.578Z</time></trkpt><trkpt lat="44.258405" lon="11.74207"><ele>85.75</ele><time>2026-04-26T10:18:49.59Z</time></trkpt><trkpt lat="44.2583817" lon="11.74188"><ele>86.5</ele><time>2026-04-26T10:18:50.596Z</time></trkpt><trkpt lat="44.2583517" lon="11.7417117"><ele>87.25</ele><time>2026-04-26T10:18:51.592Z</time></trkpt><trkpt lat="44.2583283" lon="11.74155"><ele>88.0</ele><time>2026-04-26T10:18:52.591Z</time></trkpt><trkpt lat="44.2583017" lon="11.7414033"><ele>88.0</ele><time>2026-04-26T10:18:53.591Z</time></trkpt><trkpt lat="44.258265" lon="11.7412817"><ele>88.0</ele><time>2026-04-26T10:18:54.595Z</time></trkpt><trkpt lat="44.25822" lon="11.7411833"><ele>88.0</ele><time>2026-04-26T10:18:55.595Z</time></trkpt><trkpt lat="44.2581533" lon="11.7411483"><ele>88.0</ele><time>2026-04-26T10:18:56.591Z</time></trkpt><trkpt lat="44.2580817" lon="11.7411333"><ele>88.0</ele><time>2026-04-26T10:18:57.599Z</time></trkpt><trkpt lat="44.2580083" lon="11.741145"><ele>88.0</ele><time>2026-04-26T10:18:58.593Z</time></trkpt><trkpt lat="44.25794" lon="11.74125"><ele>88.0</ele><time>2026-04-26T10:18:59.594Z</time></trkpt><trkpt lat="44.2578717" lon="11.7413667"><ele>88.0</ele><time>2026-04-26T10:19:00.6Z</time></trkpt><trkpt lat="44.2578033" lon="11.74149"><ele>88.0</ele><time>2026-04-26T10:19:01.586Z</time></trkpt><trkpt lat="44.2577433" lon="11.741625"><ele>88.0</ele><time>2026-04-26T10:19:02.588Z</time></trkpt><trkpt lat="44.2576967" lon="11.7417617"><ele>88.0</ele><time>2026-04-26T10:19:03.6Z</time></trkpt><trkpt lat="44.25767" lon="11.7419083"><ele>88.0</ele><time>2026-04-26T10:19:04.595Z</time></trkpt><trkpt lat="44.25765" lon="11.742065"><ele>88.0</ele><time>2026-04-26T10:19:05.591Z</time></trkpt><trkpt lat="44.25763" lon="11.7422233"><ele>88.0</ele><time>2026-04-26T10:19:06.599Z</time></trkpt><trkpt lat="44.2576167" lon="11.7423833"><ele>88.0</ele><time>2026-04-26T10:19:07.593Z</time></trkpt><trkpt lat="44.2576033" lon="11.7425433"><ele>88.0</ele><time>2026-04-26T10:19:08.593Z</time></trkpt><trkpt lat="44.2575917" lon="11.7427033"><ele>88.0</ele><time>2026-04-26T10:19:09.597Z</time></trkpt><trkpt lat="44.25757" lon="11.7428667"><ele>88.0</ele><time>2026-04-26T10:19:10.589Z</time></trkpt><trkpt lat="44.25755" lon="11.7430317"><ele>88.0</ele><time>2026-04-26T10:19:11.585Z</time></trkpt><trkpt lat="44.257535" lon="11.7431967"><ele>88.5</ele><time>2026-04-26T10:19:12.603Z</time></trkpt><trkpt lat="44.2575233" lon="11.74336"><ele>89.0</ele><time>2026-04-26T10:19:13.594Z</time></trkpt><trkpt lat="44.257515" lon="11.7435217"><ele>89.5</ele><time>2026-04-26T10:19:14.601Z</time></trkpt><trkpt lat="44.2575083" lon="11.7436783"><ele>90.0</ele><time>2026-04-26T10:19:15.597Z</time></trkpt><trkpt lat="44.2575" lon="11.7438317"><ele>90.8</ele><time>2026-04-26T10:19:16.596Z</time></trkpt><trkpt lat="44.2574783" lon="11.7439733"><ele>91.6</ele><time>2026-04-26T10:19:17.602Z</time></trkpt><trkpt lat="44.25743" lon="11.7440983"><ele>92.4</ele><time>2026-04-26T10:19:18.589Z</time></trkpt><trkpt lat="44.2573667" lon="11.744205"><ele>93.2</ele><time>2026-04-26T10:19:19.593Z</time></trkpt><trkpt lat="44.2572967" lon="11.744285"><ele>94.0</ele><time>2026-04-26T10:19:20.598Z</time></trkpt><trkpt lat="44.25721" lon="11.7443267"><ele>95.0</ele><time>2026-04-26T10:19:21.582Z</time></trkpt><trkpt lat="44.2571133" lon="11.74433"><ele>96.0</ele><time>2026-04-26T10:19:22.587Z</time></trkpt><trkpt lat="44.25702" lon="11.744285"><ele>97.0</ele><time>2026-04-26T10:19:23.577Z</time></trkpt><trkpt lat="44.25693" lon="11.7442067"><ele>98.0</ele><time>2026-04-26T10:19:24.592Z</time></trkpt><trkpt lat="44.2568433" lon="11.7441017"><ele>99.0</ele><time>2026-04-26T10:19:25.592Z</time></trkpt><trkpt lat="44.25676" lon="11.743985"><ele>99.0</ele><time>2026-04-26T10:19:26.585Z</time></trkpt><trkpt lat="44.256675" lon="11.7438633"><ele>99.0</ele><time>2026-04-26T10:19:27.596Z</time></trkpt><trkpt lat="44.2565817" lon="11.7437433"><ele>99.0</ele><time>2026-04-26T10:19:28.593Z</time></trkpt><trkpt lat="44.25649" lon="11.743625"><ele>99.0</ele><time>2026-04-26T10:19:29.592Z</time></trkpt><trkpt lat="44.2563967" lon="11.743505"><ele>98.0</ele><time>2026-04-26T10:19:30.591Z</time></trkpt><trkpt lat="44.256305" lon="11.7433817"><ele>97.0</ele><time>2026-04-26T10:19:31.582Z</time></trkpt><trkpt lat="44.2562117" lon="11.7432583"><ele>96.0</ele><time>2026-04-26T10:19:32.589Z</time></trkpt><trkpt lat="44.2561133" lon="11.7431317"><ele>95.0</ele><time>2026-04-26T10:19:33.594Z</time></trkpt><trkpt lat="44.256015" lon="11.743005"><ele>95.0</ele><time>2026-04-26T10:19:34.597Z</time></trkpt><trkpt lat="44.2559183" lon="11.74288"><ele>95.0</ele><time>2026-04-26T10:19:35.604Z</time></trkpt><trkpt lat="44.2558233" lon="11.742755"><ele>95.0</ele><time>2026-04-26T10:19:36.584Z</time></trkpt><trkpt lat="44.2557267" lon="11.7426317"><ele>95.0</ele><time>2026-04-26T10:19:37.589Z</time></trkpt><trkpt lat="44.25563" lon="11.7425083"><ele>94.25</ele><time>2026-04-26T10:19:38.582Z</time></trkpt><trkpt lat="44.25553" lon="11.74238"><ele>93.5</ele><time>2026-04-26T10:19:39.599Z</time></trkpt><trkpt lat="44.25543" lon="11.74225"><ele>92.75</ele><time>2026-04-26T10:19:40.586Z</time></trkpt><trkpt lat="44.2553317" lon="11.7421133"><ele>92.0</ele><time>2026-04-26T10:19:41.601Z</time></trkpt><trkpt lat="44.2552333" lon="11.7419733"><ele>94.5</ele><time>2026-04-26T10:19:42.592Z</time></trkpt><trkpt lat="44.2551317" lon="11.7418367"><ele>97.0</ele><time>2026-04-26T10:19:43.602Z</time></trkpt><trkpt lat="44.2550283" lon="11.741705"><ele>99.5</ele><time>2026-04-26T10:19:44.603Z</time></trkpt><trkpt lat="44.2549283" lon="11.7415733"><ele>102.0</ele><time>2026-04-26T10:19:45.601Z</time></trkpt><trkpt lat="44.25483" lon="11.7414383"><ele>102.5</ele><time>2026-04-26T10:19:46.589Z</time></trkpt><trkpt lat="44.2547317" lon="11.7413067"><ele>103.0</ele><time>2026-04-26T10:19:47.588Z</time></trkpt><trkpt lat="44.2546317" lon="11.7411817"><ele>103.5</ele><time>2026-04-26T10:19:48.59Z</time></trkpt><trkpt lat="44.2545367" lon="11.7410567"><ele>104.0</ele><time>2026-04-26T10:19:49.595Z</time></trkpt><trkpt lat="44.2544417" lon="11.7409317"><ele>104.0</ele><time>2026-04-26T10:19:50.6Z</time></trkpt><trkpt lat="44.254345" lon="11.74081"><ele>104.0</ele><time>2026-04-26T10:19:51.601Z</time></trkpt><trkpt lat="44.2542483" lon="11.7406933"><ele>104.0</ele><time>2026-04-26T10:19:52.591Z</time></trkpt><trkpt lat="44.25416" lon="11.7405783"><ele>104.0</ele><time>2026-04-26T10:19:53.597Z</time></trkpt><trkpt lat="44.2540783" lon="11.740465"><ele>104.0</ele><time>2026-04-26T10:19:54.596Z</time></trkpt><trkpt lat="44.254" lon="11.74036"><ele>104.0</ele><time>2026-04-26T10:19:55.594Z</time></trkpt><trkpt lat="44.253925" lon="11.7402617"><ele>104.0</ele><time>2026-04-26T10:19:56.593Z</time></trkpt><trkpt lat="44.2538567" lon="11.7401733"><ele>104.0</ele><time>2026-04-26T10:19:57.59Z</time></trkpt><trkpt lat="44.2537967" lon="11.7400933"><ele>104.0</ele><time>2026-04-26T10:19:58.589Z</time></trkpt><trkpt lat="44.2537417" lon="11.7400267"><ele>104.83333333333333</ele><time>2026-04-26T10:19:59.598Z</time></trkpt><trkpt lat="44.2536933" lon="11.73997"><ele>105.66666666666666</ele><time>2026-04-26T10:20:00.59Z</time></trkpt><trkpt lat="44.253665" lon="11.73987"><ele>106.5</ele><time>2026-04-26T10:20:02.592Z</time></trkpt><trkpt lat="44.2537133" lon="11.7397717"><ele>107.33333333333334</ele><time>2026-04-26T10:20:04.594Z</time></trkpt><trkpt lat="44.2537917" lon="11.739665"><ele>108.16666666666667</ele><time>2026-04-26T10:20:06.601Z</time></trkpt><trkpt lat="44.2538383" lon="11.7396033"><ele>109.0</ele><time>2026-04-26T10:20:07.588Z</time></trkpt><trkpt lat="44.2538883" lon="11.73954"><ele>109.0</ele><time>2026-04-26T10:20:08.587Z</time></trkpt><trkpt lat="44.253965" lon="11.7394217"><ele>109.0</ele><time>2026-04-26T10:20:10.593Z</time></trkpt><trkpt lat="44.25401" lon="11.7393367"><ele>109.0</ele><time>2026-04-26T10:20:12.593Z</time></trkpt><trkpt lat="44.2540633" lon="11.73925"><ele>109.0</ele><time>2026-04-26T10:20:14.591Z</time></trkpt><trkpt lat="44.2541283" lon="11.7391583"><ele>109.0</ele><time>2026-04-26T10:20:16.589Z</time></trkpt><trkpt lat="44.2541967" lon="11.739075"><ele>109.00000000000001</ele><time>2026-04-26T10:20:18.59Z</time></trkpt><trkpt lat="44.25425" lon="11.738985"><ele>109.0</ele><time>2026-04-26T10:20:20.586Z</time></trkpt><trkpt lat="44.2542783" lon="11.7388833"><ele>109.0</ele><time>2026-04-26T10:20:22.594Z</time></trkpt><trkpt lat="44.2542667" lon="11.7387733"><ele>109.0</ele><time>2026-04-26T10:20:24.59Z</time></trkpt><trkpt lat="44.2542167" lon="11.7386667"><ele>109.00000000000001</ele><time>2026-04-26T10:20:26.587Z</time></trkpt><trkpt lat="44.2541583" lon="11.7385617"><ele>109.0</ele><time>2026-04-26T10:20:28.591Z</time></trkpt><trkpt lat="44.254115" lon="11.7384817"><ele>108.80000000000001</ele><time>2026-04-26T10:20:30.59Z</time></trkpt><trkpt lat="44.2540583" lon="11.738395"><ele>108.60000000000001</ele><time>2026-04-26T10:20:32.597Z</time></trkpt><trkpt lat="44.2539883" lon="11.7383067"><ele>108.4</ele><time>2026-04-26T10:20:34.591Z</time></trkpt><trkpt lat="44.2539017" lon="11.7382233"><ele>108.2</ele><time>2026-04-26T10:20:36.588Z</time></trkpt><trkpt lat="44.253815" lon="11.7381267"><ele>108.0</ele><time>2026-04-26T10:20:38.625Z</time></trkpt><trkpt lat="44.2537267" lon="11.738"><ele>109.0</ele><time>2026-04-26T10:20:40.594Z</time></trkpt><trkpt lat="44.2536783" lon="11.7379233"><ele>110.0</ele><time>2026-04-26T10:20:41.591Z</time></trkpt><trkpt lat="44.253625" lon="11.7378433"><ele>111.0</ele><time>2026-04-26T10:20:42.588Z</time></trkpt><trkpt lat="44.2535733" lon="11.7377667"><ele>112.0</ele><time>2026-04-26T10:20:43.6Z</time></trkpt><trkpt lat="44.2535217" lon="11.7376933"><ele>113.0</ele><time>2026-04-26T10:20:44.59Z</time></trkpt><trkpt lat="44.253475" lon="11.7376233"><ele>113.99999999999999</ele><time>2026-04-26T10:20:45.587Z</time></trkpt><trkpt lat="44.2534317" lon="11.7375533"><ele>114.99999999999999</ele><time>2026-04-26T10:20:46.594Z</time></trkpt><trkpt lat="44.2533867" lon="11.7374867"><ele>115.85714285714283</ele><time>2026-04-26T10:20:47.602Z</time></trkpt><trkpt lat="44.2533433" lon="11.7374183"><ele>116.71428571428571</ele><time>2026-04-26T10:20:48.578Z</time></trkpt><trkpt lat="44.2532967" lon="11.7373433"><ele>117.57142857142856</ele><time>2026-04-26T10:20:49.586Z</time></trkpt><trkpt lat="44.25325" lon="11.7372667"><ele>118.42857142857142</ele><time>2026-04-26T10:20:50.589Z</time></trkpt><trkpt lat="44.2532033" lon="11.737195"><ele>119.28571428571428</ele><time>2026-04-26T10:20:51.582Z</time></trkpt><trkpt lat="44.2531567" lon="11.737125"><ele>120.14285714285714</ele><time>2026-04-26T10:20:52.61Z</time></trkpt><trkpt lat="44.25311" lon="11.7370517"><ele>121.0</ele><time>2026-04-26T10:20:53.59Z</time></trkpt><trkpt lat="44.253065" lon="11.73698"><ele>121.42857142857142</ele><time>2026-04-26T10:20:54.592Z</time></trkpt><trkpt lat="44.253015" lon="11.7369017"><ele>121.85714285714285</ele><time>2026-04-26T10:20:55.604Z</time></trkpt><trkpt lat="44.2529667" lon="11.7368217"><ele>122.28571428571428</ele><time>2026-04-26T10:20:56.59Z</time></trkpt><trkpt lat="44.2529167" lon="11.7367417"><ele>122.71428571428572</ele><time>2026-04-26T10:20:57.587Z</time></trkpt><trkpt lat="44.2528633" lon="11.7366633"><ele>123.14285714285715</ele><time>2026-04-26T10:20:58.595Z</time></trkpt><trkpt lat="44.2528083" lon="11.73659"><ele>123.57142857142858</ele><time>2026-04-26T10:20:59.59Z</time></trkpt><trkpt lat="44.25276" lon="11.73652"><ele>124.0</ele><time>2026-04-26T10:21:00.607Z</time></trkpt><trkpt lat="44.252715" lon="11.7364517"><ele>125.50000000000001</ele><time>2026-04-26T10:21:01.581Z</time></trkpt><trkpt lat="44.2526533" lon="11.7363"><ele>127.0</ele><time>2026-04-26T10:21:03.594Z</time></trkpt><trkpt lat="44.252635" lon="11.7362133"><ele>128.5</ele><time>2026-04-26T10:21:04.592Z</time></trkpt><trkpt lat="44.25261" lon="11.7361283"><ele>130.0</ele><time>2026-04-26T10:21:05.59Z</time></trkpt><trkpt lat="44.2525733" lon="11.7360517"><ele>131.5</ele><time>2026-04-26T10:21:06.592Z</time></trkpt><trkpt lat="44.2525317" lon="11.735975"><ele>133.0</ele><time>2026-04-26T10:21:07.588Z</time></trkpt><trkpt lat="44.2524867" lon="11.7358967"><ele>134.83333333333334</ele><time>2026-04-26T10:21:08.586Z</time></trkpt><trkpt lat="44.252445" lon="11.73582"><ele>136.66666666666669</ele><time>2026-04-26T10:21:09.59Z</time></trkpt><trkpt lat="44.2524017" lon="11.735755"><ele>138.5</ele><time>2026-04-26T10:21:10.587Z</time></trkpt><trkpt lat="44.2523533" lon="11.735695"><ele>140.33333333333334</ele><time>2026-04-26T10:21:11.578Z</time></trkpt><trkpt lat="44.2523017" lon="11.7356383"><ele>142.16666666666666</ele><time>2026-04-26T10:21:12.588Z</time></trkpt><trkpt lat="44.252215" lon="11.7355217"><ele>144.0</ele><time>2026-04-26T10:21:14.592Z</time></trkpt><trkpt lat="44.2521767" lon="11.73537"><ele>145.0</ele><time>2026-04-26T10:21:16.596Z</time></trkpt><trkpt lat="44.25215" lon="11.7352233"><ele>146.0</ele><time>2026-04-26T10:21:18.581Z</time></trkpt><trkpt lat="44.2520933" lon="11.7350883"><ele>147.0</ele><time>2026-04-26T10:21:20.599Z</time></trkpt><trkpt lat="44.2520417" lon="11.735035"><ele>148.0</ele><time>2026-04-26T10:21:21.577Z</time></trkpt><trkpt lat="44.2519917" lon="11.7349733"><ele>149.0</ele><time>2026-04-26T10:21:22.6Z</time></trkpt><trkpt lat="44.251935" lon="11.7349033"><ele>150.0</ele><time>2026-04-26T10:21:23.594Z</time></trkpt><trkpt lat="44.25188" lon="11.73483"><ele>151.85714285714283</ele><time>2026-04-26T10:21:24.598Z</time></trkpt><trkpt lat="44.2518267" lon="11.7347567"><ele>153.71428571428572</ele><time>2026-04-26T10:21:25.599Z</time></trkpt><trkpt lat="44.2517733" lon="11.7346783"><ele>155.57142857142856</ele><time>2026-04-26T10:21:26.587Z</time></trkpt><trkpt lat="44.2517333" lon="11.7346"><ele>157.42857142857142</ele><time>2026-04-26T10:21:27.585Z</time></trkpt><trkpt lat="44.2516983" lon="11.7345167"><ele>159.28571428571428</ele><time>2026-04-26T10:21:28.588Z</time></trkpt><trkpt lat="44.2516733" lon="11.734425"><ele>161.14285714285714</ele><time>2026-04-26T10:21:29.589Z</time></trkpt><trkpt lat="44.2516567" lon="11.7343283"><ele>163.0</ele><time>2026-04-26T10:21:30.594Z</time></trkpt><trkpt lat="44.2516417" lon="11.7342233"><ele>165.0</ele><time>2026-04-26T10:21:31.587Z</time></trkpt><trkpt lat="44.2516217" lon="11.7341133"><ele>167.0</ele><time>2026-04-26T10:21:32.595Z</time></trkpt><trkpt lat="44.2516" lon="11.734005"><ele>169.0</ele><time>2026-04-26T10:21:33.59Z</time></trkpt><trkpt lat="44.2515767" lon="11.7338983"><ele>171.0</ele><time>2026-04-26T10:21:34.586Z</time></trkpt><trkpt lat="44.25155" lon="11.7337917"><ele>173.0</ele><time>2026-04-26T10:21:35.59Z</time></trkpt><trkpt lat="44.25152" lon="11.7336867"><ele>175.0</ele><time>2026-04-26T10:21:36.594Z</time></trkpt><trkpt lat="44.2514817" lon="11.733585"><ele>175.71428571428572</ele><time>2026-04-26T10:21:37.591Z</time></trkpt><trkpt lat="44.251445" lon="11.73349"><ele>176.42857142857144</ele><time>2026-04-26T10:21:38.605Z</time></trkpt><trkpt lat="44.2514117" lon="11.733405"><ele>177.14285714285714</ele><time>2026-04-26T10:21:39.593Z</time></trkpt><trkpt lat="44.2513767" lon="11.73332"><ele>177.85714285714286</ele><time>2026-04-26T10:21:40.597Z</time></trkpt><trkpt lat="44.25134" lon="11.73324"><ele>178.57142857142858</ele><time>2026-04-26T10:21:41.594Z</time></trkpt><trkpt lat="44.2512967" lon="11.7331567"><ele>179.28571428571428</ele><time>2026-04-26T10:21:42.58Z</time></trkpt><trkpt lat="44.2512533" lon="11.7330767"><ele>180.0</ele><time>2026-04-26T10:21:43.597Z</time></trkpt><trkpt lat="44.2512083" lon="11.7329883"><ele>180.0</ele><time>2026-04-26T10:21:44.581Z</time></trkpt><trkpt lat="44.2511633" lon="11.732895"><ele>180.0</ele><time>2026-04-26T10:21:45.6Z</time></trkpt><trkpt lat="44.2511167" lon="11.732795"><ele>180.0</ele><time>2026-04-26T10:21:46.581Z</time></trkpt><trkpt lat="44.25107" lon="11.7326917"><ele>180.0</ele><time>2026-04-26T10:21:47.587Z</time></trkpt><trkpt lat="44.2510217" lon="11.7325833"><ele>180.0</ele><time>2026-04-26T10:21:48.589Z</time></trkpt><trkpt lat="44.250975" lon="11.7324767"><ele>180.0</ele><time>2026-04-26T10:21:49.594Z</time></trkpt><trkpt lat="44.250925" lon="11.7323767"><ele>180.33333333333334</ele><time>2026-04-26T10:21:50.587Z</time></trkpt><trkpt lat="44.2508833" lon="11.7322733"><ele>180.66666666666666</ele><time>2026-04-26T10:21:51.591Z</time></trkpt><trkpt lat="44.2508367" lon="11.7321667"><ele>181.0</ele><time>2026-04-26T10:21:52.586Z</time></trkpt><trkpt lat="44.2507833" lon="11.7320633"><ele>181.33333333333331</ele><time>2026-04-26T10:21:53.598Z</time></trkpt><trkpt lat="44.2507267" lon="11.7319617"><ele>181.66666666666666</ele><time>2026-04-26T10:21:54.587Z</time></trkpt><trkpt lat="44.2506683" lon="11.731865"><ele>182.0</ele><time>2026-04-26T10:21:55.595Z</time></trkpt><trkpt lat="44.2506067" lon="11.73177"><ele>183.33333333333331</ele><time>2026-04-26T10:21:56.583Z</time></trkpt><trkpt lat="44.2505467" lon="11.7316767"><ele>184.66666666666666</ele><time>2026-04-26T10:21:57.584Z</time></trkpt><trkpt lat="44.25049" lon="11.7315833"><ele>186.0</ele><time>2026-04-26T10:21:58.608Z</time></trkpt><trkpt lat="44.2504367" lon="11.7314917"><ele>187.33333333333334</ele><time>2026-04-26T10:21:59.584Z</time></trkpt><trkpt lat="44.2503783" lon="11.7314017"><ele>188.66666666666669</ele><time>2026-04-26T10:22:00.592Z</time></trkpt><trkpt lat="44.2503167" lon="11.7313133"><ele>190.0</ele><time>2026-04-26T10:22:01.587Z</time></trkpt><trkpt lat="44.2502567" lon="11.731225"><ele>190.0</ele><time>2026-04-26T10:22:02.596Z</time></trkpt><trkpt lat="44.2501983" lon="11.731135"><ele>190.0</ele><time>2026-04-26T10:22:03.591Z</time></trkpt><trkpt lat="44.2501383" lon="11.7310417"><ele>190.0</ele><time>2026-04-26T10:22:04.586Z</time></trkpt><trkpt lat="44.2500817" lon="11.7309533"><ele>190.0</ele><time>2026-04-26T10:22:05.594Z</time></trkpt><trkpt lat="44.2500267" lon="11.7308617"><ele>190.0</ele><time>2026-04-26T10:22:06.583Z</time></trkpt><trkpt lat="44.2499733" lon="11.730775"><ele>190.0</ele><time>2026-04-26T10:22:07.593Z</time></trkpt><trkpt lat="44.249915" lon="11.7306883"><ele>189.33333333333334</ele><time>2026-04-26T10:22:08.593Z</time></trkpt><trkpt lat="44.2498533" lon="11.7306"><ele>188.66666666666669</ele><time>2026-04-26T10:22:09.592Z</time></trkpt><trkpt lat="44.2497867" lon="11.7305117"><ele>188.0</ele><time>2026-04-26T10:22:10.592Z</time></trkpt><trkpt lat="44.24972" lon="11.7304317"><ele>187.33333333333334</ele><time>2026-04-26T10:22:11.58Z</time></trkpt><trkpt lat="44.2496583" lon="11.7303617"><ele>186.66666666666666</ele><time>2026-04-26T10:22:12.596Z</time></trkpt><trkpt lat="44.2496017" lon="11.7302967"><ele>186.0</ele><time>2026-04-26T10:22:13.591Z</time></trkpt><trkpt lat="44.2495167" lon="11.7301683"><ele>187.83333333333334</ele><time>2026-04-26T10:22:15.594Z</time></trkpt><trkpt lat="44.2494683" lon="11.7300117"><ele>189.66666666666669</ele><time>2026-04-26T10:22:17.592Z</time></trkpt><trkpt lat="44.2494533" lon="11.729925"><ele>191.5</ele><time>2026-04-26T10:22:18.595Z</time></trkpt><trkpt lat="44.24944" lon="11.72983"><ele>193.33333333333334</ele><time>2026-04-26T10:22:19.595Z</time></trkpt><trkpt lat="44.249425" lon="11.7297283"><ele>195.16666666666669</ele><time>2026-04-26T10:22:20.59Z</time></trkpt><trkpt lat="44.2494033" lon="11.7296233"><ele>197.0</ele><time>2026-04-26T10:22:21.599Z</time></trkpt><trkpt lat="44.24938" lon="11.7295183"><ele>197.00000000000003</ele><time>2026-04-26T10:22:22.589Z</time></trkpt><trkpt lat="44.24936" lon="11.729415"><ele>197.0</ele><time>2026-04-26T10:22:23.58Z</time></trkpt><trkpt lat="44.2493483" lon="11.7293233"><ele>197.0</ele><time>2026-04-26T10:22:24.601Z</time></trkpt><trkpt lat="44.2493717" lon="11.729195"><ele>197.0</ele><time>2026-04-26T10:22:26.594Z</time></trkpt><trkpt lat="44.2494467" lon="11.7291167"><ele>197.00000000000003</ele><time>2026-04-26T10:22:28.588Z</time></trkpt><trkpt lat="44.2494983" lon="11.72905"><ele>197.0</ele><time>2026-04-26T10:22:31.593Z</time></trkpt><trkpt lat="44.2495033" lon="11.72913"><ele>197.00000000000003</ele><time>2026-04-26T10:24:52.59Z</time></trkpt><trkpt lat="44.2494183" lon="11.7291617"><ele>197.0</ele><time>2026-04-26T10:25:03.605Z</time></trkpt><trkpt lat="44.2493467" lon="11.72921"><ele>197.0</ele><time>2026-04-26T10:25:05.616Z</time></trkpt><trkpt lat="44.2493217" lon="11.7293067"><ele>197.0</ele><time>2026-04-26T10:25:07.586Z</time></trkpt><trkpt lat="44.2493283" lon="11.729415"><ele>197.00000000000003</ele><time>2026-04-26T10:25:09.585Z</time></trkpt><trkpt lat="44.2493583" lon="11.72954"><ele>197.0</ele><time>2026-04-26T10:25:11.604Z</time></trkpt><trkpt lat="44.2494017" lon="11.7296967"><ele>197.0</ele><time>2026-04-26T10:25:13.597Z</time></trkpt><trkpt lat="44.2494317" lon="11.7298533"><ele>197.0</ele><time>2026-04-26T10:25:15.6Z</time></trkpt><trkpt lat="44.2494583" lon="11.7300067"><ele>197.0</ele><time>2026-04-26T10:25:17.603Z</time></trkpt><trkpt lat="44.2494933" lon="11.7301367"><ele>197.0</ele><time>2026-04-26T10:25:19.595Z</time></trkpt><trkpt lat="44.2495483" lon="11.7302583"><ele>197.0</ele><time>2026-04-26T10:25:21.57Z</time></trkpt><trkpt lat="44.24963" lon="11.730385"><ele>197.00000000000003</ele><time>2026-04-26T10:25:23.59Z</time></trkpt><trkpt lat="44.249685" lon="11.7304417"><ele>197.0</ele><time>2026-04-26T10:25:24.59Z</time></trkpt><trkpt lat="44.2497467" lon="11.7304967"><ele>197.0</ele><time>2026-04-26T10:25:25.589Z</time></trkpt><trkpt lat="44.249795" lon="11.7305567"><ele>197.0</ele><time>2026-04-26T10:25:26.59Z</time></trkpt><trkpt lat="44.2498767" lon="11.73066"><ele>197.00000000000003</ele><time>2026-04-26T10:25:28.596Z</time></trkpt><trkpt lat="44.2499417" lon="11.7307817"><ele>197.0</ele><time>2026-04-26T10:25:30.581Z</time></trkpt><trkpt lat="44.2499783" lon="11.7308533"><ele>197.0</ele><time>2026-04-26T10:25:31.601Z</time></trkpt><trkpt lat="44.250015" lon="11.7309333"><ele>197.0</ele><time>2026-04-26T10:25:32.59Z</time></trkpt><trkpt lat="44.2500517" lon="11.73101"><ele>197.0</ele><time>2026-04-26T10:25:33.594Z</time></trkpt><trkpt lat="44.2500933" lon="11.7310833"><ele>197.0</ele><time>2026-04-26T10:25:34.594Z</time></trkpt><trkpt lat="44.2501417" lon="11.7311567"><ele>197.0</ele><time>2026-04-26T10:25:35.595Z</time></trkpt><trkpt lat="44.25019" lon="11.7312283"><ele>197.0</ele><time>2026-04-26T10:25:36.589Z</time></trkpt><trkpt lat="44.2502317" lon="11.7312967"><ele>197.0</ele><time>2026-04-26T10:25:37.573Z</time></trkpt><trkpt lat="44.2502767" lon="11.7313583"><ele>195.25</ele><time>2026-04-26T10:25:38.59Z</time></trkpt><trkpt lat="44.2503583" lon="11.7314733"><ele>193.5</ele><time>2026-04-26T10:25:40.593Z</time></trkpt><trkpt lat="44.250445" lon="11.7315917"><ele>191.75</ele><time>2026-04-26T10:25:42.591Z</time></trkpt><trkpt lat="44.25052" lon="11.7317283"><ele>190.0</ele><time>2026-04-26T10:25:44.595Z</time></trkpt><trkpt lat="44.2505933" lon="11.731845"><ele>189.85714285714286</ele><time>2026-04-26T10:25:46.593Z</time></trkpt><trkpt lat="44.250675" lon="11.7319733"><ele>189.71428571428572</ele><time>2026-04-26T10:25:48.591Z</time></trkpt><trkpt lat="44.25072" lon="11.7320383"><ele>189.57142857142856</ele><time>2026-04-26T10:25:49.586Z</time></trkpt><trkpt lat="44.2507633" lon="11.7321067"><ele>189.42857142857144</ele><time>2026-04-26T10:25:50.587Z</time></trkpt><trkpt lat="44.2508" lon="11.7321783"><ele>189.28571428571428</ele><time>2026-04-26T10:25:51.588Z</time></trkpt><trkpt lat="44.2508333" lon="11.7322583"><ele>189.14285714285714</ele><time>2026-04-26T10:25:52.592Z</time></trkpt><trkpt lat="44.250865" lon="11.7323367"><ele>189.0</ele><time>2026-04-26T10:25:53.597Z</time></trkpt><trkpt lat="44.2509267" lon="11.7324783"><ele>189.0</ele><time>2026-04-26T10:25:55.58Z</time></trkpt><trkpt lat="44.2509867" lon="11.7326217"><ele>189.0</ele><time>2026-04-26T10:25:57.596Z</time></trkpt><trkpt lat="44.251045" lon="11.7327583"><ele>189.0</ele><time>2026-04-26T10:25:59.604Z</time></trkpt><trkpt lat="44.2511" lon="11.7328983"><ele>189.0</ele><time>2026-04-26T10:26:01.589Z</time></trkpt><trkpt lat="44.251155" lon="11.7330233"><ele>187.5</ele><time>2026-04-26T10:26:03.588Z</time></trkpt><trkpt lat="44.251195" lon="11.7331133"><ele>186.0</ele><time>2026-04-26T10:26:05.582Z</time></trkpt><trkpt lat="44.2512417" lon="11.733225"><ele>184.5</ele><time>2026-04-26T10:26:08.591Z</time></trkpt><trkpt lat="44.251295" lon="11.7333067"><ele>183.0</ele><time>2026-04-26T10:26:10.593Z</time></trkpt><trkpt lat="44.251345" lon="11.73339"><ele>181.5</ele><time>2026-04-26T10:26:12.59Z</time></trkpt><trkpt lat="44.2514" lon="11.7334883"><ele>180.0</ele><time>2026-04-26T10:26:14.592Z</time></trkpt><trkpt lat="44.2514517" lon="11.7335983"><ele>178.75</ele><time>2026-04-26T10:26:16.586Z</time></trkpt><trkpt lat="44.2515" lon="11.733735"><ele>177.5</ele><time>2026-04-26T10:26:18.591Z</time></trkpt><trkpt lat="44.2515467" lon="11.73389"><ele>176.25</ele><time>2026-04-26T10:26:20.592Z</time></trkpt><trkpt lat="44.25158" lon="11.7340533"><ele>175.0</ele><time>2026-04-26T10:26:22.592Z</time></trkpt><trkpt lat="44.2516083" lon="11.7342083"><ele>175.0</ele><time>2026-04-26T10:26:24.587Z</time></trkpt><trkpt lat="44.2516317" lon="11.734355"><ele>175.0</ele><time>2026-04-26T10:26:26.589Z</time></trkpt><trkpt lat="44.2516533" lon="11.7344883"><ele>175.0</ele><time>2026-04-26T10:26:28.598Z</time></trkpt><trkpt lat="44.251695" lon="11.7346333"><ele>175.0</ele><time>2026-04-26T10:26:30.594Z</time></trkpt><trkpt lat="44.2517317" lon="11.7347117"><ele>175.0</ele><time>2026-04-26T10:26:31.59Z</time></trkpt><trkpt lat="44.2517767" lon="11.7347917"><ele>173.0</ele><time>2026-04-26T10:26:32.594Z</time></trkpt><trkpt lat="44.2518333" lon="11.7348717"><ele>171.0</ele><time>2026-04-26T10:26:33.583Z</time></trkpt><trkpt lat="44.2518933" lon="11.7349533"><ele>169.0</ele><time>2026-04-26T10:26:34.593Z</time></trkpt><trkpt lat="44.2519517" lon="11.735035"><ele>167.0</ele><time>2026-04-26T10:26:35.589Z</time></trkpt><trkpt lat="44.2520067" lon="11.7351133"><ele>165.0</ele><time>2026-04-26T10:26:36.586Z</time></trkpt><trkpt lat="44.25206" lon="11.735185"><ele>163.0</ele><time>2026-04-26T10:26:37.595Z</time></trkpt><trkpt lat="44.252115" lon="11.735245"><ele>160.83333333333334</ele><time>2026-04-26T10:26:38.588Z</time></trkpt><trkpt lat="44.2522033" lon="11.73532"><ele>158.66666666666669</ele><time>2026-04-26T10:26:40.594Z</time></trkpt><trkpt lat="44.2522333" lon="11.7354"><ele>156.5</ele><time>2026-04-26T10:26:42.598Z</time></trkpt><trkpt lat="44.2522017" lon="11.73551"><ele>154.33333333333334</ele><time>2026-04-26T10:26:45.597Z</time></trkpt><trkpt lat="44.2521467" lon="11.7355783"><ele>152.16666666666666</ele><time>2026-04-26T10:26:47.582Z</time></trkpt><trkpt lat="44.2520883" lon="11.7356667"><ele>150.0</ele><time>2026-04-26T10:26:49.604Z</time></trkpt><trkpt lat="44.2520417" lon="11.735775"><ele>150.0</ele><time>2026-04-26T10:26:51.6Z</time></trkpt><trkpt lat="44.2519867" lon="11.7358933"><ele>150.0</ele><time>2026-04-26T10:26:53.59Z</time></trkpt><trkpt lat="44.251925" lon="11.7360117"><ele>150.0</ele><time>2026-04-26T10:26:55.604Z</time></trkpt><trkpt lat="44.2518483" lon="11.7361383"><ele>150.0</ele><time>2026-04-26T10:26:57.592Z</time></trkpt><trkpt lat="44.2518083" lon="11.7362183"><ele>150.0</ele><time>2026-04-26T10:26:58.594Z</time></trkpt><trkpt lat="44.2517683" lon="11.7363083"><ele>147.5</ele><time>2026-04-26T10:26:59.598Z</time></trkpt><trkpt lat="44.25173" lon="11.7364083"><ele>145.0</ele><time>2026-04-26T10:27:00.591Z</time></trkpt><trkpt lat="44.2516917" lon="11.7365133"><ele>142.5</ele><time>2026-04-26T10:27:01.595Z</time></trkpt><trkpt lat="44.2516567" lon="11.7366167"><ele>140.0</ele><time>2026-04-26T10:27:02.599Z</time></trkpt><trkpt lat="44.251615" lon="11.7367167"><ele>137.5</ele><time>2026-04-26T10:27:03.59Z</time></trkpt><trkpt lat="44.2515733" lon="11.7368117"><ele>135.0</ele><time>2026-04-26T10:27:04.592Z</time></trkpt><trkpt lat="44.2515283" lon="11.7369083"><ele>132.83333333333334</ele><time>2026-04-26T10:27:05.573Z</time></trkpt><trkpt lat="44.2514867" lon="11.7370083"><ele>130.66666666666666</ele><time>2026-04-26T10:27:06.585Z</time></trkpt><trkpt lat="44.25145" lon="11.7371033"><ele>128.5</ele><time>2026-04-26T10:27:07.597Z</time></trkpt><trkpt lat="44.25142" lon="11.7372"><ele>126.33333333333333</ele><time>2026-04-26T10:27:08.598Z</time></trkpt><trkpt lat="44.251395" lon="11.7372883"><ele>124.16666666666666</ele><time>2026-04-26T10:27:09.598Z</time></trkpt><trkpt lat="44.2513683" lon="11.7373717"><ele>122.0</ele><time>2026-04-26T10:27:10.591Z</time></trkpt><trkpt lat="44.2513283" lon="11.73753"><ele>121.83333333333333</ele><time>2026-04-26T10:27:12.592Z</time></trkpt><trkpt lat="44.2513033" lon="11.7376483"><ele>121.66666666666666</ele><time>2026-04-26T10:27:14.598Z</time></trkpt><trkpt lat="44.2512817" lon="11.7377817"><ele>121.5</ele><time>2026-04-26T10:27:28.587Z</time></trkpt><trkpt lat="44.25136" lon="11.7378783"><ele>121.33333333333334</ele><time>2026-04-26T10:27:30.586Z</time></trkpt><trkpt lat="44.25142" lon="11.737925"><ele>121.16666666666667</ele><time>2026-04-26T10:27:31.596Z</time></trkpt><trkpt lat="44.25149" lon="11.7379817"><ele>121.0</ele><time>2026-04-26T10:27:32.594Z</time></trkpt><trkpt lat="44.2515667" lon="11.7380433"><ele>119.6</ele><time>2026-04-26T10:27:33.587Z</time></trkpt><trkpt lat="44.2516467" lon="11.7381067"><ele>118.19999999999999</ele><time>2026-04-26T10:27:34.598Z</time></trkpt><trkpt lat="44.2517333" lon="11.7381733"><ele>116.80000000000001</ele><time>2026-04-26T10:27:35.583Z</time></trkpt><trkpt lat="44.25182" lon="11.7382417"><ele>115.4</ele><time>2026-04-26T10:27:36.582Z</time></trkpt><trkpt lat="44.2519083" lon="11.738315"><ele>114.0</ele><time>2026-04-26T10:27:37.579Z</time></trkpt><trkpt lat="44.2520017" lon="11.7383883"><ele>114.0</ele><time>2026-04-26T10:27:38.596Z</time></trkpt><trkpt lat="44.2520983" lon="11.7384617"><ele>114.0</ele><time>2026-04-26T10:27:39.589Z</time></trkpt><trkpt lat="44.2522017" lon="11.73854"><ele>114.0</ele><time>2026-04-26T10:27:40.592Z</time></trkpt><trkpt lat="44.2523067" lon="11.7386267"><ele>114.0</ele><time>2026-04-26T10:27:41.59Z</time></trkpt><trkpt lat="44.252415" lon="11.738715"><ele>113.5</ele><time>2026-04-26T10:27:42.576Z</time></trkpt><trkpt lat="44.2525283" lon="11.738805"><ele>113.0</ele><time>2026-04-26T10:27:43.596Z</time></trkpt><trkpt lat="44.2526433" lon="11.738905"><ele>112.5</ele><time>2026-04-26T10:27:44.579Z</time></trkpt><trkpt lat="44.2527583" lon="11.73901"><ele>112.0</ele><time>2026-04-26T10:27:45.59Z</time></trkpt><trkpt lat="44.252875" lon="11.73912"><ele>112.0</ele><time>2026-04-26T10:27:46.593Z</time></trkpt><trkpt lat="44.2529883" lon="11.7392367"><ele>112.0</ele><time>2026-04-26T10:27:47.589Z</time></trkpt><trkpt lat="44.2530983" lon="11.73936"><ele>112.0</ele><time>2026-04-26T10:27:48.585Z</time></trkpt><trkpt lat="44.2532067" lon="11.739485"><ele>112.0</ele><time>2026-04-26T10:27:49.586Z</time></trkpt><trkpt lat="44.2533133" lon="11.73962"><ele>111.25</ele><time>2026-04-26T10:27:50.585Z</time></trkpt><trkpt lat="44.25342" lon="11.73976"><ele>110.5</ele><time>2026-04-26T10:27:51.577Z</time></trkpt><trkpt lat="44.25353" lon="11.7399"><ele>109.75</ele><time>2026-04-26T10:27:52.583Z</time></trkpt><trkpt lat="44.2536417" lon="11.7400417"><ele>109.0</ele><time>2026-04-26T10:27:53.575Z</time></trkpt><trkpt lat="44.2537517" lon="11.7401867"><ele>108.0</ele><time>2026-04-26T10:27:54.587Z</time></trkpt><trkpt lat="44.2538633" lon="11.74033"><ele>107.0</ele><time>2026-04-26T10:27:55.586Z</time></trkpt><trkpt lat="44.253975" lon="11.7404717"><ele>106.0</ele><time>2026-04-26T10:27:56.592Z</time></trkpt><trkpt lat="44.2540883" lon="11.740615"><ele>105.33333333333334</ele><time>2026-04-26T10:27:57.6Z</time></trkpt><trkpt lat="44.2541967" lon="11.7407583"><ele>104.66666666666666</ele><time>2026-04-26T10:27:58.59Z</time></trkpt><trkpt lat="44.254305" lon="11.740905"><ele>104.0</ele><time>2026-04-26T10:27:59.592Z</time></trkpt><trkpt lat="44.254415" lon="11.7410517"><ele>101.0</ele><time>2026-04-26T10:28:00.593Z</time></trkpt><trkpt lat="44.25453" lon="11.741195"><ele>98.0</ele><time>2026-04-26T10:28:01.589Z</time></trkpt><trkpt lat="44.2546433" lon="11.7413383"><ele>95.0</ele><time>2026-04-26T10:28:02.587Z</time></trkpt><trkpt lat="44.254755" lon="11.74148"><ele>94.0</ele><time>2026-04-26T10:28:03.59Z</time></trkpt><trkpt lat="44.254865" lon="11.741625"><ele>93.0</ele><time>2026-04-26T10:28:04.589Z</time></trkpt><trkpt lat="44.2549767" lon="11.7417683"><ele>92.0</ele><time>2026-04-26T10:28:05.587Z</time></trkpt><trkpt lat="44.25509" lon="11.74191"><ele>92.0</ele><time>2026-04-26T10:28:06.589Z</time></trkpt><trkpt lat="44.2552" lon="11.7420533"><ele>92.0</ele><time>2026-04-26T10:28:07.58Z</time></trkpt><trkpt lat="44.2553117" lon="11.7421967"><ele>92.0</ele><time>2026-04-26T10:28:08.597Z</time></trkpt><trkpt lat="44.255425" lon="11.74234"><ele>92.0</ele><time>2026-04-26T10:28:09.584Z</time></trkpt><trkpt lat="44.2555333" lon="11.742485"><ele>92.0</ele><time>2026-04-26T10:28:10.595Z</time></trkpt><trkpt lat="44.2556417" lon="11.7426267"><ele>92.0</ele><time>2026-04-26T10:28:11.599Z</time></trkpt><trkpt lat="44.25575" lon="11.7427667"><ele>92.0</ele><time>2026-04-26T10:28:12.585Z</time></trkpt><trkpt lat="44.255855" lon="11.7429033"><ele>92.75</ele><time>2026-04-26T10:28:13.595Z</time></trkpt><trkpt lat="44.25596" lon="11.7430417"><ele>93.5</ele><time>2026-04-26T10:28:14.592Z</time></trkpt><trkpt lat="44.2560617" lon="11.7431817"><ele>94.25</ele><time>2026-04-26T10:28:15.595Z</time></trkpt><trkpt lat="44.256165" lon="11.74332"><ele>95.0</ele><time>2026-04-26T10:28:16.586Z</time></trkpt><trkpt lat="44.2562717" lon="11.7434567"><ele>96.0</ele><time>2026-04-26T10:28:17.587Z</time></trkpt><trkpt lat="44.256375" lon="11.74359"><ele>97.0</ele><time>2026-04-26T10:28:18.592Z</time></trkpt><trkpt lat="44.2564733" lon="11.7437183"><ele>98.0</ele><time>2026-04-26T10:28:19.604Z</time></trkpt><trkpt lat="44.2565683" lon="11.7438433"><ele>99.0</ele><time>2026-04-26T10:28:20.593Z</time></trkpt><trkpt lat="44.2566617" lon="11.74396"><ele>99.0</ele><time>2026-04-26T10:28:21.594Z</time></trkpt><trkpt lat="44.2567517" lon="11.7440733"><ele>99.0</ele><time>2026-04-26T10:28:22.596Z</time></trkpt><trkpt lat="44.2568417" lon="11.7441817"><ele>99.0</ele><time>2026-04-26T10:28:23.589Z</time></trkpt><trkpt lat="44.256935" lon="11.744275"><ele>99.0</ele><time>2026-04-26T10:28:24.589Z</time></trkpt><trkpt lat="44.25703" lon="11.7443383"><ele>99.0</ele><time>2026-04-26T10:28:25.6Z</time></trkpt><trkpt lat="44.2571283" lon="11.744365"><ele>99.0</ele><time>2026-04-26T10:28:26.585Z</time></trkpt><trkpt lat="44.2572267" lon="11.7443517"><ele>99.0</ele><time>2026-04-26T10:28:27.585Z</time></trkpt><trkpt lat="44.2573183" lon="11.7443117"><ele>99.0</ele><time>2026-04-26T10:28:28.625Z</time></trkpt><trkpt lat="44.257405" lon="11.7442367"><ele>99.0</ele><time>2026-04-26T10:28:29.584Z</time></trkpt><trkpt lat="44.2574767" lon="11.7441267"><ele>97.75</ele><time>2026-04-26T10:28:30.593Z</time></trkpt><trkpt lat="44.2575283" lon="11.7439983"><ele>96.5</ele><time>2026-04-26T10:28:31.585Z</time></trkpt><trkpt lat="44.25756" lon="11.7438533"><ele>95.25</ele><time>2026-04-26T10:28:32.591Z</time></trkpt><trkpt lat="44.2575617" lon="11.7436867"><ele>94.0</ele><time>2026-04-26T10:28:33.594Z</time></trkpt><trkpt lat="44.25756" lon="11.7435217"><ele>93.2</ele><time>2026-04-26T10:28:34.573Z</time></trkpt><trkpt lat="44.25756" lon="11.7433583"><ele>92.4</ele><time>2026-04-26T10:28:35.583Z</time></trkpt><trkpt lat="44.257565" lon="11.7432"><ele>91.6</ele><time>2026-04-26T10:28:36.587Z</time></trkpt><trkpt lat="44.2575733" lon="11.7430467"><ele>90.8</ele><time>2026-04-26T10:28:37.584Z</time></trkpt><trkpt lat="44.257585" lon="11.7428983"><ele>90.0</ele><time>2026-04-26T10:28:38.59Z</time></trkpt><trkpt lat="44.2576" lon="11.742755"><ele>89.6</ele><time>2026-04-26T10:28:39.589Z</time></trkpt><trkpt lat="44.2576133" lon="11.7426133"><ele>89.2</ele><time>2026-04-26T10:28:40.583Z</time></trkpt><trkpt lat="44.2576233" lon="11.7424733"><ele>88.80000000000001</ele><time>2026-04-26T10:28:41.588Z</time></trkpt><trkpt lat="44.2576317" lon="11.7423383"><ele>88.4</ele><time>2026-04-26T10:28:42.593Z</time></trkpt><trkpt lat="44.257635" lon="11.7422033"><ele>88.0</ele><time>2026-04-26T10:28:43.587Z</time></trkpt><trkpt lat="44.2576433" lon="11.742065"><ele>88.0</ele><time>2026-04-26T10:28:44.599Z</time></trkpt><trkpt lat="44.25766" lon="11.7419283"><ele>88.0</ele><time>2026-04-26T10:28:45.59Z</time></trkpt><trkpt lat="44.25769" lon="11.7417933"><ele>88.0</ele><time>2026-04-26T10:28:46.585Z</time></trkpt><trkpt lat="44.2577317" lon="11.7416633"><ele>88.0</ele><time>2026-04-26T10:28:47.579Z</time></trkpt><trkpt lat="44.257785" lon="11.7415417"><ele>88.0</ele><time>2026-04-26T10:28:48.589Z</time></trkpt><trkpt lat="44.2578417" lon="11.7414417"><ele>88.0</ele><time>2026-04-26T10:28:49.591Z</time></trkpt><trkpt lat="44.2579" lon="11.7413567"><ele>88.0</ele><time>2026-04-26T10:28:50.588Z</time></trkpt><trkpt lat="44.25796" lon="11.7412917"><ele>88.0</ele><time>2026-04-26T10:28:51.595Z</time></trkpt><trkpt lat="44.2580217" lon="11.7412483"><ele>88.0</ele><time>2026-04-26T10:28:52.594Z</time></trkpt><trkpt lat="44.2580867" lon="11.7412517"><ele>88.0</ele><time>2026-04-26T10:28:53.584Z</time></trkpt><trkpt lat="44.2581467" lon="11.7412917"><ele>88.0</ele><time>2026-04-26T10:28:54.598Z</time></trkpt><trkpt lat="44.2581967" lon="11.7413617"><ele>88.0</ele><time>2026-04-26T10:28:55.59Z</time></trkpt><trkpt lat="44.2582317" lon="11.7414567"><ele>88.0</ele><time>2026-04-26T10:28:56.592Z</time></trkpt><trkpt lat="44.2582533" lon="11.7415733"><ele>88.0</ele><time>2026-04-26T10:28:57.594Z</time></trkpt><trkpt lat="44.258275" lon="11.7416917"><ele>88.0</ele><time>2026-04-26T10:28:58.58Z</time></trkpt><trkpt lat="44.258305" lon="11.7418133"><ele>88.0</ele><time>2026-04-26T10:28:59.577Z</time></trkpt><trkpt lat="44.2583317" lon="11.7419383"><ele>88.0</ele><time>2026-04-26T10:29:00.613Z</time></trkpt><trkpt lat="44.25836" lon="11.742065"><ele>87.4</ele><time>2026-04-26T10:29:01.593Z</time></trkpt><trkpt lat="44.2583883" lon="11.7421983"><ele>86.80000000000001</ele><time>2026-04-26T10:29:02.591Z</time></trkpt><trkpt lat="44.2584167" lon="11.7423367"><ele>86.2</ele><time>2026-04-26T10:29:03.586Z</time></trkpt><trkpt lat="44.2584517" lon="11.7424783"><ele>85.6</ele><time>2026-04-26T10:29:04.582Z</time></trkpt><trkpt lat="44.2584833" lon="11.7426267"><ele>85.0</ele><time>2026-04-26T10:29:05.582Z</time></trkpt><trkpt lat="44.2585183" lon="11.7427783"><ele>84.75</ele><time>2026-04-26T10:29:06.582Z</time></trkpt><trkpt lat="44.2585567" lon="11.7429333"><ele>84.5</ele><time>2026-04-26T10:29:07.594Z</time></trkpt><trkpt lat="44.2586" lon="11.74309"><ele>84.25</ele><time>2026-04-26T10:29:08.589Z</time></trkpt><trkpt lat="44.2586483" lon="11.7432483"><ele>84.0</ele><time>2026-04-26T10:29:09.592Z</time></trkpt><trkpt lat="44.2587033" lon="11.7434067"><ele>83.0</ele><time>2026-04-26T10:29:10.596Z</time></trkpt><trkpt lat="44.258765" lon="11.7435583"><ele>82.0</ele><time>2026-04-26T10:29:11.581Z</time></trkpt><trkpt lat="44.2588383" lon="11.7437067"><ele>81.0</ele><time>2026-04-26T10:29:12.598Z</time></trkpt><trkpt lat="44.2589183" lon="11.74385"><ele>80.0</ele><time>2026-04-26T10:29:13.591Z</time></trkpt><trkpt lat="44.259005" lon="11.74398"><ele>84.25</ele><time>2026-04-26T10:29:14.582Z</time></trkpt><trkpt lat="44.2591033" lon="11.7440983"><ele>88.5</ele><time>2026-04-26T10:29:15.6Z</time></trkpt><trkpt lat="44.25921" lon="11.7441967"><ele>92.75</ele><time>2026-04-26T10:29:16.591Z</time></trkpt><trkpt lat="44.2593167" lon="11.7442783"><ele>97.0</ele><time>2026-04-26T10:29:17.58Z</time></trkpt><trkpt lat="44.259425" lon="11.74435"><ele>97.0</ele><time>2026-04-26T10:29:18.591Z</time></trkpt><trkpt lat="44.2595333" lon="11.7444183"><ele>97.0</ele><time>2026-04-26T10:29:19.587Z</time></trkpt><trkpt lat="44.2596467" lon="11.7444883"><ele>97.0</ele><time>2026-04-26T10:29:20.593Z</time></trkpt><trkpt lat="44.2597617" lon="11.7445567"><ele>97.0</ele><time>2026-04-26T10:29:21.589Z</time></trkpt><trkpt lat="44.2598767" lon="11.7446267"><ele>97.0</ele><time>2026-04-26T10:29:22.585Z</time></trkpt><trkpt lat="44.2599967" lon="11.7446983"><ele>97.0</ele><time>2026-04-26T10:29:23.584Z</time></trkpt><trkpt lat="44.2601183" lon="11.744775"><ele>97.0</ele><time>2026-04-26T10:29:24.582Z</time></trkpt><trkpt lat="44.2602433" lon="11.7448517"><ele>97.0</ele><time>2026-04-26T10:29:25.591Z</time></trkpt><trkpt lat="44.2603683" lon="11.7449283"><ele>97.0</ele><time>2026-04-26T10:29:26.592Z</time></trkpt><trkpt lat="44.2604933" lon="11.745005"><ele>97.0</ele><time>2026-04-26T10:29:27.598Z</time></trkpt><trkpt lat="44.2606167" lon="11.7450833"><ele>97.0</ele><time>2026-04-26T10:29:28.59Z</time></trkpt><trkpt lat="44.26074" lon="11.74515"><ele>97.0</ele><time>2026-04-26T10:29:29.592Z</time></trkpt><trkpt lat="44.260855" lon="11.7452183"><ele>96.8</ele><time>2026-04-26T10:29:30.584Z</time></trkpt><trkpt lat="44.26096" lon="11.7452767"><ele>96.6</ele><time>2026-04-26T10:29:31.59Z</time></trkpt><trkpt lat="44.26106" lon="11.7453117"><ele>96.39999999999999</ele><time>2026-04-26T10:29:32.59Z</time></trkpt><trkpt lat="44.2611583" lon="11.7453133"><ele>96.19999999999999</ele><time>2026-04-26T10:29:33.601Z</time></trkpt><trkpt lat="44.2612433" lon="11.74528"><ele>96.0</ele><time>2026-04-26T10:29:34.593Z</time></trkpt><trkpt lat="44.2613217" lon="11.74521"><ele>96.0</ele><time>2026-04-26T10:29:35.591Z</time></trkpt><trkpt lat="44.26139" lon="11.745105"><ele>96.0</ele><time>2026-04-26T10:29:36.579Z</time></trkpt><trkpt lat="44.2614433" lon="11.74498"><ele>96.0</ele><time>2026-04-26T10:29:37.594Z</time></trkpt><trkpt lat="44.261495" lon="11.7448467"><ele>96.0</ele><time>2026-04-26T10:29:38.589Z</time></trkpt><trkpt lat="44.2615483" lon="11.74471"><ele>96.0</ele><time>2026-04-26T10:29:39.605Z</time></trkpt><trkpt lat="44.2616017" lon="11.7445667"><ele>95.75</ele><time>2026-04-26T10:29:40.585Z</time></trkpt><trkpt lat="44.261655" lon="11.74442"><ele>95.5</ele><time>2026-04-26T10:29:41.59Z</time></trkpt><trkpt lat="44.26171" lon="11.7442667"><ele>95.25</ele><time>2026-04-26T10:29:42.598Z</time></trkpt><trkpt lat="44.261765" lon="11.744105"><ele>95.0</ele><time>2026-04-26T10:29:43.58Z</time></trkpt><trkpt lat="44.2618217" lon="11.74394"><ele>95.0</ele><time>2026-04-26T10:29:44.58Z</time></trkpt><trkpt lat="44.26188" lon="11.7437767"><ele>95.0</ele><time>2026-04-26T10:29:45.582Z</time></trkpt><trkpt lat="44.26194" lon="11.743615"><ele>95.0</ele><time>2026-04-26T10:29:46.587Z</time></trkpt><trkpt lat="44.2620017" lon="11.7434517"><ele>95.0</ele><time>2026-04-26T10:29:47.58Z</time></trkpt><trkpt lat="44.2620683" lon="11.74329"><ele>95.0</ele><time>2026-04-26T10:29:48.597Z</time></trkpt><trkpt lat="44.262135" lon="11.7431233"><ele>95.0</ele><time>2026-04-26T10:29:49.593Z</time></trkpt><trkpt lat="44.2622033" lon="11.7429567"><ele>95.0</ele><time>2026-04-26T10:29:50.584Z</time></trkpt><trkpt lat="44.2622733" lon="11.7427867"><ele>95.0</ele><time>2026-04-26T10:29:51.59Z</time></trkpt><trkpt lat="44.2623433" lon="11.742615"><ele>94.75</ele><time>2026-04-26T10:29:52.579Z</time></trkpt><trkpt lat="44.2624117" lon="11.7424417"><ele>94.5</ele><time>2026-04-26T10:29:53.599Z</time></trkpt><trkpt lat="44.2624783" lon="11.742265"><ele>94.25</ele><time>2026-04-26T10:29:54.581Z</time></trkpt><trkpt lat="44.2625417" lon="11.7420883"><ele>94.0</ele><time>2026-04-26T10:29:55.583Z</time></trkpt><trkpt lat="44.262605" lon="11.7419117"><ele>94.75</ele><time>2026-04-26T10:29:56.597Z</time></trkpt><trkpt lat="44.2626633" lon="11.7417333"><ele>95.5</ele><time>2026-04-26T10:29:57.592Z</time></trkpt><trkpt lat="44.262715" lon="11.7415583"><ele>96.25</ele><time>2026-04-26T10:29:58.599Z</time></trkpt><trkpt lat="44.2627583" lon="11.7413817"><ele>97.0</ele><time>2026-04-26T10:29:59.588Z</time></trkpt><trkpt lat="44.2627933" lon="11.7412083"><ele>97.0</ele><time>2026-04-26T10:30:00.582Z</time></trkpt><trkpt lat="44.2628217" lon="11.7410333"><ele>97.0</ele><time>2026-04-26T10:30:01.587Z</time></trkpt><trkpt lat="44.2628367" lon="11.7408567"><ele>97.0</ele><time>2026-04-26T10:30:02.587Z</time></trkpt><trkpt lat="44.26285" lon="11.74068"><ele>97.0</ele><time>2026-04-26T10:30:03.583Z</time></trkpt><trkpt lat="44.2628617" lon="11.740505"><ele>97.0</ele><time>2026-04-26T10:30:04.596Z</time></trkpt><trkpt lat="44.2628733" lon="11.74033"><ele>97.0</ele><time>2026-04-26T10:30:05.58Z</time></trkpt><trkpt lat="44.2628867" lon="11.740155"><ele>97.0</ele><time>2026-04-26T10:30:06.581Z</time></trkpt><trkpt lat="44.2629083" lon="11.7399817"><ele>97.0</ele><time>2026-04-26T10:30:07.6Z</time></trkpt><trkpt lat="44.26294" lon="11.73981"><ele>97.25</ele><time>2026-04-26T10:30:08.601Z</time></trkpt><trkpt lat="44.262985" lon="11.73964"><ele>97.5</ele><time>2026-04-26T10:30:09.589Z</time></trkpt><trkpt lat="44.26304" lon="11.739475"><ele>97.75</ele><time>2026-04-26T10:30:10.594Z</time></trkpt><trkpt lat="44.2631033" lon="11.73931"><ele>98.0</ele><time>2026-04-26T10:30:11.587Z</time></trkpt><trkpt lat="44.2631683" lon="11.7391483"><ele>98.5</ele><time>2026-04-26T10:30:12.587Z</time></trkpt><trkpt lat="44.2632317" lon="11.7389817"><ele>99.0</ele><time>2026-04-26T10:30:13.59Z</time></trkpt><trkpt lat="44.2632967" lon="11.738815"><ele>99.5</ele><time>2026-04-26T10:30:14.592Z</time></trkpt><trkpt lat="44.2633633" lon="11.7386467"><ele>100.0</ele><time>2026-04-26T10:30:15.608Z</time></trkpt><trkpt lat="44.263425" lon="11.7384733"><ele>100.0</ele><time>2026-04-26T10:30:16.58Z</time></trkpt><trkpt lat="44.2634883" lon="11.7383"><ele>100.0</ele><time>2026-04-26T10:30:17.59Z</time></trkpt><trkpt lat="44.263555" lon="11.7381283"><ele>100.0</ele><time>2026-04-26T10:30:18.587Z</time></trkpt><trkpt lat="44.263625" lon="11.7379583"><ele>100.0</ele><time>2026-04-26T10:30:19.595Z</time></trkpt><trkpt lat="44.263695" lon="11.7377867"><ele>99.0</ele><time>2026-04-26T10:30:20.592Z</time></trkpt><trkpt lat="44.26377" lon="11.73762"><ele>98.0</ele><time>2026-04-26T10:30:21.582Z</time></trkpt><trkpt lat="44.26385" lon="11.73746"><ele>97.0</ele><time>2026-04-26T10:30:22.601Z</time></trkpt><trkpt lat="44.263935" lon="11.7373033"><ele>96.0</ele><time>2026-04-26T10:30:23.596Z</time></trkpt><trkpt lat="44.26402" lon="11.73715"><ele>95.5</ele><time>2026-04-26T10:30:24.601Z</time></trkpt><trkpt lat="44.264105" lon="11.7369967"><ele>95.0</ele><time>2026-04-26T10:30:25.579Z</time></trkpt><trkpt lat="44.2641883" lon="11.7368417"><ele>94.5</ele><time>2026-04-26T10:30:26.59Z</time></trkpt><trkpt lat="44.2642733" lon="11.73669"><ele>94.0</ele><time>2026-04-26T10:30:27.592Z</time></trkpt><trkpt lat="44.26436" lon="11.7365383"><ele>94.0</ele><time>2026-04-26T10:30:28.588Z</time></trkpt><trkpt lat="44.2644467" lon="11.7363867"><ele>94.0</ele><time>2026-04-26T10:30:29.586Z</time></trkpt><trkpt lat="44.2645367" lon="11.7362367"><ele>94.0</ele><time>2026-04-26T10:30:30.575Z</time></trkpt><trkpt lat="44.264625" lon="11.7360867"><ele>94.0</ele><time>2026-04-26T10:30:31.589Z</time></trkpt><trkpt lat="44.2647133" lon="11.7359383"><ele>94.5</ele><time>2026-04-26T10:30:32.586Z</time></trkpt><trkpt lat="44.2647983" lon="11.7357867"><ele>95.0</ele><time>2026-04-26T10:30:33.596Z</time></trkpt><trkpt lat="44.2648717" lon="11.735625"><ele>95.5</ele><time>2026-04-26T10:30:34.585Z</time></trkpt><trkpt lat="44.264925" lon="11.73545"><ele>96.0</ele><time>2026-04-26T10:30:35.584Z</time></trkpt><trkpt lat="44.2649617" lon="11.7352683"><ele>96.75</ele><time>2026-04-26T10:30:36.575Z</time></trkpt><trkpt lat="44.2649867" lon="11.73508"><ele>97.5</ele><time>2026-04-26T10:30:37.582Z</time></trkpt><trkpt lat="44.265005" lon="11.7348917"><ele>98.25</ele><time>2026-04-26T10:30:38.595Z</time></trkpt><trkpt lat="44.2650317" lon="11.734705"><ele>99.0</ele><time>2026-04-26T10:30:39.593Z</time></trkpt><trkpt lat="44.2650567" lon="11.7345217"><ele>99.25</ele><time>2026-04-26T10:30:40.587Z</time></trkpt><trkpt lat="44.2650817" lon="11.7343383"><ele>99.5</ele><time>2026-04-26T10:30:41.589Z</time></trkpt><trkpt lat="44.2651033" lon="11.734155"><ele>99.75</ele><time>2026-04-26T10:30:42.589Z</time></trkpt><trkpt lat="44.265125" lon="11.7339733"><ele>100.0</ele><time>2026-04-26T10:30:43.598Z</time></trkpt><trkpt lat="44.2651467" lon="11.7337917"><ele>100.0</ele><time>2026-04-26T10:30:44.58Z</time></trkpt><trkpt lat="44.2651683" lon="11.7336083"><ele>100.0</ele><time>2026-04-26T10:30:45.591Z</time></trkpt><trkpt lat="44.26519" lon="11.733425"><ele>100.0</ele><time>2026-04-26T10:30:46.583Z</time></trkpt><trkpt lat="44.2652167" lon="11.7332367"><ele>100.0</ele><time>2026-04-26T10:30:47.588Z</time></trkpt><trkpt lat="44.26524" lon="11.7330467"><ele>99.75</ele><time>2026-04-26T10:30:48.584Z</time></trkpt><trkpt lat="44.2652583" lon="11.7328583"><ele>99.5</ele><time>2026-04-26T10:30:49.582Z</time></trkpt><trkpt lat="44.2652717" lon="11.73267"><ele>99.25</ele><time>2026-04-26T10:30:50.586Z</time></trkpt><trkpt lat="44.2652733" lon="11.7324817"><ele>99.0</ele><time>2026-04-26T10:30:51.579Z</time></trkpt><trkpt lat="44.26526" lon="11.7322917"><ele>99.5</ele><time>2026-04-26T10:30:52.588Z</time></trkpt><trkpt lat="44.2652417" lon="11.7321"><ele>100.0</ele><time>2026-04-26T10:30:53.58Z</time></trkpt><trkpt lat="44.2652233" lon="11.73191"><ele>100.5</ele><time>2026-04-26T10:30:54.586Z</time></trkpt><trkpt lat="44.2652067" lon="11.7317217"><ele>101.0</ele><time>2026-04-26T10:30:55.596Z</time></trkpt><trkpt lat="44.2651867" lon="11.731535"><ele>101.25</ele><time>2026-04-26T10:30:56.586Z</time></trkpt><trkpt lat="44.2651683" lon="11.7313583"><ele>101.5</ele><time>2026-04-26T10:30:57.591Z</time></trkpt><trkpt lat="44.2651483" lon="11.7311883"><ele>101.75</ele><time>2026-04-26T10:30:58.593Z</time></trkpt><trkpt lat="44.2651317" lon="11.7310267"><ele>102.0</ele><time>2026-04-26T10:30:59.586Z</time></trkpt><trkpt lat="44.2651167" lon="11.73087"><ele>102.0</ele><time>2026-04-26T10:31:00.588Z</time></trkpt><trkpt lat="44.2651083" lon="11.730715"><ele>102.0</ele><time>2026-04-26T10:31:01.587Z</time></trkpt><trkpt lat="44.26511" lon="11.7305633"><ele>102.0</ele><time>2026-04-26T10:31:02.584Z</time></trkpt><trkpt lat="44.2651217" lon="11.73041"><ele>102.0</ele><time>2026-04-26T10:31:03.589Z</time></trkpt><trkpt lat="44.26514" lon="11.7302517"><ele>102.0</ele><time>2026-04-26T10:31:04.592Z</time></trkpt><trkpt lat="44.2651617" lon="11.7300933"><ele>102.25</ele><time>2026-04-26T10:31:05.577Z</time></trkpt><trkpt lat="44.2651867" lon="11.7299283"><ele>102.5</ele><time>2026-04-26T10:31:06.582Z</time></trkpt><trkpt lat="44.26522" lon="11.72976"><ele>102.75</ele><time>2026-04-26T10:31:07.581Z</time></trkpt><trkpt lat="44.2652583" lon="11.7295933"><ele>103.0</ele><time>2026-04-26T10:31:08.633Z</time></trkpt><trkpt lat="44.2653067" lon="11.7294267"><ele>103.25</ele><time>2026-04-26T10:31:09.577Z</time></trkpt><trkpt lat="44.2653617" lon="11.729265"><ele>103.5</ele><time>2026-04-26T10:31:10.593Z</time></trkpt><trkpt lat="44.2654233" lon="11.7291117"><ele>103.75</ele><time>2026-04-26T10:31:11.589Z</time></trkpt><trkpt lat="44.26549" lon="11.728975"><ele>104.0</ele><time>2026-04-26T10:31:12.585Z</time></trkpt><trkpt lat="44.2655683" lon="11.7288517"><ele>104.0</ele><time>2026-04-26T10:31:13.596Z</time></trkpt><trkpt lat="44.2656567" lon="11.7287417"><ele>104.0</ele><time>2026-04-26T10:31:14.591Z</time></trkpt><trkpt lat="44.2657517" lon="11.7286517"><ele>104.0</ele><time>2026-04-26T10:31:15.597Z</time></trkpt><trkpt lat="44.2658567" lon="11.728595"><ele>104.0</ele><time>2026-04-26T10:31:16.591Z</time></trkpt><trkpt lat="44.2659717" lon="11.7285867"><ele>104.0</ele><time>2026-04-26T10:31:17.59Z</time></trkpt><trkpt lat="44.2660833" lon="11.7286067"><ele>104.0</ele><time>2026-04-26T10:31:18.587Z</time></trkpt><trkpt lat="44.2661883" lon="11.7286483"><ele>104.0</ele><time>2026-04-26T10:31:19.592Z</time></trkpt><trkpt lat="44.2662967" lon="11.7286933"><ele>104.0</ele><time>2026-04-26T10:31:20.595Z</time></trkpt><trkpt lat="44.2664017" lon="11.7287383"><ele>104.0</ele><time>2026-04-26T10:31:21.573Z</time></trkpt><trkpt lat="44.2665" lon="11.72879"><ele>103.0</ele><time>2026-04-26T10:31:22.578Z</time></trkpt><trkpt lat="44.2665967" lon="11.7288333"><ele>102.0</ele><time>2026-04-26T10:31:23.601Z</time></trkpt><trkpt lat="44.2666883" lon="11.7288717"><ele>101.0</ele><time>2026-04-26T10:31:24.588Z</time></trkpt><trkpt lat="44.2667783" lon="11.7288917"><ele>100.0</ele><time>2026-04-26T10:31:25.599Z</time></trkpt><trkpt lat="44.2668717" lon="11.72889"><ele>99.0</ele><time>2026-04-26T10:31:26.597Z</time></trkpt><trkpt lat="44.2669733" lon="11.7288617"><ele>99.0</ele><time>2026-04-26T10:31:27.593Z</time></trkpt><trkpt lat="44.2670767" lon="11.7288217"><ele>99.0</ele><time>2026-04-26T10:31:28.603Z</time></trkpt><trkpt lat="44.2671833" lon="11.7287783"><ele>99.0</ele><time>2026-04-26T10:31:29.587Z</time></trkpt><trkpt lat="44.2672917" lon="11.7287333"><ele>99.0</ele><time>2026-04-26T10:31:30.588Z</time></trkpt><trkpt lat="44.2674" lon="11.7286933"><ele>99.0</ele><time>2026-04-26T10:31:31.572Z</time></trkpt><trkpt lat="44.2675083" lon="11.7286583"><ele>97.6</ele><time>2026-04-26T10:31:32.574Z</time></trkpt><trkpt lat="44.2676133" lon="11.7286383"><ele>96.2</ele><time>2026-04-26T10:31:33.587Z</time></trkpt><trkpt lat="44.26772" lon="11.728655"><ele>94.8</ele><time>2026-04-26T10:31:34.585Z</time></trkpt><trkpt lat="44.2678267" lon="11.728695"><ele>93.39999999999999</ele><time>2026-04-26T10:31:35.572Z</time></trkpt><trkpt lat="44.26793" lon="11.7287533"><ele>92.0</ele><time>2026-04-26T10:31:36.594Z</time></trkpt><trkpt lat="44.268035" lon="11.728825"><ele>90.0</ele><time>2026-04-26T10:31:37.586Z</time></trkpt><trkpt lat="44.2681317" lon="11.7288967"><ele>88.0</ele><time>2026-04-26T10:31:38.589Z</time></trkpt><trkpt lat="44.2682217" lon="11.7289683"><ele>86.0</ele><time>2026-04-26T10:31:39.589Z</time></trkpt><trkpt lat="44.2682933" lon="11.729065"><ele>84.0</ele><time>2026-04-26T10:31:40.582Z</time></trkpt><trkpt lat="44.268345" lon="11.7291883"><ele>82.0</ele><time>2026-04-26T10:31:41.591Z</time></trkpt><trkpt lat="44.268385" lon="11.729335"><ele>82.5</ele><time>2026-04-26T10:31:42.597Z</time></trkpt><trkpt lat="44.2684283" lon="11.7294933"><ele>83.0</ele><time>2026-04-26T10:31:43.588Z</time></trkpt><trkpt lat="44.26847" lon="11.7296533"><ele>83.5</ele><time>2026-04-26T10:31:44.593Z</time></trkpt><trkpt lat="44.2685117" lon="11.7298117"><ele>84.0</ele><time>2026-04-26T10:31:45.598Z</time></trkpt><trkpt lat="44.2685517" lon="11.7299683"><ele>84.0</ele><time>2026-04-26T10:31:46.585Z</time></trkpt><trkpt lat="44.2685883" lon="11.7301133"><ele>84.0</ele><time>2026-04-26T10:31:47.597Z</time></trkpt><trkpt lat="44.2686267" lon="11.7302417"><ele>84.0</ele><time>2026-04-26T10:31:48.583Z</time></trkpt><trkpt lat="44.2686733" lon="11.7303483"><ele>84.0</ele><time>2026-04-26T10:31:49.583Z</time></trkpt><trkpt lat="44.2687317" lon="11.7304317"><ele>84.0</ele><time>2026-04-26T10:31:50.584Z</time></trkpt><trkpt lat="44.2687933" lon="11.73049"><ele>83.4</ele><time>2026-04-26T10:31:51.581Z</time></trkpt><trkpt lat="44.2688667" lon="11.7305033"><ele>82.80000000000001</ele><time>2026-04-26T10:31:52.583Z</time></trkpt><trkpt lat="44.2689367" lon="11.7304717"><ele>82.19999999999999</ele><time>2026-04-26T10:31:53.593Z</time></trkpt><trkpt lat="44.26899" lon="11.7303783"><ele>81.6</ele><time>2026-04-26T10:31:54.583Z</time></trkpt><trkpt lat="44.2689967" lon="11.7301817"><ele>81.0</ele><time>2026-04-26T10:31:55.589Z</time></trkpt><trkpt lat="44.2690083" lon="11.73001"><ele>79.5</ele><time>2026-04-26T10:31:56.592Z</time></trkpt><trkpt lat="44.2690217" lon="11.7298483"><ele>78.0</ele><time>2026-04-26T10:31:57.589Z</time></trkpt><trkpt lat="44.2690317" lon="11.72968"><ele>76.5</ele><time>2026-04-26T10:31:58.588Z</time></trkpt><trkpt lat="44.2690433" lon="11.7295083"><ele>75.0</ele><time>2026-04-26T10:31:59.581Z</time></trkpt><trkpt lat="44.2690583" lon="11.7293367"><ele>73.75</ele><time>2026-04-26T10:32:00.574Z</time></trkpt><trkpt lat="44.269085" lon="11.7291733"><ele>72.5</ele><time>2026-04-26T10:32:01.607Z</time></trkpt><trkpt lat="44.269125" lon="11.7290167"><ele>71.25</ele><time>2026-04-26T10:32:02.589Z</time></trkpt><trkpt lat="44.2691733" lon="11.7288617"><ele>70.0</ele><time>2026-04-26T10:32:03.582Z</time></trkpt><trkpt lat="44.269225" lon="11.728705"><ele>68.75</ele><time>2026-04-26T10:32:04.586Z</time></trkpt><trkpt lat="44.2692783" lon="11.7285467"><ele>67.5</ele><time>2026-04-26T10:32:05.583Z</time></trkpt><trkpt lat="44.2693317" lon="11.7283867"><ele>66.25</ele><time>2026-04-26T10:32:06.575Z</time></trkpt><trkpt lat="44.26939" lon="11.7282267"><ele>65.0</ele><time>2026-04-26T10:32:07.584Z</time></trkpt><trkpt lat="44.2694467" lon="11.7280667"><ele>65.0</ele><time>2026-04-26T10:32:08.588Z</time></trkpt><trkpt lat="44.269505" lon="11.7279083"><ele>65.0</ele><time>2026-04-26T10:32:09.588Z</time></trkpt><trkpt lat="44.26956" lon="11.72775"><ele>65.0</ele><time>2026-04-26T10:32:10.605Z</time></trkpt><trkpt lat="44.269615" lon="11.7275933"><ele>65.0</ele><time>2026-04-26T10:32:11.583Z</time></trkpt><trkpt lat="44.2696733" lon="11.7274367"><ele>65.5</ele><time>2026-04-26T10:32:12.595Z</time></trkpt><trkpt lat="44.2697317" lon="11.72728"><ele>66.0</ele><time>2026-04-26T10:32:13.578Z</time></trkpt><trkpt lat="44.2697867" lon="11.7271217"><ele>66.5</ele><time>2026-04-26T10:32:14.59Z</time></trkpt><trkpt lat="44.2698417" lon="11.7269633"><ele>67.0</ele><time>2026-04-26T10:32:15.594Z</time></trkpt><trkpt lat="44.2698983" lon="11.7268067"><ele>67.5</ele><time>2026-04-26T10:32:16.584Z</time></trkpt><trkpt lat="44.269955" lon="11.7266517"><ele>68.0</ele><time>2026-04-26T10:32:17.583Z</time></trkpt><trkpt lat="44.2700133" lon="11.7264983"><ele>68.5</ele><time>2026-04-26T10:32:18.596Z</time></trkpt><trkpt lat="44.2700683" lon="11.72634"><ele>69.0</ele><time>2026-04-26T10:32:19.585Z</time></trkpt><trkpt lat="44.270125" lon="11.72618"><ele>69.25</ele><time>2026-04-26T10:32:20.586Z</time></trkpt><trkpt lat="44.2701817" lon="11.7260183"><ele>69.5</ele><time>2026-04-26T10:32:21.593Z</time></trkpt><trkpt lat="44.2702383" lon="11.725855"><ele>69.75</ele><time>2026-04-26T10:32:22.584Z</time></trkpt><trkpt lat="44.270295" lon="11.7256883"><ele>70.0</ele><time>2026-04-26T10:32:23.592Z</time></trkpt><trkpt lat="44.2703517" lon="11.7255183"><ele>70.0</ele><time>2026-04-26T10:32:24.589Z</time></trkpt><trkpt lat="44.2704117" lon="11.7253483"><ele>70.0</ele><time>2026-04-26T10:32:25.576Z</time></trkpt><trkpt lat="44.2704717" lon="11.7251783"><ele>70.0</ele><time>2026-04-26T10:32:26.59Z</time></trkpt><trkpt lat="44.2705333" lon="11.72501"><ele>70.0</ele><time>2026-04-26T10:32:27.595Z</time></trkpt><trkpt lat="44.2705933" lon="11.7248417"><ele>69.75</ele><time>2026-04-26T10:32:28.584Z</time></trkpt><trkpt lat="44.2706533" lon="11.7246717"><ele>69.5</ele><time>2026-04-26T10:32:29.577Z</time></trkpt><trkpt lat="44.2707133" lon="11.7245017"><ele>69.25</ele><time>2026-04-26T10:32:30.582Z</time></trkpt><trkpt lat="44.2707717" lon="11.7243333"><ele>69.0</ele><time>2026-04-26T10:32:31.584Z</time></trkpt><trkpt lat="44.27083" lon="11.724165"><ele>68.75</ele><time>2026-04-26T10:32:32.586Z</time></trkpt><trkpt lat="44.270885" lon="11.7239933"><ele>68.5</ele><time>2026-04-26T10:32:33.592Z</time></trkpt><trkpt lat="44.27094" lon="11.7238217"><ele>68.25</ele><time>2026-04-26T10:32:34.587Z</time></trkpt><trkpt lat="44.270995" lon="11.7236533"><ele>68.0</ele><time>2026-04-26T10:32:35.587Z</time></trkpt><trkpt lat="44.2710533" lon="11.7234867"><ele>68.5</ele><time>2026-04-26T10:32:36.577Z</time></trkpt><trkpt lat="44.2711117" lon="11.7233217"><ele>69.0</ele><time>2026-04-26T10:32:37.571Z</time></trkpt><trkpt lat="44.2711683" lon="11.72316"><ele>69.5</ele><time>2026-04-26T10:32:38.585Z</time></trkpt><trkpt lat="44.27123" lon="11.7230017"><ele>70.0</ele><time>2026-04-26T10:32:39.595Z</time></trkpt><trkpt lat="44.271295" lon="11.7228483"><ele>70.0</ele><time>2026-04-26T10:32:40.591Z</time></trkpt><trkpt lat="44.2713633" lon="11.7227"><ele>70.0</ele><time>2026-04-26T10:32:41.596Z</time></trkpt><trkpt lat="44.2714367" lon="11.72256"><ele>70.0</ele><time>2026-04-26T10:32:42.585Z</time></trkpt><trkpt lat="44.2715133" lon="11.7224233"><ele>70.0</ele><time>2026-04-26T10:32:43.589Z</time></trkpt><trkpt lat="44.2715867" lon="11.7222917"><ele>70.0</ele><time>2026-04-26T10:32:44.59Z</time></trkpt><trkpt lat="44.2716583" lon="11.722165"><ele>70.0</ele><time>2026-04-26T10:32:45.584Z</time></trkpt><trkpt lat="44.271725" lon="11.722045"><ele>70.0</ele><time>2026-04-26T10:32:46.582Z</time></trkpt><trkpt lat="44.2717883" lon="11.7219333"><ele>70.0</ele><time>2026-04-26T10:32:47.583Z</time></trkpt><trkpt lat="44.27185" lon="11.72183"><ele>70.0</ele><time>2026-04-26T10:32:48.584Z</time></trkpt><trkpt lat="44.2719067" lon="11.7217317"><ele>70.33333333333333</ele><time>2026-04-26T10:32:49.589Z</time></trkpt><trkpt lat="44.2719617" lon="11.7216417"><ele>70.66666666666666</ele><time>2026-04-26T10:32:50.577Z</time></trkpt><trkpt lat="44.2720117" lon="11.721555"><ele>71.0</ele><time>2026-04-26T10:32:51.581Z</time></trkpt><trkpt lat="44.27206" lon="11.7214783"><ele>71.33333333333333</ele><time>2026-04-26T10:32:52.576Z</time></trkpt><trkpt lat="44.2721067" lon="11.7213867"><ele>71.66666666666667</ele><time>2026-04-26T10:32:53.585Z</time></trkpt><trkpt lat="44.2721483" lon="11.7213017"><ele>72.0</ele><time>2026-04-26T10:32:54.586Z</time></trkpt><trkpt lat="44.272205" lon="11.72119"><ele>72.0</ele><time>2026-04-26T10:32:56.593Z</time></trkpt><trkpt lat="44.2722383" lon="11.7210667"><ele>72.0</ele><time>2026-04-26T10:33:04.586Z</time></trkpt><trkpt lat="44.2721883" lon="11.720955"><ele>72.0</ele><time>2026-04-26T10:33:06.585Z</time></trkpt><trkpt lat="44.2720967" lon="11.72082"><ele>72.0</ele><time>2026-04-26T10:33:08.586Z</time></trkpt><trkpt lat="44.2720383" lon="11.72075"><ele>72.0</ele><time>2026-04-26T10:33:09.586Z</time></trkpt><trkpt lat="44.271975" lon="11.72067"><ele>72.4</ele><time>2026-04-26T10:33:10.584Z</time></trkpt><trkpt lat="44.2719183" lon="11.7205733"><ele>72.80000000000001</ele><time>2026-04-26T10:33:11.587Z</time></trkpt><trkpt lat="44.2718717" lon="11.7204683"><ele>73.2</ele><time>2026-04-26T10:33:12.582Z</time></trkpt><trkpt lat="44.2718333" lon="11.7203517"><ele>73.60000000000001</ele><time>2026-04-26T10:33:13.602Z</time></trkpt><trkpt lat="44.2717983" lon="11.7202317"><ele>74.0</ele><time>2026-04-26T10:33:14.587Z</time></trkpt><trkpt lat="44.2717633" lon="11.7201017"><ele>74.2</ele><time>2026-04-26T10:33:15.583Z</time></trkpt><trkpt lat="44.2717283" lon="11.71997"><ele>74.4</ele><time>2026-04-26T10:33:16.591Z</time></trkpt><trkpt lat="44.27169" lon="11.7198333"><ele>74.6</ele><time>2026-04-26T10:33:17.592Z</time></trkpt><trkpt lat="44.27165" lon="11.7196967"><ele>74.8</ele><time>2026-04-26T10:33:18.595Z</time></trkpt><trkpt lat="44.2716167" lon="11.7195567"><ele>75.0</ele><time>2026-04-26T10:33:19.593Z</time></trkpt><trkpt lat="44.2715783" lon="11.7194167"><ele>75.0</ele><time>2026-04-26T10:33:20.58Z</time></trkpt><trkpt lat="44.271535" lon="11.719275"><ele>75.0</ele><time>2026-04-26T10:33:21.586Z</time></trkpt><trkpt lat="44.27149" lon="11.7191283"><ele>75.0</ele><time>2026-04-26T10:33:22.59Z</time></trkpt><trkpt lat="44.271445" lon="11.718975"><ele>75.0</ele><time>2026-04-26T10:33:23.583Z</time></trkpt><trkpt lat="44.2714017" lon="11.7188167"><ele>75.25</ele><time>2026-04-26T10:33:24.584Z</time></trkpt><trkpt lat="44.271355" lon="11.7186583"><ele>75.5</ele><time>2026-04-26T10:33:25.589Z</time></trkpt><trkpt lat="44.27131" lon="11.7185"><ele>75.75</ele><time>2026-04-26T10:33:26.581Z</time></trkpt><trkpt lat="44.2712667" lon="11.71835"><ele>76.0</ele><time>2026-04-26T10:33:27.586Z</time></trkpt><trkpt lat="44.2712267" lon="11.7182067"><ele>76.0</ele><time>2026-04-26T10:33:28.585Z</time></trkpt><trkpt lat="44.2711883" lon="11.7180767"><ele>76.0</ele><time>2026-04-26T10:33:29.61Z</time></trkpt><trkpt lat="44.2711617" lon="11.7179483"><ele>76.0</ele><time>2026-04-26T10:33:30.586Z</time></trkpt><trkpt lat="44.2711383" lon="11.717825"><ele>76.0</ele><time>2026-04-26T10:33:31.593Z</time></trkpt><trkpt lat="44.2711233" lon="11.7177083"><ele>76.0</ele><time>2026-04-26T10:33:32.587Z</time></trkpt><trkpt lat="44.2711133" lon="11.717605"><ele>76.0</ele><time>2026-04-26T10:33:33.585Z</time></trkpt><trkpt lat="44.2710983" lon="11.71751"><ele>75.6</ele><time>2026-04-26T10:33:34.587Z</time></trkpt><trkpt lat="44.27104" lon="11.7173867"><ele>75.19999999999999</ele><time>2026-04-26T10:33:36.596Z</time></trkpt><trkpt lat="44.2709467" lon="11.7173933"><ele>74.80000000000001</ele><time>2026-04-26T10:33:38.598Z</time></trkpt><trkpt lat="44.2708283" lon="11.7174217"><ele>74.4</ele><time>2026-04-26T10:33:40.584Z</time></trkpt><trkpt lat="44.27076" lon="11.7174217"><ele>74.0</ele><time>2026-04-26T10:33:41.585Z</time></trkpt><trkpt lat="44.27069" lon="11.7174067"><ele>74.0</ele><time>2026-04-26T10:33:42.588Z</time></trkpt><trkpt lat="44.2706233" lon="11.7173767"><ele>74.0</ele><time>2026-04-26T10:33:43.587Z</time></trkpt><trkpt lat="44.2705617" lon="11.71733"><ele>74.0</ele><time>2026-04-26T10:33:44.587Z</time></trkpt><trkpt lat="44.2705017" lon="11.7172683"><ele>74.0</ele><time>2026-04-26T10:33:45.592Z</time></trkpt><trkpt lat="44.270445" lon="11.717195"><ele>74.0</ele><time>2026-04-26T10:33:46.585Z</time></trkpt><trkpt lat="44.27039" lon="11.717115"><ele>74.0</ele><time>2026-04-26T10:33:47.58Z</time></trkpt><trkpt lat="44.27034" lon="11.717035"><ele>74.0</ele><time>2026-04-26T10:33:48.589Z</time></trkpt><trkpt lat="44.2702967" lon="11.71695"><ele>74.33333333333334</ele><time>2026-04-26T10:33:49.591Z</time></trkpt><trkpt lat="44.2702417" lon="11.7168883"><ele>74.66666666666667</ele><time>2026-04-26T10:33:50.584Z</time></trkpt><trkpt lat="44.2701767" lon="11.7168383"><ele>75.0</ele><time>2026-04-26T10:33:51.584Z</time></trkpt><trkpt lat="44.270105" lon="11.71679"><ele>75.33333333333333</ele><time>2026-04-26T10:33:52.59Z</time></trkpt><trkpt lat="44.2700317" lon="11.7167417"><ele>75.66666666666666</ele><time>2026-04-26T10:33:53.587Z</time></trkpt><trkpt lat="44.2699567" lon="11.7166933"><ele>76.0</ele><time>2026-04-26T10:33:54.575Z</time></trkpt><trkpt lat="44.2698817" lon="11.7166433"><ele>76.0</ele><time>2026-04-26T10:33:55.583Z</time></trkpt><trkpt lat="44.2698017" lon="11.7165883"><ele>76.0</ele><time>2026-04-26T10:33:56.58Z</time></trkpt><trkpt lat="44.2697233" lon="11.7165367"><ele>76.0</ele><time>2026-04-26T10:33:57.591Z</time></trkpt><trkpt lat="44.2696433" lon="11.71649"><ele>76.0</ele><time>2026-04-26T10:33:58.59Z</time></trkpt><trkpt lat="44.2695617" lon="11.7164483"><ele>76.0</ele><time>2026-04-26T10:33:59.578Z</time></trkpt><trkpt lat="44.2694817" lon="11.7164083"><ele>76.0</ele><time>2026-04-26T10:34:00.598Z</time></trkpt><trkpt lat="44.26941" lon="11.7163633"><ele>76.5</ele><time>2026-04-26T10:34:01.586Z</time></trkpt><trkpt lat="44.2693383" lon="11.7163183"><ele>77.0</ele><time>2026-04-26T10:34:02.582Z</time></trkpt><trkpt lat="44.26927" lon="11.7162717"><ele>77.5</ele><time>2026-04-26T10:34:03.579Z</time></trkpt><trkpt lat="44.2692017" lon="11.71622"><ele>78.0</ele><time>2026-04-26T10:34:04.584Z</time></trkpt><trkpt lat="44.2691317" lon="11.7161567"><ele>78.5</ele><time>2026-04-26T10:34:05.586Z</time></trkpt><trkpt lat="44.2690633" lon="11.7160917"><ele>79.0</ele><time>2026-04-26T10:34:06.593Z</time></trkpt><trkpt lat="44.2690017" lon="11.716015"><ele>79.0</ele><time>2026-04-26T10:34:07.605Z</time></trkpt><trkpt lat="44.268945" lon="11.715935"><ele>79.0</ele><time>2026-04-26T10:34:08.584Z</time></trkpt><trkpt lat="44.2688983" lon="11.7158483"><ele>79.0</ele><time>2026-04-26T10:34:09.577Z</time></trkpt><trkpt lat="44.2688583" lon="11.71576"><ele>79.0</ele><time>2026-04-26T10:34:10.581Z</time></trkpt><trkpt lat="44.2688183" lon="11.7156617"><ele>79.0</ele><time>2026-04-26T10:34:11.583Z</time></trkpt><trkpt lat="44.26877" lon="11.7155667"><ele>79.0</ele><time>2026-04-26T10:34:12.59Z</time></trkpt><trkpt lat="44.2687217" lon="11.7154683"><ele>81.0</ele><time>2026-04-26T10:34:13.586Z</time></trkpt><trkpt lat="44.2686733" lon="11.71537"><ele>83.0</ele><time>2026-04-26T10:34:14.593Z</time></trkpt><trkpt lat="44.268625" lon="11.7152617"><ele>85.0</ele><time>2026-04-26T10:34:15.583Z</time></trkpt><trkpt lat="44.2685767" lon="11.71516"><ele>87.0</ele><time>2026-04-26T10:34:16.575Z</time></trkpt><trkpt lat="44.2685267" lon="11.7150667"><ele>89.0</ele><time>2026-04-26T10:34:17.585Z</time></trkpt><trkpt lat="44.26848" lon="11.7149667"><ele>91.0</ele><time>2026-04-26T10:34:18.584Z</time></trkpt><trkpt lat="44.26844" lon="11.714885"><ele>91.0</ele><time>2026-04-26T10:34:19.586Z</time></trkpt><trkpt lat="44.26837" lon="11.7147733"><ele>91.0</ele><time>2026-04-26T10:34:21.589Z</time></trkpt><trkpt lat="44.2682883" lon="11.7147733"><ele>91.0</ele><time>2026-04-26T10:34:23.586Z</time></trkpt><trkpt lat="44.2682333" lon="11.7149383"><ele>91.0</ele><time>2026-04-26T10:34:25.588Z</time></trkpt><trkpt lat="44.26822" lon="11.7150483"><ele>91.0</ele><time>2026-04-26T10:34:26.584Z</time></trkpt><trkpt lat="44.26822" lon="11.71517"><ele>92.66666666666666</ele><time>2026-04-26T10:34:27.577Z</time></trkpt><trkpt lat="44.26823" lon="11.7153"><ele>94.33333333333333</ele><time>2026-04-26T10:34:28.596Z</time></trkpt><trkpt lat="44.2682483" lon="11.7154233"><ele>96.0</ele><time>2026-04-26T10:34:29.58Z</time></trkpt><trkpt lat="44.26827" lon="11.71554"><ele>97.66666666666666</ele><time>2026-04-26T10:34:30.589Z</time></trkpt><trkpt lat="44.2682783" lon="11.715655"><ele>99.33333333333333</ele><time>2026-04-26T10:34:31.582Z</time></trkpt><trkpt lat="44.2682783" lon="11.7157667"><ele>101.0</ele><time>2026-04-26T10:34:32.604Z</time></trkpt><trkpt lat="44.2682667" lon="11.7158767"><ele>100.99999999999999</ele><time>2026-04-26T10:34:33.59Z</time></trkpt><trkpt lat="44.2682417" lon="11.7159883"><ele>101.0</ele><time>2026-04-26T10:34:34.584Z</time></trkpt><trkpt lat="44.2682083" lon="11.7160967"><ele>101.0</ele><time>2026-04-26T10:34:35.586Z</time></trkpt><trkpt lat="44.2681717" lon="11.7162033"><ele>101.0</ele><time>2026-04-26T10:34:36.586Z</time></trkpt><trkpt lat="44.26813" lon="11.71631"><ele>100.99999999999999</ele><time>2026-04-26T10:34:37.584Z</time></trkpt><trkpt lat="44.26809" lon="11.7164067"><ele>101.0</ele><time>2026-04-26T10:34:38.581Z</time></trkpt><trkpt lat="44.2680517" lon="11.7164967"><ele>101.83333333333333</ele><time>2026-04-26T10:34:39.599Z</time></trkpt><trkpt lat="44.2680167" lon="11.7165817"><ele>102.66666666666666</ele><time>2026-04-26T10:34:40.584Z</time></trkpt><trkpt lat="44.2679483" lon="11.7166683"><ele>103.5</ele><time>2026-04-26T10:34:42.584Z</time></trkpt><trkpt lat="44.267855" lon="11.7166367"><ele>104.33333333333334</ele><time>2026-04-26T10:34:44.583Z</time></trkpt><trkpt lat="44.2677983" lon="11.7165883"><ele>105.16666666666667</ele><time>2026-04-26T10:34:45.586Z</time></trkpt><trkpt lat="44.267735" lon="11.7165333"><ele>106.0</ele><time>2026-04-26T10:34:46.578Z</time></trkpt><trkpt lat="44.2676683" lon="11.7164667"><ele>106.0</ele><time>2026-04-26T10:34:47.582Z</time></trkpt><trkpt lat="44.2675933" lon="11.7164067"><ele>106.0</ele><time>2026-04-26T10:34:48.587Z</time></trkpt><trkpt lat="44.2675167" lon="11.7163467"><ele>106.0</ele><time>2026-04-26T10:34:49.594Z</time></trkpt><trkpt lat="44.26744" lon="11.7162883"><ele>106.0</ele><time>2026-04-26T10:34:50.587Z</time></trkpt><trkpt lat="44.26736" lon="11.7162217"><ele>106.0</ele><time>2026-04-26T10:34:51.59Z</time></trkpt><trkpt lat="44.2672767" lon="11.716155"><ele>106.6</ele><time>2026-04-26T10:34:52.596Z</time></trkpt><trkpt lat="44.2671917" lon="11.716085"><ele>107.19999999999999</ele><time>2026-04-26T10:34:53.583Z</time></trkpt><trkpt lat="44.2671033" lon="11.71602"><ele>107.80000000000001</ele><time>2026-04-26T10:34:54.594Z</time></trkpt><trkpt lat="44.2670117" lon="11.715955"><ele>108.4</ele><time>2026-04-26T10:34:55.587Z</time></trkpt><trkpt lat="44.266925" lon="11.715885"><ele>109.0</ele><time>2026-04-26T10:34:56.584Z</time></trkpt><trkpt lat="44.2668367" lon="11.71581"><ele>109.0</ele><time>2026-04-26T10:34:57.593Z</time></trkpt><trkpt lat="44.2667483" lon="11.7157417"><ele>109.0</ele><time>2026-04-26T10:34:58.588Z</time></trkpt><trkpt lat="44.2666583" lon="11.715675"><ele>109.0</ele><time>2026-04-26T10:34:59.588Z</time></trkpt><trkpt lat="44.2665717" lon="11.7156067"><ele>109.0</ele><time>2026-04-26T10:35:00.588Z</time></trkpt><trkpt lat="44.26648" lon="11.71554"><ele>109.0</ele><time>2026-04-26T10:35:01.585Z</time></trkpt><trkpt lat="44.26639" lon="11.7154733"><ele>110.0</ele><time>2026-04-26T10:35:02.596Z</time></trkpt><trkpt lat="44.2662983" lon="11.7154083"><ele>111.0</ele><time>2026-04-26T10:35:03.584Z</time></trkpt><trkpt lat="44.2662083" lon="11.7153483"><ele>112.0</ele><time>2026-04-26T10:35:04.586Z</time></trkpt><trkpt lat="44.2661183" lon="11.7152883"><ele>113.0</ele><time>2026-04-26T10:35:05.6Z</time></trkpt><trkpt lat="44.266025" lon="11.71523"><ele>114.0</ele><time>2026-04-26T10:35:06.584Z</time></trkpt><trkpt lat="44.2659333" lon="11.71517"><ele>114.0</ele><time>2026-04-26T10:35:07.596Z</time></trkpt><trkpt lat="44.26585" lon="11.7151067"><ele>114.0</ele><time>2026-04-26T10:35:08.587Z</time></trkpt><trkpt lat="44.2657767" lon="11.7150417"><ele>114.0</ele><time>2026-04-26T10:35:09.591Z</time></trkpt><trkpt lat="44.2657083" lon="11.7149817"><ele>114.0</ele><time>2026-04-26T10:35:10.579Z</time></trkpt><trkpt lat="44.26564" lon="11.7149267"><ele>114.0</ele><time>2026-04-26T10:35:11.58Z</time></trkpt><trkpt lat="44.2655733" lon="11.714875"><ele>114.0</ele><time>2026-04-26T10:35:12.585Z</time></trkpt><trkpt lat="44.265505" lon="11.7148233"><ele>115.0</ele><time>2026-04-26T10:35:13.591Z</time></trkpt><trkpt lat="44.2654383" lon="11.71477"><ele>116.0</ele><time>2026-04-26T10:35:14.584Z</time></trkpt><trkpt lat="44.2653717" lon="11.7147133"><ele>117.0</ele><time>2026-04-26T10:35:15.586Z</time></trkpt><trkpt lat="44.265305" lon="11.714655"><ele>118.0</ele><time>2026-04-26T10:35:16.585Z</time></trkpt><trkpt lat="44.2652367" lon="11.714595"><ele>119.0</ele><time>2026-04-26T10:35:17.59Z</time></trkpt><trkpt lat="44.2651667" lon="11.7145367"><ele>120.0</ele><time>2026-04-26T10:35:18.581Z</time></trkpt><trkpt lat="44.265095" lon="11.7144767"><ele>120.0</ele><time>2026-04-26T10:35:19.586Z</time></trkpt><trkpt lat="44.26502" lon="11.714415"><ele>120.0</ele><time>2026-04-26T10:35:20.587Z</time></trkpt><trkpt lat="44.2649467" lon="11.7143567"><ele>120.0</ele><time>2026-04-26T10:35:21.583Z</time></trkpt><trkpt lat="44.26487" lon="11.7142983"><ele>120.0</ele><time>2026-04-26T10:35:22.58Z</time></trkpt><trkpt lat="44.264795" lon="11.7142383"><ele>120.0</ele><time>2026-04-26T10:35:23.592Z</time></trkpt><trkpt lat="44.2647217" lon="11.7141817"><ele>120.0</ele><time>2026-04-26T10:35:24.593Z</time></trkpt><trkpt lat="44.2646517" lon="11.71412"><ele>120.66666666666667</ele><time>2026-04-26T10:35:25.585Z</time></trkpt><trkpt lat="44.2645833" lon="11.71406"><ele>121.33333333333334</ele><time>2026-04-26T10:35:26.604Z</time></trkpt><trkpt lat="44.264515" lon="11.7140033"><ele>122.0</ele><time>2026-04-26T10:35:27.584Z</time></trkpt><trkpt lat="44.2644433" lon="11.7139467"><ele>122.66666666666667</ele><time>2026-04-26T10:35:28.576Z</time></trkpt><trkpt lat="44.2643717" lon="11.7138883"><ele>123.33333333333334</ele><time>2026-04-26T10:35:29.585Z</time></trkpt><trkpt lat="44.2643" lon="11.7138267"><ele>124.0</ele><time>2026-04-26T10:35:30.589Z</time></trkpt><trkpt lat="44.26423" lon="11.7137667"><ele>124.0</ele><time>2026-04-26T10:35:31.591Z</time></trkpt><trkpt lat="44.2641617" lon="11.7137167"><ele>124.00000000000001</ele><time>2026-04-26T10:35:32.587Z</time></trkpt><trkpt lat="44.2641033" lon="11.7136683"><ele>124.0</ele><time>2026-04-26T10:35:33.579Z</time></trkpt><trkpt lat="44.2640483" lon="11.7136217"><ele>124.0</ele><time>2026-04-26T10:35:34.593Z</time></trkpt><trkpt lat="44.2639867" lon="11.71358"><ele>124.00000000000001</ele><time>2026-04-26T10:35:35.591Z</time></trkpt><trkpt lat="44.2639167" lon="11.7135433"><ele>124.0</ele><time>2026-04-26T10:35:36.591Z</time></trkpt><trkpt lat="44.2638417" lon="11.7135083"><ele>124.0</ele><time>2026-04-26T10:35:37.587Z</time></trkpt><trkpt lat="44.2637683" lon="11.7134717"><ele>124.50000000000001</ele><time>2026-04-26T10:35:38.579Z</time></trkpt><trkpt lat="44.263695" lon="11.713435"><ele>125.0</ele><time>2026-04-26T10:35:39.587Z</time></trkpt><trkpt lat="44.263615" lon="11.713395"><ele>125.5</ele><time>2026-04-26T10:35:40.591Z</time></trkpt><trkpt lat="44.2635367" lon="11.7133567"><ele>126.0</ele><time>2026-04-26T10:35:41.583Z</time></trkpt><trkpt lat="44.26346" lon="11.7133133"><ele>126.50000000000001</ele><time>2026-04-26T10:35:42.601Z</time></trkpt><trkpt lat="44.2633783" lon="11.7132633"><ele>127.0</ele><time>2026-04-26T10:35:43.58Z</time></trkpt><trkpt lat="44.2632967" lon="11.7132183"><ele>127.00000000000001</ele><time>2026-04-26T10:35:44.577Z</time></trkpt><trkpt lat="44.2632183" lon="11.7131783"><ele>127.0</ele><time>2026-04-26T10:35:45.584Z</time></trkpt><trkpt lat="44.26314" lon="11.71314"><ele>127.0</ele><time>2026-04-26T10:35:46.591Z</time></trkpt><trkpt lat="44.2630633" lon="11.7131033"><ele>127.0</ele><time>2026-04-26T10:35:47.596Z</time></trkpt><trkpt lat="44.2629867" lon="11.7130633"><ele>127.00000000000001</ele><time>2026-04-26T10:35:48.591Z</time></trkpt><trkpt lat="44.262905" lon="11.7130233"><ele>127.0</ele><time>2026-04-26T10:35:49.585Z</time></trkpt><trkpt lat="44.2628233" lon="11.7129883"><ele>127.39999999999999</ele><time>2026-04-26T10:35:50.585Z</time></trkpt><trkpt lat="44.262735" lon="11.7129567"><ele>127.79999999999998</ele><time>2026-04-26T10:35:51.581Z</time></trkpt><trkpt lat="44.26265" lon="11.7129167"><ele>128.2</ele><time>2026-04-26T10:35:52.582Z</time></trkpt><trkpt lat="44.2625667" lon="11.7128717"><ele>128.6</ele><time>2026-04-26T10:35:53.586Z</time></trkpt><trkpt lat="44.26248" lon="11.7128317"><ele>129.0</ele><time>2026-04-26T10:35:54.588Z</time></trkpt><trkpt lat="44.262395" lon="11.7127933"><ele>129.0</ele><time>2026-04-26T10:35:55.595Z</time></trkpt><trkpt lat="44.262305" lon="11.7127583"><ele>129.0</ele><time>2026-04-26T10:35:56.583Z</time></trkpt><trkpt lat="44.262215" lon="11.712725"><ele>129.0</ele><time>2026-04-26T10:35:57.645Z</time></trkpt><trkpt lat="44.26213" lon="11.7126867"><ele>129.0</ele><time>2026-04-26T10:35:58.569Z</time></trkpt><trkpt lat="44.2620467" lon="11.7126467"><ele>129.0</ele><time>2026-04-26T10:35:59.581Z</time></trkpt><trkpt lat="44.26196" lon="11.7126"><ele>129.5</ele><time>2026-04-26T10:36:00.59Z</time></trkpt><trkpt lat="44.2618717" lon="11.7125583"><ele>130.0</ele><time>2026-04-26T10:36:01.586Z</time></trkpt><trkpt lat="44.261785" lon="11.7125217"><ele>130.5</ele><time>2026-04-26T10:36:02.589Z</time></trkpt><trkpt lat="44.2617017" lon="11.7124817"><ele>131.0</ele><time>2026-04-26T10:36:03.591Z</time></trkpt><trkpt lat="44.2616233" lon="11.7124483"><ele>131.5</ele><time>2026-04-26T10:36:04.584Z</time></trkpt><trkpt lat="44.2615433" lon="11.712435"><ele>132.0</ele><time>2026-04-26T10:36:05.586Z</time></trkpt><trkpt lat="44.2614633" lon="11.7124467"><ele>131.66666666666666</ele><time>2026-04-26T10:36:06.604Z</time></trkpt><trkpt lat="44.2613833" lon="11.7124783"><ele>131.33333333333334</ele><time>2026-04-26T10:36:07.589Z</time></trkpt><trkpt lat="44.2613083" lon="11.71253"><ele>131.0</ele><time>2026-04-26T10:36:08.592Z</time></trkpt><trkpt lat="44.2612333" lon="11.7125917"><ele>130.66666666666669</ele><time>2026-04-26T10:36:09.591Z</time></trkpt><trkpt lat="44.261165" lon="11.71266"><ele>130.33333333333334</ele><time>2026-04-26T10:36:10.581Z</time></trkpt><trkpt lat="44.2611017" lon="11.7127367"><ele>130.0</ele><time>2026-04-26T10:36:11.579Z</time></trkpt><trkpt lat="44.2610417" lon="11.7128133"><ele>131.83333333333334</ele><time>2026-04-26T10:36:12.591Z</time></trkpt><trkpt lat="44.260985" lon="11.7128933"><ele>133.66666666666669</ele><time>2026-04-26T10:36:13.589Z</time></trkpt><trkpt lat="44.260925" lon="11.71297"><ele>135.5</ele><time>2026-04-26T10:36:14.581Z</time></trkpt><trkpt lat="44.260865" lon="11.7130417"><ele>137.33333333333334</ele><time>2026-04-26T10:36:15.581Z</time></trkpt><trkpt lat="44.2608117" lon="11.7131183"><ele>139.16666666666666</ele><time>2026-04-26T10:36:16.592Z</time></trkpt><trkpt lat="44.2607583" lon="11.713195"><ele>141.0</ele><time>2026-04-26T10:36:17.609Z</time></trkpt><trkpt lat="44.2607033" lon="11.713265"><ele>141.0</ele><time>2026-04-26T10:36:18.599Z</time></trkpt><trkpt lat="44.2606483" lon="11.7133383"><ele>141.0</ele><time>2026-04-26T10:36:19.589Z</time></trkpt><trkpt lat="44.260595" lon="11.7134133"><ele>141.0</ele><time>2026-04-26T10:36:20.592Z</time></trkpt><trkpt lat="44.26054" lon="11.7134967"><ele>141.0</ele><time>2026-04-26T10:36:21.604Z</time></trkpt><trkpt lat="44.260485" lon="11.7135833"><ele>141.0</ele><time>2026-04-26T10:36:22.592Z</time></trkpt><trkpt lat="44.2604217" lon="11.7136667"><ele>141.0</ele><time>2026-04-26T10:36:23.583Z</time></trkpt><trkpt lat="44.2603583" lon="11.71375"><ele>144.16666666666666</ele><time>2026-04-26T10:36:24.59Z</time></trkpt><trkpt lat="44.2602933" lon="11.7138217"><ele>147.33333333333334</ele><time>2026-04-26T10:36:25.593Z</time></trkpt><trkpt lat="44.2602267" lon="11.7138817"><ele>150.5</ele><time>2026-04-26T10:36:26.596Z</time></trkpt><trkpt lat="44.26016" lon="11.7139217"><ele>153.66666666666669</ele><time>2026-04-26T10:36:27.619Z</time></trkpt><trkpt lat="44.26009" lon="11.7139467"><ele>156.83333333333334</ele><time>2026-04-26T10:36:28.58Z</time></trkpt><trkpt lat="44.26002" lon="11.7139583"><ele>160.0</ele><time>2026-04-26T10:36:29.586Z</time></trkpt><trkpt lat="44.259945" lon="11.7139617"><ele>160.0</ele><time>2026-04-26T10:36:30.582Z</time></trkpt><trkpt lat="44.25988" lon="11.7139567"><ele>160.0</ele><time>2026-04-26T10:36:31.584Z</time></trkpt><trkpt lat="44.2598033" lon="11.7139417"><ele>160.0</ele><time>2026-04-26T10:36:32.592Z</time></trkpt><trkpt lat="44.25973" lon="11.7139217"><ele>160.0</ele><time>2026-04-26T10:36:33.585Z</time></trkpt><trkpt lat="44.2596617" lon="11.7138833"><ele>160.0</ele><time>2026-04-26T10:36:34.584Z</time></trkpt><trkpt lat="44.2595967" lon="11.7138317"><ele>160.0</ele><time>2026-04-26T10:36:35.599Z</time></trkpt><trkpt lat="44.2595283" lon="11.7137883"><ele>160.0</ele><time>2026-04-26T10:36:36.589Z</time></trkpt><trkpt lat="44.2594583" lon="11.7137533"><ele>162.66666666666669</ele><time>2026-04-26T10:36:37.595Z</time></trkpt><trkpt lat="44.2593833" lon="11.7137267"><ele>165.33333333333334</ele><time>2026-04-26T10:36:38.585Z</time></trkpt><trkpt lat="44.2593067" lon="11.7137067"><ele>168.0</ele><time>2026-04-26T10:36:39.592Z</time></trkpt><trkpt lat="44.2592283" lon="11.71369"><ele>170.66666666666666</ele><time>2026-04-26T10:36:40.581Z</time></trkpt><trkpt lat="44.25915" lon="11.7136833"><ele>173.33333333333331</ele><time>2026-04-26T10:36:41.583Z</time></trkpt><trkpt lat="44.2590667" lon="11.7136817"><ele>176.0</ele><time>2026-04-26T10:36:42.591Z</time></trkpt><trkpt lat="44.2589917" lon="11.7136783"><ele>177.16666666666666</ele><time>2026-04-26T10:36:43.585Z</time></trkpt><trkpt lat="44.2589167" lon="11.713675"><ele>178.33333333333331</ele><time>2026-04-26T10:36:44.585Z</time></trkpt><trkpt lat="44.2588417" lon="11.7136683"><ele>179.5</ele><time>2026-04-26T10:36:45.599Z</time></trkpt><trkpt lat="44.2587633" lon="11.7136567"><ele>180.66666666666666</ele><time>2026-04-26T10:36:46.581Z</time></trkpt><trkpt lat="44.2586833" lon="11.7136283"><ele>181.83333333333334</ele><time>2026-04-26T10:36:47.581Z</time></trkpt><trkpt lat="44.2586083" lon="11.7135867"><ele>183.0</ele><time>2026-04-26T10:36:48.575Z</time></trkpt><trkpt lat="44.2585433" lon="11.7135333"><ele>183.0</ele><time>2026-04-26T10:36:49.588Z</time></trkpt><trkpt lat="44.2584983" lon="11.713465"><ele>183.0</ele><time>2026-04-26T10:36:50.585Z</time></trkpt><trkpt lat="44.2584683" lon="11.713375"><ele>183.0</ele><time>2026-04-26T10:36:51.59Z</time></trkpt><trkpt lat="44.2584567" lon="11.71327"><ele>183.0</ele><time>2026-04-26T10:36:52.585Z</time></trkpt><trkpt lat="44.2584633" lon="11.7131633"><ele>183.0</ele><time>2026-04-26T10:36:53.586Z</time></trkpt><trkpt lat="44.258485" lon="11.7130517"><ele>183.0</ele><time>2026-04-26T10:36:54.598Z</time></trkpt><trkpt lat="44.2585033" lon="11.71294"><ele>183.0</ele><time>2026-04-26T10:36:55.578Z</time></trkpt><trkpt lat="44.258515" lon="11.7128333"><ele>183.0</ele><time>2026-04-26T10:36:56.591Z</time></trkpt><trkpt lat="44.2585033" lon="11.7126967"><ele>183.0</ele><time>2026-04-26T10:36:58.576Z</time></trkpt><trkpt lat="44.258415" lon="11.7126567"><ele>183.0</ele><time>2026-04-26T10:37:00.596Z</time></trkpt><trkpt lat="44.25836" lon="11.7127267"><ele>183.0</ele><time>2026-04-26T10:37:01.587Z</time></trkpt><trkpt lat="44.2583167" lon="11.7128233"><ele>183.0</ele><time>2026-04-26T10:37:02.589Z</time></trkpt><trkpt lat="44.2582767" lon="11.712925"><ele>183.0</ele><time>2026-04-26T10:37:03.576Z</time></trkpt><trkpt lat="44.2582467" lon="11.7130233"><ele>183.0</ele><time>2026-04-26T10:37:04.588Z</time></trkpt><trkpt lat="44.2582267" lon="11.713125"><ele>183.0</ele><time>2026-04-26T10:37:05.581Z</time></trkpt><trkpt lat="44.2582117" lon="11.7132417"><ele>183.0</ele><time>2026-04-26T10:37:06.59Z</time></trkpt><trkpt lat="44.2582083" lon="11.71337"><ele>183.0</ele><time>2026-04-26T10:37:07.603Z</time></trkpt><trkpt lat="44.25822" lon="11.7135"><ele>183.0</ele><time>2026-04-26T10:37:08.589Z</time></trkpt><trkpt lat="44.2582383" lon="11.71363"><ele>184.66666666666666</ele><time>2026-04-26T10:37:09.599Z</time></trkpt><trkpt lat="44.258265" lon="11.713745"><ele>186.33333333333331</ele><time>2026-04-26T10:37:10.591Z</time></trkpt><trkpt lat="44.258295" lon="11.7138433"><ele>188.0</ele><time>2026-04-26T10:37:11.58Z</time></trkpt><trkpt lat="44.258345" lon="11.7139233"><ele>189.66666666666666</ele><time>2026-04-26T10:37:12.605Z</time></trkpt><trkpt lat="44.258405" lon="11.7140033"><ele>191.33333333333331</ele><time>2026-04-26T10:37:13.574Z</time></trkpt><trkpt lat="44.2584617" lon="11.71408"><ele>193.0</ele><time>2026-04-26T10:37:14.576Z</time></trkpt><trkpt lat="44.2585133" lon="11.71416"><ele>193.00000000000003</ele><time>2026-04-26T10:37:15.577Z</time></trkpt><trkpt lat="44.25856" lon="11.714245"><ele>193.0</ele><time>2026-04-26T10:37:16.582Z</time></trkpt><trkpt lat="44.2585983" lon="11.714335"><ele>193.0</ele><time>2026-04-26T10:37:17.584Z</time></trkpt><trkpt lat="44.25863" lon="11.7144233"><ele>193.0</ele><time>2026-04-26T10:37:18.593Z</time></trkpt><trkpt lat="44.25865" lon="11.714515"><ele>193.0</ele><time>2026-04-26T10:37:19.589Z</time></trkpt><trkpt lat="44.2586633" lon="11.7146117"><ele>193.00000000000003</ele><time>2026-04-26T10:37:20.588Z</time></trkpt><trkpt lat="44.2586717" lon="11.7147133"><ele>193.0</ele><time>2026-04-26T10:37:21.59Z</time></trkpt><trkpt lat="44.2586767" lon="11.71482"><ele>194.57142857142858</ele><time>2026-04-26T10:37:22.591Z</time></trkpt><trkpt lat="44.25868" lon="11.714925"><ele>196.14285714285714</ele><time>2026-04-26T10:37:23.592Z</time></trkpt><trkpt lat="44.2586833" lon="11.7150317"><ele>197.71428571428572</ele><time>2026-04-26T10:37:24.577Z</time></trkpt><trkpt lat="44.2586817" lon="11.7151367"><ele>199.28571428571428</ele><time>2026-04-26T10:37:25.588Z</time></trkpt><trkpt lat="44.2586783" lon="11.7152417"><ele>200.85714285714286</ele><time>2026-04-26T10:37:26.592Z</time></trkpt><trkpt lat="44.2586717" lon="11.715345"><ele>202.42857142857144</ele><time>2026-04-26T10:37:27.586Z</time></trkpt><trkpt lat="44.2586633" lon="11.715445"><ele>204.0</ele><time>2026-04-26T10:37:28.575Z</time></trkpt><trkpt lat="44.25865" lon="11.715545"><ele>204.14285714285714</ele><time>2026-04-26T10:37:29.583Z</time></trkpt><trkpt lat="44.258625" lon="11.715645"><ele>204.28571428571428</ele><time>2026-04-26T10:37:30.584Z</time></trkpt><trkpt lat="44.2585883" lon="11.7157367"><ele>204.42857142857144</ele><time>2026-04-26T10:37:31.59Z</time></trkpt><trkpt lat="44.2585417" lon="11.7158167"><ele>204.57142857142856</ele><time>2026-04-26T10:37:32.585Z</time></trkpt><trkpt lat="44.2584833" lon="11.7158833"><ele>204.7142857142857</ele><time>2026-04-26T10:37:33.59Z</time></trkpt><trkpt lat="44.25842" lon="11.7159383"><ele>204.85714285714286</ele><time>2026-04-26T10:37:34.59Z</time></trkpt><trkpt lat="44.25836" lon="11.7159917"><ele>205.0</ele><time>2026-04-26T10:37:35.588Z</time></trkpt><trkpt lat="44.2583017" lon="11.7160433"><ele>202.83333333333331</ele><time>2026-04-26T10:37:36.584Z</time></trkpt><trkpt lat="44.258185" lon="11.716105"><ele>200.66666666666666</ele><time>2026-04-26T10:37:38.596Z</time></trkpt><trkpt lat="44.2581217" lon="11.7161183"><ele>198.5</ele><time>2026-04-26T10:37:39.581Z</time></trkpt><trkpt lat="44.258035" lon="11.7160567"><ele>196.33333333333331</ele><time>2026-04-26T10:37:41.575Z</time></trkpt><trkpt lat="44.2580117" lon="11.7159683"><ele>194.16666666666666</ele><time>2026-04-26T10:37:42.592Z</time></trkpt><trkpt lat="44.2580117" lon="11.7158533"><ele>192.0</ele><time>2026-04-26T10:37:43.581Z</time></trkpt><trkpt lat="44.25801" lon="11.71575"><ele>197.33333333333334</ele><time>2026-04-26T10:37:44.577Z</time></trkpt><trkpt lat="44.2580183" lon="11.71563"><ele>202.66666666666669</ele><time>2026-04-26T10:37:45.574Z</time></trkpt><trkpt lat="44.25802" lon="11.71551"><ele>208.0</ele><time>2026-04-26T10:37:46.601Z</time></trkpt><trkpt lat="44.258005" lon="11.71539"><ele>213.33333333333334</ele><time>2026-04-26T10:37:47.598Z</time></trkpt><trkpt lat="44.2579867" lon="11.715275"><ele>218.66666666666669</ele><time>2026-04-26T10:37:48.577Z</time></trkpt><trkpt lat="44.2579617" lon="11.7151667"><ele>224.0</ele><time>2026-04-26T10:37:49.598Z</time></trkpt><trkpt lat="44.257935" lon="11.7150667"><ele>224.33333333333334</ele><time>2026-04-26T10:37:50.586Z</time></trkpt><trkpt lat="44.2579017" lon="11.7149733"><ele>224.66666666666669</ele><time>2026-04-26T10:37:51.587Z</time></trkpt><trkpt lat="44.2578583" lon="11.7148833"><ele>225.0</ele><time>2026-04-26T10:37:52.586Z</time></trkpt><trkpt lat="44.25781" lon="11.7148017"><ele>225.33333333333331</ele><time>2026-04-26T10:37:53.609Z</time></trkpt><trkpt lat="44.2577533" lon="11.7147217"><ele>225.66666666666666</ele><time>2026-04-26T10:37:54.585Z</time></trkpt><trkpt lat="44.2576967" lon="11.7146417"><ele>226.0</ele><time>2026-04-26T10:37:55.581Z</time></trkpt><trkpt lat="44.2576367" lon="11.7145683"><ele>226.0</ele><time>2026-04-26T10:37:56.586Z</time></trkpt><trkpt lat="44.2575783" lon="11.7145067"><ele>226.0</ele><time>2026-04-26T10:37:57.577Z</time></trkpt><trkpt lat="44.2575183" lon="11.7144467"><ele>226.0</ele><time>2026-04-26T10:37:58.589Z</time></trkpt><trkpt lat="44.2574633" lon="11.71439"><ele>226.0</ele><time>2026-04-26T10:37:59.587Z</time></trkpt><trkpt lat="44.2574067" lon="11.7143333"><ele>226.0</ele><time>2026-04-26T10:38:00.575Z</time></trkpt><trkpt lat="44.257345" lon="11.7142867"><ele>226.0</ele><time>2026-04-26T10:38:01.588Z</time></trkpt><trkpt lat="44.257285" lon="11.7142467"><ele>226.0</ele><time>2026-04-26T10:38:02.587Z</time></trkpt><trkpt lat="44.257225" lon="11.7142183"><ele>226.66666666666666</ele><time>2026-04-26T10:38:03.578Z</time></trkpt><trkpt lat="44.2571633" lon="11.7141967"><ele>227.33333333333331</ele><time>2026-04-26T10:38:04.582Z</time></trkpt><trkpt lat="44.2570667" lon="11.7141583"><ele>228.0</ele><time>2026-04-26T10:38:06.588Z</time></trkpt><trkpt lat="44.2570183" lon="11.7140733"><ele>228.66666666666669</ele><time>2026-04-26T10:38:19.601Z</time></trkpt><trkpt lat="44.2569833" lon="11.713955"><ele>229.33333333333334</ele><time>2026-04-26T10:38:21.594Z</time></trkpt><trkpt lat="44.2569333" lon="11.71383"><ele>230.0</ele><time>2026-04-26T10:38:23.588Z</time></trkpt><trkpt lat="44.2568667" lon="11.7137183"><ele>230.0</ele><time>2026-04-26T10:38:25.587Z</time></trkpt><trkpt lat="44.2568017" lon="11.7135967"><ele>230.0</ele><time>2026-04-26T10:38:27.593Z</time></trkpt><trkpt lat="44.2567333" lon="11.7134967"><ele>230.0</ele><time>2026-04-26T10:38:29.588Z</time></trkpt><trkpt lat="44.256665" lon="11.7134167"><ele>230.0</ele><time>2026-04-26T10:38:31.567Z</time></trkpt><trkpt lat="44.2566067" lon="11.7133317"><ele>230.0</ele><time>2026-04-26T10:38:33.587Z</time></trkpt><trkpt lat="44.256565" lon="11.7132267"><ele>229.83333333333334</ele><time>2026-04-26T10:38:35.585Z</time></trkpt><trkpt lat="44.2565567" lon="11.7130833"><ele>229.66666666666669</ele><time>2026-04-26T10:38:37.585Z</time></trkpt><trkpt lat="44.2565633" lon="11.7129517"><ele>229.5</ele><time>2026-04-26T10:38:39.592Z</time></trkpt><trkpt lat="44.2565483" lon="11.712865"><ele>229.33333333333331</ele><time>2026-04-26T10:38:41.585Z</time></trkpt><trkpt lat="44.2564717" lon="11.71286"><ele>229.16666666666666</ele><time>2026-04-26T10:38:43.596Z</time></trkpt><trkpt lat="44.2563883" lon="11.7128967"><ele>229.0</ele><time>2026-04-26T10:38:45.578Z</time></trkpt><trkpt lat="44.2562967" lon="11.71292"><ele>225.0</ele><time>2026-04-26T10:38:47.589Z</time></trkpt><trkpt lat="44.25622" lon="11.7129183"><ele>225.0</ele><time>2026-04-26T10:38:49.573Z</time></trkpt><trkpt lat="44.25614" lon="11.7129233"><ele>225.0</ele><time>2026-04-26T10:38:52.588Z</time></trkpt></trkseg><trkseg><trkpt lat="44.2642017" lon="11.7138533"><ele>124.0</ele><time>2026-04-26T10:50:38.604Z</time></trkpt><trkpt lat="44.2644333" lon="11.7140567"><ele>124.0</ele><time>2026-04-26T10:50:44.581Z</time></trkpt><trkpt lat="44.264515" lon="11.7141283"><ele>124.0</ele><time>2026-04-26T10:50:45.585Z</time></trkpt><trkpt lat="44.2645983" lon="11.7142017"><ele>124.0</ele><time>2026-04-26T10:50:46.592Z</time></trkpt><trkpt lat="44.264685" lon="11.7142733"><ele>124.0</ele><time>2026-04-26T10:50:47.576Z</time></trkpt><trkpt lat="44.26477" lon="11.7143383"><ele>124.0</ele><time>2026-04-26T10:50:48.584Z</time></trkpt><trkpt lat="44.2648617" lon="11.7144"><ele>124.0</ele><time>2026-04-26T10:50:49.579Z</time></trkpt><trkpt lat="44.264955" lon="11.71447"><ele>124.0</ele><time>2026-04-26T10:50:50.588Z</time></trkpt><trkpt lat="44.26505" lon="11.714545"><ele>123.2</ele><time>2026-04-26T10:50:51.571Z</time></trkpt><trkpt lat="44.2651433" lon="11.71462"><ele>122.4</ele><time>2026-04-26T10:50:52.581Z</time></trkpt><trkpt lat="44.2652417" lon="11.71469"><ele>121.6</ele><time>2026-04-26T10:50:53.589Z</time></trkpt><trkpt lat="44.2653283" lon="11.7147517"><ele>120.8</ele><time>2026-04-26T10:50:54.581Z</time></trkpt><trkpt lat="44.2654083" lon="11.7148167"><ele>120.0</ele><time>2026-04-26T10:50:55.585Z</time></trkpt><trkpt lat="44.265485" lon="11.7148783"><ele>120.0</ele><time>2026-04-26T10:50:56.584Z</time></trkpt><trkpt lat="44.2655633" lon="11.714935"><ele>120.0</ele><time>2026-04-26T10:50:57.582Z</time></trkpt><trkpt lat="44.2656383" lon="11.7149983"><ele>120.0</ele><time>2026-04-26T10:50:58.585Z</time></trkpt><trkpt lat="44.265715" lon="11.715065"><ele>120.0</ele><time>2026-04-26T10:50:59.58Z</time></trkpt><trkpt lat="44.2657967" lon="11.7151267"><ele>120.0</ele><time>2026-04-26T10:51:00.58Z</time></trkpt><trkpt lat="44.2658817" lon="11.7151867"><ele>118.8</ele><time>2026-04-26T10:51:01.59Z</time></trkpt><trkpt lat="44.2659617" lon="11.71525"><ele>117.6</ele><time>2026-04-26T10:51:02.581Z</time></trkpt><trkpt lat="44.2660417" lon="11.71531"><ele>116.4</ele><time>2026-04-26T10:51:03.591Z</time></trkpt><trkpt lat="44.266125" lon="11.7153667"><ele>115.2</ele><time>2026-04-26T10:51:04.589Z</time></trkpt><trkpt lat="44.266205" lon="11.7154233"><ele>114.0</ele><time>2026-04-26T10:51:05.579Z</time></trkpt><trkpt lat="44.2662833" lon="11.71548"><ele>114.0</ele><time>2026-04-26T10:51:06.581Z</time></trkpt><trkpt lat="44.266365" lon="11.7155417"><ele>114.0</ele><time>2026-04-26T10:51:07.587Z</time></trkpt><trkpt lat="44.2664517" lon="11.7156067"><ele>114.0</ele><time>2026-04-26T10:51:08.589Z</time></trkpt><trkpt lat="44.2665367" lon="11.71567"><ele>114.0</ele><time>2026-04-26T10:51:09.589Z</time></trkpt><trkpt lat="44.2666233" lon="11.7157317"><ele>114.0</ele><time>2026-04-26T10:51:10.578Z</time></trkpt><trkpt lat="44.26671" lon="11.7157933"><ele>113.4</ele><time>2026-04-26T10:51:11.58Z</time></trkpt><trkpt lat="44.2667933" lon="11.7158567"><ele>112.80000000000001</ele><time>2026-04-26T10:51:12.585Z</time></trkpt><trkpt lat="44.2668767" lon="11.7159217"><ele>112.19999999999999</ele><time>2026-04-26T10:51:13.575Z</time></trkpt><trkpt lat="44.2669633" lon="11.7159867"><ele>111.6</ele><time>2026-04-26T10:51:14.579Z</time></trkpt><trkpt lat="44.2670483" lon="11.7160483"><ele>111.0</ele><time>2026-04-26T10:51:15.58Z</time></trkpt><trkpt lat="44.2671333" lon="11.71611"><ele>111.0</ele><time>2026-04-26T10:51:16.58Z</time></trkpt><trkpt lat="44.2672167" lon="11.7161717"><ele>111.0</ele><time>2026-04-26T10:51:17.581Z</time></trkpt><trkpt lat="44.2672967" lon="11.7162317"><ele>111.0</ele><time>2026-04-26T10:51:18.573Z</time></trkpt><trkpt lat="44.2673733" lon="11.7162883"><ele>111.0</ele><time>2026-04-26T10:51:19.579Z</time></trkpt><trkpt lat="44.26745" lon="11.7163467"><ele>111.0</ele><time>2026-04-26T10:51:20.589Z</time></trkpt><trkpt lat="44.2675283" lon="11.716405"><ele>111.0</ele><time>2026-04-26T10:51:21.582Z</time></trkpt><trkpt lat="44.2676033" lon="11.716465"><ele>110.16666666666667</ele><time>2026-04-26T10:51:22.581Z</time></trkpt><trkpt lat="44.2676833" lon="11.716525"><ele>109.33333333333334</ele><time>2026-04-26T10:51:23.577Z</time></trkpt><trkpt lat="44.267755" lon="11.716585"><ele>108.5</ele><time>2026-04-26T10:51:24.579Z</time></trkpt><trkpt lat="44.267815" lon="11.7166383"><ele>107.66666666666667</ele><time>2026-04-26T10:51:25.58Z</time></trkpt><trkpt lat="44.2679083" lon="11.7167033"><ele>106.83333333333334</ele><time>2026-04-26T10:51:27.579Z</time></trkpt><trkpt lat="44.2679767" lon="11.7166933"><ele>106.0</ele><time>2026-04-26T10:51:29.59Z</time></trkpt><trkpt lat="44.2680333" lon="11.716605"><ele>106.00000000000001</ele><time>2026-04-26T10:51:31.583Z</time></trkpt><trkpt lat="44.2681017" lon="11.7164617"><ele>106.0</ele><time>2026-04-26T10:51:33.577Z</time></trkpt><trkpt lat="44.2681417" lon="11.7163817"><ele>106.0</ele><time>2026-04-26T10:51:34.583Z</time></trkpt><trkpt lat="44.2681733" lon="11.7162983"><ele>106.0</ele><time>2026-04-26T10:51:35.576Z</time></trkpt><trkpt lat="44.2682083" lon="11.7162167"><ele>106.00000000000001</ele><time>2026-04-26T10:51:36.585Z</time></trkpt><trkpt lat="44.26824" lon="11.716135"><ele>106.0</ele><time>2026-04-26T10:51:37.579Z</time></trkpt><trkpt lat="44.2682633" lon="11.7160483"><ele>105.28571428571429</ele><time>2026-04-26T10:51:38.59Z</time></trkpt><trkpt lat="44.2682833" lon="11.7159617"><ele>104.57142857142857</ele><time>2026-04-26T10:51:39.586Z</time></trkpt><trkpt lat="44.268295" lon="11.7158733"><ele>103.85714285714286</ele><time>2026-04-26T10:51:40.575Z</time></trkpt><trkpt lat="44.268305" lon="11.715785"><ele>103.14285714285714</ele><time>2026-04-26T10:51:41.567Z</time></trkpt><trkpt lat="44.2683067" lon="11.7156967"><ele>102.42857142857142</ele><time>2026-04-26T10:51:42.577Z</time></trkpt><trkpt lat="44.2682983" lon="11.7156083"><ele>101.71428571428571</ele><time>2026-04-26T10:51:43.58Z</time></trkpt><trkpt lat="44.2682717" lon="11.7154383"><ele>101.0</ele><time>2026-04-26T10:51:45.579Z</time></trkpt><trkpt lat="44.268255" lon="11.7153533"><ele>99.0</ele><time>2026-04-26T10:51:46.574Z</time></trkpt><trkpt lat="44.268235" lon="11.7151817"><ele>97.0</ele><time>2026-04-26T10:51:48.574Z</time></trkpt><trkpt lat="44.2682383" lon="11.7150917"><ele>95.0</ele><time>2026-04-26T10:51:49.585Z</time></trkpt><trkpt lat="44.2682583" lon="11.7149567"><ele>93.0</ele><time>2026-04-26T10:51:51.58Z</time></trkpt><trkpt lat="44.268325" lon="11.714905"><ele>91.0</ele><time>2026-04-26T10:51:53.577Z</time></trkpt><trkpt lat="44.2684" lon="11.7149683"><ele>91.0</ele><time>2026-04-26T10:51:55.596Z</time></trkpt><trkpt lat="44.2684567" lon="11.71511"><ele>91.0</ele><time>2026-04-26T10:51:57.595Z</time></trkpt><trkpt lat="44.2684967" lon="11.7152"><ele>91.0</ele><time>2026-04-26T10:51:58.586Z</time></trkpt><trkpt lat="44.268545" lon="11.7152917"><ele>91.0</ele><time>2026-04-26T10:51:59.586Z</time></trkpt><trkpt lat="44.26859" lon="11.7153817"><ele>91.0</ele><time>2026-04-26T10:52:00.575Z</time></trkpt><trkpt lat="44.2686367" lon="11.715475"><ele>91.0</ele><time>2026-04-26T10:52:01.584Z</time></trkpt><trkpt lat="44.26868" lon="11.71557"><ele>92.66666666666666</ele><time>2026-04-26T10:52:02.586Z</time></trkpt><trkpt lat="44.2687233" lon="11.7156683"><ele>94.33333333333333</ele><time>2026-04-26T10:52:03.586Z</time></trkpt><trkpt lat="44.2687667" lon="11.7157617"><ele>96.0</ele><time>2026-04-26T10:52:04.58Z</time></trkpt><trkpt lat="44.2688033" lon="11.7158533"><ele>97.66666666666666</ele><time>2026-04-26T10:52:05.58Z</time></trkpt><trkpt lat="44.2688433" lon="11.7159433"><ele>99.33333333333333</ele><time>2026-04-26T10:52:06.594Z</time></trkpt><trkpt lat="44.2688883" lon="11.7160267"><ele>101.0</ele><time>2026-04-26T10:52:07.576Z</time></trkpt><trkpt lat="44.2689417" lon="11.7161033"><ele>99.66666666666666</ele><time>2026-04-26T10:52:08.581Z</time></trkpt><trkpt lat="44.268995" lon="11.7161733"><ele>98.33333333333333</ele><time>2026-04-26T10:52:09.579Z</time></trkpt><trkpt lat="44.2690483" lon="11.7162383"><ele>97.0</ele><time>2026-04-26T10:52:10.578Z</time></trkpt><trkpt lat="44.2691067" lon="11.7162933"><ele>95.66666666666666</ele><time>2026-04-26T10:52:11.584Z</time></trkpt><trkpt lat="44.269175" lon="11.7163417"><ele>94.33333333333333</ele><time>2026-04-26T10:52:12.582Z</time></trkpt><trkpt lat="44.2692467" lon="11.7163867"><ele>93.0</ele><time>2026-04-26T10:52:13.587Z</time></trkpt><trkpt lat="44.269325" lon="11.71643"><ele>93.0</ele><time>2026-04-26T10:52:14.587Z</time></trkpt><trkpt lat="44.2693983" lon="11.71647"><ele>93.0</ele><time>2026-04-26T10:52:15.577Z</time></trkpt><trkpt lat="44.2694717" lon="11.71651"><ele>93.0</ele><time>2026-04-26T10:52:16.578Z</time></trkpt><trkpt lat="44.269545" lon="11.7165583"><ele>93.0</ele><time>2026-04-26T10:52:17.585Z</time></trkpt><trkpt lat="44.26962" lon="11.7166"><ele>93.0</ele><time>2026-04-26T10:52:18.584Z</time></trkpt><trkpt lat="44.2696967" lon="11.71664"><ele>93.0</ele><time>2026-04-26T10:52:19.581Z</time></trkpt><trkpt lat="44.2697767" lon="11.7166817"><ele>91.83333333333333</ele><time>2026-04-26T10:52:20.58Z</time></trkpt><trkpt lat="44.2698517" lon="11.7167283"><ele>90.66666666666667</ele><time>2026-04-26T10:52:21.574Z</time></trkpt><trkpt lat="44.2699233" lon="11.71678"><ele>89.5</ele><time>2026-04-26T10:52:22.586Z</time></trkpt><trkpt lat="44.26999" lon="11.7168317"><ele>88.33333333333334</ele><time>2026-04-26T10:52:23.576Z</time></trkpt><trkpt lat="44.2700567" lon="11.7168733"><ele>87.16666666666667</ele><time>2026-04-26T10:52:24.586Z</time></trkpt><trkpt lat="44.2701217" lon="11.7169167"><ele>86.0</ele><time>2026-04-26T10:52:25.586Z</time></trkpt><trkpt lat="44.2701867" lon="11.7169667"><ele>86.0</ele><time>2026-04-26T10:52:26.579Z</time></trkpt><trkpt lat="44.2702467" lon="11.7170267"><ele>86.0</ele><time>2026-04-26T10:52:27.603Z</time></trkpt><trkpt lat="44.270295" lon="11.7170883"><ele>86.0</ele><time>2026-04-26T10:52:28.588Z</time></trkpt><trkpt lat="44.270385" lon="11.7172217"><ele>86.0</ele><time>2026-04-26T10:52:30.579Z</time></trkpt><trkpt lat="44.2704367" lon="11.71729"><ele>86.0</ele><time>2026-04-26T10:52:31.587Z</time></trkpt><trkpt lat="44.2704833" lon="11.7173533"><ele>86.0</ele><time>2026-04-26T10:52:32.572Z</time></trkpt><trkpt lat="44.2705417" lon="11.7174067"><ele>86.0</ele><time>2026-04-26T10:52:33.589Z</time></trkpt><trkpt lat="44.2706017" lon="11.71745"><ele>86.0</ele><time>2026-04-26T10:52:34.58Z</time></trkpt><trkpt lat="44.27066" lon="11.7174867"><ele>86.0</ele><time>2026-04-26T10:52:35.576Z</time></trkpt><trkpt lat="44.2707683" lon="11.7175467"><ele>86.0</ele><time>2026-04-26T10:52:37.587Z</time></trkpt><trkpt lat="44.2708783" lon="11.7175733"><ele>86.0</ele><time>2026-04-26T10:52:39.586Z</time></trkpt><trkpt lat="44.270965" lon="11.71758"><ele>86.0</ele><time>2026-04-26T10:52:41.572Z</time></trkpt><trkpt lat="44.27104" lon="11.7175683"><ele>84.0</ele><time>2026-04-26T10:52:43.585Z</time></trkpt><trkpt lat="44.2711033" lon="11.7174767"><ele>82.0</ele><time>2026-04-26T10:52:45.572Z</time></trkpt><trkpt lat="44.271125" lon="11.7173917"><ele>80.0</ele><time>2026-04-26T10:52:46.581Z</time></trkpt><trkpt lat="44.2711383" lon="11.7172933"><ele>78.0</ele><time>2026-04-26T10:52:47.578Z</time></trkpt><trkpt lat="44.2711467" lon="11.7171867"><ele>76.0</ele><time>2026-04-26T10:52:48.586Z</time></trkpt><trkpt lat="44.2711517" lon="11.717065"><ele>74.0</ele><time>2026-04-26T10:52:49.584Z</time></trkpt><trkpt lat="44.2711567" lon="11.71694"><ele>73.60000000000001</ele><time>2026-04-26T10:52:50.573Z</time></trkpt><trkpt lat="44.2711667" lon="11.716805"><ele>73.2</ele><time>2026-04-26T10:52:51.573Z</time></trkpt><trkpt lat="44.2711767" lon="11.7166633"><ele>72.80000000000001</ele><time>2026-04-26T10:52:52.589Z</time></trkpt><trkpt lat="44.271185" lon="11.7165233"><ele>72.4</ele><time>2026-04-26T10:52:53.592Z</time></trkpt><trkpt lat="44.271195" lon="11.71639"><ele>72.0</ele><time>2026-04-26T10:52:54.588Z</time></trkpt><trkpt lat="44.2712033" lon="11.7162517"><ele>72.0</ele><time>2026-04-26T10:52:55.584Z</time></trkpt><trkpt lat="44.2712117" lon="11.7161133"><ele>72.0</ele><time>2026-04-26T10:52:56.582Z</time></trkpt><trkpt lat="44.2712217" lon="11.7159733"><ele>72.0</ele><time>2026-04-26T10:52:57.589Z</time></trkpt><trkpt lat="44.2712333" lon="11.7158367"><ele>72.0</ele><time>2026-04-26T10:52:58.594Z</time></trkpt><trkpt lat="44.2712417" lon="11.7156933"><ele>72.0</ele><time>2026-04-26T10:52:59.579Z</time></trkpt><trkpt lat="44.2712483" lon="11.7155467"><ele>72.0</ele><time>2026-04-26T10:53:00.588Z</time></trkpt><trkpt lat="44.271255" lon="11.7154033"><ele>72.0</ele><time>2026-04-26T10:53:01.587Z</time></trkpt><trkpt lat="44.2712617" lon="11.7152683"><ele>72.0</ele><time>2026-04-26T10:53:02.583Z</time></trkpt><trkpt lat="44.2712717" lon="11.71512"><ele>72.0</ele><time>2026-04-26T10:53:03.586Z</time></trkpt><trkpt lat="44.2712833" lon="11.7149717"><ele>72.0</ele><time>2026-04-26T10:53:04.586Z</time></trkpt><trkpt lat="44.2712917" lon="11.714825"><ele>72.0</ele><time>2026-04-26T10:53:05.583Z</time></trkpt><trkpt lat="44.2713017" lon="11.7146783"><ele>72.0</ele><time>2026-04-26T10:53:06.573Z</time></trkpt><trkpt lat="44.2713117" lon="11.714535"><ele>72.0</ele><time>2026-04-26T10:53:07.587Z</time></trkpt><trkpt lat="44.2713217" lon="11.714385"><ele>72.0</ele><time>2026-04-26T10:53:08.58Z</time></trkpt><trkpt lat="44.2713267" lon="11.71423"><ele>72.0</ele><time>2026-04-26T10:53:09.592Z</time></trkpt><trkpt lat="44.2713333" lon="11.7140783"><ele>71.5</ele><time>2026-04-26T10:53:10.578Z</time></trkpt><trkpt lat="44.271345" lon="11.7139217"><ele>71.0</ele><time>2026-04-26T10:53:11.577Z</time></trkpt><trkpt lat="44.2713583" lon="11.713765"><ele>70.5</ele><time>2026-04-26T10:53:12.587Z</time></trkpt><trkpt lat="44.27137" lon="11.7136083"><ele>70.0</ele><time>2026-04-26T10:53:13.588Z</time></trkpt><trkpt lat="44.27138" lon="11.7134517"><ele>70.0</ele><time>2026-04-26T10:53:14.586Z</time></trkpt><trkpt lat="44.2713883" lon="11.7132933"><ele>70.0</ele><time>2026-04-26T10:53:15.583Z</time></trkpt><trkpt lat="44.2714017" lon="11.7131333"><ele>70.0</ele><time>2026-04-26T10:53:16.572Z</time></trkpt><trkpt lat="44.271415" lon="11.7129733"><ele>70.0</ele><time>2026-04-26T10:53:17.581Z</time></trkpt><trkpt lat="44.271425" lon="11.71281"><ele>70.0</ele><time>2026-04-26T10:53:18.575Z</time></trkpt><trkpt lat="44.2714333" lon="11.7126417"><ele>70.0</ele><time>2026-04-26T10:53:19.583Z</time></trkpt><trkpt lat="44.2714383" lon="11.7124717"><ele>70.0</ele><time>2026-04-26T10:53:20.574Z</time></trkpt><trkpt lat="44.2714467" lon="11.7122967"><ele>70.0</ele><time>2026-04-26T10:53:21.582Z</time></trkpt><trkpt lat="44.271455" lon="11.71212"><ele>70.0</ele><time>2026-04-26T10:53:22.581Z</time></trkpt><trkpt lat="44.271465" lon="11.7119417"><ele>70.0</ele><time>2026-04-26T10:53:23.584Z</time></trkpt><trkpt lat="44.271475" lon="11.711765"><ele>70.0</ele><time>2026-04-26T10:53:24.58Z</time></trkpt><trkpt lat="44.2714867" lon="11.71159"><ele>70.0</ele><time>2026-04-26T10:53:25.577Z</time></trkpt><trkpt lat="44.2714967" lon="11.7114133"><ele>70.0</ele><time>2026-04-26T10:53:26.584Z</time></trkpt><trkpt lat="44.2715067" lon="11.711235"><ele>70.0</ele><time>2026-04-26T10:53:27.596Z</time></trkpt><trkpt lat="44.2715167" lon="11.7110533"><ele>70.0</ele><time>2026-04-26T10:53:28.579Z</time></trkpt><trkpt lat="44.2715283" lon="11.7108683"><ele>70.0</ele><time>2026-04-26T10:53:29.593Z</time></trkpt><trkpt lat="44.27154" lon="11.7106833"><ele>70.25</ele><time>2026-04-26T10:53:30.588Z</time></trkpt><trkpt lat="44.2715533" lon="11.710495"><ele>70.5</ele><time>2026-04-26T10:53:31.574Z</time></trkpt><trkpt lat="44.271565" lon="11.7103083"><ele>70.75</ele><time>2026-04-26T10:53:32.583Z</time></trkpt><trkpt lat="44.271575" lon="11.7101183"><ele>71.0</ele><time>2026-04-26T10:53:33.63Z</time></trkpt><trkpt lat="44.2715883" lon="11.7099267"><ele>71.5</ele><time>2026-04-26T10:53:34.57Z</time></trkpt><trkpt lat="44.2716017" lon="11.7097417"><ele>72.0</ele><time>2026-04-26T10:53:35.583Z</time></trkpt><trkpt lat="44.2716183" lon="11.709565"><ele>72.5</ele><time>2026-04-26T10:53:36.577Z</time></trkpt><trkpt lat="44.2716333" lon="11.7094"><ele>73.0</ele><time>2026-04-26T10:53:37.582Z</time></trkpt><trkpt lat="44.2716467" lon="11.70925"><ele>73.16666666666666</ele><time>2026-04-26T10:53:38.588Z</time></trkpt><trkpt lat="44.2716633" lon="11.7091117"><ele>73.33333333333333</ele><time>2026-04-26T10:53:39.594Z</time></trkpt><trkpt lat="44.271675" lon="11.7089917"><ele>73.5</ele><time>2026-04-26T10:53:40.576Z</time></trkpt><trkpt lat="44.27168" lon="11.7088917"><ele>73.66666666666667</ele><time>2026-04-26T10:53:41.578Z</time></trkpt><trkpt lat="44.2716617" lon="11.7087633"><ele>73.83333333333334</ele><time>2026-04-26T10:53:43.588Z</time></trkpt><trkpt lat="44.2716" lon="11.70873"><ele>74.0</ele><time>2026-04-26T10:53:58.576Z</time></trkpt><trkpt lat="44.271495" lon="11.7087083"><ele>74.0</ele><time>2026-04-26T10:54:00.581Z</time></trkpt><trkpt lat="44.2713667" lon="11.7086783"><ele>74.0</ele><time>2026-04-26T10:54:02.589Z</time></trkpt><trkpt lat="44.27129" lon="11.7086633"><ele>74.0</ele><time>2026-04-26T10:54:03.586Z</time></trkpt><trkpt lat="44.27121" lon="11.70865"><ele>74.0</ele><time>2026-04-26T10:54:04.579Z</time></trkpt><trkpt lat="44.2711317" lon="11.70865"><ele>74.0</ele><time>2026-04-26T10:54:05.58Z</time></trkpt><trkpt lat="44.27105" lon="11.708655"><ele>74.0</ele><time>2026-04-26T10:54:06.592Z</time></trkpt><trkpt lat="44.27097" lon="11.7086567"><ele>74.0</ele><time>2026-04-26T10:54:07.578Z</time></trkpt><trkpt lat="44.2708867" lon="11.70867"><ele>74.0</ele><time>2026-04-26T10:54:08.593Z</time></trkpt><trkpt lat="44.2708017" lon="11.7086883"><ele>74.0</ele><time>2026-04-26T10:54:09.581Z</time></trkpt><trkpt lat="44.2707183" lon="11.708715"><ele>74.0</ele><time>2026-04-26T10:54:10.588Z</time></trkpt><trkpt lat="44.2706367" lon="11.7087433"><ele>74.0</ele><time>2026-04-26T10:54:11.593Z</time></trkpt><trkpt lat="44.27056" lon="11.7087733"><ele>74.0</ele><time>2026-04-26T10:54:12.582Z</time></trkpt><trkpt lat="44.2704867" lon="11.7088"><ele>74.42857142857143</ele><time>2026-04-26T10:54:13.592Z</time></trkpt><trkpt lat="44.270415" lon="11.7088283"><ele>74.85714285714286</ele><time>2026-04-26T10:54:14.581Z</time></trkpt><trkpt lat="44.2703467" lon="11.7088633"><ele>75.28571428571428</ele><time>2026-04-26T10:54:15.602Z</time></trkpt><trkpt lat="44.2702817" lon="11.7088967"><ele>75.71428571428572</ele><time>2026-04-26T10:54:16.58Z</time></trkpt><trkpt lat="44.2702183" lon="11.7089233"><ele>76.14285714285714</ele><time>2026-04-26T10:54:17.57Z</time></trkpt><trkpt lat="44.2701533" lon="11.7089433"><ele>76.57142857142857</ele><time>2026-04-26T10:54:18.568Z</time></trkpt><trkpt lat="44.2700883" lon="11.7089583"><ele>77.0</ele><time>2026-04-26T10:54:19.577Z</time></trkpt><trkpt lat="44.27002" lon="11.7089683"><ele>77.0</ele><time>2026-04-26T10:54:20.58Z</time></trkpt><trkpt lat="44.269945" lon="11.708975"><ele>77.0</ele><time>2026-04-26T10:54:21.596Z</time></trkpt><trkpt lat="44.26987" lon="11.708985"><ele>77.0</ele><time>2026-04-26T10:54:22.587Z</time></trkpt><trkpt lat="44.2697933" lon="11.70899"><ele>77.0</ele><time>2026-04-26T10:54:23.581Z</time></trkpt><trkpt lat="44.2697117" lon="11.7089917"><ele>77.0</ele><time>2026-04-26T10:54:24.577Z</time></trkpt><trkpt lat="44.2696233" lon="11.70899"><ele>77.0</ele><time>2026-04-26T10:54:25.575Z</time></trkpt><trkpt lat="44.2695367" lon="11.7089783"><ele>79.8</ele><time>2026-04-26T10:54:26.589Z</time></trkpt><trkpt lat="44.26945" lon="11.70896"><ele>82.6</ele><time>2026-04-26T10:54:27.577Z</time></trkpt><trkpt lat="44.269365" lon="11.7089367"><ele>85.39999999999999</ele><time>2026-04-26T10:54:28.583Z</time></trkpt><trkpt lat="44.26927" lon="11.7089017"><ele>88.2</ele><time>2026-04-26T10:54:29.581Z</time></trkpt><trkpt lat="44.2691767" lon="11.7088683"><ele>91.0</ele><time>2026-04-26T10:54:30.59Z</time></trkpt><trkpt lat="44.2690917" lon="11.7088333"><ele>91.0</ele><time>2026-04-26T10:54:31.581Z</time></trkpt><trkpt lat="44.269015" lon="11.7087933"><ele>91.0</ele><time>2026-04-26T10:54:32.571Z</time></trkpt><trkpt lat="44.26895" lon="11.7087583"><ele>91.0</ele><time>2026-04-26T10:54:33.564Z</time></trkpt><trkpt lat="44.268845" lon="11.7087"><ele>91.0</ele><time>2026-04-26T10:54:35.59Z</time></trkpt><trkpt lat="44.2687817" lon="11.7086867"><ele>91.0</ele><time>2026-04-26T10:54:37.584Z</time></trkpt><trkpt lat="44.26874" lon="11.708605"><ele>91.0</ele><time>2026-04-26T10:54:55.575Z</time></trkpt><trkpt lat="44.2686633" lon="11.708485"><ele>90.0</ele><time>2026-04-26T10:54:57.582Z</time></trkpt><trkpt lat="44.26859" lon="11.70835"><ele>89.0</ele><time>2026-04-26T10:54:59.587Z</time></trkpt><trkpt lat="44.2685417" lon="11.708285"><ele>88.0</ele><time>2026-04-26T10:55:00.58Z</time></trkpt><trkpt lat="44.2684967" lon="11.7082167"><ele>87.0</ele><time>2026-04-26T10:55:01.585Z</time></trkpt><trkpt lat="44.2684467" lon="11.70814"><ele>86.0</ele><time>2026-04-26T10:55:02.582Z</time></trkpt><trkpt lat="44.2683933" lon="11.70806"><ele>85.0</ele><time>2026-04-26T10:55:03.572Z</time></trkpt><trkpt lat="44.2683483" lon="11.707985"><ele>85.0</ele><time>2026-04-26T10:55:04.584Z</time></trkpt><trkpt lat="44.2682933" lon="11.70791"><ele>85.0</ele><time>2026-04-26T10:55:05.577Z</time></trkpt><trkpt lat="44.2682367" lon="11.7078317"><ele>85.0</ele><time>2026-04-26T10:55:06.579Z</time></trkpt><trkpt lat="44.26818" lon="11.707745"><ele>85.0</ele><time>2026-04-26T10:55:07.586Z</time></trkpt><trkpt lat="44.2681233" lon="11.7076567"><ele>85.0</ele><time>2026-04-26T10:55:08.589Z</time></trkpt><trkpt lat="44.2680617" lon="11.7075667"><ele>85.0</ele><time>2026-04-26T10:55:09.59Z</time></trkpt><trkpt lat="44.268005" lon="11.7074783"><ele>84.33333333333333</ele><time>2026-04-26T10:55:10.587Z</time></trkpt><trkpt lat="44.2679483" lon="11.7073917"><ele>83.66666666666666</ele><time>2026-04-26T10:55:11.565Z</time></trkpt><trkpt lat="44.26789" lon="11.7072983"><ele>83.0</ele><time>2026-04-26T10:55:12.589Z</time></trkpt><trkpt lat="44.2678283" lon="11.7072033"><ele>82.33333333333333</ele><time>2026-04-26T10:55:13.581Z</time></trkpt><trkpt lat="44.2677667" lon="11.7071083"><ele>81.66666666666667</ele><time>2026-04-26T10:55:14.584Z</time></trkpt><trkpt lat="44.2677067" lon="11.7070167"><ele>81.0</ele><time>2026-04-26T10:55:15.585Z</time></trkpt><trkpt lat="44.26765" lon="11.7069267"><ele>80.83333333333333</ele><time>2026-04-26T10:55:16.583Z</time></trkpt><trkpt lat="44.2675933" lon="11.7068367"><ele>80.66666666666667</ele><time>2026-04-26T10:55:17.581Z</time></trkpt><trkpt lat="44.26753" lon="11.7067417"><ele>80.5</ele><time>2026-04-26T10:55:18.575Z</time></trkpt><trkpt lat="44.2674717" lon="11.7066433"><ele>80.33333333333334</ele><time>2026-04-26T10:55:19.584Z</time></trkpt><trkpt lat="44.267415" lon="11.7065433"><ele>80.16666666666667</ele><time>2026-04-26T10:55:20.597Z</time></trkpt><trkpt lat="44.267365" lon="11.70645"><ele>80.0</ele><time>2026-04-26T10:55:21.577Z</time></trkpt><trkpt lat="44.267325" lon="11.7063683"><ele>80.0</ele><time>2026-04-26T10:55:22.591Z</time></trkpt><trkpt lat="44.2672783" lon="11.7062483"><ele>80.0</ele><time>2026-04-26T10:55:24.592Z</time></trkpt><trkpt lat="44.2672383" lon="11.706125"><ele>80.0</ele><time>2026-04-26T10:55:27.583Z</time></trkpt><trkpt lat="44.2672" lon="11.7059917"><ele>80.0</ele><time>2026-04-26T10:55:29.582Z</time></trkpt><trkpt lat="44.2671533" lon="11.7058283"><ele>80.0</ele><time>2026-04-26T10:55:31.576Z</time></trkpt><trkpt lat="44.26713" lon="11.705735"><ele>81.5</ele><time>2026-04-26T10:55:32.587Z</time></trkpt><trkpt lat="44.26711" lon="11.705635"><ele>83.0</ele><time>2026-04-26T10:55:33.584Z</time></trkpt><trkpt lat="44.26709" lon="11.70553"><ele>84.5</ele><time>2026-04-26T10:55:34.587Z</time></trkpt><trkpt lat="44.26707" lon="11.7054217"><ele>86.0</ele><time>2026-04-26T10:55:35.575Z</time></trkpt><trkpt lat="44.2670517" lon="11.7053067"><ele>87.5</ele><time>2026-04-26T10:55:36.589Z</time></trkpt><trkpt lat="44.2670383" lon="11.705185"><ele>89.0</ele><time>2026-04-26T10:55:37.576Z</time></trkpt><trkpt lat="44.2670317" lon="11.705065"><ele>90.33333333333334</ele><time>2026-04-26T10:55:38.572Z</time></trkpt><trkpt lat="44.2670367" lon="11.7049467"><ele>91.66666666666667</ele><time>2026-04-26T10:55:39.582Z</time></trkpt><trkpt lat="44.26705" lon="11.7048383"><ele>93.0</ele><time>2026-04-26T10:55:40.573Z</time></trkpt><trkpt lat="44.2670817" lon="11.704735"><ele>94.33333333333334</ele><time>2026-04-26T10:55:41.611Z</time></trkpt><trkpt lat="44.2671217" lon="11.7046383"><ele>95.66666666666667</ele><time>2026-04-26T10:55:42.596Z</time></trkpt><trkpt lat="44.26717" lon="11.70455"><ele>97.0</ele><time>2026-04-26T10:55:43.587Z</time></trkpt><trkpt lat="44.26723" lon="11.704465"><ele>93.39999999999999</ele><time>2026-04-26T10:55:44.577Z</time></trkpt><trkpt lat="44.2673067" lon="11.7043933"><ele>89.8</ele><time>2026-04-26T10:55:45.582Z</time></trkpt><trkpt lat="44.2673933" lon="11.7043417"><ele>86.2</ele><time>2026-04-26T10:55:46.582Z</time></trkpt><trkpt lat="44.2674817" lon="11.7043117"><ele>82.6</ele><time>2026-04-26T10:55:47.58Z</time></trkpt><trkpt lat="44.2675717" lon="11.7042833"><ele>79.0</ele><time>2026-04-26T10:55:48.583Z</time></trkpt><trkpt lat="44.2676617" lon="11.7042583"><ele>79.0</ele><time>2026-04-26T10:55:49.574Z</time></trkpt><trkpt lat="44.2677517" lon="11.7042333"><ele>79.0</ele><time>2026-04-26T10:55:50.584Z</time></trkpt><trkpt lat="44.2678417" lon="11.7042067"><ele>79.0</ele><time>2026-04-26T10:55:51.586Z</time></trkpt><trkpt lat="44.2679317" lon="11.70418"><ele>79.0</ele><time>2026-04-26T10:55:52.589Z</time></trkpt><trkpt lat="44.2680183" lon="11.70415"><ele>79.0</ele><time>2026-04-26T10:55:53.585Z</time></trkpt><trkpt lat="44.2681083" lon="11.7041183"><ele>78.2</ele><time>2026-04-26T10:55:54.592Z</time></trkpt><trkpt lat="44.2681933" lon="11.7040883"><ele>77.4</ele><time>2026-04-26T10:55:55.576Z</time></trkpt><trkpt lat="44.2682817" lon="11.7040533"><ele>76.6</ele><time>2026-04-26T10:55:56.58Z</time></trkpt><trkpt lat="44.2683717" lon="11.7040083"><ele>75.8</ele><time>2026-04-26T10:55:57.58Z</time></trkpt><trkpt lat="44.2684617" lon="11.7039567"><ele>75.0</ele><time>2026-04-26T10:55:58.578Z</time></trkpt><trkpt lat="44.268545" lon="11.7039"><ele>75.0</ele><time>2026-04-26T10:55:59.574Z</time></trkpt><trkpt lat="44.2686267" lon="11.7038383"><ele>75.0</ele><time>2026-04-26T10:56:00.575Z</time></trkpt><trkpt lat="44.268715" lon="11.7037633"><ele>75.0</ele><time>2026-04-26T10:56:01.582Z</time></trkpt><trkpt lat="44.2687933" lon="11.7036867"><ele>75.0</ele><time>2026-04-26T10:56:02.578Z</time></trkpt><trkpt lat="44.2688733" lon="11.7036017"><ele>75.0</ele><time>2026-04-26T10:56:03.582Z</time></trkpt><trkpt lat="44.2689517" lon="11.70351"><ele>75.2</ele><time>2026-04-26T10:56:04.581Z</time></trkpt><trkpt lat="44.2690283" lon="11.703415"><ele>75.4</ele><time>2026-04-26T10:56:05.577Z</time></trkpt><trkpt lat="44.2691" lon="11.7033233"><ele>75.6</ele><time>2026-04-26T10:56:06.588Z</time></trkpt><trkpt lat="44.2691717" lon="11.7032317"><ele>75.8</ele><time>2026-04-26T10:56:07.582Z</time></trkpt><trkpt lat="44.26924" lon="11.7031367"><ele>76.0</ele><time>2026-04-26T10:56:08.576Z</time></trkpt><trkpt lat="44.26931" lon="11.7030383"><ele>76.0</ele><time>2026-04-26T10:56:09.587Z</time></trkpt><trkpt lat="44.26938" lon="11.7029417"><ele>76.0</ele><time>2026-04-26T10:56:10.586Z</time></trkpt><trkpt lat="44.26945" lon="11.7028467"><ele>76.0</ele><time>2026-04-26T10:56:11.59Z</time></trkpt><trkpt lat="44.2695167" lon="11.7027433"><ele>76.0</ele><time>2026-04-26T10:56:12.577Z</time></trkpt><trkpt lat="44.26958" lon="11.7026383"><ele>76.0</ele><time>2026-04-26T10:56:13.584Z</time></trkpt><trkpt lat="44.2696417" lon="11.702525"><ele>76.0</ele><time>2026-04-26T10:56:14.587Z</time></trkpt><trkpt lat="44.2697" lon="11.7024117"><ele>76.0</ele><time>2026-04-26T10:56:15.574Z</time></trkpt><trkpt lat="44.2697533" lon="11.7022933"><ele>76.0</ele><time>2026-04-26T10:56:16.596Z</time></trkpt><trkpt lat="44.2697983" lon="11.7021683"><ele>76.0</ele><time>2026-04-26T10:56:17.575Z</time></trkpt><trkpt lat="44.2698317" lon="11.7020333"><ele>76.0</ele><time>2026-04-26T10:56:18.581Z</time></trkpt><trkpt lat="44.269855" lon="11.701895"><ele>76.39999999999999</ele><time>2026-04-26T10:56:19.592Z</time></trkpt><trkpt lat="44.269865" lon="11.7017517"><ele>76.8</ele><time>2026-04-26T10:56:20.578Z</time></trkpt><trkpt lat="44.269865" lon="11.7016067"><ele>77.19999999999999</ele><time>2026-04-26T10:56:21.583Z</time></trkpt><trkpt lat="44.2698517" lon="11.7014617"><ele>77.6</ele><time>2026-04-26T10:56:22.582Z</time></trkpt><trkpt lat="44.2698233" lon="11.7013217"><ele>78.0</ele><time>2026-04-26T10:56:23.581Z</time></trkpt><trkpt lat="44.2697817" lon="11.7011867"><ele>78.0</ele><time>2026-04-26T10:56:24.577Z</time></trkpt><trkpt lat="44.26973" lon="11.7010567"><ele>78.0</ele><time>2026-04-26T10:56:25.576Z</time></trkpt><trkpt lat="44.2696733" lon="11.7009333"><ele>78.0</ele><time>2026-04-26T10:56:26.586Z</time></trkpt><trkpt lat="44.2696133" lon="11.70081"><ele>78.0</ele><time>2026-04-26T10:56:27.585Z</time></trkpt><trkpt lat="44.2695533" lon="11.7006867"><ele>78.0</ele><time>2026-04-26T10:56:28.59Z</time></trkpt><trkpt lat="44.2694917" lon="11.700565"><ele>78.0</ele><time>2026-04-26T10:56:29.58Z</time></trkpt><trkpt lat="44.2694317" lon="11.7004417"><ele>78.0</ele><time>2026-04-26T10:56:30.578Z</time></trkpt><trkpt lat="44.26937" lon="11.7003217"><ele>78.0</ele><time>2026-04-26T10:56:31.582Z</time></trkpt><trkpt lat="44.2693067" lon="11.7002033"><ele>78.0</ele><time>2026-04-26T10:56:32.593Z</time></trkpt><trkpt lat="44.269245" lon="11.7000817"><ele>78.0</ele><time>2026-04-26T10:56:33.578Z</time></trkpt><trkpt lat="44.2691833" lon="11.699965"><ele>78.2</ele><time>2026-04-26T10:56:34.584Z</time></trkpt><trkpt lat="44.26912" lon="11.699845"><ele>78.4</ele><time>2026-04-26T10:56:35.582Z</time></trkpt><trkpt lat="44.2690533" lon="11.699725"><ele>78.60000000000001</ele><time>2026-04-26T10:56:36.592Z</time></trkpt><trkpt lat="44.268985" lon="11.6996083"><ele>78.8</ele><time>2026-04-26T10:56:37.565Z</time></trkpt><trkpt lat="44.2689167" lon="11.6994933"><ele>79.0</ele><time>2026-04-26T10:56:38.571Z</time></trkpt><trkpt lat="44.2688467" lon="11.6993767"><ele>79.4</ele><time>2026-04-26T10:56:39.584Z</time></trkpt><trkpt lat="44.2687783" lon="11.6992633"><ele>79.80000000000001</ele><time>2026-04-26T10:56:40.573Z</time></trkpt><trkpt lat="44.2687083" lon="11.69915"><ele>80.19999999999999</ele><time>2026-04-26T10:56:41.594Z</time></trkpt><trkpt lat="44.2686367" lon="11.6990383"><ele>80.6</ele><time>2026-04-26T10:56:42.578Z</time></trkpt><trkpt lat="44.2685617" lon="11.698925"><ele>81.0</ele><time>2026-04-26T10:56:43.58Z</time></trkpt><trkpt lat="44.268485" lon="11.6988117"><ele>81.0</ele><time>2026-04-26T10:56:44.581Z</time></trkpt><trkpt lat="44.2684067" lon="11.6987017"><ele>81.0</ele><time>2026-04-26T10:56:45.581Z</time></trkpt><trkpt lat="44.2683283" lon="11.6985917"><ele>81.0</ele><time>2026-04-26T10:56:46.574Z</time></trkpt><trkpt lat="44.268245" lon="11.698485"><ele>81.0</ele><time>2026-04-26T10:56:47.58Z</time></trkpt><trkpt lat="44.26816" lon="11.698385"><ele>81.0</ele><time>2026-04-26T10:56:48.583Z</time></trkpt><trkpt lat="44.268075" lon="11.698295"><ele>80.6</ele><time>2026-04-26T10:56:49.585Z</time></trkpt><trkpt lat="44.26799" lon="11.6982133"><ele>80.19999999999999</ele><time>2026-04-26T10:56:50.59Z</time></trkpt><trkpt lat="44.2679067" lon="11.6981383"><ele>79.80000000000001</ele><time>2026-04-26T10:56:51.569Z</time></trkpt><trkpt lat="44.2678267" lon="11.69807"><ele>79.4</ele><time>2026-04-26T10:56:52.581Z</time></trkpt><trkpt lat="44.26775" lon="11.6980083"><ele>79.0</ele><time>2026-04-26T10:56:53.568Z</time></trkpt><trkpt lat="44.26768" lon="11.6979533"><ele>79.00000000000001</ele><time>2026-04-26T10:56:54.589Z</time></trkpt><trkpt lat="44.2676117" lon="11.6979083"><ele>79.0</ele><time>2026-04-26T10:56:55.582Z</time></trkpt><trkpt lat="44.2675467" lon="11.6978717"><ele>79.0</ele><time>2026-04-26T10:56:56.574Z</time></trkpt><trkpt lat="44.2674883" lon="11.697835"><ele>79.0</ele><time>2026-04-26T10:56:57.58Z</time></trkpt><trkpt lat="44.26743" lon="11.6977983"><ele>79.0</ele><time>2026-04-26T10:56:58.571Z</time></trkpt><trkpt lat="44.26737" lon="11.69776"><ele>79.00000000000001</ele><time>2026-04-26T10:56:59.576Z</time></trkpt><trkpt lat="44.26731" lon="11.6977167"><ele>79.0</ele><time>2026-04-26T10:57:00.577Z</time></trkpt><trkpt lat="44.2672467" lon="11.6976767"><ele>79.28571428571429</ele><time>2026-04-26T10:57:01.595Z</time></trkpt><trkpt lat="44.267185" lon="11.6976383"><ele>79.57142857142857</ele><time>2026-04-26T10:57:02.573Z</time></trkpt><trkpt lat="44.2671233" lon="11.6975983"><ele>79.85714285714286</ele><time>2026-04-26T10:57:03.583Z</time></trkpt><trkpt lat="44.267065" lon="11.6975583"><ele>80.14285714285714</ele><time>2026-04-26T10:57:04.576Z</time></trkpt><trkpt lat="44.2670033" lon="11.6975133"><ele>80.42857142857143</ele><time>2026-04-26T10:57:05.573Z</time></trkpt><trkpt lat="44.266935" lon="11.6974717"><ele>80.71428571428572</ele><time>2026-04-26T10:57:06.591Z</time></trkpt><trkpt lat="44.26686" lon="11.6974383"><ele>81.0</ele><time>2026-04-26T10:57:07.578Z</time></trkpt><trkpt lat="44.2667783" lon="11.6974033"><ele>81.0</ele><time>2026-04-26T10:57:08.566Z</time></trkpt><trkpt lat="44.2666983" lon="11.697365"><ele>81.0</ele><time>2026-04-26T10:57:09.576Z</time></trkpt><trkpt lat="44.2666183" lon="11.69732"><ele>81.0</ele><time>2026-04-26T10:57:10.577Z</time></trkpt><trkpt lat="44.26654" lon="11.69727"><ele>81.0</ele><time>2026-04-26T10:57:11.571Z</time></trkpt><trkpt lat="44.26646" lon="11.6972183"><ele>81.0</ele><time>2026-04-26T10:57:12.584Z</time></trkpt><trkpt lat="44.2663783" lon="11.6971667"><ele>81.0</ele><time>2026-04-26T10:57:13.572Z</time></trkpt><trkpt lat="44.266295" lon="11.697115"><ele>81.0</ele><time>2026-04-26T10:57:14.586Z</time></trkpt><trkpt lat="44.2662133" lon="11.6970617"><ele>81.0</ele><time>2026-04-26T10:57:15.578Z</time></trkpt><trkpt lat="44.2661317" lon="11.6970033"><ele>81.0</ele><time>2026-04-26T10:57:16.581Z</time></trkpt><trkpt lat="44.2660517" lon="11.696945"><ele>81.0</ele><time>2026-04-26T10:57:17.585Z</time></trkpt><trkpt lat="44.2659717" lon="11.6968817"><ele>81.0</ele><time>2026-04-26T10:57:18.587Z</time></trkpt><trkpt lat="44.26589" lon="11.6968183"><ele>81.0</ele><time>2026-04-26T10:57:19.577Z</time></trkpt><trkpt lat="44.26581" lon="11.6967583"><ele>81.0</ele><time>2026-04-26T10:57:20.583Z</time></trkpt><trkpt lat="44.2657333" lon="11.6967017"><ele>81.0</ele><time>2026-04-26T10:57:21.582Z</time></trkpt><trkpt lat="44.26566" lon="11.696655"><ele>81.0</ele><time>2026-04-26T10:57:22.576Z</time></trkpt><trkpt lat="44.2655917" lon="11.696615"><ele>81.0</ele><time>2026-04-26T10:57:23.574Z</time></trkpt><trkpt lat="44.2655283" lon="11.6965833"><ele>81.0</ele><time>2026-04-26T10:57:24.581Z</time></trkpt><trkpt lat="44.265425" lon="11.69653"><ele>83.0</ele><time>2026-04-26T10:57:26.575Z</time></trkpt><trkpt lat="44.265315" lon="11.6964667"><ele>85.0</ele><time>2026-04-26T10:57:28.58Z</time></trkpt><trkpt lat="44.2652533" lon="11.6964333"><ele>87.0</ele><time>2026-04-26T10:57:29.575Z</time></trkpt><trkpt lat="44.2651867" lon="11.696395"><ele>89.0</ele><time>2026-04-26T10:57:30.584Z</time></trkpt><trkpt lat="44.265115" lon="11.6963533"><ele>91.0</ele><time>2026-04-26T10:57:31.585Z</time></trkpt><trkpt lat="44.265045" lon="11.6963"><ele>93.0</ele><time>2026-04-26T10:57:32.581Z</time></trkpt><trkpt lat="44.2649717" lon="11.6962467"><ele>93.0</ele><time>2026-04-26T10:57:33.579Z</time></trkpt><trkpt lat="44.2648933" lon="11.696195"><ele>93.0</ele><time>2026-04-26T10:57:34.58Z</time></trkpt><trkpt lat="44.26481" lon="11.6961417"><ele>93.0</ele><time>2026-04-26T10:57:35.584Z</time></trkpt><trkpt lat="44.2647267" lon="11.696085"><ele>93.0</ele><time>2026-04-26T10:57:36.581Z</time></trkpt><trkpt lat="44.2646383" lon="11.6960183"><ele>93.0</ele><time>2026-04-26T10:57:37.568Z</time></trkpt><trkpt lat="44.26455" lon="11.695955"><ele>93.60000000000001</ele><time>2026-04-26T10:57:38.573Z</time></trkpt><trkpt lat="44.2644617" lon="11.6958883"><ele>94.2</ele><time>2026-04-26T10:57:39.577Z</time></trkpt><trkpt lat="44.26437" lon="11.6958233"><ele>94.8</ele><time>2026-04-26T10:57:40.579Z</time></trkpt><trkpt lat="44.2642767" lon="11.69577"><ele>95.4</ele><time>2026-04-26T10:57:41.604Z</time></trkpt><trkpt lat="44.2641867" lon="11.6957167"><ele>96.0</ele><time>2026-04-26T10:57:42.578Z</time></trkpt><trkpt lat="44.2641033" lon="11.6956617"><ele>96.0</ele><time>2026-04-26T10:57:43.587Z</time></trkpt><trkpt lat="44.2640283" lon="11.6956067"><ele>96.0</ele><time>2026-04-26T10:57:44.58Z</time></trkpt><trkpt lat="44.263955" lon="11.695545"><ele>96.0</ele><time>2026-04-26T10:57:45.575Z</time></trkpt><trkpt lat="44.263885" lon="11.695475"><ele>96.0</ele><time>2026-04-26T10:57:46.584Z</time></trkpt><trkpt lat="44.2638217" lon="11.6953883"><ele>96.0</ele><time>2026-04-26T10:57:47.579Z</time></trkpt><trkpt lat="44.2637633" lon="11.6952917"><ele>96.0</ele><time>2026-04-26T10:57:48.582Z</time></trkpt><trkpt lat="44.2637067" lon="11.695185"><ele>97.6</ele><time>2026-04-26T10:57:49.589Z</time></trkpt><trkpt lat="44.2636567" lon="11.695065"><ele>99.19999999999999</ele><time>2026-04-26T10:57:50.58Z</time></trkpt><trkpt lat="44.2636133" lon="11.6949383"><ele>100.80000000000001</ele><time>2026-04-26T10:57:51.593Z</time></trkpt><trkpt lat="44.26357" lon="11.6948167"><ele>102.4</ele><time>2026-04-26T10:57:52.568Z</time></trkpt><trkpt lat="44.2635267" lon="11.6947067"><ele>104.0</ele><time>2026-04-26T10:57:53.57Z</time></trkpt><trkpt lat="44.2634833" lon="11.6946133"><ele>103.99999999999999</ele><time>2026-04-26T10:57:54.573Z</time></trkpt><trkpt lat="44.2634433" lon="11.6945317"><ele>104.0</ele><time>2026-04-26T10:57:55.586Z</time></trkpt><trkpt lat="44.263385" lon="11.6944167"><ele>104.0</ele><time>2026-04-26T10:57:57.58Z</time></trkpt><trkpt lat="44.263335" lon="11.694335"><ele>104.0</ele><time>2026-04-26T10:58:00.58Z</time></trkpt><trkpt lat="44.2633617" lon="11.694255"><ele>103.99999999999999</ele><time>2026-04-26T10:58:07.576Z</time></trkpt><trkpt lat="44.263435" lon="11.694205"><ele>104.0</ele><time>2026-04-26T10:58:09.58Z</time></trkpt><trkpt lat="44.263535" lon="11.694275"><ele>102.0</ele><time>2026-04-26T10:58:11.574Z</time></trkpt><trkpt lat="44.2635983" lon="11.6943283"><ele>100.0</ele><time>2026-04-26T10:58:12.584Z</time></trkpt><trkpt lat="44.263665" lon="11.694365"><ele>98.0</ele><time>2026-04-26T10:58:13.584Z</time></trkpt><trkpt lat="44.263735" lon="11.6943783"><ele>96.0</ele><time>2026-04-26T10:58:14.584Z</time></trkpt><trkpt lat="44.2638" lon="11.69437"><ele>94.0</ele><time>2026-04-26T10:58:15.58Z</time></trkpt><trkpt lat="44.2638633" lon="11.6943417"><ele>92.0</ele><time>2026-04-26T10:58:16.585Z</time></trkpt><trkpt lat="44.26392" lon="11.694295"><ele>90.0</ele><time>2026-04-26T10:58:17.583Z</time></trkpt><trkpt lat="44.263975" lon="11.694235"><ele>89.14285714285714</ele><time>2026-04-26T10:58:18.581Z</time></trkpt><trkpt lat="44.2640283" lon="11.6941733"><ele>88.28571428571429</ele><time>2026-04-26T10:58:19.578Z</time></trkpt><trkpt lat="44.2640817" lon="11.6941117"><ele>87.42857142857143</ele><time>2026-04-26T10:58:20.579Z</time></trkpt><trkpt lat="44.2641367" lon="11.6940517"><ele>86.57142857142857</ele><time>2026-04-26T10:58:21.58Z</time></trkpt><trkpt lat="44.2641917" lon="11.6939917"><ele>85.71428571428572</ele><time>2026-04-26T10:58:22.581Z</time></trkpt><trkpt lat="44.2642483" lon="11.6939317"><ele>84.85714285714286</ele><time>2026-04-26T10:58:23.577Z</time></trkpt><trkpt lat="44.2643067" lon="11.6938733"><ele>84.0</ele><time>2026-04-26T10:58:24.583Z</time></trkpt><trkpt lat="44.2643633" lon="11.6938117"><ele>84.0</ele><time>2026-04-26T10:58:25.569Z</time></trkpt><trkpt lat="44.2644183" lon="11.6937417"><ele>84.0</ele><time>2026-04-26T10:58:26.579Z</time></trkpt><trkpt lat="44.2644717" lon="11.69367"><ele>84.0</ele><time>2026-04-26T10:58:27.588Z</time></trkpt><trkpt lat="44.2645233" lon="11.6935933"><ele>84.0</ele><time>2026-04-26T10:58:28.579Z</time></trkpt><trkpt lat="44.2645733" lon="11.6935183"><ele>84.0</ele><time>2026-04-26T10:58:29.583Z</time></trkpt><trkpt lat="44.2646233" lon="11.69344"><ele>84.0</ele><time>2026-04-26T10:58:30.583Z</time></trkpt><trkpt lat="44.26467" lon="11.6933567"><ele>84.0</ele><time>2026-04-26T10:58:31.578Z</time></trkpt><trkpt lat="44.2647133" lon="11.6932667"><ele>84.0</ele><time>2026-04-26T10:58:32.573Z</time></trkpt><trkpt lat="44.2647533" lon="11.6931683"><ele>84.0</ele><time>2026-04-26T10:58:33.577Z</time></trkpt><trkpt lat="44.2647967" lon="11.693065"><ele>84.0</ele><time>2026-04-26T10:58:34.58Z</time></trkpt><trkpt lat="44.26484" lon="11.6929617"><ele>84.0</ele><time>2026-04-26T10:58:35.582Z</time></trkpt><trkpt lat="44.264885" lon="11.6928567"><ele>84.0</ele><time>2026-04-26T10:58:36.576Z</time></trkpt><trkpt lat="44.26493" lon="11.6927467"><ele>84.0</ele><time>2026-04-26T10:58:37.582Z</time></trkpt><trkpt lat="44.2649767" lon="11.6926333"><ele>84.0</ele><time>2026-04-26T10:58:38.581Z</time></trkpt><trkpt lat="44.2650233" lon="11.69252"><ele>84.0</ele><time>2026-04-26T10:58:39.59Z</time></trkpt><trkpt lat="44.2650717" lon="11.6924033"><ele>84.0</ele><time>2026-04-26T10:58:40.587Z</time></trkpt><trkpt lat="44.2651217" lon="11.6922833"><ele>84.0</ele><time>2026-04-26T10:58:41.584Z</time></trkpt><trkpt lat="44.2651733" lon="11.6921617"><ele>84.0</ele><time>2026-04-26T10:58:42.583Z</time></trkpt><trkpt lat="44.2652233" lon="11.6920367"><ele>85.6</ele><time>2026-04-26T10:58:43.579Z</time></trkpt><trkpt lat="44.2652783" lon="11.6919133"><ele>87.2</ele><time>2026-04-26T10:58:44.581Z</time></trkpt><trkpt lat="44.2653333" lon="11.69179"><ele>88.8</ele><time>2026-04-26T10:58:45.576Z</time></trkpt><trkpt lat="44.2653883" lon="11.6916617"><ele>90.39999999999999</ele><time>2026-04-26T10:58:46.581Z</time></trkpt><trkpt lat="44.2654433" lon="11.6915333"><ele>92.0</ele><time>2026-04-26T10:58:47.598Z</time></trkpt><trkpt lat="44.2655" lon="11.691405"><ele>92.0</ele><time>2026-04-26T10:58:48.581Z</time></trkpt><trkpt lat="44.2655533" lon="11.6912767"><ele>92.0</ele><time>2026-04-26T10:58:49.577Z</time></trkpt><trkpt lat="44.265605" lon="11.6911483"><ele>92.0</ele><time>2026-04-26T10:58:50.601Z</time></trkpt><trkpt lat="44.2656517" lon="11.6910167"><ele>92.0</ele><time>2026-04-26T10:58:51.575Z</time></trkpt><trkpt lat="44.2656933" lon="11.6908833"><ele>92.0</ele><time>2026-04-26T10:58:52.576Z</time></trkpt><trkpt lat="44.2657317" lon="11.690745"><ele>91.33333333333334</ele><time>2026-04-26T10:58:53.58Z</time></trkpt><trkpt lat="44.265765" lon="11.69061"><ele>90.66666666666667</ele><time>2026-04-26T10:58:54.577Z</time></trkpt><trkpt lat="44.2657917" lon="11.69049"><ele>90.0</ele><time>2026-04-26T10:58:55.592Z</time></trkpt><trkpt lat="44.2658083" lon="11.6903933"><ele>89.33333333333333</ele><time>2026-04-26T10:58:56.582Z</time></trkpt><trkpt lat="44.2658317" lon="11.6902617"><ele>88.66666666666666</ele><time>2026-04-26T10:58:58.592Z</time></trkpt><trkpt lat="44.2658883" lon="11.6901917"><ele>88.0</ele><time>2026-04-26T10:59:02.588Z</time></trkpt><trkpt lat="44.2659717" lon="11.6902767"><ele>87.83333333333333</ele><time>2026-04-26T10:59:05.585Z</time></trkpt><trkpt lat="44.266055" lon="11.690405"><ele>87.66666666666666</ele><time>2026-04-26T10:59:07.592Z</time></trkpt><trkpt lat="44.266105" lon="11.6904667"><ele>87.5</ele><time>2026-04-26T10:59:08.577Z</time></trkpt><trkpt lat="44.2661633" lon="11.6905217"><ele>87.33333333333333</ele><time>2026-04-26T10:59:09.576Z</time></trkpt><trkpt lat="44.26623" lon="11.690565"><ele>87.16666666666667</ele><time>2026-04-26T10:59:10.566Z</time></trkpt><trkpt lat="44.266305" lon="11.6906"><ele>87.0</ele><time>2026-04-26T10:59:11.571Z</time></trkpt><trkpt lat="44.2663867" lon="11.6906333"><ele>86.33333333333333</ele><time>2026-04-26T10:59:12.578Z</time></trkpt><trkpt lat="44.26647" lon="11.6906667"><ele>85.66666666666667</ele><time>2026-04-26T10:59:13.582Z</time></trkpt><trkpt lat="44.2665567" lon="11.6907033"><ele>85.0</ele><time>2026-04-26T10:59:14.58Z</time></trkpt><trkpt lat="44.26664" lon="11.6907417"><ele>84.33333333333334</ele><time>2026-04-26T10:59:15.584Z</time></trkpt><trkpt lat="44.2667183" lon="11.6907733"><ele>83.66666666666667</ele><time>2026-04-26T10:59:16.581Z</time></trkpt><trkpt lat="44.26679" lon="11.6908017"><ele>83.0</ele><time>2026-04-26T10:59:17.593Z</time></trkpt><trkpt lat="44.266855" lon="11.6908217"><ele>83.0</ele><time>2026-04-26T10:59:18.581Z</time></trkpt><trkpt lat="44.2669567" lon="11.6907867"><ele>83.0</ele><time>2026-04-26T10:59:20.579Z</time></trkpt><trkpt lat="44.2669883" lon="11.6906533"><ele>83.0</ele><time>2026-04-26T10:59:22.577Z</time></trkpt><trkpt lat="44.2669917" lon="11.690565"><ele>83.0</ele><time>2026-04-26T10:59:23.58Z</time></trkpt><trkpt lat="44.267" lon="11.6904667"><ele>83.0</ele><time>2026-04-26T10:59:24.587Z</time></trkpt><trkpt lat="44.26701" lon="11.69036"><ele>83.0</ele><time>2026-04-26T10:59:25.574Z</time></trkpt><trkpt lat="44.2670217" lon="11.6902483"><ele>83.16666666666667</ele><time>2026-04-26T10:59:26.578Z</time></trkpt><trkpt lat="44.2670367" lon="11.6901367"><ele>83.33333333333334</ele><time>2026-04-26T10:59:27.579Z</time></trkpt><trkpt lat="44.2670533" lon="11.690025"><ele>83.5</ele><time>2026-04-26T10:59:28.561Z</time></trkpt><trkpt lat="44.2670683" lon="11.6899133"><ele>83.66666666666667</ele><time>2026-04-26T10:59:29.579Z</time></trkpt><trkpt lat="44.2670833" lon="11.6898017"><ele>83.83333333333333</ele><time>2026-04-26T10:59:30.566Z</time></trkpt><trkpt lat="44.2671017" lon="11.6896933"><ele>84.0</ele><time>2026-04-26T10:59:31.58Z</time></trkpt><trkpt lat="44.2671167" lon="11.6895883"><ele>84.0</ele><time>2026-04-26T10:59:32.58Z</time></trkpt><trkpt lat="44.26713" lon="11.6894833"><ele>84.0</ele><time>2026-04-26T10:59:33.581Z</time></trkpt><trkpt lat="44.2671433" lon="11.6893767"><ele>84.0</ele><time>2026-04-26T10:59:34.574Z</time></trkpt><trkpt lat="44.2671567" lon="11.6892717"><ele>84.0</ele><time>2026-04-26T10:59:35.572Z</time></trkpt><trkpt lat="44.2671683" lon="11.689175"><ele>84.0</ele><time>2026-04-26T10:59:36.581Z</time></trkpt><trkpt lat="44.2671817" lon="11.689085"><ele>84.0</ele><time>2026-04-26T10:59:37.575Z</time></trkpt><trkpt lat="44.2672033" lon="11.6889983"><ele>84.0</ele><time>2026-04-26T10:59:38.582Z</time></trkpt><trkpt lat="44.2672333" lon="11.688915"><ele>84.0</ele><time>2026-04-26T10:59:39.589Z</time></trkpt><trkpt lat="44.26727" lon="11.688835"><ele>84.0</ele><time>2026-04-26T10:59:40.586Z</time></trkpt><trkpt lat="44.26731" lon="11.688755"><ele>84.0</ele><time>2026-04-26T10:59:41.58Z</time></trkpt><trkpt lat="44.2673433" lon="11.68867"><ele>84.0</ele><time>2026-04-26T10:59:42.6Z</time></trkpt><trkpt lat="44.267365" lon="11.688575"><ele>84.0</ele><time>2026-04-26T10:59:43.587Z</time></trkpt><trkpt lat="44.26737" lon="11.6884683"><ele>84.0</ele><time>2026-04-26T10:59:44.575Z</time></trkpt><trkpt lat="44.26737" lon="11.6883567"><ele>84.0</ele><time>2026-04-26T10:59:45.573Z</time></trkpt><trkpt lat="44.26737" lon="11.6882483"><ele>84.33333333333333</ele><time>2026-04-26T10:59:46.595Z</time></trkpt><trkpt lat="44.2673667" lon="11.6881417"><ele>84.66666666666667</ele><time>2026-04-26T10:59:47.588Z</time></trkpt><trkpt lat="44.2673617" lon="11.6880333"><ele>85.0</ele><time>2026-04-26T10:59:48.587Z</time></trkpt><trkpt lat="44.267355" lon="11.6879317"><ele>85.33333333333334</ele><time>2026-04-26T10:59:49.572Z</time></trkpt><trkpt lat="44.267345" lon="11.6878317"><ele>85.66666666666667</ele><time>2026-04-26T10:59:50.578Z</time></trkpt><trkpt lat="44.2673283" lon="11.6877417"><ele>86.0</ele><time>2026-04-26T10:59:51.566Z</time></trkpt><trkpt lat="44.26726" lon="11.687615"><ele>86.0</ele><time>2026-04-26T10:59:53.575Z</time></trkpt><trkpt lat="44.2671233" lon="11.68762"><ele>86.0</ele><time>2026-04-26T10:59:55.582Z</time></trkpt><trkpt lat="44.2670367" lon="11.6876467"><ele>86.0</ele><time>2026-04-26T10:59:56.587Z</time></trkpt><trkpt lat="44.2669483" lon="11.687665"><ele>86.0</ele><time>2026-04-26T10:59:57.583Z</time></trkpt><trkpt lat="44.2668567" lon="11.687685"><ele>86.0</ele><time>2026-04-26T10:59:58.575Z</time></trkpt><trkpt lat="44.2667633" lon="11.68771"><ele>86.0</ele><time>2026-04-26T10:59:59.571Z</time></trkpt><trkpt lat="44.2666733" lon="11.68774"><ele>86.0</ele><time>2026-04-26T11:00:00.584Z</time></trkpt><trkpt lat="44.2665883" lon="11.6877683"><ele>86.0</ele><time>2026-04-26T11:00:01.572Z</time></trkpt><trkpt lat="44.2665" lon="11.6877967"><ele>86.0</ele><time>2026-04-26T11:00:02.579Z</time></trkpt><trkpt lat="44.2664133" lon="11.6878183"><ele>86.0</ele><time>2026-04-26T11:00:03.579Z</time></trkpt><trkpt lat="44.2663217" lon="11.687835"><ele>87.0</ele><time>2026-04-26T11:00:04.577Z</time></trkpt><trkpt lat="44.2662317" lon="11.6878483"><ele>88.0</ele><time>2026-04-26T11:00:05.578Z</time></trkpt><trkpt lat="44.2661433" lon="11.6878617"><ele>89.0</ele><time>2026-04-26T11:00:06.585Z</time></trkpt><trkpt lat="44.266055" lon="11.6878683"><ele>90.0</ele><time>2026-04-26T11:00:07.58Z</time></trkpt><trkpt lat="44.2659667" lon="11.68787"><ele>91.0</ele><time>2026-04-26T11:00:08.581Z</time></trkpt><trkpt lat="44.2658767" lon="11.6878633"><ele>92.0</ele><time>2026-04-26T11:00:09.59Z</time></trkpt><trkpt lat="44.2657867" lon="11.687855"><ele>92.0</ele><time>2026-04-26T11:00:10.577Z</time></trkpt><trkpt lat="44.2656967" lon="11.6878433"><ele>92.0</ele><time>2026-04-26T11:00:11.579Z</time></trkpt><trkpt lat="44.2656067" lon="11.6878317"><ele>92.0</ele><time>2026-04-26T11:00:12.576Z</time></trkpt><trkpt lat="44.2655133" lon="11.6878217"><ele>92.0</ele><time>2026-04-26T11:00:13.564Z</time></trkpt><trkpt lat="44.2654217" lon="11.6878083"><ele>92.0</ele><time>2026-04-26T11:00:14.566Z</time></trkpt><trkpt lat="44.2653317" lon="11.687795"><ele>91.83333333333334</ele><time>2026-04-26T11:00:15.574Z</time></trkpt><trkpt lat="44.265245" lon="11.6877833"><ele>91.66666666666667</ele><time>2026-04-26T11:00:16.582Z</time></trkpt><trkpt lat="44.2651583" lon="11.6877683"><ele>91.5</ele><time>2026-04-26T11:00:17.582Z</time></trkpt><trkpt lat="44.265075" lon="11.6877483"><ele>91.33333333333333</ele><time>2026-04-26T11:00:18.579Z</time></trkpt><trkpt lat="44.2649917" lon="11.6877267"><ele>91.16666666666666</ele><time>2026-04-26T11:00:19.578Z</time></trkpt><trkpt lat="44.2649067" lon="11.6877133"><ele>91.0</ele><time>2026-04-26T11:00:20.573Z</time></trkpt><trkpt lat="44.2648217" lon="11.6876983"><ele>91.83333333333333</ele><time>2026-04-26T11:00:21.581Z</time></trkpt><trkpt lat="44.26474" lon="11.6876867"><ele>92.66666666666666</ele><time>2026-04-26T11:00:22.581Z</time></trkpt><trkpt lat="44.2646567" lon="11.6876717"><ele>93.5</ele><time>2026-04-26T11:00:23.574Z</time></trkpt><trkpt lat="44.2645733" lon="11.6876533"><ele>94.33333333333333</ele><time>2026-04-26T11:00:24.59Z</time></trkpt><trkpt lat="44.2644983" lon="11.68763"><ele>95.16666666666667</ele><time>2026-04-26T11:00:25.574Z</time></trkpt><trkpt lat="44.26443" lon="11.6876017"><ele>96.0</ele><time>2026-04-26T11:00:26.582Z</time></trkpt><trkpt lat="44.2643567" lon="11.6875683"><ele>96.0</ele><time>2026-04-26T11:00:27.587Z</time></trkpt><trkpt lat="44.26428" lon="11.687525"><ele>96.0</ele><time>2026-04-26T11:00:28.577Z</time></trkpt><trkpt lat="44.2642" lon="11.6874717"><ele>96.0</ele><time>2026-04-26T11:00:29.577Z</time></trkpt><trkpt lat="44.2641233" lon="11.6874033"><ele>96.0</ele><time>2026-04-26T11:00:30.579Z</time></trkpt><trkpt lat="44.2640467" lon="11.6873233"><ele>96.0</ele><time>2026-04-26T11:00:31.585Z</time></trkpt><trkpt lat="44.2639767" lon="11.6872367"><ele>96.6</ele><time>2026-04-26T11:00:32.575Z</time></trkpt><trkpt lat="44.2639067" lon="11.687145"><ele>97.19999999999999</ele><time>2026-04-26T11:00:33.581Z</time></trkpt><trkpt lat="44.26384" lon="11.6870517"><ele>97.80000000000001</ele><time>2026-04-26T11:00:34.58Z</time></trkpt><trkpt lat="44.2637817" lon="11.686955"><ele>98.4</ele><time>2026-04-26T11:00:35.575Z</time></trkpt><trkpt lat="44.2637267" lon="11.6868567"><ele>99.0</ele><time>2026-04-26T11:00:36.584Z</time></trkpt><trkpt lat="44.2636767" lon="11.6867583"><ele>99.0</ele><time>2026-04-26T11:00:37.578Z</time></trkpt><trkpt lat="44.2636267" lon="11.6866567"><ele>99.0</ele><time>2026-04-26T11:00:38.574Z</time></trkpt><trkpt lat="44.2635767" lon="11.6865567"><ele>99.0</ele><time>2026-04-26T11:00:39.586Z</time></trkpt><trkpt lat="44.2635267" lon="11.686465"><ele>99.0</ele><time>2026-04-26T11:00:40.581Z</time></trkpt><trkpt lat="44.2634817" lon="11.6863733"><ele>99.0</ele><time>2026-04-26T11:00:41.586Z</time></trkpt><trkpt lat="44.2634383" lon="11.68628"><ele>99.0</ele><time>2026-04-26T11:00:42.574Z</time></trkpt><trkpt lat="44.263395" lon="11.686185"><ele>98.33333333333333</ele><time>2026-04-26T11:00:43.584Z</time></trkpt><trkpt lat="44.2633533" lon="11.6860917"><ele>97.66666666666667</ele><time>2026-04-26T11:00:44.582Z</time></trkpt><trkpt lat="44.263315" lon="11.6859933"><ele>97.0</ele><time>2026-04-26T11:00:45.575Z</time></trkpt><trkpt lat="44.2632767" lon="11.6858933"><ele>96.33333333333334</ele><time>2026-04-26T11:00:46.583Z</time></trkpt><trkpt lat="44.2632433" lon="11.6857833"><ele>95.66666666666667</ele><time>2026-04-26T11:00:47.581Z</time></trkpt><trkpt lat="44.26321" lon="11.6856683"><ele>95.0</ele><time>2026-04-26T11:00:48.578Z</time></trkpt><trkpt lat="44.2631783" lon="11.68555"><ele>95.0</ele><time>2026-04-26T11:00:49.577Z</time></trkpt><trkpt lat="44.2631483" lon="11.6854233"><ele>95.0</ele><time>2026-04-26T11:00:50.578Z</time></trkpt><trkpt lat="44.2631183" lon="11.6852933"><ele>95.0</ele><time>2026-04-26T11:00:51.636Z</time></trkpt><trkpt lat="44.2630933" lon="11.6851617"><ele>95.0</ele><time>2026-04-26T11:00:52.575Z</time></trkpt><trkpt lat="44.263065" lon="11.68502"><ele>95.0</ele><time>2026-04-26T11:00:53.585Z</time></trkpt><trkpt lat="44.2630417" lon="11.6848717"><ele>97.2</ele><time>2026-04-26T11:00:54.587Z</time></trkpt><trkpt lat="44.2630183" lon="11.68472"><ele>99.4</ele><time>2026-04-26T11:00:55.569Z</time></trkpt><trkpt lat="44.262995" lon="11.6845683"><ele>101.6</ele><time>2026-04-26T11:00:56.572Z</time></trkpt><trkpt lat="44.2629683" lon="11.6844183"><ele>103.8</ele><time>2026-04-26T11:00:57.581Z</time></trkpt><trkpt lat="44.2629433" lon="11.6842717"><ele>106.0</ele><time>2026-04-26T11:00:58.578Z</time></trkpt><trkpt lat="44.2629167" lon="11.684125"><ele>106.0</ele><time>2026-04-26T11:00:59.586Z</time></trkpt><trkpt lat="44.2628867" lon="11.6839783"><ele>106.0</ele><time>2026-04-26T11:01:00.584Z</time></trkpt><trkpt lat="44.26286" lon="11.6838317"><ele>106.0</ele><time>2026-04-26T11:01:01.587Z</time></trkpt><trkpt lat="44.2628333" lon="11.6836817"><ele>106.0</ele><time>2026-04-26T11:01:02.585Z</time></trkpt><trkpt lat="44.2628083" lon="11.6835333"><ele>106.0</ele><time>2026-04-26T11:01:03.574Z</time></trkpt><trkpt lat="44.26278" lon="11.683385"><ele>105.4</ele><time>2026-04-26T11:01:04.579Z</time></trkpt><trkpt lat="44.2627517" lon="11.6832383"><ele>104.8</ele><time>2026-04-26T11:01:05.573Z</time></trkpt><trkpt lat="44.2627233" lon="11.6830933"><ele>104.2</ele><time>2026-04-26T11:01:06.572Z</time></trkpt><trkpt lat="44.26269" lon="11.682945"><ele>103.60000000000001</ele><time>2026-04-26T11:01:07.573Z</time></trkpt><trkpt lat="44.2626517" lon="11.6828033"><ele>103.0</ele><time>2026-04-26T11:01:08.571Z</time></trkpt><trkpt lat="44.2626083" lon="11.6826667"><ele>102.2</ele><time>2026-04-26T11:01:09.58Z</time></trkpt><trkpt lat="44.26257" lon="11.682535"><ele>101.4</ele><time>2026-04-26T11:01:10.57Z</time></trkpt><trkpt lat="44.2625383" lon="11.6824033"><ele>100.60000000000001</ele><time>2026-04-26T11:01:11.581Z</time></trkpt><trkpt lat="44.26251" lon="11.6822733"><ele>99.80000000000001</ele><time>2026-04-26T11:01:12.573Z</time></trkpt><trkpt lat="44.2624767" lon="11.682145"><ele>99.0</ele><time>2026-04-26T11:01:13.582Z</time></trkpt><trkpt lat="44.2624383" lon="11.6820233"><ele>97.80000000000001</ele><time>2026-04-26T11:01:14.579Z</time></trkpt><trkpt lat="44.2623933" lon="11.681905"><ele>96.60000000000001</ele><time>2026-04-26T11:01:15.583Z</time></trkpt><trkpt lat="44.2623417" lon="11.681795"><ele>95.4</ele><time>2026-04-26T11:01:16.578Z</time></trkpt><trkpt lat="44.2622817" lon="11.6816883"><ele>94.2</ele><time>2026-04-26T11:01:17.578Z</time></trkpt><trkpt lat="44.2622117" lon="11.6815917"><ele>93.0</ele><time>2026-04-26T11:01:18.579Z</time></trkpt><trkpt lat="44.2621367" lon="11.6815017"><ele>94.33333333333333</ele><time>2026-04-26T11:01:19.579Z</time></trkpt><trkpt lat="44.26206" lon="11.6814167"><ele>95.66666666666666</ele><time>2026-04-26T11:01:20.583Z</time></trkpt><trkpt lat="44.2619833" lon="11.6813333"><ele>97.0</ele><time>2026-04-26T11:01:21.573Z</time></trkpt><trkpt lat="44.26191" lon="11.6812567"><ele>98.33333333333333</ele><time>2026-04-26T11:01:22.581Z</time></trkpt><trkpt lat="44.2618367" lon="11.6812"><ele>99.66666666666666</ele><time>2026-04-26T11:01:23.574Z</time></trkpt><trkpt lat="44.2617717" lon="11.6811583"><ele>101.0</ele><time>2026-04-26T11:01:24.587Z</time></trkpt><trkpt lat="44.2616833" lon="11.6810833"><ele>101.0</ele><time>2026-04-26T11:01:26.593Z</time></trkpt><trkpt lat="44.2616333" lon="11.6810017"><ele>101.0</ele><time>2026-04-26T11:01:29.579Z</time></trkpt><trkpt lat="44.261705" lon="11.6809217"><ele>101.0</ele><time>2026-04-26T11:01:32.589Z</time></trkpt><trkpt lat="44.26182" lon="11.6808483"><ele>101.0</ele><time>2026-04-26T11:01:34.581Z</time></trkpt><trkpt lat="44.2618883" lon="11.6807983"><ele>101.0</ele><time>2026-04-26T11:01:35.586Z</time></trkpt><trkpt lat="44.26196" lon="11.68074"><ele>101.0</ele><time>2026-04-26T11:01:36.576Z</time></trkpt><trkpt lat="44.2620333" lon="11.6806733"><ele>101.0</ele><time>2026-04-26T11:01:37.575Z</time></trkpt><trkpt lat="44.2621083" lon="11.6805933"><ele>101.0</ele><time>2026-04-26T11:01:38.583Z</time></trkpt><trkpt lat="44.2621867" lon="11.6805067"><ele>101.0</ele><time>2026-04-26T11:01:39.572Z</time></trkpt><trkpt lat="44.2622667" lon="11.6804183"><ele>101.0</ele><time>2026-04-26T11:01:40.588Z</time></trkpt><trkpt lat="44.2623483" lon="11.680325"><ele>100.6</ele><time>2026-04-26T11:01:41.569Z</time></trkpt><trkpt lat="44.26243" lon="11.6802317"><ele>100.19999999999999</ele><time>2026-04-26T11:01:42.58Z</time></trkpt><trkpt lat="44.2625133" lon="11.6801367"><ele>99.80000000000001</ele><time>2026-04-26T11:01:43.573Z</time></trkpt><trkpt lat="44.262595" lon="11.6800467"><ele>99.4</ele><time>2026-04-26T11:01:44.584Z</time></trkpt><trkpt lat="44.26268" lon="11.679955"><ele>99.0</ele><time>2026-04-26T11:01:45.585Z</time></trkpt><trkpt lat="44.26276" lon="11.67987"><ele>99.0</ele><time>2026-04-26T11:01:46.578Z</time></trkpt><trkpt lat="44.2628367" lon="11.6797817"><ele>99.0</ele><time>2026-04-26T11:01:47.573Z</time></trkpt><trkpt lat="44.2629083" lon="11.6796967"><ele>99.0</ele><time>2026-04-26T11:01:48.586Z</time></trkpt><trkpt lat="44.26298" lon="11.6796133"><ele>99.0</ele><time>2026-04-26T11:01:49.58Z</time></trkpt><trkpt lat="44.2630483" lon="11.6795317"><ele>99.0</ele><time>2026-04-26T11:01:50.579Z</time></trkpt><trkpt lat="44.2631133" lon="11.6794567"><ele>98.5</ele><time>2026-04-26T11:01:51.593Z</time></trkpt><trkpt lat="44.2631683" lon="11.6794"><ele>98.0</ele><time>2026-04-26T11:01:52.576Z</time></trkpt><trkpt lat="44.2632467" lon="11.6793417"><ele>97.5</ele><time>2026-04-26T11:01:54.591Z</time></trkpt><trkpt lat="44.2633183" lon="11.6793067"><ele>97.0</ele><time>2026-04-26T11:01:57.587Z</time></trkpt><trkpt lat="44.2633883" lon="11.67932"><ele>96.5</ele><time>2026-04-26T11:02:01.581Z</time></trkpt><trkpt lat="44.2633233" lon="11.6793067"><ele>96.0</ele><time>2026-04-26T11:02:49.587Z</time></trkpt><trkpt lat="44.2633217" lon="11.6791917"><ele>96.0</ele><time>2026-04-26T11:02:53.579Z</time></trkpt><trkpt lat="44.2633" lon="11.6790583"><ele>96.0</ele><time>2026-04-26T11:02:55.579Z</time></trkpt><trkpt lat="44.2632567" lon="11.6788967"><ele>96.0</ele><time>2026-04-26T11:02:57.571Z</time></trkpt><trkpt lat="44.26323" lon="11.6787967"><ele>96.0</ele><time>2026-04-26T11:02:58.577Z</time></trkpt><trkpt lat="44.2632017" lon="11.6786867"><ele>96.0</ele><time>2026-04-26T11:02:59.58Z</time></trkpt><trkpt lat="44.2631733" lon="11.6785733"><ele>95.4</ele><time>2026-04-26T11:03:00.585Z</time></trkpt><trkpt lat="44.263145" lon="11.67846"><ele>94.8</ele><time>2026-04-26T11:03:01.576Z</time></trkpt><trkpt lat="44.263115" lon="11.67834"><ele>94.2</ele><time>2026-04-26T11:03:02.58Z</time></trkpt><trkpt lat="44.2630833" lon="11.678215"><ele>93.60000000000001</ele><time>2026-04-26T11:03:03.58Z</time></trkpt><trkpt lat="44.2630483" lon="11.678085"><ele>93.0</ele><time>2026-04-26T11:03:04.579Z</time></trkpt><trkpt lat="44.2630133" lon="11.6779533"><ele>93.2</ele><time>2026-04-26T11:03:05.579Z</time></trkpt><trkpt lat="44.2629783" lon="11.67782"><ele>93.4</ele><time>2026-04-26T11:03:06.585Z</time></trkpt><trkpt lat="44.26294" lon="11.6776817"><ele>93.60000000000001</ele><time>2026-04-26T11:03:07.571Z</time></trkpt><trkpt lat="44.2629033" lon="11.6775433"><ele>93.80000000000001</ele><time>2026-04-26T11:03:08.593Z</time></trkpt><trkpt lat="44.2628667" lon="11.6774"><ele>94.0</ele><time>2026-04-26T11:03:09.578Z</time></trkpt><trkpt lat="44.2628283" lon="11.67726"><ele>94.0</ele><time>2026-04-26T11:03:10.581Z</time></trkpt><trkpt lat="44.2627867" lon="11.67712"><ele>94.0</ele><time>2026-04-26T11:03:11.583Z</time></trkpt><trkpt lat="44.2627417" lon="11.67698"><ele>94.0</ele><time>2026-04-26T11:03:12.591Z</time></trkpt><trkpt lat="44.2626917" lon="11.6768433"><ele>94.0</ele><time>2026-04-26T11:03:13.579Z</time></trkpt><trkpt lat="44.262635" lon="11.67671"><ele>94.0</ele><time>2026-04-26T11:03:14.571Z</time></trkpt><trkpt lat="44.2625767" lon="11.676575"><ele>93.75</ele><time>2026-04-26T11:03:15.578Z</time></trkpt><trkpt lat="44.2625167" lon="11.67644"><ele>93.5</ele><time>2026-04-26T11:03:16.577Z</time></trkpt><trkpt lat="44.2624567" lon="11.676305"><ele>93.25</ele><time>2026-04-26T11:03:17.563Z</time></trkpt><trkpt lat="44.2623967" lon="11.67617"><ele>93.0</ele><time>2026-04-26T11:03:18.576Z</time></trkpt><trkpt lat="44.262335" lon="11.6760367"><ele>93.0</ele><time>2026-04-26T11:03:19.59Z</time></trkpt><trkpt lat="44.2622667" lon="11.6759017"><ele>93.0</ele><time>2026-04-26T11:03:20.578Z</time></trkpt><trkpt lat="44.2621983" lon="11.6757683"><ele>93.0</ele><time>2026-04-26T11:03:21.573Z</time></trkpt><trkpt lat="44.26213" lon="11.6756317"><ele>93.0</ele><time>2026-04-26T11:03:22.58Z</time></trkpt><trkpt lat="44.2620617" lon="11.6755"><ele>93.0</ele><time>2026-04-26T11:03:23.578Z</time></trkpt><trkpt lat="44.2619933" lon="11.6753667"><ele>93.0</ele><time>2026-04-26T11:03:24.576Z</time></trkpt><trkpt lat="44.261925" lon="11.6752367"><ele>93.0</ele><time>2026-04-26T11:03:25.572Z</time></trkpt><trkpt lat="44.2618633" lon="11.6751117"><ele>93.0</ele><time>2026-04-26T11:03:26.581Z</time></trkpt><trkpt lat="44.2617867" lon="11.6749883"><ele>93.0</ele><time>2026-04-26T11:03:27.576Z</time></trkpt><trkpt lat="44.261705" lon="11.6748667"><ele>93.0</ele><time>2026-04-26T11:03:28.578Z</time></trkpt><trkpt lat="44.2616183" lon="11.6747533"><ele>93.0</ele><time>2026-04-26T11:03:29.581Z</time></trkpt><trkpt lat="44.2615283" lon="11.674645"><ele>93.0</ele><time>2026-04-26T11:03:30.585Z</time></trkpt><trkpt lat="44.261435" lon="11.6745433"><ele>93.0</ele><time>2026-04-26T11:03:31.57Z</time></trkpt><trkpt lat="44.2613433" lon="11.6744533"><ele>93.0</ele><time>2026-04-26T11:03:32.569Z</time></trkpt><trkpt lat="44.261255" lon="11.674365"><ele>93.0</ele><time>2026-04-26T11:03:33.578Z</time></trkpt><trkpt lat="44.2611667" lon="11.6742783"><ele>93.0</ele><time>2026-04-26T11:03:34.571Z</time></trkpt><trkpt lat="44.2610817" lon="11.674195"><ele>93.0</ele><time>2026-04-26T11:03:35.579Z</time></trkpt><trkpt lat="44.2609967" lon="11.6741167"><ele>93.0</ele><time>2026-04-26T11:03:36.58Z</time></trkpt><trkpt lat="44.2609133" lon="11.674035"><ele>93.0</ele><time>2026-04-26T11:03:37.58Z</time></trkpt><trkpt lat="44.260825" lon="11.67396"><ele>93.0</ele><time>2026-04-26T11:03:38.577Z</time></trkpt><trkpt lat="44.2607383" lon="11.673885"><ele>93.0</ele><time>2026-04-26T11:03:39.58Z</time></trkpt><trkpt lat="44.2606567" lon="11.6738083"><ele>93.0</ele><time>2026-04-26T11:03:40.577Z</time></trkpt><trkpt lat="44.2605817" lon="11.67374"><ele>93.60000000000001</ele><time>2026-04-26T11:03:41.591Z</time></trkpt><trkpt lat="44.26052" lon="11.6736933"><ele>94.2</ele><time>2026-04-26T11:03:42.578Z</time></trkpt><trkpt lat="44.2604517" lon="11.6736667"><ele>94.8</ele><time>2026-04-26T11:03:44.583Z</time></trkpt><trkpt lat="44.2603867" lon="11.6737217"><ele>95.4</ele><time>2026-04-26T11:03:59.576Z</time></trkpt><trkpt lat="44.2602817" lon="11.6737717"><ele>96.0</ele><time>2026-04-26T11:04:01.586Z</time></trkpt><trkpt lat="44.26016" lon="11.6738417"><ele>96.0</ele><time>2026-04-26T11:04:03.58Z</time></trkpt><trkpt lat="44.2600883" lon="11.6738817"><ele>96.0</ele><time>2026-04-26T11:04:04.584Z</time></trkpt><trkpt lat="44.2600183" lon="11.6739183"><ele>96.0</ele><time>2026-04-26T11:04:05.582Z</time></trkpt><trkpt lat="44.2599483" lon="11.6739533"><ele>96.0</ele><time>2026-04-26T11:04:06.574Z</time></trkpt><trkpt lat="44.2598767" lon="11.6739867"><ele>96.0</ele><time>2026-04-26T11:04:07.58Z</time></trkpt><trkpt lat="44.259805" lon="11.67402"><ele>96.0</ele><time>2026-04-26T11:04:08.589Z</time></trkpt><trkpt lat="44.259735" lon="11.674055"><ele>98.83333333333333</ele><time>2026-04-26T11:04:09.577Z</time></trkpt><trkpt lat="44.2596617" lon="11.6740833"><ele>101.66666666666666</ele><time>2026-04-26T11:04:10.581Z</time></trkpt><trkpt lat="44.25959" lon="11.6741033"><ele>104.5</ele><time>2026-04-26T11:04:11.576Z</time></trkpt><trkpt lat="44.2595217" lon="11.6741117"><ele>107.33333333333333</ele><time>2026-04-26T11:04:12.582Z</time></trkpt><trkpt lat="44.25945" lon="11.6741117"><ele>110.16666666666666</ele><time>2026-04-26T11:04:13.575Z</time></trkpt><trkpt lat="44.2593767" lon="11.6740983"><ele>113.0</ele><time>2026-04-26T11:04:14.581Z</time></trkpt><trkpt lat="44.2592583" lon="11.67406"><ele>112.99999999999999</ele><time>2026-04-26T11:04:16.574Z</time></trkpt><trkpt lat="44.2591517" lon="11.6741"><ele>113.0</ele><time>2026-04-26T11:04:18.581Z</time></trkpt><trkpt lat="44.2590933" lon="11.67416"><ele>113.0</ele><time>2026-04-26T11:04:19.58Z</time></trkpt><trkpt lat="44.2590317" lon="11.674235"><ele>113.0</ele><time>2026-04-26T11:04:20.578Z</time></trkpt><trkpt lat="44.2589683" lon="11.6743133"><ele>112.99999999999999</ele><time>2026-04-26T11:04:21.582Z</time></trkpt><trkpt lat="44.2589017" lon="11.6743917"><ele>113.0</ele><time>2026-04-26T11:04:22.589Z</time></trkpt><trkpt lat="44.258835" lon="11.6744633"><ele>116.99999999999999</ele><time>2026-04-26T11:04:23.57Z</time></trkpt><trkpt lat="44.2587717" lon="11.6745267"><ele>121.0</ele><time>2026-04-26T11:04:24.584Z</time></trkpt><trkpt lat="44.2587183" lon="11.6745733"><ele>125.0</ele><time>2026-04-26T11:04:25.576Z</time></trkpt><trkpt lat="44.2586317" lon="11.6746033"><ele>129.0</ele><time>2026-04-26T11:04:27.583Z</time></trkpt><trkpt lat="44.2586" lon="11.6745"><ele>133.0</ele><time>2026-04-26T11:04:29.579Z</time></trkpt><trkpt lat="44.2586233" lon="11.6744033"><ele>137.0</ele><time>2026-04-26T11:04:30.583Z</time></trkpt><trkpt lat="44.2586583" lon="11.67429"><ele>138.0</ele><time>2026-04-26T11:04:31.581Z</time></trkpt><trkpt lat="44.25869" lon="11.6741717"><ele>139.0</ele><time>2026-04-26T11:04:32.586Z</time></trkpt><trkpt lat="44.258715" lon="11.6740517"><ele>140.0</ele><time>2026-04-26T11:04:33.574Z</time></trkpt><trkpt lat="44.2587333" lon="11.673935"><ele>141.0</ele><time>2026-04-26T11:04:34.569Z</time></trkpt><trkpt lat="44.2587517" lon="11.6738167"><ele>142.0</ele><time>2026-04-26T11:04:35.581Z</time></trkpt><trkpt lat="44.2587717" lon="11.6736983"><ele>143.0</ele><time>2026-04-26T11:04:36.578Z</time></trkpt><trkpt lat="44.25879" lon="11.67359"><ele>143.0</ele><time>2026-04-26T11:04:37.582Z</time></trkpt><trkpt lat="44.258805" lon="11.6735"><ele>143.0</ele><time>2026-04-26T11:04:38.578Z</time></trkpt><trkpt lat="44.2588067" lon="11.6733867"><ele>143.0</ele><time>2026-04-26T11:04:40.579Z</time></trkpt><trkpt lat="44.258715" lon="11.673515"><ele>143.0</ele><time>2026-04-26T11:04:43.587Z</time></trkpt><trkpt lat="44.2586583" lon="11.6736017"><ele>143.0</ele><time>2026-04-26T11:04:44.575Z</time></trkpt><trkpt lat="44.2585967" lon="11.6736817"><ele>143.0</ele><time>2026-04-26T11:04:45.587Z</time></trkpt><trkpt lat="44.2585333" lon="11.6737617"><ele>143.0</ele><time>2026-04-26T11:04:46.582Z</time></trkpt><trkpt lat="44.2584683" lon="11.6738417"><ele>143.0</ele><time>2026-04-26T11:04:47.574Z</time></trkpt><trkpt lat="44.258405" lon="11.6739233"><ele>143.0</ele><time>2026-04-26T11:04:48.569Z</time></trkpt><trkpt lat="44.2583433" lon="11.6740067"><ele>143.0</ele><time>2026-04-26T11:04:49.582Z</time></trkpt><trkpt lat="44.2582833" lon="11.674095"><ele>143.0</ele><time>2026-04-26T11:04:50.577Z</time></trkpt><trkpt lat="44.25823" lon="11.6741767"><ele>143.0</ele><time>2026-04-26T11:04:51.577Z</time></trkpt><trkpt lat="44.2581883" lon="11.6742467"><ele>145.99999999999997</ele><time>2026-04-26T11:04:52.595Z</time></trkpt><trkpt lat="44.2581083" lon="11.67432"><ele>149.0</ele><time>2026-04-26T11:04:54.578Z</time></trkpt><trkpt lat="44.2580667" lon="11.67424"><ele>152.0</ele><time>2026-04-26T11:04:56.575Z</time></trkpt><trkpt lat="44.2580667" lon="11.6741517"><ele>155.0</ele><time>2026-04-26T11:04:57.572Z</time></trkpt><trkpt lat="44.2580733" lon="11.67405"><ele>158.0</ele><time>2026-04-26T11:04:58.575Z</time></trkpt><trkpt lat="44.2580783" lon="11.6739467"><ele>160.99999999999997</ele><time>2026-04-26T11:04:59.582Z</time></trkpt><trkpt lat="44.2580733" lon="11.6738483"><ele>164.0</ele><time>2026-04-26T11:05:00.576Z</time></trkpt><trkpt lat="44.258055" lon="11.67376"><ele>164.0</ele><time>2026-04-26T11:05:01.574Z</time></trkpt><trkpt lat="44.2580167" lon="11.6736767"><ele>164.0</ele><time>2026-04-26T11:05:02.582Z</time></trkpt><trkpt lat="44.2579717" lon="11.673605"><ele>164.0</ele><time>2026-04-26T11:05:03.571Z</time></trkpt><trkpt lat="44.25792" lon="11.6735467"><ele>164.0</ele><time>2026-04-26T11:05:04.579Z</time></trkpt><trkpt lat="44.25783" lon="11.67345"><ele>164.0</ele><time>2026-04-26T11:05:06.582Z</time></trkpt><trkpt lat="44.25776" lon="11.673455"><ele>164.0</ele><time>2026-04-26T11:05:08.578Z</time></trkpt><trkpt lat="44.2576667" lon="11.6735867"><ele>163.99999999999997</ele><time>2026-04-26T11:05:10.58Z</time></trkpt><trkpt lat="44.2576183" lon="11.67367"><ele>164.0</ele><time>2026-04-26T11:05:11.58Z</time></trkpt><trkpt lat="44.25757" lon="11.6737583"><ele>164.0</ele><time>2026-04-26T11:05:12.588Z</time></trkpt><trkpt lat="44.25753" lon="11.6738483"><ele>164.0</ele><time>2026-04-26T11:05:13.578Z</time></trkpt><trkpt lat="44.2574917" lon="11.6739367"><ele>164.0</ele><time>2026-04-26T11:05:14.578Z</time></trkpt><trkpt lat="44.2574517" lon="11.6740133"><ele>163.99999999999997</ele><time>2026-04-26T11:05:15.578Z</time></trkpt><trkpt lat="44.2574067" lon="11.67408"><ele>164.0</ele><time>2026-04-26T11:05:16.58Z</time></trkpt><trkpt lat="44.25735" lon="11.6741333"><ele>164.0</ele><time>2026-04-26T11:05:17.581Z</time></trkpt><trkpt lat="44.2572917" lon="11.6741733"><ele>164.0</ele><time>2026-04-26T11:05:18.581Z</time></trkpt><trkpt lat="44.2571683" lon="11.67421"><ele>164.0</ele><time>2026-04-26T11:05:20.58Z</time></trkpt><trkpt lat="44.2570467" lon="11.6742383"><ele>164.0</ele><time>2026-04-26T11:05:22.583Z</time></trkpt><trkpt lat="44.2569867" lon="11.674265"><ele>164.0</ele><time>2026-04-26T11:05:23.578Z</time></trkpt><trkpt lat="44.2569283" lon="11.67431"><ele>164.0</ele><time>2026-04-26T11:05:24.577Z</time></trkpt><trkpt lat="44.2568783" lon="11.674375"><ele>167.16666666666666</ele><time>2026-04-26T11:05:25.579Z</time></trkpt><trkpt lat="44.2568417" lon="11.67446"><ele>170.33333333333331</ele><time>2026-04-26T11:05:26.587Z</time></trkpt><trkpt lat="44.2568133" lon="11.6745583"><ele>173.5</ele><time>2026-04-26T11:05:27.58Z</time></trkpt><trkpt lat="44.2567833" lon="11.67466"><ele>176.66666666666666</ele><time>2026-04-26T11:05:28.58Z</time></trkpt><trkpt lat="44.2567517" lon="11.67476"><ele>179.83333333333334</ele><time>2026-04-26T11:05:29.577Z</time></trkpt><trkpt lat="44.2567117" lon="11.6748583"><ele>183.0</ele><time>2026-04-26T11:05:30.582Z</time></trkpt><trkpt lat="44.256665" lon="11.67495"><ele>183.0</ele><time>2026-04-26T11:05:31.575Z</time></trkpt><trkpt lat="44.2566167" lon="11.6750367"><ele>183.0</ele><time>2026-04-26T11:05:32.576Z</time></trkpt><trkpt lat="44.2565617" lon="11.6751133"><ele>183.0</ele><time>2026-04-26T11:05:33.564Z</time></trkpt><trkpt lat="44.2565017" lon="11.6751833"><ele>183.0</ele><time>2026-04-26T11:05:34.574Z</time></trkpt><trkpt lat="44.2564433" lon="11.6752483"><ele>183.0</ele><time>2026-04-26T11:05:35.584Z</time></trkpt><trkpt lat="44.2563833" lon="11.6753083"><ele>183.0</ele><time>2026-04-26T11:05:36.581Z</time></trkpt><trkpt lat="44.2563267" lon="11.6753683"><ele>186.0</ele><time>2026-04-26T11:05:37.57Z</time></trkpt><trkpt lat="44.25627" lon="11.6754283"><ele>189.0</ele><time>2026-04-26T11:05:38.583Z</time></trkpt><trkpt lat="44.25621" lon="11.675485"><ele>192.0</ele><time>2026-04-26T11:05:39.58Z</time></trkpt><trkpt lat="44.2561533" lon="11.6755417"><ele>195.0</ele><time>2026-04-26T11:05:40.587Z</time></trkpt><trkpt lat="44.2560967" lon="11.6756067"><ele>198.0</ele><time>2026-04-26T11:05:41.568Z</time></trkpt><trkpt lat="44.2560417" lon="11.6756683"><ele>201.0</ele><time>2026-04-26T11:05:42.584Z</time></trkpt><trkpt lat="44.2559883" lon="11.675735"><ele>204.0</ele><time>2026-04-26T11:05:43.575Z</time></trkpt><trkpt lat="44.255935" lon="11.6758017"><ele>204.0</ele><time>2026-04-26T11:05:44.577Z</time></trkpt><trkpt lat="44.2558817" lon="11.6758667"><ele>204.0</ele><time>2026-04-26T11:05:45.586Z</time></trkpt><trkpt lat="44.2558283" lon="11.6759333"><ele>204.0</ele><time>2026-04-26T11:05:46.573Z</time></trkpt><trkpt lat="44.25578" lon="11.676"><ele>204.0</ele><time>2026-04-26T11:05:47.58Z</time></trkpt><trkpt lat="44.25573" lon="11.6760633"><ele>204.0</ele><time>2026-04-26T11:05:48.577Z</time></trkpt><trkpt lat="44.255635" lon="11.67618"><ele>204.0</ele><time>2026-04-26T11:05:50.578Z</time></trkpt><trkpt lat="44.255585" lon="11.6762367"><ele>206.57142857142858</ele><time>2026-04-26T11:05:51.587Z</time></trkpt><trkpt lat="44.255525" lon="11.67629"><ele>209.14285714285717</ele><time>2026-04-26T11:05:52.573Z</time></trkpt><trkpt lat="44.25547" lon="11.6763467"><ele>211.71428571428572</ele><time>2026-04-26T11:05:53.572Z</time></trkpt><trkpt lat="44.2554183" lon="11.6764"><ele>214.28571428571428</ele><time>2026-04-26T11:05:54.583Z</time></trkpt><trkpt lat="44.2553633" lon="11.6764567"><ele>216.85714285714286</ele><time>2026-04-26T11:05:55.582Z</time></trkpt><trkpt lat="44.255305" lon="11.6765133"><ele>219.42857142857142</ele><time>2026-04-26T11:05:56.578Z</time></trkpt><trkpt lat="44.255245" lon="11.676565"><ele>222.0</ele><time>2026-04-26T11:05:57.582Z</time></trkpt><trkpt lat="44.2551783" lon="11.6766233"><ele>222.0</ele><time>2026-04-26T11:05:58.573Z</time></trkpt><trkpt lat="44.2551133" lon="11.676675"><ele>222.0</ele><time>2026-04-26T11:05:59.586Z</time></trkpt><trkpt lat="44.2550483" lon="11.6767283"><ele>222.0</ele><time>2026-04-26T11:06:00.579Z</time></trkpt><trkpt lat="44.25499" lon="11.67678"><ele>222.0</ele><time>2026-04-26T11:06:01.588Z</time></trkpt><trkpt lat="44.25493" lon="11.6768333"><ele>222.0</ele><time>2026-04-26T11:06:02.586Z</time></trkpt><trkpt lat="44.2548717" lon="11.6768883"><ele>222.0</ele><time>2026-04-26T11:06:03.578Z</time></trkpt><trkpt lat="44.25481" lon="11.6769467"><ele>222.0</ele><time>2026-04-26T11:06:04.576Z</time></trkpt><trkpt lat="44.2547517" lon="11.6770133"><ele>224.0</ele><time>2026-04-26T11:06:05.569Z</time></trkpt><trkpt lat="44.254695" lon="11.67709"><ele>226.0</ele><time>2026-04-26T11:06:06.571Z</time></trkpt><trkpt lat="44.254645" lon="11.677175"><ele>228.0</ele><time>2026-04-26T11:06:07.584Z</time></trkpt><trkpt lat="44.2545983" lon="11.6772633"><ele>230.0</ele><time>2026-04-26T11:06:08.583Z</time></trkpt><trkpt lat="44.2545467" lon="11.6773533"><ele>232.0</ele><time>2026-04-26T11:06:09.574Z</time></trkpt><trkpt lat="44.2544917" lon="11.6774417"><ele>234.0</ele><time>2026-04-26T11:06:10.571Z</time></trkpt><trkpt lat="44.2544333" lon="11.677525"><ele>234.0</ele><time>2026-04-26T11:06:11.577Z</time></trkpt><trkpt lat="44.2543733" lon="11.6775933"><ele>234.0</ele><time>2026-04-26T11:06:12.59Z</time></trkpt><trkpt lat="44.2543133" lon="11.6776483"><ele>234.0</ele><time>2026-04-26T11:06:13.574Z</time></trkpt><trkpt lat="44.2542533" lon="11.6776867"><ele>234.0</ele><time>2026-04-26T11:06:14.574Z</time></trkpt><trkpt lat="44.25414" lon="11.6776967"><ele>234.0</ele><time>2026-04-26T11:06:16.581Z</time></trkpt><trkpt lat="44.254035" lon="11.6776883"><ele>234.0</ele><time>2026-04-26T11:06:18.589Z</time></trkpt><trkpt lat="44.2539217" lon="11.677765"><ele>236.66666666666666</ele><time>2026-04-26T11:06:20.575Z</time></trkpt><trkpt lat="44.2538683" lon="11.6778267"><ele>239.33333333333331</ele><time>2026-04-26T11:06:21.578Z</time></trkpt><trkpt lat="44.25382" lon="11.67789"><ele>242.0</ele><time>2026-04-26T11:06:22.584Z</time></trkpt><trkpt lat="44.2537567" lon="11.677985"><ele>244.66666666666666</ele><time>2026-04-26T11:06:24.574Z</time></trkpt><trkpt lat="44.253745" lon="11.6781217"><ele>247.33333333333331</ele><time>2026-04-26T11:06:40.578Z</time></trkpt><trkpt lat="44.2536983" lon="11.678255"><ele>250.0</ele><time>2026-04-26T11:06:42.566Z</time></trkpt><trkpt lat="44.2536433" lon="11.6784083"><ele>250.0</ele><time>2026-04-26T11:06:44.577Z</time></trkpt><trkpt lat="44.25362" lon="11.6784933"><ele>250.0</ele><time>2026-04-26T11:06:45.593Z</time></trkpt><trkpt lat="44.2536017" lon="11.6785933"><ele>250.0</ele><time>2026-04-26T11:06:46.578Z</time></trkpt><trkpt lat="44.253585" lon="11.678695"><ele>250.0</ele><time>2026-04-26T11:06:47.592Z</time></trkpt><trkpt lat="44.25357" lon="11.6788033"><ele>250.0</ele><time>2026-04-26T11:06:48.572Z</time></trkpt><trkpt lat="44.2535533" lon="11.67891"><ele>250.0</ele><time>2026-04-26T11:06:49.582Z</time></trkpt><trkpt lat="44.2535417" lon="11.6790183"><ele>250.0</ele><time>2026-04-26T11:06:50.579Z</time></trkpt><trkpt lat="44.2535283" lon="11.6791233"><ele>248.49999999999997</ele><time>2026-04-26T11:06:51.582Z</time></trkpt><trkpt lat="44.2535133" lon="11.6792267"><ele>247.0</ele><time>2026-04-26T11:06:52.573Z</time></trkpt><trkpt lat="44.2534967" lon="11.6793283"><ele>245.5</ele><time>2026-04-26T11:06:53.606Z</time></trkpt><trkpt lat="44.2534817" lon="11.6794317"><ele>244.0</ele><time>2026-04-26T11:06:54.574Z</time></trkpt><trkpt lat="44.25347" lon="11.6795367"><ele>242.49999999999997</ele><time>2026-04-26T11:06:55.583Z</time></trkpt><trkpt lat="44.2534617" lon="11.6796433"><ele>241.0</ele><time>2026-04-26T11:06:56.576Z</time></trkpt><trkpt lat="44.2534533" lon="11.6797533"><ele>241.42857142857144</ele><time>2026-04-26T11:06:57.569Z</time></trkpt><trkpt lat="44.25345" lon="11.6798633"><ele>241.8571428571429</ele><time>2026-04-26T11:06:58.573Z</time></trkpt><trkpt lat="44.2534467" lon="11.6799683"><ele>242.28571428571428</ele><time>2026-04-26T11:06:59.579Z</time></trkpt><trkpt lat="44.2534333" lon="11.6800633"><ele>242.71428571428572</ele><time>2026-04-26T11:07:00.583Z</time></trkpt><trkpt lat="44.25341" lon="11.6801467"><ele>243.14285714285714</ele><time>2026-04-26T11:07:01.577Z</time></trkpt><trkpt lat="44.2533783" lon="11.6802233"><ele>243.57142857142856</ele><time>2026-04-26T11:07:02.585Z</time></trkpt><trkpt lat="44.25334" lon="11.680295"><ele>243.99999999999997</ele><time>2026-04-26T11:07:03.59Z</time></trkpt><trkpt lat="44.2532933" lon="11.68036"><ele>243.99999999999997</ele><time>2026-04-26T11:07:04.574Z</time></trkpt><trkpt lat="44.2532383" lon="11.68042"><ele>244.0</ele><time>2026-04-26T11:07:05.581Z</time></trkpt><trkpt lat="44.2531867" lon="11.6804783"><ele>243.99999999999997</ele><time>2026-04-26T11:07:06.575Z</time></trkpt><trkpt lat="44.2531433" lon="11.6805483"><ele>243.99999999999997</ele><time>2026-04-26T11:07:07.582Z</time></trkpt><trkpt lat="44.253115" lon="11.6806317"><ele>244.0</ele><time>2026-04-26T11:07:08.577Z</time></trkpt><trkpt lat="44.253105" lon="11.680725"><ele>243.99999999999997</ele><time>2026-04-26T11:07:09.589Z</time></trkpt><trkpt lat="44.253115" lon="11.6808233"><ele>243.99999999999997</ele><time>2026-04-26T11:07:10.575Z</time></trkpt><trkpt lat="44.25314" lon="11.6809217"><ele>243.99999999999997</ele><time>2026-04-26T11:07:11.57Z</time></trkpt><trkpt lat="44.2531733" lon="11.6810183"><ele>244.0</ele><time>2026-04-26T11:07:12.572Z</time></trkpt><trkpt lat="44.2532033" lon="11.6811117"><ele>243.99999999999997</ele><time>2026-04-26T11:07:13.57Z</time></trkpt><trkpt lat="44.2532367" lon="11.6812083"><ele>243.99999999999997</ele><time>2026-04-26T11:07:14.58Z</time></trkpt><trkpt lat="44.2532583" lon="11.681305"><ele>244.0</ele><time>2026-04-26T11:07:15.585Z</time></trkpt><trkpt lat="44.25327" lon="11.6814"><ele>243.99999999999997</ele><time>2026-04-26T11:07:16.58Z</time></trkpt><trkpt lat="44.2532733" lon="11.6814933"><ele>243.99999999999997</ele><time>2026-04-26T11:07:17.584Z</time></trkpt><trkpt lat="44.2532417" lon="11.6816567"><ele>245.33333333333331</ele><time>2026-04-26T11:07:19.589Z</time></trkpt><trkpt lat="44.2531483" lon="11.6817667"><ele>246.66666666666666</ele><time>2026-04-26T11:07:21.582Z</time></trkpt><trkpt lat="44.253085" lon="11.6817967"><ele>248.0</ele><time>2026-04-26T11:07:22.585Z</time></trkpt><trkpt lat="44.2530167" lon="11.681815"><ele>249.33333333333331</ele><time>2026-04-26T11:07:23.574Z</time></trkpt><trkpt lat="44.25295" lon="11.6818267"><ele>250.66666666666666</ele><time>2026-04-26T11:07:24.585Z</time></trkpt><trkpt lat="44.25288" lon="11.6818383"><ele>252.0</ele><time>2026-04-26T11:07:25.575Z</time></trkpt><trkpt lat="44.2528133" lon="11.681855"><ele>252.28571428571428</ele><time>2026-04-26T11:07:26.583Z</time></trkpt><trkpt lat="44.252745" lon="11.6818733"><ele>252.57142857142856</ele><time>2026-04-26T11:07:27.569Z</time></trkpt><trkpt lat="44.2526767" lon="11.68189"><ele>252.85714285714286</ele><time>2026-04-26T11:07:28.572Z</time></trkpt><trkpt lat="44.2526083" lon="11.681905"><ele>253.14285714285714</ele><time>2026-04-26T11:07:29.579Z</time></trkpt><trkpt lat="44.252535" lon="11.68192"><ele>253.42857142857142</ele><time>2026-04-26T11:07:30.578Z</time></trkpt><trkpt lat="44.2524633" lon="11.681935"><ele>253.71428571428572</ele><time>2026-04-26T11:07:31.581Z</time></trkpt><trkpt lat="44.2523933" lon="11.6819483"><ele>254.0</ele><time>2026-04-26T11:07:32.582Z</time></trkpt><trkpt lat="44.252325" lon="11.6819583"><ele>257.0</ele><time>2026-04-26T11:07:33.573Z</time></trkpt><trkpt lat="44.2522567" lon="11.68197"><ele>260.0</ele><time>2026-04-26T11:07:34.582Z</time></trkpt><trkpt lat="44.2521867" lon="11.681985"><ele>263.0</ele><time>2026-04-26T11:07:35.582Z</time></trkpt><trkpt lat="44.2521217" lon="11.6820083"><ele>266.0</ele><time>2026-04-26T11:07:36.573Z</time></trkpt><trkpt lat="44.2520617" lon="11.682045"><ele>269.0</ele><time>2026-04-26T11:07:37.577Z</time></trkpt><trkpt lat="44.2520067" lon="11.6821033"><ele>272.0</ele><time>2026-04-26T11:07:38.585Z</time></trkpt><trkpt lat="44.251955" lon="11.6821733"><ele>275.0</ele><time>2026-04-26T11:07:39.575Z</time></trkpt><trkpt lat="44.2519117" lon="11.6822533"><ele>275.0</ele><time>2026-04-26T11:07:40.577Z</time></trkpt><trkpt lat="44.25187" lon="11.682335"><ele>275.0</ele><time>2026-04-26T11:07:41.578Z</time></trkpt><trkpt lat="44.2518367" lon="11.68241"><ele>275.0</ele><time>2026-04-26T11:07:42.573Z</time></trkpt><trkpt lat="44.2517933" lon="11.6825"><ele>275.0</ele><time>2026-04-26T11:07:44.575Z</time></trkpt><trkpt lat="44.251725" lon="11.6824883"><ele>275.0</ele><time>2026-04-26T11:07:56.574Z</time></trkpt><trkpt lat="44.2517267" lon="11.68238"><ele>275.0</ele><time>2026-04-26T11:07:58.58Z</time></trkpt><trkpt lat="44.2517317" lon="11.68225"><ele>275.0</ele><time>2026-04-26T11:08:00.582Z</time></trkpt><trkpt lat="44.251735" lon="11.6821033"><ele>275.0</ele><time>2026-04-26T11:08:02.594Z</time></trkpt><trkpt lat="44.251705" lon="11.681945"><ele>275.0</ele><time>2026-04-26T11:08:04.576Z</time></trkpt><trkpt lat="44.2516367" lon="11.6818133"><ele>275.0</ele><time>2026-04-26T11:08:06.584Z</time></trkpt><trkpt lat="44.25154" lon="11.6817283"><ele>280.0</ele><time>2026-04-26T11:08:08.573Z</time></trkpt><trkpt lat="44.251425" lon="11.681685"><ele>285.0</ele><time>2026-04-26T11:08:10.579Z</time></trkpt><trkpt lat="44.25131" lon="11.6816583"><ele>290.0</ele><time>2026-04-26T11:08:12.57Z</time></trkpt><trkpt lat="44.2511983" lon="11.6816467"><ele>295.0</ele><time>2026-04-26T11:08:14.577Z</time></trkpt><trkpt lat="44.2510767" lon="11.68165"><ele>295.0</ele><time>2026-04-26T11:08:16.583Z</time></trkpt><trkpt lat="44.25098" lon="11.681695"><ele>295.0</ele><time>2026-04-26T11:08:18.572Z</time></trkpt><trkpt lat="44.2509133" lon="11.6817467"><ele>295.0</ele><time>2026-04-26T11:08:20.585Z</time></trkpt><trkpt lat="44.2509933" lon="11.6817067"><ele>295.0</ele><time>2026-04-26T11:08:55.586Z</time></trkpt><trkpt lat="44.2510583" lon="11.6817017"><ele>295.0</ele><time>2026-04-26T11:08:56.584Z</time></trkpt><trkpt lat="44.2511267" lon="11.681695"><ele>295.0</ele><time>2026-04-26T11:08:57.586Z</time></trkpt><trkpt lat="44.251195" lon="11.6816967"><ele>295.0</ele><time>2026-04-26T11:08:58.584Z</time></trkpt><trkpt lat="44.2512617" lon="11.6817033"><ele>295.0</ele><time>2026-04-26T11:08:59.577Z</time></trkpt><trkpt lat="44.25133" lon="11.6817133"><ele>295.0</ele><time>2026-04-26T11:09:00.586Z</time></trkpt><trkpt lat="44.2513983" lon="11.6817233"><ele>295.0</ele><time>2026-04-26T11:09:01.573Z</time></trkpt><trkpt lat="44.2515167" lon="11.6817667"><ele>295.0</ele><time>2026-04-26T11:09:03.577Z</time></trkpt><trkpt lat="44.251615" lon="11.6818367"><ele>295.0</ele><time>2026-04-26T11:09:05.573Z</time></trkpt><trkpt lat="44.25168" lon="11.68193"><ele>291.66666666666663</ele><time>2026-04-26T11:09:07.585Z</time></trkpt><trkpt lat="44.2517183" lon="11.6820533"><ele>288.3333333333333</ele><time>2026-04-26T11:09:09.586Z</time></trkpt><trkpt lat="44.2517283" lon="11.682195"><ele>285.0</ele><time>2026-04-26T11:09:11.579Z</time></trkpt><trkpt lat="44.2517183" lon="11.6823233"><ele>281.6666666666667</ele><time>2026-04-26T11:09:13.577Z</time></trkpt><trkpt lat="44.2517067" lon="11.6824267"><ele>278.33333333333337</ele><time>2026-04-26T11:09:15.589Z</time></trkpt><trkpt lat="44.251765" lon="11.6825017"><ele>275.0</ele><time>2026-04-26T11:09:18.571Z</time></trkpt><trkpt lat="44.2518233" lon="11.6824567"><ele>275.0</ele><time>2026-04-26T11:09:20.576Z</time></trkpt><trkpt lat="44.2518717" lon="11.6823517"><ele>275.0</ele><time>2026-04-26T11:09:22.583Z</time></trkpt><trkpt lat="44.251925" lon="11.6822283"><ele>275.0</ele><time>2026-04-26T11:09:24.58Z</time></trkpt><trkpt lat="44.2519967" lon="11.68211"><ele>275.0</ele><time>2026-04-26T11:09:26.577Z</time></trkpt><trkpt lat="44.2520933" lon="11.6820317"><ele>275.0</ele><time>2026-04-26T11:09:28.584Z</time></trkpt><trkpt lat="44.25222" lon="11.681985"><ele>272.5</ele><time>2026-04-26T11:09:30.579Z</time></trkpt><trkpt lat="44.252295" lon="11.6819667"><ele>270.0</ele><time>2026-04-26T11:09:31.604Z</time></trkpt><trkpt lat="44.2523733" lon="11.6819467"><ele>267.5</ele><time>2026-04-26T11:09:32.58Z</time></trkpt><trkpt lat="44.2524517" lon="11.681925"><ele>265.0</ele><time>2026-04-26T11:09:33.637Z</time></trkpt><trkpt lat="44.25253" lon="11.6819033"><ele>262.5</ele><time>2026-04-26T11:09:34.571Z</time></trkpt><trkpt lat="44.25261" lon="11.6818817"><ele>260.0</ele><time>2026-04-26T11:09:35.575Z</time></trkpt><trkpt lat="44.2526917" lon="11.6818633"><ele>260.0</ele><time>2026-04-26T11:09:36.577Z</time></trkpt><trkpt lat="44.2527733" lon="11.6818433"><ele>260.0</ele><time>2026-04-26T11:09:37.589Z</time></trkpt><trkpt lat="44.2528517" lon="11.681825"><ele>260.0</ele><time>2026-04-26T11:09:38.571Z</time></trkpt><trkpt lat="44.25292" lon="11.6818083"><ele>260.0</ele><time>2026-04-26T11:09:39.579Z</time></trkpt><trkpt lat="44.2529867" lon="11.6817933"><ele>260.0</ele><time>2026-04-26T11:09:40.584Z</time></trkpt><trkpt lat="44.25305" lon="11.681785"><ele>260.0</ele><time>2026-04-26T11:09:41.577Z</time></trkpt><trkpt lat="44.2531617" lon="11.68174"><ele>258.4</ele><time>2026-04-26T11:09:43.583Z</time></trkpt><trkpt lat="44.2532433" lon="11.6816333"><ele>256.8</ele><time>2026-04-26T11:09:45.573Z</time></trkpt><trkpt lat="44.2532783" lon="11.6814883"><ele>255.2</ele><time>2026-04-26T11:09:47.571Z</time></trkpt><trkpt lat="44.253275" lon="11.6813233"><ele>253.6</ele><time>2026-04-26T11:09:49.573Z</time></trkpt><trkpt lat="44.25326" lon="11.6812333"><ele>252.0</ele><time>2026-04-26T11:09:50.575Z</time></trkpt><trkpt lat="44.2532367" lon="11.6811433"><ele>252.33333333333334</ele><time>2026-04-26T11:09:51.578Z</time></trkpt><trkpt lat="44.253205" lon="11.6810467"><ele>252.66666666666669</ele><time>2026-04-26T11:09:52.588Z</time></trkpt><trkpt lat="44.2531717" lon="11.6809533"><ele>253.0</ele><time>2026-04-26T11:09:53.576Z</time></trkpt><trkpt lat="44.2531383" lon="11.680865"><ele>253.33333333333334</ele><time>2026-04-26T11:09:54.587Z</time></trkpt><trkpt lat="44.253115" lon="11.68078"><ele>253.66666666666669</ele><time>2026-04-26T11:09:55.578Z</time></trkpt><trkpt lat="44.2531233" lon="11.6806133"><ele>254.0</ele><time>2026-04-26T11:09:57.577Z</time></trkpt><trkpt lat="44.2531733" lon="11.6804617"><ele>252.33333333333334</ele><time>2026-04-26T11:09:59.571Z</time></trkpt><trkpt lat="44.2532267" lon="11.6803967"><ele>250.66666666666669</ele><time>2026-04-26T11:10:00.583Z</time></trkpt><trkpt lat="44.253285" lon="11.68033"><ele>249.0</ele><time>2026-04-26T11:10:01.575Z</time></trkpt><trkpt lat="44.2533417" lon="11.680255"><ele>247.33333333333331</ele><time>2026-04-26T11:10:02.577Z</time></trkpt><trkpt lat="44.2533883" lon="11.6801667"><ele>245.66666666666666</ele><time>2026-04-26T11:10:03.585Z</time></trkpt><trkpt lat="44.2534183" lon="11.68007"><ele>244.0</ele><time>2026-04-26T11:10:04.567Z</time></trkpt><trkpt lat="44.2534383" lon="11.67997"><ele>243.49999999999997</ele><time>2026-04-26T11:10:05.565Z</time></trkpt><trkpt lat="44.2534483" lon="11.6798667"><ele>243.0</ele><time>2026-04-26T11:10:06.57Z</time></trkpt><trkpt lat="44.25345" lon="11.6797633"><ele>242.5</ele><time>2026-04-26T11:10:07.582Z</time></trkpt><trkpt lat="44.253455" lon="11.6796583"><ele>242.0</ele><time>2026-04-26T11:10:08.583Z</time></trkpt><trkpt lat="44.2534633" lon="11.67955"><ele>241.49999999999997</ele><time>2026-04-26T11:10:09.578Z</time></trkpt><trkpt lat="44.253475" lon="11.67944"><ele>241.0</ele><time>2026-04-26T11:10:10.583Z</time></trkpt><trkpt lat="44.2534867" lon="11.6793283"><ele>241.0</ele><time>2026-04-26T11:10:11.585Z</time></trkpt><trkpt lat="44.2535017" lon="11.6792083"><ele>241.00000000000003</ele><time>2026-04-26T11:10:12.582Z</time></trkpt><trkpt lat="44.2535183" lon="11.6790817"><ele>241.00000000000003</ele><time>2026-04-26T11:10:13.584Z</time></trkpt><trkpt lat="44.2535367" lon="11.6789483"><ele>241.0</ele><time>2026-04-26T11:10:14.576Z</time></trkpt><trkpt lat="44.2535533" lon="11.67881"><ele>241.0</ele><time>2026-04-26T11:10:15.571Z</time></trkpt><trkpt lat="44.25357" lon="11.6786717"><ele>242.49999999999997</ele><time>2026-04-26T11:10:16.575Z</time></trkpt><trkpt lat="44.2535933" lon="11.6785367"><ele>244.0</ele><time>2026-04-26T11:10:17.577Z</time></trkpt><trkpt lat="44.2536233" lon="11.67841"><ele>245.5</ele><time>2026-04-26T11:10:18.576Z</time></trkpt><trkpt lat="44.2536567" lon="11.6782933"><ele>247.0</ele><time>2026-04-26T11:10:19.566Z</time></trkpt><trkpt lat="44.2536917" lon="11.6781833"><ele>248.49999999999997</ele><time>2026-04-26T11:10:20.574Z</time></trkpt><trkpt lat="44.253725" lon="11.678085"><ele>250.0</ele><time>2026-04-26T11:10:21.57Z</time></trkpt><trkpt lat="44.2537567" lon="11.6779983"><ele>250.0</ele><time>2026-04-26T11:10:22.58Z</time></trkpt><trkpt lat="44.253795" lon="11.67792"><ele>250.0</ele><time>2026-04-26T11:10:23.573Z</time></trkpt><trkpt lat="44.2538367" lon="11.6778533"><ele>250.0</ele><time>2026-04-26T11:10:24.568Z</time></trkpt><trkpt lat="44.2539317" lon="11.6777583"><ele>250.0</ele><time>2026-04-26T11:10:26.587Z</time></trkpt><trkpt lat="44.2540217" lon="11.677705"><ele>250.0</ele><time>2026-04-26T11:10:28.579Z</time></trkpt><trkpt lat="44.2541267" lon="11.6777083"><ele>246.8</ele><time>2026-04-26T11:10:30.576Z</time></trkpt><trkpt lat="44.254255" lon="11.67768"><ele>243.6</ele><time>2026-04-26T11:10:32.58Z</time></trkpt><trkpt lat="44.2543217" lon="11.6776367"><ele>240.39999999999998</ele><time>2026-04-26T11:10:33.574Z</time></trkpt><trkpt lat="44.25439" lon="11.6775767"><ele>237.2</ele><time>2026-04-26T11:10:34.591Z</time></trkpt><trkpt lat="44.2544567" lon="11.677505"><ele>234.0</ele><time>2026-04-26T11:10:35.572Z</time></trkpt><trkpt lat="44.2545167" lon="11.6774233"><ele>234.0</ele><time>2026-04-26T11:10:36.569Z</time></trkpt><trkpt lat="44.254575" lon="11.67734"><ele>234.0</ele><time>2026-04-26T11:10:37.589Z</time></trkpt><trkpt lat="44.25463" lon="11.6772567"><ele>234.0</ele><time>2026-04-26T11:10:38.578Z</time></trkpt><trkpt lat="44.2546833" lon="11.677175"><ele>234.0</ele><time>2026-04-26T11:10:39.583Z</time></trkpt><trkpt lat="44.2547367" lon="11.6770917"><ele>234.0</ele><time>2026-04-26T11:10:40.58Z</time></trkpt><trkpt lat="44.2547967" lon="11.6770167"><ele>234.0</ele><time>2026-04-26T11:10:41.599Z</time></trkpt><trkpt lat="44.25486" lon="11.6769517"><ele>232.0</ele><time>2026-04-26T11:10:42.583Z</time></trkpt><trkpt lat="44.2549333" lon="11.676895"><ele>230.0</ele><time>2026-04-26T11:10:43.579Z</time></trkpt><trkpt lat="44.2550083" lon="11.676835"><ele>228.0</ele><time>2026-04-26T11:10:44.57Z</time></trkpt><trkpt lat="44.2550833" lon="11.676775"><ele>226.0</ele><time>2026-04-26T11:10:45.572Z</time></trkpt><trkpt lat="44.2551567" lon="11.676715"><ele>224.0</ele><time>2026-04-26T11:10:46.572Z</time></trkpt><trkpt lat="44.25523" lon="11.6766483"><ele>222.0</ele><time>2026-04-26T11:10:47.579Z</time></trkpt><trkpt lat="44.2553033" lon="11.67658"><ele>222.0</ele><time>2026-04-26T11:10:48.586Z</time></trkpt><trkpt lat="44.2553733" lon="11.6765133"><ele>222.0</ele><time>2026-04-26T11:10:49.608Z</time></trkpt><trkpt lat="44.2554383" lon="11.6764467"><ele>222.0</ele><time>2026-04-26T11:10:50.567Z</time></trkpt><trkpt lat="44.2554983" lon="11.676375"><ele>222.0</ele><time>2026-04-26T11:10:51.574Z</time></trkpt><trkpt lat="44.2555583" lon="11.6762967"><ele>222.0</ele><time>2026-04-26T11:10:52.592Z</time></trkpt><trkpt lat="44.2556183" lon="11.676225"><ele>222.0</ele><time>2026-04-26T11:10:53.58Z</time></trkpt><trkpt lat="44.2556783" lon="11.67616"><ele>219.0</ele><time>2026-04-26T11:10:54.586Z</time></trkpt><trkpt lat="44.2557383" lon="11.6760933"><ele>216.0</ele><time>2026-04-26T11:10:55.573Z</time></trkpt><trkpt lat="44.2557967" lon="11.6760267"><ele>213.0</ele><time>2026-04-26T11:10:56.581Z</time></trkpt><trkpt lat="44.2558583" lon="11.6759483"><ele>210.0</ele><time>2026-04-26T11:10:57.573Z</time></trkpt><trkpt lat="44.25592" lon="11.67586"><ele>207.0</ele><time>2026-04-26T11:10:58.58Z</time></trkpt><trkpt lat="44.2559867" lon="11.6757683"><ele>204.0</ele><time>2026-04-26T11:10:59.575Z</time></trkpt><trkpt lat="44.256055" lon="11.6756817"><ele>204.0</ele><time>2026-04-26T11:11:00.572Z</time></trkpt><trkpt lat="44.25613" lon="11.675595"><ele>204.0</ele><time>2026-04-26T11:11:01.584Z</time></trkpt><trkpt lat="44.25621" lon="11.6755167"><ele>204.0</ele><time>2026-04-26T11:11:02.581Z</time></trkpt><trkpt lat="44.2562917" lon="11.6754433"><ele>204.0</ele><time>2026-04-26T11:11:03.58Z</time></trkpt><trkpt lat="44.2563683" lon="11.6753583"><ele>204.0</ele><time>2026-04-26T11:11:04.589Z</time></trkpt><trkpt lat="44.2564417" lon="11.6752817"><ele>199.79999999999998</ele><time>2026-04-26T11:11:05.568Z</time></trkpt><trkpt lat="44.2565117" lon="11.6751917"><ele>195.6</ele><time>2026-04-26T11:11:06.571Z</time></trkpt><trkpt lat="44.2565767" lon="11.6751"><ele>191.4</ele><time>2026-04-26T11:11:07.578Z</time></trkpt><trkpt lat="44.2566417" lon="11.675005"><ele>187.2</ele><time>2026-04-26T11:11:08.572Z</time></trkpt><trkpt lat="44.2566967" lon="11.6749017"><ele>183.0</ele><time>2026-04-26T11:11:09.583Z</time></trkpt><trkpt lat="44.256745" lon="11.6747917"><ele>183.0</ele><time>2026-04-26T11:11:10.58Z</time></trkpt><trkpt lat="44.2567933" lon="11.6746767"><ele>183.0</ele><time>2026-04-26T11:11:11.586Z</time></trkpt><trkpt lat="44.2568367" lon="11.6745683"><ele>183.0</ele><time>2026-04-26T11:11:12.576Z</time></trkpt><trkpt lat="44.2568783" lon="11.6744683"><ele>183.0</ele><time>2026-04-26T11:11:13.583Z</time></trkpt><trkpt lat="44.2569217" lon="11.6743767"><ele>183.0</ele><time>2026-04-26T11:11:14.573Z</time></trkpt><trkpt lat="44.256975" lon="11.6743"><ele>183.0</ele><time>2026-04-26T11:11:15.577Z</time></trkpt><trkpt lat="44.2570367" lon="11.674235"><ele>184.5</ele><time>2026-04-26T11:11:16.576Z</time></trkpt><trkpt lat="44.2571033" lon="11.6741967"><ele>186.0</ele><time>2026-04-26T11:11:17.575Z</time></trkpt><trkpt lat="44.2571833" lon="11.6741767"><ele>187.5</ele><time>2026-04-26T11:11:18.576Z</time></trkpt><trkpt lat="44.2572633" lon="11.6741567"><ele>189.0</ele><time>2026-04-26T11:11:19.576Z</time></trkpt><trkpt lat="44.2573417" lon="11.67412"><ele>190.5</ele><time>2026-04-26T11:11:20.586Z</time></trkpt><trkpt lat="44.2574167" lon="11.6740683"><ele>192.0</ele><time>2026-04-26T11:11:21.579Z</time></trkpt><trkpt lat="44.2574783" lon="11.673985"><ele>189.16666666666666</ele><time>2026-04-26T11:11:22.585Z</time></trkpt><trkpt lat="44.25753" lon="11.673885"><ele>186.33333333333334</ele><time>2026-04-26T11:11:23.573Z</time></trkpt><trkpt lat="44.2575667" lon="11.6737817"><ele>183.5</ele><time>2026-04-26T11:11:24.566Z</time></trkpt><trkpt lat="44.2576083" lon="11.6736917"><ele>180.66666666666669</ele><time>2026-04-26T11:11:25.581Z</time></trkpt><trkpt lat="44.2576583" lon="11.67362"><ele>177.83333333333334</ele><time>2026-04-26T11:11:26.573Z</time></trkpt><trkpt lat="44.2577167" lon="11.673565"><ele>175.0</ele><time>2026-04-26T11:11:27.574Z</time></trkpt><trkpt lat="44.2578283" lon="11.6735133"><ele>175.0</ele><time>2026-04-26T11:11:29.576Z</time></trkpt><trkpt lat="44.25789" lon="11.6735317"><ele>175.0</ele><time>2026-04-26T11:11:30.584Z</time></trkpt><trkpt lat="44.2579517" lon="11.6735917"><ele>175.0</ele><time>2026-04-26T11:11:31.578Z</time></trkpt><trkpt lat="44.2580017" lon="11.673685"><ele>175.0</ele><time>2026-04-26T11:11:32.585Z</time></trkpt><trkpt lat="44.2580433" lon="11.6737867"><ele>175.0</ele><time>2026-04-26T11:11:33.576Z</time></trkpt><trkpt lat="44.2580683" lon="11.6738933"><ele>175.0</ele><time>2026-04-26T11:11:34.582Z</time></trkpt><trkpt lat="44.2580883" lon="11.674005"><ele>172.8</ele><time>2026-04-26T11:11:35.574Z</time></trkpt><trkpt lat="44.2580883" lon="11.6741183"><ele>170.6</ele><time>2026-04-26T11:11:36.576Z</time></trkpt><trkpt lat="44.2580867" lon="11.674215"><ele>168.39999999999998</ele><time>2026-04-26T11:11:37.578Z</time></trkpt><trkpt lat="44.2581" lon="11.6743633"><ele>166.2</ele><time>2026-04-26T11:11:39.568Z</time></trkpt><trkpt lat="44.2581733" lon="11.6743317"><ele>164.0</ele><time>2026-04-26T11:11:41.576Z</time></trkpt><trkpt lat="44.25826" lon="11.6742033"><ele>160.5</ele><time>2026-04-26T11:11:43.586Z</time></trkpt><trkpt lat="44.258305" lon="11.6741283"><ele>157.0</ele><time>2026-04-26T11:11:44.576Z</time></trkpt><trkpt lat="44.2583583" lon="11.6740533"><ele>153.5</ele><time>2026-04-26T11:11:45.575Z</time></trkpt><trkpt lat="44.258415" lon="11.6739733"><ele>150.0</ele><time>2026-04-26T11:11:46.575Z</time></trkpt><trkpt lat="44.2584733" lon="11.6738967"><ele>146.5</ele><time>2026-04-26T11:11:47.578Z</time></trkpt><trkpt lat="44.25854" lon="11.6738117"><ele>143.0</ele><time>2026-04-26T11:11:48.577Z</time></trkpt><trkpt lat="44.2585967" lon="11.6737217"><ele>143.0</ele><time>2026-04-26T11:11:49.576Z</time></trkpt><trkpt lat="44.2586433" lon="11.6736317"><ele>143.0</ele><time>2026-04-26T11:11:50.573Z</time></trkpt><trkpt lat="44.258685" lon="11.673555"><ele>143.0</ele><time>2026-04-26T11:11:51.579Z</time></trkpt><trkpt lat="44.25876" lon="11.6734617"><ele>143.0</ele><time>2026-04-26T11:11:53.554Z</time></trkpt><trkpt lat="44.2588333" lon="11.6735067"><ele>143.0</ele><time>2026-04-26T11:11:56.578Z</time></trkpt><trkpt lat="44.258805" lon="11.67368"><ele>143.0</ele><time>2026-04-26T11:11:58.577Z</time></trkpt><trkpt lat="44.258785" lon="11.6738017"><ele>143.0</ele><time>2026-04-26T11:11:59.572Z</time></trkpt><trkpt lat="44.25876" lon="11.6739233"><ele>143.0</ele><time>2026-04-26T11:12:00.578Z</time></trkpt><trkpt lat="44.2587333" lon="11.6740417"><ele>143.0</ele><time>2026-04-26T11:12:01.584Z</time></trkpt><trkpt lat="44.2587083" lon="11.6741533"><ele>143.0</ele><time>2026-04-26T11:12:02.58Z</time></trkpt><trkpt lat="44.258685" lon="11.67426"><ele>143.0</ele><time>2026-04-26T11:12:03.572Z</time></trkpt><trkpt lat="44.2586633" lon="11.6743567"><ele>143.0</ele><time>2026-04-26T11:12:04.582Z</time></trkpt><trkpt lat="44.2586467" lon="11.6744433"><ele>143.0</ele><time>2026-04-26T11:12:05.584Z</time></trkpt><trkpt lat="44.258645" lon="11.6745917"><ele>143.0</ele><time>2026-04-26T11:12:07.58Z</time></trkpt><trkpt lat="44.25872" lon="11.6746083"><ele>143.0</ele><time>2026-04-26T11:12:09.568Z</time></trkpt><trkpt lat="44.25881" lon="11.6745117"><ele>143.0</ele><time>2026-04-26T11:12:11.584Z</time></trkpt><trkpt lat="44.25887" lon="11.6744383"><ele>143.0</ele><time>2026-04-26T11:12:12.581Z</time></trkpt><trkpt lat="44.2589333" lon="11.6743667"><ele>138.7142857142857</ele><time>2026-04-26T11:12:13.58Z</time></trkpt><trkpt lat="44.2589967" lon="11.6742983"><ele>134.42857142857142</ele><time>2026-04-26T11:12:14.578Z</time></trkpt><trkpt lat="44.259055" lon="11.6742267"><ele>130.14285714285714</ele><time>2026-04-26T11:12:15.578Z</time></trkpt><trkpt lat="44.259115" lon="11.6741633"><ele>125.85714285714285</ele><time>2026-04-26T11:12:16.581Z</time></trkpt><trkpt lat="44.2591733" lon="11.6741133"><ele>121.57142857142856</ele><time>2026-04-26T11:12:17.577Z</time></trkpt><trkpt lat="44.2592333" lon="11.674085"><ele>117.28571428571429</ele><time>2026-04-26T11:12:18.585Z</time></trkpt><trkpt lat="44.2592967" lon="11.674085"><ele>113.0</ele><time>2026-04-26T11:12:19.585Z</time></trkpt><trkpt lat="44.259365" lon="11.6741083"><ele>112.99999999999999</ele><time>2026-04-26T11:12:20.569Z</time></trkpt><trkpt lat="44.2594383" lon="11.6741383"><ele>113.0</ele><time>2026-04-26T11:12:21.577Z</time></trkpt><trkpt lat="44.2595183" lon="11.6741467"><ele>113.0</ele><time>2026-04-26T11:12:22.583Z</time></trkpt><trkpt lat="44.2596" lon="11.6741317"><ele>113.0</ele><time>2026-04-26T11:12:23.589Z</time></trkpt><trkpt lat="44.259685" lon="11.6741033"><ele>112.99999999999999</ele><time>2026-04-26T11:12:24.564Z</time></trkpt><trkpt lat="44.2597683" lon="11.67407"><ele>113.0</ele><time>2026-04-26T11:12:25.572Z</time></trkpt><trkpt lat="44.25985" lon="11.6740283"><ele>110.16666666666666</ele><time>2026-04-26T11:12:26.573Z</time></trkpt><trkpt lat="44.25993" lon="11.6739883"><ele>107.33333333333333</ele><time>2026-04-26T11:12:27.581Z</time></trkpt><trkpt lat="44.2600067" lon="11.673945"><ele>104.5</ele><time>2026-04-26T11:12:28.575Z</time></trkpt><trkpt lat="44.2600867" lon="11.6739"><ele>101.66666666666666</ele><time>2026-04-26T11:12:29.574Z</time></trkpt><trkpt lat="44.2601617" lon="11.673855"><ele>98.83333333333333</ele><time>2026-04-26T11:12:30.575Z</time></trkpt><trkpt lat="44.2602367" lon="11.6738133"><ele>96.0</ele><time>2026-04-26T11:12:31.582Z</time></trkpt><trkpt lat="44.2603083" lon="11.67378"><ele>96.0</ele><time>2026-04-26T11:12:32.585Z</time></trkpt><trkpt lat="44.2603767" lon="11.6737633"><ele>96.0</ele><time>2026-04-26T11:12:33.573Z</time></trkpt><trkpt lat="44.2604983" lon="11.6737817"><ele>96.0</ele><time>2026-04-26T11:12:35.576Z</time></trkpt><trkpt lat="44.2605567" lon="11.67382"><ele>96.0</ele><time>2026-04-26T11:12:36.579Z</time></trkpt><trkpt lat="44.2606183" lon="11.673875"><ele>96.0</ele><time>2026-04-26T11:12:37.583Z</time></trkpt><trkpt lat="44.260685" lon="11.6739367"><ele>96.0</ele><time>2026-04-26T11:12:38.584Z</time></trkpt><trkpt lat="44.2607467" lon="11.6740017"><ele>95.5</ele><time>2026-04-26T11:12:39.578Z</time></trkpt><trkpt lat="44.26081" lon="11.6740667"><ele>95.0</ele><time>2026-04-26T11:12:40.572Z</time></trkpt><trkpt lat="44.2608733" lon="11.6741333"><ele>94.5</ele><time>2026-04-26T11:12:41.582Z</time></trkpt><trkpt lat="44.2609433" lon="11.6742017"><ele>94.0</ele><time>2026-04-26T11:12:42.579Z</time></trkpt><trkpt lat="44.261015" lon="11.6742733"><ele>93.5</ele><time>2026-04-26T11:12:43.577Z</time></trkpt><trkpt lat="44.2610933" lon="11.6743417"><ele>93.0</ele><time>2026-04-26T11:12:44.573Z</time></trkpt><trkpt lat="44.2611667" lon="11.67441"><ele>93.0</ele><time>2026-04-26T11:12:45.578Z</time></trkpt><trkpt lat="44.261235" lon="11.6744767"><ele>93.0</ele><time>2026-04-26T11:12:46.578Z</time></trkpt><trkpt lat="44.2613033" lon="11.6745367"><ele>93.0</ele><time>2026-04-26T11:12:47.577Z</time></trkpt><trkpt lat="44.2613717" lon="11.674595"><ele>93.0</ele><time>2026-04-26T11:12:48.577Z</time></trkpt><trkpt lat="44.2614417" lon="11.674655"><ele>93.0</ele><time>2026-04-26T11:12:49.565Z</time></trkpt><trkpt lat="44.26151" lon="11.6747233"><ele>93.0</ele><time>2026-04-26T11:12:50.574Z</time></trkpt><trkpt lat="44.2615783" lon="11.6748"><ele>93.0</ele><time>2026-04-26T11:12:51.58Z</time></trkpt><trkpt lat="44.2616467" lon="11.6748867"><ele>93.0</ele><time>2026-04-26T11:12:52.581Z</time></trkpt><trkpt lat="44.261715" lon="11.6749817"><ele>93.0</ele><time>2026-04-26T11:12:53.582Z</time></trkpt><trkpt lat="44.2617833" lon="11.6750833"><ele>93.0</ele><time>2026-04-26T11:12:54.581Z</time></trkpt><trkpt lat="44.26185" lon="11.6751933"><ele>93.0</ele><time>2026-04-26T11:12:55.579Z</time></trkpt><trkpt lat="44.2619133" lon="11.6753067"><ele>93.0</ele><time>2026-04-26T11:12:56.58Z</time></trkpt><trkpt lat="44.261975" lon="11.67542"><ele>93.0</ele><time>2026-04-26T11:12:57.586Z</time></trkpt><trkpt lat="44.262035" lon="11.6755383"><ele>93.0</ele><time>2026-04-26T11:12:58.576Z</time></trkpt><trkpt lat="44.2621" lon="11.6756583"><ele>93.0</ele><time>2026-04-26T11:12:59.571Z</time></trkpt><trkpt lat="44.2621617" lon="11.6757817"><ele>93.0</ele><time>2026-04-26T11:13:00.577Z</time></trkpt><trkpt lat="44.2622233" lon="11.6759117"><ele>93.0</ele><time>2026-04-26T11:13:01.583Z</time></trkpt><trkpt lat="44.2622817" lon="11.6760433"><ele>93.0</ele><time>2026-04-26T11:13:02.579Z</time></trkpt><trkpt lat="44.26234" lon="11.676175"><ele>93.0</ele><time>2026-04-26T11:13:03.584Z</time></trkpt><trkpt lat="44.2624" lon="11.6763033"><ele>93.0</ele><time>2026-04-26T11:13:04.578Z</time></trkpt><trkpt lat="44.262455" lon="11.6764367"><ele>93.0</ele><time>2026-04-26T11:13:05.576Z</time></trkpt><trkpt lat="44.262515" lon="11.676575"><ele>93.0</ele><time>2026-04-26T11:13:06.58Z</time></trkpt><trkpt lat="44.2625767" lon="11.6767117"><ele>93.0</ele><time>2026-04-26T11:13:07.584Z</time></trkpt><trkpt lat="44.2626317" lon="11.6768467"><ele>93.0</ele><time>2026-04-26T11:13:08.578Z</time></trkpt><trkpt lat="44.2626783" lon="11.6769833"><ele>93.0</ele><time>2026-04-26T11:13:09.584Z</time></trkpt><trkpt lat="44.2627233" lon="11.6771283"><ele>93.0</ele><time>2026-04-26T11:13:10.572Z</time></trkpt><trkpt lat="44.2627717" lon="11.67728"><ele>93.25</ele><time>2026-04-26T11:13:11.582Z</time></trkpt><trkpt lat="44.2628217" lon="11.677435"><ele>93.5</ele><time>2026-04-26T11:13:12.574Z</time></trkpt><trkpt lat="44.2628683" lon="11.6775933"><ele>93.75</ele><time>2026-04-26T11:13:13.579Z</time></trkpt><trkpt lat="44.262915" lon="11.6777517"><ele>94.0</ele><time>2026-04-26T11:13:14.58Z</time></trkpt><trkpt lat="44.2629633" lon="11.67791"><ele>93.75</ele><time>2026-04-26T11:13:15.574Z</time></trkpt><trkpt lat="44.2630067" lon="11.67807"><ele>93.5</ele><time>2026-04-26T11:13:16.588Z</time></trkpt><trkpt lat="44.2630483" lon="11.6782317"><ele>93.25</ele><time>2026-04-26T11:13:17.59Z</time></trkpt><trkpt lat="44.2630933" lon="11.6783967"><ele>93.0</ele><time>2026-04-26T11:13:18.567Z</time></trkpt><trkpt lat="44.26314" lon="11.6785633"><ele>93.60000000000001</ele><time>2026-04-26T11:13:19.589Z</time></trkpt><trkpt lat="44.263185" lon="11.6787283"><ele>94.2</ele><time>2026-04-26T11:13:20.577Z</time></trkpt><trkpt lat="44.2632233" lon="11.6788783"><ele>94.8</ele><time>2026-04-26T11:13:21.567Z</time></trkpt><trkpt lat="44.2632567" lon="11.6790083"><ele>95.4</ele><time>2026-04-26T11:13:22.579Z</time></trkpt><trkpt lat="44.2632817" lon="11.67911"><ele>96.0</ele><time>2026-04-26T11:13:23.571Z</time></trkpt><trkpt lat="44.2633117" lon="11.6792333"><ele>96.0</ele><time>2026-04-26T11:13:25.578Z</time></trkpt><trkpt lat="44.2632883" lon="11.679325"><ele>96.0</ele><time>2026-04-26T11:13:28.582Z</time></trkpt><trkpt lat="44.263215" lon="11.67939"><ele>96.0</ele><time>2026-04-26T11:13:30.576Z</time></trkpt><trkpt lat="44.2631133" lon="11.679465"><ele>96.0</ele><time>2026-04-26T11:13:32.574Z</time></trkpt><trkpt lat="44.26306" lon="11.679515"><ele>96.0</ele><time>2026-04-26T11:13:33.577Z</time></trkpt><trkpt lat="44.2629983" lon="11.6795767"><ele>96.0</ele><time>2026-04-26T11:13:34.58Z</time></trkpt><trkpt lat="44.2629333" lon="11.679645"><ele>96.6</ele><time>2026-04-26T11:13:35.571Z</time></trkpt><trkpt lat="44.2628683" lon="11.6797167"><ele>97.19999999999999</ele><time>2026-04-26T11:13:36.567Z</time></trkpt><trkpt lat="44.2627983" lon="11.6797967"><ele>97.80000000000001</ele><time>2026-04-26T11:13:37.573Z</time></trkpt><trkpt lat="44.2627267" lon="11.679885"><ele>98.4</ele><time>2026-04-26T11:13:38.587Z</time></trkpt><trkpt lat="44.2626483" lon="11.6799767"><ele>99.0</ele><time>2026-04-26T11:13:39.576Z</time></trkpt><trkpt lat="44.2625683" lon="11.6800633"><ele>99.0</ele><time>2026-04-26T11:13:40.577Z</time></trkpt><trkpt lat="44.2624867" lon="11.6801517"><ele>99.0</ele><time>2026-04-26T11:13:41.583Z</time></trkpt><trkpt lat="44.2624033" lon="11.68024"><ele>99.0</ele><time>2026-04-26T11:13:42.576Z</time></trkpt><trkpt lat="44.2623267" lon="11.6803317"><ele>99.0</ele><time>2026-04-26T11:13:43.58Z</time></trkpt><trkpt lat="44.26225" lon="11.68042"><ele>99.0</ele><time>2026-04-26T11:13:44.575Z</time></trkpt><trkpt lat="44.2621783" lon="11.6805083"><ele>99.33333333333333</ele><time>2026-04-26T11:13:45.572Z</time></trkpt><trkpt lat="44.2621033" lon="11.68059"><ele>99.66666666666666</ele><time>2026-04-26T11:13:46.584Z</time></trkpt><trkpt lat="44.2620283" lon="11.6806617"><ele>100.0</ele><time>2026-04-26T11:13:47.576Z</time></trkpt><trkpt lat="44.2619533" lon="11.68073"><ele>100.33333333333333</ele><time>2026-04-26T11:13:48.571Z</time></trkpt><trkpt lat="44.2618817" lon="11.680795"><ele>100.66666666666666</ele><time>2026-04-26T11:13:49.573Z</time></trkpt><trkpt lat="44.26181" lon="11.6808533"><ele>101.0</ele><time>2026-04-26T11:13:50.564Z</time></trkpt><trkpt lat="44.2617417" lon="11.6809033"><ele>100.99999999999999</ele><time>2026-04-26T11:13:51.569Z</time></trkpt><trkpt lat="44.2616833" lon="11.6809517"><ele>101.0</ele><time>2026-04-26T11:13:52.583Z</time></trkpt><trkpt lat="44.2616183" lon="11.681055"><ele>101.0</ele><time>2026-04-26T11:13:54.574Z</time></trkpt><trkpt lat="44.2616417" lon="11.6811583"><ele>101.0</ele><time>2026-04-26T11:13:56.578Z</time></trkpt><trkpt lat="44.2617417" lon="11.6812417"><ele>100.99999999999999</ele><time>2026-04-26T11:13:58.58Z</time></trkpt><trkpt lat="44.2618117" lon="11.6812917"><ele>101.0</ele><time>2026-04-26T11:13:59.587Z</time></trkpt><trkpt lat="44.2618867" lon="11.68135"><ele>102.4</ele><time>2026-04-26T11:14:00.582Z</time></trkpt><trkpt lat="44.2619633" lon="11.681415"><ele>103.8</ele><time>2026-04-26T11:14:01.599Z</time></trkpt><trkpt lat="44.262035" lon="11.6814883"><ele>105.20000000000002</ele><time>2026-04-26T11:14:02.58Z</time></trkpt><trkpt lat="44.26211" lon="11.681565"><ele>106.60000000000001</ele><time>2026-04-26T11:14:03.583Z</time></trkpt><trkpt lat="44.262185" lon="11.6816467"><ele>108.0</ele><time>2026-04-26T11:14:04.577Z</time></trkpt><trkpt lat="44.2622567" lon="11.6817333"><ele>106.2</ele><time>2026-04-26T11:14:05.564Z</time></trkpt><trkpt lat="44.2623233" lon="11.681825"><ele>104.4</ele><time>2026-04-26T11:14:06.574Z</time></trkpt><trkpt lat="44.2623783" lon="11.6819317"><ele>102.60000000000001</ele><time>2026-04-26T11:14:07.577Z</time></trkpt><trkpt lat="44.2624233" lon="11.6820467"><ele>100.80000000000001</ele><time>2026-04-26T11:14:08.583Z</time></trkpt><trkpt lat="44.2624633" lon="11.6821667"><ele>99.0</ele><time>2026-04-26T11:14:09.582Z</time></trkpt><trkpt lat="44.2625" lon="11.6822883"><ele>99.0</ele><time>2026-04-26T11:14:10.581Z</time></trkpt><trkpt lat="44.262535" lon="11.6824167"><ele>99.0</ele><time>2026-04-26T11:14:11.581Z</time></trkpt><trkpt lat="44.2625683" lon="11.6825433"><ele>99.0</ele><time>2026-04-26T11:14:12.591Z</time></trkpt><trkpt lat="44.262605" lon="11.6826717"><ele>99.0</ele><time>2026-04-26T11:14:13.577Z</time></trkpt><trkpt lat="44.2626467" lon="11.682795"><ele>99.0</ele><time>2026-04-26T11:14:14.574Z</time></trkpt><trkpt lat="44.2626867" lon="11.68292"><ele>99.80000000000001</ele><time>2026-04-26T11:14:15.581Z</time></trkpt><trkpt lat="44.2627217" lon="11.683045"><ele>100.60000000000001</ele><time>2026-04-26T11:14:16.567Z</time></trkpt><trkpt lat="44.262745" lon="11.6831717"><ele>101.4</ele><time>2026-04-26T11:14:17.573Z</time></trkpt><trkpt lat="44.2627683" lon="11.6833017"><ele>102.2</ele><time>2026-04-26T11:14:18.576Z</time></trkpt><trkpt lat="44.26279" lon="11.6834333"><ele>103.0</ele><time>2026-04-26T11:14:19.591Z</time></trkpt><trkpt lat="44.2628117" lon="11.683565"><ele>103.60000000000001</ele><time>2026-04-26T11:14:20.565Z</time></trkpt><trkpt lat="44.2628333" lon="11.6836933"><ele>104.2</ele><time>2026-04-26T11:14:21.573Z</time></trkpt><trkpt lat="44.2628583" lon="11.6838217"><ele>104.8</ele><time>2026-04-26T11:14:22.571Z</time></trkpt><trkpt lat="44.2628833" lon="11.6839533"><ele>105.4</ele><time>2026-04-26T11:14:23.578Z</time></trkpt><trkpt lat="44.26291" lon="11.6840883"><ele>106.0</ele><time>2026-04-26T11:14:24.585Z</time></trkpt><trkpt lat="44.2629317" lon="11.684225"><ele>106.0</ele><time>2026-04-26T11:14:25.578Z</time></trkpt><trkpt lat="44.2629517" lon="11.6843633"><ele>106.0</ele><time>2026-04-26T11:14:26.576Z</time></trkpt><trkpt lat="44.262975" lon="11.6845033"><ele>106.0</ele><time>2026-04-26T11:14:27.574Z</time></trkpt><trkpt lat="44.2630017" lon="11.68464"><ele>106.0</ele><time>2026-04-26T11:14:28.568Z</time></trkpt><trkpt lat="44.2630283" lon="11.6847783"><ele>106.0</ele><time>2026-04-26T11:14:29.588Z</time></trkpt><trkpt lat="44.2630533" lon="11.6849167"><ele>106.4</ele><time>2026-04-26T11:14:30.567Z</time></trkpt><trkpt lat="44.2630783" lon="11.685055"><ele>106.8</ele><time>2026-04-26T11:14:31.583Z</time></trkpt><trkpt lat="44.263105" lon="11.6851917"><ele>107.20000000000002</ele><time>2026-04-26T11:14:32.582Z</time></trkpt><trkpt lat="44.2631283" lon="11.6853267"><ele>107.60000000000001</ele><time>2026-04-26T11:14:33.572Z</time></trkpt><trkpt lat="44.263155" lon="11.68546"><ele>108.0</ele><time>2026-04-26T11:14:34.595Z</time></trkpt><trkpt lat="44.2631883" lon="11.685595"><ele>106.2</ele><time>2026-04-26T11:14:35.572Z</time></trkpt><trkpt lat="44.26323" lon="11.6857317"><ele>104.4</ele><time>2026-04-26T11:14:36.574Z</time></trkpt><trkpt lat="44.2632733" lon="11.6858733"><ele>102.60000000000001</ele><time>2026-04-26T11:14:37.576Z</time></trkpt><trkpt lat="44.2633217" lon="11.6860167"><ele>100.80000000000001</ele><time>2026-04-26T11:14:38.579Z</time></trkpt><trkpt lat="44.2633717" lon="11.68616"><ele>99.0</ele><time>2026-04-26T11:14:39.587Z</time></trkpt><trkpt lat="44.26343" lon="11.686295"><ele>99.0</ele><time>2026-04-26T11:14:40.582Z</time></trkpt><trkpt lat="44.2634883" lon="11.6864233"><ele>99.0</ele><time>2026-04-26T11:14:41.567Z</time></trkpt><trkpt lat="44.2635483" lon="11.6865467"><ele>99.0</ele><time>2026-04-26T11:14:42.574Z</time></trkpt><trkpt lat="44.263605" lon="11.68667"><ele>99.0</ele><time>2026-04-26T11:14:43.585Z</time></trkpt><trkpt lat="44.2636633" lon="11.6867933"><ele>99.0</ele><time>2026-04-26T11:14:44.575Z</time></trkpt><trkpt lat="44.2637267" lon="11.6869217"><ele>98.4</ele><time>2026-04-26T11:14:45.581Z</time></trkpt><trkpt lat="44.2637933" lon="11.687045"><ele>97.80000000000001</ele><time>2026-04-26T11:14:46.58Z</time></trkpt><trkpt lat="44.2638633" lon="11.6871583"><ele>97.19999999999999</ele><time>2026-04-26T11:14:47.569Z</time></trkpt><trkpt lat="44.263935" lon="11.6872617"><ele>96.6</ele><time>2026-04-26T11:14:48.581Z</time></trkpt><trkpt lat="44.2640133" lon="11.68736"><ele>96.0</ele><time>2026-04-26T11:14:49.578Z</time></trkpt><trkpt lat="44.2640967" lon="11.6874467"><ele>96.0</ele><time>2026-04-26T11:14:50.56Z</time></trkpt><trkpt lat="44.2641767" lon="11.6875217"><ele>96.0</ele><time>2026-04-26T11:14:51.575Z</time></trkpt><trkpt lat="44.26426" lon="11.6875833"><ele>96.0</ele><time>2026-04-26T11:14:52.577Z</time></trkpt><trkpt lat="44.2643417" lon="11.6876267"><ele>96.0</ele><time>2026-04-26T11:14:53.574Z</time></trkpt><trkpt lat="44.2644183" lon="11.6876717"><ele>96.0</ele><time>2026-04-26T11:14:54.581Z</time></trkpt><trkpt lat="44.2644917" lon="11.6876983"><ele>96.0</ele><time>2026-04-26T11:14:55.583Z</time></trkpt><trkpt lat="44.2645717" lon="11.6877233"><ele>96.0</ele><time>2026-04-26T11:14:56.578Z</time></trkpt><trkpt lat="44.2646533" lon="11.687745"><ele>96.0</ele><time>2026-04-26T11:14:57.574Z</time></trkpt><trkpt lat="44.264745" lon="11.68776"><ele>96.0</ele><time>2026-04-26T11:14:58.575Z</time></trkpt><trkpt lat="44.26484" lon="11.687775"><ele>96.0</ele><time>2026-04-26T11:14:59.577Z</time></trkpt><trkpt lat="44.2649367" lon="11.68779"><ele>96.0</ele><time>2026-04-26T11:15:00.572Z</time></trkpt><trkpt lat="44.265035" lon="11.6878083"><ele>98.4</ele><time>2026-04-26T11:15:01.568Z</time></trkpt><trkpt lat="44.2651367" lon="11.687825"><ele>100.8</ele><time>2026-04-26T11:15:02.576Z</time></trkpt><trkpt lat="44.265235" lon="11.6878383"><ele>103.20000000000002</ele><time>2026-04-26T11:15:03.576Z</time></trkpt><trkpt lat="44.265335" lon="11.6878533"><ele>105.60000000000001</ele><time>2026-04-26T11:15:04.58Z</time></trkpt><trkpt lat="44.265435" lon="11.68787"><ele>108.0</ele><time>2026-04-26T11:15:05.566Z</time></trkpt><trkpt lat="44.2655383" lon="11.6878833"><ele>104.80000000000001</ele><time>2026-04-26T11:15:06.566Z</time></trkpt><trkpt lat="44.26564" lon="11.6878917"><ele>101.60000000000001</ele><time>2026-04-26T11:15:07.576Z</time></trkpt><trkpt lat="44.2657417" lon="11.6878933"><ele>98.4</ele><time>2026-04-26T11:15:08.567Z</time></trkpt><trkpt lat="44.26584" lon="11.687895"><ele>95.19999999999999</ele><time>2026-04-26T11:15:09.576Z</time></trkpt><trkpt lat="44.26594" lon="11.6878933"><ele>92.0</ele><time>2026-04-26T11:15:10.581Z</time></trkpt><trkpt lat="44.266035" lon="11.68789"><ele>92.0</ele><time>2026-04-26T11:15:11.569Z</time></trkpt><trkpt lat="44.26613" lon="11.68789"><ele>92.0</ele><time>2026-04-26T11:15:12.577Z</time></trkpt><trkpt lat="44.2662267" lon="11.6878783"><ele>92.0</ele><time>2026-04-26T11:15:13.571Z</time></trkpt><trkpt lat="44.2663233" lon="11.6878583"><ele>92.0</ele><time>2026-04-26T11:15:14.575Z</time></trkpt><trkpt lat="44.2664217" lon="11.687835"><ele>92.0</ele><time>2026-04-26T11:15:15.585Z</time></trkpt><trkpt lat="44.26652" lon="11.68781"><ele>90.8</ele><time>2026-04-26T11:15:16.573Z</time></trkpt><trkpt lat="44.2666167" lon="11.6877817"><ele>89.6</ele><time>2026-04-26T11:15:17.583Z</time></trkpt><trkpt lat="44.266715" lon="11.6877533"><ele>88.39999999999999</ele><time>2026-04-26T11:15:18.577Z</time></trkpt><trkpt lat="44.26681" lon="11.6877267"><ele>87.19999999999999</ele><time>2026-04-26T11:15:19.569Z</time></trkpt><trkpt lat="44.2669033" lon="11.6877"><ele>86.0</ele><time>2026-04-26T11:15:20.572Z</time></trkpt><trkpt lat="44.266995" lon="11.687675"><ele>86.0</ele><time>2026-04-26T11:15:21.57Z</time></trkpt><trkpt lat="44.2670867" lon="11.6876583"><ele>86.0</ele><time>2026-04-26T11:15:22.573Z</time></trkpt><trkpt lat="44.2671733" lon="11.68765"><ele>86.0</ele><time>2026-04-26T11:15:23.572Z</time></trkpt><trkpt lat="44.2672467" lon="11.6876583"><ele>86.0</ele><time>2026-04-26T11:15:24.584Z</time></trkpt><trkpt lat="44.2673433" lon="11.68776"><ele>86.0</ele><time>2026-04-26T11:15:26.573Z</time></trkpt><trkpt lat="44.2673567" lon="11.6878717"><ele>86.0</ele><time>2026-04-26T11:15:27.576Z</time></trkpt><trkpt lat="44.2673617" lon="11.6879917"><ele>86.0</ele><time>2026-04-26T11:15:28.584Z</time></trkpt><trkpt lat="44.2673633" lon="11.68812"><ele>86.0</ele><time>2026-04-26T11:15:29.576Z</time></trkpt><trkpt lat="44.267365" lon="11.688255"><ele>86.0</ele><time>2026-04-26T11:15:30.572Z</time></trkpt><trkpt lat="44.2673667" lon="11.6883867"><ele>86.0</ele><time>2026-04-26T11:15:31.578Z</time></trkpt><trkpt lat="44.2673683" lon="11.6885083"><ele>85.66666666666667</ele><time>2026-04-26T11:15:32.578Z</time></trkpt><trkpt lat="44.2673617" lon="11.6886183"><ele>85.33333333333334</ele><time>2026-04-26T11:15:33.575Z</time></trkpt><trkpt lat="44.267335" lon="11.688715"><ele>85.0</ele><time>2026-04-26T11:15:34.593Z</time></trkpt><trkpt lat="44.26729" lon="11.688805"><ele>84.66666666666667</ele><time>2026-04-26T11:15:35.577Z</time></trkpt><trkpt lat="44.2672417" lon="11.6888983"><ele>84.33333333333333</ele><time>2026-04-26T11:15:36.578Z</time></trkpt><trkpt lat="44.2672" lon="11.6890117"><ele>84.0</ele><time>2026-04-26T11:15:37.572Z</time></trkpt><trkpt lat="44.26717" lon="11.6891383"><ele>84.0</ele><time>2026-04-26T11:15:38.578Z</time></trkpt><trkpt lat="44.267145" lon="11.6892783"><ele>84.0</ele><time>2026-04-26T11:15:39.583Z</time></trkpt><trkpt lat="44.2671233" lon="11.6894267"><ele>84.0</ele><time>2026-04-26T11:15:40.569Z</time></trkpt><trkpt lat="44.2671017" lon="11.6895783"><ele>84.0</ele><time>2026-04-26T11:15:41.58Z</time></trkpt><trkpt lat="44.2670783" lon="11.6897317"><ele>84.0</ele><time>2026-04-26T11:15:42.571Z</time></trkpt><trkpt lat="44.267055" lon="11.6898833"><ele>84.0</ele><time>2026-04-26T11:15:43.577Z</time></trkpt><trkpt lat="44.2670333" lon="11.6900333"><ele>84.0</ele><time>2026-04-26T11:15:44.583Z</time></trkpt><trkpt lat="44.267015" lon="11.6901717"><ele>84.0</ele><time>2026-04-26T11:15:45.576Z</time></trkpt><trkpt lat="44.2669983" lon="11.6903"><ele>84.0</ele><time>2026-04-26T11:15:46.575Z</time></trkpt><trkpt lat="44.2669817" lon="11.6904233"><ele>84.0</ele><time>2026-04-26T11:15:47.564Z</time></trkpt><trkpt lat="44.2669683" lon="11.6905383"><ele>83.83333333333333</ele><time>2026-04-26T11:15:48.571Z</time></trkpt><trkpt lat="44.2669567" lon="11.6906367"><ele>83.66666666666667</ele><time>2026-04-26T11:15:49.568Z</time></trkpt><trkpt lat="44.2669233" lon="11.69079"><ele>83.5</ele><time>2026-04-26T11:15:51.574Z</time></trkpt><trkpt lat="44.2668283" lon="11.6908217"><ele>83.33333333333334</ele><time>2026-04-26T11:15:53.581Z</time></trkpt><trkpt lat="44.26676" lon="11.690795"><ele>83.16666666666667</ele><time>2026-04-26T11:15:54.569Z</time></trkpt><trkpt lat="44.26668" lon="11.6907583"><ele>83.0</ele><time>2026-04-26T11:15:55.581Z</time></trkpt><trkpt lat="44.2665933" lon="11.690715"><ele>83.0</ele><time>2026-04-26T11:15:56.574Z</time></trkpt><trkpt lat="44.2665" lon="11.690675"><ele>83.0</ele><time>2026-04-26T11:15:57.575Z</time></trkpt><trkpt lat="44.2664017" lon="11.690635"><ele>83.0</ele><time>2026-04-26T11:15:58.577Z</time></trkpt><trkpt lat="44.2663067" lon="11.6905967"><ele>83.0</ele><time>2026-04-26T11:15:59.574Z</time></trkpt><trkpt lat="44.266215" lon="11.6905533"><ele>83.0</ele><time>2026-04-26T11:16:00.577Z</time></trkpt><trkpt lat="44.2661367" lon="11.6904933"><ele>83.66666666666667</ele><time>2026-04-26T11:16:01.574Z</time></trkpt><trkpt lat="44.2660717" lon="11.6904217"><ele>84.33333333333334</ele><time>2026-04-26T11:16:02.581Z</time></trkpt><trkpt lat="44.2660117" lon="11.6903467"><ele>85.0</ele><time>2026-04-26T11:16:03.572Z</time></trkpt><trkpt lat="44.265955" lon="11.690285"><ele>85.66666666666667</ele><time>2026-04-26T11:16:04.585Z</time></trkpt><trkpt lat="44.265855" lon="11.6902117"><ele>86.33333333333333</ele><time>2026-04-26T11:16:06.579Z</time></trkpt><trkpt lat="44.265765" lon="11.69024"><ele>87.0</ele><time>2026-04-26T11:16:08.571Z</time></trkpt><trkpt lat="44.2657383" lon="11.6904133"><ele>87.0</ele><time>2026-04-26T11:16:10.561Z</time></trkpt><trkpt lat="44.2657217" lon="11.6905167"><ele>87.0</ele><time>2026-04-26T11:16:11.569Z</time></trkpt><trkpt lat="44.2656983" lon="11.69063"><ele>87.0</ele><time>2026-04-26T11:16:12.58Z</time></trkpt><trkpt lat="44.2656617" lon="11.6907483"><ele>87.0</ele><time>2026-04-26T11:16:13.581Z</time></trkpt><trkpt lat="44.265625" lon="11.6908767"><ele>87.0</ele><time>2026-04-26T11:16:14.575Z</time></trkpt><trkpt lat="44.2655883" lon="11.6910083"><ele>88.0</ele><time>2026-04-26T11:16:15.576Z</time></trkpt><trkpt lat="44.26555" lon="11.6911467"><ele>89.0</ele><time>2026-04-26T11:16:16.588Z</time></trkpt><trkpt lat="44.2655017" lon="11.6912833"><ele>90.0</ele><time>2026-04-26T11:16:17.566Z</time></trkpt><trkpt lat="44.2654467" lon="11.6914217"><ele>91.0</ele><time>2026-04-26T11:16:18.576Z</time></trkpt><trkpt lat="44.2653933" lon="11.6915567"><ele>92.0</ele><time>2026-04-26T11:16:19.568Z</time></trkpt><trkpt lat="44.265335" lon="11.6916917"><ele>92.0</ele><time>2026-04-26T11:16:20.576Z</time></trkpt><trkpt lat="44.2652767" lon="11.6918283"><ele>92.0</ele><time>2026-04-26T11:16:21.583Z</time></trkpt><trkpt lat="44.2652167" lon="11.6919717"><ele>92.0</ele><time>2026-04-26T11:16:22.575Z</time></trkpt><trkpt lat="44.2651567" lon="11.6921183"><ele>92.0</ele><time>2026-04-26T11:16:23.574Z</time></trkpt><trkpt lat="44.2650983" lon="11.69227"><ele>90.0</ele><time>2026-04-26T11:16:24.57Z</time></trkpt><trkpt lat="44.26504" lon="11.692425"><ele>88.0</ele><time>2026-04-26T11:16:25.56Z</time></trkpt><trkpt lat="44.264975" lon="11.69258"><ele>86.0</ele><time>2026-04-26T11:16:26.57Z</time></trkpt><trkpt lat="44.2649083" lon="11.692735"><ele>84.0</ele><time>2026-04-26T11:16:27.58Z</time></trkpt><trkpt lat="44.2648433" lon="11.6928883"><ele>83.80000000000001</ele><time>2026-04-26T11:16:28.578Z</time></trkpt><trkpt lat="44.2647833" lon="11.6930367"><ele>83.60000000000001</ele><time>2026-04-26T11:16:29.59Z</time></trkpt><trkpt lat="44.26473" lon="11.693175"><ele>83.4</ele><time>2026-04-26T11:16:30.574Z</time></trkpt><trkpt lat="44.2646767" lon="11.6933033"><ele>83.2</ele><time>2026-04-26T11:16:31.592Z</time></trkpt><trkpt lat="44.2646183" lon="11.6934217"><ele>83.0</ele><time>2026-04-26T11:16:32.574Z</time></trkpt><trkpt lat="44.264555" lon="11.6935317"><ele>83.2</ele><time>2026-04-26T11:16:33.576Z</time></trkpt><trkpt lat="44.2644833" lon="11.6936333"><ele>83.4</ele><time>2026-04-26T11:16:34.575Z</time></trkpt><trkpt lat="44.2644067" lon="11.69373"><ele>83.60000000000001</ele><time>2026-04-26T11:16:35.575Z</time></trkpt><trkpt lat="44.264325" lon="11.6938217"><ele>83.80000000000001</ele><time>2026-04-26T11:16:36.577Z</time></trkpt><trkpt lat="44.2642417" lon="11.6939133"><ele>84.0</ele><time>2026-04-26T11:16:37.575Z</time></trkpt><trkpt lat="44.2641583" lon="11.6940083"><ele>84.0</ele><time>2026-04-26T11:16:38.581Z</time></trkpt><trkpt lat="44.2640733" lon="11.6941033"><ele>84.0</ele><time>2026-04-26T11:16:39.576Z</time></trkpt><trkpt lat="44.2639883" lon="11.6941967"><ele>84.0</ele><time>2026-04-26T11:16:40.576Z</time></trkpt><trkpt lat="44.2639083" lon="11.69428"><ele>84.0</ele><time>2026-04-26T11:16:41.564Z</time></trkpt><trkpt lat="44.2638283" lon="11.69434"><ele>84.0</ele><time>2026-04-26T11:16:42.576Z</time></trkpt><trkpt lat="44.26375" lon="11.6943733"><ele>84.85714285714286</ele><time>2026-04-26T11:16:43.572Z</time></trkpt><trkpt lat="44.2636767" lon="11.6943767"><ele>85.71428571428572</ele><time>2026-04-26T11:16:44.575Z</time></trkpt><trkpt lat="44.2636117" lon="11.694345"><ele>86.57142857142857</ele><time>2026-04-26T11:16:45.58Z</time></trkpt><trkpt lat="44.263555" lon="11.6942883"><ele>87.42857142857143</ele><time>2026-04-26T11:16:46.579Z</time></trkpt><trkpt lat="44.2635033" lon="11.6942367"><ele>88.28571428571429</ele><time>2026-04-26T11:16:47.567Z</time></trkpt><trkpt lat="44.26342" lon="11.6942183"><ele>89.14285714285714</ele><time>2026-04-26T11:16:49.585Z</time></trkpt><trkpt lat="44.2633717" lon="11.6943167"><ele>90.0</ele><time>2026-04-26T11:16:51.58Z</time></trkpt><trkpt lat="44.263385" lon="11.6944483"><ele>92.8</ele><time>2026-04-26T11:16:53.57Z</time></trkpt><trkpt lat="44.263455" lon="11.694605"><ele>95.6</ele><time>2026-04-26T11:16:55.567Z</time></trkpt><trkpt lat="44.2635033" lon="11.694695"><ele>98.4</ele><time>2026-04-26T11:16:56.559Z</time></trkpt><trkpt lat="44.2635567" lon="11.6948017"><ele>101.2</ele><time>2026-04-26T11:16:57.567Z</time></trkpt><trkpt lat="44.263615" lon="11.6949283"><ele>104.0</ele><time>2026-04-26T11:16:58.571Z</time></trkpt><trkpt lat="44.263665" lon="11.6950583"><ele>104.0</ele><time>2026-04-26T11:16:59.576Z</time></trkpt><trkpt lat="44.2637167" lon="11.695185"><ele>104.0</ele><time>2026-04-26T11:17:00.567Z</time></trkpt><trkpt lat="44.26377" lon="11.6953067"><ele>104.0</ele><time>2026-04-26T11:17:01.572Z</time></trkpt><trkpt lat="44.26383" lon="11.6954183"><ele>104.0</ele><time>2026-04-26T11:17:02.579Z</time></trkpt><trkpt lat="44.2639017" lon="11.695525"><ele>104.0</ele><time>2026-04-26T11:17:03.571Z</time></trkpt><trkpt lat="44.26398" lon="11.6956183"><ele>102.0</ele><time>2026-04-26T11:17:04.571Z</time></trkpt><trkpt lat="44.2640733" lon="11.6956983"><ele>100.0</ele><time>2026-04-26T11:17:05.608Z</time></trkpt><trkpt lat="44.264175" lon="11.6957633"><ele>98.0</ele><time>2026-04-26T11:17:06.582Z</time></trkpt><trkpt lat="44.26428" lon="11.6958233"><ele>96.0</ele><time>2026-04-26T11:17:07.57Z</time></trkpt><trkpt lat="44.2643933" lon="11.6958933"><ele>96.0</ele><time>2026-04-26T11:17:08.571Z</time></trkpt><trkpt lat="44.2645017" lon="11.695965"><ele>96.0</ele><time>2026-04-26T11:17:09.571Z</time></trkpt><trkpt lat="44.2646067" lon="11.6960383"><ele>96.0</ele><time>2026-04-26T11:17:10.557Z</time></trkpt><trkpt lat="44.2647083" lon="11.6961117"><ele>96.0</ele><time>2026-04-26T11:17:11.567Z</time></trkpt><trkpt lat="44.264805" lon="11.6961817"><ele>95.4</ele><time>2026-04-26T11:17:12.574Z</time></trkpt><trkpt lat="44.2648983" lon="11.6962517"><ele>94.8</ele><time>2026-04-26T11:17:13.568Z</time></trkpt><trkpt lat="44.264985" lon="11.6963167"><ele>94.2</ele><time>2026-04-26T11:17:14.593Z</time></trkpt><trkpt lat="44.265065" lon="11.6963783"><ele>93.60000000000001</ele><time>2026-04-26T11:17:15.577Z</time></trkpt><trkpt lat="44.26514" lon="11.6964383"><ele>93.0</ele><time>2026-04-26T11:17:16.576Z</time></trkpt><trkpt lat="44.2652167" lon="11.6964883"><ele>93.0</ele><time>2026-04-26T11:17:17.577Z</time></trkpt><trkpt lat="44.2652933" lon="11.69653"><ele>93.0</ele><time>2026-04-26T11:17:18.567Z</time></trkpt><trkpt lat="44.26537" lon="11.69657"><ele>93.0</ele><time>2026-04-26T11:17:19.572Z</time></trkpt><trkpt lat="44.2654533" lon="11.69661"><ele>93.0</ele><time>2026-04-26T11:17:20.586Z</time></trkpt><trkpt lat="44.2655417" lon="11.6966533"><ele>93.0</ele><time>2026-04-26T11:17:21.585Z</time></trkpt><trkpt lat="44.2656333" lon="11.6967017"><ele>93.0</ele><time>2026-04-26T11:17:22.582Z</time></trkpt><trkpt lat="44.2657267" lon="11.6967583"><ele>91.60000000000001</ele><time>2026-04-26T11:17:23.581Z</time></trkpt><trkpt lat="44.2658217" lon="11.696825"><ele>90.2</ele><time>2026-04-26T11:17:24.577Z</time></trkpt><trkpt lat="44.2659167" lon="11.696895"><ele>88.8</ele><time>2026-04-26T11:17:25.571Z</time></trkpt><trkpt lat="44.2660083" lon="11.6969683"><ele>87.4</ele><time>2026-04-26T11:17:26.571Z</time></trkpt><trkpt lat="44.2660983" lon="11.6970383"><ele>86.0</ele><time>2026-04-26T11:17:27.572Z</time></trkpt><trkpt lat="44.2661883" lon="11.6971067"><ele>86.0</ele><time>2026-04-26T11:17:28.584Z</time></trkpt><trkpt lat="44.2662817" lon="11.6971683"><ele>86.0</ele><time>2026-04-26T11:17:29.578Z</time></trkpt><trkpt lat="44.266375" lon="11.6972267"><ele>86.0</ele><time>2026-04-26T11:17:30.577Z</time></trkpt><trkpt lat="44.26647" lon="11.6972817"><ele>86.0</ele><time>2026-04-26T11:17:31.57Z</time></trkpt><trkpt lat="44.2665633" lon="11.697335"><ele>86.0</ele><time>2026-04-26T11:17:32.58Z</time></trkpt><trkpt lat="44.2666483" lon="11.6973833"><ele>85.16666666666667</ele><time>2026-04-26T11:17:33.576Z</time></trkpt><trkpt lat="44.2667267" lon="11.6974283"><ele>84.33333333333334</ele><time>2026-04-26T11:17:34.581Z</time></trkpt><trkpt lat="44.2668" lon="11.6974683"><ele>83.5</ele><time>2026-04-26T11:17:35.574Z</time></trkpt><trkpt lat="44.2668633" lon="11.6975083"><ele>82.66666666666667</ele><time>2026-04-26T11:17:36.583Z</time></trkpt><trkpt lat="44.2669567" lon="11.6975833"><ele>81.83333333333333</ele><time>2026-04-26T11:17:38.57Z</time></trkpt><trkpt lat="44.26703" lon="11.6976183"><ele>81.0</ele><time>2026-04-26T11:17:48.569Z</time></trkpt><trkpt lat="44.2670783" lon="11.6975117"><ele>81.0</ele><time>2026-04-26T11:17:50.582Z</time></trkpt><trkpt lat="44.2671383" lon="11.6973667"><ele>81.0</ele><time>2026-04-26T11:17:52.574Z</time></trkpt><trkpt lat="44.2671717" lon="11.697285"><ele>81.0</ele><time>2026-04-26T11:17:53.57Z</time></trkpt><trkpt lat="44.2672067" lon="11.6972033"><ele>81.0</ele><time>2026-04-26T11:17:54.574Z</time></trkpt><trkpt lat="44.2672583" lon="11.6970883"><ele>81.0</ele><time>2026-04-26T11:17:56.566Z</time></trkpt><trkpt lat="44.267305" lon="11.6970183"><ele>81.0</ele><time>2026-04-26T11:17:59.563Z</time></trkpt><trkpt lat="44.2673483" lon="11.696925"><ele>81.19999999999999</ele><time>2026-04-26T11:18:02.573Z</time></trkpt><trkpt lat="44.2673883" lon="11.6967867"><ele>81.39999999999999</ele><time>2026-04-26T11:18:04.574Z</time></trkpt><trkpt lat="44.267445" lon="11.6966217"><ele>81.6</ele><time>2026-04-26T11:18:06.566Z</time></trkpt><trkpt lat="44.26748" lon="11.696535"><ele>81.8</ele><time>2026-04-26T11:18:07.57Z</time></trkpt><trkpt lat="44.2675067" lon="11.696435"><ele>82.0</ele><time>2026-04-26T11:18:08.574Z</time></trkpt><trkpt lat="44.2675333" lon="11.6963333"><ele>82.0</ele><time>2026-04-26T11:18:09.569Z</time></trkpt><trkpt lat="44.2675617" lon="11.6962283"><ele>82.0</ele><time>2026-04-26T11:18:10.582Z</time></trkpt><trkpt lat="44.2675933" lon="11.6961217"><ele>82.0</ele><time>2026-04-26T11:18:11.565Z</time></trkpt><trkpt lat="44.2676233" lon="11.6960217"><ele>82.0</ele><time>2026-04-26T11:18:12.569Z</time></trkpt><trkpt lat="44.2676517" lon="11.6959283"><ele>82.0</ele><time>2026-04-26T11:18:13.567Z</time></trkpt><trkpt lat="44.2676983" lon="11.6957967"><ele>82.0</ele><time>2026-04-26T11:18:15.582Z</time></trkpt><trkpt lat="44.2677433" lon="11.695725"><ele>82.0</ele><time>2026-04-26T11:18:18.571Z</time></trkpt><trkpt lat="44.2676817" lon="11.6958133"><ele>82.0</ele><time>2026-04-26T11:18:33.578Z</time></trkpt><trkpt lat="44.26765" lon="11.6959617"><ele>82.0</ele><time>2026-04-26T11:18:35.576Z</time></trkpt><trkpt lat="44.2676317" lon="11.69606"><ele>82.0</ele><time>2026-04-26T11:18:36.572Z</time></trkpt><trkpt lat="44.2676083" lon="11.6961583"><ele>82.0</ele><time>2026-04-26T11:18:37.579Z</time></trkpt><trkpt lat="44.2675833" lon="11.6962517"><ele>82.0</ele><time>2026-04-26T11:18:38.579Z</time></trkpt><trkpt lat="44.267555" lon="11.6963433"><ele>82.0</ele><time>2026-04-26T11:18:39.582Z</time></trkpt><trkpt lat="44.267525" lon="11.6964283"><ele>82.0</ele><time>2026-04-26T11:18:40.574Z</time></trkpt><trkpt lat="44.2674917" lon="11.6965133"><ele>82.0</ele><time>2026-04-26T11:18:41.584Z</time></trkpt><trkpt lat="44.2674583" lon="11.6965967"><ele>82.0</ele><time>2026-04-26T11:18:42.572Z</time></trkpt><trkpt lat="44.2674267" lon="11.696675"><ele>82.0</ele><time>2026-04-26T11:18:43.588Z</time></trkpt><trkpt lat="44.267375" lon="11.69682"><ele>82.0</ele><time>2026-04-26T11:18:45.589Z</time></trkpt><trkpt lat="44.267335" lon="11.6969267"><ele>81.6</ele><time>2026-04-26T11:18:47.578Z</time></trkpt><trkpt lat="44.267335" lon="11.6970433"><ele>81.19999999999999</ele><time>2026-04-26T11:18:50.575Z</time></trkpt><trkpt lat="44.267395" lon="11.6971317"><ele>80.8</ele><time>2026-04-26T11:18:52.567Z</time></trkpt><trkpt lat="44.2675167" lon="11.69722"><ele>80.4</ele><time>2026-04-26T11:18:54.569Z</time></trkpt><trkpt lat="44.26759" lon="11.697275"><ele>80.0</ele><time>2026-04-26T11:18:55.577Z</time></trkpt><trkpt lat="44.2676633" lon="11.6973317"><ele>80.0</ele><time>2026-04-26T11:18:56.581Z</time></trkpt><trkpt lat="44.2677367" lon="11.6973933"><ele>80.0</ele><time>2026-04-26T11:18:57.58Z</time></trkpt><trkpt lat="44.2678117" lon="11.6974617"><ele>80.0</ele><time>2026-04-26T11:18:58.59Z</time></trkpt><trkpt lat="44.2678933" lon="11.6975333"><ele>80.0</ele><time>2026-04-26T11:18:59.57Z</time></trkpt><trkpt lat="44.2679717" lon="11.6976083"><ele>80.0</ele><time>2026-04-26T11:19:00.574Z</time></trkpt><trkpt lat="44.2680533" lon="11.6976917"><ele>80.4</ele><time>2026-04-26T11:19:01.561Z</time></trkpt><trkpt lat="44.2681383" lon="11.6977783"><ele>80.8</ele><time>2026-04-26T11:19:02.574Z</time></trkpt><trkpt lat="44.2682217" lon="11.6978667"><ele>81.19999999999999</ele><time>2026-04-26T11:19:03.565Z</time></trkpt><trkpt lat="44.268305" lon="11.6979583"><ele>81.6</ele><time>2026-04-26T11:19:04.569Z</time></trkpt><trkpt lat="44.2683883" lon="11.6980533"><ele>82.0</ele><time>2026-04-26T11:19:05.581Z</time></trkpt><trkpt lat="44.2684683" lon="11.69815"><ele>82.0</ele><time>2026-04-26T11:19:06.581Z</time></trkpt><trkpt lat="44.26854" lon="11.6982483"><ele>82.0</ele><time>2026-04-26T11:19:07.567Z</time></trkpt><trkpt lat="44.2686" lon="11.6983367"><ele>82.0</ele><time>2026-04-26T11:19:08.594Z</time></trkpt><trkpt lat="44.2686467" lon="11.6984"><ele>82.0</ele><time>2026-04-26T11:19:09.573Z</time></trkpt><trkpt lat="44.2687" lon="11.6984683"><ele>82.0</ele><time>2026-04-26T11:19:11.574Z</time></trkpt><trkpt lat="44.2687583" lon="11.6984267"><ele>82.0</ele><time>2026-04-26T11:19:25.574Z</time></trkpt><trkpt lat="44.2688183" lon="11.6982767"><ele>82.0</ele><time>2026-04-26T11:19:27.575Z</time></trkpt><trkpt lat="44.268865" lon="11.6981967"><ele>82.0</ele><time>2026-04-26T11:19:28.577Z</time></trkpt><trkpt lat="44.268915" lon="11.69811"><ele>82.0</ele><time>2026-04-26T11:19:29.579Z</time></trkpt><trkpt lat="44.2689683" lon="11.69802"><ele>82.0</ele><time>2026-04-26T11:19:30.57Z</time></trkpt><trkpt lat="44.2690267" lon="11.6979317"><ele>82.0</ele><time>2026-04-26T11:19:31.575Z</time></trkpt><trkpt lat="44.2690917" lon="11.6978533"><ele>82.0</ele><time>2026-04-26T11:19:32.579Z</time></trkpt><trkpt lat="44.2691617" lon="11.6977817"><ele>81.19999999999999</ele><time>2026-04-26T11:19:33.567Z</time></trkpt><trkpt lat="44.2692333" lon="11.6977067"><ele>80.39999999999999</ele><time>2026-04-26T11:19:34.567Z</time></trkpt><trkpt lat="44.2693067" lon="11.69763"><ele>79.6</ele><time>2026-04-26T11:19:35.579Z</time></trkpt><trkpt lat="44.2693817" lon="11.6975567"><ele>78.8</ele><time>2026-04-26T11:19:36.579Z</time></trkpt><trkpt lat="44.2694583" lon="11.6974817"><ele>78.0</ele><time>2026-04-26T11:19:37.567Z</time></trkpt><trkpt lat="44.2695367" lon="11.6974083"><ele>78.0</ele><time>2026-04-26T11:19:38.57Z</time></trkpt><trkpt lat="44.2696117" lon="11.697325"><ele>78.0</ele><time>2026-04-26T11:19:39.577Z</time></trkpt><trkpt lat="44.2696783" lon="11.69723"><ele>78.0</ele><time>2026-04-26T11:19:40.566Z</time></trkpt><trkpt lat="44.2697467" lon="11.6971333"><ele>78.0</ele><time>2026-04-26T11:19:41.571Z</time></trkpt><trkpt lat="44.2698167" lon="11.6970367"><ele>78.0</ele><time>2026-04-26T11:19:42.578Z</time></trkpt><trkpt lat="44.269885" lon="11.6969383"><ele>78.6</ele><time>2026-04-26T11:19:43.576Z</time></trkpt><trkpt lat="44.2699533" lon="11.6968383"><ele>79.19999999999999</ele><time>2026-04-26T11:19:44.57Z</time></trkpt><trkpt lat="44.2700217" lon="11.6967333"><ele>79.8</ele><time>2026-04-26T11:19:45.582Z</time></trkpt><trkpt lat="44.2700867" lon="11.696625"><ele>80.39999999999999</ele><time>2026-04-26T11:19:46.57Z</time></trkpt><trkpt lat="44.2701517" lon="11.6965133"><ele>81.0</ele><time>2026-04-26T11:19:47.573Z</time></trkpt><trkpt lat="44.270215" lon="11.6964017"><ele>81.0</ele><time>2026-04-26T11:19:48.571Z</time></trkpt><trkpt lat="44.2702783" lon="11.6962983"><ele>81.0</ele><time>2026-04-26T11:19:49.563Z</time></trkpt><trkpt lat="44.2703433" lon="11.6962067"><ele>81.0</ele><time>2026-04-26T11:19:50.584Z</time></trkpt><trkpt lat="44.2704083" lon="11.6961217"><ele>81.0</ele><time>2026-04-26T11:19:51.57Z</time></trkpt><trkpt lat="44.2704817" lon="11.6960483"><ele>81.0</ele><time>2026-04-26T11:19:52.58Z</time></trkpt><trkpt lat="44.2705617" lon="11.6959883"><ele>83.19999999999999</ele><time>2026-04-26T11:19:53.576Z</time></trkpt><trkpt lat="44.2706417" lon="11.6959367"><ele>85.39999999999999</ele><time>2026-04-26T11:19:54.58Z</time></trkpt><trkpt lat="44.2707233" lon="11.6958867"><ele>87.6</ele><time>2026-04-26T11:19:55.574Z</time></trkpt><trkpt lat="44.2708033" lon="11.6958267"><ele>89.8</ele><time>2026-04-26T11:19:56.57Z</time></trkpt><trkpt lat="44.27089" lon="11.69576"><ele>92.0</ele><time>2026-04-26T11:19:57.571Z</time></trkpt><trkpt lat="44.2709717" lon="11.6956883"><ele>92.0</ele><time>2026-04-26T11:19:58.571Z</time></trkpt><trkpt lat="44.2710417" lon="11.695605"><ele>92.0</ele><time>2026-04-26T11:19:59.584Z</time></trkpt><trkpt lat="44.2711083" lon="11.69551"><ele>92.0</ele><time>2026-04-26T11:20:00.578Z</time></trkpt><trkpt lat="44.2711667" lon="11.6954017"><ele>92.0</ele><time>2026-04-26T11:20:01.579Z</time></trkpt><trkpt lat="44.2712117" lon="11.6953033"><ele>92.0</ele><time>2026-04-26T11:20:02.58Z</time></trkpt><trkpt lat="44.2712433" lon="11.6952233"><ele>92.0</ele><time>2026-04-26T11:20:03.592Z</time></trkpt><trkpt lat="44.2712617" lon="11.6950967"><ele>93.33333333333334</ele><time>2026-04-26T11:20:05.585Z</time></trkpt><trkpt lat="44.2712667" lon="11.6950017"><ele>94.66666666666667</ele><time>2026-04-26T11:20:13.584Z</time></trkpt><trkpt lat="44.2712167" lon="11.69491"><ele>96.0</ele><time>2026-04-26T11:20:16.573Z</time></trkpt><trkpt lat="44.271135" lon="11.6949417"><ele>97.33333333333334</ele><time>2026-04-26T11:20:18.568Z</time></trkpt><trkpt lat="44.2710267" lon="11.695015"><ele>98.66666666666667</ele><time>2026-04-26T11:20:20.578Z</time></trkpt><trkpt lat="44.2709667" lon="11.6950517"><ele>100.0</ele><time>2026-04-26T11:20:21.607Z</time></trkpt><trkpt lat="44.2709017" lon="11.6950767"><ele>100.00000000000001</ele><time>2026-04-26T11:20:22.574Z</time></trkpt><trkpt lat="44.270795" lon="11.6951"><ele>100.0</ele><time>2026-04-26T11:20:24.586Z</time></trkpt><trkpt lat="44.2707233" lon="11.6950767"><ele>100.0</ele><time>2026-04-26T11:20:26.561Z</time></trkpt><trkpt lat="44.270675" lon="11.695"><ele>100.0</ele><time>2026-04-26T11:20:28.571Z</time></trkpt><trkpt lat="44.27062" lon="11.6948633"><ele>100.00000000000001</ele><time>2026-04-26T11:20:30.577Z</time></trkpt><trkpt lat="44.2705933" lon="11.6947733"><ele>100.0</ele><time>2026-04-26T11:20:31.576Z</time></trkpt><trkpt lat="44.27057" lon="11.6946733"><ele>100.16666666666667</ele><time>2026-04-26T11:20:32.576Z</time></trkpt><trkpt lat="44.2705517" lon="11.694565"><ele>100.33333333333334</ele><time>2026-04-26T11:20:33.576Z</time></trkpt><trkpt lat="44.27054" lon="11.694455"><ele>100.5</ele><time>2026-04-26T11:20:34.574Z</time></trkpt><trkpt lat="44.2705367" lon="11.694345"><ele>100.66666666666666</ele><time>2026-04-26T11:20:35.57Z</time></trkpt><trkpt lat="44.27054" lon="11.69423"><ele>100.83333333333333</ele><time>2026-04-26T11:20:36.579Z</time></trkpt><trkpt lat="44.2705483" lon="11.69411"><ele>101.0</ele><time>2026-04-26T11:20:37.574Z</time></trkpt><trkpt lat="44.2705617" lon="11.6939883"><ele>101.0</ele><time>2026-04-26T11:20:38.587Z</time></trkpt><trkpt lat="44.2705817" lon="11.69386"><ele>101.0</ele><time>2026-04-26T11:20:39.594Z</time></trkpt><trkpt lat="44.2706117" lon="11.6937283"><ele>101.0</ele><time>2026-04-26T11:20:40.592Z</time></trkpt><trkpt lat="44.2706467" lon="11.69359"><ele>101.0</ele><time>2026-04-26T11:20:41.583Z</time></trkpt><trkpt lat="44.2706867" lon="11.69345"><ele>101.0</ele><time>2026-04-26T11:20:42.585Z</time></trkpt><trkpt lat="44.2707283" lon="11.693315"><ele>103.19999999999999</ele><time>2026-04-26T11:20:43.577Z</time></trkpt><trkpt lat="44.2707667" lon="11.6931833"><ele>105.39999999999999</ele><time>2026-04-26T11:20:44.572Z</time></trkpt><trkpt lat="44.2708033" lon="11.69305"><ele>107.6</ele><time>2026-04-26T11:20:45.579Z</time></trkpt><trkpt lat="44.2708383" lon="11.692915"><ele>109.8</ele><time>2026-04-26T11:20:46.591Z</time></trkpt><trkpt lat="44.2708717" lon="11.69278"><ele>112.0</ele><time>2026-04-26T11:20:47.577Z</time></trkpt><trkpt lat="44.2709" lon="11.6926383"><ele>112.19999999999999</ele><time>2026-04-26T11:20:48.581Z</time></trkpt><trkpt lat="44.2709267" lon="11.6924933"><ele>112.39999999999999</ele><time>2026-04-26T11:20:49.574Z</time></trkpt><trkpt lat="44.27095" lon="11.692345"><ele>112.60000000000001</ele><time>2026-04-26T11:20:50.576Z</time></trkpt><trkpt lat="44.270975" lon="11.6921917"><ele>112.80000000000001</ele><time>2026-04-26T11:20:51.577Z</time></trkpt><trkpt lat="44.271" lon="11.6920317"><ele>113.0</ele><time>2026-04-26T11:20:52.577Z</time></trkpt><trkpt lat="44.2710267" lon="11.6918683"><ele>112.5</ele><time>2026-04-26T11:20:53.57Z</time></trkpt><trkpt lat="44.2710517" lon="11.6916983"><ele>112.0</ele><time>2026-04-26T11:20:54.576Z</time></trkpt><trkpt lat="44.2710783" lon="11.691525"><ele>111.5</ele><time>2026-04-26T11:20:55.573Z</time></trkpt><trkpt lat="44.2711033" lon="11.691355"><ele>111.0</ele><time>2026-04-26T11:20:56.581Z</time></trkpt><trkpt lat="44.2711233" lon="11.6911933"><ele>109.5</ele><time>2026-04-26T11:20:57.58Z</time></trkpt><trkpt lat="44.2711317" lon="11.6910333"><ele>108.0</ele><time>2026-04-26T11:20:58.57Z</time></trkpt><trkpt lat="44.2711317" lon="11.690875"><ele>106.5</ele><time>2026-04-26T11:20:59.583Z</time></trkpt><trkpt lat="44.271125" lon="11.6907183"><ele>105.0</ele><time>2026-04-26T11:21:00.584Z</time></trkpt><trkpt lat="44.2711083" lon="11.6905617"><ele>105.0</ele><time>2026-04-26T11:21:01.567Z</time></trkpt><trkpt lat="44.271085" lon="11.6904067"><ele>105.0</ele><time>2026-04-26T11:21:02.586Z</time></trkpt><trkpt lat="44.2710517" lon="11.690255"><ele>105.0</ele><time>2026-04-26T11:21:03.585Z</time></trkpt><trkpt lat="44.271015" lon="11.6901033"><ele>105.0</ele><time>2026-04-26T11:21:04.566Z</time></trkpt><trkpt lat="44.27097" lon="11.68995"><ele>103.75</ele><time>2026-04-26T11:21:05.573Z</time></trkpt><trkpt lat="44.2709267" lon="11.6897983"><ele>102.5</ele><time>2026-04-26T11:21:06.592Z</time></trkpt><trkpt lat="44.27088" lon="11.689645"><ele>101.25</ele><time>2026-04-26T11:21:07.57Z</time></trkpt><trkpt lat="44.270835" lon="11.6894917"><ele>100.0</ele><time>2026-04-26T11:21:08.577Z</time></trkpt><trkpt lat="44.2707933" lon="11.6893367"><ele>100.0</ele><time>2026-04-26T11:21:09.575Z</time></trkpt><trkpt lat="44.270755" lon="11.6891833"><ele>100.0</ele><time>2026-04-26T11:21:10.572Z</time></trkpt><trkpt lat="44.2707183" lon="11.6890283"><ele>100.0</ele><time>2026-04-26T11:21:11.568Z</time></trkpt><trkpt lat="44.27069" lon="11.6888733"><ele>100.0</ele><time>2026-04-26T11:21:12.574Z</time></trkpt><trkpt lat="44.2706667" lon="11.6887167"><ele>100.75</ele><time>2026-04-26T11:21:13.568Z</time></trkpt><trkpt lat="44.2706533" lon="11.6885617"><ele>101.5</ele><time>2026-04-26T11:21:14.569Z</time></trkpt><trkpt lat="44.2706467" lon="11.6884067"><ele>102.25</ele><time>2026-04-26T11:21:15.589Z</time></trkpt><trkpt lat="44.270645" lon="11.6882483"><ele>103.0</ele><time>2026-04-26T11:21:16.575Z</time></trkpt><trkpt lat="44.2706517" lon="11.6880867"><ele>103.0</ele><time>2026-04-26T11:21:17.576Z</time></trkpt><trkpt lat="44.2706583" lon="11.68792"><ele>103.0</ele><time>2026-04-26T11:21:18.586Z</time></trkpt><trkpt lat="44.27066" lon="11.6877483"><ele>103.0</ele><time>2026-04-26T11:21:19.564Z</time></trkpt><trkpt lat="44.27066" lon="11.6875717"><ele>103.0</ele><time>2026-04-26T11:21:20.567Z</time></trkpt><trkpt lat="44.27066" lon="11.687395"><ele>101.5</ele><time>2026-04-26T11:21:21.571Z</time></trkpt><trkpt lat="44.2706583" lon="11.6872167"><ele>100.0</ele><time>2026-04-26T11:21:22.572Z</time></trkpt><trkpt lat="44.27065" lon="11.68704"><ele>98.5</ele><time>2026-04-26T11:21:23.577Z</time></trkpt><trkpt lat="44.2706333" lon="11.686865"><ele>97.0</ele><time>2026-04-26T11:21:24.57Z</time></trkpt><trkpt lat="44.2706033" lon="11.686695"><ele>94.5</ele><time>2026-04-26T11:21:25.572Z</time></trkpt><trkpt lat="44.2705633" lon="11.686535"><ele>92.0</ele><time>2026-04-26T11:21:26.571Z</time></trkpt><trkpt lat="44.270515" lon="11.6863833"><ele>89.5</ele><time>2026-04-26T11:21:27.574Z</time></trkpt><trkpt lat="44.27046" lon="11.6862383"><ele>87.0</ele><time>2026-04-26T11:21:28.569Z</time></trkpt><trkpt lat="44.2703967" lon="11.6860967"><ele>87.75</ele><time>2026-04-26T11:21:29.572Z</time></trkpt><trkpt lat="44.2703333" lon="11.6859533"><ele>88.5</ele><time>2026-04-26T11:21:30.574Z</time></trkpt><trkpt lat="44.2702683" lon="11.6858083"><ele>89.25</ele><time>2026-04-26T11:21:31.582Z</time></trkpt><trkpt lat="44.2702017" lon="11.68566"><ele>90.0</ele><time>2026-04-26T11:21:32.573Z</time></trkpt><trkpt lat="44.2701367" lon="11.685515"><ele>90.0</ele><time>2026-04-26T11:21:33.573Z</time></trkpt><trkpt lat="44.27008" lon="11.6853667"><ele>90.0</ele><time>2026-04-26T11:21:34.566Z</time></trkpt><trkpt lat="44.2700283" lon="11.6852167"><ele>90.0</ele><time>2026-04-26T11:21:35.558Z</time></trkpt><trkpt lat="44.26998" lon="11.6850633"><ele>90.0</ele><time>2026-04-26T11:21:36.564Z</time></trkpt><trkpt lat="44.26993" lon="11.68491"><ele>90.25</ele><time>2026-04-26T11:21:37.583Z</time></trkpt><trkpt lat="44.26987" lon="11.6847633"><ele>90.5</ele><time>2026-04-26T11:21:38.573Z</time></trkpt><trkpt lat="44.2698017" lon="11.6846217"><ele>90.75</ele><time>2026-04-26T11:21:39.576Z</time></trkpt><trkpt lat="44.2697267" lon="11.684495"><ele>91.0</ele><time>2026-04-26T11:21:40.587Z</time></trkpt><trkpt lat="44.26964" lon="11.6843883"><ele>91.0</ele><time>2026-04-26T11:21:41.575Z</time></trkpt><trkpt lat="44.2695417" lon="11.684305"><ele>91.0</ele><time>2026-04-26T11:21:42.572Z</time></trkpt><trkpt lat="44.2694317" lon="11.6842467"><ele>91.0</ele><time>2026-04-26T11:21:43.574Z</time></trkpt><trkpt lat="44.2693183" lon="11.6842183"><ele>91.0</ele><time>2026-04-26T11:21:44.571Z</time></trkpt><trkpt lat="44.2692" lon="11.684225"><ele>91.0</ele><time>2026-04-26T11:21:45.57Z</time></trkpt><trkpt lat="44.26908" lon="11.6842483"><ele>91.0</ele><time>2026-04-26T11:21:46.577Z</time></trkpt><trkpt lat="44.2689583" lon="11.6842767"><ele>91.0</ele><time>2026-04-26T11:21:47.572Z</time></trkpt><trkpt lat="44.2688367" lon="11.6842883"><ele>91.0</ele><time>2026-04-26T11:21:48.571Z</time></trkpt><trkpt lat="44.2687133" lon="11.68429"><ele>91.5</ele><time>2026-04-26T11:21:49.585Z</time></trkpt><trkpt lat="44.26859" lon="11.6842833"><ele>92.0</ele><time>2026-04-26T11:21:50.572Z</time></trkpt><trkpt lat="44.26847" lon="11.6842667"><ele>92.5</ele><time>2026-04-26T11:21:51.564Z</time></trkpt><trkpt lat="44.2683533" lon="11.6842333"><ele>93.0</ele><time>2026-04-26T11:21:52.573Z</time></trkpt><trkpt lat="44.26824" lon="11.68418"><ele>93.0</ele><time>2026-04-26T11:21:53.576Z</time></trkpt><trkpt lat="44.26813" lon="11.68411"><ele>93.0</ele><time>2026-04-26T11:21:54.573Z</time></trkpt><trkpt lat="44.268025" lon="11.6840217"><ele>93.0</ele><time>2026-04-26T11:21:55.568Z</time></trkpt><trkpt lat="44.2679317" lon="11.683915"><ele>93.0</ele><time>2026-04-26T11:21:56.581Z</time></trkpt><trkpt lat="44.2678417" lon="11.6837983"><ele>92.75</ele><time>2026-04-26T11:21:57.578Z</time></trkpt><trkpt lat="44.2677483" lon="11.68368"><ele>92.5</ele><time>2026-04-26T11:21:58.572Z</time></trkpt><trkpt lat="44.26765" lon="11.6835633"><ele>92.25</ele><time>2026-04-26T11:21:59.579Z</time></trkpt><trkpt lat="44.26755" lon="11.683445"><ele>92.0</ele><time>2026-04-26T11:22:00.567Z</time></trkpt><trkpt lat="44.26745" lon="11.6833233"><ele>92.75</ele><time>2026-04-26T11:22:01.578Z</time></trkpt><trkpt lat="44.2673467" lon="11.6832033"><ele>93.5</ele><time>2026-04-26T11:22:02.586Z</time></trkpt><trkpt lat="44.267245" lon="11.6830817"><ele>94.25</ele><time>2026-04-26T11:22:03.571Z</time></trkpt><trkpt lat="44.267145" lon="11.6829583"><ele>95.0</ele><time>2026-04-26T11:22:04.577Z</time></trkpt><trkpt lat="44.2670433" lon="11.6828367"><ele>95.0</ele><time>2026-04-26T11:22:05.572Z</time></trkpt><trkpt lat="44.2669417" lon="11.6827167"><ele>95.0</ele><time>2026-04-26T11:22:06.571Z</time></trkpt><trkpt lat="44.2668433" lon="11.6825967"><ele>95.0</ele><time>2026-04-26T11:22:07.564Z</time></trkpt><trkpt lat="44.2667517" lon="11.6824867"><ele>95.0</ele><time>2026-04-26T11:22:08.584Z</time></trkpt><trkpt lat="44.2666667" lon="11.68238"><ele>95.0</ele><time>2026-04-26T11:22:09.579Z</time></trkpt><trkpt lat="44.2665883" lon="11.68228"><ele>95.0</ele><time>2026-04-26T11:22:10.578Z</time></trkpt><trkpt lat="44.2665167" lon="11.6821783"><ele>95.0</ele><time>2026-04-26T11:22:11.58Z</time></trkpt><trkpt lat="44.2664617" lon="11.68207"><ele>95.0</ele><time>2026-04-26T11:22:12.575Z</time></trkpt><trkpt lat="44.2664233" lon="11.68195"><ele>95.0</ele><time>2026-04-26T11:22:13.581Z</time></trkpt><trkpt lat="44.2664033" lon="11.68182"><ele>95.4</ele><time>2026-04-26T11:22:14.571Z</time></trkpt><trkpt lat="44.2664117" lon="11.6816833"><ele>95.8</ele><time>2026-04-26T11:22:15.578Z</time></trkpt><trkpt lat="44.2664433" lon="11.6815417"><ele>96.19999999999999</ele><time>2026-04-26T11:22:16.571Z</time></trkpt><trkpt lat="44.2664833" lon="11.6813933"><ele>96.6</ele><time>2026-04-26T11:22:17.567Z</time></trkpt><trkpt lat="44.2665267" lon="11.6812367"><ele>97.0</ele><time>2026-04-26T11:22:18.585Z</time></trkpt><trkpt lat="44.266575" lon="11.681075"><ele>97.0</ele><time>2026-04-26T11:22:19.568Z</time></trkpt><trkpt lat="44.2666217" lon="11.680915"><ele>97.0</ele><time>2026-04-26T11:22:20.567Z</time></trkpt><trkpt lat="44.2666667" lon="11.6807533"><ele>97.0</ele><time>2026-04-26T11:22:21.565Z</time></trkpt><trkpt lat="44.266705" lon="11.6805983"><ele>97.0</ele><time>2026-04-26T11:22:22.57Z</time></trkpt><trkpt lat="44.26672" lon="11.6804483"><ele>97.0</ele><time>2026-04-26T11:22:23.567Z</time></trkpt><trkpt lat="44.266715" lon="11.680305"><ele>97.0</ele><time>2026-04-26T11:22:24.578Z</time></trkpt><trkpt lat="44.2666883" lon="11.6801683"><ele>97.0</ele><time>2026-04-26T11:22:25.58Z</time></trkpt><trkpt lat="44.2666467" lon="11.68003"><ele>97.0</ele><time>2026-04-26T11:22:26.579Z</time></trkpt><trkpt lat="44.2665983" lon="11.6798917"><ele>97.0</ele><time>2026-04-26T11:22:27.58Z</time></trkpt><trkpt lat="44.2665467" lon="11.67975"><ele>95.75</ele><time>2026-04-26T11:22:28.568Z</time></trkpt><trkpt lat="44.26649" lon="11.6796033"><ele>94.5</ele><time>2026-04-26T11:22:29.569Z</time></trkpt><trkpt lat="44.2664283" lon="11.6794533"><ele>93.25</ele><time>2026-04-26T11:22:30.579Z</time></trkpt><trkpt lat="44.26636" lon="11.6793033"><ele>92.0</ele><time>2026-04-26T11:22:31.573Z</time></trkpt><trkpt lat="44.26629" lon="11.6791533"><ele>91.75</ele><time>2026-04-26T11:22:32.578Z</time></trkpt><trkpt lat="44.2662217" lon="11.679"><ele>91.5</ele><time>2026-04-26T11:22:33.571Z</time></trkpt><trkpt lat="44.266155" lon="11.6788517"><ele>91.25</ele><time>2026-04-26T11:22:34.575Z</time></trkpt><trkpt lat="44.2660817" lon="11.6787033"><ele>91.0</ele><time>2026-04-26T11:22:35.569Z</time></trkpt><trkpt lat="44.2660083" lon="11.6785567"><ele>91.5</ele><time>2026-04-26T11:22:36.569Z</time></trkpt><trkpt lat="44.265935" lon="11.678405"><ele>92.0</ele><time>2026-04-26T11:22:37.569Z</time></trkpt><trkpt lat="44.26586" lon="11.6782533"><ele>92.5</ele><time>2026-04-26T11:22:38.58Z</time></trkpt><trkpt lat="44.265785" lon="11.6780983"><ele>93.0</ele><time>2026-04-26T11:22:39.564Z</time></trkpt><trkpt lat="44.2657117" lon="11.67794"><ele>93.0</ele><time>2026-04-26T11:22:40.571Z</time></trkpt><trkpt lat="44.2656367" lon="11.67778"><ele>93.0</ele><time>2026-04-26T11:22:41.577Z</time></trkpt><trkpt lat="44.2655617" lon="11.6776233"><ele>93.0</ele><time>2026-04-26T11:22:42.566Z</time></trkpt><trkpt lat="44.26548" lon="11.6774667"><ele>93.0</ele><time>2026-04-26T11:22:43.569Z</time></trkpt><trkpt lat="44.2653917" lon="11.6773167"><ele>92.75</ele><time>2026-04-26T11:22:44.572Z</time></trkpt><trkpt lat="44.2653" lon="11.67717"><ele>92.5</ele><time>2026-04-26T11:22:45.586Z</time></trkpt><trkpt lat="44.2652" lon="11.6770317"><ele>92.25</ele><time>2026-04-26T11:22:46.574Z</time></trkpt><trkpt lat="44.2651" lon="11.6768933"><ele>92.0</ele><time>2026-04-26T11:22:47.572Z</time></trkpt><trkpt lat="44.2650017" lon="11.676755"><ele>91.75</ele><time>2026-04-26T11:22:48.577Z</time></trkpt><trkpt lat="44.2648967" lon="11.6766167"><ele>91.5</ele><time>2026-04-26T11:22:49.561Z</time></trkpt><trkpt lat="44.26479" lon="11.67648"><ele>91.25</ele><time>2026-04-26T11:22:50.566Z</time></trkpt><trkpt lat="44.26468" lon="11.6763383"><ele>91.0</ele><time>2026-04-26T11:22:51.571Z</time></trkpt><trkpt lat="44.2645783" lon="11.6761983"><ele>91.0</ele><time>2026-04-26T11:22:52.579Z</time></trkpt><trkpt lat="44.2644783" lon="11.6760533"><ele>91.0</ele><time>2026-04-26T11:22:53.565Z</time></trkpt><trkpt lat="44.26438" lon="11.6759067"><ele>91.0</ele><time>2026-04-26T11:22:54.578Z</time></trkpt><trkpt lat="44.26428" lon="11.6757617"><ele>91.0</ele><time>2026-04-26T11:22:55.566Z</time></trkpt><trkpt lat="44.2641767" lon="11.675615"><ele>91.0</ele><time>2026-04-26T11:22:56.582Z</time></trkpt><trkpt lat="44.2640733" lon="11.6754667"><ele>91.0</ele><time>2026-04-26T11:22:57.581Z</time></trkpt><trkpt lat="44.2639667" lon="11.67532"><ele>91.0</ele><time>2026-04-26T11:22:58.575Z</time></trkpt><trkpt lat="44.26386" lon="11.6751717"><ele>91.0</ele><time>2026-04-26T11:22:59.584Z</time></trkpt><trkpt lat="44.2637533" lon="11.675025"><ele>91.5</ele><time>2026-04-26T11:23:00.579Z</time></trkpt><trkpt lat="44.2636433" lon="11.6748817"><ele>92.0</ele><time>2026-04-26T11:23:01.581Z</time></trkpt><trkpt lat="44.2635367" lon="11.6747417"><ele>92.5</ele><time>2026-04-26T11:23:02.568Z</time></trkpt><trkpt lat="44.263435" lon="11.6746067"><ele>93.0</ele><time>2026-04-26T11:23:03.564Z</time></trkpt><trkpt lat="44.263345" lon="11.674475"><ele>93.25</ele><time>2026-04-26T11:23:04.577Z</time></trkpt><trkpt lat="44.2632667" lon="11.67435"><ele>93.5</ele><time>2026-04-26T11:23:05.56Z</time></trkpt><trkpt lat="44.2631983" lon="11.6742217"><ele>93.75</ele><time>2026-04-26T11:23:06.573Z</time></trkpt><trkpt lat="44.2631417" lon="11.674085"><ele>94.0</ele><time>2026-04-26T11:23:07.576Z</time></trkpt><trkpt lat="44.2630967" lon="11.6739417"><ele>94.0</ele><time>2026-04-26T11:23:08.575Z</time></trkpt><trkpt lat="44.2630533" lon="11.673795"><ele>94.0</ele><time>2026-04-26T11:23:09.581Z</time></trkpt><trkpt lat="44.2630183" lon="11.673645"><ele>94.0</ele><time>2026-04-26T11:23:10.586Z</time></trkpt><trkpt lat="44.2629867" lon="11.6734967"><ele>94.0</ele><time>2026-04-26T11:23:11.568Z</time></trkpt><trkpt lat="44.2629583" lon="11.67335"><ele>94.0</ele><time>2026-04-26T11:23:12.581Z</time></trkpt><trkpt lat="44.2629417" lon="11.6731983"><ele>95.25</ele><time>2026-04-26T11:23:13.567Z</time></trkpt><trkpt lat="44.2629283" lon="11.6730433"><ele>96.5</ele><time>2026-04-26T11:23:14.575Z</time></trkpt><trkpt lat="44.2629183" lon="11.6728817"><ele>97.75</ele><time>2026-04-26T11:23:15.583Z</time></trkpt><trkpt lat="44.26291" lon="11.6727167"><ele>99.0</ele><time>2026-04-26T11:23:16.572Z</time></trkpt><trkpt lat="44.2629" lon="11.6725567"><ele>100.0</ele><time>2026-04-26T11:23:17.576Z</time></trkpt><trkpt lat="44.2628917" lon="11.6724067"><ele>101.0</ele><time>2026-04-26T11:23:18.568Z</time></trkpt><trkpt lat="44.262885" lon="11.672265"><ele>102.0</ele><time>2026-04-26T11:23:19.57Z</time></trkpt><trkpt lat="44.26288" lon="11.6721367"><ele>103.0</ele><time>2026-04-26T11:23:20.577Z</time></trkpt><trkpt lat="44.2628667" lon="11.6720183"><ele>104.0</ele><time>2026-04-26T11:23:21.565Z</time></trkpt><trkpt lat="44.2628483" lon="11.671915"><ele>104.66666666666666</ele><time>2026-04-26T11:23:22.568Z</time></trkpt><trkpt lat="44.2628167" lon="11.6718267"><ele>105.33333333333333</ele><time>2026-04-26T11:23:23.578Z</time></trkpt><trkpt lat="44.2627717" lon="11.671755"><ele>106.0</ele><time>2026-04-26T11:23:24.576Z</time></trkpt><trkpt lat="44.26271" lon="11.6717167"><ele>106.66666666666666</ele><time>2026-04-26T11:23:25.582Z</time></trkpt><trkpt lat="44.2626317" lon="11.6717117"><ele>107.33333333333333</ele><time>2026-04-26T11:23:26.575Z</time></trkpt><trkpt lat="44.2625483" lon="11.6717167"><ele>108.0</ele><time>2026-04-26T11:23:27.575Z</time></trkpt><trkpt lat="44.262465" lon="11.6717233"><ele>108.0</ele><time>2026-04-26T11:23:28.576Z</time></trkpt><trkpt lat="44.2623833" lon="11.6717433"><ele>108.0</ele><time>2026-04-26T11:23:29.573Z</time></trkpt><trkpt lat="44.2623033" lon="11.6717867"><ele>108.0</ele><time>2026-04-26T11:23:30.576Z</time></trkpt><trkpt lat="44.26223" lon="11.6718583"><ele>108.0</ele><time>2026-04-26T11:23:31.574Z</time></trkpt><trkpt lat="44.26217" lon="11.6719467"><ele>108.0</ele><time>2026-04-26T11:23:32.577Z</time></trkpt><trkpt lat="44.2621217" lon="11.6720467"><ele>108.0</ele><time>2026-04-26T11:23:33.569Z</time></trkpt><trkpt lat="44.2621033" lon="11.67217"><ele>107.33333333333333</ele><time>2026-04-26T11:23:34.566Z</time></trkpt><trkpt lat="44.2621033" lon="11.672295"><ele>106.66666666666666</ele><time>2026-04-26T11:23:35.562Z</time></trkpt><trkpt lat="44.262105" lon="11.67242"><ele>106.0</ele><time>2026-04-26T11:23:36.565Z</time></trkpt><trkpt lat="44.2621083" lon="11.6725433"><ele>105.33333333333333</ele><time>2026-04-26T11:23:37.569Z</time></trkpt><trkpt lat="44.2621017" lon="11.6726633"><ele>104.66666666666666</ele><time>2026-04-26T11:23:38.573Z</time></trkpt><trkpt lat="44.2620867" lon="11.6727783"><ele>104.0</ele><time>2026-04-26T11:23:39.568Z</time></trkpt><trkpt lat="44.2620567" lon="11.6728817"><ele>103.99999999999999</ele><time>2026-04-26T11:23:40.57Z</time></trkpt><trkpt lat="44.2619983" lon="11.6729517"><ele>104.0</ele><time>2026-04-26T11:23:41.573Z</time></trkpt><trkpt lat="44.261935" lon="11.6729767"><ele>104.0</ele><time>2026-04-26T11:23:42.57Z</time></trkpt><trkpt lat="44.2618617" lon="11.6729583"><ele>104.0</ele><time>2026-04-26T11:23:43.571Z</time></trkpt><trkpt lat="44.2617833" lon="11.67291"><ele>103.99999999999999</ele><time>2026-04-26T11:23:44.582Z</time></trkpt><trkpt lat="44.2617033" lon="11.6728417"><ele>104.0</ele><time>2026-04-26T11:23:45.569Z</time></trkpt><trkpt lat="44.2616267" lon="11.6727617"><ele>105.2</ele><time>2026-04-26T11:23:46.581Z</time></trkpt><trkpt lat="44.2615583" lon="11.6726617"><ele>106.4</ele><time>2026-04-26T11:23:47.574Z</time></trkpt><trkpt lat="44.2614917" lon="11.672545"><ele>107.6</ele><time>2026-04-26T11:23:48.575Z</time></trkpt><trkpt lat="44.2614383" lon="11.67242"><ele>108.8</ele><time>2026-04-26T11:23:49.574Z</time></trkpt><trkpt lat="44.261395" lon="11.672285"><ele>110.0</ele><time>2026-04-26T11:23:50.574Z</time></trkpt><trkpt lat="44.26136" lon="11.6721483"><ele>110.0</ele><time>2026-04-26T11:23:51.575Z</time></trkpt><trkpt lat="44.2613283" lon="11.6720117"><ele>110.0</ele><time>2026-04-26T11:23:52.566Z</time></trkpt><trkpt lat="44.26129" lon="11.671885"><ele>110.0</ele><time>2026-04-26T11:23:53.571Z</time></trkpt><trkpt lat="44.2612383" lon="11.6717783"><ele>110.0</ele><time>2026-04-26T11:23:54.569Z</time></trkpt><trkpt lat="44.2611783" lon="11.67169"><ele>110.0</ele><time>2026-04-26T11:23:55.576Z</time></trkpt><trkpt lat="44.2611017" lon="11.6716283"><ele>113.0</ele><time>2026-04-26T11:23:56.574Z</time></trkpt><trkpt lat="44.2610233" lon="11.67157"><ele>116.0</ele><time>2026-04-26T11:23:57.585Z</time></trkpt><trkpt lat="44.26094" lon="11.6715133"><ele>119.0</ele><time>2026-04-26T11:23:58.569Z</time></trkpt><trkpt lat="44.26085" lon="11.6714567"><ele>122.0</ele><time>2026-04-26T11:23:59.582Z</time></trkpt><trkpt lat="44.2607617" lon="11.671395"><ele>125.0</ele><time>2026-04-26T11:24:00.577Z</time></trkpt><trkpt lat="44.26067" lon="11.671325"><ele>125.0</ele><time>2026-04-26T11:24:01.576Z</time></trkpt><trkpt lat="44.2605783" lon="11.6712517"><ele>125.0</ele><time>2026-04-26T11:24:02.569Z</time></trkpt><trkpt lat="44.26048" lon="11.67118"><ele>125.0</ele><time>2026-04-26T11:24:03.575Z</time></trkpt><trkpt lat="44.2603817" lon="11.6711017"><ele>125.0</ele><time>2026-04-26T11:24:04.57Z</time></trkpt><trkpt lat="44.2602817" lon="11.6710183"><ele>125.0</ele><time>2026-04-26T11:24:05.575Z</time></trkpt><trkpt lat="44.2601783" lon="11.6709367"><ele>125.0</ele><time>2026-04-26T11:24:06.578Z</time></trkpt><trkpt lat="44.260075" lon="11.6708533"><ele>125.0</ele><time>2026-04-26T11:24:07.575Z</time></trkpt><trkpt lat="44.259975" lon="11.6707667"><ele>125.0</ele><time>2026-04-26T11:24:08.572Z</time></trkpt><trkpt lat="44.2598783" lon="11.6706733"><ele>125.0</ele><time>2026-04-26T11:24:09.561Z</time></trkpt><trkpt lat="44.2597933" lon="11.6705767"><ele>121.6</ele><time>2026-04-26T11:24:10.567Z</time></trkpt><trkpt lat="44.25972" lon="11.6704717"><ele>118.2</ele><time>2026-04-26T11:24:11.569Z</time></trkpt><trkpt lat="44.2596583" lon="11.6703533"><ele>114.80000000000001</ele><time>2026-04-26T11:24:12.576Z</time></trkpt><trkpt lat="44.2596133" lon="11.6702167"><ele>111.4</ele><time>2026-04-26T11:24:13.574Z</time></trkpt><trkpt lat="44.259595" lon="11.6700683"><ele>108.0</ele><time>2026-04-26T11:24:14.566Z</time></trkpt><trkpt lat="44.2595917" lon="11.6699133"><ele>108.0</ele><time>2026-04-26T11:24:15.581Z</time></trkpt><trkpt lat="44.259605" lon="11.6697567"><ele>108.0</ele><time>2026-04-26T11:24:16.575Z</time></trkpt><trkpt lat="44.2596333" lon="11.669595"><ele>108.0</ele><time>2026-04-26T11:24:17.574Z</time></trkpt><trkpt lat="44.25967" lon="11.6694283"><ele>108.0</ele><time>2026-04-26T11:24:18.588Z</time></trkpt><trkpt lat="44.2597017" lon="11.669255"><ele>107.25</ele><time>2026-04-26T11:24:19.572Z</time></trkpt><trkpt lat="44.2597217" lon="11.6690767"><ele>106.5</ele><time>2026-04-26T11:24:20.575Z</time></trkpt><trkpt lat="44.2597367" lon="11.668895"><ele>105.75</ele><time>2026-04-26T11:24:21.575Z</time></trkpt><trkpt lat="44.2597433" lon="11.668715"><ele>105.0</ele><time>2026-04-26T11:24:22.567Z</time></trkpt><trkpt lat="44.25973" lon="11.6685383"><ele>106.5</ele><time>2026-04-26T11:24:23.576Z</time></trkpt><trkpt lat="44.2597" lon="11.6683683"><ele>108.0</ele><time>2026-04-26T11:24:24.581Z</time></trkpt><trkpt lat="44.25966" lon="11.6681983"><ele>109.5</ele><time>2026-04-26T11:24:25.582Z</time></trkpt><trkpt lat="44.2596167" lon="11.66803"><ele>111.0</ele><time>2026-04-26T11:24:26.577Z</time></trkpt><trkpt lat="44.25957" lon="11.66786"><ele>113.0</ele><time>2026-04-26T11:24:27.588Z</time></trkpt><trkpt lat="44.2595267" lon="11.66769"><ele>115.0</ele><time>2026-04-26T11:24:28.582Z</time></trkpt><trkpt lat="44.2594833" lon="11.6675233"><ele>117.0</ele><time>2026-04-26T11:24:29.571Z</time></trkpt><trkpt lat="44.2594433" lon="11.6673567"><ele>119.0</ele><time>2026-04-26T11:24:30.571Z</time></trkpt><trkpt lat="44.2593983" lon="11.6671917"><ele>119.0</ele><time>2026-04-26T11:24:31.579Z</time></trkpt><trkpt lat="44.2593533" lon="11.667025"><ele>119.0</ele><time>2026-04-26T11:24:32.574Z</time></trkpt><trkpt lat="44.259305" lon="11.6668567"><ele>119.0</ele><time>2026-04-26T11:24:33.573Z</time></trkpt><trkpt lat="44.2592583" lon="11.666685"><ele>119.0</ele><time>2026-04-26T11:24:34.573Z</time></trkpt><trkpt lat="44.2592117" lon="11.6665083"><ele>119.5</ele><time>2026-04-26T11:24:35.575Z</time></trkpt><trkpt lat="44.2591633" lon="11.666325"><ele>120.0</ele><time>2026-04-26T11:24:36.572Z</time></trkpt><trkpt lat="44.2591133" lon="11.6661367"><ele>120.5</ele><time>2026-04-26T11:24:37.567Z</time></trkpt><trkpt lat="44.2590633" lon="11.6659433"><ele>121.0</ele><time>2026-04-26T11:24:38.573Z</time></trkpt><trkpt lat="44.2590183" lon="11.665745"><ele>122.0</ele><time>2026-04-26T11:24:39.575Z</time></trkpt><trkpt lat="44.25898" lon="11.66554"><ele>123.0</ele><time>2026-04-26T11:24:40.572Z</time></trkpt><trkpt lat="44.2589567" lon="11.6653283"><ele>124.0</ele><time>2026-04-26T11:24:41.582Z</time></trkpt><trkpt lat="44.2589483" lon="11.6651167"><ele>118.33333333333334</ele><time>2026-04-26T11:24:42.584Z</time></trkpt><trkpt lat="44.2589467" lon="11.6649017"><ele>112.66666666666666</ele><time>2026-04-26T11:24:43.583Z</time></trkpt><trkpt lat="44.2589483" lon="11.6646883"><ele>107.0</ele><time>2026-04-26T11:24:44.573Z</time></trkpt><trkpt lat="44.25895" lon="11.66448"><ele>107.75</ele><time>2026-04-26T11:24:45.578Z</time></trkpt><trkpt lat="44.25895" lon="11.6642817"><ele>108.5</ele><time>2026-04-26T11:24:46.58Z</time></trkpt><trkpt lat="44.2589483" lon="11.6640983"><ele>109.25</ele><time>2026-04-26T11:24:47.58Z</time></trkpt><trkpt lat="44.2589467" lon="11.663925"><ele>110.0</ele><time>2026-04-26T11:24:48.569Z</time></trkpt><trkpt lat="44.2589483" lon="11.6637567"><ele>110.4</ele><time>2026-04-26T11:24:49.576Z</time></trkpt><trkpt lat="44.25895" lon="11.6635917"><ele>110.8</ele><time>2026-04-26T11:24:50.575Z</time></trkpt><trkpt lat="44.2589433" lon="11.6634333"><ele>111.19999999999999</ele><time>2026-04-26T11:24:51.569Z</time></trkpt><trkpt lat="44.25893" lon="11.6632833"><ele>111.6</ele><time>2026-04-26T11:24:52.561Z</time></trkpt><trkpt lat="44.2589117" lon="11.6631433"><ele>112.0</ele><time>2026-04-26T11:24:53.569Z</time></trkpt><trkpt lat="44.2588833" lon="11.6630083"><ele>112.0</ele><time>2026-04-26T11:24:54.569Z</time></trkpt><trkpt lat="44.2588483" lon="11.6628717"><ele>111.99999999999999</ele><time>2026-04-26T11:24:55.579Z</time></trkpt><trkpt lat="44.2588083" lon="11.6627367"><ele>111.99999999999999</ele><time>2026-04-26T11:24:56.567Z</time></trkpt><trkpt lat="44.2587667" lon="11.6625983"><ele>112.0</ele><time>2026-04-26T11:24:57.58Z</time></trkpt><trkpt lat="44.258725" lon="11.662455"><ele>112.0</ele><time>2026-04-26T11:24:58.573Z</time></trkpt><trkpt lat="44.2586817" lon="11.66231"><ele>113.0</ele><time>2026-04-26T11:24:59.57Z</time></trkpt><trkpt lat="44.2586367" lon="11.6621667"><ele>114.0</ele><time>2026-04-26T11:25:00.574Z</time></trkpt><trkpt lat="44.2585833" lon="11.6620267"><ele>115.0</ele><time>2026-04-26T11:25:01.584Z</time></trkpt><trkpt lat="44.2585183" lon="11.6618967"><ele>116.0</ele><time>2026-04-26T11:25:02.565Z</time></trkpt><trkpt lat="44.2584417" lon="11.6617783"><ele>115.25</ele><time>2026-04-26T11:25:03.572Z</time></trkpt><trkpt lat="44.2583533" lon="11.6616733"><ele>114.5</ele><time>2026-04-26T11:25:04.563Z</time></trkpt><trkpt lat="44.2582617" lon="11.6615717"><ele>113.75</ele><time>2026-04-26T11:25:05.571Z</time></trkpt><trkpt lat="44.2581667" lon="11.6614767"><ele>113.0</ele><time>2026-04-26T11:25:06.568Z</time></trkpt><trkpt lat="44.2580717" lon="11.66138"><ele>113.0</ele><time>2026-04-26T11:25:07.572Z</time></trkpt><trkpt lat="44.2579767" lon="11.6612783"><ele>113.0</ele><time>2026-04-26T11:25:08.577Z</time></trkpt><trkpt lat="44.2578783" lon="11.6611783"><ele>113.0</ele><time>2026-04-26T11:25:09.6Z</time></trkpt><trkpt lat="44.257775" lon="11.6610783"><ele>113.0</ele><time>2026-04-26T11:25:10.559Z</time></trkpt><trkpt lat="44.25767" lon="11.6609717"><ele>113.75</ele><time>2026-04-26T11:25:11.558Z</time></trkpt><trkpt lat="44.257565" lon="11.66086"><ele>114.5</ele><time>2026-04-26T11:25:12.582Z</time></trkpt><trkpt lat="44.2574583" lon="11.6607483"><ele>115.25</ele><time>2026-04-26T11:25:13.575Z</time></trkpt><trkpt lat="44.2573567" lon="11.660625"><ele>116.0</ele><time>2026-04-26T11:25:14.576Z</time></trkpt><trkpt lat="44.257255" lon="11.6605"><ele>116.0</ele><time>2026-04-26T11:25:15.575Z</time></trkpt><trkpt lat="44.25715" lon="11.6603783"><ele>116.0</ele><time>2026-04-26T11:25:16.57Z</time></trkpt><trkpt lat="44.257045" lon="11.6602583"><ele>116.0</ele><time>2026-04-26T11:25:17.577Z</time></trkpt><trkpt lat="44.25694" lon="11.6601317"><ele>116.0</ele><time>2026-04-26T11:25:18.565Z</time></trkpt><trkpt lat="44.256835" lon="11.660005"><ele>117.5</ele><time>2026-04-26T11:25:19.578Z</time></trkpt><trkpt lat="44.2567333" lon="11.65988"><ele>119.0</ele><time>2026-04-26T11:25:20.565Z</time></trkpt><trkpt lat="44.2566283" lon="11.659755"><ele>120.5</ele><time>2026-04-26T11:25:21.574Z</time></trkpt><trkpt lat="44.2565233" lon="11.6596317"><ele>122.0</ele><time>2026-04-26T11:25:22.568Z</time></trkpt><trkpt lat="44.25642" lon="11.6595067"><ele>125.5</ele><time>2026-04-26T11:25:23.572Z</time></trkpt><trkpt lat="44.256315" lon="11.659385"><ele>129.0</ele><time>2026-04-26T11:25:24.567Z</time></trkpt><trkpt lat="44.25621" lon="11.6592633"><ele>132.5</ele><time>2026-04-26T11:25:25.56Z</time></trkpt><trkpt lat="44.256105" lon="11.6591467"><ele>136.0</ele><time>2026-04-26T11:25:26.573Z</time></trkpt><trkpt lat="44.2559983" lon="11.65903"><ele>136.0</ele><time>2026-04-26T11:25:27.57Z</time></trkpt><trkpt lat="44.255895" lon="11.6589133"><ele>136.0</ele><time>2026-04-26T11:25:28.569Z</time></trkpt><trkpt lat="44.25579" lon="11.6587967"><ele>136.0</ele><time>2026-04-26T11:25:29.577Z</time></trkpt><trkpt lat="44.2556817" lon="11.6586833"><ele>136.0</ele><time>2026-04-26T11:25:30.561Z</time></trkpt><trkpt lat="44.2555717" lon="11.6585633"><ele>137.0</ele><time>2026-04-26T11:25:31.57Z</time></trkpt><trkpt lat="44.2554633" lon="11.6584483"><ele>138.0</ele><time>2026-04-26T11:25:32.58Z</time></trkpt><trkpt lat="44.255355" lon="11.658335"><ele>139.0</ele><time>2026-04-26T11:25:33.571Z</time></trkpt><trkpt lat="44.2552433" lon="11.65823"><ele>140.0</ele><time>2026-04-26T11:25:34.569Z</time></trkpt><trkpt lat="44.25513" lon="11.658135"><ele>140.0</ele><time>2026-04-26T11:25:35.565Z</time></trkpt><trkpt lat="44.2550133" lon="11.65805"><ele>140.0</ele><time>2026-04-26T11:25:36.575Z</time></trkpt><trkpt lat="44.254895" lon="11.6579717"><ele>140.0</ele><time>2026-04-26T11:25:37.58Z</time></trkpt><trkpt lat="44.2547733" lon="11.6579017"><ele>140.0</ele><time>2026-04-26T11:25:38.576Z</time></trkpt><trkpt lat="44.25465" lon="11.657835"><ele>141.25</ele><time>2026-04-26T11:25:39.577Z</time></trkpt><trkpt lat="44.2545267" lon="11.6577667"><ele>142.5</ele><time>2026-04-26T11:25:40.567Z</time></trkpt><trkpt lat="44.2544017" lon="11.6576983"><ele>143.75</ele><time>2026-04-26T11:25:41.575Z</time></trkpt><trkpt lat="44.2542783" lon="11.6576283"><ele>145.0</ele><time>2026-04-26T11:25:42.565Z</time></trkpt><trkpt lat="44.254155" lon="11.6575567"><ele>145.0</ele><time>2026-04-26T11:25:43.576Z</time></trkpt><trkpt lat="44.2540367" lon="11.65748"><ele>145.0</ele><time>2026-04-26T11:25:44.575Z</time></trkpt><trkpt lat="44.253915" lon="11.65741"><ele>145.0</ele><time>2026-04-26T11:25:45.579Z</time></trkpt><trkpt lat="44.2537917" lon="11.657345"><ele>145.0</ele><time>2026-04-26T11:25:46.581Z</time></trkpt><trkpt lat="44.2536683" lon="11.65728"><ele>143.25</ele><time>2026-04-26T11:25:47.581Z</time></trkpt><trkpt lat="44.2535483" lon="11.6572117"><ele>141.5</ele><time>2026-04-26T11:25:48.566Z</time></trkpt><trkpt lat="44.2534283" lon="11.6571483"><ele>139.75</ele><time>2026-04-26T11:25:49.561Z</time></trkpt><trkpt lat="44.2533067" lon="11.6570933"><ele>138.0</ele><time>2026-04-26T11:25:50.585Z</time></trkpt><trkpt lat="44.253185" lon="11.657055"><ele>137.5</ele><time>2026-04-26T11:25:51.578Z</time></trkpt><trkpt lat="44.25306" lon="11.6570317"><ele>137.0</ele><time>2026-04-26T11:25:52.573Z</time></trkpt><trkpt lat="44.2529333" lon="11.6570183"><ele>136.5</ele><time>2026-04-26T11:25:53.576Z</time></trkpt><trkpt lat="44.2528067" lon="11.6570183"><ele>136.0</ele><time>2026-04-26T11:25:54.575Z</time></trkpt><trkpt lat="44.2526767" lon="11.6570267"><ele>136.0</ele><time>2026-04-26T11:25:55.586Z</time></trkpt><trkpt lat="44.2525467" lon="11.6570383"><ele>136.0</ele><time>2026-04-26T11:25:56.567Z</time></trkpt><trkpt lat="44.252415" lon="11.65705"><ele>136.0</ele><time>2026-04-26T11:25:57.586Z</time></trkpt><trkpt lat="44.2522833" lon="11.65707"><ele>136.0</ele><time>2026-04-26T11:25:58.586Z</time></trkpt><trkpt lat="44.252155" lon="11.65709"><ele>135.25</ele><time>2026-04-26T11:25:59.572Z</time></trkpt><trkpt lat="44.25203" lon="11.65711"><ele>134.5</ele><time>2026-04-26T11:26:00.575Z</time></trkpt><trkpt lat="44.2518983" lon="11.6571283"><ele>133.75</ele><time>2026-04-26T11:26:01.587Z</time></trkpt><trkpt lat="44.2517617" lon="11.6571467"><ele>133.0</ele><time>2026-04-26T11:26:02.575Z</time></trkpt><trkpt lat="44.25162" lon="11.6571667"><ele>133.0</ele><time>2026-04-26T11:26:03.568Z</time></trkpt><trkpt lat="44.25148" lon="11.6571867"><ele>133.0</ele><time>2026-04-26T11:26:04.572Z</time></trkpt><trkpt lat="44.2513433" lon="11.6572067"><ele>133.0</ele><time>2026-04-26T11:26:05.57Z</time></trkpt><trkpt lat="44.2512133" lon="11.6572133"><ele>133.0</ele><time>2026-04-26T11:26:06.571Z</time></trkpt><trkpt lat="44.2510833" lon="11.6572267"><ele>131.5</ele><time>2026-04-26T11:26:07.577Z</time></trkpt><trkpt lat="44.2509567" lon="11.6572333"><ele>130.0</ele><time>2026-04-26T11:26:08.575Z</time></trkpt><trkpt lat="44.2508317" lon="11.65723"><ele>128.5</ele><time>2026-04-26T11:26:09.593Z</time></trkpt><trkpt lat="44.2507117" lon="11.6571983"><ele>127.0</ele><time>2026-04-26T11:26:10.573Z</time></trkpt><trkpt lat="44.2505967" lon="11.65714"><ele>125.0</ele><time>2026-04-26T11:26:11.581Z</time></trkpt><trkpt lat="44.2504867" lon="11.6570633"><ele>123.0</ele><time>2026-04-26T11:26:12.572Z</time></trkpt><trkpt lat="44.25038" lon="11.6569733"><ele>121.0</ele><time>2026-04-26T11:26:13.579Z</time></trkpt><trkpt lat="44.2502767" lon="11.6568783"><ele>119.0</ele><time>2026-04-26T11:26:14.571Z</time></trkpt><trkpt lat="44.2501733" lon="11.65678"><ele>119.0</ele><time>2026-04-26T11:26:15.58Z</time></trkpt><trkpt lat="44.25007" lon="11.6566817"><ele>119.0</ele><time>2026-04-26T11:26:16.571Z</time></trkpt><trkpt lat="44.249965" lon="11.6565867"><ele>119.0</ele><time>2026-04-26T11:26:17.57Z</time></trkpt><trkpt lat="44.2498583" lon="11.6564933"><ele>119.0</ele><time>2026-04-26T11:26:18.567Z</time></trkpt><trkpt lat="44.249755" lon="11.6563967"><ele>118.0</ele><time>2026-04-26T11:26:19.566Z</time></trkpt><trkpt lat="44.2496517" lon="11.6562983"><ele>117.0</ele><time>2026-04-26T11:26:20.572Z</time></trkpt><trkpt lat="44.2495483" lon="11.6561983"><ele>116.0</ele><time>2026-04-26T11:26:21.57Z</time></trkpt><trkpt lat="44.249445" lon="11.6560983"><ele>115.0</ele><time>2026-04-26T11:26:22.578Z</time></trkpt><trkpt lat="44.24934" lon="11.6559983"><ele>119.5</ele><time>2026-04-26T11:26:23.581Z</time></trkpt><trkpt lat="44.249235" lon="11.655895"><ele>124.0</ele><time>2026-04-26T11:26:24.59Z</time></trkpt><trkpt lat="44.2491317" lon="11.6557867"><ele>128.5</ele><time>2026-04-26T11:26:25.576Z</time></trkpt><trkpt lat="44.2490367" lon="11.6556717"><ele>133.0</ele><time>2026-04-26T11:26:26.565Z</time></trkpt><trkpt lat="44.2489583" lon="11.655545"><ele>134.75</ele><time>2026-04-26T11:26:27.585Z</time></trkpt><trkpt lat="44.2489033" lon="11.6554017"><ele>136.5</ele><time>2026-04-26T11:26:28.568Z</time></trkpt><trkpt lat="44.2488717" lon="11.6552467"><ele>138.25</ele><time>2026-04-26T11:26:29.568Z</time></trkpt><trkpt lat="44.24886" lon="11.655085"><ele>140.0</ele><time>2026-04-26T11:26:30.587Z</time></trkpt><trkpt lat="44.2488633" lon="11.6549217"><ele>143.25</ele><time>2026-04-26T11:26:31.581Z</time></trkpt><trkpt lat="44.2488733" lon="11.654755"><ele>146.5</ele><time>2026-04-26T11:26:32.577Z</time></trkpt><trkpt lat="44.24888" lon="11.654585"><ele>149.75</ele><time>2026-04-26T11:26:33.579Z</time></trkpt><trkpt lat="44.2488883" lon="11.6544117"><ele>153.0</ele><time>2026-04-26T11:26:34.576Z</time></trkpt><trkpt lat="44.2488983" lon="11.6542367"><ele>153.25</ele><time>2026-04-26T11:26:35.577Z</time></trkpt><trkpt lat="44.248905" lon="11.65406"><ele>153.5</ele><time>2026-04-26T11:26:36.568Z</time></trkpt><trkpt lat="44.248915" lon="11.6538817"><ele>153.75</ele><time>2026-04-26T11:26:37.573Z</time></trkpt><trkpt lat="44.2489233" lon="11.6537017"><ele>154.0</ele><time>2026-04-26T11:26:38.572Z</time></trkpt><trkpt lat="44.2489317" lon="11.6535217"><ele>154.0</ele><time>2026-04-26T11:26:39.575Z</time></trkpt><trkpt lat="44.24894" lon="11.6533383"><ele>154.0</ele><time>2026-04-26T11:26:40.558Z</time></trkpt><trkpt lat="44.2489467" lon="11.653155"><ele>154.0</ele><time>2026-04-26T11:26:41.575Z</time></trkpt><trkpt lat="44.2489533" lon="11.65297"><ele>154.0</ele><time>2026-04-26T11:26:42.568Z</time></trkpt><trkpt lat="44.24895" lon="11.6527883"><ele>155.25</ele><time>2026-04-26T11:26:43.564Z</time></trkpt><trkpt lat="44.2489317" lon="11.6526167"><ele>156.5</ele><time>2026-04-26T11:26:44.572Z</time></trkpt><trkpt lat="44.2488883" lon="11.652455"><ele>157.75</ele><time>2026-04-26T11:26:45.576Z</time></trkpt><trkpt lat="44.24882" lon="11.6523067"><ele>159.0</ele><time>2026-04-26T11:26:46.575Z</time></trkpt><trkpt lat="44.24873" lon="11.6521783"><ele>159.0</ele><time>2026-04-26T11:26:47.579Z</time></trkpt><trkpt lat="44.2486283" lon="11.6520633"><ele>159.0</ele><time>2026-04-26T11:26:48.583Z</time></trkpt><trkpt lat="44.2485183" lon="11.651955"><ele>159.0</ele><time>2026-04-26T11:26:49.567Z</time></trkpt><trkpt lat="44.2484033" lon="11.6518517"><ele>159.0</ele><time>2026-04-26T11:26:50.575Z</time></trkpt><trkpt lat="44.2482867" lon="11.6517467"><ele>159.5</ele><time>2026-04-26T11:26:51.571Z</time></trkpt><trkpt lat="44.2481683" lon="11.65164"><ele>160.0</ele><time>2026-04-26T11:26:52.573Z</time></trkpt><trkpt lat="44.248045" lon="11.6515383"><ele>160.5</ele><time>2026-04-26T11:26:53.573Z</time></trkpt><trkpt lat="44.2479217" lon="11.6514367"><ele>161.0</ele><time>2026-04-26T11:26:54.583Z</time></trkpt><trkpt lat="44.2477967" lon="11.6513333"><ele>161.0</ele><time>2026-04-26T11:26:55.582Z</time></trkpt><trkpt lat="44.24767" lon="11.6512283"><ele>161.0</ele><time>2026-04-26T11:26:56.579Z</time></trkpt><trkpt lat="44.2475417" lon="11.6511217"><ele>161.0</ele><time>2026-04-26T11:26:57.568Z</time></trkpt><trkpt lat="44.2474133" lon="11.651015"><ele>161.0</ele><time>2026-04-26T11:26:58.566Z</time></trkpt><trkpt lat="44.2472817" lon="11.6509067"><ele>162.0</ele><time>2026-04-26T11:26:59.568Z</time></trkpt><trkpt lat="44.2471517" lon="11.6508"><ele>163.0</ele><time>2026-04-26T11:27:00.568Z</time></trkpt><trkpt lat="44.2470217" lon="11.6506917"><ele>164.0</ele><time>2026-04-26T11:27:01.57Z</time></trkpt><trkpt lat="44.246895" lon="11.65058"><ele>164.0</ele><time>2026-04-26T11:27:02.572Z</time></trkpt><trkpt lat="44.2467683" lon="11.65047"><ele>164.0</ele><time>2026-04-26T11:27:03.57Z</time></trkpt><trkpt lat="44.2466417" lon="11.6503583"><ele>164.0</ele><time>2026-04-26T11:27:04.578Z</time></trkpt><trkpt lat="44.2465167" lon="11.6502467"><ele>164.0</ele><time>2026-04-26T11:27:05.568Z</time></trkpt><trkpt lat="44.2463883" lon="11.6501367"><ele>163.66666666666666</ele><time>2026-04-26T11:27:06.568Z</time></trkpt><trkpt lat="44.2462617" lon="11.6500267"><ele>163.33333333333334</ele><time>2026-04-26T11:27:07.573Z</time></trkpt><trkpt lat="44.2461333" lon="11.6499167"><ele>163.0</ele><time>2026-04-26T11:27:08.573Z</time></trkpt><trkpt lat="44.246005" lon="11.6498067"><ele>163.0</ele><time>2026-04-26T11:27:09.573Z</time></trkpt><trkpt lat="44.245875" lon="11.6496967"><ele>163.0</ele><time>2026-04-26T11:27:10.579Z</time></trkpt><trkpt lat="44.2457467" lon="11.6495833"><ele>163.0</ele><time>2026-04-26T11:27:11.567Z</time></trkpt><trkpt lat="44.2456233" lon="11.6494633"><ele>163.0</ele><time>2026-04-26T11:27:12.566Z</time></trkpt><trkpt lat="44.245505" lon="11.6493367"><ele>163.0</ele><time>2026-04-26T11:27:13.57Z</time></trkpt><trkpt lat="44.245395" lon="11.6492017"><ele>163.0</ele><time>2026-04-26T11:27:14.587Z</time></trkpt><trkpt lat="44.2452933" lon="11.6490567"><ele>163.0</ele><time>2026-04-26T11:27:15.579Z</time></trkpt><trkpt lat="44.2452017" lon="11.6488983"><ele>163.0</ele><time>2026-04-26T11:27:16.568Z</time></trkpt><trkpt lat="44.2451267" lon="11.6487267"><ele>163.0</ele><time>2026-04-26T11:27:17.583Z</time></trkpt><trkpt lat="44.2450717" lon="11.6485433"><ele>163.0</ele><time>2026-04-26T11:27:18.567Z</time></trkpt><trkpt lat="44.24503" lon="11.648355"><ele>163.0</ele><time>2026-04-26T11:27:19.573Z</time></trkpt><trkpt lat="44.2449967" lon="11.6481633"><ele>163.75</ele><time>2026-04-26T11:27:20.574Z</time></trkpt><trkpt lat="44.2449717" lon="11.6479733"><ele>164.5</ele><time>2026-04-26T11:27:21.567Z</time></trkpt><trkpt lat="44.2449483" lon="11.6477817"><ele>165.25</ele><time>2026-04-26T11:27:22.589Z</time></trkpt><trkpt lat="44.2449217" lon="11.647595"><ele>166.0</ele><time>2026-04-26T11:27:23.576Z</time></trkpt><trkpt lat="44.24489" lon="11.6474083"><ele>166.5</ele><time>2026-04-26T11:27:24.569Z</time></trkpt><trkpt lat="44.24485" lon="11.6472267"><ele>167.0</ele><time>2026-04-26T11:27:25.569Z</time></trkpt><trkpt lat="44.2447983" lon="11.6470517"><ele>167.5</ele><time>2026-04-26T11:27:26.565Z</time></trkpt><trkpt lat="44.2447367" lon="11.6468833"><ele>168.0</ele><time>2026-04-26T11:27:27.562Z</time></trkpt><trkpt lat="44.244665" lon="11.646725"><ele>168.25</ele><time>2026-04-26T11:27:28.558Z</time></trkpt><trkpt lat="44.24458" lon="11.6465767"><ele>168.5</ele><time>2026-04-26T11:27:29.564Z</time></trkpt><trkpt lat="44.2444817" lon="11.6464417"><ele>168.75</ele><time>2026-04-26T11:27:30.569Z</time></trkpt><trkpt lat="44.2443783" lon="11.6463217"><ele>169.0</ele><time>2026-04-26T11:27:31.569Z</time></trkpt><trkpt lat="44.2442717" lon="11.646215"><ele>169.0</ele><time>2026-04-26T11:27:32.58Z</time></trkpt><trkpt lat="44.2441667" lon="11.64612"><ele>169.0</ele><time>2026-04-26T11:27:33.573Z</time></trkpt><trkpt lat="44.2440633" lon="11.6460333"><ele>169.0</ele><time>2026-04-26T11:27:34.564Z</time></trkpt><trkpt lat="44.2439583" lon="11.645955"><ele>169.0</ele><time>2026-04-26T11:27:35.571Z</time></trkpt><trkpt lat="44.2438567" lon="11.6458933"><ele>169.0</ele><time>2026-04-26T11:27:36.576Z</time></trkpt><trkpt lat="44.24376" lon="11.64583"><ele>169.0</ele><time>2026-04-26T11:27:37.578Z</time></trkpt><trkpt lat="44.2436683" lon="11.6457533"><ele>169.0</ele><time>2026-04-26T11:27:38.575Z</time></trkpt><trkpt lat="44.2435783" lon="11.645665"><ele>169.0</ele><time>2026-04-26T11:27:39.586Z</time></trkpt><trkpt lat="44.2434867" lon="11.6455717"><ele>169.0</ele><time>2026-04-26T11:27:40.57Z</time></trkpt><trkpt lat="44.243395" lon="11.6454717"><ele>169.0</ele><time>2026-04-26T11:27:41.572Z</time></trkpt><trkpt lat="44.2433033" lon="11.6453683"><ele>169.0</ele><time>2026-04-26T11:27:42.559Z</time></trkpt><trkpt lat="44.2432083" lon="11.6452617"><ele>169.0</ele><time>2026-04-26T11:27:43.556Z</time></trkpt><trkpt lat="44.24311" lon="11.645155"><ele>169.0</ele><time>2026-04-26T11:27:44.572Z</time></trkpt><trkpt lat="44.243005" lon="11.6450533"><ele>170.0</ele><time>2026-04-26T11:27:45.583Z</time></trkpt><trkpt lat="44.2428933" lon="11.644955"><ele>171.0</ele><time>2026-04-26T11:27:46.575Z</time></trkpt><trkpt lat="44.2427817" lon="11.6448533"><ele>172.0</ele><time>2026-04-26T11:27:47.575Z</time></trkpt><trkpt lat="44.24267" lon="11.6447483"><ele>173.0</ele><time>2026-04-26T11:27:48.573Z</time></trkpt><trkpt lat="44.242555" lon="11.6446433"><ele>173.0</ele><time>2026-04-26T11:27:49.578Z</time></trkpt><trkpt lat="44.2424367" lon="11.6445367"><ele>173.0</ele><time>2026-04-26T11:27:50.575Z</time></trkpt><trkpt lat="44.2423167" lon="11.64443"><ele>173.0</ele><time>2026-04-26T11:27:51.569Z</time></trkpt><trkpt lat="44.2421967" lon="11.644325"><ele>173.0</ele><time>2026-04-26T11:27:52.575Z</time></trkpt><trkpt lat="44.2420767" lon="11.6442233"><ele>174.0</ele><time>2026-04-26T11:27:53.574Z</time></trkpt><trkpt lat="44.241955" lon="11.64412"><ele>175.0</ele><time>2026-04-26T11:27:54.57Z</time></trkpt><trkpt lat="44.2418383" lon="11.6440133"><ele>176.0</ele><time>2026-04-26T11:27:55.583Z</time></trkpt><trkpt lat="44.2417217" lon="11.643905"><ele>177.0</ele><time>2026-04-26T11:27:56.568Z</time></trkpt><trkpt lat="44.241605" lon="11.6438"><ele>177.0</ele><time>2026-04-26T11:27:57.567Z</time></trkpt><trkpt lat="44.24149" lon="11.64369"><ele>177.0</ele><time>2026-04-26T11:27:58.567Z</time></trkpt><trkpt lat="44.2413733" lon="11.6435783"><ele>177.0</ele><time>2026-04-26T11:27:59.576Z</time></trkpt><trkpt lat="44.2412533" lon="11.6434667"><ele>177.0</ele><time>2026-04-26T11:28:00.569Z</time></trkpt><trkpt lat="44.2411317" lon="11.6433517"><ele>177.25</ele><time>2026-04-26T11:28:01.565Z</time></trkpt><trkpt lat="44.24101" lon="11.6432333"><ele>177.5</ele><time>2026-04-26T11:28:02.572Z</time></trkpt><trkpt lat="44.2408867" lon="11.6431167"><ele>177.75</ele><time>2026-04-26T11:28:03.569Z</time></trkpt><trkpt lat="44.240765" lon="11.6429933"><ele>178.0</ele><time>2026-04-26T11:28:04.573Z</time></trkpt><trkpt lat="44.2406433" lon="11.642875"><ele>177.75</ele><time>2026-04-26T11:28:05.591Z</time></trkpt><trkpt lat="44.2405333" lon="11.64276"><ele>177.5</ele><time>2026-04-26T11:28:06.574Z</time></trkpt><trkpt lat="44.24043" lon="11.6426433"><ele>177.25</ele><time>2026-04-26T11:28:07.573Z</time></trkpt><trkpt lat="44.240335" lon="11.6425167"><ele>177.0</ele><time>2026-04-26T11:28:08.581Z</time></trkpt><trkpt lat="44.2402517" lon="11.6423717"><ele>177.0</ele><time>2026-04-26T11:28:09.58Z</time></trkpt><trkpt lat="44.2401783" lon="11.6422233"><ele>177.0</ele><time>2026-04-26T11:28:10.573Z</time></trkpt><trkpt lat="44.24011" lon="11.6420667"><ele>177.0</ele><time>2026-04-26T11:28:11.565Z</time></trkpt><trkpt lat="44.2400417" lon="11.64191"><ele>177.0</ele><time>2026-04-26T11:28:12.568Z</time></trkpt><trkpt lat="44.2399717" lon="11.6417533"><ele>176.75</ele><time>2026-04-26T11:28:13.563Z</time></trkpt><trkpt lat="44.2398917" lon="11.6416"><ele>176.5</ele><time>2026-04-26T11:28:14.566Z</time></trkpt><trkpt lat="44.2398117" lon="11.6414467"><ele>176.25</ele><time>2026-04-26T11:28:15.569Z</time></trkpt><trkpt lat="44.2397283" lon="11.6413"><ele>176.0</ele><time>2026-04-26T11:28:16.573Z</time></trkpt><trkpt lat="44.2396467" lon="11.6411483"><ele>178.5</ele><time>2026-04-26T11:28:17.572Z</time></trkpt><trkpt lat="44.2395683" lon="11.6409933"><ele>181.0</ele><time>2026-04-26T11:28:18.57Z</time></trkpt><trkpt lat="44.2394867" lon="11.6408417"><ele>183.5</ele><time>2026-04-26T11:28:19.574Z</time></trkpt><trkpt lat="44.2393983" lon="11.6406967"><ele>186.0</ele><time>2026-04-26T11:28:20.564Z</time></trkpt><trkpt lat="44.239305" lon="11.64056"><ele>186.0</ele><time>2026-04-26T11:28:21.568Z</time></trkpt><trkpt lat="44.2392067" lon="11.6404317"><ele>186.0</ele><time>2026-04-26T11:28:22.584Z</time></trkpt><trkpt lat="44.239105" lon="11.64031"><ele>186.0</ele><time>2026-04-26T11:28:23.573Z</time></trkpt><trkpt lat="44.2389967" lon="11.6402"><ele>186.0</ele><time>2026-04-26T11:28:24.579Z</time></trkpt><trkpt lat="44.2388867" lon="11.640095"><ele>186.25</ele><time>2026-04-26T11:28:25.576Z</time></trkpt><trkpt lat="44.2387767" lon="11.63999"><ele>186.5</ele><time>2026-04-26T11:28:26.569Z</time></trkpt><trkpt lat="44.2386683" lon="11.6398833"><ele>186.75</ele><time>2026-04-26T11:28:27.564Z</time></trkpt><trkpt lat="44.23856" lon="11.6397783"><ele>187.0</ele><time>2026-04-26T11:28:28.574Z</time></trkpt><trkpt lat="44.238455" lon="11.6396767"><ele>187.0</ele><time>2026-04-26T11:28:29.58Z</time></trkpt><trkpt lat="44.2383467" lon="11.6395833"><ele>187.0</ele><time>2026-04-26T11:28:30.573Z</time></trkpt><trkpt lat="44.23823" lon="11.6395117"><ele>187.0</ele><time>2026-04-26T11:28:31.569Z</time></trkpt><trkpt lat="44.238105" lon="11.639465"><ele>187.0</ele><time>2026-04-26T11:28:32.581Z</time></trkpt><trkpt lat="44.2379733" lon="11.6394367"><ele>188.75</ele><time>2026-04-26T11:28:33.569Z</time></trkpt><trkpt lat="44.2378417" lon="11.6394217"><ele>190.5</ele><time>2026-04-26T11:28:34.579Z</time></trkpt><trkpt lat="44.2377067" lon="11.6394083"><ele>192.25</ele><time>2026-04-26T11:28:35.579Z</time></trkpt><trkpt lat="44.237575" lon="11.6393833"><ele>194.0</ele><time>2026-04-26T11:28:36.583Z</time></trkpt><trkpt lat="44.23745" lon="11.6393333"><ele>194.0</ele><time>2026-04-26T11:28:37.57Z</time></trkpt><trkpt lat="44.2373367" lon="11.6392633"><ele>194.0</ele><time>2026-04-26T11:28:38.579Z</time></trkpt><trkpt lat="44.2372267" lon="11.6391783"><ele>194.0</ele><time>2026-04-26T11:28:39.572Z</time></trkpt><trkpt lat="44.2371217" lon="11.6390833"><ele>194.0</ele><time>2026-04-26T11:28:40.572Z</time></trkpt><trkpt lat="44.2370167" lon="11.6389767"><ele>193.75</ele><time>2026-04-26T11:28:41.569Z</time></trkpt><trkpt lat="44.2369083" lon="11.6388633"><ele>193.5</ele><time>2026-04-26T11:28:42.562Z</time></trkpt><trkpt lat="44.2367967" lon="11.638745"><ele>193.25</ele><time>2026-04-26T11:28:43.57Z</time></trkpt><trkpt lat="44.2366817" lon="11.63862"><ele>193.0</ele><time>2026-04-26T11:28:44.572Z</time></trkpt><trkpt lat="44.2365633" lon="11.6384917"><ele>190.0</ele><time>2026-04-26T11:28:45.571Z</time></trkpt><trkpt lat="44.236445" lon="11.638365"><ele>187.0</ele><time>2026-04-26T11:28:46.578Z</time></trkpt><trkpt lat="44.2363267" lon="11.6382383"><ele>184.0</ele><time>2026-04-26T11:28:47.57Z</time></trkpt><trkpt lat="44.236205" lon="11.6381067"><ele>184.0</ele><time>2026-04-26T11:28:48.563Z</time></trkpt><trkpt lat="44.23608" lon="11.637975"><ele>184.0</ele><time>2026-04-26T11:28:49.578Z</time></trkpt><trkpt lat="44.2359533" lon="11.6378417"><ele>184.0</ele><time>2026-04-26T11:28:50.575Z</time></trkpt><trkpt lat="44.2358283" lon="11.6377033"><ele>184.33333333333334</ele><time>2026-04-26T11:28:51.578Z</time></trkpt><trkpt lat="44.2357017" lon="11.6375717"><ele>184.66666666666666</ele><time>2026-04-26T11:28:52.571Z</time></trkpt><trkpt lat="44.235575" lon="11.6374467"><ele>185.0</ele><time>2026-04-26T11:28:53.562Z</time></trkpt><trkpt lat="44.2354483" lon="11.6373233"><ele>185.0</ele><time>2026-04-26T11:28:54.578Z</time></trkpt><trkpt lat="44.2353267" lon="11.6371983"><ele>185.0</ele><time>2026-04-26T11:28:55.574Z</time></trkpt><trkpt lat="44.2352067" lon="11.6370717"><ele>185.0</ele><time>2026-04-26T11:28:56.566Z</time></trkpt><trkpt lat="44.2350883" lon="11.6369533"><ele>185.0</ele><time>2026-04-26T11:28:57.573Z</time></trkpt><trkpt lat="44.2349733" lon="11.6368383"><ele>185.75</ele><time>2026-04-26T11:28:58.556Z</time></trkpt><trkpt lat="44.2348617" lon="11.63673"><ele>186.5</ele><time>2026-04-26T11:28:59.576Z</time></trkpt><trkpt lat="44.23475" lon="11.636625"><ele>187.25</ele><time>2026-04-26T11:29:00.573Z</time></trkpt><trkpt lat="44.2346383" lon="11.63653"><ele>188.0</ele><time>2026-04-26T11:29:01.584Z</time></trkpt><trkpt lat="44.2345317" lon="11.6364267"><ele>188.0</ele><time>2026-04-26T11:29:02.571Z</time></trkpt><trkpt lat="44.2344267" lon="11.63632"><ele>188.0</ele><time>2026-04-26T11:29:03.572Z</time></trkpt><trkpt lat="44.234325" lon="11.63621"><ele>188.0</ele><time>2026-04-26T11:29:04.584Z</time></trkpt><trkpt lat="44.23422" lon="11.6361"><ele>188.0</ele><time>2026-04-26T11:29:05.574Z</time></trkpt><trkpt lat="44.2341167" lon="11.6359883"><ele>188.5</ele><time>2026-04-26T11:29:06.576Z</time></trkpt><trkpt lat="44.2340083" lon="11.6358617"><ele>189.0</ele><time>2026-04-26T11:29:07.566Z</time></trkpt><trkpt lat="44.2339" lon="11.6357517"><ele>189.5</ele><time>2026-04-26T11:29:08.57Z</time></trkpt><trkpt lat="44.2337917" lon="11.6356383"><ele>190.0</ele><time>2026-04-26T11:29:09.58Z</time></trkpt><trkpt lat="44.2336867" lon="11.6355267"><ele>190.0</ele><time>2026-04-26T11:29:10.573Z</time></trkpt><trkpt lat="44.233585" lon="11.6354133"><ele>190.0</ele><time>2026-04-26T11:29:11.573Z</time></trkpt><trkpt lat="44.2334833" lon="11.635305"><ele>190.0</ele><time>2026-04-26T11:29:12.578Z</time></trkpt><trkpt lat="44.2333817" lon="11.6351983"><ele>190.0</ele><time>2026-04-26T11:29:13.567Z</time></trkpt><trkpt lat="44.2332767" lon="11.63509"><ele>190.0</ele><time>2026-04-26T11:29:14.565Z</time></trkpt><trkpt lat="44.2331717" lon="11.6349883"><ele>190.0</ele><time>2026-04-26T11:29:15.571Z</time></trkpt><trkpt lat="44.233065" lon="11.6348867"><ele>190.0</ele><time>2026-04-26T11:29:16.576Z</time></trkpt><trkpt lat="44.2329583" lon="11.634775"><ele>190.0</ele><time>2026-04-26T11:29:17.575Z</time></trkpt><trkpt lat="44.23285" lon="11.6346617"><ele>190.0</ele><time>2026-04-26T11:29:18.577Z</time></trkpt><trkpt lat="44.2327417" lon="11.6345433"><ele>190.0</ele><time>2026-04-26T11:29:19.568Z</time></trkpt><trkpt lat="44.2326283" lon="11.6344317"><ele>190.0</ele><time>2026-04-26T11:29:20.572Z</time></trkpt><trkpt lat="44.2325133" lon="11.63432"><ele>190.0</ele><time>2026-04-26T11:29:21.574Z</time></trkpt><trkpt lat="44.2324" lon="11.6342067"><ele>190.75</ele><time>2026-04-26T11:29:22.58Z</time></trkpt><trkpt lat="44.2322883" lon="11.63409"><ele>191.5</ele><time>2026-04-26T11:29:23.57Z</time></trkpt><trkpt lat="44.2321767" lon="11.6339733"><ele>192.25</ele><time>2026-04-26T11:29:24.587Z</time></trkpt><trkpt lat="44.2320617" lon="11.6338567"><ele>193.0</ele><time>2026-04-26T11:29:25.571Z</time></trkpt><trkpt lat="44.23195" lon="11.6337333"><ele>195.25</ele><time>2026-04-26T11:29:26.578Z</time></trkpt><trkpt lat="44.2318367" lon="11.633605"><ele>197.5</ele><time>2026-04-26T11:29:27.573Z</time></trkpt><trkpt lat="44.23172" lon="11.63348"><ele>199.75</ele><time>2026-04-26T11:29:28.573Z</time></trkpt><trkpt lat="44.231605" lon="11.6333617"><ele>202.0</ele><time>2026-04-26T11:29:29.558Z</time></trkpt><trkpt lat="44.2314967" lon="11.6332467"><ele>200.25</ele><time>2026-04-26T11:29:30.571Z</time></trkpt><trkpt lat="44.2313933" lon="11.6331367"><ele>198.5</ele><time>2026-04-26T11:29:31.575Z</time></trkpt><trkpt lat="44.2312883" lon="11.633025"><ele>196.75</ele><time>2026-04-26T11:29:32.569Z</time></trkpt><trkpt lat="44.231185" lon="11.6329117"><ele>195.0</ele><time>2026-04-26T11:29:33.573Z</time></trkpt><trkpt lat="44.2310867" lon="11.6328017"><ele>195.0</ele><time>2026-04-26T11:29:34.572Z</time></trkpt><trkpt lat="44.23099" lon="11.6326967"><ele>195.0</ele><time>2026-04-26T11:29:35.573Z</time></trkpt><trkpt lat="44.2308967" lon="11.6325967"><ele>195.0</ele><time>2026-04-26T11:29:36.577Z</time></trkpt><trkpt lat="44.2308067" lon="11.6325017"><ele>195.0</ele><time>2026-04-26T11:29:37.575Z</time></trkpt><trkpt lat="44.2307217" lon="11.63241"><ele>195.0</ele><time>2026-04-26T11:29:38.57Z</time></trkpt><trkpt lat="44.2306417" lon="11.632315"><ele>195.0</ele><time>2026-04-26T11:29:39.565Z</time></trkpt><trkpt lat="44.2305717" lon="11.6322167"><ele>195.0</ele><time>2026-04-26T11:29:40.567Z</time></trkpt><trkpt lat="44.2305167" lon="11.6321117"><ele>195.0</ele><time>2026-04-26T11:29:41.58Z</time></trkpt><trkpt lat="44.2304717" lon="11.6319983"><ele>195.0</ele><time>2026-04-26T11:29:42.566Z</time></trkpt><trkpt lat="44.2304383" lon="11.6318733"><ele>194.4</ele><time>2026-04-26T11:29:43.56Z</time></trkpt><trkpt lat="44.2304133" lon="11.6317433"><ele>193.8</ele><time>2026-04-26T11:29:44.561Z</time></trkpt><trkpt lat="44.230395" lon="11.6316117"><ele>193.2</ele><time>2026-04-26T11:29:45.567Z</time></trkpt><trkpt lat="44.2303867" lon="11.6314767"><ele>192.6</ele><time>2026-04-26T11:29:46.57Z</time></trkpt><trkpt lat="44.2303917" lon="11.6313317"><ele>192.0</ele><time>2026-04-26T11:29:47.576Z</time></trkpt><trkpt lat="44.2304117" lon="11.63119"><ele>192.39999999999998</ele><time>2026-04-26T11:29:48.573Z</time></trkpt><trkpt lat="44.23044" lon="11.631055"><ele>192.79999999999998</ele><time>2026-04-26T11:29:49.572Z</time></trkpt><trkpt lat="44.2304717" lon="11.63092"><ele>193.2</ele><time>2026-04-26T11:29:50.564Z</time></trkpt><trkpt lat="44.2304967" lon="11.63078"><ele>193.6</ele><time>2026-04-26T11:29:51.58Z</time></trkpt><trkpt lat="44.2305033" lon="11.6306367"><ele>194.0</ele><time>2026-04-26T11:29:52.57Z</time></trkpt><trkpt lat="44.2304933" lon="11.6304867"><ele>194.0</ele><time>2026-04-26T11:29:53.579Z</time></trkpt><trkpt lat="44.2304767" lon="11.6303317"><ele>194.0</ele><time>2026-04-26T11:29:54.573Z</time></trkpt><trkpt lat="44.2304483" lon="11.63018"><ele>194.0</ele><time>2026-04-26T11:29:55.578Z</time></trkpt><trkpt lat="44.2304167" lon="11.63003"><ele>194.0</ele><time>2026-04-26T11:29:56.576Z</time></trkpt><trkpt lat="44.23039" lon="11.629885"><ele>194.0</ele><time>2026-04-26T11:29:57.571Z</time></trkpt><trkpt lat="44.2303617" lon="11.6297333"><ele>195.2</ele><time>2026-04-26T11:29:58.562Z</time></trkpt><trkpt lat="44.2303283" lon="11.629585"><ele>196.39999999999998</ele><time>2026-04-26T11:29:59.563Z</time></trkpt><trkpt lat="44.2302817" lon="11.6294467"><ele>197.6</ele><time>2026-04-26T11:30:00.58Z</time></trkpt><trkpt lat="44.2302217" lon="11.6293217"><ele>198.8</ele><time>2026-04-26T11:30:01.572Z</time></trkpt><trkpt lat="44.2301433" lon="11.6292133"><ele>200.0</ele><time>2026-04-26T11:30:02.567Z</time></trkpt><trkpt lat="44.23006" lon="11.6291083"><ele>200.8</ele><time>2026-04-26T11:30:03.567Z</time></trkpt><trkpt lat="44.2299733" lon="11.6290067"><ele>201.6</ele><time>2026-04-26T11:30:04.579Z</time></trkpt><trkpt lat="44.2298867" lon="11.6289017"><ele>202.39999999999998</ele><time>2026-04-26T11:30:05.57Z</time></trkpt><trkpt lat="44.2298117" lon="11.6287933"><ele>203.2</ele><time>2026-04-26T11:30:06.584Z</time></trkpt><trkpt lat="44.22975" lon="11.6286833"><ele>204.0</ele><time>2026-04-26T11:30:07.573Z</time></trkpt><trkpt lat="44.2297033" lon="11.6285583"><ele>206.0</ele><time>2026-04-26T11:30:08.566Z</time></trkpt><trkpt lat="44.2296783" lon="11.62842"><ele>208.0</ele><time>2026-04-26T11:30:09.575Z</time></trkpt><trkpt lat="44.2296767" lon="11.6282733"><ele>209.99999999999997</ele><time>2026-04-26T11:30:10.567Z</time></trkpt><trkpt lat="44.229695" lon="11.62812"><ele>212.0</ele><time>2026-04-26T11:30:11.568Z</time></trkpt><trkpt lat="44.2297267" lon="11.62797"><ele>214.0</ele><time>2026-04-26T11:30:12.574Z</time></trkpt><trkpt lat="44.2297667" lon="11.62782"><ele>215.0</ele><time>2026-04-26T11:30:13.562Z</time></trkpt><trkpt lat="44.2298117" lon="11.6276683"><ele>216.0</ele><time>2026-04-26T11:30:14.567Z</time></trkpt><trkpt lat="44.2298583" lon="11.627515"><ele>217.0</ele><time>2026-04-26T11:30:15.574Z</time></trkpt><trkpt lat="44.2299117" lon="11.6273617"><ele>218.0</ele><time>2026-04-26T11:30:16.575Z</time></trkpt><trkpt lat="44.2299683" lon="11.62721"><ele>218.0</ele><time>2026-04-26T11:30:17.566Z</time></trkpt><trkpt lat="44.2300233" lon="11.6270583"><ele>218.0</ele><time>2026-04-26T11:30:18.578Z</time></trkpt><trkpt lat="44.2300783" lon="11.62691"><ele>218.0</ele><time>2026-04-26T11:30:19.578Z</time></trkpt><trkpt lat="44.230125" lon="11.6267683"><ele>218.0</ele><time>2026-04-26T11:30:20.571Z</time></trkpt><trkpt lat="44.230155" lon="11.62663"><ele>219.0</ele><time>2026-04-26T11:30:21.579Z</time></trkpt><trkpt lat="44.2301633" lon="11.626495"><ele>220.0</ele><time>2026-04-26T11:30:22.569Z</time></trkpt><trkpt lat="44.2301417" lon="11.6263633"><ele>221.0</ele><time>2026-04-26T11:30:23.571Z</time></trkpt><trkpt lat="44.23009" lon="11.6262517"><ele>222.0</ele><time>2026-04-26T11:30:24.563Z</time></trkpt><trkpt lat="44.2300167" lon="11.6261617"><ele>223.0</ele><time>2026-04-26T11:30:25.573Z</time></trkpt><trkpt lat="44.2299267" lon="11.62609"><ele>224.75</ele><time>2026-04-26T11:30:26.568Z</time></trkpt><trkpt lat="44.2298283" lon="11.6260283"><ele>226.5</ele><time>2026-04-26T11:30:27.571Z</time></trkpt><trkpt lat="44.229725" lon="11.6259717"><ele>228.25</ele><time>2026-04-26T11:30:28.566Z</time></trkpt><trkpt lat="44.2296167" lon="11.6259217"><ele>230.0</ele><time>2026-04-26T11:30:29.569Z</time></trkpt><trkpt lat="44.2295067" lon="11.625865"><ele>230.0</ele><time>2026-04-26T11:30:30.57Z</time></trkpt><trkpt lat="44.2294" lon="11.625795"><ele>230.0</ele><time>2026-04-26T11:30:31.586Z</time></trkpt><trkpt lat="44.2292933" lon="11.6257183"><ele>230.0</ele><time>2026-04-26T11:30:32.569Z</time></trkpt><trkpt lat="44.2291883" lon="11.62563"><ele>230.0</ele><time>2026-04-26T11:30:33.574Z</time></trkpt><trkpt lat="44.2290833" lon="11.6255333"><ele>230.0</ele><time>2026-04-26T11:30:34.568Z</time></trkpt><trkpt lat="44.22898" lon="11.6254317"><ele>230.0</ele><time>2026-04-26T11:30:35.572Z</time></trkpt><trkpt lat="44.228875" lon="11.6253283"><ele>230.0</ele><time>2026-04-26T11:30:36.571Z</time></trkpt><trkpt lat="44.22877" lon="11.625225"><ele>230.0</ele><time>2026-04-26T11:30:37.578Z</time></trkpt><trkpt lat="44.228665" lon="11.6251217"><ele>232.0</ele><time>2026-04-26T11:30:38.57Z</time></trkpt><trkpt lat="44.22856" lon="11.6250183"><ele>234.0</ele><time>2026-04-26T11:30:39.573Z</time></trkpt><trkpt lat="44.228455" lon="11.624915"><ele>236.0</ele><time>2026-04-26T11:30:40.581Z</time></trkpt><trkpt lat="44.2283467" lon="11.6248133"><ele>238.0</ele><time>2026-04-26T11:30:41.571Z</time></trkpt><trkpt lat="44.2282383" lon="11.62471"><ele>237.25</ele><time>2026-04-26T11:30:42.579Z</time></trkpt><trkpt lat="44.2281317" lon="11.6246067"><ele>236.5</ele><time>2026-04-26T11:30:43.579Z</time></trkpt><trkpt lat="44.2280267" lon="11.6245033"><ele>235.75</ele><time>2026-04-26T11:30:44.575Z</time></trkpt><trkpt lat="44.2279217" lon="11.6244033"><ele>235.0</ele><time>2026-04-26T11:30:45.572Z</time></trkpt><trkpt lat="44.22782" lon="11.6243033"><ele>236.5</ele><time>2026-04-26T11:30:46.581Z</time></trkpt><trkpt lat="44.22772" lon="11.624205"><ele>238.0</ele><time>2026-04-26T11:30:47.569Z</time></trkpt><trkpt lat="44.2276217" lon="11.624105"><ele>239.5</ele><time>2026-04-26T11:30:48.565Z</time></trkpt><trkpt lat="44.22753" lon="11.624005"><ele>241.0</ele><time>2026-04-26T11:30:49.567Z</time></trkpt><trkpt lat="44.227445" lon="11.6239017"><ele>241.0</ele><time>2026-04-26T11:30:50.566Z</time></trkpt><trkpt lat="44.22737" lon="11.6237917"><ele>241.00000000000003</ele><time>2026-04-26T11:30:51.572Z</time></trkpt><trkpt lat="44.2273117" lon="11.6236817"><ele>241.00000000000003</ele><time>2026-04-26T11:30:52.57Z</time></trkpt><trkpt lat="44.227275" lon="11.6235667"><ele>241.0</ele><time>2026-04-26T11:30:53.57Z</time></trkpt><trkpt lat="44.2272617" lon="11.623445"><ele>241.0</ele><time>2026-04-26T11:30:54.578Z</time></trkpt><trkpt lat="44.2272717" lon="11.6233233"><ele>241.4</ele><time>2026-04-26T11:30:55.576Z</time></trkpt><trkpt lat="44.2272983" lon="11.6232033"><ele>241.8</ele><time>2026-04-26T11:30:56.585Z</time></trkpt><trkpt lat="44.2273483" lon="11.6230917"><ele>242.20000000000002</ele><time>2026-04-26T11:30:57.573Z</time></trkpt><trkpt lat="44.227415" lon="11.6229933"><ele>242.60000000000002</ele><time>2026-04-26T11:30:58.564Z</time></trkpt><trkpt lat="44.2274967" lon="11.6229133"><ele>243.0</ele><time>2026-04-26T11:30:59.569Z</time></trkpt><trkpt lat="44.2275883" lon="11.62285"><ele>244.2</ele><time>2026-04-26T11:31:00.574Z</time></trkpt><trkpt lat="44.2276833" lon="11.6227983"><ele>245.4</ele><time>2026-04-26T11:31:01.575Z</time></trkpt><trkpt lat="44.2277783" lon="11.622765"><ele>246.59999999999997</ele><time>2026-04-26T11:31:02.566Z</time></trkpt><trkpt lat="44.2278733" lon="11.6227583"><ele>247.79999999999998</ele><time>2026-04-26T11:31:03.561Z</time></trkpt><trkpt lat="44.2279617" lon="11.622785"><ele>249.0</ele><time>2026-04-26T11:31:04.572Z</time></trkpt><trkpt lat="44.2280417" lon="11.6228433"><ele>249.0</ele><time>2026-04-26T11:31:05.572Z</time></trkpt><trkpt lat="44.2281183" lon="11.6229267"><ele>248.99999999999997</ele><time>2026-04-26T11:31:06.566Z</time></trkpt><trkpt lat="44.2282" lon="11.6230167"><ele>248.99999999999997</ele><time>2026-04-26T11:31:07.574Z</time></trkpt><trkpt lat="44.228285" lon="11.6231067"><ele>249.0</ele><time>2026-04-26T11:31:08.57Z</time></trkpt><trkpt lat="44.2283767" lon="11.623195"><ele>249.0</ele><time>2026-04-26T11:31:09.569Z</time></trkpt><trkpt lat="44.228465" lon="11.6232917"><ele>248.75</ele><time>2026-04-26T11:31:10.573Z</time></trkpt><trkpt lat="44.2285467" lon="11.6234017"><ele>248.5</ele><time>2026-04-26T11:31:11.567Z</time></trkpt><trkpt lat="44.228625" lon="11.62352"><ele>248.25</ele><time>2026-04-26T11:31:12.573Z</time></trkpt><trkpt lat="44.2287" lon="11.623645"><ele>248.0</ele><time>2026-04-26T11:31:13.578Z</time></trkpt><trkpt lat="44.2287717" lon="11.6237783"><ele>248.0</ele><time>2026-04-26T11:31:14.57Z</time></trkpt><trkpt lat="44.2288483" lon="11.62391"><ele>248.0</ele><time>2026-04-26T11:31:15.578Z</time></trkpt><trkpt lat="44.228925" lon="11.6240367"><ele>248.0</ele><time>2026-04-26T11:31:16.563Z</time></trkpt><trkpt lat="44.2290033" lon="11.624145"><ele>248.0</ele><time>2026-04-26T11:31:17.584Z</time></trkpt><trkpt lat="44.2290883" lon="11.6242267"><ele>250.33333333333334</ele><time>2026-04-26T11:31:18.574Z</time></trkpt><trkpt lat="44.2291717" lon="11.6242817"><ele>252.66666666666669</ele><time>2026-04-26T11:31:19.569Z</time></trkpt><trkpt lat="44.22925" lon="11.6243133"><ele>255.0</ele><time>2026-04-26T11:31:20.569Z</time></trkpt><trkpt lat="44.2293267" lon="11.6243067"><ele>257.3333333333333</ele><time>2026-04-26T11:31:21.57Z</time></trkpt><trkpt lat="44.2293967" lon="11.6242583"><ele>259.66666666666663</ele><time>2026-04-26T11:31:22.567Z</time></trkpt><trkpt lat="44.2294667" lon="11.624195"><ele>262.0</ele><time>2026-04-26T11:31:23.571Z</time></trkpt><trkpt lat="44.2295333" lon="11.6241167"><ele>262.0</ele><time>2026-04-26T11:31:24.572Z</time></trkpt><trkpt lat="44.2295983" lon="11.624035"><ele>262.0</ele><time>2026-04-26T11:31:25.57Z</time></trkpt><trkpt lat="44.2296617" lon="11.6239617"><ele>262.0</ele><time>2026-04-26T11:31:26.57Z</time></trkpt><trkpt lat="44.2297217" lon="11.6238933"><ele>262.0</ele><time>2026-04-26T11:31:27.574Z</time></trkpt><trkpt lat="44.2297817" lon="11.6238367"><ele>262.0</ele><time>2026-04-26T11:31:28.584Z</time></trkpt><trkpt lat="44.2298417" lon="11.62379"><ele>262.0</ele><time>2026-04-26T11:31:29.573Z</time></trkpt><trkpt lat="44.229905" lon="11.6237517"><ele>262.0</ele><time>2026-04-26T11:31:30.558Z</time></trkpt><trkpt lat="44.229975" lon="11.62372"><ele>262.0</ele><time>2026-04-26T11:31:31.565Z</time></trkpt><trkpt lat="44.2300467" lon="11.623695"><ele>262.0</ele><time>2026-04-26T11:31:32.57Z</time></trkpt><trkpt lat="44.2301167" lon="11.623675"><ele>262.0</ele><time>2026-04-26T11:31:33.573Z</time></trkpt><trkpt lat="44.2301933" lon="11.6236567"><ele>262.0</ele><time>2026-04-26T11:31:34.573Z</time></trkpt><trkpt lat="44.23028" lon="11.623635"><ele>262.0</ele><time>2026-04-26T11:31:35.579Z</time></trkpt><trkpt lat="44.23037" lon="11.62361"><ele>265.4</ele><time>2026-04-26T11:31:36.575Z</time></trkpt><trkpt lat="44.23046" lon="11.6235767"><ele>268.79999999999995</ele><time>2026-04-26T11:31:37.573Z</time></trkpt><trkpt lat="44.2305483" lon="11.6235383"><ele>272.2</ele><time>2026-04-26T11:31:38.579Z</time></trkpt><trkpt lat="44.2306433" lon="11.6235"><ele>275.59999999999997</ele><time>2026-04-26T11:31:39.572Z</time></trkpt><trkpt lat="44.2307467" lon="11.6234633"><ele>279.0</ele><time>2026-04-26T11:31:40.58Z</time></trkpt><trkpt lat="44.2308483" lon="11.6234233"><ele>279.0</ele><time>2026-04-26T11:31:41.573Z</time></trkpt><trkpt lat="44.23095" lon="11.623375"><ele>279.0</ele><time>2026-04-26T11:31:42.571Z</time></trkpt><trkpt lat="44.2310517" lon="11.6233217"><ele>279.0</ele><time>2026-04-26T11:31:43.567Z</time></trkpt><trkpt lat="44.231145" lon="11.62326"><ele>279.0</ele><time>2026-04-26T11:31:44.561Z</time></trkpt><trkpt lat="44.2312367" lon="11.623195"><ele>279.0</ele><time>2026-04-26T11:31:45.576Z</time></trkpt><trkpt lat="44.23133" lon="11.62313"><ele>279.0</ele><time>2026-04-26T11:31:46.576Z</time></trkpt><trkpt lat="44.2314283" lon="11.6230717"><ele>279.0</ele><time>2026-04-26T11:31:47.571Z</time></trkpt><trkpt lat="44.2315283" lon="11.6230283"><ele>279.0</ele><time>2026-04-26T11:31:48.569Z</time></trkpt><trkpt lat="44.2316317" lon="11.6230033"><ele>279.0</ele><time>2026-04-26T11:31:49.573Z</time></trkpt><trkpt lat="44.2317333" lon="11.62299"><ele>279.0</ele><time>2026-04-26T11:31:50.578Z</time></trkpt><trkpt lat="44.23184" lon="11.6229867"><ele>278.0</ele><time>2026-04-26T11:31:51.577Z</time></trkpt><trkpt lat="44.23195" lon="11.6229883"><ele>277.0</ele><time>2026-04-26T11:31:52.571Z</time></trkpt><trkpt lat="44.2320583" lon="11.6229933"><ele>276.0</ele><time>2026-04-26T11:31:53.569Z</time></trkpt><trkpt lat="44.23217" lon="11.6230067"><ele>275.0</ele><time>2026-04-26T11:31:54.573Z</time></trkpt><trkpt lat="44.2322817" lon="11.6230217"><ele>274.0</ele><time>2026-04-26T11:31:55.58Z</time></trkpt><trkpt lat="44.2323917" lon="11.623035"><ele>274.0</ele><time>2026-04-26T11:31:56.587Z</time></trkpt><trkpt lat="44.232495" lon="11.623035"><ele>274.0</ele><time>2026-04-26T11:31:57.568Z</time></trkpt><trkpt lat="44.2325833" lon="11.6230233"><ele>274.0</ele><time>2026-04-26T11:31:58.572Z</time></trkpt><trkpt lat="44.2326533" lon="11.6230033"><ele>274.0</ele><time>2026-04-26T11:31:59.576Z</time></trkpt><trkpt lat="44.2327067" lon="11.6228917"><ele>274.0</ele><time>2026-04-26T11:32:01.568Z</time></trkpt><trkpt lat="44.2326917" lon="11.622735"><ele>277.5</ele><time>2026-04-26T11:32:03.574Z</time></trkpt><trkpt lat="44.2326567" lon="11.6226483"><ele>281.0</ele><time>2026-04-26T11:32:04.576Z</time></trkpt><trkpt lat="44.2325967" lon="11.6225867"><ele>284.5</ele><time>2026-04-26T11:32:05.571Z</time></trkpt><trkpt lat="44.23252" lon="11.6225733"><ele>288.0</ele><time>2026-04-26T11:32:06.577Z</time></trkpt><trkpt lat="44.2324333" lon="11.62261"><ele>291.5</ele><time>2026-04-26T11:32:07.571Z</time></trkpt><trkpt lat="44.2323467" lon="11.62266"><ele>295.0</ele><time>2026-04-26T11:32:08.565Z</time></trkpt><trkpt lat="44.2322617" lon="11.6226933"><ele>296.0</ele><time>2026-04-26T11:32:09.573Z</time></trkpt><trkpt lat="44.2321833" lon="11.6227067"><ele>297.0</ele><time>2026-04-26T11:32:10.572Z</time></trkpt><trkpt lat="44.2321133" lon="11.6227117"><ele>298.0</ele><time>2026-04-26T11:32:11.562Z</time></trkpt><trkpt lat="44.23204" lon="11.6226783"><ele>299.0</ele><time>2026-04-26T11:32:12.57Z</time></trkpt><trkpt lat="44.2319717" lon="11.6226317"><ele>300.0</ele><time>2026-04-26T11:32:13.582Z</time></trkpt><trkpt lat="44.231905" lon="11.6225767"><ele>301.0</ele><time>2026-04-26T11:32:14.571Z</time></trkpt><trkpt lat="44.2318367" lon="11.62252"><ele>301.0</ele><time>2026-04-26T11:32:15.572Z</time></trkpt><trkpt lat="44.2317633" lon="11.6224733"><ele>301.0</ele><time>2026-04-26T11:32:16.573Z</time></trkpt><trkpt lat="44.2316867" lon="11.6224283"><ele>301.0</ele><time>2026-04-26T11:32:17.566Z</time></trkpt><trkpt lat="44.2316067" lon="11.6223983"><ele>301.0</ele><time>2026-04-26T11:32:18.571Z</time></trkpt><trkpt lat="44.2315233" lon="11.62238"><ele>301.0</ele><time>2026-04-26T11:32:19.57Z</time></trkpt><trkpt lat="44.2314367" lon="11.62238"><ele>301.0</ele><time>2026-04-26T11:32:20.571Z</time></trkpt><trkpt lat="44.2313533" lon="11.6223933"><ele>303.3333333333333</ele><time>2026-04-26T11:32:21.571Z</time></trkpt><trkpt lat="44.2312717" lon="11.6224133"><ele>305.66666666666663</ele><time>2026-04-26T11:32:22.579Z</time></trkpt><trkpt lat="44.23119" lon="11.6224433"><ele>308.0</ele><time>2026-04-26T11:32:23.568Z</time></trkpt><trkpt lat="44.23111" lon="11.6224833"><ele>310.3333333333333</ele><time>2026-04-26T11:32:24.588Z</time></trkpt><trkpt lat="44.2310333" lon="11.62253"><ele>312.6666666666667</ele><time>2026-04-26T11:32:25.562Z</time></trkpt><trkpt lat="44.230955" lon="11.622575"><ele>315.0</ele><time>2026-04-26T11:32:26.565Z</time></trkpt><trkpt lat="44.2308767" lon="11.6226"><ele>315.0</ele><time>2026-04-26T11:32:27.573Z</time></trkpt><trkpt lat="44.2307967" lon="11.622605"><ele>315.0</ele><time>2026-04-26T11:32:28.574Z</time></trkpt><trkpt lat="44.2307133" lon="11.6225933"><ele>315.0</ele><time>2026-04-26T11:32:29.579Z</time></trkpt><trkpt lat="44.2306283" lon="11.6225717"><ele>315.0</ele><time>2026-04-26T11:32:30.566Z</time></trkpt><trkpt lat="44.230545" lon="11.6225533"><ele>315.0</ele><time>2026-04-26T11:32:31.569Z</time></trkpt><trkpt lat="44.2304583" lon="11.62255"><ele>315.0</ele><time>2026-04-26T11:32:32.582Z</time></trkpt><trkpt lat="44.23037" lon="11.62255"><ele>316.6</ele><time>2026-04-26T11:32:33.572Z</time></trkpt><trkpt lat="44.2302783" lon="11.6225533"><ele>318.2</ele><time>2026-04-26T11:32:34.569Z</time></trkpt><trkpt lat="44.230185" lon="11.62256"><ele>319.79999999999995</ele><time>2026-04-26T11:32:35.57Z</time></trkpt><trkpt lat="44.2300917" lon="11.622565"><ele>321.4</ele><time>2026-04-26T11:32:36.574Z</time></trkpt><trkpt lat="44.23" lon="11.6225617"><ele>323.0</ele><time>2026-04-26T11:32:37.568Z</time></trkpt><trkpt lat="44.229905" lon="11.6225517"><ele>323.0</ele><time>2026-04-26T11:32:38.569Z</time></trkpt><trkpt lat="44.2298117" lon="11.6225417"><ele>323.0</ele><time>2026-04-26T11:32:39.566Z</time></trkpt><trkpt lat="44.2297183" lon="11.6225267"><ele>323.0</ele><time>2026-04-26T11:32:40.562Z</time></trkpt><trkpt lat="44.2296267" lon="11.622505"><ele>323.0</ele><time>2026-04-26T11:32:41.568Z</time></trkpt><trkpt lat="44.2295367" lon="11.62248"><ele>323.0</ele><time>2026-04-26T11:32:42.564Z</time></trkpt><trkpt lat="44.2294467" lon="11.6224433"><ele>319.79999999999995</ele><time>2026-04-26T11:32:43.568Z</time></trkpt><trkpt lat="44.2293583" lon="11.6223867"><ele>316.59999999999997</ele><time>2026-04-26T11:32:44.573Z</time></trkpt><trkpt lat="44.2292783" lon="11.622305"><ele>313.4</ele><time>2026-04-26T11:32:45.57Z</time></trkpt><trkpt lat="44.2292083" lon="11.6222183"><ele>310.2</ele><time>2026-04-26T11:32:46.574Z</time></trkpt><trkpt lat="44.22915" lon="11.622115"><ele>307.0</ele><time>2026-04-26T11:32:47.568Z</time></trkpt><trkpt lat="44.2291283" lon="11.6220017"><ele>309.66666666666663</ele><time>2026-04-26T11:32:48.57Z</time></trkpt><trkpt lat="44.2291217" lon="11.621885"><ele>312.3333333333333</ele><time>2026-04-26T11:32:49.58Z</time></trkpt><trkpt lat="44.2291217" lon="11.6217617"><ele>315.0</ele><time>2026-04-26T11:32:50.572Z</time></trkpt><trkpt lat="44.2291367" lon="11.6216317"><ele>317.6666666666667</ele><time>2026-04-26T11:32:51.588Z</time></trkpt><trkpt lat="44.2291483" lon="11.621505"><ele>320.33333333333337</ele><time>2026-04-26T11:32:52.57Z</time></trkpt><trkpt lat="44.2291683" lon="11.6213867"><ele>323.0</ele><time>2026-04-26T11:32:53.573Z</time></trkpt><trkpt lat="44.2292083" lon="11.621275"><ele>323.0</ele><time>2026-04-26T11:32:54.576Z</time></trkpt><trkpt lat="44.2292533" lon="11.6211617"><ele>323.0</ele><time>2026-04-26T11:32:55.567Z</time></trkpt><trkpt lat="44.2293067" lon="11.6210483"><ele>323.0</ele><time>2026-04-26T11:32:56.569Z</time></trkpt><trkpt lat="44.229355" lon="11.6209317"><ele>323.0</ele><time>2026-04-26T11:32:57.574Z</time></trkpt><trkpt lat="44.2294" lon="11.6208067"><ele>323.0</ele><time>2026-04-26T11:32:58.568Z</time></trkpt><trkpt lat="44.2294333" lon="11.6206783"><ele>323.0</ele><time>2026-04-26T11:32:59.561Z</time></trkpt><trkpt lat="44.2294517" lon="11.62055"><ele>323.0</ele><time>2026-04-26T11:33:00.57Z</time></trkpt><trkpt lat="44.2294533" lon="11.6204167"><ele>323.0</ele><time>2026-04-26T11:33:01.572Z</time></trkpt><trkpt lat="44.2294483" lon="11.6202883"><ele>323.0</ele><time>2026-04-26T11:33:02.569Z</time></trkpt><trkpt lat="44.2294483" lon="11.620165"><ele>323.0</ele><time>2026-04-26T11:33:03.582Z</time></trkpt><trkpt lat="44.229445" lon="11.6200417"><ele>325.0</ele><time>2026-04-26T11:33:04.577Z</time></trkpt><trkpt lat="44.22942" lon="11.61991"><ele>327.0</ele><time>2026-04-26T11:33:05.583Z</time></trkpt><trkpt lat="44.2293933" lon="11.61979"><ele>329.0</ele><time>2026-04-26T11:33:06.563Z</time></trkpt><trkpt lat="44.22936" lon="11.6196733"><ele>331.0</ele><time>2026-04-26T11:33:07.57Z</time></trkpt><trkpt lat="44.2293117" lon="11.619565"><ele>333.0</ele><time>2026-04-26T11:33:08.575Z</time></trkpt><trkpt lat="44.22924" lon="11.6194783"><ele>332.0</ele><time>2026-04-26T11:33:09.575Z</time></trkpt><trkpt lat="44.2291633" lon="11.61939"><ele>331.0</ele><time>2026-04-26T11:33:10.581Z</time></trkpt><trkpt lat="44.2290817" lon="11.6193217"><ele>330.0</ele><time>2026-04-26T11:33:11.573Z</time></trkpt><trkpt lat="44.2289833" lon="11.61926"><ele>329.0</ele><time>2026-04-26T11:33:12.584Z</time></trkpt><trkpt lat="44.2288833" lon="11.6192217"><ele>328.0</ele><time>2026-04-26T11:33:13.567Z</time></trkpt><trkpt lat="44.2287867" lon="11.6191883"><ele>328.0</ele><time>2026-04-26T11:33:14.567Z</time></trkpt><trkpt lat="44.228695" lon="11.6191483"><ele>328.0</ele><time>2026-04-26T11:33:15.557Z</time></trkpt><trkpt lat="44.2286083" lon="11.6190883"><ele>328.0</ele><time>2026-04-26T11:33:16.576Z</time></trkpt><trkpt lat="44.228535" lon="11.6190167"><ele>328.0</ele><time>2026-04-26T11:33:17.57Z</time></trkpt><trkpt lat="44.2284733" lon="11.618935"><ele>328.0</ele><time>2026-04-26T11:33:18.575Z</time></trkpt><trkpt lat="44.22844" lon="11.6188433"><ele>328.0</ele><time>2026-04-26T11:33:19.575Z</time></trkpt><trkpt lat="44.2284567" lon="11.6187517"><ele>328.0</ele><time>2026-04-26T11:33:20.582Z</time></trkpt><trkpt lat="44.228495" lon="11.61868"><ele>328.0</ele><time>2026-04-26T11:33:21.575Z</time></trkpt><trkpt lat="44.2285483" lon="11.6186317"><ele>328.0</ele><time>2026-04-26T11:33:22.579Z</time></trkpt><trkpt lat="44.2286283" lon="11.6186417"><ele>328.0</ele><time>2026-04-26T11:33:23.563Z</time></trkpt><trkpt lat="44.2287017" lon="11.618675"><ele>328.0</ele><time>2026-04-26T11:33:24.575Z</time></trkpt><trkpt lat="44.2287683" lon="11.6187417"><ele>328.0</ele><time>2026-04-26T11:33:25.571Z</time></trkpt><trkpt lat="44.2288333" lon="11.6188167"><ele>328.0</ele><time>2026-04-26T11:33:26.565Z</time></trkpt><trkpt lat="44.2289033" lon="11.618885"><ele>328.0</ele><time>2026-04-26T11:33:27.598Z</time></trkpt><trkpt lat="44.2289783" lon="11.6189483"><ele>328.0</ele><time>2026-04-26T11:33:28.57Z</time></trkpt><trkpt lat="44.229065" lon="11.6190067"><ele>328.0</ele><time>2026-04-26T11:33:29.567Z</time></trkpt><trkpt lat="44.2291517" lon="11.6190583"><ele>328.0</ele><time>2026-04-26T11:33:30.558Z</time></trkpt><trkpt lat="44.2292283" lon="11.619115"><ele>329.0</ele><time>2026-04-26T11:33:31.571Z</time></trkpt><trkpt lat="44.2293067" lon="11.6191767"><ele>330.0</ele><time>2026-04-26T11:33:32.564Z</time></trkpt><trkpt lat="44.2293933" lon="11.6192567"><ele>331.0</ele><time>2026-04-26T11:33:33.578Z</time></trkpt><trkpt lat="44.2294817" lon="11.619335"><ele>332.0</ele><time>2026-04-26T11:33:34.573Z</time></trkpt><trkpt lat="44.2295733" lon="11.619415"><ele>333.0</ele><time>2026-04-26T11:33:35.57Z</time></trkpt><trkpt lat="44.2296517" lon="11.6195033"><ele>333.0</ele><time>2026-04-26T11:33:36.574Z</time></trkpt><trkpt lat="44.2297233" lon="11.6196033"><ele>333.0</ele><time>2026-04-26T11:33:37.583Z</time></trkpt><trkpt lat="44.2297933" lon="11.619715"><ele>333.0</ele><time>2026-04-26T11:33:38.573Z</time></trkpt><trkpt lat="44.2298583" lon="11.61983"><ele>333.0</ele><time>2026-04-26T11:33:39.578Z</time></trkpt><trkpt lat="44.2298917" lon="11.6199467"><ele>333.0</ele><time>2026-04-26T11:33:40.582Z</time></trkpt><trkpt lat="44.2299233" lon="11.6200767"><ele>337.4</ele><time>2026-04-26T11:33:41.585Z</time></trkpt><trkpt lat="44.229935" lon="11.6202117"><ele>341.79999999999995</ele><time>2026-04-26T11:33:42.571Z</time></trkpt><trkpt lat="44.2299433" lon="11.6203467"><ele>346.2</ele><time>2026-04-26T11:33:43.572Z</time></trkpt><trkpt lat="44.22995" lon="11.620485"><ele>350.6</ele><time>2026-04-26T11:33:44.559Z</time></trkpt><trkpt lat="44.2299617" lon="11.6206233"><ele>355.0</ele><time>2026-04-26T11:33:45.563Z</time></trkpt><trkpt lat="44.2299667" lon="11.6207483"><ele>355.0</ele><time>2026-04-26T11:33:46.575Z</time></trkpt><trkpt lat="44.2299833" lon="11.62086"><ele>355.0</ele><time>2026-04-26T11:33:47.567Z</time></trkpt><trkpt lat="44.2300067" lon="11.6209683"><ele>355.0</ele><time>2026-04-26T11:33:48.573Z</time></trkpt><trkpt lat="44.2300467" lon="11.6210617"><ele>355.0</ele><time>2026-04-26T11:33:49.567Z</time></trkpt><trkpt lat="44.2301033" lon="11.6211233"><ele>355.0</ele><time>2026-04-26T11:33:50.57Z</time></trkpt><trkpt lat="44.2301667" lon="11.6211667"><ele>355.0</ele><time>2026-04-26T11:33:51.578Z</time></trkpt><trkpt lat="44.2302383" lon="11.6211467"><ele>355.0</ele><time>2026-04-26T11:33:52.569Z</time></trkpt><trkpt lat="44.2303083" lon="11.621105"><ele>355.0</ele><time>2026-04-26T11:33:53.562Z</time></trkpt><trkpt lat="44.23037" lon="11.621045"><ele>355.0</ele><time>2026-04-26T11:33:54.57Z</time></trkpt><trkpt lat="44.2303983" lon="11.62092"><ele>355.0</ele><time>2026-04-26T11:33:55.572Z</time></trkpt><trkpt lat="44.2304167" lon="11.62078"><ele>355.0</ele><time>2026-04-26T11:33:56.572Z</time></trkpt><trkpt lat="44.2304333" lon="11.620645"><ele>355.0</ele><time>2026-04-26T11:33:57.568Z</time></trkpt><trkpt lat="44.2304433" lon="11.620505"><ele>355.0</ele><time>2026-04-26T11:33:58.565Z</time></trkpt><trkpt lat="44.2304483" lon="11.6203583"><ele>355.0</ele><time>2026-04-26T11:33:59.564Z</time></trkpt><trkpt lat="44.230455" lon="11.6202067"><ele>355.0</ele><time>2026-04-26T11:34:00.562Z</time></trkpt><trkpt lat="44.2304683" lon="11.6200517"><ele>355.0</ele><time>2026-04-26T11:34:01.565Z</time></trkpt><trkpt lat="44.2304817" lon="11.6198933"><ele>355.0</ele><time>2026-04-26T11:34:02.568Z</time></trkpt><trkpt lat="44.2305" lon="11.619735"><ele>357.0</ele><time>2026-04-26T11:34:03.579Z</time></trkpt><trkpt lat="44.2305117" lon="11.6195783"><ele>359.0</ele><time>2026-04-26T11:34:04.569Z</time></trkpt><trkpt lat="44.2305233" lon="11.6194233"><ele>361.0</ele><time>2026-04-26T11:34:05.568Z</time></trkpt><trkpt lat="44.230535" lon="11.6192633"><ele>363.0</ele><time>2026-04-26T11:34:06.564Z</time></trkpt><trkpt lat="44.2305467" lon="11.6191017"><ele>364.75</ele><time>2026-04-26T11:34:07.569Z</time></trkpt><trkpt lat="44.2305583" lon="11.6189367"><ele>366.5</ele><time>2026-04-26T11:34:08.573Z</time></trkpt><trkpt lat="44.23057" lon="11.6187667"><ele>368.25</ele><time>2026-04-26T11:34:09.582Z</time></trkpt><trkpt lat="44.2305783" lon="11.6185917"><ele>370.0</ele><time>2026-04-26T11:34:10.572Z</time></trkpt><trkpt lat="44.230585" lon="11.6184117"><ele>370.0</ele><time>2026-04-26T11:34:11.571Z</time></trkpt><trkpt lat="44.2305917" lon="11.61823"><ele>370.0</ele><time>2026-04-26T11:34:12.57Z</time></trkpt><trkpt lat="44.2305983" lon="11.61805"><ele>370.0</ele><time>2026-04-26T11:34:13.583Z</time></trkpt><trkpt lat="44.230615" lon="11.617885"><ele>370.0</ele><time>2026-04-26T11:34:14.571Z</time></trkpt><trkpt lat="44.2306433" lon="11.6177417"><ele>371.16666666666663</ele><time>2026-04-26T11:34:15.573Z</time></trkpt><trkpt lat="44.2306883" lon="11.617635"><ele>372.3333333333333</ele><time>2026-04-26T11:34:16.568Z</time></trkpt><trkpt lat="44.2307583" lon="11.6175967"><ele>373.5</ele><time>2026-04-26T11:34:17.575Z</time></trkpt><trkpt lat="44.230835" lon="11.617575"><ele>374.6666666666667</ele><time>2026-04-26T11:34:18.572Z</time></trkpt><trkpt lat="44.230925" lon="11.61756"><ele>375.83333333333337</ele><time>2026-04-26T11:34:19.581Z</time></trkpt><trkpt lat="44.23101" lon="11.6175333"><ele>377.0</ele><time>2026-04-26T11:34:20.568Z</time></trkpt><trkpt lat="44.231095" lon="11.61748"><ele>377.0</ele><time>2026-04-26T11:34:21.563Z</time></trkpt><trkpt lat="44.2311867" lon="11.6174033"><ele>377.0</ele><time>2026-04-26T11:34:22.567Z</time></trkpt><trkpt lat="44.2312717" lon="11.6173133"><ele>377.0</ele><time>2026-04-26T11:34:23.568Z</time></trkpt><trkpt lat="44.2313533" lon="11.6172117"><ele>377.0</ele><time>2026-04-26T11:34:24.574Z</time></trkpt><trkpt lat="44.231435" lon="11.6170967"><ele>377.0</ele><time>2026-04-26T11:34:25.565Z</time></trkpt><trkpt lat="44.23151" lon="11.6169717"><ele>378.20000000000005</ele><time>2026-04-26T11:34:26.572Z</time></trkpt><trkpt lat="44.2315833" lon="11.6168483"><ele>379.4</ele><time>2026-04-26T11:34:27.587Z</time></trkpt><trkpt lat="44.2316483" lon="11.6167267"><ele>380.6</ele><time>2026-04-26T11:34:28.569Z</time></trkpt><trkpt lat="44.2317133" lon="11.616605"><ele>381.79999999999995</ele><time>2026-04-26T11:34:29.565Z</time></trkpt><trkpt lat="44.2317833" lon="11.6164867"><ele>383.0</ele><time>2026-04-26T11:34:30.569Z</time></trkpt><trkpt lat="44.2318533" lon="11.6163717"><ele>383.0</ele><time>2026-04-26T11:34:31.571Z</time></trkpt><trkpt lat="44.23192" lon="11.6162633"><ele>383.0</ele><time>2026-04-26T11:34:32.565Z</time></trkpt><trkpt lat="44.2319817" lon="11.616165"><ele>383.0</ele><time>2026-04-26T11:34:33.575Z</time></trkpt><trkpt lat="44.2320383" lon="11.61606"><ele>383.0</ele><time>2026-04-26T11:34:34.567Z</time></trkpt><trkpt lat="44.2321" lon="11.6159417"><ele>383.0</ele><time>2026-04-26T11:34:35.572Z</time></trkpt><trkpt lat="44.2321567" lon="11.615825"><ele>383.0</ele><time>2026-04-26T11:34:36.561Z</time></trkpt><trkpt lat="44.2322167" lon="11.6157117"><ele>383.0</ele><time>2026-04-26T11:34:37.568Z</time></trkpt><trkpt lat="44.2322717" lon="11.615605"><ele>383.0</ele><time>2026-04-26T11:34:38.575Z</time></trkpt><trkpt lat="44.2323317" lon="11.6154983"><ele>383.0</ele><time>2026-04-26T11:34:39.58Z</time></trkpt><trkpt lat="44.2324017" lon="11.6154117"><ele>383.0</ele><time>2026-04-26T11:34:40.567Z</time></trkpt><trkpt lat="44.2324917" lon="11.615345"><ele>381.59999999999997</ele><time>2026-04-26T11:34:41.576Z</time></trkpt><trkpt lat="44.2325833" lon="11.6152833"><ele>380.2</ele><time>2026-04-26T11:34:42.574Z</time></trkpt><trkpt lat="44.23267" lon="11.6152117"><ele>378.8</ele><time>2026-04-26T11:34:43.57Z</time></trkpt><trkpt lat="44.2327517" lon="11.6151267"><ele>377.4</ele><time>2026-04-26T11:34:44.567Z</time></trkpt><trkpt lat="44.2328283" lon="11.6150217"><ele>376.0</ele><time>2026-04-26T11:34:45.567Z</time></trkpt><trkpt lat="44.2328967" lon="11.614895"><ele>376.0</ele><time>2026-04-26T11:34:46.573Z</time></trkpt><trkpt lat="44.2329583" lon="11.614765"><ele>376.0</ele><time>2026-04-26T11:34:47.565Z</time></trkpt><trkpt lat="44.2330217" lon="11.6146533"><ele>376.0</ele><time>2026-04-26T11:34:48.562Z</time></trkpt><trkpt lat="44.2330883" lon="11.6145717"><ele>376.0</ele><time>2026-04-26T11:34:49.574Z</time></trkpt><trkpt lat="44.2331667" lon="11.6145367"><ele>376.0</ele><time>2026-04-26T11:34:50.573Z</time></trkpt><trkpt lat="44.233255" lon="11.6145283"><ele>376.0</ele><time>2026-04-26T11:34:51.58Z</time></trkpt><trkpt lat="44.2333517" lon="11.6145217"><ele>376.0</ele><time>2026-04-26T11:34:52.571Z</time></trkpt><trkpt lat="44.2334483" lon="11.6145017"><ele>376.0</ele><time>2026-04-26T11:34:53.568Z</time></trkpt><trkpt lat="44.2335467" lon="11.6144717"><ele>376.0</ele><time>2026-04-26T11:34:54.57Z</time></trkpt><trkpt lat="44.2336467" lon="11.6144383"><ele>376.0</ele><time>2026-04-26T11:34:55.574Z</time></trkpt><trkpt lat="44.2337433" lon="11.614395"><ele>376.0</ele><time>2026-04-26T11:34:56.573Z</time></trkpt><trkpt lat="44.23384" lon="11.614355"><ele>376.0</ele><time>2026-04-26T11:34:57.576Z</time></trkpt><trkpt lat="44.2339233" lon="11.6142933"><ele>376.0</ele><time>2026-04-26T11:34:58.574Z</time></trkpt><trkpt lat="44.233995" lon="11.61421"><ele>376.0</ele><time>2026-04-26T11:34:59.569Z</time></trkpt><trkpt lat="44.2340583" lon="11.61411"><ele>376.0</ele><time>2026-04-26T11:35:00.559Z</time></trkpt><trkpt lat="44.2341117" lon="11.6140033"><ele>378.20000000000005</ele><time>2026-04-26T11:35:01.571Z</time></trkpt><trkpt lat="44.23416" lon="11.6138917"><ele>380.40000000000003</ele><time>2026-04-26T11:35:02.581Z</time></trkpt><trkpt lat="44.2342167" lon="11.6137917"><ele>382.6</ele><time>2026-04-26T11:35:03.575Z</time></trkpt><trkpt lat="44.2342783" lon="11.6136983"><ele>384.8</ele><time>2026-04-26T11:35:04.57Z</time></trkpt><trkpt lat="44.2343433" lon="11.613605"><ele>387.0</ele><time>2026-04-26T11:35:05.572Z</time></trkpt><trkpt lat="44.2343917" lon="11.6134917"><ele>387.0</ele><time>2026-04-26T11:35:06.569Z</time></trkpt><trkpt lat="44.2344283" lon="11.6133633"><ele>387.0</ele><time>2026-04-26T11:35:07.569Z</time></trkpt><trkpt lat="44.2344433" lon="11.61323"><ele>387.0</ele><time>2026-04-26T11:35:08.571Z</time></trkpt><trkpt lat="44.234445" lon="11.6131017"><ele>387.0</ele><time>2026-04-26T11:35:09.573Z</time></trkpt><trkpt lat="44.2344333" lon="11.6129833"><ele>387.0</ele><time>2026-04-26T11:35:10.575Z</time></trkpt><trkpt lat="44.2344267" lon="11.6128683"><ele>385.5</ele><time>2026-04-26T11:35:11.579Z</time></trkpt><trkpt lat="44.23444" lon="11.6127567"><ele>384.0</ele><time>2026-04-26T11:35:12.567Z</time></trkpt><trkpt lat="44.2344783" lon="11.6126567"><ele>382.5</ele><time>2026-04-26T11:35:13.563Z</time></trkpt><trkpt lat="44.2345317" lon="11.6125717"><ele>381.0</ele><time>2026-04-26T11:35:14.572Z</time></trkpt><trkpt lat="44.2345933" lon="11.6125017"><ele>379.5</ele><time>2026-04-26T11:35:15.554Z</time></trkpt><trkpt lat="44.23466" lon="11.6124433"><ele>378.0</ele><time>2026-04-26T11:35:16.552Z</time></trkpt><trkpt lat="44.234735" lon="11.612395"><ele>382.59999999999997</ele><time>2026-04-26T11:35:17.571Z</time></trkpt><trkpt lat="44.2348167" lon="11.61235"><ele>387.2</ele><time>2026-04-26T11:35:18.58Z</time></trkpt><trkpt lat="44.2349" lon="11.6122933"><ele>391.8</ele><time>2026-04-26T11:35:19.582Z</time></trkpt><trkpt lat="44.234985" lon="11.612225"><ele>396.4</ele><time>2026-04-26T11:35:20.566Z</time></trkpt><trkpt lat="44.2350683" lon="11.612135"><ele>401.0</ele><time>2026-04-26T11:35:21.587Z</time></trkpt><trkpt lat="44.2351467" lon="11.6120367"><ele>398.8</ele><time>2026-04-26T11:35:22.567Z</time></trkpt><trkpt lat="44.235215" lon="11.6119333"><ele>396.6</ele><time>2026-04-26T11:35:23.577Z</time></trkpt><trkpt lat="44.23528" lon="11.6118333"><ele>394.4</ele><time>2026-04-26T11:35:24.572Z</time></trkpt><trkpt lat="44.23534" lon="11.611725"><ele>392.2</ele><time>2026-04-26T11:35:25.572Z</time></trkpt><trkpt lat="44.23539" lon="11.6116083"><ele>390.0</ele><time>2026-04-26T11:35:26.572Z</time></trkpt><trkpt lat="44.23544" lon="11.611485"><ele>390.0</ele><time>2026-04-26T11:35:27.568Z</time></trkpt><trkpt lat="44.235485" lon="11.6113533"><ele>390.0</ele><time>2026-04-26T11:35:28.571Z</time></trkpt><trkpt lat="44.2355367" lon="11.6112267"><ele>390.0</ele><time>2026-04-26T11:35:29.576Z</time></trkpt><trkpt lat="44.2355833" lon="11.6110967"><ele>390.0</ele><time>2026-04-26T11:35:30.566Z</time></trkpt><trkpt lat="44.2356317" lon="11.6109633"><ele>390.0</ele><time>2026-04-26T11:35:31.564Z</time></trkpt><trkpt lat="44.235685" lon="11.6108217"><ele>394.6</ele><time>2026-04-26T11:35:32.573Z</time></trkpt><trkpt lat="44.23574" lon="11.610685"><ele>399.2</ele><time>2026-04-26T11:35:33.575Z</time></trkpt><trkpt lat="44.235785" lon="11.6105533"><ele>403.79999999999995</ele><time>2026-04-26T11:35:34.581Z</time></trkpt><trkpt lat="44.23581" lon="11.610415"><ele>408.4</ele><time>2026-04-26T11:35:35.568Z</time></trkpt><trkpt lat="44.2358217" lon="11.6102883"><ele>413.0</ele><time>2026-04-26T11:35:36.573Z</time></trkpt><trkpt lat="44.2358117" lon="11.6101667"><ele>413.66666666666663</ele><time>2026-04-26T11:35:37.575Z</time></trkpt><trkpt lat="44.23579" lon="11.6100533"><ele>414.3333333333333</ele><time>2026-04-26T11:35:38.584Z</time></trkpt><trkpt lat="44.2357733" lon="11.6099383"><ele>415.0</ele><time>2026-04-26T11:35:39.57Z</time></trkpt><trkpt lat="44.2357667" lon="11.60982"><ele>415.66666666666663</ele><time>2026-04-26T11:35:40.57Z</time></trkpt><trkpt lat="44.23578" lon="11.609695"><ele>416.3333333333333</ele><time>2026-04-26T11:35:41.57Z</time></trkpt><trkpt lat="44.2358033" lon="11.60957"><ele>417.0</ele><time>2026-04-26T11:35:42.575Z</time></trkpt><trkpt lat="44.2358267" lon="11.60944"><ele>417.1666666666667</ele><time>2026-04-26T11:35:43.571Z</time></trkpt><trkpt lat="44.23585" lon="11.6093117"><ele>417.33333333333337</ele><time>2026-04-26T11:35:44.57Z</time></trkpt><trkpt lat="44.235875" lon="11.6091933"><ele>417.5</ele><time>2026-04-26T11:35:45.563Z</time></trkpt><trkpt lat="44.2359067" lon="11.6090867"><ele>417.6666666666667</ele><time>2026-04-26T11:35:46.589Z</time></trkpt><trkpt lat="44.2359433" lon="11.6089833"><ele>417.83333333333337</ele><time>2026-04-26T11:35:47.578Z</time></trkpt><trkpt lat="44.2359867" lon="11.6088917"><ele>418.0</ele><time>2026-04-26T11:35:48.567Z</time></trkpt><trkpt lat="44.23604" lon="11.60881"><ele>418.00000000000006</ele><time>2026-04-26T11:35:49.567Z</time></trkpt><trkpt lat="44.236095" lon="11.6087283"><ele>418.0</ele><time>2026-04-26T11:35:50.598Z</time></trkpt><trkpt lat="44.23615" lon="11.608635"><ele>418.0</ele><time>2026-04-26T11:35:51.571Z</time></trkpt><trkpt lat="44.2362" lon="11.6085283"><ele>418.0</ele><time>2026-04-26T11:35:52.579Z</time></trkpt><trkpt lat="44.236245" lon="11.60842"><ele>418.00000000000006</ele><time>2026-04-26T11:35:53.58Z</time></trkpt><trkpt lat="44.2362917" lon="11.6083117"><ele>418.0</ele><time>2026-04-26T11:35:54.577Z</time></trkpt><trkpt lat="44.2363383" lon="11.6082"><ele>417.2</ele><time>2026-04-26T11:35:55.571Z</time></trkpt><trkpt lat="44.2363833" lon="11.6080867"><ele>416.4</ele><time>2026-04-26T11:35:56.571Z</time></trkpt><trkpt lat="44.23643" lon="11.60798"><ele>415.59999999999997</ele><time>2026-04-26T11:35:57.572Z</time></trkpt><trkpt lat="44.2364767" lon="11.60787"><ele>414.79999999999995</ele><time>2026-04-26T11:35:58.571Z</time></trkpt><trkpt lat="44.2365317" lon="11.6077667"><ele>414.0</ele><time>2026-04-26T11:35:59.575Z</time></trkpt><trkpt lat="44.2365933" lon="11.6076633"><ele>417.79999999999995</ele><time>2026-04-26T11:36:00.571Z</time></trkpt><trkpt lat="44.2366567" lon="11.6075583"><ele>421.59999999999997</ele><time>2026-04-26T11:36:01.574Z</time></trkpt><trkpt lat="44.2367233" lon="11.6074517"><ele>425.4</ele><time>2026-04-26T11:36:02.58Z</time></trkpt><trkpt lat="44.2367883" lon="11.6073417"><ele>429.2</ele><time>2026-04-26T11:36:03.569Z</time></trkpt><trkpt lat="44.236855" lon="11.607225"><ele>433.0</ele><time>2026-04-26T11:36:04.563Z</time></trkpt><trkpt lat="44.2369267" lon="11.60711"><ele>431.79999999999995</ele><time>2026-04-26T11:36:05.57Z</time></trkpt><trkpt lat="44.2369933" lon="11.6069883"><ele>430.59999999999997</ele><time>2026-04-26T11:36:06.565Z</time></trkpt><trkpt lat="44.2370617" lon="11.60687"><ele>429.40000000000003</ele><time>2026-04-26T11:36:07.571Z</time></trkpt><trkpt lat="44.2371333" lon="11.606755"><ele>428.20000000000005</ele><time>2026-04-26T11:36:08.572Z</time></trkpt><trkpt lat="44.237205" lon="11.6066433"><ele>427.0</ele><time>2026-04-26T11:36:09.574Z</time></trkpt><trkpt lat="44.2372783" lon="11.60653"><ele>432.0</ele><time>2026-04-26T11:36:10.565Z</time></trkpt><trkpt lat="44.23735" lon="11.6064183"><ele>437.00000000000006</ele><time>2026-04-26T11:36:11.568Z</time></trkpt><trkpt lat="44.237415" lon="11.6063067"><ele>442.00000000000006</ele><time>2026-04-26T11:36:12.57Z</time></trkpt><trkpt lat="44.2374667" lon="11.6061917"><ele>447.0</ele><time>2026-04-26T11:36:13.573Z</time></trkpt><trkpt lat="44.2375" lon="11.606085"><ele>452.0</ele><time>2026-04-26T11:36:14.579Z</time></trkpt><trkpt lat="44.2375267" lon="11.6059867"><ele>452.3333333333333</ele><time>2026-04-26T11:36:15.575Z</time></trkpt><trkpt lat="44.2375267" lon="11.6058783"><ele>452.66666666666663</ele><time>2026-04-26T11:36:16.575Z</time></trkpt><trkpt lat="44.2375167" lon="11.6057667"><ele>453.0</ele><time>2026-04-26T11:36:17.567Z</time></trkpt><trkpt lat="44.2375033" lon="11.6056467"><ele>453.33333333333337</ele><time>2026-04-26T11:36:18.576Z</time></trkpt><trkpt lat="44.237505" lon="11.6055317"><ele>453.6666666666667</ele><time>2026-04-26T11:36:19.575Z</time></trkpt><trkpt lat="44.2375167" lon="11.6054217"><ele>454.0</ele><time>2026-04-26T11:36:20.58Z</time></trkpt><trkpt lat="44.2375417" lon="11.60532"><ele>453.33333333333337</ele><time>2026-04-26T11:36:21.567Z</time></trkpt><trkpt lat="44.2375817" lon="11.6052233"><ele>452.6666666666667</ele><time>2026-04-26T11:36:22.575Z</time></trkpt><trkpt lat="44.23763" lon="11.6051367"><ele>452.0</ele><time>2026-04-26T11:36:23.581Z</time></trkpt><trkpt lat="44.2376917" lon="11.6050617"><ele>451.33333333333337</ele><time>2026-04-26T11:36:24.573Z</time></trkpt><trkpt lat="44.237755" lon="11.6049933"><ele>450.6666666666667</ele><time>2026-04-26T11:36:25.568Z</time></trkpt><trkpt lat="44.2378117" lon="11.6049167"><ele>450.0</ele><time>2026-04-26T11:36:26.574Z</time></trkpt><trkpt lat="44.2378617" lon="11.6048217"><ele>450.0</ele><time>2026-04-26T11:36:27.581Z</time></trkpt><trkpt lat="44.237905" lon="11.6047133"><ele>450.0</ele><time>2026-04-26T11:36:28.572Z</time></trkpt><trkpt lat="44.23792" lon="11.604585"><ele>450.0</ele><time>2026-04-26T11:36:29.572Z</time></trkpt><trkpt lat="44.2379333" lon="11.6044533"><ele>450.0</ele><time>2026-04-26T11:36:30.566Z</time></trkpt><trkpt lat="44.237955" lon="11.604335"><ele>450.0</ele><time>2026-04-26T11:36:31.57Z</time></trkpt><trkpt lat="44.2379917" lon="11.604235"><ele>450.0</ele><time>2026-04-26T11:36:32.567Z</time></trkpt><trkpt lat="44.23804" lon="11.6041667"><ele>448.8</ele><time>2026-04-26T11:36:33.581Z</time></trkpt><trkpt lat="44.238105" lon="11.6041233"><ele>447.6</ele><time>2026-04-26T11:36:34.581Z</time></trkpt><trkpt lat="44.2381917" lon="11.6041083"><ele>446.4</ele><time>2026-04-26T11:36:35.566Z</time></trkpt><trkpt lat="44.2382917" lon="11.6040967"><ele>445.2</ele><time>2026-04-26T11:36:36.566Z</time></trkpt><trkpt lat="44.2383917" lon="11.6040783"><ele>444.0</ele><time>2026-04-26T11:36:37.58Z</time></trkpt><trkpt lat="44.238495" lon="11.60406"><ele>449.0</ele><time>2026-04-26T11:36:38.589Z</time></trkpt><trkpt lat="44.2385933" lon="11.6040333"><ele>454.0</ele><time>2026-04-26T11:36:39.557Z</time></trkpt><trkpt lat="44.2386933" lon="11.60401"><ele>459.0</ele><time>2026-04-26T11:36:40.569Z</time></trkpt><trkpt lat="44.2387833" lon="11.60397"><ele>464.0</ele><time>2026-04-26T11:36:41.579Z</time></trkpt><trkpt lat="44.2388567" lon="11.6039067"><ele>469.0</ele><time>2026-04-26T11:36:42.573Z</time></trkpt><trkpt lat="44.238925" lon="11.6038367"><ele>468.33333333333337</ele><time>2026-04-26T11:36:43.583Z</time></trkpt><trkpt lat="44.2389917" lon="11.6037633"><ele>467.6666666666667</ele><time>2026-04-26T11:36:44.574Z</time></trkpt><trkpt lat="44.2390267" lon="11.6036783"><ele>467.0</ele><time>2026-04-26T11:36:45.568Z</time></trkpt><trkpt lat="44.2390017" lon="11.6035733"><ele>466.33333333333337</ele><time>2026-04-26T11:36:46.567Z</time></trkpt><trkpt lat="44.2389717" lon="11.60349"><ele>465.6666666666667</ele><time>2026-04-26T11:36:47.565Z</time></trkpt><trkpt lat="44.2389033" lon="11.6034"><ele>465.0</ele><time>2026-04-26T11:36:48.575Z</time></trkpt><trkpt lat="44.2388133" lon="11.6033183"><ele>465.0</ele><time>2026-04-26T11:36:49.577Z</time></trkpt><trkpt lat="44.2387233" lon="11.6032433"><ele>465.0</ele><time>2026-04-26T11:36:50.57Z</time></trkpt><trkpt lat="44.238625" lon="11.603175"><ele>465.0</ele><time>2026-04-26T11:36:51.578Z</time></trkpt><trkpt lat="44.2385267" lon="11.603105"><ele>465.0</ele><time>2026-04-26T11:36:52.57Z</time></trkpt><trkpt lat="44.2384267" lon="11.6030283"><ele>465.0</ele><time>2026-04-26T11:36:53.577Z</time></trkpt><trkpt lat="44.2383333" lon="11.602955"><ele>465.0</ele><time>2026-04-26T11:36:54.565Z</time></trkpt><trkpt lat="44.238255" lon="11.6028833"><ele>465.0</ele><time>2026-04-26T11:36:55.569Z</time></trkpt><trkpt lat="44.2381983" lon="11.6028133"><ele>465.0</ele><time>2026-04-26T11:36:56.564Z</time></trkpt><trkpt lat="44.23817" lon="11.6027183"><ele>465.0</ele><time>2026-04-26T11:36:57.574Z</time></trkpt><trkpt lat="44.23817" lon="11.60261"><ele>465.0</ele><time>2026-04-26T11:36:58.573Z</time></trkpt><trkpt lat="44.2381933" lon="11.6024917"><ele>465.0</ele><time>2026-04-26T11:36:59.572Z</time></trkpt><trkpt lat="44.23822" lon="11.60237"><ele>468.0</ele><time>2026-04-26T11:37:00.583Z</time></trkpt><trkpt lat="44.23824" lon="11.602245"><ele>471.0</ele><time>2026-04-26T11:37:01.578Z</time></trkpt><trkpt lat="44.2382383" lon="11.602115"><ele>474.0</ele><time>2026-04-26T11:37:02.565Z</time></trkpt><trkpt lat="44.2382" lon="11.6019883"><ele>477.0</ele><time>2026-04-26T11:37:03.56Z</time></trkpt><trkpt lat="44.2381417" lon="11.601875"><ele>480.0</ele><time>2026-04-26T11:37:04.567Z</time></trkpt><trkpt lat="44.2380717" lon="11.6017717"><ele>480.0</ele><time>2026-04-26T11:37:05.563Z</time></trkpt><trkpt lat="44.23798" lon="11.601685"><ele>480.0</ele><time>2026-04-26T11:37:06.568Z</time></trkpt><trkpt lat="44.2378833" lon="11.6016067"><ele>480.0</ele><time>2026-04-26T11:37:07.572Z</time></trkpt><trkpt lat="44.2377783" lon="11.6015333"><ele>480.0</ele><time>2026-04-26T11:37:08.578Z</time></trkpt><trkpt lat="44.23768" lon="11.6014517"><ele>480.0</ele><time>2026-04-26T11:37:09.575Z</time></trkpt><trkpt lat="44.2375917" lon="11.601355"><ele>480.0</ele><time>2026-04-26T11:37:10.569Z</time></trkpt><trkpt lat="44.2375233" lon="11.6012367"><ele>480.0</ele><time>2026-04-26T11:37:11.579Z</time></trkpt><trkpt lat="44.237465" lon="11.6011117"><ele>480.0</ele><time>2026-04-26T11:37:12.576Z</time></trkpt><trkpt lat="44.2374067" lon="11.6009883"><ele>480.0</ele><time>2026-04-26T11:37:13.579Z</time></trkpt><trkpt lat="44.2373317" lon="11.6008817"><ele>482.8</ele><time>2026-04-26T11:37:14.594Z</time></trkpt><trkpt lat="44.237245" lon="11.6007917"><ele>485.6</ele><time>2026-04-26T11:37:15.566Z</time></trkpt><trkpt lat="44.2371467" lon="11.6007233"><ele>488.4</ele><time>2026-04-26T11:37:16.565Z</time></trkpt><trkpt lat="44.237045" lon="11.60068"><ele>491.2</ele><time>2026-04-26T11:37:17.58Z</time></trkpt><trkpt lat="44.23695" lon="11.6006517"><ele>494.0</ele><time>2026-04-26T11:37:18.564Z</time></trkpt><trkpt lat="44.2368683" lon="11.6006333"><ele>493.99999999999994</ele><time>2026-04-26T11:37:19.578Z</time></trkpt><trkpt lat="44.236795" lon="11.6006217"><ele>494.0</ele><time>2026-04-26T11:37:20.568Z</time></trkpt><trkpt lat="44.236685" lon="11.6006067"><ele>494.0</ele><time>2026-04-26T11:37:22.57Z</time></trkpt><trkpt lat="44.2366033" lon="11.6005933"><ele>494.0</ele><time>2026-04-26T11:37:24.578Z</time></trkpt><trkpt lat="44.2365383" lon="11.600645"><ele>493.99999999999994</ele><time>2026-04-26T11:38:22.577Z</time></trkpt><trkpt lat="44.2364617" lon="11.60062"><ele>494.0</ele><time>2026-04-26T11:38:24.567Z</time></trkpt><trkpt lat="44.23637" lon="11.6005433"><ele>492.6</ele><time>2026-04-26T11:38:26.561Z</time></trkpt><trkpt lat="44.2362767" lon="11.60044"><ele>491.2</ele><time>2026-04-26T11:38:28.57Z</time></trkpt><trkpt lat="44.2361933" lon="11.6003083"><ele>489.80000000000007</ele><time>2026-04-26T11:38:30.587Z</time></trkpt><trkpt lat="44.2361583" lon="11.600235"><ele>488.40000000000003</ele><time>2026-04-26T11:38:31.561Z</time></trkpt><trkpt lat="44.236095" lon="11.6000883"><ele>487.0</ele><time>2026-04-26T11:38:33.566Z</time></trkpt><trkpt lat="44.23603" lon="11.5999433"><ele>490.6</ele><time>2026-04-26T11:38:35.572Z</time></trkpt><trkpt lat="44.235985" lon="11.5997883"><ele>494.20000000000005</ele><time>2026-04-26T11:38:37.569Z</time></trkpt><trkpt lat="44.2359733" lon="11.5996433"><ele>497.8</ele><time>2026-04-26T11:38:39.571Z</time></trkpt><trkpt lat="44.2359767" lon="11.599495"><ele>501.4</ele><time>2026-04-26T11:38:41.562Z</time></trkpt><trkpt lat="44.2359967" lon="11.59934"><ele>505.0</ele><time>2026-04-26T11:38:43.564Z</time></trkpt><trkpt lat="44.23603" lon="11.599185"><ele>506.5</ele><time>2026-04-26T11:38:45.581Z</time></trkpt><trkpt lat="44.2360667" lon="11.5990283"><ele>508.0</ele><time>2026-04-26T11:38:47.572Z</time></trkpt><trkpt lat="44.2360833" lon="11.5988767"><ele>509.5</ele><time>2026-04-26T11:38:49.569Z</time></trkpt><trkpt lat="44.2360733" lon="11.5987067"><ele>511.0</ele><time>2026-04-26T11:38:51.568Z</time></trkpt><trkpt lat="44.23602" lon="11.5985533"><ele>513.2857142857143</ele><time>2026-04-26T11:38:53.561Z</time></trkpt><trkpt lat="44.2359833" lon="11.598475"><ele>515.5714285714286</ele><time>2026-04-26T11:38:54.564Z</time></trkpt><trkpt lat="44.2359367" lon="11.5984"><ele>517.8571428571429</ele><time>2026-04-26T11:38:55.581Z</time></trkpt><trkpt lat="44.2358917" lon="11.5983283"><ele>520.1428571428571</ele><time>2026-04-26T11:38:56.566Z</time></trkpt><trkpt lat="44.2358483" lon="11.5982533"><ele>522.4285714285714</ele><time>2026-04-26T11:38:57.588Z</time></trkpt><trkpt lat="44.235805" lon="11.5981733"><ele>524.7142857142858</ele><time>2026-04-26T11:38:58.582Z</time></trkpt><trkpt lat="44.2357633" lon="11.5980883"><ele>527.0</ele><time>2026-04-26T11:38:59.573Z</time></trkpt><trkpt lat="44.2357283" lon="11.598"><ele>527.0</ele><time>2026-04-26T11:39:00.571Z</time></trkpt><trkpt lat="44.2356983" lon="11.5979117"><ele>527.0</ele><time>2026-04-26T11:39:01.564Z</time></trkpt><trkpt lat="44.2356733" lon="11.597815"><ele>527.0</ele><time>2026-04-26T11:39:02.564Z</time></trkpt><trkpt lat="44.23566" lon="11.597705"><ele>527.0</ele><time>2026-04-26T11:39:03.567Z</time></trkpt><trkpt lat="44.2356567" lon="11.59758"><ele>527.0</ele><time>2026-04-26T11:39:04.573Z</time></trkpt><trkpt lat="44.2356683" lon="11.597445"><ele>527.0</ele><time>2026-04-26T11:39:05.571Z</time></trkpt><trkpt lat="44.2356883" lon="11.597305"><ele>529.0</ele><time>2026-04-26T11:39:06.593Z</time></trkpt><trkpt lat="44.23571" lon="11.5971733"><ele>531.0</ele><time>2026-04-26T11:39:07.59Z</time></trkpt><trkpt lat="44.2357133" lon="11.59704"><ele>533.0</ele><time>2026-04-26T11:39:08.582Z</time></trkpt><trkpt lat="44.2356833" lon="11.59691"><ele>535.0</ele><time>2026-04-26T11:39:09.577Z</time></trkpt><trkpt lat="44.2356417" lon="11.59678"><ele>537.0</ele><time>2026-04-26T11:39:10.572Z</time></trkpt><trkpt lat="44.2355833" lon="11.596655"><ele>532.6</ele><time>2026-04-26T11:39:11.579Z</time></trkpt><trkpt lat="44.23552" lon="11.5965367"><ele>528.2</ele><time>2026-04-26T11:39:12.566Z</time></trkpt><trkpt lat="44.2354417" lon="11.5964317"><ele>523.8</ele><time>2026-04-26T11:39:13.575Z</time></trkpt><trkpt lat="44.2353567" lon="11.5963383"><ele>519.4</ele><time>2026-04-26T11:39:14.573Z</time></trkpt><trkpt lat="44.235265" lon="11.5962667"><ele>515.0</ele><time>2026-04-26T11:39:15.579Z</time></trkpt><trkpt lat="44.2351683" lon="11.5962133"><ele>517.6666666666666</ele><time>2026-04-26T11:39:16.571Z</time></trkpt><trkpt lat="44.2350833" lon="11.596155"><ele>520.3333333333333</ele><time>2026-04-26T11:39:17.559Z</time></trkpt><trkpt lat="44.2350083" lon="11.59611"><ele>523.0</ele><time>2026-04-26T11:39:18.566Z</time></trkpt><trkpt lat="44.2349467" lon="11.5960483"><ele>525.6666666666666</ele><time>2026-04-26T11:39:19.574Z</time></trkpt><trkpt lat="44.2349017" lon="11.5959767"><ele>528.3333333333334</ele><time>2026-04-26T11:39:20.57Z</time></trkpt><trkpt lat="44.2348917" lon="11.5958883"><ele>531.0</ele><time>2026-04-26T11:39:21.571Z</time></trkpt><trkpt lat="44.2348983" lon="11.595785"><ele>531.0</ele><time>2026-04-26T11:39:22.567Z</time></trkpt><trkpt lat="44.2349467" lon="11.5956883"><ele>531.0</ele><time>2026-04-26T11:39:23.573Z</time></trkpt><trkpt lat="44.2349983" lon="11.5955867"><ele>531.0</ele><time>2026-04-26T11:39:24.564Z</time></trkpt><trkpt lat="44.2350467" lon="11.595475"><ele>531.0</ele><time>2026-04-26T11:39:25.572Z</time></trkpt><trkpt lat="44.2350833" lon="11.59536"><ele>531.0</ele><time>2026-04-26T11:39:26.562Z</time></trkpt><trkpt lat="44.23511" lon="11.5952433"><ele>531.0</ele><time>2026-04-26T11:39:27.565Z</time></trkpt><trkpt lat="44.2351367" lon="11.59514"><ele>534.0</ele><time>2026-04-26T11:39:28.567Z</time></trkpt><trkpt lat="44.2351417" lon="11.594985"><ele>534.0</ele><time>2026-04-26T11:39:30.587Z</time></trkpt><trkpt lat="44.23513" lon="11.5948883"><ele>534.0</ele><time>2026-04-26T11:39:32.587Z</time></trkpt><trkpt lat="44.2351017" lon="11.5948017"><ele>534.0</ele><time>2026-04-26T11:39:35.574Z</time></trkpt></trkseg><trkseg><trkpt lat="44.2307367" lon="11.5888467"><ele>596.0</ele><time>2026-04-26T11:55:45.578Z</time></trkpt><trkpt lat="44.2307367" lon="11.5883567"><ele>598.0</ele><time>2026-04-26T11:55:53.561Z</time></trkpt><trkpt lat="44.23075" lon="11.588235"><ele>600.0</ele><time>2026-04-26T11:55:54.568Z</time></trkpt><trkpt lat="44.2307667" lon="11.5881133"><ele>600.0</ele><time>2026-04-26T11:55:55.565Z</time></trkpt><trkpt lat="44.2307883" lon="11.58799"><ele>600.0</ele><time>2026-04-26T11:55:56.555Z</time></trkpt><trkpt lat="44.23081" lon="11.5878767"><ele>600.0</ele><time>2026-04-26T11:55:57.572Z</time></trkpt><trkpt lat="44.23083" lon="11.58777"><ele>600.0</ele><time>2026-04-26T11:55:58.567Z</time></trkpt><trkpt lat="44.230845" lon="11.5876783"><ele>600.0</ele><time>2026-04-26T11:55:59.564Z</time></trkpt><trkpt lat="44.2308383" lon="11.5875333"><ele>600.0</ele><time>2026-04-26T11:56:01.568Z</time></trkpt><trkpt lat="44.2307717" lon="11.587475"><ele>599.0</ele><time>2026-04-26T11:56:03.587Z</time></trkpt><trkpt lat="44.2307067" lon="11.5874817"><ele>598.0</ele><time>2026-04-26T11:56:04.571Z</time></trkpt><trkpt lat="44.2306283" lon="11.5874967"><ele>597.0</ele><time>2026-04-26T11:56:05.574Z</time></trkpt><trkpt lat="44.23054" lon="11.58752"><ele>596.0</ele><time>2026-04-26T11:56:06.566Z</time></trkpt><trkpt lat="44.2304467" lon="11.5875467"><ele>595.0</ele><time>2026-04-26T11:56:07.576Z</time></trkpt><trkpt lat="44.2303567" lon="11.5875683"><ele>594.0</ele><time>2026-04-26T11:56:08.562Z</time></trkpt><trkpt lat="44.23026" lon="11.5875833"><ele>593.8571428571429</ele><time>2026-04-26T11:56:09.571Z</time></trkpt><trkpt lat="44.2301717" lon="11.58759"><ele>593.7142857142858</ele><time>2026-04-26T11:56:10.56Z</time></trkpt><trkpt lat="44.2301017" lon="11.5875817"><ele>593.5714285714286</ele><time>2026-04-26T11:56:11.565Z</time></trkpt><trkpt lat="44.2300283" lon="11.5875617"><ele>593.4285714285714</ele><time>2026-04-26T11:56:12.573Z</time></trkpt><trkpt lat="44.2299667" lon="11.5875417"><ele>593.2857142857142</ele><time>2026-04-26T11:56:13.564Z</time></trkpt><trkpt lat="44.2299" lon="11.5875367"><ele>593.1428571428571</ele><time>2026-04-26T11:56:14.57Z</time></trkpt><trkpt lat="44.2298333" lon="11.587565"><ele>593.0</ele><time>2026-04-26T11:56:15.563Z</time></trkpt><trkpt lat="44.229765" lon="11.587615"><ele>591.3333333333333</ele><time>2026-04-26T11:56:16.569Z</time></trkpt><trkpt lat="44.2296967" lon="11.587665"><ele>589.6666666666666</ele><time>2026-04-26T11:56:17.567Z</time></trkpt><trkpt lat="44.2296283" lon="11.5877083"><ele>588.0</ele><time>2026-04-26T11:56:18.566Z</time></trkpt><trkpt lat="44.2295567" lon="11.5877333"><ele>586.3333333333334</ele><time>2026-04-26T11:56:19.568Z</time></trkpt><trkpt lat="44.2294933" lon="11.5877617"><ele>584.6666666666667</ele><time>2026-04-26T11:56:20.558Z</time></trkpt><trkpt lat="44.2293967" lon="11.5878733"><ele>583.0</ele><time>2026-04-26T11:56:22.571Z</time></trkpt><trkpt lat="44.22936" lon="11.5879617"><ele>583.0</ele><time>2026-04-26T11:56:23.572Z</time></trkpt><trkpt lat="44.2293233" lon="11.5880583"><ele>583.0</ele><time>2026-04-26T11:56:24.566Z</time></trkpt><trkpt lat="44.229275" lon="11.5881417"><ele>583.0</ele><time>2026-04-26T11:56:25.559Z</time></trkpt><trkpt lat="44.2292" lon="11.5881967"><ele>583.0</ele><time>2026-04-26T11:56:26.566Z</time></trkpt><trkpt lat="44.2291133" lon="11.58822"><ele>583.0</ele><time>2026-04-26T11:56:27.561Z</time></trkpt><trkpt lat="44.22902" lon="11.5882217"><ele>583.0</ele><time>2026-04-26T11:56:28.566Z</time></trkpt><trkpt lat="44.2289167" lon="11.58822"><ele>583.4</ele><time>2026-04-26T11:56:29.576Z</time></trkpt><trkpt lat="44.2288117" lon="11.5882183"><ele>583.8</ele><time>2026-04-26T11:56:30.568Z</time></trkpt><trkpt lat="44.2287083" lon="11.58821"><ele>584.2</ele><time>2026-04-26T11:56:31.556Z</time></trkpt><trkpt lat="44.2286" lon="11.5881767"><ele>584.6</ele><time>2026-04-26T11:56:32.561Z</time></trkpt><trkpt lat="44.2284967" lon="11.5881233"><ele>585.0</ele><time>2026-04-26T11:56:33.567Z</time></trkpt><trkpt lat="44.2283983" lon="11.5880583"><ele>585.0</ele><time>2026-04-26T11:56:34.57Z</time></trkpt><trkpt lat="44.228305" lon="11.587985"><ele>585.0</ele><time>2026-04-26T11:56:35.562Z</time></trkpt><trkpt lat="44.2282183" lon="11.5879033"><ele>585.0</ele><time>2026-04-26T11:56:36.582Z</time></trkpt><trkpt lat="44.2281317" lon="11.58782"><ele>585.0</ele><time>2026-04-26T11:56:37.559Z</time></trkpt><trkpt lat="44.228055" lon="11.5877333"><ele>585.0</ele><time>2026-04-26T11:56:38.565Z</time></trkpt><trkpt lat="44.2279783" lon="11.5876517"><ele>586.0</ele><time>2026-04-26T11:56:39.564Z</time></trkpt><trkpt lat="44.2278967" lon="11.5875867"><ele>587.0</ele><time>2026-04-26T11:56:40.557Z</time></trkpt><trkpt lat="44.2278083" lon="11.5875367"><ele>588.0</ele><time>2026-04-26T11:56:41.564Z</time></trkpt><trkpt lat="44.2277267" lon="11.587495"><ele>589.0</ele><time>2026-04-26T11:56:42.57Z</time></trkpt><trkpt lat="44.2276417" lon="11.5874567"><ele>590.0</ele><time>2026-04-26T11:56:43.562Z</time></trkpt><trkpt lat="44.22756" lon="11.5874"><ele>590.0</ele><time>2026-04-26T11:56:44.56Z</time></trkpt><trkpt lat="44.2274917" lon="11.5873333"><ele>590.0</ele><time>2026-04-26T11:56:45.565Z</time></trkpt><trkpt lat="44.2274367" lon="11.5872567"><ele>590.0</ele><time>2026-04-26T11:56:46.567Z</time></trkpt><trkpt lat="44.22739" lon="11.587165"><ele>590.0</ele><time>2026-04-26T11:56:47.562Z</time></trkpt><trkpt lat="44.22735" lon="11.5870617"><ele>590.0</ele><time>2026-04-26T11:56:48.563Z</time></trkpt><trkpt lat="44.2273117" lon="11.5869533"><ele>590.0</ele><time>2026-04-26T11:56:49.553Z</time></trkpt><trkpt lat="44.22727" lon="11.5868367"><ele>589.1666666666666</ele><time>2026-04-26T11:56:50.568Z</time></trkpt><trkpt lat="44.22723" lon="11.5867183"><ele>588.3333333333333</ele><time>2026-04-26T11:56:51.574Z</time></trkpt><trkpt lat="44.2271867" lon="11.5866017"><ele>587.5</ele><time>2026-04-26T11:56:52.572Z</time></trkpt><trkpt lat="44.2271333" lon="11.5865"><ele>586.6666666666666</ele><time>2026-04-26T11:56:53.557Z</time></trkpt><trkpt lat="44.2270717" lon="11.586415"><ele>585.8333333333334</ele><time>2026-04-26T11:56:54.558Z</time></trkpt><trkpt lat="44.2270017" lon="11.58635"><ele>585.0</ele><time>2026-04-26T11:56:55.576Z</time></trkpt><trkpt lat="44.2269333" lon="11.5863083"><ele>585.0</ele><time>2026-04-26T11:56:56.569Z</time></trkpt><trkpt lat="44.226875" lon="11.5862733"><ele>585.0</ele><time>2026-04-26T11:56:57.596Z</time></trkpt><trkpt lat="44.2267767" lon="11.58618"><ele>585.0</ele><time>2026-04-26T11:56:59.558Z</time></trkpt><trkpt lat="44.2267317" lon="11.5861083"><ele>585.0</ele><time>2026-04-26T11:57:00.569Z</time></trkpt><trkpt lat="44.2266817" lon="11.5860267"><ele>585.0</ele><time>2026-04-26T11:57:01.564Z</time></trkpt><trkpt lat="44.2266233" lon="11.5859383"><ele>585.0</ele><time>2026-04-26T11:57:02.607Z</time></trkpt><trkpt lat="44.2265617" lon="11.5858483"><ele>588.0</ele><time>2026-04-26T11:57:03.543Z</time></trkpt><trkpt lat="44.2265" lon="11.5857617"><ele>591.0</ele><time>2026-04-26T11:57:04.57Z</time></trkpt><trkpt lat="44.226435" lon="11.585675"><ele>594.0</ele><time>2026-04-26T11:57:05.555Z</time></trkpt><trkpt lat="44.2263717" lon="11.5855883"><ele>597.0</ele><time>2026-04-26T11:57:06.569Z</time></trkpt><trkpt lat="44.2263067" lon="11.5855117"><ele>600.0</ele><time>2026-04-26T11:57:07.57Z</time></trkpt><trkpt lat="44.2262333" lon="11.5854483"><ele>603.0</ele><time>2026-04-26T11:57:08.561Z</time></trkpt><trkpt lat="44.2261533" lon="11.5853933"><ele>603.1999999999999</ele><time>2026-04-26T11:57:09.576Z</time></trkpt><trkpt lat="44.2260683" lon="11.5853533"><ele>603.4</ele><time>2026-04-26T11:57:10.565Z</time></trkpt><trkpt lat="44.22598" lon="11.5853183"><ele>603.5999999999999</ele><time>2026-04-26T11:57:11.564Z</time></trkpt><trkpt lat="44.2258917" lon="11.5852883"><ele>603.8</ele><time>2026-04-26T11:57:12.563Z</time></trkpt><trkpt lat="44.2258" lon="11.5852583"><ele>604.0</ele><time>2026-04-26T11:57:13.56Z</time></trkpt><trkpt lat="44.2257083" lon="11.5852233"><ele>609.2</ele><time>2026-04-26T11:57:14.566Z</time></trkpt><trkpt lat="44.2256133" lon="11.5851767"><ele>614.4</ele><time>2026-04-26T11:57:15.565Z</time></trkpt><trkpt lat="44.2255183" lon="11.5851183"><ele>619.6</ele><time>2026-04-26T11:57:16.575Z</time></trkpt><trkpt lat="44.2254217" lon="11.5850567"><ele>624.8</ele><time>2026-04-26T11:57:17.564Z</time></trkpt><trkpt lat="44.2253233" lon="11.5849883"><ele>630.0</ele><time>2026-04-26T11:57:18.575Z</time></trkpt><trkpt lat="44.2252283" lon="11.5849133"><ele>630.0</ele><time>2026-04-26T11:57:19.563Z</time></trkpt><trkpt lat="44.2251283" lon="11.5848367"><ele>630.0</ele><time>2026-04-26T11:57:20.567Z</time></trkpt><trkpt lat="44.2250233" lon="11.5847617"><ele>630.0</ele><time>2026-04-26T11:57:21.573Z</time></trkpt><trkpt lat="44.22492" lon="11.584695"><ele>630.0</ele><time>2026-04-26T11:57:22.566Z</time></trkpt><trkpt lat="44.2248233" lon="11.58462"><ele>628.4</ele><time>2026-04-26T11:57:23.57Z</time></trkpt><trkpt lat="44.2247283" lon="11.5845433"><ele>626.8</ele><time>2026-04-26T11:57:24.602Z</time></trkpt><trkpt lat="44.2246367" lon="11.584465"><ele>625.2</ele><time>2026-04-26T11:57:25.565Z</time></trkpt><trkpt lat="44.2245583" lon="11.5843783"><ele>623.6</ele><time>2026-04-26T11:57:26.573Z</time></trkpt><trkpt lat="44.2244817" lon="11.584315"><ele>622.0</ele><time>2026-04-26T11:57:27.558Z</time></trkpt><trkpt lat="44.2244017" lon="11.58427"><ele>625.5</ele><time>2026-04-26T11:57:28.553Z</time></trkpt><trkpt lat="44.22432" lon="11.58424"><ele>629.0</ele><time>2026-04-26T11:57:29.562Z</time></trkpt><trkpt lat="44.2242367" lon="11.584215"><ele>632.5</ele><time>2026-04-26T11:57:30.567Z</time></trkpt><trkpt lat="44.2241533" lon="11.5841917"><ele>636.0</ele><time>2026-04-26T11:57:31.568Z</time></trkpt><trkpt lat="44.22407" lon="11.5841683"><ele>639.5</ele><time>2026-04-26T11:57:32.567Z</time></trkpt><trkpt lat="44.223985" lon="11.5841483"><ele>643.0</ele><time>2026-04-26T11:57:33.564Z</time></trkpt><trkpt lat="44.2239" lon="11.584135"><ele>644.5</ele><time>2026-04-26T11:57:34.569Z</time></trkpt><trkpt lat="44.2238167" lon="11.58413"><ele>646.0</ele><time>2026-04-26T11:57:35.569Z</time></trkpt><trkpt lat="44.2237317" lon="11.58413"><ele>647.5</ele><time>2026-04-26T11:57:36.575Z</time></trkpt><trkpt lat="44.2236483" lon="11.5841233"><ele>649.0</ele><time>2026-04-26T11:57:37.573Z</time></trkpt><trkpt lat="44.2235633" lon="11.5841017"><ele>650.5</ele><time>2026-04-26T11:57:38.579Z</time></trkpt><trkpt lat="44.223475" lon="11.5840733"><ele>652.0</ele><time>2026-04-26T11:57:39.559Z</time></trkpt><trkpt lat="44.2233867" lon="11.584035"><ele>652.0</ele><time>2026-04-26T11:57:40.566Z</time></trkpt><trkpt lat="44.223295" lon="11.5839967"><ele>652.0</ele><time>2026-04-26T11:57:41.575Z</time></trkpt><trkpt lat="44.2232017" lon="11.5839567"><ele>652.0</ele><time>2026-04-26T11:57:42.581Z</time></trkpt><trkpt lat="44.2231117" lon="11.583915"><ele>652.0</ele><time>2026-04-26T11:57:43.554Z</time></trkpt><trkpt lat="44.223025" lon="11.5838683"><ele>652.0</ele><time>2026-04-26T11:57:44.567Z</time></trkpt><trkpt lat="44.22294" lon="11.58382"><ele>651.0</ele><time>2026-04-26T11:57:45.561Z</time></trkpt><trkpt lat="44.2228567" lon="11.5837633"><ele>650.0</ele><time>2026-04-26T11:57:46.567Z</time></trkpt><trkpt lat="44.222775" lon="11.5836967"><ele>649.0</ele><time>2026-04-26T11:57:47.565Z</time></trkpt><trkpt lat="44.2226933" lon="11.58362"><ele>648.0</ele><time>2026-04-26T11:57:48.564Z</time></trkpt><trkpt lat="44.2226133" lon="11.5835367"><ele>647.0</ele><time>2026-04-26T11:57:49.595Z</time></trkpt><trkpt lat="44.2225333" lon="11.5834533"><ele>648.2</ele><time>2026-04-26T11:57:50.576Z</time></trkpt><trkpt lat="44.2224533" lon="11.5833717"><ele>649.4000000000001</ele><time>2026-04-26T11:57:51.563Z</time></trkpt><trkpt lat="44.2223767" lon="11.5832883"><ele>650.5999999999999</ele><time>2026-04-26T11:57:52.571Z</time></trkpt><trkpt lat="44.2223" lon="11.58321"><ele>651.8</ele><time>2026-04-26T11:57:53.579Z</time></trkpt><trkpt lat="44.2222283" lon="11.58313"><ele>653.0</ele><time>2026-04-26T11:57:54.568Z</time></trkpt><trkpt lat="44.2221633" lon="11.5830517"><ele>653.0</ele><time>2026-04-26T11:57:55.572Z</time></trkpt><trkpt lat="44.2221017" lon="11.58297"><ele>653.0</ele><time>2026-04-26T11:57:56.569Z</time></trkpt><trkpt lat="44.2220417" lon="11.5828883"><ele>653.0</ele><time>2026-04-26T11:57:57.567Z</time></trkpt><trkpt lat="44.2219817" lon="11.5828"><ele>653.0</ele><time>2026-04-26T11:57:58.563Z</time></trkpt><trkpt lat="44.2219117" lon="11.58272"><ele>653.0</ele><time>2026-04-26T11:57:59.559Z</time></trkpt><trkpt lat="44.2218383" lon="11.5826433"><ele>653.0</ele><time>2026-04-26T11:58:00.567Z</time></trkpt><trkpt lat="44.2217533" lon="11.5825733"><ele>652.8333333333333</ele><time>2026-04-26T11:58:01.576Z</time></trkpt><trkpt lat="44.2216633" lon="11.5825033"><ele>652.6666666666666</ele><time>2026-04-26T11:58:02.572Z</time></trkpt><trkpt lat="44.2215767" lon="11.5824417"><ele>652.5</ele><time>2026-04-26T11:58:03.562Z</time></trkpt><trkpt lat="44.2215033" lon="11.5823783"><ele>652.3333333333334</ele><time>2026-04-26T11:58:04.569Z</time></trkpt><trkpt lat="44.2214367" lon="11.5823133"><ele>652.1666666666667</ele><time>2026-04-26T11:58:05.562Z</time></trkpt><trkpt lat="44.2213733" lon="11.5822433"><ele>652.0</ele><time>2026-04-26T11:58:06.572Z</time></trkpt><trkpt lat="44.2213133" lon="11.5821683"><ele>652.0</ele><time>2026-04-26T11:58:07.561Z</time></trkpt><trkpt lat="44.2212517" lon="11.582095"><ele>652.0</ele><time>2026-04-26T11:58:08.559Z</time></trkpt><trkpt lat="44.2211883" lon="11.5820283"><ele>652.0</ele><time>2026-04-26T11:58:09.572Z</time></trkpt><trkpt lat="44.2211217" lon="11.581975"><ele>652.0</ele><time>2026-04-26T11:58:10.567Z</time></trkpt><trkpt lat="44.2210433" lon="11.581945"><ele>652.0</ele><time>2026-04-26T11:58:11.563Z</time></trkpt><trkpt lat="44.220965" lon="11.58192"><ele>652.0</ele><time>2026-04-26T11:58:12.56Z</time></trkpt><trkpt lat="44.2208817" lon="11.5819017"><ele>651.6666666666667</ele><time>2026-04-26T11:58:13.561Z</time></trkpt><trkpt lat="44.220795" lon="11.5818733"><ele>651.3333333333334</ele><time>2026-04-26T11:58:14.564Z</time></trkpt><trkpt lat="44.220715" lon="11.58184"><ele>651.0</ele><time>2026-04-26T11:58:15.556Z</time></trkpt><trkpt lat="44.2206483" lon="11.5817917"><ele>650.6666666666666</ele><time>2026-04-26T11:58:16.569Z</time></trkpt><trkpt lat="44.22059" lon="11.5817267"><ele>650.3333333333333</ele><time>2026-04-26T11:58:17.565Z</time></trkpt><trkpt lat="44.2205383" lon="11.58164"><ele>650.0</ele><time>2026-04-26T11:58:18.572Z</time></trkpt><trkpt lat="44.220485" lon="11.5815433"><ele>650.0</ele><time>2026-04-26T11:58:19.574Z</time></trkpt><trkpt lat="44.22043" lon="11.5814533"><ele>650.0</ele><time>2026-04-26T11:58:20.563Z</time></trkpt><trkpt lat="44.22037" lon="11.5813817"><ele>650.0</ele><time>2026-04-26T11:58:21.572Z</time></trkpt><trkpt lat="44.2203083" lon="11.58132"><ele>650.0</ele><time>2026-04-26T11:58:22.57Z</time></trkpt><trkpt lat="44.2202433" lon="11.5812617"><ele>650.0</ele><time>2026-04-26T11:58:23.562Z</time></trkpt><trkpt lat="44.2201817" lon="11.5812167"><ele>650.0</ele><time>2026-04-26T11:58:24.548Z</time></trkpt><trkpt lat="44.2201233" lon="11.5811567"><ele>651.2857142857142</ele><time>2026-04-26T11:58:25.565Z</time></trkpt><trkpt lat="44.220065" lon="11.5810933"><ele>652.5714285714287</ele><time>2026-04-26T11:58:26.575Z</time></trkpt><trkpt lat="44.220005" lon="11.581025"><ele>653.8571428571429</ele><time>2026-04-26T11:58:27.57Z</time></trkpt><trkpt lat="44.2199583" lon="11.5809467"><ele>655.1428571428571</ele><time>2026-04-26T11:58:28.558Z</time></trkpt><trkpt lat="44.2199167" lon="11.5808667"><ele>656.4285714285713</ele><time>2026-04-26T11:58:29.58Z</time></trkpt><trkpt lat="44.21989" lon="11.5807833"><ele>657.7142857142858</ele><time>2026-04-26T11:58:30.563Z</time></trkpt><trkpt lat="44.2198633" lon="11.580695"><ele>659.0</ele><time>2026-04-26T11:58:31.574Z</time></trkpt><trkpt lat="44.2198267" lon="11.5806067"><ele>660.5</ele><time>2026-04-26T11:58:32.564Z</time></trkpt><trkpt lat="44.2197817" lon="11.5805117"><ele>662.0</ele><time>2026-04-26T11:58:33.564Z</time></trkpt><trkpt lat="44.219725" lon="11.5804167"><ele>663.5</ele><time>2026-04-26T11:58:34.563Z</time></trkpt><trkpt lat="44.2196583" lon="11.580325"><ele>665.0</ele><time>2026-04-26T11:58:35.557Z</time></trkpt><trkpt lat="44.219595" lon="11.5802317"><ele>666.5</ele><time>2026-04-26T11:58:36.567Z</time></trkpt><trkpt lat="44.2195383" lon="11.5801333"><ele>668.0</ele><time>2026-04-26T11:58:37.561Z</time></trkpt><trkpt lat="44.219485" lon="11.5800383"><ele>670.0</ele><time>2026-04-26T11:58:38.568Z</time></trkpt><trkpt lat="44.2194283" lon="11.57994"><ele>672.0</ele><time>2026-04-26T11:58:39.56Z</time></trkpt><trkpt lat="44.2193733" lon="11.57984"><ele>674.0</ele><time>2026-04-26T11:58:40.561Z</time></trkpt><trkpt lat="44.2193067" lon="11.5797383"><ele>676.0</ele><time>2026-04-26T11:58:41.568Z</time></trkpt><trkpt lat="44.2192483" lon="11.5796367"><ele>678.0</ele><time>2026-04-26T11:58:42.569Z</time></trkpt><trkpt lat="44.2191867" lon="11.5795417"><ele>679.5</ele><time>2026-04-26T11:58:43.558Z</time></trkpt><trkpt lat="44.2191283" lon="11.579455"><ele>681.0</ele><time>2026-04-26T11:58:44.573Z</time></trkpt><trkpt lat="44.2190683" lon="11.5793783"><ele>682.5</ele><time>2026-04-26T11:58:45.571Z</time></trkpt><trkpt lat="44.2190033" lon="11.5793033"><ele>684.0</ele><time>2026-04-26T11:58:46.562Z</time></trkpt><trkpt lat="44.2189317" lon="11.579225"><ele>685.5</ele><time>2026-04-26T11:58:47.562Z</time></trkpt><trkpt lat="44.2188617" lon="11.5791433"><ele>687.0</ele><time>2026-04-26T11:58:48.561Z</time></trkpt><trkpt lat="44.2187917" lon="11.5790617"><ele>687.0</ele><time>2026-04-26T11:58:49.564Z</time></trkpt><trkpt lat="44.2187283" lon="11.578975"><ele>687.0</ele><time>2026-04-26T11:58:50.562Z</time></trkpt><trkpt lat="44.2186667" lon="11.578885"><ele>687.0</ele><time>2026-04-26T11:58:51.571Z</time></trkpt><trkpt lat="44.2186033" lon="11.5787933"><ele>687.0</ele><time>2026-04-26T11:58:52.566Z</time></trkpt><trkpt lat="44.2185367" lon="11.5787083"><ele>687.0</ele><time>2026-04-26T11:58:53.564Z</time></trkpt><trkpt lat="44.21847" lon="11.57863"><ele>687.0</ele><time>2026-04-26T11:58:54.561Z</time></trkpt><trkpt lat="44.2184" lon="11.578565"><ele>682.6666666666666</ele><time>2026-04-26T11:58:55.572Z</time></trkpt><trkpt lat="44.2183367" lon="11.5784967"><ele>678.3333333333334</ele><time>2026-04-26T11:58:56.563Z</time></trkpt><trkpt lat="44.2182767" lon="11.5784317"><ele>674.0</ele><time>2026-04-26T11:58:57.566Z</time></trkpt><trkpt lat="44.21822" lon="11.57838"><ele>669.6666666666667</ele><time>2026-04-26T11:58:58.561Z</time></trkpt><trkpt lat="44.2181333" lon="11.5782717"><ele>665.3333333333334</ele><time>2026-04-26T11:59:00.564Z</time></trkpt><trkpt lat="44.2180883" lon="11.5782"><ele>661.0</ele><time>2026-04-26T11:59:01.571Z</time></trkpt><trkpt lat="44.21799" lon="11.5781067"><ele>660.6666666666667</ele><time>2026-04-26T11:59:03.567Z</time></trkpt><trkpt lat="44.2178883" lon="11.5780783"><ele>660.3333333333334</ele><time>2026-04-26T11:59:05.571Z</time></trkpt><trkpt lat="44.217775" lon="11.5781467"><ele>660.0</ele><time>2026-04-26T11:59:07.575Z</time></trkpt><trkpt lat="44.2177217" lon="11.5782067"><ele>659.6666666666666</ele><time>2026-04-26T11:59:08.57Z</time></trkpt><trkpt lat="44.2176667" lon="11.5782767"><ele>659.3333333333333</ele><time>2026-04-26T11:59:09.567Z</time></trkpt><trkpt lat="44.2176133" lon="11.5783517"><ele>659.0</ele><time>2026-04-26T11:59:10.559Z</time></trkpt><trkpt lat="44.2175683" lon="11.57842"><ele>659.0</ele><time>2026-04-26T11:59:11.563Z</time></trkpt><trkpt lat="44.2174717" lon="11.5785117"><ele>659.0</ele><time>2026-04-26T11:59:13.565Z</time></trkpt><trkpt lat="44.2173433" lon="11.5785467"><ele>659.0</ele><time>2026-04-26T11:59:15.564Z</time></trkpt><trkpt lat="44.21726" lon="11.5785467"><ele>659.0</ele><time>2026-04-26T11:59:16.562Z</time></trkpt><trkpt lat="44.21718" lon="11.57854"><ele>659.0</ele><time>2026-04-26T11:59:17.573Z</time></trkpt><trkpt lat="44.2170933" lon="11.578535"><ele>657.5</ele><time>2026-04-26T11:59:18.571Z</time></trkpt><trkpt lat="44.2170167" lon="11.5785383"><ele>656.0</ele><time>2026-04-26T11:59:19.579Z</time></trkpt><trkpt lat="44.2169433" lon="11.5785383"><ele>654.5</ele><time>2026-04-26T11:59:20.572Z</time></trkpt><trkpt lat="44.21687" lon="11.57853"><ele>653.0</ele><time>2026-04-26T11:59:21.573Z</time></trkpt><trkpt lat="44.2167933" lon="11.5785117"><ele>651.5</ele><time>2026-04-26T11:59:22.571Z</time></trkpt><trkpt lat="44.2167217" lon="11.5784833"><ele>650.0</ele><time>2026-04-26T11:59:23.567Z</time></trkpt><trkpt lat="44.2166467" lon="11.578445"><ele>650.0</ele><time>2026-04-26T11:59:24.569Z</time></trkpt><trkpt lat="44.2165817" lon="11.5784017"><ele>650.0</ele><time>2026-04-26T11:59:25.56Z</time></trkpt><trkpt lat="44.2165133" lon="11.5783517"><ele>650.0</ele><time>2026-04-26T11:59:26.573Z</time></trkpt><trkpt lat="44.21645" lon="11.57828"><ele>650.0</ele><time>2026-04-26T11:59:27.562Z</time></trkpt><trkpt lat="44.2163933" lon="11.5782017"><ele>650.0</ele><time>2026-04-26T11:59:28.557Z</time></trkpt><trkpt lat="44.2163417" lon="11.578125"><ele>650.0</ele><time>2026-04-26T11:59:29.561Z</time></trkpt><trkpt lat="44.2163033" lon="11.57804"><ele>647.0</ele><time>2026-04-26T11:59:30.559Z</time></trkpt><trkpt lat="44.2162683" lon="11.5779283"><ele>644.0</ele><time>2026-04-26T11:59:31.57Z</time></trkpt><trkpt lat="44.216235" lon="11.5778183"><ele>641.0</ele><time>2026-04-26T11:59:32.558Z</time></trkpt><trkpt lat="44.2161933" lon="11.5777417"><ele>638.0</ele><time>2026-04-26T11:59:33.567Z</time></trkpt><trkpt lat="44.2160983" lon="11.5776633"><ele>635.0</ele><time>2026-04-26T11:59:35.558Z</time></trkpt><trkpt lat="44.2159917" lon="11.5777367"><ele>634.9999999999999</ele><time>2026-04-26T11:59:37.561Z</time></trkpt><trkpt lat="44.215945" lon="11.5778"><ele>635.0</ele><time>2026-04-26T11:59:38.569Z</time></trkpt><trkpt lat="44.2158833" lon="11.5778467"><ele>635.0</ele><time>2026-04-26T11:59:39.558Z</time></trkpt><trkpt lat="44.2158183" lon="11.577865"><ele>635.0</ele><time>2026-04-26T11:59:40.569Z</time></trkpt><trkpt lat="44.21575" lon="11.577865"><ele>635.0</ele><time>2026-04-26T11:59:41.57Z</time></trkpt><trkpt lat="44.21568" lon="11.5778467"><ele>634.9999999999999</ele><time>2026-04-26T11:59:42.57Z</time></trkpt><trkpt lat="44.2156083" lon="11.5778183"><ele>635.0</ele><time>2026-04-26T11:59:43.566Z</time></trkpt><trkpt lat="44.215545" lon="11.5777683"><ele>634.9999999999999</ele><time>2026-04-26T11:59:44.557Z</time></trkpt><trkpt lat="44.215485" lon="11.5777183"><ele>635.0</ele><time>2026-04-26T11:59:45.566Z</time></trkpt><trkpt lat="44.215425" lon="11.5776617"><ele>635.0</ele><time>2026-04-26T11:59:46.564Z</time></trkpt><trkpt lat="44.21536" lon="11.5776067"><ele>635.0</ele><time>2026-04-26T11:59:47.566Z</time></trkpt><trkpt lat="44.21529" lon="11.5775567"><ele>635.0</ele><time>2026-04-26T11:59:48.558Z</time></trkpt><trkpt lat="44.2152233" lon="11.57751"><ele>634.9999999999999</ele><time>2026-04-26T11:59:49.559Z</time></trkpt><trkpt lat="44.215155" lon="11.5774683"><ele>635.0</ele><time>2026-04-26T11:59:50.562Z</time></trkpt><trkpt lat="44.2150883" lon="11.57743"><ele>635.0</ele><time>2026-04-26T11:59:51.574Z</time></trkpt><trkpt lat="44.2150217" lon="11.57738"><ele>635.0</ele><time>2026-04-26T11:59:52.561Z</time></trkpt><trkpt lat="44.2149633" lon="11.5773267"><ele>635.0</ele><time>2026-04-26T11:59:53.571Z</time></trkpt><trkpt lat="44.21491" lon="11.5772633"><ele>635.0</ele><time>2026-04-26T11:59:54.571Z</time></trkpt><trkpt lat="44.2148567" lon="11.5771917"><ele>635.0</ele><time>2026-04-26T11:59:55.571Z</time></trkpt><trkpt lat="44.2148017" lon="11.5771083"><ele>635.0</ele><time>2026-04-26T11:59:56.573Z</time></trkpt><trkpt lat="44.21474" lon="11.577015"><ele>634.3333333333333</ele><time>2026-04-26T11:59:57.565Z</time></trkpt><trkpt lat="44.214675" lon="11.5769283"><ele>633.6666666666666</ele><time>2026-04-26T11:59:58.577Z</time></trkpt><trkpt lat="44.214605" lon="11.5768483"><ele>633.0</ele><time>2026-04-26T11:59:59.562Z</time></trkpt><trkpt lat="44.2145317" lon="11.57678"><ele>632.3333333333334</ele><time>2026-04-26T12:00:00.564Z</time></trkpt><trkpt lat="44.2144583" lon="11.57672"><ele>631.6666666666667</ele><time>2026-04-26T12:00:01.567Z</time></trkpt><trkpt lat="44.2143817" lon="11.5766617"><ele>631.0</ele><time>2026-04-26T12:00:02.564Z</time></trkpt><trkpt lat="44.214305" lon="11.5766117"><ele>631.0</ele><time>2026-04-26T12:00:03.574Z</time></trkpt><trkpt lat="44.2142217" lon="11.5765683"><ele>631.0</ele><time>2026-04-26T12:00:04.567Z</time></trkpt><trkpt lat="44.2141483" lon="11.576525"><ele>631.0</ele><time>2026-04-26T12:00:05.575Z</time></trkpt><trkpt lat="44.21409" lon="11.576485"><ele>631.0</ele><time>2026-04-26T12:00:06.577Z</time></trkpt><trkpt lat="44.2140333" lon="11.5764317"><ele>631.0</ele><time>2026-04-26T12:00:09.569Z</time></trkpt><trkpt lat="44.21406" lon="11.5765317"><ele>631.0</ele><time>2026-04-26T12:00:43.569Z</time></trkpt><trkpt lat="44.2141617" lon="11.5765867"><ele>631.0</ele><time>2026-04-26T12:00:45.563Z</time></trkpt><trkpt lat="44.2142767" lon="11.5766367"><ele>631.0</ele><time>2026-04-26T12:00:47.569Z</time></trkpt><trkpt lat="44.214395" lon="11.5767117"><ele>631.0</ele><time>2026-04-26T12:00:49.587Z</time></trkpt><trkpt lat="44.2144583" lon="11.5767617"><ele>631.0</ele><time>2026-04-26T12:00:50.554Z</time></trkpt><trkpt lat="44.2145183" lon="11.5768167"><ele>631.0</ele><time>2026-04-26T12:00:51.564Z</time></trkpt><trkpt lat="44.2145767" lon="11.576885"><ele>631.0</ele><time>2026-04-26T12:00:52.578Z</time></trkpt><trkpt lat="44.2146367" lon="11.576955"><ele>631.0</ele><time>2026-04-26T12:00:53.555Z</time></trkpt><trkpt lat="44.214695" lon="11.5770317"><ele>631.0</ele><time>2026-04-26T12:00:54.561Z</time></trkpt><trkpt lat="44.214745" lon="11.57712"><ele>631.0</ele><time>2026-04-26T12:00:55.563Z</time></trkpt><trkpt lat="44.2148033" lon="11.5772067"><ele>631.0</ele><time>2026-04-26T12:00:56.563Z</time></trkpt><trkpt lat="44.2148683" lon="11.577285"><ele>631.0</ele><time>2026-04-26T12:00:57.572Z</time></trkpt><trkpt lat="44.21494" lon="11.5773583"><ele>631.6666666666667</ele><time>2026-04-26T12:00:58.573Z</time></trkpt><trkpt lat="44.2150183" lon="11.57742"><ele>632.3333333333334</ele><time>2026-04-26T12:00:59.589Z</time></trkpt><trkpt lat="44.2151083" lon="11.5774717"><ele>633.0</ele><time>2026-04-26T12:01:00.57Z</time></trkpt><trkpt lat="44.215195" lon="11.5775167"><ele>633.6666666666666</ele><time>2026-04-26T12:01:01.562Z</time></trkpt><trkpt lat="44.215275" lon="11.5775667"><ele>634.3333333333333</ele><time>2026-04-26T12:01:02.556Z</time></trkpt><trkpt lat="44.215345" lon="11.5776233"><ele>635.0</ele><time>2026-04-26T12:01:03.56Z</time></trkpt><trkpt lat="44.215405" lon="11.57769"><ele>635.0</ele><time>2026-04-26T12:01:04.58Z</time></trkpt><trkpt lat="44.2154633" lon="11.5777517"><ele>635.0</ele><time>2026-04-26T12:01:05.565Z</time></trkpt><trkpt lat="44.2155317" lon="11.577795"><ele>635.0</ele><time>2026-04-26T12:01:06.562Z</time></trkpt><trkpt lat="44.2156017" lon="11.5778233"><ele>635.0</ele><time>2026-04-26T12:01:07.563Z</time></trkpt><trkpt lat="44.2156717" lon="11.5778433"><ele>635.0</ele><time>2026-04-26T12:01:08.568Z</time></trkpt><trkpt lat="44.21575" lon="11.577855"><ele>635.0</ele><time>2026-04-26T12:01:09.557Z</time></trkpt><trkpt lat="44.2158283" lon="11.5778483"><ele>635.0</ele><time>2026-04-26T12:01:10.559Z</time></trkpt><trkpt lat="44.2159" lon="11.5778067"><ele>635.0</ele><time>2026-04-26T12:01:11.553Z</time></trkpt><trkpt lat="44.2159633" lon="11.5777533"><ele>635.0</ele><time>2026-04-26T12:01:12.568Z</time></trkpt><trkpt lat="44.2160667" lon="11.5776967"><ele>635.0</ele><time>2026-04-26T12:01:14.568Z</time></trkpt><trkpt lat="44.216145" lon="11.57773"><ele>635.0</ele><time>2026-04-26T12:01:16.565Z</time></trkpt><trkpt lat="44.2162233" lon="11.5778717"><ele>640.3333333333333</ele><time>2026-04-26T12:01:18.566Z</time></trkpt><trkpt lat="44.2162483" lon="11.577965"><ele>645.6666666666666</ele><time>2026-04-26T12:01:19.566Z</time></trkpt><trkpt lat="44.216275" lon="11.578055"><ele>651.0</ele><time>2026-04-26T12:01:20.565Z</time></trkpt><trkpt lat="44.2163033" lon="11.57814"><ele>656.3333333333334</ele><time>2026-04-26T12:01:21.568Z</time></trkpt><trkpt lat="44.2163383" lon="11.5782183"><ele>661.6666666666667</ele><time>2026-04-26T12:01:22.564Z</time></trkpt><trkpt lat="44.2164267" lon="11.5783467"><ele>667.0</ele><time>2026-04-26T12:01:24.564Z</time></trkpt><trkpt lat="44.216485" lon="11.5784"><ele>664.1666666666667</ele><time>2026-04-26T12:01:25.566Z</time></trkpt><trkpt lat="44.216555" lon="11.57844"><ele>661.3333333333334</ele><time>2026-04-26T12:01:26.562Z</time></trkpt><trkpt lat="44.2166267" lon="11.5784667"><ele>658.5</ele><time>2026-04-26T12:01:27.563Z</time></trkpt><trkpt lat="44.2166983" lon="11.5784883"><ele>655.6666666666666</ele><time>2026-04-26T12:01:28.587Z</time></trkpt><trkpt lat="44.2167717" lon="11.5785017"><ele>652.8333333333333</ele><time>2026-04-26T12:01:29.559Z</time></trkpt><trkpt lat="44.2168467" lon="11.5785"><ele>650.0</ele><time>2026-04-26T12:01:30.569Z</time></trkpt><trkpt lat="44.2169317" lon="11.57848"><ele>650.0</ele><time>2026-04-26T12:01:31.571Z</time></trkpt><trkpt lat="44.2170017" lon="11.5784667"><ele>650.0</ele><time>2026-04-26T12:01:32.569Z</time></trkpt><trkpt lat="44.217075" lon="11.57846"><ele>650.0</ele><time>2026-04-26T12:01:33.551Z</time></trkpt><trkpt lat="44.2171467" lon="11.5784717"><ele>650.0</ele><time>2026-04-26T12:01:34.558Z</time></trkpt><trkpt lat="44.2172183" lon="11.5784767"><ele>650.0</ele><time>2026-04-26T12:01:35.599Z</time></trkpt><trkpt lat="44.2172917" lon="11.5784983"><ele>650.0</ele><time>2026-04-26T12:01:36.567Z</time></trkpt><trkpt lat="44.2173617" lon="11.5785017"><ele>650.0</ele><time>2026-04-26T12:01:37.554Z</time></trkpt><trkpt lat="44.21743" lon="11.5784717"><ele>651.5</ele><time>2026-04-26T12:01:38.562Z</time></trkpt><trkpt lat="44.2174967" lon="11.5784417"><ele>653.0</ele><time>2026-04-26T12:01:39.557Z</time></trkpt><trkpt lat="44.2175683" lon="11.5784083"><ele>654.5</ele><time>2026-04-26T12:01:40.569Z</time></trkpt><trkpt lat="44.217635" lon="11.5783383"><ele>656.0</ele><time>2026-04-26T12:01:41.557Z</time></trkpt><trkpt lat="44.2176867" lon="11.5782433"><ele>657.5</ele><time>2026-04-26T12:01:42.551Z</time></trkpt><trkpt lat="44.2177467" lon="11.578165"><ele>659.0</ele><time>2026-04-26T12:01:43.559Z</time></trkpt><trkpt lat="44.217815" lon="11.578115"><ele>659.0</ele><time>2026-04-26T12:01:44.573Z</time></trkpt><trkpt lat="44.2178783" lon="11.5780917"><ele>659.0</ele><time>2026-04-26T12:01:45.561Z</time></trkpt><trkpt lat="44.2179667" lon="11.5780933"><ele>659.0</ele><time>2026-04-26T12:01:47.572Z</time></trkpt><trkpt lat="44.21805" lon="11.5781733"><ele>659.0</ele><time>2026-04-26T12:01:49.563Z</time></trkpt><trkpt lat="44.2181183" lon="11.57832"><ele>659.0</ele><time>2026-04-26T12:01:51.553Z</time></trkpt><trkpt lat="44.2181567" lon="11.5784017"><ele>659.2857142857143</ele><time>2026-04-26T12:01:52.567Z</time></trkpt><trkpt lat="44.2182083" lon="11.578475"><ele>659.5714285714286</ele><time>2026-04-26T12:01:53.563Z</time></trkpt><trkpt lat="44.21826" lon="11.5785333"><ele>659.8571428571429</ele><time>2026-04-26T12:01:54.556Z</time></trkpt><trkpt lat="44.218315" lon="11.5785867"><ele>660.1428571428571</ele><time>2026-04-26T12:01:55.567Z</time></trkpt><trkpt lat="44.2183733" lon="11.5786417"><ele>660.4285714285714</ele><time>2026-04-26T12:01:56.557Z</time></trkpt><trkpt lat="44.2184333" lon="11.5787017"><ele>660.7142857142857</ele><time>2026-04-26T12:01:57.567Z</time></trkpt><trkpt lat="44.2184917" lon="11.5787717"><ele>661.0</ele><time>2026-04-26T12:01:58.564Z</time></trkpt><trkpt lat="44.2185517" lon="11.5788483"><ele>666.1999999999999</ele><time>2026-04-26T12:01:59.557Z</time></trkpt><trkpt lat="44.2186133" lon="11.5789283"><ele>671.4</ele><time>2026-04-26T12:02:00.563Z</time></trkpt><trkpt lat="44.2186733" lon="11.579015"><ele>676.6</ele><time>2026-04-26T12:02:01.562Z</time></trkpt><trkpt lat="44.2187417" lon="11.5791167"><ele>681.8</ele><time>2026-04-26T12:02:02.56Z</time></trkpt><trkpt lat="44.2188067" lon="11.5792133"><ele>687.0</ele><time>2026-04-26T12:02:03.552Z</time></trkpt><trkpt lat="44.218875" lon="11.579305"><ele>687.0</ele><time>2026-04-26T12:02:04.569Z</time></trkpt><trkpt lat="44.218945" lon="11.57939"><ele>687.0</ele><time>2026-04-26T12:02:05.564Z</time></trkpt><trkpt lat="44.219015" lon="11.57947"><ele>687.0</ele><time>2026-04-26T12:02:06.562Z</time></trkpt><trkpt lat="44.2190717" lon="11.5795533"><ele>687.0</ele><time>2026-04-26T12:02:07.569Z</time></trkpt><trkpt lat="44.2191283" lon="11.57964"><ele>687.0</ele><time>2026-04-26T12:02:08.574Z</time></trkpt><trkpt lat="44.2191867" lon="11.57973"><ele>687.0</ele><time>2026-04-26T12:02:09.557Z</time></trkpt><trkpt lat="44.219245" lon="11.5798283"><ele>685.2</ele><time>2026-04-26T12:02:10.563Z</time></trkpt><trkpt lat="44.219295" lon="11.57993"><ele>683.4000000000001</ele><time>2026-04-26T12:02:11.563Z</time></trkpt><trkpt lat="44.21934" lon="11.5800417"><ele>681.5999999999999</ele><time>2026-04-26T12:02:12.564Z</time></trkpt><trkpt lat="44.2193933" lon="11.580155"><ele>679.8</ele><time>2026-04-26T12:02:13.564Z</time></trkpt><trkpt lat="44.21946" lon="11.5802633"><ele>678.0</ele><time>2026-04-26T12:02:14.569Z</time></trkpt><trkpt lat="44.219525" lon="11.5803667"><ele>676.3333333333334</ele><time>2026-04-26T12:02:15.559Z</time></trkpt><trkpt lat="44.219585" lon="11.5804717"><ele>674.6666666666666</ele><time>2026-04-26T12:02:16.555Z</time></trkpt><trkpt lat="44.2196433" lon="11.580575"><ele>673.0</ele><time>2026-04-26T12:02:17.562Z</time></trkpt><trkpt lat="44.2196917" lon="11.580675"><ele>671.3333333333333</ele><time>2026-04-26T12:02:18.581Z</time></trkpt><trkpt lat="44.2197333" lon="11.5807733"><ele>669.6666666666666</ele><time>2026-04-26T12:02:19.574Z</time></trkpt><trkpt lat="44.2197717" lon="11.5808683"><ele>668.0</ele><time>2026-04-26T12:02:20.554Z</time></trkpt><trkpt lat="44.2198117" lon="11.58096"><ele>666.5</ele><time>2026-04-26T12:02:21.562Z</time></trkpt><trkpt lat="44.2198567" lon="11.5810483"><ele>665.0</ele><time>2026-04-26T12:02:22.581Z</time></trkpt><trkpt lat="44.219915" lon="11.581135"><ele>663.5</ele><time>2026-04-26T12:02:23.574Z</time></trkpt><trkpt lat="44.2199767" lon="11.5812217"><ele>662.0</ele><time>2026-04-26T12:02:24.567Z</time></trkpt><trkpt lat="44.2200467" lon="11.5813033"><ele>660.5</ele><time>2026-04-26T12:02:25.585Z</time></trkpt><trkpt lat="44.2201217" lon="11.58137"><ele>659.0</ele><time>2026-04-26T12:02:26.57Z</time></trkpt><trkpt lat="44.220205" lon="11.5814233"><ele>657.5</ele><time>2026-04-26T12:02:27.561Z</time></trkpt><trkpt lat="44.22028" lon="11.58147"><ele>656.0</ele><time>2026-04-26T12:02:28.573Z</time></trkpt><trkpt lat="44.2203517" lon="11.581515"><ele>654.5</ele><time>2026-04-26T12:02:29.563Z</time></trkpt><trkpt lat="44.22042" lon="11.58157"><ele>653.0</ele><time>2026-04-26T12:02:30.569Z</time></trkpt><trkpt lat="44.2204833" lon="11.58164"><ele>651.5</ele><time>2026-04-26T12:02:31.571Z</time></trkpt><trkpt lat="44.2205333" lon="11.5817217"><ele>650.0</ele><time>2026-04-26T12:02:32.571Z</time></trkpt><trkpt lat="44.2205817" lon="11.5818017"><ele>652.2</ele><time>2026-04-26T12:02:33.568Z</time></trkpt><trkpt lat="44.2206733" lon="11.581905"><ele>654.4</ele><time>2026-04-26T12:02:35.562Z</time></trkpt><trkpt lat="44.220745" lon="11.581935"><ele>656.5999999999999</ele><time>2026-04-26T12:02:36.562Z</time></trkpt><trkpt lat="44.22084" lon="11.5819533"><ele>658.8</ele><time>2026-04-26T12:02:37.562Z</time></trkpt><trkpt lat="44.220935" lon="11.581975"><ele>661.0</ele><time>2026-04-26T12:02:38.573Z</time></trkpt><trkpt lat="44.2210217" lon="11.5820017"><ele>659.5</ele><time>2026-04-26T12:02:39.571Z</time></trkpt><trkpt lat="44.2210967" lon="11.5820433"><ele>658.0</ele><time>2026-04-26T12:02:40.563Z</time></trkpt><trkpt lat="44.2211667" lon="11.5821067"><ele>656.5</ele><time>2026-04-26T12:02:41.557Z</time></trkpt><trkpt lat="44.2212367" lon="11.5821767"><ele>655.0</ele><time>2026-04-26T12:02:42.569Z</time></trkpt><trkpt lat="44.2213117" lon="11.582255"><ele>653.5</ele><time>2026-04-26T12:02:43.567Z</time></trkpt><trkpt lat="44.2213917" lon="11.582335"><ele>652.0</ele><time>2026-04-26T12:02:44.564Z</time></trkpt><trkpt lat="44.221465" lon="11.5824083"><ele>655.8</ele><time>2026-04-26T12:02:45.566Z</time></trkpt><trkpt lat="44.2215467" lon="11.5824783"><ele>659.6</ele><time>2026-04-26T12:02:46.579Z</time></trkpt><trkpt lat="44.2216333" lon="11.582545"><ele>663.4</ele><time>2026-04-26T12:02:47.563Z</time></trkpt><trkpt lat="44.2217183" lon="11.5826133"><ele>667.1999999999999</ele><time>2026-04-26T12:02:48.566Z</time></trkpt><trkpt lat="44.2218067" lon="11.5826867"><ele>671.0</ele><time>2026-04-26T12:02:49.562Z</time></trkpt><trkpt lat="44.2218917" lon="11.582765"><ele>667.4</ele><time>2026-04-26T12:02:50.565Z</time></trkpt><trkpt lat="44.221965" lon="11.5828533"><ele>663.8</ele><time>2026-04-26T12:02:51.565Z</time></trkpt><trkpt lat="44.2220317" lon="11.5829467"><ele>660.1999999999999</ele><time>2026-04-26T12:02:52.563Z</time></trkpt><trkpt lat="44.2221033" lon="11.583035"><ele>656.5999999999999</ele><time>2026-04-26T12:02:53.564Z</time></trkpt><trkpt lat="44.222185" lon="11.5831233"><ele>653.0</ele><time>2026-04-26T12:02:54.563Z</time></trkpt><trkpt lat="44.22227" lon="11.5832183"><ele>655.2</ele><time>2026-04-26T12:02:55.559Z</time></trkpt><trkpt lat="44.2223533" lon="11.5833167"><ele>657.4</ele><time>2026-04-26T12:02:56.567Z</time></trkpt><trkpt lat="44.22244" lon="11.5834067"><ele>659.6</ele><time>2026-04-26T12:02:57.555Z</time></trkpt><trkpt lat="44.2225267" lon="11.5834933"><ele>661.8000000000001</ele><time>2026-04-26T12:02:58.563Z</time></trkpt><trkpt lat="44.2226117" lon="11.58358"><ele>664.0</ele><time>2026-04-26T12:02:59.57Z</time></trkpt><trkpt lat="44.222695" lon="11.5836633"><ele>661.6</ele><time>2026-04-26T12:03:00.568Z</time></trkpt><trkpt lat="44.2227783" lon="11.5837383"><ele>659.2</ele><time>2026-04-26T12:03:01.57Z</time></trkpt><trkpt lat="44.222865" lon="11.5838067"><ele>656.8000000000001</ele><time>2026-04-26T12:03:02.568Z</time></trkpt><trkpt lat="44.2229517" lon="11.5838633"><ele>654.4000000000001</ele><time>2026-04-26T12:03:03.569Z</time></trkpt><trkpt lat="44.2230483" lon="11.5839117"><ele>652.0</ele><time>2026-04-26T12:03:04.571Z</time></trkpt><trkpt lat="44.2231517" lon="11.583955"><ele>652.0</ele><time>2026-04-26T12:03:05.556Z</time></trkpt><trkpt lat="44.2232583" lon="11.5840017"><ele>652.0</ele><time>2026-04-26T12:03:06.559Z</time></trkpt><trkpt lat="44.2233667" lon="11.5840417"><ele>652.0</ele><time>2026-04-26T12:03:07.555Z</time></trkpt><trkpt lat="44.22347" lon="11.5840783"><ele>652.0</ele><time>2026-04-26T12:03:08.563Z</time></trkpt><trkpt lat="44.22357" lon="11.5841133"><ele>652.0</ele><time>2026-04-26T12:03:09.565Z</time></trkpt><trkpt lat="44.223675" lon="11.5841383"><ele>652.0</ele><time>2026-04-26T12:03:10.568Z</time></trkpt><trkpt lat="44.22378" lon="11.5841517"><ele>652.0</ele><time>2026-04-26T12:03:11.564Z</time></trkpt><trkpt lat="44.2238917" lon="11.58416"><ele>652.0</ele><time>2026-04-26T12:03:12.559Z</time></trkpt><trkpt lat="44.2240067" lon="11.5841733"><ele>652.0</ele><time>2026-04-26T12:03:13.569Z</time></trkpt><trkpt lat="44.2241167" lon="11.5841967"><ele>652.0</ele><time>2026-04-26T12:03:14.562Z</time></trkpt><trkpt lat="44.2242333" lon="11.5842283"><ele>650.2</ele><time>2026-04-26T12:03:15.567Z</time></trkpt><trkpt lat="44.2243517" lon="11.5842567"><ele>648.4000000000001</ele><time>2026-04-26T12:03:16.567Z</time></trkpt><trkpt lat="44.2244517" lon="11.5842917"><ele>646.5999999999999</ele><time>2026-04-26T12:03:17.585Z</time></trkpt><trkpt lat="44.22454" lon="11.5843467"><ele>644.8</ele><time>2026-04-26T12:03:18.561Z</time></trkpt><trkpt lat="44.22462" lon="11.5844233"><ele>643.0</ele><time>2026-04-26T12:03:19.564Z</time></trkpt><trkpt lat="44.2246917" lon="11.5845133"><ele>640.4</ele><time>2026-04-26T12:03:20.561Z</time></trkpt><trkpt lat="44.2247667" lon="11.5845983"><ele>637.8</ele><time>2026-04-26T12:03:21.563Z</time></trkpt><trkpt lat="44.224855" lon="11.5846733"><ele>635.2</ele><time>2026-04-26T12:03:22.555Z</time></trkpt><trkpt lat="44.22495" lon="11.5847433"><ele>632.6</ele><time>2026-04-26T12:03:23.559Z</time></trkpt><trkpt lat="44.225045" lon="11.584815"><ele>630.0</ele><time>2026-04-26T12:03:24.572Z</time></trkpt><trkpt lat="44.2251367" lon="11.58489"><ele>630.0</ele><time>2026-04-26T12:03:25.564Z</time></trkpt><trkpt lat="44.2252267" lon="11.58497"><ele>630.0</ele><time>2026-04-26T12:03:26.56Z</time></trkpt><trkpt lat="44.2253233" lon="11.58505"><ele>630.0</ele><time>2026-04-26T12:03:27.569Z</time></trkpt><trkpt lat="44.22542" lon="11.58513"><ele>630.0</ele><time>2026-04-26T12:03:28.572Z</time></trkpt><trkpt lat="44.2255167" lon="11.5852017"><ele>630.0</ele><time>2026-04-26T12:03:29.56Z</time></trkpt><trkpt lat="44.2256217" lon="11.58526"><ele>628.0</ele><time>2026-04-26T12:03:30.568Z</time></trkpt><trkpt lat="44.22573" lon="11.5853083"><ele>626.0</ele><time>2026-04-26T12:03:31.563Z</time></trkpt><trkpt lat="44.2258333" lon="11.585355"><ele>624.0</ele><time>2026-04-26T12:03:32.568Z</time></trkpt><trkpt lat="44.2259333" lon="11.5853967"><ele>622.0</ele><time>2026-04-26T12:03:33.561Z</time></trkpt><trkpt lat="44.22603" lon="11.5854367"><ele>620.0</ele><time>2026-04-26T12:03:34.563Z</time></trkpt><trkpt lat="44.2261183" lon="11.5854717"><ele>616.8</ele><time>2026-04-26T12:03:35.547Z</time></trkpt><trkpt lat="44.226195" lon="11.5855133"><ele>613.6</ele><time>2026-04-26T12:03:36.56Z</time></trkpt><trkpt lat="44.2262683" lon="11.5855683"><ele>610.4</ele><time>2026-04-26T12:03:37.565Z</time></trkpt><trkpt lat="44.226345" lon="11.5856383"><ele>607.2</ele><time>2026-04-26T12:03:38.562Z</time></trkpt><trkpt lat="44.22642" lon="11.585725"><ele>604.0</ele><time>2026-04-26T12:03:39.591Z</time></trkpt><trkpt lat="44.2264933" lon="11.5858183"><ele>603.8</ele><time>2026-04-26T12:03:40.555Z</time></trkpt><trkpt lat="44.2265617" lon="11.5859183"><ele>603.5999999999999</ele><time>2026-04-26T12:03:41.566Z</time></trkpt><trkpt lat="44.22663" lon="11.5860217"><ele>603.4</ele><time>2026-04-26T12:03:42.567Z</time></trkpt><trkpt lat="44.2266917" lon="11.58612"><ele>603.1999999999999</ele><time>2026-04-26T12:03:43.564Z</time></trkpt><trkpt lat="44.2267567" lon="11.5862117"><ele>603.0</ele><time>2026-04-26T12:03:44.552Z</time></trkpt><trkpt lat="44.226825" lon="11.5862883"><ele>599.4</ele><time>2026-04-26T12:03:45.565Z</time></trkpt><trkpt lat="44.2269033" lon="11.586345"><ele>595.8</ele><time>2026-04-26T12:03:46.556Z</time></trkpt><trkpt lat="44.22698" lon="11.5864"><ele>592.2</ele><time>2026-04-26T12:03:47.588Z</time></trkpt><trkpt lat="44.227055" lon="11.5864617"><ele>588.6</ele><time>2026-04-26T12:03:48.558Z</time></trkpt><trkpt lat="44.22713" lon="11.5865433"><ele>585.0</ele><time>2026-04-26T12:03:49.56Z</time></trkpt><trkpt lat="44.2271933" lon="11.5866567"><ele>585.0</ele><time>2026-04-26T12:03:50.572Z</time></trkpt><trkpt lat="44.227245" lon="11.5867817"><ele>585.0</ele><time>2026-04-26T12:03:51.553Z</time></trkpt><trkpt lat="44.2272917" lon="11.5869133"><ele>585.0</ele><time>2026-04-26T12:03:52.557Z</time></trkpt><trkpt lat="44.2273367" lon="11.5870383"><ele>585.0</ele><time>2026-04-26T12:03:53.563Z</time></trkpt><trkpt lat="44.2273833" lon="11.5871517"><ele>585.0</ele><time>2026-04-26T12:03:54.559Z</time></trkpt><trkpt lat="44.2274367" lon="11.587245"><ele>586.0</ele><time>2026-04-26T12:03:55.569Z</time></trkpt><trkpt lat="44.227505" lon="11.5873233"><ele>587.0</ele><time>2026-04-26T12:03:56.571Z</time></trkpt><trkpt lat="44.2275833" lon="11.5873917"><ele>588.0</ele><time>2026-04-26T12:03:57.564Z</time></trkpt><trkpt lat="44.227675" lon="11.5874517"><ele>589.0</ele><time>2026-04-26T12:03:58.565Z</time></trkpt><trkpt lat="44.2277633" lon="11.5875033"><ele>590.0</ele><time>2026-04-26T12:03:59.563Z</time></trkpt><trkpt lat="44.2278533" lon="11.587565"><ele>590.0</ele><time>2026-04-26T12:04:00.563Z</time></trkpt><trkpt lat="44.2279367" lon="11.5876417"><ele>590.0</ele><time>2026-04-26T12:04:01.568Z</time></trkpt><trkpt lat="44.2280117" lon="11.5877267"><ele>590.0</ele><time>2026-04-26T12:04:02.564Z</time></trkpt><trkpt lat="44.2280933" lon="11.587815"><ele>590.0</ele><time>2026-04-26T12:04:03.577Z</time></trkpt><trkpt lat="44.2281767" lon="11.5878967"><ele>590.0</ele><time>2026-04-26T12:04:04.573Z</time></trkpt><trkpt lat="44.2282567" lon="11.58797"><ele>589.0</ele><time>2026-04-26T12:04:05.557Z</time></trkpt><trkpt lat="44.2283417" lon="11.58804"><ele>588.0</ele><time>2026-04-26T12:04:06.559Z</time></trkpt><trkpt lat="44.2284183" lon="11.588105"><ele>587.0</ele><time>2026-04-26T12:04:07.558Z</time></trkpt><trkpt lat="44.2285033" lon="11.5881617"><ele>586.0</ele><time>2026-04-26T12:04:08.569Z</time></trkpt><trkpt lat="44.228605" lon="11.5882017"><ele>585.0</ele><time>2026-04-26T12:04:09.564Z</time></trkpt><trkpt lat="44.2287017" lon="11.5882233"><ele>585.0</ele><time>2026-04-26T12:04:10.565Z</time></trkpt><trkpt lat="44.2288117" lon="11.58823"><ele>585.0</ele><time>2026-04-26T12:04:11.573Z</time></trkpt><trkpt lat="44.228925" lon="11.5882317"><ele>585.0</ele><time>2026-04-26T12:04:12.566Z</time></trkpt><trkpt lat="44.229035" lon="11.5882267"><ele>585.0</ele><time>2026-04-26T12:04:13.576Z</time></trkpt><trkpt lat="44.22913" lon="11.5882033"><ele>585.0</ele><time>2026-04-26T12:04:14.566Z</time></trkpt><trkpt lat="44.2292133" lon="11.588155"><ele>584.6666666666666</ele><time>2026-04-26T12:04:15.571Z</time></trkpt><trkpt lat="44.2292917" lon="11.58808"><ele>584.3333333333334</ele><time>2026-04-26T12:04:16.565Z</time></trkpt><trkpt lat="44.2293417" lon="11.5879733"><ele>584.0</ele><time>2026-04-26T12:04:17.558Z</time></trkpt><trkpt lat="44.2293833" lon="11.5878767"><ele>583.6666666666667</ele><time>2026-04-26T12:04:18.556Z</time></trkpt><trkpt lat="44.2294317" lon="11.5877967"><ele>583.3333333333334</ele><time>2026-04-26T12:04:19.565Z</time></trkpt><trkpt lat="44.2294867" lon="11.587745"><ele>583.0</ele><time>2026-04-26T12:04:20.57Z</time></trkpt><trkpt lat="44.2295567" lon="11.5877067"><ele>582.0</ele><time>2026-04-26T12:04:21.558Z</time></trkpt><trkpt lat="44.2296333" lon="11.5876667"><ele>581.0</ele><time>2026-04-26T12:04:22.573Z</time></trkpt><trkpt lat="44.2297083" lon="11.58762"><ele>580.0</ele><time>2026-04-26T12:04:23.562Z</time></trkpt><trkpt lat="44.2297783" lon="11.5875767"><ele>579.0</ele><time>2026-04-26T12:04:24.562Z</time></trkpt><trkpt lat="44.2298533" lon="11.5875533"><ele>578.0</ele><time>2026-04-26T12:04:25.56Z</time></trkpt><trkpt lat="44.2299267" lon="11.5875483"><ele>577.0</ele><time>2026-04-26T12:04:26.56Z</time></trkpt><trkpt lat="44.230005" lon="11.5875683"><ele>580.2</ele><time>2026-04-26T12:04:27.555Z</time></trkpt><trkpt lat="44.230095" lon="11.5875933"><ele>583.4000000000001</ele><time>2026-04-26T12:04:28.565Z</time></trkpt><trkpt lat="44.23019" lon="11.5876033"><ele>586.5999999999999</ele><time>2026-04-26T12:04:29.568Z</time></trkpt><trkpt lat="44.2302933" lon="11.5876"><ele>589.8</ele><time>2026-04-26T12:04:30.564Z</time></trkpt><trkpt lat="44.230405" lon="11.58759"><ele>593.0</ele><time>2026-04-26T12:04:31.566Z</time></trkpt><trkpt lat="44.2305067" lon="11.587575"><ele>593.0</ele><time>2026-04-26T12:04:32.567Z</time></trkpt><trkpt lat="44.2305933" lon="11.5875733"><ele>593.0</ele><time>2026-04-26T12:04:33.563Z</time></trkpt><trkpt lat="44.2306767" lon="11.5875617"><ele>593.0</ele><time>2026-04-26T12:04:34.566Z</time></trkpt><trkpt lat="44.230745" lon="11.58756"><ele>593.0</ele><time>2026-04-26T12:04:35.554Z</time></trkpt><trkpt lat="44.230845" lon="11.587605"><ele>593.0</ele><time>2026-04-26T12:04:37.568Z</time></trkpt><trkpt lat="44.2308333" lon="11.5877683"><ele>594.1666666666666</ele><time>2026-04-26T12:04:39.567Z</time></trkpt><trkpt lat="44.230805" lon="11.58788"><ele>595.3333333333333</ele><time>2026-04-26T12:04:40.565Z</time></trkpt><trkpt lat="44.2307733" lon="11.5879933"><ele>596.5</ele><time>2026-04-26T12:04:41.56Z</time></trkpt><trkpt lat="44.2307483" lon="11.5881083"><ele>597.6666666666666</ele><time>2026-04-26T12:04:42.56Z</time></trkpt><trkpt lat="44.2307233" lon="11.588225"><ele>598.8333333333334</ele><time>2026-04-26T12:04:43.563Z</time></trkpt><trkpt lat="44.2307" lon="11.5883433"><ele>600.0</ele><time>2026-04-26T12:04:44.57Z</time></trkpt><trkpt lat="44.23068" lon="11.58846"><ele>600.0</ele><time>2026-04-26T12:04:45.573Z</time></trkpt><trkpt lat="44.2306733" lon="11.58858"><ele>600.0</ele><time>2026-04-26T12:04:46.569Z</time></trkpt><trkpt lat="44.2306767" lon="11.5886983"><ele>600.0</ele><time>2026-04-26T12:04:47.565Z</time></trkpt><trkpt lat="44.230695" lon="11.5888117"><ele>600.0</ele><time>2026-04-26T12:04:48.559Z</time></trkpt><trkpt lat="44.2307283" lon="11.5889133"><ele>600.0</ele><time>2026-04-26T12:04:49.567Z</time></trkpt><trkpt lat="44.2307683" lon="11.58902"><ele>600.0</ele><time>2026-04-26T12:04:50.572Z</time></trkpt><trkpt lat="44.230815" lon="11.5891283"><ele>599.0</ele><time>2026-04-26T12:04:51.567Z</time></trkpt><trkpt lat="44.2308567" lon="11.5892417"><ele>598.0</ele><time>2026-04-26T12:04:52.56Z</time></trkpt><trkpt lat="44.23089" lon="11.5893533"><ele>597.0</ele><time>2026-04-26T12:04:53.562Z</time></trkpt><trkpt lat="44.2309217" lon="11.589455"><ele>596.0</ele><time>2026-04-26T12:04:54.581Z</time></trkpt><trkpt lat="44.2309633" lon="11.589555"><ele>595.0</ele><time>2026-04-26T12:04:55.557Z</time></trkpt><trkpt lat="44.23102" lon="11.5896517"><ele>594.0</ele><time>2026-04-26T12:04:56.565Z</time></trkpt><trkpt lat="44.231095" lon="11.5897417"><ele>590.75</ele><time>2026-04-26T12:04:57.564Z</time></trkpt><trkpt lat="44.23118" lon="11.5898317"><ele>587.5</ele><time>2026-04-26T12:04:58.556Z</time></trkpt><trkpt lat="44.2312667" lon="11.5899233"><ele>584.25</ele><time>2026-04-26T12:04:59.556Z</time></trkpt><trkpt lat="44.23136" lon="11.5900233"><ele>581.0</ele><time>2026-04-26T12:05:00.555Z</time></trkpt><trkpt lat="44.23145" lon="11.590135"><ele>582.0</ele><time>2026-04-26T12:05:01.57Z</time></trkpt><trkpt lat="44.2315433" lon="11.5902567"><ele>583.0</ele><time>2026-04-26T12:05:02.565Z</time></trkpt><trkpt lat="44.231635" lon="11.5903833"><ele>584.0</ele><time>2026-04-26T12:05:03.568Z</time></trkpt><trkpt lat="44.2317183" lon="11.5905117"><ele>585.0</ele><time>2026-04-26T12:05:04.567Z</time></trkpt><trkpt lat="44.2317917" lon="11.590645"><ele>585.0</ele><time>2026-04-26T12:05:05.565Z</time></trkpt><trkpt lat="44.23185" lon="11.5907817"><ele>585.0</ele><time>2026-04-26T12:05:06.564Z</time></trkpt><trkpt lat="44.2318883" lon="11.5909167"><ele>585.0</ele><time>2026-04-26T12:05:07.561Z</time></trkpt><trkpt lat="44.2319267" lon="11.591045"><ele>585.0</ele><time>2026-04-26T12:05:08.56Z</time></trkpt><trkpt lat="44.2319667" lon="11.59117"><ele>585.0</ele><time>2026-04-26T12:05:09.565Z</time></trkpt><trkpt lat="44.232005" lon="11.5912933"><ele>583.1666666666666</ele><time>2026-04-26T12:05:10.559Z</time></trkpt><trkpt lat="44.23203" lon="11.591415"><ele>581.3333333333334</ele><time>2026-04-26T12:05:11.556Z</time></trkpt><trkpt lat="44.2320467" lon="11.591535"><ele>579.5</ele><time>2026-04-26T12:05:12.558Z</time></trkpt><trkpt lat="44.2320583" lon="11.591655"><ele>577.6666666666667</ele><time>2026-04-26T12:05:13.567Z</time></trkpt><trkpt lat="44.2320783" lon="11.5917733"><ele>575.8333333333334</ele><time>2026-04-26T12:05:14.57Z</time></trkpt><trkpt lat="44.2321033" lon="11.59188"><ele>574.0</ele><time>2026-04-26T12:05:15.561Z</time></trkpt><trkpt lat="44.232135" lon="11.5919683"><ele>573.1666666666667</ele><time>2026-04-26T12:05:16.582Z</time></trkpt><trkpt lat="44.2322183" lon="11.5920733"><ele>572.3333333333334</ele><time>2026-04-26T12:05:18.564Z</time></trkpt><trkpt lat="44.2322883" lon="11.5920533"><ele>571.5</ele><time>2026-04-26T12:05:19.571Z</time></trkpt><trkpt lat="44.2323567" lon="11.592015"><ele>570.6666666666666</ele><time>2026-04-26T12:05:20.558Z</time></trkpt><trkpt lat="44.2324233" lon="11.5919817"><ele>569.8333333333333</ele><time>2026-04-26T12:05:21.56Z</time></trkpt><trkpt lat="44.2325017" lon="11.591965"><ele>569.0</ele><time>2026-04-26T12:05:22.58Z</time></trkpt><trkpt lat="44.2325783" lon="11.5919717"><ele>570.8333333333333</ele><time>2026-04-26T12:05:23.568Z</time></trkpt><trkpt lat="44.2326567" lon="11.5919883"><ele>572.6666666666666</ele><time>2026-04-26T12:05:24.572Z</time></trkpt><trkpt lat="44.232735" lon="11.5920083"><ele>574.5</ele><time>2026-04-26T12:05:25.557Z</time></trkpt><trkpt lat="44.2328133" lon="11.5920283"><ele>576.3333333333334</ele><time>2026-04-26T12:05:26.558Z</time></trkpt><trkpt lat="44.23289" lon="11.5920467"><ele>578.1666666666667</ele><time>2026-04-26T12:05:27.556Z</time></trkpt><trkpt lat="44.23296" lon="11.59208"><ele>580.0</ele><time>2026-04-26T12:05:28.56Z</time></trkpt><trkpt lat="44.23307" lon="11.59215"><ele>580.0</ele><time>2026-04-26T12:05:30.556Z</time></trkpt><trkpt lat="44.2331233" lon="11.592225"><ele>580.0</ele><time>2026-04-26T12:05:31.576Z</time></trkpt><trkpt lat="44.23317" lon="11.592305"><ele>580.0</ele><time>2026-04-26T12:05:32.57Z</time></trkpt><trkpt lat="44.2332167" lon="11.5923767"><ele>580.0</ele><time>2026-04-26T12:05:33.567Z</time></trkpt><trkpt lat="44.2332783" lon="11.59245"><ele>580.0</ele><time>2026-04-26T12:05:34.572Z</time></trkpt><trkpt lat="44.2333433" lon="11.5925283"><ele>580.0</ele><time>2026-04-26T12:05:35.562Z</time></trkpt><trkpt lat="44.233415" lon="11.5925967"><ele>578.8</ele><time>2026-04-26T12:05:36.562Z</time></trkpt><trkpt lat="44.23349" lon="11.5926583"><ele>577.6</ele><time>2026-04-26T12:05:37.562Z</time></trkpt><trkpt lat="44.233565" lon="11.5927167"><ele>576.4</ele><time>2026-04-26T12:05:38.568Z</time></trkpt><trkpt lat="44.233655" lon="11.5927633"><ele>575.2</ele><time>2026-04-26T12:05:39.557Z</time></trkpt><trkpt lat="44.2337433" lon="11.592795"><ele>574.0</ele><time>2026-04-26T12:05:40.596Z</time></trkpt><trkpt lat="44.2338367" lon="11.5928167"><ele>570.8333333333334</ele><time>2026-04-26T12:05:41.56Z</time></trkpt><trkpt lat="44.2339317" lon="11.5928467"><ele>567.6666666666667</ele><time>2026-04-26T12:05:42.57Z</time></trkpt><trkpt lat="44.2340183" lon="11.5928917"><ele>564.5</ele><time>2026-04-26T12:05:43.568Z</time></trkpt><trkpt lat="44.2340917" lon="11.592945"><ele>561.3333333333334</ele><time>2026-04-26T12:05:44.569Z</time></trkpt><trkpt lat="44.2341667" lon="11.59299"><ele>558.1666666666666</ele><time>2026-04-26T12:05:45.568Z</time></trkpt><trkpt lat="44.2342517" lon="11.593015"><ele>555.0</ele><time>2026-04-26T12:05:46.568Z</time></trkpt><trkpt lat="44.2343233" lon="11.5930117"><ele>555.0</ele><time>2026-04-26T12:05:47.561Z</time></trkpt><trkpt lat="44.23439" lon="11.5929783"><ele>555.0</ele><time>2026-04-26T12:05:48.569Z</time></trkpt><trkpt lat="44.2344617" lon="11.592915"><ele>555.0</ele><time>2026-04-26T12:05:49.569Z</time></trkpt><trkpt lat="44.2345317" lon="11.5928317"><ele>555.0</ele><time>2026-04-26T12:05:50.57Z</time></trkpt><trkpt lat="44.2346" lon="11.5927183"><ele>555.0</ele><time>2026-04-26T12:05:51.564Z</time></trkpt><trkpt lat="44.234675" lon="11.5926033"><ele>555.1666666666666</ele><time>2026-04-26T12:05:52.564Z</time></trkpt><trkpt lat="44.2347517" lon="11.5925067"><ele>555.3333333333334</ele><time>2026-04-26T12:05:53.556Z</time></trkpt><trkpt lat="44.23481" lon="11.5924167"><ele>555.5</ele><time>2026-04-26T12:05:54.581Z</time></trkpt><trkpt lat="44.2348583" lon="11.5923183"><ele>555.6666666666667</ele><time>2026-04-26T12:05:55.56Z</time></trkpt><trkpt lat="44.2348783" lon="11.59221"><ele>555.8333333333334</ele><time>2026-04-26T12:05:56.565Z</time></trkpt><trkpt lat="44.2349217" lon="11.592115"><ele>556.0</ele><time>2026-04-26T12:05:57.562Z</time></trkpt><trkpt lat="44.234975" lon="11.5920483"><ele>556.0</ele><time>2026-04-26T12:05:58.562Z</time></trkpt><trkpt lat="44.2350667" lon="11.592025"><ele>556.0</ele><time>2026-04-26T12:06:00.554Z</time></trkpt><trkpt lat="44.2351383" lon="11.592145"><ele>556.0</ele><time>2026-04-26T12:06:02.576Z</time></trkpt><trkpt lat="44.2351467" lon="11.5922417"><ele>556.0</ele><time>2026-04-26T12:06:03.559Z</time></trkpt><trkpt lat="44.2351467" lon="11.5923533"><ele>556.0</ele><time>2026-04-26T12:06:04.571Z</time></trkpt><trkpt lat="44.2351467" lon="11.5924717"><ele>556.0</ele><time>2026-04-26T12:06:05.563Z</time></trkpt><trkpt lat="44.2351583" lon="11.5925867"><ele>556.0</ele><time>2026-04-26T12:06:06.575Z</time></trkpt><trkpt lat="44.2351783" lon="11.5927"><ele>556.0</ele><time>2026-04-26T12:06:07.553Z</time></trkpt><trkpt lat="44.2351933" lon="11.5928067"><ele>556.0</ele><time>2026-04-26T12:06:08.582Z</time></trkpt><trkpt lat="44.2352117" lon="11.5929117"><ele>556.0</ele><time>2026-04-26T12:06:09.57Z</time></trkpt><trkpt lat="44.2352133" lon="11.5930133"><ele>556.0</ele><time>2026-04-26T12:06:10.555Z</time></trkpt><trkpt lat="44.2352083" lon="11.5931017"><ele>556.0</ele><time>2026-04-26T12:06:11.563Z</time></trkpt><trkpt lat="44.2352033" lon="11.5931933"><ele>556.0</ele><time>2026-04-26T12:06:12.566Z</time></trkpt><trkpt lat="44.2352017" lon="11.593295"><ele>555.7142857142857</ele><time>2026-04-26T12:06:13.556Z</time></trkpt><trkpt lat="44.235195" lon="11.593395"><ele>555.4285714285714</ele><time>2026-04-26T12:06:14.563Z</time></trkpt><trkpt lat="44.2351883" lon="11.5934917"><ele>555.1428571428571</ele><time>2026-04-26T12:06:15.556Z</time></trkpt><trkpt lat="44.235185" lon="11.5935933"><ele>554.8571428571429</ele><time>2026-04-26T12:06:16.56Z</time></trkpt><trkpt lat="44.2351833" lon="11.5936983"><ele>554.5714285714286</ele><time>2026-04-26T12:06:17.58Z</time></trkpt><trkpt lat="44.2351833" lon="11.593805"><ele>554.2857142857142</ele><time>2026-04-26T12:06:18.567Z</time></trkpt><trkpt lat="44.23518" lon="11.5939117"><ele>554.0</ele><time>2026-04-26T12:06:19.569Z</time></trkpt><trkpt lat="44.235175" lon="11.5940183"><ele>552.0</ele><time>2026-04-26T12:06:20.559Z</time></trkpt><trkpt lat="44.2351633" lon="11.5941267"><ele>550.0</ele><time>2026-04-26T12:06:21.563Z</time></trkpt><trkpt lat="44.2351633" lon="11.5942383"><ele>548.0</ele><time>2026-04-26T12:06:22.555Z</time></trkpt><trkpt lat="44.235155" lon="11.5943367"><ele>546.0</ele><time>2026-04-26T12:06:23.58Z</time></trkpt><trkpt lat="44.2351467" lon="11.59443"><ele>544.0</ele><time>2026-04-26T12:06:24.554Z</time></trkpt><trkpt lat="44.2351167" lon="11.5945883"><ele>542.0</ele><time>2026-04-26T12:06:26.547Z</time></trkpt><trkpt lat="44.2350717" lon="11.5947117"><ele>540.6666666666666</ele><time>2026-04-26T12:06:28.565Z</time></trkpt><trkpt lat="44.2350533" lon="11.5948483"><ele>539.3333333333333</ele><time>2026-04-26T12:06:30.565Z</time></trkpt><trkpt lat="44.235055" lon="11.594945"><ele>538.0</ele><time>2026-04-26T12:06:31.554Z</time></trkpt><trkpt lat="44.2350533" lon="11.5950533"><ele>536.6666666666666</ele><time>2026-04-26T12:06:32.569Z</time></trkpt><trkpt lat="44.235055" lon="11.5951717"><ele>535.3333333333334</ele><time>2026-04-26T12:06:33.558Z</time></trkpt><trkpt lat="44.2350417" lon="11.59529"><ele>534.0</ele><time>2026-04-26T12:06:34.578Z</time></trkpt><trkpt lat="44.2350067" lon="11.5954067"><ele>533.5</ele><time>2026-04-26T12:06:35.563Z</time></trkpt><trkpt lat="44.2349683" lon="11.5955233"><ele>533.0</ele><time>2026-04-26T12:06:36.57Z</time></trkpt><trkpt lat="44.2349267" lon="11.5956317"><ele>532.5</ele><time>2026-04-26T12:06:37.564Z</time></trkpt><trkpt lat="44.2348867" lon="11.595735"><ele>532.0</ele><time>2026-04-26T12:06:38.563Z</time></trkpt><trkpt lat="44.234855" lon="11.5958367"><ele>531.5</ele><time>2026-04-26T12:06:39.569Z</time></trkpt><trkpt lat="44.2348267" lon="11.595935"><ele>531.0</ele><time>2026-04-26T12:06:40.565Z</time></trkpt><trkpt lat="44.2348317" lon="11.5960317"><ele>531.0</ele><time>2026-04-26T12:06:41.549Z</time></trkpt><trkpt lat="44.2348717" lon="11.5961183"><ele>531.0</ele><time>2026-04-26T12:06:42.567Z</time></trkpt><trkpt lat="44.2349383" lon="11.5961867"><ele>531.0</ele><time>2026-04-26T12:06:43.56Z</time></trkpt><trkpt lat="44.2350183" lon="11.5962433"><ele>531.0</ele><time>2026-04-26T12:06:44.574Z</time></trkpt><trkpt lat="44.2351117" lon="11.5962983"><ele>531.0</ele><time>2026-04-26T12:06:45.566Z</time></trkpt><trkpt lat="44.2352017" lon="11.5963567"><ele>531.0</ele><time>2026-04-26T12:06:46.571Z</time></trkpt><trkpt lat="44.2353017" lon="11.5964133"><ele>533.8</ele><time>2026-04-26T12:06:47.564Z</time></trkpt><trkpt lat="44.2353933" lon="11.5964817"><ele>536.6</ele><time>2026-04-26T12:06:48.564Z</time></trkpt><trkpt lat="44.235475" lon="11.5965617"><ele>539.4</ele><time>2026-04-26T12:06:49.566Z</time></trkpt><trkpt lat="44.2355483" lon="11.5966617"><ele>542.2</ele><time>2026-04-26T12:06:50.559Z</time></trkpt><trkpt lat="44.235605" lon="11.5967783"><ele>545.0</ele><time>2026-04-26T12:06:51.555Z</time></trkpt><trkpt lat="44.23565" lon="11.5968983"><ele>543.4</ele><time>2026-04-26T12:06:52.559Z</time></trkpt><trkpt lat="44.2356733" lon="11.5970333"><ele>541.8</ele><time>2026-04-26T12:06:53.563Z</time></trkpt><trkpt lat="44.2356717" lon="11.5971767"><ele>540.2</ele><time>2026-04-26T12:06:54.566Z</time></trkpt><trkpt lat="44.23565" lon="11.597315"><ele>538.6</ele><time>2026-04-26T12:06:55.556Z</time></trkpt><trkpt lat="44.23563" lon="11.59745"><ele>537.0</ele><time>2026-04-26T12:06:56.576Z</time></trkpt><trkpt lat="44.2356083" lon="11.59758"><ele>535.0</ele><time>2026-04-26T12:06:57.572Z</time></trkpt><trkpt lat="44.2356017" lon="11.5977083"><ele>533.0</ele><time>2026-04-26T12:06:58.586Z</time></trkpt><trkpt lat="44.2356133" lon="11.59783"><ele>531.0</ele><time>2026-04-26T12:06:59.603Z</time></trkpt><trkpt lat="44.235635" lon="11.5979433"><ele>529.0</ele><time>2026-04-26T12:07:00.559Z</time></trkpt><trkpt lat="44.2356783" lon="11.5980683"><ele>527.0</ele><time>2026-04-26T12:07:01.556Z</time></trkpt><trkpt lat="44.235735" lon="11.5981933"><ele>527.0</ele><time>2026-04-26T12:07:02.564Z</time></trkpt><trkpt lat="44.2357983" lon="11.5983133"><ele>527.0</ele><time>2026-04-26T12:07:03.562Z</time></trkpt><trkpt lat="44.2358617" lon="11.5984383"><ele>527.0</ele><time>2026-04-26T12:07:04.57Z</time></trkpt><trkpt lat="44.2359267" lon="11.5985633"><ele>527.0</ele><time>2026-04-26T12:07:05.563Z</time></trkpt><trkpt lat="44.2359733" lon="11.5986767"><ele>527.0</ele><time>2026-04-26T12:07:06.559Z</time></trkpt><trkpt lat="44.2360117" lon="11.5987817"><ele>524.7142857142858</ele><time>2026-04-26T12:07:07.566Z</time></trkpt><trkpt lat="44.23603" lon="11.5988833"><ele>522.4285714285714</ele><time>2026-04-26T12:07:08.56Z</time></trkpt><trkpt lat="44.2360367" lon="11.5989833"><ele>520.1428571428571</ele><time>2026-04-26T12:07:09.566Z</time></trkpt><trkpt lat="44.2360333" lon="11.5990783"><ele>517.8571428571429</ele><time>2026-04-26T12:07:10.563Z</time></trkpt><trkpt lat="44.2360183" lon="11.5991733"><ele>515.5714285714286</ele><time>2026-04-26T12:07:11.552Z</time></trkpt><trkpt lat="44.2359983" lon="11.599265"><ele>513.2857142857143</ele><time>2026-04-26T12:07:12.564Z</time></trkpt><trkpt lat="44.235975" lon="11.5993533"><ele>511.0</ele><time>2026-04-26T12:07:13.577Z</time></trkpt><trkpt lat="44.2359533" lon="11.5994433"><ele>510.1428571428571</ele><time>2026-04-26T12:07:14.558Z</time></trkpt><trkpt lat="44.2359383" lon="11.59954"><ele>509.2857142857143</ele><time>2026-04-26T12:07:15.561Z</time></trkpt><trkpt lat="44.235935" lon="11.5996383"><ele>508.42857142857144</ele><time>2026-04-26T12:07:16.564Z</time></trkpt><trkpt lat="44.2359317" lon="11.5997383"><ele>507.57142857142856</ele><time>2026-04-26T12:07:17.553Z</time></trkpt><trkpt lat="44.235945" lon="11.5998417"><ele>506.71428571428567</ele><time>2026-04-26T12:07:18.572Z</time></trkpt><trkpt lat="44.23597" lon="11.5999367"><ele>505.85714285714283</ele><time>2026-04-26T12:07:19.567Z</time></trkpt><trkpt lat="44.2359983" lon="11.6000267"><ele>505.0</ele><time>2026-04-26T12:07:20.578Z</time></trkpt><trkpt lat="44.23603" lon="11.6001133"><ele>505.00000000000006</ele><time>2026-04-26T12:07:21.561Z</time></trkpt><trkpt lat="44.2360683" lon="11.6001983"><ele>505.0</ele><time>2026-04-26T12:07:22.557Z</time></trkpt><trkpt lat="44.236115" lon="11.600285"><ele>505.0</ele><time>2026-04-26T12:07:23.559Z</time></trkpt><trkpt lat="44.2361633" lon="11.6003683"><ele>505.0</ele><time>2026-04-26T12:07:24.561Z</time></trkpt><trkpt lat="44.2362183" lon="11.6004433"><ele>505.00000000000006</ele><time>2026-04-26T12:07:25.554Z</time></trkpt><trkpt lat="44.2362767" lon="11.6005083"><ele>505.0</ele><time>2026-04-26T12:07:26.555Z</time></trkpt><trkpt lat="44.2363467" lon="11.6005683"><ele>503.1666666666667</ele><time>2026-04-26T12:07:27.565Z</time></trkpt><trkpt lat="44.2364167" lon="11.60062"><ele>501.33333333333337</ele><time>2026-04-26T12:07:28.558Z</time></trkpt><trkpt lat="44.2364867" lon="11.6006433"><ele>499.5</ele><time>2026-04-26T12:07:29.562Z</time></trkpt><trkpt lat="44.236565" lon="11.60066"><ele>497.66666666666663</ele><time>2026-04-26T12:07:30.561Z</time></trkpt><trkpt lat="44.2366533" lon="11.6006717"><ele>495.8333333333333</ele><time>2026-04-26T12:07:31.555Z</time></trkpt><trkpt lat="44.236745" lon="11.6006833"><ele>494.0</ele><time>2026-04-26T12:07:32.57Z</time></trkpt><trkpt lat="44.2368317" lon="11.6007017"><ele>494.0</ele><time>2026-04-26T12:07:33.562Z</time></trkpt><trkpt lat="44.2369167" lon="11.600725"><ele>494.0</ele><time>2026-04-26T12:07:34.56Z</time></trkpt><trkpt lat="44.23701" lon="11.6007533"><ele>494.0</ele><time>2026-04-26T12:07:35.555Z</time></trkpt><trkpt lat="44.237105" lon="11.6007933"><ele>494.0</ele><time>2026-04-26T12:07:36.554Z</time></trkpt><trkpt lat="44.237195" lon="11.6008417"><ele>494.0</ele><time>2026-04-26T12:07:37.558Z</time></trkpt><trkpt lat="44.237275" lon="11.6009033"><ele>495.4</ele><time>2026-04-26T12:07:38.563Z</time></trkpt><trkpt lat="44.2373433" lon="11.6009833"><ele>496.79999999999995</ele><time>2026-04-26T12:07:39.562Z</time></trkpt><trkpt lat="44.2373967" lon="11.6010783"><ele>498.20000000000005</ele><time>2026-04-26T12:07:40.555Z</time></trkpt><trkpt lat="44.2374467" lon="11.6011883"><ele>499.6</ele><time>2026-04-26T12:07:41.563Z</time></trkpt><trkpt lat="44.2375033" lon="11.601295"><ele>501.0</ele><time>2026-04-26T12:07:42.565Z</time></trkpt><trkpt lat="44.237575" lon="11.6014017"><ele>495.75</ele><time>2026-04-26T12:07:43.558Z</time></trkpt><trkpt lat="44.237665" lon="11.6014983"><ele>490.5</ele><time>2026-04-26T12:07:44.571Z</time></trkpt><trkpt lat="44.2377617" lon="11.6015867"><ele>485.25</ele><time>2026-04-26T12:07:45.554Z</time></trkpt><trkpt lat="44.23786" lon="11.601675"><ele>480.0</ele><time>2026-04-26T12:07:46.563Z</time></trkpt><trkpt lat="44.2379583" lon="11.6017633"><ele>480.0</ele><time>2026-04-26T12:07:47.559Z</time></trkpt><trkpt lat="44.23805" lon="11.6018617"><ele>480.0</ele><time>2026-04-26T12:07:48.558Z</time></trkpt><trkpt lat="44.2381267" lon="11.601975"><ele>480.0</ele><time>2026-04-26T12:07:49.582Z</time></trkpt><trkpt lat="44.23818" lon="11.6021167"><ele>480.0</ele><time>2026-04-26T12:07:50.555Z</time></trkpt><trkpt lat="44.2382133" lon="11.6022717"><ele>481.0</ele><time>2026-04-26T12:07:51.557Z</time></trkpt><trkpt lat="44.2382133" lon="11.602425"><ele>482.0</ele><time>2026-04-26T12:07:52.556Z</time></trkpt><trkpt lat="44.2381967" lon="11.60257"><ele>483.0</ele><time>2026-04-26T12:07:53.563Z</time></trkpt><trkpt lat="44.238185" lon="11.6027033"><ele>484.0</ele><time>2026-04-26T12:07:54.558Z</time></trkpt><trkpt lat="44.2381817" lon="11.602815"><ele>485.0</ele><time>2026-04-26T12:07:55.565Z</time></trkpt><trkpt lat="44.2382117" lon="11.602915"><ele>481.0</ele><time>2026-04-26T12:07:56.549Z</time></trkpt><trkpt lat="44.2382717" lon="11.6029883"><ele>477.0</ele><time>2026-04-26T12:07:57.566Z</time></trkpt><trkpt lat="44.2383417" lon="11.603055"><ele>473.0</ele><time>2026-04-26T12:07:58.569Z</time></trkpt><trkpt lat="44.238425" lon="11.6031167"><ele>469.0</ele><time>2026-04-26T12:07:59.564Z</time></trkpt><trkpt lat="44.2385133" lon="11.6031733"><ele>465.0</ele><time>2026-04-26T12:08:00.572Z</time></trkpt><trkpt lat="44.2385983" lon="11.60323"><ele>465.0</ele><time>2026-04-26T12:08:01.561Z</time></trkpt><trkpt lat="44.2386767" lon="11.60328"><ele>465.0</ele><time>2026-04-26T12:08:02.572Z</time></trkpt><trkpt lat="44.2387583" lon="11.6033267"><ele>465.0</ele><time>2026-04-26T12:08:03.564Z</time></trkpt><trkpt lat="44.23883" lon="11.603385"><ele>465.0</ele><time>2026-04-26T12:08:04.55Z</time></trkpt><trkpt lat="44.23889" lon="11.6034633"><ele>465.0</ele><time>2026-04-26T12:08:05.561Z</time></trkpt><trkpt lat="44.23893" lon="11.603565"><ele>465.0</ele><time>2026-04-26T12:08:06.561Z</time></trkpt><trkpt lat="44.2389367" lon="11.6036867"><ele>465.6666666666667</ele><time>2026-04-26T12:08:07.565Z</time></trkpt><trkpt lat="44.2389217" lon="11.6038"><ele>466.33333333333337</ele><time>2026-04-26T12:08:08.57Z</time></trkpt><trkpt lat="44.238875" lon="11.6038833"><ele>467.0</ele><time>2026-04-26T12:08:09.568Z</time></trkpt><trkpt lat="44.2388017" lon="11.60394"><ele>467.6666666666667</ele><time>2026-04-26T12:08:10.567Z</time></trkpt><trkpt lat="44.2387283" lon="11.6039833"><ele>468.33333333333337</ele><time>2026-04-26T12:08:11.545Z</time></trkpt><trkpt lat="44.23864" lon="11.60401"><ele>469.0</ele><time>2026-04-26T12:08:12.555Z</time></trkpt><trkpt lat="44.2385367" lon="11.6040267"><ele>469.0</ele><time>2026-04-26T12:08:13.565Z</time></trkpt><trkpt lat="44.2384283" lon="11.6040483"><ele>469.0</ele><time>2026-04-26T12:08:14.562Z</time></trkpt><trkpt lat="44.2383283" lon="11.6040733"><ele>469.0</ele><time>2026-04-26T12:08:15.563Z</time></trkpt><trkpt lat="44.2382333" lon="11.604095"><ele>469.0</ele><time>2026-04-26T12:08:16.572Z</time></trkpt><trkpt lat="44.238145" lon="11.604115"><ele>469.0</ele><time>2026-04-26T12:08:17.561Z</time></trkpt><trkpt lat="44.2380517" lon="11.6041367"><ele>465.83333333333337</ele><time>2026-04-26T12:08:18.565Z</time></trkpt><trkpt lat="44.2379717" lon="11.6041867"><ele>462.6666666666667</ele><time>2026-04-26T12:08:19.564Z</time></trkpt><trkpt lat="44.2379217" lon="11.6042683"><ele>459.5</ele><time>2026-04-26T12:08:20.561Z</time></trkpt><trkpt lat="44.2378867" lon="11.6043667"><ele>456.33333333333337</ele><time>2026-04-26T12:08:21.56Z</time></trkpt><trkpt lat="44.237865" lon="11.6044767"><ele>453.1666666666667</ele><time>2026-04-26T12:08:22.565Z</time></trkpt><trkpt lat="44.237855" lon="11.60459"><ele>450.0</ele><time>2026-04-26T12:08:23.562Z</time></trkpt><trkpt lat="44.2378317" lon="11.6047"><ele>450.0</ele><time>2026-04-26T12:08:24.554Z</time></trkpt><trkpt lat="44.2378033" lon="11.6048"><ele>450.0</ele><time>2026-04-26T12:08:25.559Z</time></trkpt><trkpt lat="44.2377633" lon="11.6048767"><ele>450.0</ele><time>2026-04-26T12:08:26.556Z</time></trkpt><trkpt lat="44.2376717" lon="11.604985"><ele>450.0</ele><time>2026-04-26T12:08:28.559Z</time></trkpt><trkpt lat="44.237575" lon="11.6050917"><ele>450.0</ele><time>2026-04-26T12:08:30.558Z</time></trkpt><trkpt lat="44.2375233" lon="11.605225"><ele>451.0</ele><time>2026-04-26T12:08:32.565Z</time></trkpt><trkpt lat="44.2374933" lon="11.6053817"><ele>452.0</ele><time>2026-04-26T12:08:34.556Z</time></trkpt><trkpt lat="44.237465" lon="11.6055517"><ele>453.0</ele><time>2026-04-26T12:08:36.568Z</time></trkpt><trkpt lat="44.2374617" lon="11.6057133"><ele>454.0</ele><time>2026-04-26T12:08:38.557Z</time></trkpt><trkpt lat="44.2374817" lon="11.6058817"><ele>454.0</ele><time>2026-04-26T12:08:40.561Z</time></trkpt><trkpt lat="44.23749" lon="11.6060417"><ele>454.0</ele><time>2026-04-26T12:08:42.552Z</time></trkpt><trkpt lat="44.2374533" lon="11.6062117"><ele>454.0</ele><time>2026-04-26T12:08:44.572Z</time></trkpt><trkpt lat="44.23742" lon="11.6063033"><ele>454.0</ele><time>2026-04-26T12:08:45.561Z</time></trkpt><trkpt lat="44.237375" lon="11.6064067"><ele>454.0</ele><time>2026-04-26T12:08:46.573Z</time></trkpt><trkpt lat="44.237325" lon="11.6065167"><ele>448.75</ele><time>2026-04-26T12:08:47.56Z</time></trkpt><trkpt lat="44.2372667" lon="11.6066367"><ele>443.5</ele><time>2026-04-26T12:08:48.56Z</time></trkpt><trkpt lat="44.23719" lon="11.6067633"><ele>438.25</ele><time>2026-04-26T12:08:49.566Z</time></trkpt><trkpt lat="44.2371083" lon="11.6068967"><ele>433.0</ele><time>2026-04-26T12:08:50.568Z</time></trkpt><trkpt lat="44.23701" lon="11.6070317"><ele>433.0</ele><time>2026-04-26T12:08:51.561Z</time></trkpt><trkpt lat="44.23691" lon="11.6071667"><ele>433.0</ele><time>2026-04-26T12:08:52.57Z</time></trkpt><trkpt lat="44.236815" lon="11.607305"><ele>433.0</ele><time>2026-04-26T12:08:53.571Z</time></trkpt><trkpt lat="44.2367217" lon="11.6074417"><ele>433.0</ele><time>2026-04-26T12:08:54.554Z</time></trkpt><trkpt lat="44.23664" lon="11.6075783"><ele>433.0</ele><time>2026-04-26T12:08:55.567Z</time></trkpt><trkpt lat="44.2365533" lon="11.6077083"><ele>433.0</ele><time>2026-04-26T12:08:56.564Z</time></trkpt><trkpt lat="44.2364683" lon="11.6078367"><ele>433.0</ele><time>2026-04-26T12:08:57.555Z</time></trkpt><trkpt lat="44.2363967" lon="11.60797"><ele>433.0</ele><time>2026-04-26T12:08:58.58Z</time></trkpt><trkpt lat="44.2363333" lon="11.6081067"><ele>430.0</ele><time>2026-04-26T12:08:59.564Z</time></trkpt><trkpt lat="44.2362817" lon="11.6082367"><ele>426.99999999999994</ele><time>2026-04-26T12:09:00.567Z</time></trkpt><trkpt lat="44.2362283" lon="11.6083583"><ele>424.0</ele><time>2026-04-26T12:09:01.562Z</time></trkpt><trkpt lat="44.2361867" lon="11.6084767"><ele>421.0</ele><time>2026-04-26T12:09:02.563Z</time></trkpt><trkpt lat="44.2361433" lon="11.6085883"><ele>418.0</ele><time>2026-04-26T12:09:03.563Z</time></trkpt><trkpt lat="44.2360967" lon="11.60869"><ele>418.0</ele><time>2026-04-26T12:09:04.557Z</time></trkpt><trkpt lat="44.2360417" lon="11.6087833"><ele>418.0</ele><time>2026-04-26T12:09:05.562Z</time></trkpt><trkpt lat="44.2359867" lon="11.608875"><ele>418.0</ele><time>2026-04-26T12:09:06.563Z</time></trkpt><trkpt lat="44.2359367" lon="11.6089767"><ele>418.0</ele><time>2026-04-26T12:09:07.565Z</time></trkpt><trkpt lat="44.2358967" lon="11.6091"><ele>418.0</ele><time>2026-04-26T12:09:08.553Z</time></trkpt><trkpt lat="44.23586" lon="11.6092367"><ele>418.0</ele><time>2026-04-26T12:09:09.564Z</time></trkpt><trkpt lat="44.235825" lon="11.6093833"><ele>418.0</ele><time>2026-04-26T12:09:10.573Z</time></trkpt><trkpt lat="44.2357817" lon="11.6095317"><ele>418.0</ele><time>2026-04-26T12:09:11.554Z</time></trkpt><trkpt lat="44.23574" lon="11.6096783"><ele>418.0</ele><time>2026-04-26T12:09:12.556Z</time></trkpt><trkpt lat="44.235715" lon="11.6098267"><ele>418.0</ele><time>2026-04-26T12:09:13.566Z</time></trkpt><trkpt lat="44.23571" lon="11.6099683"><ele>417.79999999999995</ele><time>2026-04-26T12:09:14.565Z</time></trkpt><trkpt lat="44.235735" lon="11.6101117"><ele>417.6</ele><time>2026-04-26T12:09:15.563Z</time></trkpt><trkpt lat="44.2357533" lon="11.6102533"><ele>417.4</ele><time>2026-04-26T12:09:16.554Z</time></trkpt><trkpt lat="44.2357433" lon="11.6103917"><ele>417.20000000000005</ele><time>2026-04-26T12:09:17.571Z</time></trkpt><trkpt lat="44.2357167" lon="11.61053"><ele>417.0</ele><time>2026-04-26T12:09:18.559Z</time></trkpt><trkpt lat="44.2356717" lon="11.61067"><ele>410.25</ele><time>2026-04-26T12:09:19.555Z</time></trkpt><trkpt lat="44.2356217" lon="11.6108083"><ele>403.5</ele><time>2026-04-26T12:09:20.552Z</time></trkpt><trkpt lat="44.2355767" lon="11.61096"><ele>396.75</ele><time>2026-04-26T12:09:21.564Z</time></trkpt><trkpt lat="44.23554" lon="11.6111217"><ele>390.0</ele><time>2026-04-26T12:09:22.567Z</time></trkpt><trkpt lat="44.2354967" lon="11.6112767"><ele>390.0</ele><time>2026-04-26T12:09:23.559Z</time></trkpt><trkpt lat="44.2354383" lon="11.61142"><ele>390.0</ele><time>2026-04-26T12:09:24.564Z</time></trkpt><trkpt lat="44.235375" lon="11.6115583"><ele>390.0</ele><time>2026-04-26T12:09:25.571Z</time></trkpt><trkpt lat="44.2353267" lon="11.611705"><ele>390.0</ele><time>2026-04-26T12:09:26.549Z</time></trkpt><trkpt lat="44.2352767" lon="11.6118483"><ele>390.0</ele><time>2026-04-26T12:09:27.561Z</time></trkpt><trkpt lat="44.235215" lon="11.6119817"><ele>390.0</ele><time>2026-04-26T12:09:28.571Z</time></trkpt><trkpt lat="44.2351433" lon="11.6121017"><ele>390.0</ele><time>2026-04-26T12:09:29.567Z</time></trkpt><trkpt lat="44.23506" lon="11.6122067"><ele>390.0</ele><time>2026-04-26T12:09:30.561Z</time></trkpt><trkpt lat="44.2349733" lon="11.6122967"><ele>390.0</ele><time>2026-04-26T12:09:31.566Z</time></trkpt><trkpt lat="44.2348833" lon="11.6123717"><ele>387.6</ele><time>2026-04-26T12:09:32.566Z</time></trkpt><trkpt lat="44.2347883" lon="11.6124317"><ele>385.2</ele><time>2026-04-26T12:09:33.557Z</time></trkpt><trkpt lat="44.2346983" lon="11.6124883"><ele>382.79999999999995</ele><time>2026-04-26T12:09:34.557Z</time></trkpt><trkpt lat="44.23461" lon="11.6125467"><ele>380.4</ele><time>2026-04-26T12:09:35.556Z</time></trkpt><trkpt lat="44.23453" lon="11.6126217"><ele>378.0</ele><time>2026-04-26T12:09:36.559Z</time></trkpt><trkpt lat="44.23446" lon="11.6127117"><ele>378.0</ele><time>2026-04-26T12:09:37.563Z</time></trkpt><trkpt lat="44.2344067" lon="11.6128033"><ele>378.0</ele><time>2026-04-26T12:09:38.56Z</time></trkpt><trkpt lat="44.2343833" lon="11.612905"><ele>378.0</ele><time>2026-04-26T12:09:39.561Z</time></trkpt><trkpt lat="44.2343633" lon="11.6130033"><ele>378.0</ele><time>2026-04-26T12:09:40.561Z</time></trkpt><trkpt lat="44.2343633" lon="11.6131117"><ele>378.0</ele><time>2026-04-26T12:09:41.552Z</time></trkpt><trkpt lat="44.2343783" lon="11.61323"><ele>378.0</ele><time>2026-04-26T12:09:42.553Z</time></trkpt><trkpt lat="44.2343833" lon="11.6133517"><ele>379.79999999999995</ele><time>2026-04-26T12:09:43.567Z</time></trkpt><trkpt lat="44.2343717" lon="11.613475"><ele>381.6</ele><time>2026-04-26T12:09:44.561Z</time></trkpt><trkpt lat="44.2343367" lon="11.6135867"><ele>383.4</ele><time>2026-04-26T12:09:45.554Z</time></trkpt><trkpt lat="44.2342883" lon="11.6136867"><ele>385.20000000000005</ele><time>2026-04-26T12:09:46.564Z</time></trkpt><trkpt lat="44.234225" lon="11.6137867"><ele>387.0</ele><time>2026-04-26T12:09:47.571Z</time></trkpt><trkpt lat="44.2341667" lon="11.613895"><ele>388.40000000000003</ele><time>2026-04-26T12:09:48.563Z</time></trkpt><trkpt lat="44.2341083" lon="11.6140133"><ele>389.8</ele><time>2026-04-26T12:09:49.57Z</time></trkpt><trkpt lat="44.2340483" lon="11.61413"><ele>391.2</ele><time>2026-04-26T12:09:50.556Z</time></trkpt><trkpt lat="44.2339767" lon="11.61423"><ele>392.6</ele><time>2026-04-26T12:09:51.565Z</time></trkpt><trkpt lat="44.2339067" lon="11.6143117"><ele>394.0</ele><time>2026-04-26T12:09:52.562Z</time></trkpt><trkpt lat="44.2338217" lon="11.614375"><ele>392.4</ele><time>2026-04-26T12:09:53.553Z</time></trkpt><trkpt lat="44.23373" lon="11.6144233"><ele>390.79999999999995</ele><time>2026-04-26T12:09:54.567Z</time></trkpt><trkpt lat="44.2336333" lon="11.614465"><ele>389.20000000000005</ele><time>2026-04-26T12:09:55.578Z</time></trkpt><trkpt lat="44.233535" lon="11.6145017"><ele>387.6</ele><time>2026-04-26T12:09:56.561Z</time></trkpt><trkpt lat="44.2334383" lon="11.6145283"><ele>386.0</ele><time>2026-04-26T12:09:57.562Z</time></trkpt><trkpt lat="44.2333417" lon="11.6145467"><ele>386.0</ele><time>2026-04-26T12:09:58.562Z</time></trkpt><trkpt lat="44.23325" lon="11.6145583"><ele>386.0</ele><time>2026-04-26T12:09:59.555Z</time></trkpt><trkpt lat="44.23316" lon="11.6145783"><ele>386.0</ele><time>2026-04-26T12:10:00.556Z</time></trkpt><trkpt lat="44.2330783" lon="11.61461"><ele>386.0</ele><time>2026-04-26T12:10:01.567Z</time></trkpt><trkpt lat="44.233" lon="11.6146783"><ele>386.0</ele><time>2026-04-26T12:10:02.57Z</time></trkpt><trkpt lat="44.23293" lon="11.6147783"><ele>384.0</ele><time>2026-04-26T12:10:03.561Z</time></trkpt><trkpt lat="44.2328617" lon="11.614895"><ele>382.0</ele><time>2026-04-26T12:10:04.557Z</time></trkpt><trkpt lat="44.2327983" lon="11.6150117"><ele>380.0</ele><time>2026-04-26T12:10:05.551Z</time></trkpt><trkpt lat="44.23272" lon="11.6151217"><ele>378.0</ele><time>2026-04-26T12:10:06.556Z</time></trkpt><trkpt lat="44.2326367" lon="11.6152167"><ele>376.0</ele><time>2026-04-26T12:10:07.56Z</time></trkpt><trkpt lat="44.2325467" lon="11.6152933"><ele>376.0</ele><time>2026-04-26T12:10:08.561Z</time></trkpt><trkpt lat="44.2324533" lon="11.61535"><ele>376.0</ele><time>2026-04-26T12:10:09.565Z</time></trkpt><trkpt lat="44.23236" lon="11.615415"><ele>376.0</ele><time>2026-04-26T12:10:10.557Z</time></trkpt><trkpt lat="44.2322683" lon="11.6155033"><ele>376.0</ele><time>2026-04-26T12:10:11.55Z</time></trkpt><trkpt lat="44.2321917" lon="11.6156183"><ele>376.0</ele><time>2026-04-26T12:10:12.557Z</time></trkpt><trkpt lat="44.2321283" lon="11.6157533"><ele>376.0</ele><time>2026-04-26T12:10:13.555Z</time></trkpt><trkpt lat="44.2320667" lon="11.6158967"><ele>376.0</ele><time>2026-04-26T12:10:14.567Z</time></trkpt><trkpt lat="44.232" lon="11.6160383"><ele>376.0</ele><time>2026-04-26T12:10:15.559Z</time></trkpt><trkpt lat="44.2319283" lon="11.616185"><ele>376.0</ele><time>2026-04-26T12:10:16.562Z</time></trkpt><trkpt lat="44.23185" lon="11.6163333"><ele>377.75</ele><time>2026-04-26T12:10:17.572Z</time></trkpt><trkpt lat="44.2317633" lon="11.6164767"><ele>379.5</ele><time>2026-04-26T12:10:18.568Z</time></trkpt><trkpt lat="44.2316817" lon="11.6166133"><ele>381.25</ele><time>2026-04-26T12:10:19.565Z</time></trkpt><trkpt lat="44.231605" lon="11.6167433"><ele>383.0</ele><time>2026-04-26T12:10:20.566Z</time></trkpt><trkpt lat="44.2315367" lon="11.6168683"><ele>381.79999999999995</ele><time>2026-04-26T12:10:21.561Z</time></trkpt><trkpt lat="44.23148" lon="11.617"><ele>380.6</ele><time>2026-04-26T12:10:22.56Z</time></trkpt><trkpt lat="44.231425" lon="11.6171317"><ele>379.4</ele><time>2026-04-26T12:10:23.557Z</time></trkpt><trkpt lat="44.2313667" lon="11.6172483"><ele>378.20000000000005</ele><time>2026-04-26T12:10:24.566Z</time></trkpt><trkpt lat="44.2312967" lon="11.61734"><ele>377.0</ele><time>2026-04-26T12:10:25.565Z</time></trkpt><trkpt lat="44.2312233" lon="11.6174217"><ele>377.0</ele><time>2026-04-26T12:10:26.566Z</time></trkpt><trkpt lat="44.231145" lon="11.6174967"><ele>377.0</ele><time>2026-04-26T12:10:27.554Z</time></trkpt><trkpt lat="44.2310533" lon="11.6175533"><ele>377.0</ele><time>2026-04-26T12:10:28.566Z</time></trkpt><trkpt lat="44.2309533" lon="11.6175883"><ele>377.0</ele><time>2026-04-26T12:10:29.56Z</time></trkpt><trkpt lat="44.230855" lon="11.6176133"><ele>377.0</ele><time>2026-04-26T12:10:30.56Z</time></trkpt><trkpt lat="44.2307733" lon="11.61764"><ele>377.0</ele><time>2026-04-26T12:10:31.557Z</time></trkpt><trkpt lat="44.2306883" lon="11.6176917"><ele>377.0</ele><time>2026-04-26T12:10:32.563Z</time></trkpt><trkpt lat="44.2306333" lon="11.617765"><ele>377.0</ele><time>2026-04-26T12:10:33.572Z</time></trkpt><trkpt lat="44.230585" lon="11.6178717"><ele>377.0</ele><time>2026-04-26T12:10:34.56Z</time></trkpt><trkpt lat="44.230555" lon="11.6180083"><ele>377.0</ele><time>2026-04-26T12:10:35.567Z</time></trkpt><trkpt lat="44.2305417" lon="11.6181667"><ele>376.0</ele><time>2026-04-26T12:10:36.565Z</time></trkpt><trkpt lat="44.23054" lon="11.6183467"><ele>375.0</ele><time>2026-04-26T12:10:37.568Z</time></trkpt><trkpt lat="44.23054" lon="11.6185333"><ele>374.0</ele><time>2026-04-26T12:10:38.553Z</time></trkpt><trkpt lat="44.2305333" lon="11.6187183"><ele>373.0</ele><time>2026-04-26T12:10:39.562Z</time></trkpt><trkpt lat="44.2305233" lon="11.6189017"><ele>373.0</ele><time>2026-04-26T12:10:40.568Z</time></trkpt><trkpt lat="44.2305067" lon="11.619075"><ele>373.0</ele><time>2026-04-26T12:10:41.556Z</time></trkpt><trkpt lat="44.23049" lon="11.61924"><ele>373.0</ele><time>2026-04-26T12:10:42.556Z</time></trkpt><trkpt lat="44.230475" lon="11.6193967"><ele>373.0</ele><time>2026-04-26T12:10:43.553Z</time></trkpt><trkpt lat="44.2304617" lon="11.619545"><ele>371.0</ele><time>2026-04-26T12:10:44.555Z</time></trkpt><trkpt lat="44.2304483" lon="11.61969"><ele>369.0</ele><time>2026-04-26T12:10:45.558Z</time></trkpt><trkpt lat="44.2304317" lon="11.6198317"><ele>367.0</ele><time>2026-04-26T12:10:46.561Z</time></trkpt><trkpt lat="44.2304167" lon="11.6199783"><ele>365.0</ele><time>2026-04-26T12:10:47.556Z</time></trkpt><trkpt lat="44.2304" lon="11.62013"><ele>363.0</ele><time>2026-04-26T12:10:48.556Z</time></trkpt><trkpt lat="44.2303833" lon="11.6202867"><ele>361.4</ele><time>2026-04-26T12:10:49.548Z</time></trkpt><trkpt lat="44.230375" lon="11.6204517"><ele>359.79999999999995</ele><time>2026-04-26T12:10:50.565Z</time></trkpt><trkpt lat="44.2303683" lon="11.6206167"><ele>358.2</ele><time>2026-04-26T12:10:51.568Z</time></trkpt><trkpt lat="44.2303533" lon="11.620765"><ele>356.6</ele><time>2026-04-26T12:10:52.562Z</time></trkpt><trkpt lat="44.2303367" lon="11.6208983"><ele>355.0</ele><time>2026-04-26T12:10:53.563Z</time></trkpt><trkpt lat="44.2303033" lon="11.62101"><ele>355.0</ele><time>2026-04-26T12:10:54.573Z</time></trkpt><trkpt lat="44.230255" lon="11.6210967"><ele>355.0</ele><time>2026-04-26T12:10:55.558Z</time></trkpt><trkpt lat="44.2301917" lon="11.6211483"><ele>355.0</ele><time>2026-04-26T12:10:56.575Z</time></trkpt><trkpt lat="44.230125" lon="11.62117"><ele>355.0</ele><time>2026-04-26T12:10:57.564Z</time></trkpt><trkpt lat="44.230035" lon="11.6210583"><ele>355.0</ele><time>2026-04-26T12:10:59.56Z</time></trkpt><trkpt lat="44.2300067" lon="11.6209617"><ele>355.0</ele><time>2026-04-26T12:11:00.557Z</time></trkpt><trkpt lat="44.2300017" lon="11.6208183"><ele>355.0</ele><time>2026-04-26T12:11:01.564Z</time></trkpt><trkpt lat="44.2299967" lon="11.6206683"><ele>355.0</ele><time>2026-04-26T12:11:02.562Z</time></trkpt><trkpt lat="44.22999" lon="11.62051"><ele>355.0</ele><time>2026-04-26T12:11:03.555Z</time></trkpt><trkpt lat="44.2299817" lon="11.6203567"><ele>355.0</ele><time>2026-04-26T12:11:04.56Z</time></trkpt><trkpt lat="44.2299717" lon="11.6202117"><ele>355.0</ele><time>2026-04-26T12:11:05.557Z</time></trkpt><trkpt lat="44.22996" lon="11.6200683"><ele>356.6</ele><time>2026-04-26T12:11:06.571Z</time></trkpt><trkpt lat="44.2299433" lon="11.619935"><ele>358.2</ele><time>2026-04-26T12:11:07.573Z</time></trkpt><trkpt lat="44.2299133" lon="11.6198117"><ele>359.79999999999995</ele><time>2026-04-26T12:11:08.551Z</time></trkpt><trkpt lat="44.2298717" lon="11.6197017"><ele>361.4</ele><time>2026-04-26T12:11:09.563Z</time></trkpt><trkpt lat="44.22982" lon="11.61959"><ele>363.0</ele><time>2026-04-26T12:11:10.558Z</time></trkpt><trkpt lat="44.2297583" lon="11.619485"><ele>360.79999999999995</ele><time>2026-04-26T12:11:11.556Z</time></trkpt><trkpt lat="44.22969" lon="11.6193817"><ele>358.6</ele><time>2026-04-26T12:11:12.565Z</time></trkpt><trkpt lat="44.2296133" lon="11.6192967"><ele>356.4</ele><time>2026-04-26T12:11:13.557Z</time></trkpt><trkpt lat="44.229525" lon="11.6192167"><ele>354.20000000000005</ele><time>2026-04-26T12:11:14.559Z</time></trkpt><trkpt lat="44.2294283" lon="11.6191433"><ele>352.0</ele><time>2026-04-26T12:11:15.562Z</time></trkpt><trkpt lat="44.22933" lon="11.61908"><ele>352.0</ele><time>2026-04-26T12:11:16.557Z</time></trkpt><trkpt lat="44.2292283" lon="11.6190283"><ele>352.0</ele><time>2026-04-26T12:11:17.564Z</time></trkpt><trkpt lat="44.22913" lon="11.618985"><ele>352.0</ele><time>2026-04-26T12:11:18.564Z</time></trkpt><trkpt lat="44.22904" lon="11.61892"><ele>352.0</ele><time>2026-04-26T12:11:19.565Z</time></trkpt><trkpt lat="44.22896" lon="11.61884"><ele>352.0</ele><time>2026-04-26T12:11:20.567Z</time></trkpt><trkpt lat="44.2288867" lon="11.6187517"><ele>348.0</ele><time>2026-04-26T12:11:21.572Z</time></trkpt><trkpt lat="44.2288067" lon="11.6186817"><ele>344.0</ele><time>2026-04-26T12:11:22.567Z</time></trkpt><trkpt lat="44.2287217" lon="11.6186433"><ele>340.0</ele><time>2026-04-26T12:11:23.56Z</time></trkpt><trkpt lat="44.2286333" lon="11.61864"><ele>336.0</ele><time>2026-04-26T12:11:24.578Z</time></trkpt><trkpt lat="44.2285567" lon="11.6186683"><ele>332.0</ele><time>2026-04-26T12:11:25.561Z</time></trkpt><trkpt lat="44.22851" lon="11.61875"><ele>328.0</ele><time>2026-04-26T12:11:26.564Z</time></trkpt><trkpt lat="44.22848" lon="11.6188467"><ele>328.0</ele><time>2026-04-26T12:11:27.556Z</time></trkpt><trkpt lat="44.2284583" lon="11.618945"><ele>328.0</ele><time>2026-04-26T12:11:28.552Z</time></trkpt><trkpt lat="44.2285017" lon="11.619045"><ele>328.0</ele><time>2026-04-26T12:11:29.565Z</time></trkpt><trkpt lat="44.2285483" lon="11.6191283"><ele>328.0</ele><time>2026-04-26T12:11:30.556Z</time></trkpt><trkpt lat="44.2286117" lon="11.6191967"><ele>328.0</ele><time>2026-04-26T12:11:31.564Z</time></trkpt><trkpt lat="44.2286917" lon="11.61925"><ele>328.0</ele><time>2026-04-26T12:11:32.565Z</time></trkpt><trkpt lat="44.2287933" lon="11.6192817"><ele>328.0</ele><time>2026-04-26T12:11:33.56Z</time></trkpt><trkpt lat="44.2288917" lon="11.6193183"><ele>328.0</ele><time>2026-04-26T12:11:34.557Z</time></trkpt><trkpt lat="44.2289867" lon="11.6193667"><ele>328.0</ele><time>2026-04-26T12:11:35.565Z</time></trkpt><trkpt lat="44.22907" lon="11.6194167"><ele>328.0</ele><time>2026-04-26T12:11:36.558Z</time></trkpt><trkpt lat="44.229145" lon="11.6194917"><ele>328.0</ele><time>2026-04-26T12:11:37.567Z</time></trkpt><trkpt lat="44.2292067" lon="11.6195767"><ele>329.0</ele><time>2026-04-26T12:11:38.559Z</time></trkpt><trkpt lat="44.229265" lon="11.6196817"><ele>330.0</ele><time>2026-04-26T12:11:39.571Z</time></trkpt><trkpt lat="44.2293133" lon="11.6197983"><ele>331.0</ele><time>2026-04-26T12:11:40.556Z</time></trkpt><trkpt lat="44.2293517" lon="11.6199167"><ele>332.0</ele><time>2026-04-26T12:11:41.562Z</time></trkpt><trkpt lat="44.22938" lon="11.6200467"><ele>333.0</ele><time>2026-04-26T12:11:42.562Z</time></trkpt><trkpt lat="44.2293783" lon="11.6201833"><ele>330.5</ele><time>2026-04-26T12:11:43.557Z</time></trkpt><trkpt lat="44.229375" lon="11.6203417"><ele>328.0</ele><time>2026-04-26T12:11:44.553Z</time></trkpt><trkpt lat="44.2293683" lon="11.6205033"><ele>325.5</ele><time>2026-04-26T12:11:45.566Z</time></trkpt><trkpt lat="44.2293617" lon="11.6206667"><ele>323.0</ele><time>2026-04-26T12:11:46.562Z</time></trkpt><trkpt lat="44.2293333" lon="11.620815"><ele>323.0</ele><time>2026-04-26T12:11:47.586Z</time></trkpt><trkpt lat="44.229285" lon="11.6209467"><ele>323.0</ele><time>2026-04-26T12:11:48.556Z</time></trkpt><trkpt lat="44.2292217" lon="11.6210683"><ele>323.0</ele><time>2026-04-26T12:11:49.559Z</time></trkpt><trkpt lat="44.22917" lon="11.6211933"><ele>323.0</ele><time>2026-04-26T12:11:50.56Z</time></trkpt><trkpt lat="44.2291217" lon="11.6213167"><ele>323.0</ele><time>2026-04-26T12:11:51.559Z</time></trkpt><trkpt lat="44.2290917" lon="11.6214633"><ele>323.0</ele><time>2026-04-26T12:11:52.561Z</time></trkpt><trkpt lat="44.2290767" lon="11.62162"><ele>323.0</ele><time>2026-04-26T12:11:53.56Z</time></trkpt><trkpt lat="44.2290683" lon="11.621775"><ele>323.0</ele><time>2026-04-26T12:11:54.563Z</time></trkpt><trkpt lat="44.2290717" lon="11.6219233"><ele>323.0</ele><time>2026-04-26T12:11:55.565Z</time></trkpt><trkpt lat="44.2290833" lon="11.6220567"><ele>323.0</ele><time>2026-04-26T12:11:56.558Z</time></trkpt><trkpt lat="44.22912" lon="11.6221883"><ele>319.79999999999995</ele><time>2026-04-26T12:11:57.559Z</time></trkpt><trkpt lat="44.2291717" lon="11.6222983"><ele>316.59999999999997</ele><time>2026-04-26T12:11:58.553Z</time></trkpt><trkpt lat="44.2292433" lon="11.6223867"><ele>313.4</ele><time>2026-04-26T12:11:59.553Z</time></trkpt><trkpt lat="44.229335" lon="11.6224717"><ele>310.2</ele><time>2026-04-26T12:12:00.574Z</time></trkpt><trkpt lat="44.22943" lon="11.6225467"><ele>307.0</ele><time>2026-04-26T12:12:01.568Z</time></trkpt><trkpt lat="44.229535" lon="11.6225983"><ele>307.0</ele><time>2026-04-26T12:12:02.571Z</time></trkpt><trkpt lat="44.22964" lon="11.6226233"><ele>307.0</ele><time>2026-04-26T12:12:03.57Z</time></trkpt><trkpt lat="44.2297483" lon="11.6226383"><ele>307.0</ele><time>2026-04-26T12:12:04.568Z</time></trkpt><trkpt lat="44.2298533" lon="11.6226483"><ele>307.0</ele><time>2026-04-26T12:12:05.564Z</time></trkpt><trkpt lat="44.2299583" lon="11.622655"><ele>307.0</ele><time>2026-04-26T12:12:06.558Z</time></trkpt><trkpt lat="44.2300583" lon="11.6226533"><ele>310.2</ele><time>2026-04-26T12:12:07.564Z</time></trkpt><trkpt lat="44.23016" lon="11.6226467"><ele>313.4</ele><time>2026-04-26T12:12:08.558Z</time></trkpt><trkpt lat="44.2302617" lon="11.6226533"><ele>316.59999999999997</ele><time>2026-04-26T12:12:09.567Z</time></trkpt><trkpt lat="44.230365" lon="11.6226567"><ele>319.79999999999995</ele><time>2026-04-26T12:12:10.557Z</time></trkpt><trkpt lat="44.23047" lon="11.6226583"><ele>323.0</ele><time>2026-04-26T12:12:11.557Z</time></trkpt><trkpt lat="44.2305767" lon="11.6226667"><ele>321.4</ele><time>2026-04-26T12:12:12.56Z</time></trkpt><trkpt lat="44.23068" lon="11.6226833"><ele>319.79999999999995</ele><time>2026-04-26T12:12:13.553Z</time></trkpt><trkpt lat="44.23078" lon="11.6226867"><ele>318.2</ele><time>2026-04-26T12:12:14.554Z</time></trkpt><trkpt lat="44.2308767" lon="11.6226733"><ele>316.6</ele><time>2026-04-26T12:12:15.561Z</time></trkpt><trkpt lat="44.2309833" lon="11.6226367"><ele>315.0</ele><time>2026-04-26T12:12:16.562Z</time></trkpt><trkpt lat="44.2310817" lon="11.6225817"><ele>315.0</ele><time>2026-04-26T12:12:17.556Z</time></trkpt><trkpt lat="44.2311733" lon="11.6225217"><ele>315.0</ele><time>2026-04-26T12:12:18.56Z</time></trkpt><trkpt lat="44.231265" lon="11.6224733"><ele>315.0</ele><time>2026-04-26T12:12:19.559Z</time></trkpt><trkpt lat="44.2313633" lon="11.62245"><ele>315.0</ele><time>2026-04-26T12:12:20.561Z</time></trkpt><trkpt lat="44.231465" lon="11.622445"><ele>315.0</ele><time>2026-04-26T12:12:21.571Z</time></trkpt><trkpt lat="44.231565" lon="11.62246"><ele>312.2</ele><time>2026-04-26T12:12:22.568Z</time></trkpt><trkpt lat="44.23166" lon="11.62249"><ele>309.4</ele><time>2026-04-26T12:12:23.556Z</time></trkpt><trkpt lat="44.2317517" lon="11.62253"><ele>306.6</ele><time>2026-04-26T12:12:24.563Z</time></trkpt><trkpt lat="44.2318417" lon="11.622585"><ele>303.8</ele><time>2026-04-26T12:12:25.564Z</time></trkpt><trkpt lat="44.23193" lon="11.6226417"><ele>301.0</ele><time>2026-04-26T12:12:26.56Z</time></trkpt><trkpt lat="44.2320167" lon="11.62269"><ele>301.0</ele><time>2026-04-26T12:12:27.563Z</time></trkpt><trkpt lat="44.2321" lon="11.6227167"><ele>301.0</ele><time>2026-04-26T12:12:28.561Z</time></trkpt><trkpt lat="44.2321867" lon="11.62272"><ele>301.0</ele><time>2026-04-26T12:12:29.569Z</time></trkpt><trkpt lat="44.2322767" lon="11.6226917"><ele>301.0</ele><time>2026-04-26T12:12:30.554Z</time></trkpt><trkpt lat="44.2323567" lon="11.6226483"><ele>301.0</ele><time>2026-04-26T12:12:31.565Z</time></trkpt><trkpt lat="44.2324317" lon="11.62261"><ele>301.0</ele><time>2026-04-26T12:12:32.564Z</time></trkpt><trkpt lat="44.2325083" lon="11.62259"><ele>300.14285714285717</ele><time>2026-04-26T12:12:33.564Z</time></trkpt><trkpt lat="44.232575" lon="11.6225967"><ele>299.2857142857143</ele><time>2026-04-26T12:12:34.556Z</time></trkpt><trkpt lat="44.23263" lon="11.6226433"><ele>298.42857142857144</ele><time>2026-04-26T12:12:35.563Z</time></trkpt><trkpt lat="44.2326717" lon="11.6227167"><ele>297.57142857142856</ele><time>2026-04-26T12:12:36.569Z</time></trkpt><trkpt lat="44.2326883" lon="11.6228067"><ele>296.7142857142857</ele><time>2026-04-26T12:12:37.566Z</time></trkpt><trkpt lat="44.2326767" lon="11.6229033"><ele>295.8571428571429</ele><time>2026-04-26T12:12:38.566Z</time></trkpt><trkpt lat="44.2326367" lon="11.6229833"><ele>295.0</ele><time>2026-04-26T12:12:39.56Z</time></trkpt><trkpt lat="44.232575" lon="11.6230367"><ele>290.8</ele><time>2026-04-26T12:12:40.556Z</time></trkpt><trkpt lat="44.2324883" lon="11.6230533"><ele>286.6</ele><time>2026-04-26T12:12:41.562Z</time></trkpt><trkpt lat="44.2323867" lon="11.6230467"><ele>282.4</ele><time>2026-04-26T12:12:42.564Z</time></trkpt><trkpt lat="44.2322833" lon="11.6230317"><ele>278.2</ele><time>2026-04-26T12:12:43.563Z</time></trkpt><trkpt lat="44.23218" lon="11.6230083"><ele>274.0</ele><time>2026-04-26T12:12:44.553Z</time></trkpt><trkpt lat="44.2320783" lon="11.6229917"><ele>273.8</ele><time>2026-04-26T12:12:45.561Z</time></trkpt><trkpt lat="44.2319733" lon="11.62298"><ele>273.59999999999997</ele><time>2026-04-26T12:12:46.556Z</time></trkpt><trkpt lat="44.23187" lon="11.62298"><ele>273.4</ele><time>2026-04-26T12:12:47.57Z</time></trkpt><trkpt lat="44.2317617" lon="11.6229933"><ele>273.2</ele><time>2026-04-26T12:12:48.565Z</time></trkpt><trkpt lat="44.23165" lon="11.623015"><ele>273.0</ele><time>2026-04-26T12:12:49.559Z</time></trkpt><trkpt lat="44.2315383" lon="11.62304"><ele>274.2</ele><time>2026-04-26T12:12:50.558Z</time></trkpt><trkpt lat="44.2314317" lon="11.6230867"><ele>275.4</ele><time>2026-04-26T12:12:51.56Z</time></trkpt><trkpt lat="44.2313267" lon="11.6231467"><ele>276.59999999999997</ele><time>2026-04-26T12:12:52.561Z</time></trkpt><trkpt lat="44.231225" lon="11.6232117"><ele>277.8</ele><time>2026-04-26T12:12:53.562Z</time></trkpt><trkpt lat="44.231125" lon="11.6232767"><ele>279.0</ele><time>2026-04-26T12:12:54.564Z</time></trkpt><trkpt lat="44.2310267" lon="11.6233333"><ele>279.0</ele><time>2026-04-26T12:12:55.556Z</time></trkpt><trkpt lat="44.2309283" lon="11.6233867"><ele>279.0</ele><time>2026-04-26T12:12:56.584Z</time></trkpt><trkpt lat="44.23083" lon="11.623425"><ele>279.0</ele><time>2026-04-26T12:12:57.565Z</time></trkpt><trkpt lat="44.2307317" lon="11.62346"><ele>279.0</ele><time>2026-04-26T12:12:58.551Z</time></trkpt><trkpt lat="44.2306367" lon="11.6235017"><ele>279.0</ele><time>2026-04-26T12:12:59.559Z</time></trkpt><trkpt lat="44.2305483" lon="11.62355"><ele>280.2</ele><time>2026-04-26T12:13:00.564Z</time></trkpt><trkpt lat="44.23046" lon="11.6235933"><ele>281.4</ele><time>2026-04-26T12:13:01.566Z</time></trkpt><trkpt lat="44.2303733" lon="11.6236317"><ele>282.6</ele><time>2026-04-26T12:13:02.562Z</time></trkpt><trkpt lat="44.2302817" lon="11.62366"><ele>283.8</ele><time>2026-04-26T12:13:03.566Z</time></trkpt><trkpt lat="44.2301867" lon="11.6236833"><ele>285.0</ele><time>2026-04-26T12:13:04.557Z</time></trkpt><trkpt lat="44.230085" lon="11.6237117"><ele>280.4</ele><time>2026-04-26T12:13:05.581Z</time></trkpt><trkpt lat="44.22998" lon="11.6237517"><ele>275.8</ele><time>2026-04-26T12:13:06.567Z</time></trkpt><trkpt lat="44.22988" lon="11.6237967"><ele>271.2</ele><time>2026-04-26T12:13:07.565Z</time></trkpt><trkpt lat="44.2297917" lon="11.62385"><ele>266.6</ele><time>2026-04-26T12:13:08.564Z</time></trkpt><trkpt lat="44.2297133" lon="11.6239083"><ele>262.0</ele><time>2026-04-26T12:13:09.562Z</time></trkpt><trkpt lat="44.2296417" lon="11.6239767"><ele>262.0</ele><time>2026-04-26T12:13:10.554Z</time></trkpt><trkpt lat="44.2295767" lon="11.6240633"><ele>262.0</ele><time>2026-04-26T12:13:11.558Z</time></trkpt><trkpt lat="44.229515" lon="11.624145"><ele>262.0</ele><time>2026-04-26T12:13:12.561Z</time></trkpt><trkpt lat="44.2294483" lon="11.624215"><ele>262.0</ele><time>2026-04-26T12:13:13.567Z</time></trkpt><trkpt lat="44.22937" lon="11.6242633"><ele>262.0</ele><time>2026-04-26T12:13:14.558Z</time></trkpt><trkpt lat="44.22929" lon="11.6242867"><ele>262.0</ele><time>2026-04-26T12:13:15.561Z</time></trkpt><trkpt lat="44.2292067" lon="11.6242883"><ele>262.0</ele><time>2026-04-26T12:13:16.561Z</time></trkpt><trkpt lat="44.22913" lon="11.6242567"><ele>262.0</ele><time>2026-04-26T12:13:17.558Z</time></trkpt><trkpt lat="44.2290583" lon="11.6242"><ele>262.0</ele><time>2026-04-26T12:13:18.554Z</time></trkpt><trkpt lat="44.2289867" lon="11.6241117"><ele>262.0</ele><time>2026-04-26T12:13:19.567Z</time></trkpt><trkpt lat="44.22892" lon="11.6240017"><ele>262.0</ele><time>2026-04-26T12:13:20.559Z</time></trkpt><trkpt lat="44.2288533" lon="11.62388"><ele>261.5</ele><time>2026-04-26T12:13:21.562Z</time></trkpt><trkpt lat="44.2287883" lon="11.62375"><ele>261.0</ele><time>2026-04-26T12:13:22.564Z</time></trkpt><trkpt lat="44.22872" lon="11.623615"><ele>260.5</ele><time>2026-04-26T12:13:23.563Z</time></trkpt><trkpt lat="44.2286467" lon="11.6234783"><ele>260.0</ele><time>2026-04-26T12:13:24.557Z</time></trkpt><trkpt lat="44.2285617" lon="11.6233517"><ele>260.0</ele><time>2026-04-26T12:13:25.573Z</time></trkpt><trkpt lat="44.2284617" lon="11.6232367"><ele>260.0</ele><time>2026-04-26T12:13:26.589Z</time></trkpt><trkpt lat="44.2283633" lon="11.6231367"><ele>260.0</ele><time>2026-04-26T12:13:27.563Z</time></trkpt><trkpt lat="44.2282633" lon="11.6230417"><ele>260.0</ele><time>2026-04-26T12:13:28.554Z</time></trkpt><trkpt lat="44.2281667" lon="11.622945"><ele>257.8</ele><time>2026-04-26T12:13:29.552Z</time></trkpt><trkpt lat="44.2280783" lon="11.622855"><ele>255.6</ele><time>2026-04-26T12:13:30.555Z</time></trkpt><trkpt lat="44.2279917" lon="11.6227833"><ele>253.39999999999998</ele><time>2026-04-26T12:13:31.56Z</time></trkpt><trkpt lat="44.227905" lon="11.62274"><ele>251.2</ele><time>2026-04-26T12:13:32.549Z</time></trkpt><trkpt lat="44.2278183" lon="11.6227283"><ele>249.0</ele><time>2026-04-26T12:13:33.568Z</time></trkpt><trkpt lat="44.22773" lon="11.6227517"><ele>249.0</ele><time>2026-04-26T12:13:34.557Z</time></trkpt><trkpt lat="44.22765" lon="11.6228033"><ele>249.0</ele><time>2026-04-26T12:13:35.559Z</time></trkpt><trkpt lat="44.227575" lon="11.622865"><ele>249.0</ele><time>2026-04-26T12:13:36.573Z</time></trkpt><trkpt lat="44.2275017" lon="11.6229267"><ele>249.0</ele><time>2026-04-26T12:13:37.563Z</time></trkpt><trkpt lat="44.2274283" lon="11.62299"><ele>249.0</ele><time>2026-04-26T12:13:38.57Z</time></trkpt><trkpt lat="44.2273633" lon="11.6230667"><ele>249.0</ele><time>2026-04-26T12:13:39.56Z</time></trkpt><trkpt lat="44.2273067" lon="11.6231483"><ele>248.0</ele><time>2026-04-26T12:13:40.563Z</time></trkpt><trkpt lat="44.2272633" lon="11.62324"><ele>247.0</ele><time>2026-04-26T12:13:41.568Z</time></trkpt><trkpt lat="44.2272433" lon="11.6233433"><ele>246.0</ele><time>2026-04-26T12:13:42.561Z</time></trkpt><trkpt lat="44.2272417" lon="11.6234533"><ele>245.0</ele><time>2026-04-26T12:13:43.565Z</time></trkpt><trkpt lat="44.2272583" lon="11.6235733"><ele>244.0</ele><time>2026-04-26T12:13:44.559Z</time></trkpt><trkpt lat="44.227295" lon="11.6237"><ele>243.0</ele><time>2026-04-26T12:13:45.562Z</time></trkpt><trkpt lat="44.227355" lon="11.6238217"><ele>242.60000000000002</ele><time>2026-04-26T12:13:46.571Z</time></trkpt><trkpt lat="44.2274267" lon="11.6239317"><ele>242.20000000000002</ele><time>2026-04-26T12:13:47.563Z</time></trkpt><trkpt lat="44.2275133" lon="11.6240283"><ele>241.8</ele><time>2026-04-26T12:13:48.571Z</time></trkpt><trkpt lat="44.227605" lon="11.6241217"><ele>241.4</ele><time>2026-04-26T12:13:49.557Z</time></trkpt><trkpt lat="44.2277" lon="11.624215"><ele>241.0</ele><time>2026-04-26T12:13:50.56Z</time></trkpt><trkpt lat="44.2277967" lon="11.6243067"><ele>241.0</ele><time>2026-04-26T12:13:51.559Z</time></trkpt><trkpt lat="44.2278967" lon="11.6243983"><ele>241.0</ele><time>2026-04-26T12:13:52.557Z</time></trkpt><trkpt lat="44.2279933" lon="11.62449"><ele>241.0</ele><time>2026-04-26T12:13:53.558Z</time></trkpt><trkpt lat="44.2280933" lon="11.6245833"><ele>241.0</ele><time>2026-04-26T12:13:54.572Z</time></trkpt><trkpt lat="44.228195" lon="11.6246833"><ele>240.25</ele><time>2026-04-26T12:13:55.572Z</time></trkpt><trkpt lat="44.2282983" lon="11.624785"><ele>239.5</ele><time>2026-04-26T12:13:56.573Z</time></trkpt><trkpt lat="44.228405" lon="11.6248883"><ele>238.75</ele><time>2026-04-26T12:13:57.562Z</time></trkpt><trkpt lat="44.2285167" lon="11.6249933"><ele>238.0</ele><time>2026-04-26T12:13:58.551Z</time></trkpt><trkpt lat="44.228635" lon="11.6250967"><ele>238.0</ele><time>2026-04-26T12:13:59.551Z</time></trkpt><trkpt lat="44.2287533" lon="11.6252017"><ele>238.0</ele><time>2026-04-26T12:14:00.557Z</time></trkpt><trkpt lat="44.228865" lon="11.62531"><ele>238.0</ele><time>2026-04-26T12:14:01.566Z</time></trkpt><trkpt lat="44.2289733" lon="11.6254183"><ele>238.0</ele><time>2026-04-26T12:14:02.568Z</time></trkpt><trkpt lat="44.2290783" lon="11.6255183"><ele>236.0</ele><time>2026-04-26T12:14:03.566Z</time></trkpt><trkpt lat="44.2291767" lon="11.6256183"><ele>234.0</ele><time>2026-04-26T12:14:04.565Z</time></trkpt><trkpt lat="44.2292783" lon="11.6257067"><ele>232.0</ele><time>2026-04-26T12:14:05.555Z</time></trkpt><trkpt lat="44.2293817" lon="11.6257817"><ele>230.0</ele><time>2026-04-26T12:14:06.559Z</time></trkpt><trkpt lat="44.2294833" lon="11.62585"><ele>230.0</ele><time>2026-04-26T12:14:07.562Z</time></trkpt><trkpt lat="44.22958" lon="11.625915"><ele>230.0</ele><time>2026-04-26T12:14:08.554Z</time></trkpt><trkpt lat="44.2296817" lon="11.6259733"><ele>230.0</ele><time>2026-04-26T12:14:09.569Z</time></trkpt><trkpt lat="44.2297783" lon="11.6260333"><ele>230.0</ele><time>2026-04-26T12:14:10.563Z</time></trkpt><trkpt lat="44.229875" lon="11.6260883"><ele>230.0</ele><time>2026-04-26T12:14:11.56Z</time></trkpt><trkpt lat="44.2299683" lon="11.6261567"><ele>228.6</ele><time>2026-04-26T12:14:12.574Z</time></trkpt><trkpt lat="44.2300533" lon="11.6262483"><ele>227.2</ele><time>2026-04-26T12:14:13.558Z</time></trkpt><trkpt lat="44.2301067" lon="11.6263617"><ele>225.8</ele><time>2026-04-26T12:14:14.562Z</time></trkpt><trkpt lat="44.230145" lon="11.626495"><ele>224.4</ele><time>2026-04-26T12:14:15.548Z</time></trkpt><trkpt lat="44.2301483" lon="11.626635"><ele>223.0</ele><time>2026-04-26T12:14:16.565Z</time></trkpt><trkpt lat="44.2301217" lon="11.6267783"><ele>223.0</ele><time>2026-04-26T12:14:17.557Z</time></trkpt><trkpt lat="44.2300817" lon="11.6269233"><ele>223.0</ele><time>2026-04-26T12:14:18.559Z</time></trkpt><trkpt lat="44.2300367" lon="11.6270733"><ele>223.0</ele><time>2026-04-26T12:14:19.566Z</time></trkpt><trkpt lat="44.229985" lon="11.627235"><ele>223.0</ele><time>2026-04-26T12:14:20.567Z</time></trkpt><trkpt lat="44.22993" lon="11.6273983"><ele>221.75</ele><time>2026-04-26T12:14:21.561Z</time></trkpt><trkpt lat="44.2298783" lon="11.6275583"><ele>220.5</ele><time>2026-04-26T12:14:22.557Z</time></trkpt><trkpt lat="44.2298283" lon="11.6277167"><ele>219.25</ele><time>2026-04-26T12:14:23.557Z</time></trkpt><trkpt lat="44.229775" lon="11.62787"><ele>218.0</ele><time>2026-04-26T12:14:24.56Z</time></trkpt><trkpt lat="44.22973" lon="11.6280117"><ele>217.2</ele><time>2026-04-26T12:14:25.564Z</time></trkpt><trkpt lat="44.2296917" lon="11.6281483"><ele>216.4</ele><time>2026-04-26T12:14:26.553Z</time></trkpt><trkpt lat="44.2296717" lon="11.6282883"><ele>215.59999999999997</ele><time>2026-04-26T12:14:27.565Z</time></trkpt><trkpt lat="44.2296667" lon="11.6284267"><ele>214.79999999999998</ele><time>2026-04-26T12:14:28.561Z</time></trkpt><trkpt lat="44.2296917" lon="11.6285583"><ele>214.0</ele><time>2026-04-26T12:14:29.552Z</time></trkpt><trkpt lat="44.2297417" lon="11.6286817"><ele>212.6</ele><time>2026-04-26T12:14:30.555Z</time></trkpt><trkpt lat="44.2298067" lon="11.6288"><ele>211.2</ele><time>2026-04-26T12:14:31.557Z</time></trkpt><trkpt lat="44.22988" lon="11.6289067"><ele>209.79999999999998</ele><time>2026-04-26T12:14:32.553Z</time></trkpt><trkpt lat="44.229955" lon="11.6290117"><ele>208.39999999999998</ele><time>2026-04-26T12:14:33.563Z</time></trkpt><trkpt lat="44.2300267" lon="11.6291167"><ele>207.0</ele><time>2026-04-26T12:14:34.556Z</time></trkpt><trkpt lat="44.2300983" lon="11.6292167"><ele>207.0</ele><time>2026-04-26T12:14:35.56Z</time></trkpt><trkpt lat="44.230165" lon="11.62932"><ele>207.0</ele><time>2026-04-26T12:14:36.558Z</time></trkpt><trkpt lat="44.230225" lon="11.6294317"><ele>207.0</ele><time>2026-04-26T12:14:37.563Z</time></trkpt><trkpt lat="44.2302733" lon="11.62955"><ele>207.0</ele><time>2026-04-26T12:14:38.561Z</time></trkpt><trkpt lat="44.2303067" lon="11.629675"><ele>207.0</ele><time>2026-04-26T12:14:39.559Z</time></trkpt><trkpt lat="44.2303367" lon="11.62981"><ele>205.6</ele><time>2026-04-26T12:14:40.56Z</time></trkpt><trkpt lat="44.2303717" lon="11.6299483"><ele>204.2</ele><time>2026-04-26T12:14:41.56Z</time></trkpt><trkpt lat="44.230405" lon="11.6300883"><ele>202.8</ele><time>2026-04-26T12:14:42.557Z</time></trkpt><trkpt lat="44.2304383" lon="11.6302283"><ele>201.4</ele><time>2026-04-26T12:14:43.557Z</time></trkpt><trkpt lat="44.2304667" lon="11.6303683"><ele>200.0</ele><time>2026-04-26T12:14:44.556Z</time></trkpt><trkpt lat="44.2304883" lon="11.6305083"><ele>198.8</ele><time>2026-04-26T12:14:45.553Z</time></trkpt><trkpt lat="44.2304983" lon="11.630655"><ele>197.6</ele><time>2026-04-26T12:14:46.562Z</time></trkpt><trkpt lat="44.2304983" lon="11.6308017"><ele>196.39999999999998</ele><time>2026-04-26T12:14:47.556Z</time></trkpt><trkpt lat="44.2304833" lon="11.6309483"><ele>195.2</ele><time>2026-04-26T12:14:48.575Z</time></trkpt><trkpt lat="44.2304583" lon="11.6310883"><ele>194.0</ele><time>2026-04-26T12:14:49.565Z</time></trkpt><trkpt lat="44.23043" lon="11.631225"><ele>193.66666666666669</ele><time>2026-04-26T12:14:50.56Z</time></trkpt><trkpt lat="44.2303917" lon="11.6313533"><ele>193.33333333333334</ele><time>2026-04-26T12:14:51.554Z</time></trkpt><trkpt lat="44.2303467" lon="11.6314683"><ele>193.0</ele><time>2026-04-26T12:14:52.57Z</time></trkpt><trkpt lat="44.2302983" lon="11.6315617"><ele>192.66666666666669</ele><time>2026-04-26T12:14:53.556Z</time></trkpt><trkpt lat="44.23024" lon="11.63163"><ele>192.33333333333334</ele><time>2026-04-26T12:14:54.572Z</time></trkpt><trkpt lat="44.230175" lon="11.6316583"><ele>192.0</ele><time>2026-04-26T12:14:55.561Z</time></trkpt><trkpt lat="44.2300483" lon="11.63164"><ele>192.0</ele><time>2026-04-26T12:14:57.552Z</time></trkpt><trkpt lat="44.2299783" lon="11.6315917"><ele>192.0</ele><time>2026-04-26T12:14:58.564Z</time></trkpt><trkpt lat="44.2299167" lon="11.6315217"><ele>192.0</ele><time>2026-04-26T12:14:59.554Z</time></trkpt><trkpt lat="44.2298533" lon="11.6314417"><ele>192.0</ele><time>2026-04-26T12:15:00.556Z</time></trkpt><trkpt lat="44.2297833" lon="11.63136"><ele>192.0</ele><time>2026-04-26T12:15:01.564Z</time></trkpt><trkpt lat="44.2296983" lon="11.631275"><ele>192.0</ele><time>2026-04-26T12:15:02.569Z</time></trkpt><trkpt lat="44.2296067" lon="11.63118"><ele>192.5</ele><time>2026-04-26T12:15:03.565Z</time></trkpt><trkpt lat="44.2295117" lon="11.6310833"><ele>193.0</ele><time>2026-04-26T12:15:04.561Z</time></trkpt><trkpt lat="44.2294183" lon="11.63098"><ele>193.5</ele><time>2026-04-26T12:15:05.568Z</time></trkpt><trkpt lat="44.229325" lon="11.6308767"><ele>194.0</ele><time>2026-04-26T12:15:06.575Z</time></trkpt><trkpt lat="44.2292333" lon="11.6307733"><ele>194.0</ele><time>2026-04-26T12:15:07.558Z</time></trkpt><trkpt lat="44.2291333" lon="11.6306667"><ele>194.0</ele><time>2026-04-26T12:15:08.559Z</time></trkpt><trkpt lat="44.22904" lon="11.6305617"><ele>194.0</ele><time>2026-04-26T12:15:09.561Z</time></trkpt><trkpt lat="44.22894" lon="11.6304583"><ele>194.0</ele><time>2026-04-26T12:15:10.56Z</time></trkpt><trkpt lat="44.2288383" lon="11.630355"><ele>193.75</ele><time>2026-04-26T12:15:11.564Z</time></trkpt><trkpt lat="44.2287333" lon="11.6302533"><ele>193.5</ele><time>2026-04-26T12:15:12.565Z</time></trkpt><trkpt lat="44.228625" lon="11.6301517"><ele>193.25</ele><time>2026-04-26T12:15:13.564Z</time></trkpt><trkpt lat="44.2285217" lon="11.6300483"><ele>193.0</ele><time>2026-04-26T12:15:14.567Z</time></trkpt><trkpt lat="44.22842" lon="11.6299433"><ele>193.0</ele><time>2026-04-26T12:15:15.552Z</time></trkpt><trkpt lat="44.2283167" lon="11.6298367"><ele>193.0</ele><time>2026-04-26T12:15:16.556Z</time></trkpt><trkpt lat="44.228215" lon="11.6297267"><ele>193.0</ele><time>2026-04-26T12:15:17.55Z</time></trkpt><trkpt lat="44.228115" lon="11.6296133"><ele>193.0</ele><time>2026-04-26T12:15:18.557Z</time></trkpt><trkpt lat="44.228015" lon="11.6295"><ele>193.75</ele><time>2026-04-26T12:15:19.562Z</time></trkpt><trkpt lat="44.2279133" lon="11.6293867"><ele>194.5</ele><time>2026-04-26T12:15:20.567Z</time></trkpt><trkpt lat="44.2278167" lon="11.6292733"><ele>195.25</ele><time>2026-04-26T12:15:21.558Z</time></trkpt><trkpt lat="44.2277167" lon="11.6291633"><ele>196.0</ele><time>2026-04-26T12:15:22.565Z</time></trkpt><trkpt lat="44.227615" lon="11.6290583"><ele>196.0</ele><time>2026-04-26T12:15:23.561Z</time></trkpt><trkpt lat="44.227515" lon="11.6289533"><ele>196.0</ele><time>2026-04-26T12:15:24.557Z</time></trkpt><trkpt lat="44.2274167" lon="11.6288533"><ele>196.0</ele><time>2026-04-26T12:15:25.556Z</time></trkpt><trkpt lat="44.2273217" lon="11.6287533"><ele>196.0</ele><time>2026-04-26T12:15:26.563Z</time></trkpt><trkpt lat="44.2272283" lon="11.62865"><ele>196.25</ele><time>2026-04-26T12:15:27.551Z</time></trkpt><trkpt lat="44.22713" lon="11.628545"><ele>196.5</ele><time>2026-04-26T12:15:28.562Z</time></trkpt><trkpt lat="44.2270367" lon="11.6284433"><ele>196.75</ele><time>2026-04-26T12:15:29.556Z</time></trkpt><trkpt lat="44.2269417" lon="11.6283383"><ele>197.0</ele><time>2026-04-26T12:15:30.57Z</time></trkpt><trkpt lat="44.2268533" lon="11.6282467"><ele>197.0</ele><time>2026-04-26T12:15:31.554Z</time></trkpt><trkpt lat="44.2267767" lon="11.6281733"><ele>197.0</ele><time>2026-04-26T12:15:32.555Z</time></trkpt><trkpt lat="44.2267083" lon="11.62812"><ele>197.0</ele><time>2026-04-26T12:15:33.558Z</time></trkpt><trkpt lat="44.2266083" lon="11.6281"><ele>197.0</ele><time>2026-04-26T12:15:35.565Z</time></trkpt><trkpt lat="44.2265467" lon="11.62822"><ele>197.0</ele><time>2026-04-26T12:15:37.555Z</time></trkpt><trkpt lat="44.2265083" lon="11.6283217"><ele>196.00000000000003</ele><time>2026-04-26T12:15:38.575Z</time></trkpt><trkpt lat="44.2264667" lon="11.628435"><ele>195.0</ele><time>2026-04-26T12:15:39.566Z</time></trkpt><trkpt lat="44.22642" lon="11.62855"><ele>194.0</ele><time>2026-04-26T12:15:40.57Z</time></trkpt><trkpt lat="44.2263667" lon="11.6286517"><ele>193.0</ele><time>2026-04-26T12:15:41.558Z</time></trkpt><trkpt lat="44.226315" lon="11.628745"><ele>192.0</ele><time>2026-04-26T12:15:42.565Z</time></trkpt><trkpt lat="44.2262567" lon="11.6288317"><ele>191.0</ele><time>2026-04-26T12:15:43.578Z</time></trkpt><trkpt lat="44.2261917" lon="11.628905"><ele>191.0</ele><time>2026-04-26T12:15:44.555Z</time></trkpt><trkpt lat="44.226125" lon="11.6289717"><ele>191.0</ele><time>2026-04-26T12:15:45.56Z</time></trkpt><trkpt lat="44.2260517" lon="11.62903"><ele>191.0</ele><time>2026-04-26T12:15:46.551Z</time></trkpt><trkpt lat="44.2259783" lon="11.6290867"><ele>191.0</ele><time>2026-04-26T12:15:47.555Z</time></trkpt><trkpt lat="44.2259033" lon="11.6291417"><ele>191.0</ele><time>2026-04-26T12:15:48.554Z</time></trkpt><trkpt lat="44.2258317" lon="11.6291967"><ele>191.0</ele><time>2026-04-26T12:15:49.546Z</time></trkpt><trkpt lat="44.2257617" lon="11.6292533"><ele>191.0</ele><time>2026-04-26T12:15:50.542Z</time></trkpt><trkpt lat="44.2256967" lon="11.6293117"><ele>191.0</ele><time>2026-04-26T12:15:51.561Z</time></trkpt><trkpt lat="44.2256333" lon="11.62936"><ele>191.0</ele><time>2026-04-26T12:15:52.56Z</time></trkpt><trkpt lat="44.2255683" lon="11.6294083"><ele>191.0</ele><time>2026-04-26T12:15:53.563Z</time></trkpt><trkpt lat="44.225505" lon="11.629455"><ele>191.0</ele><time>2026-04-26T12:15:54.556Z</time></trkpt><trkpt lat="44.2254417" lon="11.6294983"><ele>191.0</ele><time>2026-04-26T12:15:55.559Z</time></trkpt><trkpt lat="44.2253783" lon="11.6295417"><ele>191.0</ele><time>2026-04-26T12:15:56.567Z</time></trkpt><trkpt lat="44.2253183" lon="11.6295933"><ele>188.2857142857143</ele><time>2026-04-26T12:15:57.563Z</time></trkpt><trkpt lat="44.225265" lon="11.6296517"><ele>185.57142857142856</ele><time>2026-04-26T12:15:58.563Z</time></trkpt><trkpt lat="44.22522" lon="11.629715"><ele>182.85714285714286</ele><time>2026-04-26T12:15:59.561Z</time></trkpt><trkpt lat="44.2251917" lon="11.6297967"><ele>180.14285714285717</ele><time>2026-04-26T12:16:00.564Z</time></trkpt><trkpt lat="44.22518" lon="11.6298883"><ele>177.42857142857144</ele><time>2026-04-26T12:16:01.567Z</time></trkpt><trkpt lat="44.2251783" lon="11.6299833"><ele>174.71428571428572</ele><time>2026-04-26T12:16:02.563Z</time></trkpt><trkpt lat="44.225175" lon="11.63008"><ele>172.0</ele><time>2026-04-26T12:16:03.561Z</time></trkpt><trkpt lat="44.2251767" lon="11.6301783"><ele>172.00000000000003</ele><time>2026-04-26T12:16:04.557Z</time></trkpt><trkpt lat="44.225185" lon="11.63027"><ele>172.0</ele><time>2026-04-26T12:16:05.565Z</time></trkpt><trkpt lat="44.2252083" lon="11.6303617"><ele>172.0</ele><time>2026-04-26T12:16:06.578Z</time></trkpt><trkpt lat="44.2252367" lon="11.6304533"><ele>172.0</ele><time>2026-04-26T12:16:07.566Z</time></trkpt><trkpt lat="44.2252667" lon="11.6305383"><ele>172.0</ele><time>2026-04-26T12:16:08.559Z</time></trkpt><trkpt lat="44.2253" lon="11.6306217"><ele>172.00000000000003</ele><time>2026-04-26T12:16:09.558Z</time></trkpt><trkpt lat="44.2253367" lon="11.6307083"><ele>172.0</ele><time>2026-04-26T12:16:10.564Z</time></trkpt><trkpt lat="44.225375" lon="11.630795"><ele>171.42857142857144</ele><time>2026-04-26T12:16:11.543Z</time></trkpt><trkpt lat="44.2254133" lon="11.630885"><ele>170.85714285714286</ele><time>2026-04-26T12:16:12.551Z</time></trkpt><trkpt lat="44.2254533" lon="11.6309717"><ele>170.28571428571428</ele><time>2026-04-26T12:16:13.56Z</time></trkpt><trkpt lat="44.2254933" lon="11.6310533"><ele>169.71428571428572</ele><time>2026-04-26T12:16:14.565Z</time></trkpt><trkpt lat="44.2255383" lon="11.6311283"><ele>169.14285714285714</ele><time>2026-04-26T12:16:15.566Z</time></trkpt><trkpt lat="44.225585" lon="11.6311983"><ele>168.57142857142858</ele><time>2026-04-26T12:16:16.558Z</time></trkpt><trkpt lat="44.2256333" lon="11.6312633"><ele>168.0</ele><time>2026-04-26T12:16:17.55Z</time></trkpt><trkpt lat="44.2256917" lon="11.6313283"><ele>168.0</ele><time>2026-04-26T12:16:18.559Z</time></trkpt><trkpt lat="44.22576" lon="11.6313867"><ele>168.0</ele><time>2026-04-26T12:16:19.567Z</time></trkpt><trkpt lat="44.2258367" lon="11.63143"><ele>168.0</ele><time>2026-04-26T12:16:20.551Z</time></trkpt><trkpt lat="44.225915" lon="11.631455"><ele>168.0</ele><time>2026-04-26T12:16:21.563Z</time></trkpt><trkpt lat="44.225995" lon="11.6314867"><ele>168.0</ele><time>2026-04-26T12:16:22.568Z</time></trkpt><trkpt lat="44.22608" lon="11.6315183"><ele>168.0</ele><time>2026-04-26T12:16:23.56Z</time></trkpt><trkpt lat="44.2261717" lon="11.6315483"><ele>168.0</ele><time>2026-04-26T12:16:24.559Z</time></trkpt><trkpt lat="44.2262633" lon="11.6315783"><ele>168.0</ele><time>2026-04-26T12:16:25.552Z</time></trkpt><trkpt lat="44.2263567" lon="11.6316083"><ele>168.0</ele><time>2026-04-26T12:16:26.555Z</time></trkpt><trkpt lat="44.2264533" lon="11.6316383"><ele>168.0</ele><time>2026-04-26T12:16:27.562Z</time></trkpt><trkpt lat="44.2265517" lon="11.63167"><ele>168.0</ele><time>2026-04-26T12:16:28.564Z</time></trkpt><trkpt lat="44.226645" lon="11.6317033"><ele>168.83333333333334</ele><time>2026-04-26T12:16:29.563Z</time></trkpt><trkpt lat="44.2267333" lon="11.631735"><ele>169.66666666666666</ele><time>2026-04-26T12:16:30.552Z</time></trkpt><trkpt lat="44.2268233" lon="11.631765"><ele>170.5</ele><time>2026-04-26T12:16:31.558Z</time></trkpt><trkpt lat="44.226915" lon="11.6317817"><ele>171.33333333333331</ele><time>2026-04-26T12:16:32.562Z</time></trkpt><trkpt lat="44.2269833" lon="11.6318083"><ele>172.16666666666666</ele><time>2026-04-26T12:16:33.559Z</time></trkpt><trkpt lat="44.2270367" lon="11.631855"><ele>173.0</ele><time>2026-04-26T12:16:34.556Z</time></trkpt><trkpt lat="44.2270783" lon="11.6319917"><ele>170.33333333333331</ele><time>2026-04-26T12:16:36.566Z</time></trkpt><trkpt lat="44.2270833" lon="11.6321367"><ele>167.66666666666666</ele><time>2026-04-26T12:16:38.567Z</time></trkpt><trkpt lat="44.2271" lon="11.6322533"><ele>165.0</ele><time>2026-04-26T12:16:40.567Z</time></trkpt><trkpt lat="44.22711" lon="11.6323533"><ele>162.33333333333334</ele><time>2026-04-26T12:16:42.555Z</time></trkpt><trkpt lat="44.2271167" lon="11.6324683"><ele>159.66666666666669</ele><time>2026-04-26T12:16:44.559Z</time></trkpt><trkpt lat="44.2271333" lon="11.6326117"><ele>157.0</ele><time>2026-04-26T12:16:46.563Z</time></trkpt><trkpt lat="44.227155" lon="11.632755"><ele>160.2</ele><time>2026-04-26T12:16:48.553Z</time></trkpt><trkpt lat="44.2271717" lon="11.6328917"><ele>163.39999999999998</ele><time>2026-04-26T12:16:50.557Z</time></trkpt><trkpt lat="44.2271817" lon="11.6330317"><ele>166.60000000000002</ele><time>2026-04-26T12:16:52.564Z</time></trkpt><trkpt lat="44.2271817" lon="11.6331817"><ele>169.8</ele><time>2026-04-26T12:16:54.543Z</time></trkpt><trkpt lat="44.2271783" lon="11.6333383"><ele>173.0</ele><time>2026-04-26T12:16:56.563Z</time></trkpt><trkpt lat="44.22716" lon="11.6334917"><ele>174.8</ele><time>2026-04-26T12:16:58.564Z</time></trkpt><trkpt lat="44.227135" lon="11.6336483"><ele>176.60000000000002</ele><time>2026-04-26T12:17:00.569Z</time></trkpt><trkpt lat="44.2271017" lon="11.6338083"><ele>178.39999999999998</ele><time>2026-04-26T12:17:02.559Z</time></trkpt><trkpt lat="44.227065" lon="11.63395"><ele>180.2</ele><time>2026-04-26T12:17:04.558Z</time></trkpt><trkpt lat="44.227005" lon="11.6340583"><ele>182.0</ele><time>2026-04-26T12:17:06.558Z</time></trkpt><trkpt lat="44.2269183" lon="11.6340983"><ele>182.0</ele><time>2026-04-26T12:17:08.558Z</time></trkpt><trkpt lat="44.226835" lon="11.6340233"><ele>182.0</ele><time>2026-04-26T12:17:10.575Z</time></trkpt><trkpt lat="44.2268083" lon="11.633845"><ele>182.0</ele><time>2026-04-26T12:17:12.564Z</time></trkpt><trkpt lat="44.2268267" lon="11.63374"><ele>182.0</ele><time>2026-04-26T12:17:13.571Z</time></trkpt><trkpt lat="44.2268717" lon="11.63364"><ele>182.0</ele><time>2026-04-26T12:17:14.551Z</time></trkpt><trkpt lat="44.2269167" lon="11.6335517"><ele>180.71428571428572</ele><time>2026-04-26T12:17:15.563Z</time></trkpt><trkpt lat="44.2269533" lon="11.6334617"><ele>179.42857142857144</ele><time>2026-04-26T12:17:16.557Z</time></trkpt><trkpt lat="44.2269767" lon="11.63337"><ele>178.14285714285714</ele><time>2026-04-26T12:17:17.56Z</time></trkpt><trkpt lat="44.2269783" lon="11.63328"><ele>176.85714285714286</ele><time>2026-04-26T12:17:18.553Z</time></trkpt><trkpt lat="44.2269433" lon="11.6332033"><ele>175.57142857142858</ele><time>2026-04-26T12:17:19.563Z</time></trkpt><trkpt lat="44.226895" lon="11.6331417"><ele>174.28571428571428</ele><time>2026-04-26T12:17:20.555Z</time></trkpt><trkpt lat="44.2268317" lon="11.633105"><ele>173.0</ele><time>2026-04-26T12:17:21.556Z</time></trkpt><trkpt lat="44.226765" lon="11.6331167"><ele>173.0</ele><time>2026-04-26T12:17:22.555Z</time></trkpt><trkpt lat="44.2267083" lon="11.6331567"><ele>173.0</ele><time>2026-04-26T12:17:23.566Z</time></trkpt><trkpt lat="44.2266567" lon="11.6332333"><ele>173.0</ele><time>2026-04-26T12:17:24.56Z</time></trkpt><trkpt lat="44.2266217" lon="11.6333517"><ele>173.0</ele><time>2026-04-26T12:17:25.57Z</time></trkpt><trkpt lat="44.2265967" lon="11.6334917"><ele>173.0</ele><time>2026-04-26T12:17:26.554Z</time></trkpt><trkpt lat="44.2265767" lon="11.63363"><ele>173.0</ele><time>2026-04-26T12:17:27.576Z</time></trkpt><trkpt lat="44.2265583" lon="11.633765"><ele>174.5</ele><time>2026-04-26T12:17:28.551Z</time></trkpt><trkpt lat="44.226545" lon="11.6338917"><ele>176.0</ele><time>2026-04-26T12:17:29.558Z</time></trkpt><trkpt lat="44.22655" lon="11.63401"><ele>177.5</ele><time>2026-04-26T12:17:30.561Z</time></trkpt><trkpt lat="44.2265667" lon="11.6341183"><ele>179.0</ele><time>2026-04-26T12:17:31.55Z</time></trkpt><trkpt lat="44.2266067" lon="11.63421"><ele>180.5</ele><time>2026-04-26T12:17:32.535Z</time></trkpt><trkpt lat="44.226665" lon="11.634285"><ele>182.0</ele><time>2026-04-26T12:17:33.56Z</time></trkpt><trkpt lat="44.226705" lon="11.6343567"><ele>182.0</ele><time>2026-04-26T12:17:34.567Z</time></trkpt><trkpt lat="44.2267383" lon="11.6344417"><ele>182.0</ele><time>2026-04-26T12:17:35.567Z</time></trkpt><trkpt lat="44.2267383" lon="11.634535"><ele>182.0</ele><time>2026-04-26T12:17:36.553Z</time></trkpt><trkpt lat="44.2267183" lon="11.6346217"><ele>182.0</ele><time>2026-04-26T12:17:37.56Z</time></trkpt><trkpt lat="44.2266183" lon="11.6347117"><ele>182.0</ele><time>2026-04-26T12:17:39.553Z</time></trkpt><trkpt lat="44.226515" lon="11.6346517"><ele>182.0</ele><time>2026-04-26T12:17:41.557Z</time></trkpt><trkpt lat="44.2264733" lon="11.6345667"><ele>185.5</ele><time>2026-04-26T12:17:42.557Z</time></trkpt><trkpt lat="44.2264483" lon="11.6344683"><ele>189.0</ele><time>2026-04-26T12:17:43.557Z</time></trkpt><trkpt lat="44.2264233" lon="11.6343567"><ele>192.5</ele><time>2026-04-26T12:17:44.554Z</time></trkpt><trkpt lat="44.2264067" lon="11.63423"><ele>196.0</ele><time>2026-04-26T12:17:45.563Z</time></trkpt><trkpt lat="44.2263867" lon="11.6341017"><ele>199.50000000000003</ele><time>2026-04-26T12:17:46.555Z</time></trkpt><trkpt lat="44.2263717" lon="11.633975"><ele>203.0</ele><time>2026-04-26T12:17:47.557Z</time></trkpt><trkpt lat="44.2263583" lon="11.6338533"><ele>203.0</ele><time>2026-04-26T12:17:48.553Z</time></trkpt><trkpt lat="44.22635" lon="11.6337333"><ele>203.0</ele><time>2026-04-26T12:17:49.558Z</time></trkpt><trkpt lat="44.2263417" lon="11.6336283"><ele>203.0</ele><time>2026-04-26T12:17:50.558Z</time></trkpt><trkpt lat="44.2263233" lon="11.6335333"><ele>203.0</ele><time>2026-04-26T12:17:51.566Z</time></trkpt><trkpt lat="44.2262883" lon="11.6334517"><ele>203.0</ele><time>2026-04-26T12:17:52.559Z</time></trkpt><trkpt lat="44.2262383" lon="11.6333883"><ele>203.0</ele><time>2026-04-26T12:17:53.559Z</time></trkpt><trkpt lat="44.2261683" lon="11.6333967"><ele>203.0</ele><time>2026-04-26T12:17:54.554Z</time></trkpt><trkpt lat="44.22611" lon="11.63346"><ele>203.00000000000003</ele><time>2026-04-26T12:17:55.58Z</time></trkpt><trkpt lat="44.2260583" lon="11.6335483"><ele>203.0</ele><time>2026-04-26T12:17:56.562Z</time></trkpt><trkpt lat="44.2260217" lon="11.6336433"><ele>203.0</ele><time>2026-04-26T12:17:57.568Z</time></trkpt><trkpt lat="44.2260083" lon="11.63375"><ele>203.0</ele><time>2026-04-26T12:17:58.564Z</time></trkpt><trkpt lat="44.2260217" lon="11.6338683"><ele>203.00000000000003</ele><time>2026-04-26T12:17:59.552Z</time></trkpt><trkpt lat="44.2260433" lon="11.63399"><ele>203.0</ele><time>2026-04-26T12:18:00.562Z</time></trkpt><trkpt lat="44.2260667" lon="11.6341133"><ele>203.0</ele><time>2026-04-26T12:18:01.561Z</time></trkpt><trkpt lat="44.2260833" lon="11.63424"><ele>203.0</ele><time>2026-04-26T12:18:02.559Z</time></trkpt><trkpt lat="44.2260983" lon="11.634375"><ele>203.0</ele><time>2026-04-26T12:18:03.547Z</time></trkpt><trkpt lat="44.2261033" lon="11.6345183"><ele>203.0</ele><time>2026-04-26T12:18:04.563Z</time></trkpt><trkpt lat="44.2261083" lon="11.6346683"><ele>203.0</ele><time>2026-04-26T12:18:05.556Z</time></trkpt><trkpt lat="44.2261167" lon="11.634825"><ele>203.75</ele><time>2026-04-26T12:18:06.557Z</time></trkpt><trkpt lat="44.2261267" lon="11.6349833"><ele>204.5</ele><time>2026-04-26T12:18:07.558Z</time></trkpt><trkpt lat="44.226135" lon="11.6351383"><ele>205.25</ele><time>2026-04-26T12:18:08.556Z</time></trkpt><trkpt lat="44.2261417" lon="11.635295"><ele>206.0</ele><time>2026-04-26T12:18:09.562Z</time></trkpt><trkpt lat="44.22615" lon="11.635455"><ele>208.25</ele><time>2026-04-26T12:18:10.551Z</time></trkpt><trkpt lat="44.22616" lon="11.635615"><ele>210.5</ele><time>2026-04-26T12:18:11.554Z</time></trkpt><trkpt lat="44.2261683" lon="11.6357783"><ele>212.75</ele><time>2026-04-26T12:18:12.556Z</time></trkpt><trkpt lat="44.2261767" lon="11.63594"><ele>215.0</ele><time>2026-04-26T12:18:13.564Z</time></trkpt><trkpt lat="44.2261883" lon="11.6360983"><ele>219.2</ele><time>2026-04-26T12:18:14.557Z</time></trkpt><trkpt lat="44.2262033" lon="11.6362517"><ele>223.4</ele><time>2026-04-26T12:18:15.58Z</time></trkpt><trkpt lat="44.2262283" lon="11.6364017"><ele>227.60000000000002</ele><time>2026-04-26T12:18:16.56Z</time></trkpt><trkpt lat="44.2262667" lon="11.6365417"><ele>231.8</ele><time>2026-04-26T12:18:17.566Z</time></trkpt><trkpt lat="44.2263167" lon="11.63667"><ele>236.0</ele><time>2026-04-26T12:18:18.559Z</time></trkpt><trkpt lat="44.226385" lon="11.63679"><ele>236.0</ele><time>2026-04-26T12:18:19.546Z</time></trkpt><trkpt lat="44.2264567" lon="11.63691"><ele>236.0</ele><time>2026-04-26T12:18:20.558Z</time></trkpt><trkpt lat="44.22653" lon="11.637035"><ele>236.0</ele><time>2026-04-26T12:18:21.573Z</time></trkpt><trkpt lat="44.226595" lon="11.637165"><ele>236.0</ele><time>2026-04-26T12:18:22.56Z</time></trkpt><trkpt lat="44.2266567" lon="11.637295"><ele>234.0</ele><time>2026-04-26T12:18:23.567Z</time></trkpt><trkpt lat="44.2267233" lon="11.6374217"><ele>232.0</ele><time>2026-04-26T12:18:24.556Z</time></trkpt><trkpt lat="44.2267817" lon="11.6375533"><ele>230.0</ele><time>2026-04-26T12:18:25.556Z</time></trkpt><trkpt lat="44.2268467" lon="11.6376833"><ele>228.0</ele><time>2026-04-26T12:18:26.562Z</time></trkpt><trkpt lat="44.2269167" lon="11.637815"><ele>235.75</ele><time>2026-04-26T12:18:27.567Z</time></trkpt><trkpt lat="44.2269883" lon="11.6379467"><ele>243.5</ele><time>2026-04-26T12:18:28.557Z</time></trkpt><trkpt lat="44.2270633" lon="11.6380767"><ele>251.25</ele><time>2026-04-26T12:18:29.554Z</time></trkpt><trkpt lat="44.2271417" lon="11.6382017"><ele>259.0</ele><time>2026-04-26T12:18:30.562Z</time></trkpt><trkpt lat="44.2272233" lon="11.6383183"><ele>256.5</ele><time>2026-04-26T12:18:31.562Z</time></trkpt><trkpt lat="44.2273133" lon="11.6384267"><ele>254.0</ele><time>2026-04-26T12:18:32.562Z</time></trkpt><trkpt lat="44.2274" lon="11.63853"><ele>251.5</ele><time>2026-04-26T12:18:33.549Z</time></trkpt><trkpt lat="44.2274883" lon="11.6386333"><ele>249.0</ele><time>2026-04-26T12:18:34.556Z</time></trkpt><trkpt lat="44.2275783" lon="11.63874"><ele>249.0</ele><time>2026-04-26T12:18:35.558Z</time></trkpt><trkpt lat="44.227665" lon="11.6388467"><ele>249.0</ele><time>2026-04-26T12:18:36.559Z</time></trkpt><trkpt lat="44.22775" lon="11.63896"><ele>249.0</ele><time>2026-04-26T12:18:37.558Z</time></trkpt><trkpt lat="44.2278267" lon="11.6390817"><ele>249.0</ele><time>2026-04-26T12:18:38.558Z</time></trkpt><trkpt lat="44.2278983" lon="11.6392117"><ele>249.0</ele><time>2026-04-26T12:18:39.56Z</time></trkpt><trkpt lat="44.2279667" lon="11.639345"><ele>249.0</ele><time>2026-04-26T12:18:40.558Z</time></trkpt><trkpt lat="44.2280317" lon="11.6394817"><ele>249.0</ele><time>2026-04-26T12:18:41.562Z</time></trkpt><trkpt lat="44.2280983" lon="11.63961"><ele>249.0</ele><time>2026-04-26T12:18:42.556Z</time></trkpt><trkpt lat="44.2281617" lon="11.6397283"><ele>246.83333333333334</ele><time>2026-04-26T12:18:43.569Z</time></trkpt><trkpt lat="44.2282217" lon="11.63983"><ele>244.66666666666669</ele><time>2026-04-26T12:18:44.568Z</time></trkpt><trkpt lat="44.2282717" lon="11.6399317"><ele>242.5</ele><time>2026-04-26T12:18:45.555Z</time></trkpt><trkpt lat="44.2283117" lon="11.6400417"><ele>240.33333333333334</ele><time>2026-04-26T12:18:46.562Z</time></trkpt><trkpt lat="44.2283333" lon="11.640155"><ele>238.16666666666669</ele><time>2026-04-26T12:18:47.554Z</time></trkpt><trkpt lat="44.2283267" lon="11.640265"><ele>236.0</ele><time>2026-04-26T12:18:48.552Z</time></trkpt><trkpt lat="44.2282883" lon="11.6403667"><ele>236.0</ele><time>2026-04-26T12:18:49.56Z</time></trkpt><trkpt lat="44.2282267" lon="11.6404567"><ele>236.00000000000003</ele><time>2026-04-26T12:18:50.555Z</time></trkpt><trkpt lat="44.2281517" lon="11.64054"><ele>236.00000000000003</ele><time>2026-04-26T12:18:51.556Z</time></trkpt><trkpt lat="44.22807" lon="11.6406183"><ele>236.0</ele><time>2026-04-26T12:18:52.558Z</time></trkpt><trkpt lat="44.2279867" lon="11.6406967"><ele>236.0</ele><time>2026-04-26T12:18:53.551Z</time></trkpt><trkpt lat="44.2279" lon="11.6407667"><ele>238.0</ele><time>2026-04-26T12:18:54.559Z</time></trkpt><trkpt lat="44.2278133" lon="11.640835"><ele>240.00000000000003</ele><time>2026-04-26T12:18:55.558Z</time></trkpt><trkpt lat="44.2277317" lon="11.6409183"><ele>242.00000000000003</ele><time>2026-04-26T12:18:56.562Z</time></trkpt><trkpt lat="44.2276533" lon="11.64101"><ele>244.0</ele><time>2026-04-26T12:18:57.557Z</time></trkpt><trkpt lat="44.2275767" lon="11.6411033"><ele>246.0</ele><time>2026-04-26T12:18:58.561Z</time></trkpt><trkpt lat="44.227505" lon="11.6412"><ele>246.0</ele><time>2026-04-26T12:18:59.545Z</time></trkpt><trkpt lat="44.2274333" lon="11.6413033"><ele>246.00000000000003</ele><time>2026-04-26T12:19:00.569Z</time></trkpt><trkpt lat="44.2273617" lon="11.641405"><ele>246.00000000000003</ele><time>2026-04-26T12:19:01.553Z</time></trkpt><trkpt lat="44.2272933" lon="11.6415067"><ele>246.0</ele><time>2026-04-26T12:19:02.549Z</time></trkpt><trkpt lat="44.2272233" lon="11.6415967"><ele>246.0</ele><time>2026-04-26T12:19:03.554Z</time></trkpt><trkpt lat="44.227155" lon="11.6416817"><ele>247.5</ele><time>2026-04-26T12:19:04.562Z</time></trkpt><trkpt lat="44.227085" lon="11.641765"><ele>249.0</ele><time>2026-04-26T12:19:05.564Z</time></trkpt><trkpt lat="44.22702" lon="11.6418483"><ele>250.5</ele><time>2026-04-26T12:19:06.572Z</time></trkpt><trkpt lat="44.226955" lon="11.641935"><ele>252.0</ele><time>2026-04-26T12:19:07.558Z</time></trkpt><trkpt lat="44.22689" lon="11.6420217"><ele>253.5</ele><time>2026-04-26T12:19:08.56Z</time></trkpt><trkpt lat="44.226825" lon="11.6421067"><ele>255.0</ele><time>2026-04-26T12:19:09.557Z</time></trkpt><trkpt lat="44.226755" lon="11.6421917"><ele>255.0</ele><time>2026-04-26T12:19:10.561Z</time></trkpt><trkpt lat="44.2266833" lon="11.6422867"><ele>255.0</ele><time>2026-04-26T12:19:11.56Z</time></trkpt><trkpt lat="44.2266133" lon="11.6423867"><ele>255.0</ele><time>2026-04-26T12:19:12.564Z</time></trkpt><trkpt lat="44.2265417" lon="11.6424867"><ele>255.0</ele><time>2026-04-26T12:19:13.563Z</time></trkpt><trkpt lat="44.2264717" lon="11.6425833"><ele>255.0</ele><time>2026-04-26T12:19:14.564Z</time></trkpt><trkpt lat="44.2263983" lon="11.6426817"><ele>257.6</ele><time>2026-04-26T12:19:15.564Z</time></trkpt><trkpt lat="44.2263217" lon="11.64278"><ele>260.2</ele><time>2026-04-26T12:19:16.556Z</time></trkpt><trkpt lat="44.226245" lon="11.6428767"><ele>262.8</ele><time>2026-04-26T12:19:17.568Z</time></trkpt><trkpt lat="44.2261667" lon="11.6429733"><ele>265.4</ele><time>2026-04-26T12:19:18.577Z</time></trkpt><trkpt lat="44.2260883" lon="11.6430683"><ele>268.0</ele><time>2026-04-26T12:19:19.561Z</time></trkpt><trkpt lat="44.2260083" lon="11.6431617"><ele>268.0</ele><time>2026-04-26T12:19:20.553Z</time></trkpt><trkpt lat="44.2259333" lon="11.6432617"><ele>268.0</ele><time>2026-04-26T12:19:21.543Z</time></trkpt><trkpt lat="44.22586" lon="11.64336"><ele>268.0</ele><time>2026-04-26T12:19:22.549Z</time></trkpt><trkpt lat="44.2257883" lon="11.6434617"><ele>268.0</ele><time>2026-04-26T12:19:23.565Z</time></trkpt><trkpt lat="44.2257217" lon="11.643565"><ele>268.0</ele><time>2026-04-26T12:19:24.562Z</time></trkpt><trkpt lat="44.2256517" lon="11.643665"><ele>269.2</ele><time>2026-04-26T12:19:25.548Z</time></trkpt><trkpt lat="44.22558" lon="11.6437633"><ele>270.4</ele><time>2026-04-26T12:19:26.557Z</time></trkpt><trkpt lat="44.2255033" lon="11.64386"><ele>271.59999999999997</ele><time>2026-04-26T12:19:27.563Z</time></trkpt><trkpt lat="44.2254217" lon="11.6439517"><ele>272.8</ele><time>2026-04-26T12:19:28.556Z</time></trkpt><trkpt lat="44.225335" lon="11.6440267"><ele>274.0</ele><time>2026-04-26T12:19:29.578Z</time></trkpt><trkpt lat="44.22524" lon="11.6440783"><ele>274.0</ele><time>2026-04-26T12:19:30.565Z</time></trkpt><trkpt lat="44.2251417" lon="11.64411"><ele>274.0</ele><time>2026-04-26T12:19:31.555Z</time></trkpt><trkpt lat="44.2250433" lon="11.64414"><ele>274.0</ele><time>2026-04-26T12:19:32.561Z</time></trkpt><trkpt lat="44.2249417" lon="11.64417"><ele>274.0</ele><time>2026-04-26T12:19:33.557Z</time></trkpt><trkpt lat="44.22484" lon="11.6442017"><ele>274.0</ele><time>2026-04-26T12:19:34.549Z</time></trkpt><trkpt lat="44.22474" lon="11.6442333"><ele>274.8</ele><time>2026-04-26T12:19:35.562Z</time></trkpt><trkpt lat="44.2246417" lon="11.6442633"><ele>275.59999999999997</ele><time>2026-04-26T12:19:36.579Z</time></trkpt><trkpt lat="44.2245417" lon="11.6442983"><ele>276.4</ele><time>2026-04-26T12:19:37.562Z</time></trkpt><trkpt lat="44.2244417" lon="11.6443417"><ele>277.2</ele><time>2026-04-26T12:19:38.569Z</time></trkpt><trkpt lat="44.2243517" lon="11.6444033"><ele>278.0</ele><time>2026-04-26T12:19:39.562Z</time></trkpt><trkpt lat="44.22427" lon="11.6444883"><ele>278.0</ele><time>2026-04-26T12:19:40.55Z</time></trkpt><trkpt lat="44.2242033" lon="11.64458"><ele>278.0</ele><time>2026-04-26T12:19:41.556Z</time></trkpt><trkpt lat="44.2241433" lon="11.644665"><ele>278.0</ele><time>2026-04-26T12:19:42.552Z</time></trkpt><trkpt lat="44.2240867" lon="11.6447383"><ele>278.0</ele><time>2026-04-26T12:19:43.562Z</time></trkpt><trkpt lat="44.2240283" lon="11.6448067"><ele>278.0</ele><time>2026-04-26T12:19:44.555Z</time></trkpt><trkpt lat="44.2239683" lon="11.644875"><ele>278.0</ele><time>2026-04-26T12:19:45.558Z</time></trkpt><trkpt lat="44.2239067" lon="11.644945"><ele>281.83333333333337</ele><time>2026-04-26T12:19:46.56Z</time></trkpt><trkpt lat="44.2238533" lon="11.6450233"><ele>285.6666666666667</ele><time>2026-04-26T12:19:47.557Z</time></trkpt><trkpt lat="44.2238117" lon="11.6451133"><ele>289.5</ele><time>2026-04-26T12:19:48.558Z</time></trkpt><trkpt lat="44.2237867" lon="11.64521"><ele>293.3333333333333</ele><time>2026-04-26T12:19:49.576Z</time></trkpt><trkpt lat="44.22377" lon="11.6453167"><ele>297.16666666666663</ele><time>2026-04-26T12:19:50.572Z</time></trkpt><trkpt lat="44.2237767" lon="11.6454317"><ele>301.0</ele><time>2026-04-26T12:19:51.556Z</time></trkpt><trkpt lat="44.2237983" lon="11.64554"><ele>300.5</ele><time>2026-04-26T12:19:52.56Z</time></trkpt><trkpt lat="44.223825" lon="11.6456433"><ele>300.0</ele><time>2026-04-26T12:19:53.573Z</time></trkpt><trkpt lat="44.22386" lon="11.6457483"><ele>299.5</ele><time>2026-04-26T12:19:54.564Z</time></trkpt><trkpt lat="44.223895" lon="11.645855"><ele>299.0</ele><time>2026-04-26T12:19:55.569Z</time></trkpt><trkpt lat="44.22393" lon="11.6459567"><ele>298.5</ele><time>2026-04-26T12:19:56.561Z</time></trkpt><trkpt lat="44.2239633" lon="11.6460617"><ele>298.0</ele><time>2026-04-26T12:19:57.572Z</time></trkpt><trkpt lat="44.224" lon="11.64617"><ele>298.0</ele><time>2026-04-26T12:19:58.556Z</time></trkpt><trkpt lat="44.2240483" lon="11.6462783"><ele>298.0</ele><time>2026-04-26T12:19:59.551Z</time></trkpt><trkpt lat="44.224095" lon="11.6463833"><ele>298.0</ele><time>2026-04-26T12:20:00.558Z</time></trkpt><trkpt lat="44.22414" lon="11.6464933"><ele>298.0</ele><time>2026-04-26T12:20:01.553Z</time></trkpt><trkpt lat="44.2241867" lon="11.6465983"><ele>298.0</ele><time>2026-04-26T12:20:02.556Z</time></trkpt><trkpt lat="44.2242267" lon="11.646705"><ele>298.0</ele><time>2026-04-26T12:20:03.575Z</time></trkpt><trkpt lat="44.2242633" lon="11.6468167"><ele>298.0</ele><time>2026-04-26T12:20:04.559Z</time></trkpt><trkpt lat="44.2242933" lon="11.6469267"><ele>298.0</ele><time>2026-04-26T12:20:05.567Z</time></trkpt><trkpt lat="44.2243183" lon="11.6470333"><ele>298.0</ele><time>2026-04-26T12:20:06.55Z</time></trkpt><trkpt lat="44.224335" lon="11.6471433"><ele>298.0</ele><time>2026-04-26T12:20:07.571Z</time></trkpt><trkpt lat="44.2243467" lon="11.6472517"><ele>298.0</ele><time>2026-04-26T12:20:08.559Z</time></trkpt><trkpt lat="44.22435" lon="11.64736"><ele>298.0</ele><time>2026-04-26T12:20:09.57Z</time></trkpt><trkpt lat="44.2243433" lon="11.6474683"><ele>298.5</ele><time>2026-04-26T12:20:10.555Z</time></trkpt><trkpt lat="44.224335" lon="11.6475833"><ele>299.0</ele><time>2026-04-26T12:20:11.556Z</time></trkpt><trkpt lat="44.2243233" lon="11.6476967"><ele>299.5</ele><time>2026-04-26T12:20:12.554Z</time></trkpt><trkpt lat="44.224315" lon="11.6478133"><ele>300.0</ele><time>2026-04-26T12:20:13.556Z</time></trkpt><trkpt lat="44.2243083" lon="11.6479317"><ele>300.5</ele><time>2026-04-26T12:20:14.549Z</time></trkpt><trkpt lat="44.2243017" lon="11.6480483"><ele>301.0</ele><time>2026-04-26T12:20:15.555Z</time></trkpt><trkpt lat="44.2242967" lon="11.64816"><ele>302.0</ele><time>2026-04-26T12:20:16.564Z</time></trkpt><trkpt lat="44.22429" lon="11.6482717"><ele>303.0</ele><time>2026-04-26T12:20:17.566Z</time></trkpt><trkpt lat="44.22428" lon="11.6483817"><ele>304.0</ele><time>2026-04-26T12:20:18.555Z</time></trkpt><trkpt lat="44.2242683" lon="11.6484967"><ele>305.0</ele><time>2026-04-26T12:20:19.567Z</time></trkpt><trkpt lat="44.224255" lon="11.6486183"><ele>306.0</ele><time>2026-04-26T12:20:20.569Z</time></trkpt><trkpt lat="44.224245" lon="11.6487417"><ele>307.0</ele><time>2026-04-26T12:20:21.583Z</time></trkpt><trkpt lat="44.2242367" lon="11.648865"><ele>308.0</ele><time>2026-04-26T12:20:22.553Z</time></trkpt><trkpt lat="44.22423" lon="11.64899"><ele>309.0</ele><time>2026-04-26T12:20:23.548Z</time></trkpt><trkpt lat="44.22422" lon="11.6491133"><ele>310.0</ele><time>2026-04-26T12:20:24.558Z</time></trkpt><trkpt lat="44.2241983" lon="11.6492367"><ele>311.0</ele><time>2026-04-26T12:20:25.549Z</time></trkpt><trkpt lat="44.2241617" lon="11.6493533"><ele>312.0</ele><time>2026-04-26T12:20:26.568Z</time></trkpt><trkpt lat="44.2241083" lon="11.6494583"><ele>311.4</ele><time>2026-04-26T12:20:27.552Z</time></trkpt><trkpt lat="44.22405" lon="11.6495567"><ele>310.79999999999995</ele><time>2026-04-26T12:20:28.555Z</time></trkpt><trkpt lat="44.223985" lon="11.6496533"><ele>310.2</ele><time>2026-04-26T12:20:29.56Z</time></trkpt><trkpt lat="44.2239167" lon="11.649745"><ele>309.59999999999997</ele><time>2026-04-26T12:20:30.555Z</time></trkpt><trkpt lat="44.2238417" lon="11.6498283"><ele>309.0</ele><time>2026-04-26T12:20:31.563Z</time></trkpt><trkpt lat="44.2237633" lon="11.6499"><ele>311.0</ele><time>2026-04-26T12:20:32.564Z</time></trkpt><trkpt lat="44.2236833" lon="11.649965"><ele>313.0</ele><time>2026-04-26T12:20:33.553Z</time></trkpt><trkpt lat="44.2236067" lon="11.6500283"><ele>315.0</ele><time>2026-04-26T12:20:34.559Z</time></trkpt><trkpt lat="44.223545" lon="11.6500967"><ele>317.0</ele><time>2026-04-26T12:20:35.561Z</time></trkpt><trkpt lat="44.22349" lon="11.6501733"><ele>319.0</ele><time>2026-04-26T12:20:36.56Z</time></trkpt><trkpt lat="44.2234533" lon="11.6502617"><ele>321.0</ele><time>2026-04-26T12:20:37.559Z</time></trkpt><trkpt lat="44.22342" lon="11.6503567"><ele>321.0</ele><time>2026-04-26T12:20:38.556Z</time></trkpt><trkpt lat="44.22339" lon="11.6504517"><ele>321.0</ele><time>2026-04-26T12:20:39.56Z</time></trkpt><trkpt lat="44.2233567" lon="11.6505533"><ele>321.0</ele><time>2026-04-26T12:20:40.558Z</time></trkpt><trkpt lat="44.2233233" lon="11.650655"><ele>321.0</ele><time>2026-04-26T12:20:41.553Z</time></trkpt><trkpt lat="44.22329" lon="11.6507583"><ele>321.0</ele><time>2026-04-26T12:20:42.557Z</time></trkpt><trkpt lat="44.2232533" lon="11.650865"><ele>321.0</ele><time>2026-04-26T12:20:43.562Z</time></trkpt><trkpt lat="44.2232167" lon="11.6509717"><ele>321.0</ele><time>2026-04-26T12:20:44.565Z</time></trkpt><trkpt lat="44.223185" lon="11.651085"><ele>321.0</ele><time>2026-04-26T12:20:45.555Z</time></trkpt><trkpt lat="44.2231617" lon="11.6512133"><ele>321.0</ele><time>2026-04-26T12:20:46.559Z</time></trkpt><trkpt lat="44.2231467" lon="11.65134"><ele>321.0</ele><time>2026-04-26T12:20:47.56Z</time></trkpt><trkpt lat="44.2231433" lon="11.6514683"><ele>321.0</ele><time>2026-04-26T12:20:48.555Z</time></trkpt><trkpt lat="44.2231517" lon="11.6515983"><ele>321.20000000000005</ele><time>2026-04-26T12:20:49.562Z</time></trkpt><trkpt lat="44.2231533" lon="11.65173"><ele>321.40000000000003</ele><time>2026-04-26T12:20:50.561Z</time></trkpt><trkpt lat="44.22314" lon="11.6518583"><ele>321.6</ele><time>2026-04-26T12:20:51.569Z</time></trkpt><trkpt lat="44.2231083" lon="11.6519767"><ele>321.8</ele><time>2026-04-26T12:20:52.559Z</time></trkpt><trkpt lat="44.223055" lon="11.6520817"><ele>322.0</ele><time>2026-04-26T12:20:53.547Z</time></trkpt><trkpt lat="44.22299" lon="11.6521717"><ele>325.20000000000005</ele><time>2026-04-26T12:20:54.554Z</time></trkpt><trkpt lat="44.222915" lon="11.65225"><ele>328.4</ele><time>2026-04-26T12:20:55.562Z</time></trkpt><trkpt lat="44.2228233" lon="11.6523033"><ele>331.6</ele><time>2026-04-26T12:20:56.564Z</time></trkpt><trkpt lat="44.2227183" lon="11.6523317"><ele>334.79999999999995</ele><time>2026-04-26T12:20:57.557Z</time></trkpt><trkpt lat="44.2226117" lon="11.6523617"><ele>338.0</ele><time>2026-04-26T12:20:58.566Z</time></trkpt><trkpt lat="44.2225133" lon="11.6524067"><ele>338.0</ele><time>2026-04-26T12:20:59.561Z</time></trkpt><trkpt lat="44.2224267" lon="11.6524733"><ele>338.0</ele><time>2026-04-26T12:21:00.562Z</time></trkpt><trkpt lat="44.2223517" lon="11.6525633"><ele>338.0</ele><time>2026-04-26T12:21:01.57Z</time></trkpt><trkpt lat="44.2222933" lon="11.6526683"><ele>338.0</ele><time>2026-04-26T12:21:02.549Z</time></trkpt><trkpt lat="44.22225" lon="11.6527883"><ele>338.0</ele><time>2026-04-26T12:21:03.565Z</time></trkpt><trkpt lat="44.22222" lon="11.65292"><ele>338.79999999999995</ele><time>2026-04-26T12:21:04.555Z</time></trkpt><trkpt lat="44.222195" lon="11.6530633"><ele>339.6</ele><time>2026-04-26T12:21:05.551Z</time></trkpt><trkpt lat="44.2221717" lon="11.653215"><ele>340.4</ele><time>2026-04-26T12:21:06.559Z</time></trkpt><trkpt lat="44.2221467" lon="11.65337"><ele>341.20000000000005</ele><time>2026-04-26T12:21:07.562Z</time></trkpt><trkpt lat="44.2221183" lon="11.65353"><ele>342.0</ele><time>2026-04-26T12:21:08.552Z</time></trkpt><trkpt lat="44.22209" lon="11.6536967"><ele>342.0</ele><time>2026-04-26T12:21:09.56Z</time></trkpt><trkpt lat="44.2220617" lon="11.6538683"><ele>342.0</ele><time>2026-04-26T12:21:10.56Z</time></trkpt><trkpt lat="44.222035" lon="11.654045"><ele>342.0</ele><time>2026-04-26T12:21:11.554Z</time></trkpt><trkpt lat="44.22202" lon="11.6542267"><ele>342.0</ele><time>2026-04-26T12:21:12.56Z</time></trkpt><trkpt lat="44.2220133" lon="11.6544083"><ele>342.75</ele><time>2026-04-26T12:21:13.561Z</time></trkpt><trkpt lat="44.22201" lon="11.6545833"><ele>343.5</ele><time>2026-04-26T12:21:14.565Z</time></trkpt><trkpt lat="44.2220133" lon="11.6547483"><ele>344.25</ele><time>2026-04-26T12:21:15.556Z</time></trkpt><trkpt lat="44.222015" lon="11.6549033"><ele>345.0</ele><time>2026-04-26T12:21:16.556Z</time></trkpt><trkpt lat="44.2220183" lon="11.6550533"><ele>345.0</ele><time>2026-04-26T12:21:17.561Z</time></trkpt><trkpt lat="44.2220233" lon="11.6551983"><ele>345.0</ele><time>2026-04-26T12:21:18.559Z</time></trkpt><trkpt lat="44.2220283" lon="11.6553383"><ele>345.0</ele><time>2026-04-26T12:21:19.549Z</time></trkpt><trkpt lat="44.2220367" lon="11.655475"><ele>345.0</ele><time>2026-04-26T12:21:20.562Z</time></trkpt><trkpt lat="44.2220533" lon="11.6556083"><ele>345.0</ele><time>2026-04-26T12:21:21.552Z</time></trkpt><trkpt lat="44.2220817" lon="11.6557333"><ele>345.0</ele><time>2026-04-26T12:21:22.558Z</time></trkpt><trkpt lat="44.2221267" lon="11.6558433"><ele>345.0</ele><time>2026-04-26T12:21:23.549Z</time></trkpt><trkpt lat="44.2221867" lon="11.6559367"><ele>345.0</ele><time>2026-04-26T12:21:24.557Z</time></trkpt><trkpt lat="44.222265" lon="11.65601"><ele>345.0</ele><time>2026-04-26T12:21:25.565Z</time></trkpt><trkpt lat="44.2223583" lon="11.656065"><ele>345.0</ele><time>2026-04-26T12:21:26.565Z</time></trkpt><trkpt lat="44.2224567" lon="11.6560967"><ele>343.0</ele><time>2026-04-26T12:21:27.565Z</time></trkpt><trkpt lat="44.22256" lon="11.6561"><ele>341.0</ele><time>2026-04-26T12:21:28.56Z</time></trkpt><trkpt lat="44.2226617" lon="11.6560767"><ele>339.0</ele><time>2026-04-26T12:21:29.557Z</time></trkpt><trkpt lat="44.2227667" lon="11.6560367"><ele>337.0</ele><time>2026-04-26T12:21:30.561Z</time></trkpt><trkpt lat="44.2228783" lon="11.6559933"><ele>335.0</ele><time>2026-04-26T12:21:31.549Z</time></trkpt><trkpt lat="44.2229917" lon="11.6559533"><ele>335.0</ele><time>2026-04-26T12:21:32.561Z</time></trkpt><trkpt lat="44.2231033" lon="11.65591"><ele>335.0</ele><time>2026-04-26T12:21:33.57Z</time></trkpt><trkpt lat="44.2232083" lon="11.65586"><ele>335.0</ele><time>2026-04-26T12:21:34.561Z</time></trkpt><trkpt lat="44.2232983" lon="11.6558417"><ele>335.0</ele><time>2026-04-26T12:21:35.558Z</time></trkpt><trkpt lat="44.2233817" lon="11.655855"><ele>335.0</ele><time>2026-04-26T12:21:36.556Z</time></trkpt><trkpt lat="44.22346" lon="11.6558867"><ele>334.4</ele><time>2026-04-26T12:21:37.548Z</time></trkpt><trkpt lat="44.2235333" lon="11.6559517"><ele>333.8</ele><time>2026-04-26T12:21:38.553Z</time></trkpt><trkpt lat="44.2235917" lon="11.65604"><ele>333.20000000000005</ele><time>2026-04-26T12:21:39.563Z</time></trkpt><trkpt lat="44.2236333" lon="11.6561683"><ele>332.6</ele><time>2026-04-26T12:21:40.549Z</time></trkpt><trkpt lat="44.2236617" lon="11.656325"><ele>332.0</ele><time>2026-04-26T12:21:41.561Z</time></trkpt><trkpt lat="44.223705" lon="11.65647"><ele>333.40000000000003</ele><time>2026-04-26T12:21:42.553Z</time></trkpt><trkpt lat="44.223775" lon="11.6565867"><ele>334.8</ele><time>2026-04-26T12:21:43.567Z</time></trkpt><trkpt lat="44.2238567" lon="11.6566817"><ele>336.2</ele><time>2026-04-26T12:21:44.55Z</time></trkpt><trkpt lat="44.2239433" lon="11.6567667"><ele>337.6</ele><time>2026-04-26T12:21:45.564Z</time></trkpt><trkpt lat="44.2240083" lon="11.65687"><ele>339.0</ele><time>2026-04-26T12:21:46.562Z</time></trkpt><trkpt lat="44.2240483" lon="11.6569883"><ele>341.57142857142856</ele><time>2026-04-26T12:21:47.567Z</time></trkpt><trkpt lat="44.2240817" lon="11.6571017"><ele>344.14285714285717</ele><time>2026-04-26T12:21:48.556Z</time></trkpt><trkpt lat="44.2241233" lon="11.65719"><ele>346.7142857142857</ele><time>2026-04-26T12:21:49.554Z</time></trkpt><trkpt lat="44.22418" lon="11.65725"><ele>349.2857142857143</ele><time>2026-04-26T12:21:50.568Z</time></trkpt><trkpt lat="44.2242433" lon="11.6572833"><ele>351.8571428571429</ele><time>2026-04-26T12:21:51.556Z</time></trkpt><trkpt lat="44.2243133" lon="11.6572833"><ele>354.42857142857144</ele><time>2026-04-26T12:21:52.565Z</time></trkpt><trkpt lat="44.224385" lon="11.6572533"><ele>357.0</ele><time>2026-04-26T12:21:53.567Z</time></trkpt><trkpt lat="44.22446" lon="11.6571933"><ele>357.0</ele><time>2026-04-26T12:21:54.554Z</time></trkpt><trkpt lat="44.2245183" lon="11.657065"><ele>357.0</ele><time>2026-04-26T12:21:55.554Z</time></trkpt><trkpt lat="44.2245817" lon="11.656935"><ele>357.0</ele><time>2026-04-26T12:21:56.549Z</time></trkpt><trkpt lat="44.22464" lon="11.6568083"><ele>357.0</ele><time>2026-04-26T12:21:57.564Z</time></trkpt><trkpt lat="44.224685" lon="11.6566767"><ele>357.0</ele><time>2026-04-26T12:21:58.561Z</time></trkpt><trkpt lat="44.224725" lon="11.6565433"><ele>356.6666666666667</ele><time>2026-04-26T12:21:59.562Z</time></trkpt><trkpt lat="44.2247483" lon="11.65641"><ele>356.3333333333333</ele><time>2026-04-26T12:22:00.559Z</time></trkpt><trkpt lat="44.22478" lon="11.6562933"><ele>356.0</ele><time>2026-04-26T12:22:01.55Z</time></trkpt><trkpt lat="44.22482" lon="11.65619"><ele>355.66666666666663</ele><time>2026-04-26T12:22:02.564Z</time></trkpt><trkpt lat="44.2248683" lon="11.65611"><ele>355.3333333333333</ele><time>2026-04-26T12:22:03.556Z</time></trkpt><trkpt lat="44.224945" lon="11.6560733"><ele>355.0</ele><time>2026-04-26T12:22:04.558Z</time></trkpt><trkpt lat="44.2250317" lon="11.6560367"><ele>351.6</ele><time>2026-04-26T12:22:05.568Z</time></trkpt><trkpt lat="44.2251267" lon="11.656"><ele>348.2</ele><time>2026-04-26T12:22:06.551Z</time></trkpt><trkpt lat="44.2252333" lon="11.6559667"><ele>344.79999999999995</ele><time>2026-04-26T12:22:07.563Z</time></trkpt><trkpt lat="44.22534" lon="11.6559433"><ele>341.4</ele><time>2026-04-26T12:22:08.543Z</time></trkpt><trkpt lat="44.2254467" lon="11.655925"><ele>338.0</ele><time>2026-04-26T12:22:09.558Z</time></trkpt><trkpt lat="44.2255567" lon="11.6558917"><ele>341.79999999999995</ele><time>2026-04-26T12:22:10.574Z</time></trkpt><trkpt lat="44.2256733" lon="11.6558517"><ele>345.6</ele><time>2026-04-26T12:22:11.56Z</time></trkpt><trkpt lat="44.2257917" lon="11.655785"><ele>349.4</ele><time>2026-04-26T12:22:12.559Z</time></trkpt><trkpt lat="44.2258867" lon="11.6557183"><ele>353.20000000000005</ele><time>2026-04-26T12:22:13.557Z</time></trkpt><trkpt lat="44.2259767" lon="11.6556783"><ele>357.0</ele><time>2026-04-26T12:22:14.554Z</time></trkpt><trkpt lat="44.2260567" lon="11.655675"><ele>357.0</ele><time>2026-04-26T12:22:15.556Z</time></trkpt><trkpt lat="44.2261317" lon="11.6557067"><ele>357.0</ele><time>2026-04-26T12:22:16.562Z</time></trkpt><trkpt lat="44.2262067" lon="11.655775"><ele>357.0</ele><time>2026-04-26T12:22:17.553Z</time></trkpt><trkpt lat="44.2262733" lon="11.6558617"><ele>357.0</ele><time>2026-04-26T12:22:18.551Z</time></trkpt><trkpt lat="44.2263433" lon="11.6559517"><ele>357.0</ele><time>2026-04-26T12:22:19.562Z</time></trkpt><trkpt lat="44.2264233" lon="11.6560333"><ele>357.20000000000005</ele><time>2026-04-26T12:22:20.562Z</time></trkpt><trkpt lat="44.226505" lon="11.656095"><ele>357.4</ele><time>2026-04-26T12:22:21.573Z</time></trkpt><trkpt lat="44.226595" lon="11.6561267"><ele>357.6</ele><time>2026-04-26T12:22:22.557Z</time></trkpt><trkpt lat="44.2266883" lon="11.6561333"><ele>357.79999999999995</ele><time>2026-04-26T12:22:23.552Z</time></trkpt><trkpt lat="44.2267867" lon="11.656115"><ele>358.0</ele><time>2026-04-26T12:22:24.547Z</time></trkpt><trkpt lat="44.226875" lon="11.6560233"><ele>358.0</ele><time>2026-04-26T12:22:25.573Z</time></trkpt><trkpt lat="44.2269667" lon="11.65592"><ele>358.0</ele><time>2026-04-26T12:22:26.552Z</time></trkpt><trkpt lat="44.227055" lon="11.655825"><ele>358.0</ele><time>2026-04-26T12:22:27.571Z</time></trkpt><trkpt lat="44.2271367" lon="11.6557483"><ele>358.0</ele><time>2026-04-26T12:22:28.555Z</time></trkpt><trkpt lat="44.2272067" lon="11.6556983"><ele>358.0</ele><time>2026-04-26T12:22:29.564Z</time></trkpt><trkpt lat="44.2272683" lon="11.6556683"><ele>358.8333333333333</ele><time>2026-04-26T12:22:30.557Z</time></trkpt><trkpt lat="44.227335" lon="11.655685"><ele>359.66666666666663</ele><time>2026-04-26T12:22:31.559Z</time></trkpt><trkpt lat="44.2274383" lon="11.6557917"><ele>360.5</ele><time>2026-04-26T12:22:33.563Z</time></trkpt><trkpt lat="44.2274867" lon="11.6558733"><ele>361.3333333333333</ele><time>2026-04-26T12:22:34.556Z</time></trkpt><trkpt lat="44.22753" lon="11.6559683"><ele>362.1666666666667</ele><time>2026-04-26T12:22:35.558Z</time></trkpt><trkpt lat="44.2275667" lon="11.6560733"><ele>363.0</ele><time>2026-04-26T12:22:36.552Z</time></trkpt><trkpt lat="44.2275917" lon="11.6561833"><ele>365.59999999999997</ele><time>2026-04-26T12:22:37.559Z</time></trkpt><trkpt lat="44.227605" lon="11.6562983"><ele>368.2</ele><time>2026-04-26T12:22:38.544Z</time></trkpt><trkpt lat="44.2276067" lon="11.6564233"><ele>370.8</ele><time>2026-04-26T12:22:39.555Z</time></trkpt><trkpt lat="44.2276017" lon="11.656555"><ele>373.4</ele><time>2026-04-26T12:22:40.554Z</time></trkpt><trkpt lat="44.2275867" lon="11.6566933"><ele>376.0</ele><time>2026-04-26T12:22:41.554Z</time></trkpt><trkpt lat="44.2275717" lon="11.6568367"><ele>376.6</ele><time>2026-04-26T12:22:42.562Z</time></trkpt><trkpt lat="44.2275567" lon="11.65698"><ele>377.20000000000005</ele><time>2026-04-26T12:22:43.564Z</time></trkpt><trkpt lat="44.22754" lon="11.6571233"><ele>377.79999999999995</ele><time>2026-04-26T12:22:44.563Z</time></trkpt><trkpt lat="44.22752" lon="11.6572667"><ele>378.4</ele><time>2026-04-26T12:22:45.558Z</time></trkpt><trkpt lat="44.2274917" lon="11.6574083"><ele>379.0</ele><time>2026-04-26T12:22:46.555Z</time></trkpt><trkpt lat="44.2274617" lon="11.657545"><ele>379.0</ele><time>2026-04-26T12:22:47.557Z</time></trkpt><trkpt lat="44.2274317" lon="11.6576817"><ele>379.0</ele><time>2026-04-26T12:22:48.557Z</time></trkpt><trkpt lat="44.2273967" lon="11.6578233"><ele>379.0</ele><time>2026-04-26T12:22:49.553Z</time></trkpt><trkpt lat="44.227365" lon="11.6579717"><ele>379.0</ele><time>2026-04-26T12:22:50.564Z</time></trkpt><trkpt lat="44.22733" lon="11.658125"><ele>379.0</ele><time>2026-04-26T12:22:51.559Z</time></trkpt><trkpt lat="44.227295" lon="11.6582817"><ele>383.5</ele><time>2026-04-26T12:22:52.555Z</time></trkpt><trkpt lat="44.2272617" lon="11.6584417"><ele>388.0</ele><time>2026-04-26T12:22:53.545Z</time></trkpt><trkpt lat="44.2272233" lon="11.6586067"><ele>392.5</ele><time>2026-04-26T12:22:54.548Z</time></trkpt><trkpt lat="44.227185" lon="11.658775"><ele>397.0</ele><time>2026-04-26T12:22:55.556Z</time></trkpt><trkpt lat="44.2271467" lon="11.6589467"><ele>397.0</ele><time>2026-04-26T12:22:56.549Z</time></trkpt><trkpt lat="44.2271067" lon="11.6591217"><ele>397.0</ele><time>2026-04-26T12:22:57.552Z</time></trkpt><trkpt lat="44.2270683" lon="11.6592967"><ele>397.0</ele><time>2026-04-26T12:22:58.558Z</time></trkpt><trkpt lat="44.2270267" lon="11.659475"><ele>397.0</ele><time>2026-04-26T12:22:59.576Z</time></trkpt><trkpt lat="44.2269867" lon="11.659655"><ele>396.25</ele><time>2026-04-26T12:23:00.551Z</time></trkpt><trkpt lat="44.22695" lon="11.6598383"><ele>395.5</ele><time>2026-04-26T12:23:01.563Z</time></trkpt><trkpt lat="44.2269217" lon="11.6600217"><ele>394.75</ele><time>2026-04-26T12:23:02.554Z</time></trkpt><trkpt lat="44.2268983" lon="11.6602033"><ele>394.0</ele><time>2026-04-26T12:23:03.545Z</time></trkpt><trkpt lat="44.226885" lon="11.6603883"><ele>393.25</ele><time>2026-04-26T12:23:04.554Z</time></trkpt><trkpt lat="44.2268767" lon="11.6605733"><ele>392.5</ele><time>2026-04-26T12:23:05.551Z</time></trkpt><trkpt lat="44.2268733" lon="11.6607583"><ele>391.75</ele><time>2026-04-26T12:23:06.557Z</time></trkpt><trkpt lat="44.2268683" lon="11.6609383"><ele>391.0</ele><time>2026-04-26T12:23:07.553Z</time></trkpt><trkpt lat="44.2268567" lon="11.6611117"><ele>390.0</ele><time>2026-04-26T12:23:08.55Z</time></trkpt><trkpt lat="44.2268417" lon="11.66127"><ele>389.0</ele><time>2026-04-26T12:23:09.571Z</time></trkpt><trkpt lat="44.226825" lon="11.6614183"><ele>388.0</ele><time>2026-04-26T12:23:10.55Z</time></trkpt><trkpt lat="44.2267967" lon="11.66156"><ele>387.0</ele><time>2026-04-26T12:23:11.553Z</time></trkpt><trkpt lat="44.2267567" lon="11.6616933"><ele>386.0</ele><time>2026-04-26T12:23:12.555Z</time></trkpt><trkpt lat="44.2267067" lon="11.66181"><ele>385.99999999999994</ele><time>2026-04-26T12:23:13.551Z</time></trkpt><trkpt lat="44.2266467" lon="11.661905"><ele>386.0</ele><time>2026-04-26T12:23:14.564Z</time></trkpt><trkpt lat="44.2265817" lon="11.66199"><ele>386.0</ele><time>2026-04-26T12:23:15.565Z</time></trkpt><trkpt lat="44.2265167" lon="11.6620767"><ele>386.0</ele><time>2026-04-26T12:23:16.551Z</time></trkpt><trkpt lat="44.2264567" lon="11.6621717"><ele>385.99999999999994</ele><time>2026-04-26T12:23:17.574Z</time></trkpt><trkpt lat="44.2264083" lon="11.6622733"><ele>386.0</ele><time>2026-04-26T12:23:18.559Z</time></trkpt><trkpt lat="44.226365" lon="11.66239"><ele>388.20000000000005</ele><time>2026-04-26T12:23:19.556Z</time></trkpt><trkpt lat="44.22635" lon="11.6625167"><ele>390.40000000000003</ele><time>2026-04-26T12:23:20.554Z</time></trkpt><trkpt lat="44.2263567" lon="11.6626467"><ele>392.6</ele><time>2026-04-26T12:23:21.589Z</time></trkpt><trkpt lat="44.22637" lon="11.66278"><ele>394.8</ele><time>2026-04-26T12:23:22.545Z</time></trkpt><trkpt lat="44.22638" lon="11.662915"><ele>397.0</ele><time>2026-04-26T12:23:23.551Z</time></trkpt><trkpt lat="44.22638" lon="11.6630533"><ele>397.0</ele><time>2026-04-26T12:23:24.555Z</time></trkpt><trkpt lat="44.2263683" lon="11.663195"><ele>397.0</ele><time>2026-04-26T12:23:25.551Z</time></trkpt><trkpt lat="44.22634" lon="11.66333"><ele>397.0</ele><time>2026-04-26T12:23:26.552Z</time></trkpt><trkpt lat="44.2263033" lon="11.66346"><ele>397.0</ele><time>2026-04-26T12:23:27.563Z</time></trkpt><trkpt lat="44.2262417" lon="11.6635717"><ele>397.0</ele><time>2026-04-26T12:23:28.573Z</time></trkpt><trkpt lat="44.2261667" lon="11.66367"><ele>395.5</ele><time>2026-04-26T12:23:29.55Z</time></trkpt><trkpt lat="44.22608" lon="11.6637667"><ele>394.0</ele><time>2026-04-26T12:23:30.567Z</time></trkpt><trkpt lat="44.225995" lon="11.66387"><ele>392.5</ele><time>2026-04-26T12:23:31.568Z</time></trkpt><trkpt lat="44.2259117" lon="11.6639767"><ele>391.0</ele><time>2026-04-26T12:23:32.561Z</time></trkpt><trkpt lat="44.22583" lon="11.6640917"><ele>391.0</ele><time>2026-04-26T12:23:33.559Z</time></trkpt><trkpt lat="44.2257483" lon="11.6642067"><ele>391.0</ele><time>2026-04-26T12:23:34.557Z</time></trkpt><trkpt lat="44.22567" lon="11.6643183"><ele>391.0</ele><time>2026-04-26T12:23:35.557Z</time></trkpt><trkpt lat="44.2255917" lon="11.664425"><ele>391.0</ele><time>2026-04-26T12:23:36.562Z</time></trkpt><trkpt lat="44.2255083" lon="11.6645233"><ele>391.0</ele><time>2026-04-26T12:23:37.577Z</time></trkpt><trkpt lat="44.225425" lon="11.6646133"><ele>393.0</ele><time>2026-04-26T12:23:38.562Z</time></trkpt><trkpt lat="44.225335" lon="11.6646883"><ele>395.0</ele><time>2026-04-26T12:23:39.561Z</time></trkpt><trkpt lat="44.2252383" lon="11.6647517"><ele>397.0</ele><time>2026-04-26T12:23:40.567Z</time></trkpt><trkpt lat="44.2251433" lon="11.6648133"><ele>399.0</ele><time>2026-04-26T12:23:41.55Z</time></trkpt><trkpt lat="44.2250533" lon="11.664885"><ele>401.0</ele><time>2026-04-26T12:23:42.562Z</time></trkpt><trkpt lat="44.2249717" lon="11.6649767"><ele>401.0</ele><time>2026-04-26T12:23:43.559Z</time></trkpt><trkpt lat="44.224905" lon="11.66509"><ele>401.0</ele><time>2026-04-26T12:23:44.552Z</time></trkpt><trkpt lat="44.2248533" lon="11.665225"><ele>401.0</ele><time>2026-04-26T12:23:45.569Z</time></trkpt><trkpt lat="44.224815" lon="11.6653717"><ele>401.0</ele><time>2026-04-26T12:23:46.546Z</time></trkpt><trkpt lat="44.2247833" lon="11.6655267"><ele>401.0</ele><time>2026-04-26T12:23:47.558Z</time></trkpt><trkpt lat="44.2247583" lon="11.6656883"><ele>406.5</ele><time>2026-04-26T12:23:48.555Z</time></trkpt><trkpt lat="44.2247383" lon="11.665855"><ele>412.0</ele><time>2026-04-26T12:23:49.57Z</time></trkpt><trkpt lat="44.2247217" lon="11.6660267"><ele>417.5</ele><time>2026-04-26T12:23:50.554Z</time></trkpt><trkpt lat="44.2247083" lon="11.6661983"><ele>423.0</ele><time>2026-04-26T12:23:51.557Z</time></trkpt><trkpt lat="44.224685" lon="11.6663683"><ele>423.25</ele><time>2026-04-26T12:23:52.558Z</time></trkpt><trkpt lat="44.2246667" lon="11.6665367"><ele>423.5</ele><time>2026-04-26T12:23:53.555Z</time></trkpt><trkpt lat="44.2246517" lon="11.6667017"><ele>423.75</ele><time>2026-04-26T12:23:54.547Z</time></trkpt><trkpt lat="44.2246417" lon="11.6668633"><ele>424.0</ele><time>2026-04-26T12:23:55.561Z</time></trkpt><trkpt lat="44.2246317" lon="11.66702"><ele>423.2</ele><time>2026-04-26T12:23:56.551Z</time></trkpt><trkpt lat="44.2246133" lon="11.6671683"><ele>422.4</ele><time>2026-04-26T12:23:57.553Z</time></trkpt><trkpt lat="44.2245833" lon="11.66731"><ele>421.6</ele><time>2026-04-26T12:23:58.552Z</time></trkpt><trkpt lat="44.224535" lon="11.6674333"><ele>420.8</ele><time>2026-04-26T12:23:59.556Z</time></trkpt><trkpt lat="44.2244683" lon="11.6675383"><ele>420.0</ele><time>2026-04-26T12:24:00.562Z</time></trkpt><trkpt lat="44.2243867" lon="11.6676317"><ele>420.0</ele><time>2026-04-26T12:24:01.55Z</time></trkpt><trkpt lat="44.2243017" lon="11.6677233"><ele>420.0</ele><time>2026-04-26T12:24:02.555Z</time></trkpt><trkpt lat="44.2242117" lon="11.667815"><ele>420.0</ele><time>2026-04-26T12:24:03.563Z</time></trkpt><trkpt lat="44.22412" lon="11.667905"><ele>420.0</ele><time>2026-04-26T12:24:04.553Z</time></trkpt><trkpt lat="44.2240333" lon="11.6679983"><ele>420.0</ele><time>2026-04-26T12:24:05.556Z</time></trkpt><trkpt lat="44.2239517" lon="11.6681"><ele>423.0</ele><time>2026-04-26T12:24:06.564Z</time></trkpt><trkpt lat="44.2238817" lon="11.6682167"><ele>426.0</ele><time>2026-04-26T12:24:07.554Z</time></trkpt><trkpt lat="44.2238267" lon="11.6683433"><ele>429.0</ele><time>2026-04-26T12:24:08.57Z</time></trkpt><trkpt lat="44.2237783" lon="11.66848"><ele>432.0</ele><time>2026-04-26T12:24:09.562Z</time></trkpt><trkpt lat="44.22374" lon="11.6686283"><ele>435.0</ele><time>2026-04-26T12:24:10.547Z</time></trkpt><trkpt lat="44.2236967" lon="11.6687683"><ele>435.2</ele><time>2026-04-26T12:24:11.552Z</time></trkpt><trkpt lat="44.223655" lon="11.6689067"><ele>435.4</ele><time>2026-04-26T12:24:12.552Z</time></trkpt><trkpt lat="44.2236133" lon="11.6690483"><ele>435.6</ele><time>2026-04-26T12:24:13.562Z</time></trkpt><trkpt lat="44.22357" lon="11.6691883"><ele>435.8</ele><time>2026-04-26T12:24:14.553Z</time></trkpt><trkpt lat="44.2235317" lon="11.66933"><ele>436.0</ele><time>2026-04-26T12:24:15.581Z</time></trkpt><trkpt lat="44.2234967" lon="11.6694783"><ele>436.0</ele><time>2026-04-26T12:24:16.557Z</time></trkpt><trkpt lat="44.2234717" lon="11.6696283"><ele>436.0</ele><time>2026-04-26T12:24:17.56Z</time></trkpt><trkpt lat="44.223455" lon="11.66978"><ele>436.0</ele><time>2026-04-26T12:24:18.557Z</time></trkpt><trkpt lat="44.223445" lon="11.66993"><ele>436.0</ele><time>2026-04-26T12:24:19.56Z</time></trkpt><trkpt lat="44.2234433" lon="11.6700833"><ele>436.0</ele><time>2026-04-26T12:24:20.555Z</time></trkpt><trkpt lat="44.2234467" lon="11.67024"><ele>435.0</ele><time>2026-04-26T12:24:21.566Z</time></trkpt><trkpt lat="44.2234567" lon="11.6704"><ele>434.0</ele><time>2026-04-26T12:24:22.569Z</time></trkpt><trkpt lat="44.2234717" lon="11.67056"><ele>433.0</ele><time>2026-04-26T12:24:23.555Z</time></trkpt><trkpt lat="44.22349" lon="11.6707133"><ele>432.0</ele><time>2026-04-26T12:24:24.575Z</time></trkpt><trkpt lat="44.2235033" lon="11.6708517"><ele>431.0</ele><time>2026-04-26T12:24:25.552Z</time></trkpt><trkpt lat="44.223515" lon="11.67098"><ele>430.99999999999994</ele><time>2026-04-26T12:24:26.554Z</time></trkpt><trkpt lat="44.2235167" lon="11.6710983"><ele>431.0</ele><time>2026-04-26T12:24:27.555Z</time></trkpt><trkpt lat="44.2235183" lon="11.6712083"><ele>431.0</ele><time>2026-04-26T12:24:28.555Z</time></trkpt><trkpt lat="44.2235283" lon="11.6713183"><ele>431.0</ele><time>2026-04-26T12:24:29.564Z</time></trkpt><trkpt lat="44.2235233" lon="11.6714233"><ele>430.99999999999994</ele><time>2026-04-26T12:24:30.556Z</time></trkpt><trkpt lat="44.2235167" lon="11.671525"><ele>431.0</ele><time>2026-04-26T12:24:31.559Z</time></trkpt><trkpt lat="44.22351" lon="11.6716267"><ele>430.49999999999994</ele><time>2026-04-26T12:24:32.55Z</time></trkpt><trkpt lat="44.223515" lon="11.6717567"><ele>430.0</ele><time>2026-04-26T12:24:33.57Z</time></trkpt><trkpt lat="44.2235117" lon="11.67189"><ele>429.5</ele><time>2026-04-26T12:24:34.549Z</time></trkpt><trkpt lat="44.2235033" lon="11.6720133"><ele>429.0</ele><time>2026-04-26T12:24:35.564Z</time></trkpt><trkpt lat="44.2234883" lon="11.6721267"><ele>428.49999999999994</ele><time>2026-04-26T12:24:36.554Z</time></trkpt><trkpt lat="44.2234633" lon="11.6722333"><ele>428.0</ele><time>2026-04-26T12:24:37.561Z</time></trkpt><trkpt lat="44.2234183" lon="11.6723267"><ele>426.59999999999997</ele><time>2026-04-26T12:24:38.554Z</time></trkpt><trkpt lat="44.2233567" lon="11.6724133"><ele>425.19999999999993</ele><time>2026-04-26T12:24:39.553Z</time></trkpt><trkpt lat="44.2232867" lon="11.6724933"><ele>423.8</ele><time>2026-04-26T12:24:40.556Z</time></trkpt><trkpt lat="44.2232183" lon="11.6725783"><ele>422.4</ele><time>2026-04-26T12:24:41.554Z</time></trkpt><trkpt lat="44.22314" lon="11.6726583"><ele>421.0</ele><time>2026-04-26T12:24:42.571Z</time></trkpt><trkpt lat="44.2230583" lon="11.6727283"><ele>425.20000000000005</ele><time>2026-04-26T12:24:43.552Z</time></trkpt><trkpt lat="44.2229683" lon="11.6727867"><ele>429.40000000000003</ele><time>2026-04-26T12:24:44.555Z</time></trkpt><trkpt lat="44.2228783" lon="11.6728383"><ele>433.6</ele><time>2026-04-26T12:24:45.565Z</time></trkpt><trkpt lat="44.22279" lon="11.6728867"><ele>437.8</ele><time>2026-04-26T12:24:46.573Z</time></trkpt><trkpt lat="44.222705" lon="11.67293"><ele>442.0</ele><time>2026-04-26T12:24:47.558Z</time></trkpt><trkpt lat="44.2226267" lon="11.672975"><ele>442.00000000000006</ele><time>2026-04-26T12:24:48.557Z</time></trkpt><trkpt lat="44.2225517" lon="11.673025"><ele>442.0</ele><time>2026-04-26T12:24:49.553Z</time></trkpt><trkpt lat="44.2224783" lon="11.6730733"><ele>442.0</ele><time>2026-04-26T12:24:50.555Z</time></trkpt><trkpt lat="44.2224033" lon="11.6731133"><ele>442.0</ele><time>2026-04-26T12:24:51.559Z</time></trkpt><trkpt lat="44.2223267" lon="11.6731433"><ele>442.00000000000006</ele><time>2026-04-26T12:24:52.561Z</time></trkpt><trkpt lat="44.2222483" lon="11.6731483"><ele>442.0</ele><time>2026-04-26T12:24:53.554Z</time></trkpt><trkpt lat="44.22217" lon="11.6731267"><ele>441.1666666666667</ele><time>2026-04-26T12:24:54.564Z</time></trkpt><trkpt lat="44.22209" lon="11.673095"><ele>440.33333333333337</ele><time>2026-04-26T12:24:55.557Z</time></trkpt><trkpt lat="44.2220083" lon="11.6730517"><ele>439.5</ele><time>2026-04-26T12:24:56.553Z</time></trkpt><trkpt lat="44.221925" lon="11.6730033"><ele>438.66666666666663</ele><time>2026-04-26T12:24:57.551Z</time></trkpt><trkpt lat="44.2218383" lon="11.6729517"><ele>437.8333333333333</ele><time>2026-04-26T12:24:58.553Z</time></trkpt><trkpt lat="44.2217583" lon="11.6728967"><ele>437.0</ele><time>2026-04-26T12:24:59.553Z</time></trkpt><trkpt lat="44.2216833" lon="11.67284"><ele>436.99999999999994</ele><time>2026-04-26T12:25:00.562Z</time></trkpt><trkpt lat="44.2216117" lon="11.67279"><ele>437.0</ele><time>2026-04-26T12:25:01.555Z</time></trkpt><trkpt lat="44.22154" lon="11.6727567"><ele>437.0</ele><time>2026-04-26T12:25:02.556Z</time></trkpt><trkpt lat="44.2214667" lon="11.6727517"><ele>437.0</ele><time>2026-04-26T12:25:03.557Z</time></trkpt><trkpt lat="44.2213983" lon="11.6727967"><ele>436.99999999999994</ele><time>2026-04-26T12:25:04.561Z</time></trkpt><trkpt lat="44.2213417" lon="11.6728683"><ele>437.0</ele><time>2026-04-26T12:25:05.55Z</time></trkpt><trkpt lat="44.2212933" lon="11.67296"><ele>432.40000000000003</ele><time>2026-04-26T12:25:06.564Z</time></trkpt><trkpt lat="44.2212683" lon="11.6730867"><ele>427.80000000000007</ele><time>2026-04-26T12:25:07.553Z</time></trkpt><trkpt lat="44.2212633" lon="11.6732417"><ele>423.2</ele><time>2026-04-26T12:25:08.551Z</time></trkpt><trkpt lat="44.2212667" lon="11.6733967"><ele>418.6</ele><time>2026-04-26T12:25:09.553Z</time></trkpt><trkpt lat="44.2212617" lon="11.673545"><ele>414.0</ele><time>2026-04-26T12:25:10.555Z</time></trkpt><trkpt lat="44.221255" lon="11.67369"><ele>414.0</ele><time>2026-04-26T12:25:11.548Z</time></trkpt><trkpt lat="44.221245" lon="11.6738283"><ele>414.0</ele><time>2026-04-26T12:25:12.562Z</time></trkpt><trkpt lat="44.221225" lon="11.6739633"><ele>414.0</ele><time>2026-04-26T12:25:13.562Z</time></trkpt><trkpt lat="44.2211983" lon="11.6741"><ele>414.0</ele><time>2026-04-26T12:25:14.563Z</time></trkpt><trkpt lat="44.221165" lon="11.674235"><ele>414.0</ele><time>2026-04-26T12:25:15.563Z</time></trkpt><trkpt lat="44.2211217" lon="11.674365"><ele>415.6</ele><time>2026-04-26T12:25:16.555Z</time></trkpt><trkpt lat="44.2210683" lon="11.6744867"><ele>417.2</ele><time>2026-04-26T12:25:17.548Z</time></trkpt><trkpt lat="44.2210083" lon="11.674605"><ele>418.8</ele><time>2026-04-26T12:25:18.557Z</time></trkpt><trkpt lat="44.220945" lon="11.6747217"><ele>420.40000000000003</ele><time>2026-04-26T12:25:19.557Z</time></trkpt><trkpt lat="44.22088" lon="11.6748383"><ele>422.0</ele><time>2026-04-26T12:25:20.559Z</time></trkpt><trkpt lat="44.220815" lon="11.6749517"><ele>421.99999999999994</ele><time>2026-04-26T12:25:21.564Z</time></trkpt><trkpt lat="44.2207517" lon="11.6750533"><ele>422.0</ele><time>2026-04-26T12:25:22.556Z</time></trkpt><trkpt lat="44.2206833" lon="11.6751383"><ele>422.0</ele><time>2026-04-26T12:25:23.549Z</time></trkpt><trkpt lat="44.2206117" lon="11.6752017"><ele>422.0</ele><time>2026-04-26T12:25:24.56Z</time></trkpt><trkpt lat="44.2205317" lon="11.6752533"><ele>421.99999999999994</ele><time>2026-04-26T12:25:25.547Z</time></trkpt><trkpt lat="44.22045" lon="11.6753"><ele>422.0</ele><time>2026-04-26T12:25:26.55Z</time></trkpt><trkpt lat="44.220375" lon="11.6753467"><ele>421.3333333333333</ele><time>2026-04-26T12:25:27.554Z</time></trkpt><trkpt lat="44.2203017" lon="11.6753867"><ele>420.66666666666663</ele><time>2026-04-26T12:25:28.551Z</time></trkpt><trkpt lat="44.220235" lon="11.6754333"><ele>420.0</ele><time>2026-04-26T12:25:29.566Z</time></trkpt><trkpt lat="44.220175" lon="11.6754983"><ele>419.33333333333337</ele><time>2026-04-26T12:25:30.555Z</time></trkpt><trkpt lat="44.2201217" lon="11.675585"><ele>418.6666666666667</ele><time>2026-04-26T12:25:31.554Z</time></trkpt><trkpt lat="44.2200767" lon="11.67569"><ele>418.0</ele><time>2026-04-26T12:25:32.561Z</time></trkpt><trkpt lat="44.2200383" lon="11.675805"><ele>418.00000000000006</ele><time>2026-04-26T12:25:33.555Z</time></trkpt><trkpt lat="44.22" lon="11.6759267"><ele>418.0</ele><time>2026-04-26T12:25:34.562Z</time></trkpt><trkpt lat="44.219965" lon="11.6760433"><ele>418.0</ele><time>2026-04-26T12:25:35.55Z</time></trkpt><trkpt lat="44.2199283" lon="11.6761517"><ele>418.0</ele><time>2026-04-26T12:25:36.55Z</time></trkpt><trkpt lat="44.2198983" lon="11.6762583"><ele>418.00000000000006</ele><time>2026-04-26T12:25:37.564Z</time></trkpt><trkpt lat="44.219885" lon="11.6763617"><ele>418.0</ele><time>2026-04-26T12:25:38.581Z</time></trkpt><trkpt lat="44.2198817" lon="11.6764583"><ele>416.4</ele><time>2026-04-26T12:25:39.567Z</time></trkpt><trkpt lat="44.2199167" lon="11.6766017"><ele>414.79999999999995</ele><time>2026-04-26T12:25:41.561Z</time></trkpt><trkpt lat="44.2200217" lon="11.676675"><ele>413.2</ele><time>2026-04-26T12:25:43.568Z</time></trkpt><trkpt lat="44.2201017" lon="11.6767017"><ele>411.6</ele><time>2026-04-26T12:25:44.553Z</time></trkpt><trkpt lat="44.22019" lon="11.6767283"><ele>410.0</ele><time>2026-04-26T12:25:45.559Z</time></trkpt><trkpt lat="44.220285" lon="11.67676"><ele>410.0</ele><time>2026-04-26T12:25:46.552Z</time></trkpt><trkpt lat="44.2203833" lon="11.6768067"><ele>410.0</ele><time>2026-04-26T12:25:47.557Z</time></trkpt><trkpt lat="44.2204833" lon="11.67687"><ele>410.0</ele><time>2026-04-26T12:25:48.55Z</time></trkpt><trkpt lat="44.2205833" lon="11.6769417"><ele>410.0</ele><time>2026-04-26T12:25:49.563Z</time></trkpt><trkpt lat="44.2206683" lon="11.67701"><ele>410.0</ele><time>2026-04-26T12:25:50.554Z</time></trkpt><trkpt lat="44.2207517" lon="11.6770833"><ele>408.4</ele><time>2026-04-26T12:25:51.555Z</time></trkpt><trkpt lat="44.2208333" lon="11.6771667"><ele>406.8</ele><time>2026-04-26T12:25:52.554Z</time></trkpt><trkpt lat="44.2209" lon="11.6772583"><ele>405.20000000000005</ele><time>2026-04-26T12:25:53.562Z</time></trkpt><trkpt lat="44.220955" lon="11.6773667"><ele>403.6</ele><time>2026-04-26T12:25:54.568Z</time></trkpt><trkpt lat="44.221" lon="11.6774933"><ele>402.0</ele><time>2026-04-26T12:25:55.551Z</time></trkpt><trkpt lat="44.2210333" lon="11.6776417"><ele>398.75</ele><time>2026-04-26T12:25:56.561Z</time></trkpt><trkpt lat="44.2210633" lon="11.6777983"><ele>395.5</ele><time>2026-04-26T12:25:57.557Z</time></trkpt><trkpt lat="44.2211" lon="11.6779583"><ele>392.25</ele><time>2026-04-26T12:25:58.555Z</time></trkpt><trkpt lat="44.221135" lon="11.6781167"><ele>389.0</ele><time>2026-04-26T12:25:59.555Z</time></trkpt><trkpt lat="44.2211767" lon="11.6782717"><ele>389.0</ele><time>2026-04-26T12:26:00.569Z</time></trkpt><trkpt lat="44.2212217" lon="11.6784233"><ele>389.0</ele><time>2026-04-26T12:26:01.567Z</time></trkpt><trkpt lat="44.2212667" lon="11.678575"><ele>389.0</ele><time>2026-04-26T12:26:02.557Z</time></trkpt><trkpt lat="44.2212933" lon="11.6787333"><ele>389.0</ele><time>2026-04-26T12:26:03.581Z</time></trkpt><trkpt lat="44.2213033" lon="11.678895"><ele>386.25</ele><time>2026-04-26T12:26:04.552Z</time></trkpt><trkpt lat="44.2212867" lon="11.6790533"><ele>383.5</ele><time>2026-04-26T12:26:05.547Z</time></trkpt><trkpt lat="44.2212617" lon="11.6792083"><ele>380.75</ele><time>2026-04-26T12:26:06.558Z</time></trkpt><trkpt lat="44.2212333" lon="11.6793617"><ele>378.0</ele><time>2026-04-26T12:26:07.555Z</time></trkpt><trkpt lat="44.2212033" lon="11.679515"><ele>378.0</ele><time>2026-04-26T12:26:08.557Z</time></trkpt><trkpt lat="44.22117" lon="11.6796667"><ele>378.0</ele><time>2026-04-26T12:26:09.562Z</time></trkpt><trkpt lat="44.2211267" lon="11.679805"><ele>378.0</ele><time>2026-04-26T12:26:10.556Z</time></trkpt><trkpt lat="44.2210717" lon="11.6799217"><ele>378.0</ele><time>2026-04-26T12:26:11.554Z</time></trkpt><trkpt lat="44.221015" lon="11.68003"><ele>378.0</ele><time>2026-04-26T12:26:12.559Z</time></trkpt><trkpt lat="44.2209783" lon="11.680145"><ele>378.0</ele><time>2026-04-26T12:26:13.553Z</time></trkpt><trkpt lat="44.2209567" lon="11.6802583"><ele>378.0</ele><time>2026-04-26T12:26:14.564Z</time></trkpt><trkpt lat="44.2209683" lon="11.6803617"><ele>378.0</ele><time>2026-04-26T12:26:15.554Z</time></trkpt><trkpt lat="44.2209983" lon="11.6804617"><ele>378.0</ele><time>2026-04-26T12:26:16.555Z</time></trkpt><trkpt lat="44.2210417" lon="11.6805633"><ele>378.0</ele><time>2026-04-26T12:26:17.561Z</time></trkpt><trkpt lat="44.2211" lon="11.6806633"><ele>378.0</ele><time>2026-04-26T12:26:18.557Z</time></trkpt><trkpt lat="44.2211633" lon="11.6807583"><ele>378.4</ele><time>2026-04-26T12:26:19.556Z</time></trkpt><trkpt lat="44.22123" lon="11.6808367"><ele>378.79999999999995</ele><time>2026-04-26T12:26:20.561Z</time></trkpt><trkpt lat="44.22132" lon="11.68089"><ele>379.2</ele><time>2026-04-26T12:26:21.547Z</time></trkpt><trkpt lat="44.2214217" lon="11.6809183"><ele>379.6</ele><time>2026-04-26T12:26:22.561Z</time></trkpt><trkpt lat="44.2215167" lon="11.6809433"><ele>380.0</ele><time>2026-04-26T12:26:23.558Z</time></trkpt><trkpt lat="44.2216067" lon="11.6809683"><ele>380.0</ele><time>2026-04-26T12:26:24.552Z</time></trkpt><trkpt lat="44.2217017" lon="11.6809917"><ele>380.0</ele><time>2026-04-26T12:26:25.553Z</time></trkpt><trkpt lat="44.2217983" lon="11.681"><ele>380.0</ele><time>2026-04-26T12:26:26.556Z</time></trkpt><trkpt lat="44.2218933" lon="11.68099"><ele>380.0</ele><time>2026-04-26T12:26:27.558Z</time></trkpt><trkpt lat="44.2219817" lon="11.6809367"><ele>380.0</ele><time>2026-04-26T12:26:28.558Z</time></trkpt><trkpt lat="44.2220667" lon="11.68086"><ele>380.0</ele><time>2026-04-26T12:26:29.559Z</time></trkpt><trkpt lat="44.2221433" lon="11.680775"><ele>380.0</ele><time>2026-04-26T12:26:30.582Z</time></trkpt><trkpt lat="44.2222233" lon="11.6806917"><ele>380.0</ele><time>2026-04-26T12:26:31.554Z</time></trkpt><trkpt lat="44.2223033" lon="11.6805983"><ele>380.0</ele><time>2026-04-26T12:26:32.566Z</time></trkpt><trkpt lat="44.222375" lon="11.6804917"><ele>380.0</ele><time>2026-04-26T12:26:33.55Z</time></trkpt><trkpt lat="44.22244" lon="11.6803883"><ele>379.1666666666667</ele><time>2026-04-26T12:26:34.554Z</time></trkpt><trkpt lat="44.222495" lon="11.6802917"><ele>378.33333333333337</ele><time>2026-04-26T12:26:35.548Z</time></trkpt><trkpt lat="44.2225483" lon="11.6801933"><ele>377.5</ele><time>2026-04-26T12:26:36.551Z</time></trkpt><trkpt lat="44.2226017" lon="11.6800917"><ele>376.6666666666667</ele><time>2026-04-26T12:26:37.557Z</time></trkpt><trkpt lat="44.22265" lon="11.6799817"><ele>375.8333333333333</ele><time>2026-04-26T12:26:38.551Z</time></trkpt><trkpt lat="44.2226883" lon="11.6798683"><ele>375.0</ele><time>2026-04-26T12:26:39.556Z</time></trkpt><trkpt lat="44.222725" lon="11.67976"><ele>375.0</ele><time>2026-04-26T12:26:40.559Z</time></trkpt><trkpt lat="44.2227617" lon="11.67966"><ele>375.0</ele><time>2026-04-26T12:26:41.554Z</time></trkpt><trkpt lat="44.2228117" lon="11.67958"><ele>375.0</ele><time>2026-04-26T12:26:42.554Z</time></trkpt><trkpt lat="44.2228733" lon="11.6795267"><ele>375.0</ele><time>2026-04-26T12:26:43.551Z</time></trkpt><trkpt lat="44.2229417" lon="11.679525"><ele>375.0</ele><time>2026-04-26T12:26:44.558Z</time></trkpt><trkpt lat="44.2230017" lon="11.6795633"><ele>375.0</ele><time>2026-04-26T12:26:45.552Z</time></trkpt><trkpt lat="44.223035" lon="11.6796683"><ele>375.0</ele><time>2026-04-26T12:26:46.553Z</time></trkpt><trkpt lat="44.223055" lon="11.679785"><ele>375.0</ele><time>2026-04-26T12:26:47.565Z</time></trkpt><trkpt lat="44.2230567" lon="11.679925"><ele>375.0</ele><time>2026-04-26T12:26:48.558Z</time></trkpt><trkpt lat="44.2230483" lon="11.680075"><ele>375.0</ele><time>2026-04-26T12:26:49.56Z</time></trkpt><trkpt lat="44.2230417" lon="11.68023"><ele>375.0</ele><time>2026-04-26T12:26:50.561Z</time></trkpt><trkpt lat="44.2230433" lon="11.6803883"><ele>375.0</ele><time>2026-04-26T12:26:51.559Z</time></trkpt><trkpt lat="44.22305" lon="11.68055"><ele>373.4</ele><time>2026-04-26T12:26:52.559Z</time></trkpt><trkpt lat="44.22305" lon="11.6807067"><ele>371.8</ele><time>2026-04-26T12:26:53.561Z</time></trkpt><trkpt lat="44.2230317" lon="11.680855"><ele>370.20000000000005</ele><time>2026-04-26T12:26:54.558Z</time></trkpt><trkpt lat="44.2229983" lon="11.6809967"><ele>368.6</ele><time>2026-04-26T12:26:55.559Z</time></trkpt><trkpt lat="44.2229583" lon="11.6811383"><ele>367.0</ele><time>2026-04-26T12:26:56.547Z</time></trkpt><trkpt lat="44.2229233" lon="11.6812883"><ele>366.20000000000005</ele><time>2026-04-26T12:26:57.546Z</time></trkpt><trkpt lat="44.2228933" lon="11.6814433"><ele>365.4</ele><time>2026-04-26T12:26:58.558Z</time></trkpt><trkpt lat="44.2228633" lon="11.6815967"><ele>364.6</ele><time>2026-04-26T12:26:59.553Z</time></trkpt><trkpt lat="44.2228267" lon="11.6817433"><ele>363.79999999999995</ele><time>2026-04-26T12:27:00.55Z</time></trkpt><trkpt lat="44.2227883" lon="11.6818833"><ele>363.0</ele><time>2026-04-26T12:27:01.552Z</time></trkpt><trkpt lat="44.2227467" lon="11.6820217"><ele>360.59999999999997</ele><time>2026-04-26T12:27:02.561Z</time></trkpt><trkpt lat="44.2226917" lon="11.6821467"><ele>358.2</ele><time>2026-04-26T12:27:03.55Z</time></trkpt><trkpt lat="44.2226233" lon="11.68225"><ele>355.8</ele><time>2026-04-26T12:27:04.553Z</time></trkpt><trkpt lat="44.2225467" lon="11.682335"><ele>353.4</ele><time>2026-04-26T12:27:05.557Z</time></trkpt><trkpt lat="44.2224633" lon="11.6824083"><ele>351.0</ele><time>2026-04-26T12:27:06.555Z</time></trkpt><trkpt lat="44.2223817" lon="11.6824817"><ele>350.4</ele><time>2026-04-26T12:27:07.565Z</time></trkpt><trkpt lat="44.2223083" lon="11.6825633"><ele>349.8</ele><time>2026-04-26T12:27:08.547Z</time></trkpt><trkpt lat="44.2222467" lon="11.68266"><ele>349.2</ele><time>2026-04-26T12:27:09.562Z</time></trkpt><trkpt lat="44.2222" lon="11.6827767"><ele>348.59999999999997</ele><time>2026-04-26T12:27:10.544Z</time></trkpt><trkpt lat="44.2221717" lon="11.6829033"><ele>348.0</ele><time>2026-04-26T12:27:11.551Z</time></trkpt><trkpt lat="44.22216" lon="11.68304"><ele>348.0</ele><time>2026-04-26T12:27:12.546Z</time></trkpt><trkpt lat="44.2221517" lon="11.68318"><ele>348.0</ele><time>2026-04-26T12:27:13.562Z</time></trkpt><trkpt lat="44.22214" lon="11.68332"><ele>348.0</ele><time>2026-04-26T12:27:14.561Z</time></trkpt><trkpt lat="44.222125" lon="11.6834583"><ele>348.0</ele><time>2026-04-26T12:27:15.55Z</time></trkpt><trkpt lat="44.2221083" lon="11.683595"><ele>348.0</ele><time>2026-04-26T12:27:16.567Z</time></trkpt><trkpt lat="44.222085" lon="11.6837283"><ele>345.6666666666667</ele><time>2026-04-26T12:27:17.566Z</time></trkpt><trkpt lat="44.2220533" lon="11.6838567"><ele>343.3333333333333</ele><time>2026-04-26T12:27:18.55Z</time></trkpt><trkpt lat="44.222005" lon="11.68397"><ele>341.0</ele><time>2026-04-26T12:27:19.553Z</time></trkpt><trkpt lat="44.2219433" lon="11.6840617"><ele>338.66666666666663</ele><time>2026-04-26T12:27:20.555Z</time></trkpt><trkpt lat="44.2218717" lon="11.6841217"><ele>336.3333333333333</ele><time>2026-04-26T12:27:21.559Z</time></trkpt><trkpt lat="44.2217917" lon="11.68415"><ele>334.0</ele><time>2026-04-26T12:27:22.56Z</time></trkpt><trkpt lat="44.2217117" lon="11.684165"><ele>334.0</ele><time>2026-04-26T12:27:23.552Z</time></trkpt><trkpt lat="44.2216367" lon="11.6841917"><ele>334.0</ele><time>2026-04-26T12:27:24.561Z</time></trkpt><trkpt lat="44.2215717" lon="11.6842483"><ele>334.0</ele><time>2026-04-26T12:27:25.557Z</time></trkpt><trkpt lat="44.2215567" lon="11.68434"><ele>334.0</ele><time>2026-04-26T12:27:26.551Z</time></trkpt><trkpt lat="44.2215533" lon="11.6844317"><ele>334.0</ele><time>2026-04-26T12:27:27.544Z</time></trkpt><trkpt lat="44.2215917" lon="11.6845067"><ele>334.0</ele><time>2026-04-26T12:27:28.583Z</time></trkpt><trkpt lat="44.2216433" lon="11.6845617"><ele>334.0</ele><time>2026-04-26T12:27:29.554Z</time></trkpt><trkpt lat="44.2217117" lon="11.6845867"><ele>334.0</ele><time>2026-04-26T12:27:30.553Z</time></trkpt><trkpt lat="44.2217933" lon="11.6845467"><ele>334.0</ele><time>2026-04-26T12:27:31.564Z</time></trkpt><trkpt lat="44.2218733" lon="11.68448"><ele>334.0</ele><time>2026-04-26T12:27:32.553Z</time></trkpt><trkpt lat="44.2219483" lon="11.6843967"><ele>334.0</ele><time>2026-04-26T12:27:33.563Z</time></trkpt><trkpt lat="44.222025" lon="11.6843033"><ele>334.0</ele><time>2026-04-26T12:27:34.55Z</time></trkpt><trkpt lat="44.2221083" lon="11.6842067"><ele>334.0</ele><time>2026-04-26T12:27:35.548Z</time></trkpt><trkpt lat="44.22219" lon="11.684105"><ele>334.0</ele><time>2026-04-26T12:27:36.552Z</time></trkpt><trkpt lat="44.2222683" lon="11.68401"><ele>334.0</ele><time>2026-04-26T12:27:37.558Z</time></trkpt><trkpt lat="44.2223467" lon="11.68392"><ele>334.0</ele><time>2026-04-26T12:27:38.557Z</time></trkpt><trkpt lat="44.2224267" lon="11.6838383"><ele>334.0</ele><time>2026-04-26T12:27:39.555Z</time></trkpt><trkpt lat="44.2225083" lon="11.6837667"><ele>334.8333333333333</ele><time>2026-04-26T12:27:40.554Z</time></trkpt><trkpt lat="44.2225883" lon="11.683705"><ele>335.66666666666663</ele><time>2026-04-26T12:27:41.547Z</time></trkpt><trkpt lat="44.22267" lon="11.68365"><ele>336.5</ele><time>2026-04-26T12:27:42.553Z</time></trkpt><trkpt lat="44.2227483" lon="11.6835967"><ele>337.3333333333333</ele><time>2026-04-26T12:27:43.558Z</time></trkpt><trkpt lat="44.2228233" lon="11.6835417"><ele>338.1666666666667</ele><time>2026-04-26T12:27:44.559Z</time></trkpt><trkpt lat="44.2228983" lon="11.6834767"><ele>339.0</ele><time>2026-04-26T12:27:45.557Z</time></trkpt><trkpt lat="44.2229733" lon="11.6834"><ele>339.0</ele><time>2026-04-26T12:27:46.557Z</time></trkpt><trkpt lat="44.2230467" lon="11.6833133"><ele>339.0</ele><time>2026-04-26T12:27:47.583Z</time></trkpt><trkpt lat="44.2231267" lon="11.683225"><ele>339.0</ele><time>2026-04-26T12:27:48.567Z</time></trkpt><trkpt lat="44.2232117" lon="11.6831317"><ele>339.0</ele><time>2026-04-26T12:27:49.551Z</time></trkpt><trkpt lat="44.2232967" lon="11.6830333"><ele>339.0</ele><time>2026-04-26T12:27:50.555Z</time></trkpt><trkpt lat="44.223385" lon="11.682935"><ele>338.75</ele><time>2026-04-26T12:27:51.553Z</time></trkpt><trkpt lat="44.2234817" lon="11.68284"><ele>338.5</ele><time>2026-04-26T12:27:52.561Z</time></trkpt><trkpt lat="44.2235833" lon="11.6827467"><ele>338.25</ele><time>2026-04-26T12:27:53.552Z</time></trkpt><trkpt lat="44.2236817" lon="11.6826583"><ele>338.0</ele><time>2026-04-26T12:27:54.56Z</time></trkpt><trkpt lat="44.22378" lon="11.68258"><ele>338.0</ele><time>2026-04-26T12:27:55.55Z</time></trkpt><trkpt lat="44.22388" lon="11.68252"><ele>338.0</ele><time>2026-04-26T12:27:56.544Z</time></trkpt><trkpt lat="44.2239833" lon="11.6824783"><ele>338.0</ele><time>2026-04-26T12:27:57.548Z</time></trkpt><trkpt lat="44.2240783" lon="11.6824317"><ele>338.0</ele><time>2026-04-26T12:27:58.549Z</time></trkpt><trkpt lat="44.2241533" lon="11.68236"><ele>338.0</ele><time>2026-04-26T12:27:59.549Z</time></trkpt><trkpt lat="44.2242133" lon="11.682265"><ele>335.4</ele><time>2026-04-26T12:28:00.56Z</time></trkpt><trkpt lat="44.2242583" lon="11.6821567"><ele>332.79999999999995</ele><time>2026-04-26T12:28:01.554Z</time></trkpt><trkpt lat="44.224305" lon="11.6820533"><ele>330.2</ele><time>2026-04-26T12:28:02.555Z</time></trkpt><trkpt lat="44.2243567" lon="11.681965"><ele>327.6</ele><time>2026-04-26T12:28:03.552Z</time></trkpt><trkpt lat="44.2244217" lon="11.68193"><ele>325.0</ele><time>2026-04-26T12:28:04.564Z</time></trkpt><trkpt lat="44.2245283" lon="11.6820217"><ele>323.6</ele><time>2026-04-26T12:28:06.564Z</time></trkpt><trkpt lat="44.2245433" lon="11.68213"><ele>322.2</ele><time>2026-04-26T12:28:07.569Z</time></trkpt><trkpt lat="44.2245217" lon="11.68224"><ele>320.8</ele><time>2026-04-26T12:28:08.561Z</time></trkpt><trkpt lat="44.2244783" lon="11.682345"><ele>319.4</ele><time>2026-04-26T12:28:09.552Z</time></trkpt><trkpt lat="44.22442" lon="11.6824567"><ele>318.0</ele><time>2026-04-26T12:28:10.547Z</time></trkpt><trkpt lat="44.22436" lon="11.6825767"><ele>318.0</ele><time>2026-04-26T12:28:11.572Z</time></trkpt><trkpt lat="44.2243117" lon="11.68271"><ele>318.0</ele><time>2026-04-26T12:28:12.549Z</time></trkpt><trkpt lat="44.224275" lon="11.68285"><ele>318.0</ele><time>2026-04-26T12:28:13.554Z</time></trkpt><trkpt lat="44.22425" lon="11.6829983"><ele>318.0</ele><time>2026-04-26T12:28:14.56Z</time></trkpt><trkpt lat="44.2242333" lon="11.6831383"><ele>318.0</ele><time>2026-04-26T12:28:15.565Z</time></trkpt><trkpt lat="44.2242267" lon="11.6832783"><ele>315.8</ele><time>2026-04-26T12:28:16.554Z</time></trkpt><trkpt lat="44.2242217" lon="11.6834133"><ele>313.6</ele><time>2026-04-26T12:28:17.549Z</time></trkpt><trkpt lat="44.22421" lon="11.6835483"><ele>311.4</ele><time>2026-04-26T12:28:18.56Z</time></trkpt><trkpt lat="44.2241917" lon="11.68368"><ele>309.2</ele><time>2026-04-26T12:28:19.559Z</time></trkpt><trkpt lat="44.224165" lon="11.683805"><ele>307.0</ele><time>2026-04-26T12:28:20.557Z</time></trkpt><trkpt lat="44.2241317" lon="11.6839267"><ele>307.0</ele><time>2026-04-26T12:28:21.547Z</time></trkpt><trkpt lat="44.2240933" lon="11.68404"><ele>307.0</ele><time>2026-04-26T12:28:22.561Z</time></trkpt><trkpt lat="44.2240517" lon="11.684145"><ele>307.0</ele><time>2026-04-26T12:28:23.553Z</time></trkpt><trkpt lat="44.2240033" lon="11.68424"><ele>307.0</ele><time>2026-04-26T12:28:24.557Z</time></trkpt><trkpt lat="44.223945" lon="11.68432"><ele>307.0</ele><time>2026-04-26T12:28:25.554Z</time></trkpt><trkpt lat="44.2238783" lon="11.684385"><ele>307.0</ele><time>2026-04-26T12:28:26.554Z</time></trkpt><trkpt lat="44.223805" lon="11.68444"><ele>304.66666666666663</ele><time>2026-04-26T12:28:27.56Z</time></trkpt><trkpt lat="44.2237283" lon="11.6844917"><ele>302.3333333333333</ele><time>2026-04-26T12:28:28.547Z</time></trkpt><trkpt lat="44.22365" lon="11.6845367"><ele>300.0</ele><time>2026-04-26T12:28:29.545Z</time></trkpt><trkpt lat="44.2235717" lon="11.6845817"><ele>297.6666666666667</ele><time>2026-04-26T12:28:30.56Z</time></trkpt><trkpt lat="44.22349" lon="11.6846367"><ele>295.33333333333337</ele><time>2026-04-26T12:28:31.557Z</time></trkpt><trkpt lat="44.2234133" lon="11.6847017"><ele>293.0</ele><time>2026-04-26T12:28:32.553Z</time></trkpt><trkpt lat="44.22334" lon="11.6847783"><ele>293.0</ele><time>2026-04-26T12:28:33.55Z</time></trkpt><trkpt lat="44.2232783" lon="11.6848633"><ele>293.0</ele><time>2026-04-26T12:28:34.549Z</time></trkpt><trkpt lat="44.2232217" lon="11.6849517"><ele>293.0</ele><time>2026-04-26T12:28:35.555Z</time></trkpt><trkpt lat="44.2231667" lon="11.6850367"><ele>293.0</ele><time>2026-04-26T12:28:36.558Z</time></trkpt><trkpt lat="44.223115" lon="11.68512"><ele>293.0</ele><time>2026-04-26T12:28:37.557Z</time></trkpt><trkpt lat="44.2230583" lon="11.6851983"><ele>293.0</ele><time>2026-04-26T12:28:38.552Z</time></trkpt><trkpt lat="44.2230017" lon="11.6852783"><ele>292.6</ele><time>2026-04-26T12:28:39.553Z</time></trkpt><trkpt lat="44.2229433" lon="11.6853633"><ele>292.20000000000005</ele><time>2026-04-26T12:28:40.563Z</time></trkpt><trkpt lat="44.222885" lon="11.6854517"><ele>291.8</ele><time>2026-04-26T12:28:41.561Z</time></trkpt><trkpt lat="44.2228267" lon="11.685545"><ele>291.40000000000003</ele><time>2026-04-26T12:28:42.552Z</time></trkpt><trkpt lat="44.2227683" lon="11.68565"><ele>291.0</ele><time>2026-04-26T12:28:43.573Z</time></trkpt><trkpt lat="44.222715" lon="11.6857633"><ele>291.0</ele><time>2026-04-26T12:28:44.558Z</time></trkpt><trkpt lat="44.2226633" lon="11.6858733"><ele>291.0</ele><time>2026-04-26T12:28:45.556Z</time></trkpt><trkpt lat="44.2226033" lon="11.6859667"><ele>291.0</ele><time>2026-04-26T12:28:46.563Z</time></trkpt><trkpt lat="44.2225317" lon="11.68604"><ele>291.0</ele><time>2026-04-26T12:28:47.554Z</time></trkpt><trkpt lat="44.2224533" lon="11.686095"><ele>291.0</ele><time>2026-04-26T12:28:48.561Z</time></trkpt><trkpt lat="44.2223733" lon="11.6861317"><ele>291.0</ele><time>2026-04-26T12:28:49.557Z</time></trkpt><trkpt lat="44.2222933" lon="11.68616"><ele>288.6666666666667</ele><time>2026-04-26T12:28:50.554Z</time></trkpt><trkpt lat="44.2222133" lon="11.6861883"><ele>286.3333333333333</ele><time>2026-04-26T12:28:51.557Z</time></trkpt><trkpt lat="44.2221333" lon="11.6862183"><ele>284.0</ele><time>2026-04-26T12:28:52.556Z</time></trkpt><trkpt lat="44.222055" lon="11.6862617"><ele>281.66666666666663</ele><time>2026-04-26T12:28:53.57Z</time></trkpt><trkpt lat="44.22198" lon="11.6863117"><ele>279.3333333333333</ele><time>2026-04-26T12:28:54.556Z</time></trkpt><trkpt lat="44.221905" lon="11.6863733"><ele>277.0</ele><time>2026-04-26T12:28:55.56Z</time></trkpt><trkpt lat="44.221835" lon="11.68644"><ele>277.0</ele><time>2026-04-26T12:28:56.554Z</time></trkpt><trkpt lat="44.221765" lon="11.6865017"><ele>277.0</ele><time>2026-04-26T12:28:57.559Z</time></trkpt><trkpt lat="44.2216933" lon="11.6865567"><ele>277.0</ele><time>2026-04-26T12:28:58.55Z</time></trkpt><trkpt lat="44.2216183" lon="11.6865917"><ele>277.0</ele><time>2026-04-26T12:28:59.556Z</time></trkpt><trkpt lat="44.221545" lon="11.6866283"><ele>277.0</ele><time>2026-04-26T12:29:00.572Z</time></trkpt><trkpt lat="44.2214817" lon="11.68668"><ele>277.0</ele><time>2026-04-26T12:29:01.557Z</time></trkpt><trkpt lat="44.2214333" lon="11.6867467"><ele>276.0</ele><time>2026-04-26T12:29:02.567Z</time></trkpt><trkpt lat="44.221425" lon="11.6869083"><ele>275.0</ele><time>2026-04-26T12:29:04.557Z</time></trkpt><trkpt lat="44.2215083" lon="11.687005"><ele>274.0</ele><time>2026-04-26T12:29:06.554Z</time></trkpt><trkpt lat="44.2215783" lon="11.68701"><ele>273.0</ele><time>2026-04-26T12:29:07.554Z</time></trkpt><trkpt lat="44.2216583" lon="11.6869933"><ele>272.0</ele><time>2026-04-26T12:29:08.549Z</time></trkpt><trkpt lat="44.2217483" lon="11.6869583"><ele>269.0</ele><time>2026-04-26T12:29:09.556Z</time></trkpt><trkpt lat="44.2218483" lon="11.6869383"><ele>266.0</ele><time>2026-04-26T12:29:10.567Z</time></trkpt><trkpt lat="44.22195" lon="11.686935"><ele>263.0</ele><time>2026-04-26T12:29:11.559Z</time></trkpt><trkpt lat="44.2220517" lon="11.68694"><ele>260.0</ele><time>2026-04-26T12:29:12.547Z</time></trkpt><trkpt lat="44.2221517" lon="11.68695"><ele>257.0</ele><time>2026-04-26T12:29:13.546Z</time></trkpt><trkpt lat="44.2222533" lon="11.6869683"><ele>257.6</ele><time>2026-04-26T12:29:14.557Z</time></trkpt><trkpt lat="44.2223567" lon="11.6869933"><ele>258.2</ele><time>2026-04-26T12:29:15.558Z</time></trkpt><trkpt lat="44.2224567" lon="11.6870333"><ele>258.8</ele><time>2026-04-26T12:29:16.562Z</time></trkpt><trkpt lat="44.22255" lon="11.6870817"><ele>259.4</ele><time>2026-04-26T12:29:17.563Z</time></trkpt><trkpt lat="44.222645" lon="11.6871383"><ele>260.0</ele><time>2026-04-26T12:29:18.554Z</time></trkpt><trkpt lat="44.2227367" lon="11.6871833"><ele>260.0</ele><time>2026-04-26T12:29:19.549Z</time></trkpt><trkpt lat="44.2228333" lon="11.687205"><ele>260.0</ele><time>2026-04-26T12:29:20.556Z</time></trkpt><trkpt lat="44.222925" lon="11.6871867"><ele>260.0</ele><time>2026-04-26T12:29:21.553Z</time></trkpt><trkpt lat="44.223015" lon="11.6871367"><ele>260.0</ele><time>2026-04-26T12:29:22.555Z</time></trkpt><trkpt lat="44.2231017" lon="11.6870583"><ele>260.0</ele><time>2026-04-26T12:29:23.562Z</time></trkpt><trkpt lat="44.2231817" lon="11.68696"><ele>260.0</ele><time>2026-04-26T12:29:24.549Z</time></trkpt><trkpt lat="44.22326" lon="11.6868533"><ele>260.0</ele><time>2026-04-26T12:29:25.556Z</time></trkpt><trkpt lat="44.223335" lon="11.6867433"><ele>260.0</ele><time>2026-04-26T12:29:26.551Z</time></trkpt><trkpt lat="44.2234083" lon="11.686635"><ele>260.0</ele><time>2026-04-26T12:29:27.541Z</time></trkpt><trkpt lat="44.22348" lon="11.6865317"><ele>260.0</ele><time>2026-04-26T12:29:28.555Z</time></trkpt><trkpt lat="44.223555" lon="11.6864367"><ele>260.0</ele><time>2026-04-26T12:29:29.543Z</time></trkpt><trkpt lat="44.2236233" lon="11.6863683"><ele>260.0</ele><time>2026-04-26T12:29:30.549Z</time></trkpt><trkpt lat="44.223685" lon="11.6863483"><ele>260.0</ele><time>2026-04-26T12:29:31.553Z</time></trkpt><trkpt lat="44.2237817" lon="11.6864433"><ele>260.0</ele><time>2026-04-26T12:29:33.553Z</time></trkpt><trkpt lat="44.2237983" lon="11.6865433"><ele>260.0</ele><time>2026-04-26T12:29:34.553Z</time></trkpt><trkpt lat="44.223795" lon="11.6866483"><ele>260.0</ele><time>2026-04-26T12:29:35.554Z</time></trkpt><trkpt lat="44.2237783" lon="11.6867667"><ele>260.0</ele><time>2026-04-26T12:29:36.57Z</time></trkpt><trkpt lat="44.2237667" lon="11.6868967"><ele>260.0</ele><time>2026-04-26T12:29:37.563Z</time></trkpt><trkpt lat="44.2237667" lon="11.6870317"><ele>260.0</ele><time>2026-04-26T12:29:38.559Z</time></trkpt><trkpt lat="44.22378" lon="11.6871667"><ele>260.0</ele><time>2026-04-26T12:29:39.553Z</time></trkpt><trkpt lat="44.223805" lon="11.6873067"><ele>260.0</ele><time>2026-04-26T12:29:40.554Z</time></trkpt><trkpt lat="44.2238283" lon="11.6874467"><ele>258.4</ele><time>2026-04-26T12:29:41.568Z</time></trkpt><trkpt lat="44.2238417" lon="11.6875883"><ele>256.8</ele><time>2026-04-26T12:29:42.549Z</time></trkpt><trkpt lat="44.2238367" lon="11.687735"><ele>255.2</ele><time>2026-04-26T12:29:43.548Z</time></trkpt><trkpt lat="44.2238233" lon="11.6878833"><ele>253.6</ele><time>2026-04-26T12:29:44.557Z</time></trkpt><trkpt lat="44.22381" lon="11.6880317"><ele>252.0</ele><time>2026-04-26T12:29:45.558Z</time></trkpt><trkpt lat="44.2238033" lon="11.6881783"><ele>251.2</ele><time>2026-04-26T12:29:46.568Z</time></trkpt><trkpt lat="44.2237983" lon="11.6883233"><ele>250.39999999999998</ele><time>2026-04-26T12:29:47.556Z</time></trkpt><trkpt lat="44.223795" lon="11.688465"><ele>249.60000000000002</ele><time>2026-04-26T12:29:48.555Z</time></trkpt><trkpt lat="44.2237933" lon="11.6886033"><ele>248.8</ele><time>2026-04-26T12:29:49.553Z</time></trkpt><trkpt lat="44.2237867" lon="11.68873"><ele>248.0</ele><time>2026-04-26T12:29:50.558Z</time></trkpt><trkpt lat="44.2237617" lon="11.6888367"><ele>245.50000000000003</ele><time>2026-04-26T12:29:51.556Z</time></trkpt><trkpt lat="44.2237067" lon="11.688925"><ele>243.0</ele><time>2026-04-26T12:29:52.597Z</time></trkpt><trkpt lat="44.2236267" lon="11.68899"><ele>240.5</ele><time>2026-04-26T12:29:53.558Z</time></trkpt><trkpt lat="44.2235367" lon="11.6890233"><ele>238.0</ele><time>2026-04-26T12:29:54.557Z</time></trkpt><trkpt lat="44.2234467" lon="11.689035"><ele>235.50000000000003</ele><time>2026-04-26T12:29:55.557Z</time></trkpt><trkpt lat="44.2233583" lon="11.6890333"><ele>233.0</ele><time>2026-04-26T12:29:56.552Z</time></trkpt><trkpt lat="44.2232733" lon="11.68902"><ele>233.00000000000003</ele><time>2026-04-26T12:29:57.556Z</time></trkpt><trkpt lat="44.22319" lon="11.6890017"><ele>233.0</ele><time>2026-04-26T12:29:58.547Z</time></trkpt><trkpt lat="44.22311" lon="11.6889783"><ele>233.0</ele><time>2026-04-26T12:29:59.562Z</time></trkpt><trkpt lat="44.22303" lon="11.68896"><ele>233.0</ele><time>2026-04-26T12:30:00.548Z</time></trkpt><trkpt lat="44.22295" lon="11.6889467"><ele>233.00000000000003</ele><time>2026-04-26T12:30:01.564Z</time></trkpt><trkpt lat="44.2228717" lon="11.6889383"><ele>233.0</ele><time>2026-04-26T12:30:02.565Z</time></trkpt><trkpt lat="44.2227967" lon="11.6889317"><ele>232.00000000000003</ele><time>2026-04-26T12:30:03.558Z</time></trkpt><trkpt lat="44.2227217" lon="11.6889233"><ele>231.0</ele><time>2026-04-26T12:30:04.566Z</time></trkpt><trkpt lat="44.2226483" lon="11.6889067"><ele>230.0</ele><time>2026-04-26T12:30:05.559Z</time></trkpt><trkpt lat="44.2225783" lon="11.68889"><ele>229.0</ele><time>2026-04-26T12:30:06.559Z</time></trkpt><trkpt lat="44.2225033" lon="11.688855"><ele>228.00000000000003</ele><time>2026-04-26T12:30:07.558Z</time></trkpt><trkpt lat="44.222435" lon="11.6888033"><ele>227.0</ele><time>2026-04-26T12:30:08.558Z</time></trkpt><trkpt lat="44.2223783" lon="11.6887267"><ele>227.00000000000003</ele><time>2026-04-26T12:30:09.559Z</time></trkpt><trkpt lat="44.2223233" lon="11.6886583"><ele>227.0</ele><time>2026-04-26T12:30:10.569Z</time></trkpt><trkpt lat="44.2222633" lon="11.6886"><ele>227.0</ele><time>2026-04-26T12:30:11.56Z</time></trkpt><trkpt lat="44.222195" lon="11.6885667"><ele>227.0</ele><time>2026-04-26T12:30:12.54Z</time></trkpt><trkpt lat="44.2221283" lon="11.68858"><ele>227.00000000000003</ele><time>2026-04-26T12:30:13.545Z</time></trkpt><trkpt lat="44.2220383" lon="11.6886933"><ele>227.0</ele><time>2026-04-26T12:30:15.558Z</time></trkpt><trkpt lat="44.2220233" lon="11.68886"><ele>227.0</ele><time>2026-04-26T12:30:17.556Z</time></trkpt><trkpt lat="44.2220583" lon="11.6889467"><ele>227.0</ele><time>2026-04-26T12:30:18.56Z</time></trkpt><trkpt lat="44.2221217" lon="11.6890217"><ele>227.0</ele><time>2026-04-26T12:30:19.559Z</time></trkpt><trkpt lat="44.2222083" lon="11.6890833"><ele>227.0</ele><time>2026-04-26T12:30:20.564Z</time></trkpt><trkpt lat="44.2223083" lon="11.6891383"><ele>227.0</ele><time>2026-04-26T12:30:21.56Z</time></trkpt><trkpt lat="44.2224083" lon="11.68919"><ele>227.0</ele><time>2026-04-26T12:30:22.555Z</time></trkpt><trkpt lat="44.2225117" lon="11.6892417"><ele>227.0</ele><time>2026-04-26T12:30:23.555Z</time></trkpt><trkpt lat="44.2226083" lon="11.689305"><ele>227.0</ele><time>2026-04-26T12:30:24.556Z</time></trkpt><trkpt lat="44.2226983" lon="11.6893767"><ele>227.0</ele><time>2026-04-26T12:30:25.551Z</time></trkpt><trkpt lat="44.222795" lon="11.6894533"><ele>227.0</ele><time>2026-04-26T12:30:26.559Z</time></trkpt><trkpt lat="44.222895" lon="11.68953"><ele>223.25</ele><time>2026-04-26T12:30:27.547Z</time></trkpt><trkpt lat="44.222995" lon="11.6896083"><ele>219.5</ele><time>2026-04-26T12:30:28.553Z</time></trkpt><trkpt lat="44.22309" lon="11.68969"><ele>215.75</ele><time>2026-04-26T12:30:29.558Z</time></trkpt><trkpt lat="44.2231933" lon="11.689775"><ele>212.0</ele><time>2026-04-26T12:30:30.56Z</time></trkpt><trkpt lat="44.2232967" lon="11.6898567"><ele>212.0</ele><time>2026-04-26T12:30:31.553Z</time></trkpt><trkpt lat="44.2234017" lon="11.6899383"><ele>212.0</ele><time>2026-04-26T12:30:32.551Z</time></trkpt><trkpt lat="44.2235" lon="11.6900167"><ele>212.0</ele><time>2026-04-26T12:30:33.562Z</time></trkpt><trkpt lat="44.223595" lon="11.6901017"><ele>212.0</ele><time>2026-04-26T12:30:34.551Z</time></trkpt><trkpt lat="44.22369" lon="11.6901933"><ele>210.39999999999998</ele><time>2026-04-26T12:30:35.564Z</time></trkpt><trkpt lat="44.22378" lon="11.6902867"><ele>208.79999999999998</ele><time>2026-04-26T12:30:36.562Z</time></trkpt><trkpt lat="44.2238717" lon="11.6903767"><ele>207.2</ele><time>2026-04-26T12:30:37.573Z</time></trkpt><trkpt lat="44.2239633" lon="11.6904633"><ele>205.6</ele><time>2026-04-26T12:30:38.558Z</time></trkpt><trkpt lat="44.22406" lon="11.6905483"><ele>204.0</ele><time>2026-04-26T12:30:39.558Z</time></trkpt><trkpt lat="44.2241483" lon="11.6906383"><ele>204.0</ele><time>2026-04-26T12:30:40.553Z</time></trkpt><trkpt lat="44.22424" lon="11.6907283"><ele>204.0</ele><time>2026-04-26T12:30:41.548Z</time></trkpt><trkpt lat="44.2243217" lon="11.69082"><ele>204.0</ele><time>2026-04-26T12:30:42.561Z</time></trkpt><trkpt lat="44.224405" lon="11.690915"><ele>204.0</ele><time>2026-04-26T12:30:43.555Z</time></trkpt><trkpt lat="44.2244783" lon="11.69102"><ele>204.0</ele><time>2026-04-26T12:30:44.542Z</time></trkpt><trkpt lat="44.2245467" lon="11.6911283"><ele>203.0</ele><time>2026-04-26T12:30:45.566Z</time></trkpt><trkpt lat="44.2246167" lon="11.691235"><ele>202.0</ele><time>2026-04-26T12:30:46.555Z</time></trkpt><trkpt lat="44.2246883" lon="11.6913317"><ele>201.0</ele><time>2026-04-26T12:30:47.555Z</time></trkpt><trkpt lat="44.2247583" lon="11.691425"><ele>200.0</ele><time>2026-04-26T12:30:48.556Z</time></trkpt><trkpt lat="44.224835" lon="11.691515"><ele>199.0</ele><time>2026-04-26T12:30:49.597Z</time></trkpt><trkpt lat="44.2249167" lon="11.6916"><ele>199.0</ele><time>2026-04-26T12:30:50.555Z</time></trkpt><trkpt lat="44.225005" lon="11.6916783"><ele>199.0</ele><time>2026-04-26T12:30:51.549Z</time></trkpt><trkpt lat="44.2250917" lon="11.691755"><ele>199.0</ele><time>2026-04-26T12:30:52.556Z</time></trkpt><trkpt lat="44.2251767" lon="11.6918267"><ele>199.0</ele><time>2026-04-26T12:30:53.556Z</time></trkpt><trkpt lat="44.2252633" lon="11.6918983"><ele>199.0</ele><time>2026-04-26T12:30:54.544Z</time></trkpt><trkpt lat="44.2253467" lon="11.6919667"><ele>197.2</ele><time>2026-04-26T12:30:55.566Z</time></trkpt><trkpt lat="44.2254333" lon="11.6920333"><ele>195.39999999999998</ele><time>2026-04-26T12:30:56.554Z</time></trkpt><trkpt lat="44.2255117" lon="11.6921067"><ele>193.6</ele><time>2026-04-26T12:30:57.551Z</time></trkpt><trkpt lat="44.2255883" lon="11.6921933"><ele>191.8</ele><time>2026-04-26T12:30:58.554Z</time></trkpt><trkpt lat="44.2256517" lon="11.6923"><ele>190.0</ele><time>2026-04-26T12:30:59.55Z</time></trkpt><trkpt lat="44.225695" lon="11.6924217"><ele>190.0</ele><time>2026-04-26T12:31:00.557Z</time></trkpt><trkpt lat="44.2257267" lon="11.69255"><ele>190.0</ele><time>2026-04-26T12:31:01.556Z</time></trkpt><trkpt lat="44.2257617" lon="11.6926733"><ele>190.0</ele><time>2026-04-26T12:31:02.564Z</time></trkpt><trkpt lat="44.22581" lon="11.6927917"><ele>190.0</ele><time>2026-04-26T12:31:03.558Z</time></trkpt><trkpt lat="44.225865" lon="11.6929033"><ele>190.0</ele><time>2026-04-26T12:31:04.554Z</time></trkpt><trkpt lat="44.2259217" lon="11.693015"><ele>188.8</ele><time>2026-04-26T12:31:05.556Z</time></trkpt><trkpt lat="44.2259783" lon="11.6931283"><ele>187.6</ele><time>2026-04-26T12:31:06.565Z</time></trkpt><trkpt lat="44.2260283" lon="11.6932433"><ele>186.39999999999998</ele><time>2026-04-26T12:31:07.562Z</time></trkpt><trkpt lat="44.2260617" lon="11.6933683"><ele>185.2</ele><time>2026-04-26T12:31:08.563Z</time></trkpt><trkpt lat="44.2260767" lon="11.6935033"><ele>184.0</ele><time>2026-04-26T12:31:09.55Z</time></trkpt><trkpt lat="44.2260767" lon="11.6936367"><ele>181.79999999999998</ele><time>2026-04-26T12:31:10.555Z</time></trkpt><trkpt lat="44.2260583" lon="11.6937683"><ele>179.6</ele><time>2026-04-26T12:31:11.569Z</time></trkpt><trkpt lat="44.22602" lon="11.6938917"><ele>177.4</ele><time>2026-04-26T12:31:12.558Z</time></trkpt><trkpt lat="44.225955" lon="11.6939967"><ele>175.2</ele><time>2026-04-26T12:31:13.551Z</time></trkpt><trkpt lat="44.2258667" lon="11.694065"><ele>173.0</ele><time>2026-04-26T12:31:14.541Z</time></trkpt><trkpt lat="44.2257683" lon="11.6941017"><ele>173.0</ele><time>2026-04-26T12:31:15.564Z</time></trkpt><trkpt lat="44.225665" lon="11.6941233"><ele>173.0</ele><time>2026-04-26T12:31:16.563Z</time></trkpt><trkpt lat="44.225565" lon="11.694145"><ele>173.0</ele><time>2026-04-26T12:31:17.556Z</time></trkpt><trkpt lat="44.2254667" lon="11.69417"><ele>173.0</ele><time>2026-04-26T12:31:18.563Z</time></trkpt><trkpt lat="44.22537" lon="11.694195"><ele>173.0</ele><time>2026-04-26T12:31:19.556Z</time></trkpt><trkpt lat="44.2252833" lon="11.69422"><ele>173.2</ele><time>2026-04-26T12:31:20.546Z</time></trkpt><trkpt lat="44.225205" lon="11.69425"><ele>173.4</ele><time>2026-04-26T12:31:21.562Z</time></trkpt><trkpt lat="44.2251383" lon="11.6942933"><ele>173.6</ele><time>2026-04-26T12:31:22.554Z</time></trkpt><trkpt lat="44.225065" lon="11.694425"><ele>173.79999999999998</ele><time>2026-04-26T12:31:24.563Z</time></trkpt><trkpt lat="44.2250833" lon="11.694575"><ele>174.0</ele><time>2026-04-26T12:31:26.553Z</time></trkpt><trkpt lat="44.22513" lon="11.6946517"><ele>172.5</ele><time>2026-04-26T12:31:27.575Z</time></trkpt><trkpt lat="44.22519" lon="11.694725"><ele>171.0</ele><time>2026-04-26T12:31:28.545Z</time></trkpt><trkpt lat="44.225255" lon="11.6947967"><ele>169.5</ele><time>2026-04-26T12:31:29.547Z</time></trkpt><trkpt lat="44.2253233" lon="11.6948717"><ele>168.0</ele><time>2026-04-26T12:31:30.562Z</time></trkpt><trkpt lat="44.2253883" lon="11.694945"><ele>166.5</ele><time>2026-04-26T12:31:31.555Z</time></trkpt><trkpt lat="44.2254567" lon="11.6950183"><ele>165.0</ele><time>2026-04-26T12:31:32.557Z</time></trkpt><trkpt lat="44.2255283" lon="11.6950883"><ele>165.0</ele><time>2026-04-26T12:31:33.557Z</time></trkpt><trkpt lat="44.2255983" lon="11.6951533"><ele>165.0</ele><time>2026-04-26T12:31:34.549Z</time></trkpt><trkpt lat="44.22567" lon="11.6952133"><ele>165.0</ele><time>2026-04-26T12:31:35.546Z</time></trkpt><trkpt lat="44.2257433" lon="11.6952583"><ele>165.0</ele><time>2026-04-26T12:31:36.557Z</time></trkpt><trkpt lat="44.225815" lon="11.6952817"><ele>165.0</ele><time>2026-04-26T12:31:37.558Z</time></trkpt><trkpt lat="44.2258833" lon="11.6952917"><ele>165.0</ele><time>2026-04-26T12:31:38.559Z</time></trkpt><trkpt lat="44.2259533" lon="11.6952917"><ele>165.0</ele><time>2026-04-26T12:31:39.555Z</time></trkpt><trkpt lat="44.2260217" lon="11.695285"><ele>165.0</ele><time>2026-04-26T12:31:40.561Z</time></trkpt><trkpt lat="44.2260867" lon="11.6952733"><ele>165.0</ele><time>2026-04-26T12:31:41.567Z</time></trkpt><trkpt lat="44.22621" lon="11.6952533"><ele>165.0</ele><time>2026-04-26T12:31:43.564Z</time></trkpt><trkpt lat="44.22633" lon="11.6952467"><ele>165.0</ele><time>2026-04-26T12:31:45.576Z</time></trkpt><trkpt lat="44.2264367" lon="11.69525"><ele>164.8</ele><time>2026-04-26T12:31:47.55Z</time></trkpt><trkpt lat="44.226535" lon="11.695255"><ele>164.6</ele><time>2026-04-26T12:31:49.563Z</time></trkpt><trkpt lat="44.226625" lon="11.69525"><ele>164.39999999999998</ele><time>2026-04-26T12:31:51.554Z</time></trkpt><trkpt lat="44.2267333" lon="11.69524"><ele>164.2</ele><time>2026-04-26T12:31:53.55Z</time></trkpt><trkpt lat="44.2268633" lon="11.6952333"><ele>164.0</ele><time>2026-04-26T12:31:55.564Z</time></trkpt><trkpt lat="44.2269317" lon="11.6952417"><ele>163.39999999999998</ele><time>2026-04-26T12:31:56.553Z</time></trkpt><trkpt lat="44.2269967" lon="11.6952567"><ele>162.8</ele><time>2026-04-26T12:31:57.555Z</time></trkpt><trkpt lat="44.2270583" lon="11.695285"><ele>162.2</ele><time>2026-04-26T12:31:58.543Z</time></trkpt><trkpt lat="44.22716" lon="11.6953617"><ele>161.60000000000002</ele><time>2026-04-26T12:32:00.556Z</time></trkpt><trkpt lat="44.22725" lon="11.6954433"><ele>161.0</ele><time>2026-04-26T12:32:02.551Z</time></trkpt><trkpt lat="44.2273317" lon="11.6955133"><ele>160.60000000000002</ele><time>2026-04-26T12:32:04.561Z</time></trkpt><trkpt lat="44.2274117" lon="11.6955833"><ele>160.20000000000002</ele><time>2026-04-26T12:32:06.562Z</time></trkpt><trkpt lat="44.227495" lon="11.69566"><ele>159.8</ele><time>2026-04-26T12:32:08.557Z</time></trkpt><trkpt lat="44.22758" lon="11.69574"><ele>159.4</ele><time>2026-04-26T12:32:10.566Z</time></trkpt><trkpt lat="44.22766" lon="11.6958167"><ele>159.0</ele><time>2026-04-26T12:32:12.554Z</time></trkpt><trkpt lat="44.22774" lon="11.6958967"><ele>159.0</ele><time>2026-04-26T12:32:14.553Z</time></trkpt><trkpt lat="44.22779" lon="11.69599"><ele>159.0</ele><time>2026-04-26T12:32:16.559Z</time></trkpt><trkpt lat="44.2277883" lon="11.69609"><ele>159.0</ele><time>2026-04-26T12:32:18.551Z</time></trkpt><trkpt lat="44.2277517" lon="11.6962"><ele>159.0</ele><time>2026-04-26T12:32:20.549Z</time></trkpt><trkpt lat="44.227705" lon="11.69633"><ele>159.0</ele><time>2026-04-26T12:32:22.556Z</time></trkpt><trkpt lat="44.2276333" lon="11.6964717"><ele>159.0</ele><time>2026-04-26T12:32:24.561Z</time></trkpt><trkpt lat="44.2275433" lon="11.6965633"><ele>159.0</ele><time>2026-04-26T12:32:26.556Z</time></trkpt><trkpt lat="44.2274767" lon="11.6965883"><ele>159.0</ele><time>2026-04-26T12:32:28.556Z</time></trkpt><trkpt lat="44.2273733" lon="11.6965617"><ele>159.0</ele><time>2026-04-26T12:32:38.547Z</time></trkpt><trkpt lat="44.2272583" lon="11.696565"><ele>159.0</ele><time>2026-04-26T12:32:40.56Z</time></trkpt><trkpt lat="44.227185" lon="11.696575"><ele>160.0</ele><time>2026-04-26T12:32:41.56Z</time></trkpt><trkpt lat="44.2271083" lon="11.696585"><ele>161.0</ele><time>2026-04-26T12:32:42.553Z</time></trkpt><trkpt lat="44.2270317" lon="11.6965967"><ele>162.0</ele><time>2026-04-26T12:32:43.557Z</time></trkpt><trkpt lat="44.22695" lon="11.696605"><ele>163.0</ele><time>2026-04-26T12:32:44.554Z</time></trkpt><trkpt lat="44.226865" lon="11.696615"><ele>164.0</ele><time>2026-04-26T12:32:45.552Z</time></trkpt><trkpt lat="44.22678" lon="11.6966217"><ele>165.0</ele><time>2026-04-26T12:32:46.555Z</time></trkpt><trkpt lat="44.2266967" lon="11.6966183"><ele>165.0</ele><time>2026-04-26T12:32:47.555Z</time></trkpt><trkpt lat="44.2266117" lon="11.69661"><ele>165.0</ele><time>2026-04-26T12:32:48.559Z</time></trkpt><trkpt lat="44.226525" lon="11.696605"><ele>165.0</ele><time>2026-04-26T12:32:49.557Z</time></trkpt><trkpt lat="44.2264333" lon="11.6965967"><ele>165.0</ele><time>2026-04-26T12:32:50.546Z</time></trkpt><trkpt lat="44.2263383" lon="11.6965833"><ele>165.0</ele><time>2026-04-26T12:32:51.551Z</time></trkpt><trkpt lat="44.22624" lon="11.6965567"><ele>166.8</ele><time>2026-04-26T12:32:52.549Z</time></trkpt><trkpt lat="44.2261367" lon="11.6965167"><ele>168.6</ele><time>2026-04-26T12:32:53.548Z</time></trkpt><trkpt lat="44.2260333" lon="11.6964683"><ele>170.39999999999998</ele><time>2026-04-26T12:32:54.555Z</time></trkpt><trkpt lat="44.2259333" lon="11.6964183"><ele>172.2</ele><time>2026-04-26T12:32:55.556Z</time></trkpt><trkpt lat="44.2258383" lon="11.6963617"><ele>174.0</ele><time>2026-04-26T12:32:56.551Z</time></trkpt><trkpt lat="44.2257483" lon="11.6962983"><ele>174.0</ele><time>2026-04-26T12:32:57.55Z</time></trkpt><trkpt lat="44.2256667" lon="11.6962217"><ele>174.0</ele><time>2026-04-26T12:32:58.551Z</time></trkpt><trkpt lat="44.2255933" lon="11.6961367"><ele>174.0</ele><time>2026-04-26T12:32:59.554Z</time></trkpt><trkpt lat="44.225525" lon="11.696045"><ele>174.0</ele><time>2026-04-26T12:33:00.549Z</time></trkpt><trkpt lat="44.2254617" lon="11.69595"><ele>174.0</ele><time>2026-04-26T12:33:01.558Z</time></trkpt><trkpt lat="44.2253983" lon="11.6958467"><ele>174.79999999999998</ele><time>2026-04-26T12:33:02.559Z</time></trkpt><trkpt lat="44.2253333" lon="11.6957417"><ele>175.6</ele><time>2026-04-26T12:33:03.553Z</time></trkpt><trkpt lat="44.2252683" lon="11.69563"><ele>176.4</ele><time>2026-04-26T12:33:04.551Z</time></trkpt><trkpt lat="44.2252033" lon="11.6955183"><ele>177.2</ele><time>2026-04-26T12:33:05.549Z</time></trkpt><trkpt lat="44.225145" lon="11.6954067"><ele>178.0</ele><time>2026-04-26T12:33:06.553Z</time></trkpt><trkpt lat="44.2250833" lon="11.6953"><ele>176.0</ele><time>2026-04-26T12:33:07.549Z</time></trkpt><trkpt lat="44.2250233" lon="11.6951967"><ele>174.0</ele><time>2026-04-26T12:33:08.561Z</time></trkpt><trkpt lat="44.2249633" lon="11.6950967"><ele>172.0</ele><time>2026-04-26T12:33:09.561Z</time></trkpt><trkpt lat="44.2249" lon="11.6950067"><ele>170.0</ele><time>2026-04-26T12:33:10.557Z</time></trkpt><trkpt lat="44.22483" lon="11.6949317"><ele>168.0</ele><time>2026-04-26T12:33:11.55Z</time></trkpt><trkpt lat="44.2247517" lon="11.69487"><ele>168.0</ele><time>2026-04-26T12:33:12.568Z</time></trkpt><trkpt lat="44.2246683" lon="11.6948233"><ele>168.0</ele><time>2026-04-26T12:33:13.545Z</time></trkpt><trkpt lat="44.2245917" lon="11.6947833"><ele>168.0</ele><time>2026-04-26T12:33:14.552Z</time></trkpt><trkpt lat="44.2245233" lon="11.69475"><ele>168.0</ele><time>2026-04-26T12:33:15.547Z</time></trkpt><trkpt lat="44.2244583" lon="11.6947267"><ele>168.0</ele><time>2026-04-26T12:33:16.558Z</time></trkpt><trkpt lat="44.2243967" lon="11.6947083"><ele>168.0</ele><time>2026-04-26T12:33:17.559Z</time></trkpt><trkpt lat="44.2242867" lon="11.6946767"><ele>168.0</ele><time>2026-04-26T12:33:19.566Z</time></trkpt><trkpt lat="44.2241883" lon="11.694655"><ele>168.0</ele><time>2026-04-26T12:33:21.555Z</time></trkpt><trkpt lat="44.22408" lon="11.694655"><ele>168.0</ele><time>2026-04-26T12:33:23.559Z</time></trkpt><trkpt lat="44.2239683" lon="11.6946517"><ele>168.0</ele><time>2026-04-26T12:33:25.56Z</time></trkpt><trkpt lat="44.2238417" lon="11.69464"><ele>168.0</ele><time>2026-04-26T12:33:27.556Z</time></trkpt><trkpt lat="44.2237767" lon="11.6946317"><ele>171.5</ele><time>2026-04-26T12:33:28.551Z</time></trkpt><trkpt lat="44.223655" lon="11.6946017"><ele>175.0</ele><time>2026-04-26T12:33:30.551Z</time></trkpt><trkpt lat="44.2235417" lon="11.69456"><ele>178.5</ele><time>2026-04-26T12:33:32.557Z</time></trkpt><trkpt lat="44.2234317" lon="11.6945"><ele>182.0</ele><time>2026-04-26T12:33:34.551Z</time></trkpt><trkpt lat="44.2233283" lon="11.6944283"><ele>181.75</ele><time>2026-04-26T12:33:36.558Z</time></trkpt><trkpt lat="44.2232233" lon="11.6943683"><ele>181.5</ele><time>2026-04-26T12:33:38.545Z</time></trkpt><trkpt lat="44.2231283" lon="11.694305"><ele>181.25</ele><time>2026-04-26T12:33:40.555Z</time></trkpt><trkpt lat="44.2230333" lon="11.6942267"><ele>181.0</ele><time>2026-04-26T12:33:42.548Z</time></trkpt><trkpt lat="44.2229333" lon="11.6941317"><ele>181.0</ele><time>2026-04-26T12:33:44.555Z</time></trkpt><trkpt lat="44.2228433" lon="11.694015"><ele>181.0</ele><time>2026-04-26T12:33:46.551Z</time></trkpt><trkpt lat="44.2227633" lon="11.693885"><ele>181.0</ele><time>2026-04-26T12:33:48.562Z</time></trkpt><trkpt lat="44.2227217" lon="11.693815"><ele>181.0</ele><time>2026-04-26T12:33:49.555Z</time></trkpt><trkpt lat="44.2226767" lon="11.6937467"><ele>181.0</ele><time>2026-04-26T12:33:50.554Z</time></trkpt><trkpt lat="44.2226333" lon="11.693675"><ele>181.0</ele><time>2026-04-26T12:33:51.559Z</time></trkpt><trkpt lat="44.22259" lon="11.6936033"><ele>180.57142857142856</ele><time>2026-04-26T12:33:52.545Z</time></trkpt><trkpt lat="44.2225467" lon="11.6935317"><ele>180.14285714285714</ele><time>2026-04-26T12:33:53.559Z</time></trkpt><trkpt lat="44.2225017" lon="11.6934583"><ele>179.71428571428572</ele><time>2026-04-26T12:33:54.556Z</time></trkpt><trkpt lat="44.2224567" lon="11.693385"><ele>179.28571428571428</ele><time>2026-04-26T12:33:55.547Z</time></trkpt><trkpt lat="44.2224133" lon="11.6933117"><ele>178.85714285714286</ele><time>2026-04-26T12:33:56.561Z</time></trkpt><trkpt lat="44.22237" lon="11.6932383"><ele>178.42857142857142</ele><time>2026-04-26T12:33:57.557Z</time></trkpt><trkpt lat="44.222325" lon="11.6931717"><ele>178.0</ele><time>2026-04-26T12:33:58.551Z</time></trkpt><trkpt lat="44.22228" lon="11.69311"><ele>179.85714285714283</ele><time>2026-04-26T12:33:59.546Z</time></trkpt><trkpt lat="44.2222333" lon="11.6930483"><ele>181.71428571428572</ele><time>2026-04-26T12:34:00.557Z</time></trkpt><trkpt lat="44.2221833" lon="11.69299"><ele>183.57142857142856</ele><time>2026-04-26T12:34:01.56Z</time></trkpt><trkpt lat="44.22213" lon="11.6929367"><ele>185.42857142857142</ele><time>2026-04-26T12:34:02.554Z</time></trkpt><trkpt lat="44.2220733" lon="11.6928883"><ele>187.28571428571428</ele><time>2026-04-26T12:34:03.554Z</time></trkpt><trkpt lat="44.22201" lon="11.69285"><ele>189.14285714285714</ele><time>2026-04-26T12:34:04.554Z</time></trkpt><trkpt lat="44.2219383" lon="11.69283"><ele>191.0</ele><time>2026-04-26T12:34:05.555Z</time></trkpt><trkpt lat="44.221865" lon="11.69282"><ele>191.0</ele><time>2026-04-26T12:34:06.541Z</time></trkpt><trkpt lat="44.2217933" lon="11.6928133"><ele>191.0</ele><time>2026-04-26T12:34:07.549Z</time></trkpt><trkpt lat="44.2217217" lon="11.6928083"><ele>191.0</ele><time>2026-04-26T12:34:08.551Z</time></trkpt><trkpt lat="44.2216517" lon="11.692805"><ele>191.0</ele><time>2026-04-26T12:34:09.562Z</time></trkpt><trkpt lat="44.2215817" lon="11.6928"><ele>191.0</ele><time>2026-04-26T12:34:10.55Z</time></trkpt><trkpt lat="44.2215167" lon="11.6927933"><ele>191.0</ele><time>2026-04-26T12:34:11.548Z</time></trkpt><trkpt lat="44.2214517" lon="11.6927733"><ele>191.0</ele><time>2026-04-26T12:34:12.55Z</time></trkpt><trkpt lat="44.2213867" lon="11.692745"><ele>191.83333333333331</ele><time>2026-04-26T12:34:13.558Z</time></trkpt><trkpt lat="44.2213267" lon="11.6927"><ele>192.66666666666666</ele><time>2026-04-26T12:34:14.551Z</time></trkpt><trkpt lat="44.2212717" lon="11.6926433"><ele>193.5</ele><time>2026-04-26T12:34:15.55Z</time></trkpt><trkpt lat="44.221185" lon="11.6925333"><ele>194.33333333333331</ele><time>2026-04-26T12:34:17.557Z</time></trkpt><trkpt lat="44.2211317" lon="11.692425"><ele>195.16666666666666</ele><time>2026-04-26T12:34:19.568Z</time></trkpt><trkpt lat="44.2210833" lon="11.6923633"><ele>196.0</ele><time>2026-04-26T12:34:22.567Z</time></trkpt><trkpt lat="44.22109" lon="11.6924517"><ele>196.0</ele><time>2026-04-26T12:34:37.561Z</time></trkpt><trkpt lat="44.2211467" lon="11.692545"><ele>196.0</ele><time>2026-04-26T12:34:39.556Z</time></trkpt><trkpt lat="44.2212317" lon="11.6926517"><ele>196.0</ele><time>2026-04-26T12:34:41.557Z</time></trkpt><trkpt lat="44.2213433" lon="11.6927533"><ele>196.0</ele><time>2026-04-26T12:34:43.573Z</time></trkpt><trkpt lat="44.2214117" lon="11.69279"><ele>196.0</ele><time>2026-04-26T12:34:44.549Z</time></trkpt><trkpt lat="44.2214933" lon="11.6928083"><ele>195.16666666666666</ele><time>2026-04-26T12:34:45.559Z</time></trkpt><trkpt lat="44.2215817" lon="11.6928133"><ele>194.33333333333331</ele><time>2026-04-26T12:34:46.539Z</time></trkpt><trkpt lat="44.22167" lon="11.6928117"><ele>193.5</ele><time>2026-04-26T12:34:47.573Z</time></trkpt><trkpt lat="44.2217567" lon="11.6928133"><ele>192.66666666666666</ele><time>2026-04-26T12:34:48.56Z</time></trkpt><trkpt lat="44.2218433" lon="11.6928217"><ele>191.83333333333331</ele><time>2026-04-26T12:34:49.555Z</time></trkpt><trkpt lat="44.2219267" lon="11.6928383"><ele>191.0</ele><time>2026-04-26T12:34:50.573Z</time></trkpt><trkpt lat="44.2220017" lon="11.6928717"><ele>191.0</ele><time>2026-04-26T12:34:51.554Z</time></trkpt><trkpt lat="44.22207" lon="11.6929217"><ele>191.0</ele><time>2026-04-26T12:34:52.558Z</time></trkpt><trkpt lat="44.22213" lon="11.6929833"><ele>191.0</ele><time>2026-04-26T12:34:53.549Z</time></trkpt><trkpt lat="44.2221867" lon="11.6930483"><ele>191.0</ele><time>2026-04-26T12:34:54.562Z</time></trkpt><trkpt lat="44.22224" lon="11.6931133"><ele>191.0</ele><time>2026-04-26T12:34:55.559Z</time></trkpt><trkpt lat="44.2222933" lon="11.6931783"><ele>191.0</ele><time>2026-04-26T12:34:56.557Z</time></trkpt><trkpt lat="44.2223433" lon="11.69325"><ele>191.0</ele><time>2026-04-26T12:34:57.562Z</time></trkpt><trkpt lat="44.22239" lon="11.6933233"><ele>189.57142857142858</ele><time>2026-04-26T12:34:58.567Z</time></trkpt><trkpt lat="44.2224383" lon="11.6933983"><ele>188.14285714285714</ele><time>2026-04-26T12:34:59.556Z</time></trkpt><trkpt lat="44.2224867" lon="11.6934733"><ele>186.71428571428572</ele><time>2026-04-26T12:35:00.551Z</time></trkpt><trkpt lat="44.2225333" lon="11.6935517"><ele>185.28571428571428</ele><time>2026-04-26T12:35:01.534Z</time></trkpt><trkpt lat="44.2225817" lon="11.69363"><ele>183.85714285714283</ele><time>2026-04-26T12:35:02.554Z</time></trkpt><trkpt lat="44.2226333" lon="11.6937117"><ele>182.42857142857142</ele><time>2026-04-26T12:35:03.57Z</time></trkpt><trkpt lat="44.222685" lon="11.6937917"><ele>181.0</ele><time>2026-04-26T12:35:04.559Z</time></trkpt><trkpt lat="44.222735" lon="11.69387"><ele>181.0</ele><time>2026-04-26T12:35:05.554Z</time></trkpt><trkpt lat="44.2227867" lon="11.69395"><ele>181.0</ele><time>2026-04-26T12:35:06.551Z</time></trkpt><trkpt lat="44.2228367" lon="11.69403"><ele>181.0</ele><time>2026-04-26T12:35:07.551Z</time></trkpt><trkpt lat="44.22289" lon="11.6941083"><ele>181.0</ele><time>2026-04-26T12:35:08.554Z</time></trkpt><trkpt lat="44.2229483" lon="11.694175"><ele>181.0</ele><time>2026-04-26T12:35:09.56Z</time></trkpt><trkpt lat="44.2230217" lon="11.69423"><ele>181.0</ele><time>2026-04-26T12:35:10.56Z</time></trkpt><trkpt lat="44.2230967" lon="11.69428"><ele>181.16666666666669</ele><time>2026-04-26T12:35:11.55Z</time></trkpt><trkpt lat="44.2231717" lon="11.6943283"><ele>181.33333333333334</ele><time>2026-04-26T12:35:12.548Z</time></trkpt><trkpt lat="44.2232417" lon="11.6943817"><ele>181.5</ele><time>2026-04-26T12:35:13.559Z</time></trkpt><trkpt lat="44.2233183" lon="11.6944383"><ele>181.66666666666666</ele><time>2026-04-26T12:35:14.56Z</time></trkpt><trkpt lat="44.2233967" lon="11.6944933"><ele>181.83333333333331</ele><time>2026-04-26T12:35:15.56Z</time></trkpt><trkpt lat="44.22348" lon="11.6945417"><ele>182.0</ele><time>2026-04-26T12:35:16.557Z</time></trkpt><trkpt lat="44.2235683" lon="11.6945783"><ele>182.0</ele><time>2026-04-26T12:35:17.556Z</time></trkpt><trkpt lat="44.22366" lon="11.6946033"><ele>182.0</ele><time>2026-04-26T12:35:18.556Z</time></trkpt><trkpt lat="44.2237533" lon="11.69462"><ele>182.0</ele><time>2026-04-26T12:35:19.561Z</time></trkpt><trkpt lat="44.2238417" lon="11.6946317"><ele>182.0</ele><time>2026-04-26T12:35:20.56Z</time></trkpt><trkpt lat="44.22393" lon="11.6946417"><ele>182.0</ele><time>2026-04-26T12:35:21.556Z</time></trkpt><trkpt lat="44.2240183" lon="11.69465"><ele>179.66666666666666</ele><time>2026-04-26T12:35:22.562Z</time></trkpt><trkpt lat="44.224105" lon="11.6946567"><ele>177.33333333333331</ele><time>2026-04-26T12:35:23.552Z</time></trkpt><trkpt lat="44.22419" lon="11.6946617"><ele>175.0</ele><time>2026-04-26T12:35:24.555Z</time></trkpt><trkpt lat="44.2242683" lon="11.6946767"><ele>172.66666666666666</ele><time>2026-04-26T12:35:25.555Z</time></trkpt><trkpt lat="44.2243433" lon="11.6946967"><ele>170.33333333333334</ele><time>2026-04-26T12:35:26.555Z</time></trkpt><trkpt lat="44.22441" lon="11.6947183"><ele>168.0</ele><time>2026-04-26T12:35:27.553Z</time></trkpt><trkpt lat="44.224525" lon="11.694755"><ele>168.0</ele><time>2026-04-26T12:35:29.554Z</time></trkpt><trkpt lat="44.22463" lon="11.6948033"><ele>168.0</ele><time>2026-04-26T12:35:31.551Z</time></trkpt><trkpt lat="44.22474" lon="11.6948633"><ele>168.0</ele><time>2026-04-26T12:35:33.558Z</time></trkpt><trkpt lat="44.22485" lon="11.6949467"><ele>168.0</ele><time>2026-04-26T12:35:35.556Z</time></trkpt><trkpt lat="44.2249433" lon="11.695065"><ele>167.5</ele><time>2026-04-26T12:35:37.558Z</time></trkpt><trkpt lat="44.2250183" lon="11.6952017"><ele>167.0</ele><time>2026-04-26T12:35:39.559Z</time></trkpt><trkpt lat="44.2250567" lon="11.695275"><ele>166.5</ele><time>2026-04-26T12:35:40.56Z</time></trkpt><trkpt lat="44.2250967" lon="11.6953533"><ele>166.0</ele><time>2026-04-26T12:35:41.56Z</time></trkpt><trkpt lat="44.225135" lon="11.6954333"><ele>165.5</ele><time>2026-04-26T12:35:42.561Z</time></trkpt><trkpt lat="44.2251783" lon="11.6955133"><ele>165.0</ele><time>2026-04-26T12:35:43.553Z</time></trkpt><trkpt lat="44.22522" lon="11.6955967"><ele>167.16666666666666</ele><time>2026-04-26T12:35:44.555Z</time></trkpt><trkpt lat="44.2252617" lon="11.69568"><ele>169.33333333333334</ele><time>2026-04-26T12:35:45.56Z</time></trkpt><trkpt lat="44.2253033" lon="11.6957633"><ele>171.5</ele><time>2026-04-26T12:35:46.557Z</time></trkpt><trkpt lat="44.2253483" lon="11.6958467"><ele>173.66666666666669</ele><time>2026-04-26T12:35:47.558Z</time></trkpt><trkpt lat="44.2253967" lon="11.6959317"><ele>175.83333333333334</ele><time>2026-04-26T12:35:48.563Z</time></trkpt><trkpt lat="44.22545" lon="11.69601"><ele>178.0</ele><time>2026-04-26T12:35:49.57Z</time></trkpt><trkpt lat="44.2255083" lon="11.6960867"><ele>177.2</ele><time>2026-04-26T12:35:50.551Z</time></trkpt><trkpt lat="44.2255767" lon="11.6961617"><ele>176.4</ele><time>2026-04-26T12:35:51.563Z</time></trkpt><trkpt lat="44.22565" lon="11.6962317"><ele>175.6</ele><time>2026-04-26T12:35:52.552Z</time></trkpt><trkpt lat="44.225735" lon="11.696295"><ele>174.79999999999998</ele><time>2026-04-26T12:35:53.553Z</time></trkpt><trkpt lat="44.2258283" lon="11.69635"><ele>174.0</ele><time>2026-04-26T12:35:54.547Z</time></trkpt><trkpt lat="44.22593" lon="11.6964"><ele>174.0</ele><time>2026-04-26T12:35:55.563Z</time></trkpt><trkpt lat="44.2260267" lon="11.69645"><ele>174.0</ele><time>2026-04-26T12:35:56.557Z</time></trkpt><trkpt lat="44.2261283" lon="11.6964983"><ele>174.0</ele><time>2026-04-26T12:35:57.554Z</time></trkpt><trkpt lat="44.2262217" lon="11.6965367"><ele>174.0</ele><time>2026-04-26T12:35:58.556Z</time></trkpt><trkpt lat="44.22631" lon="11.696565"><ele>174.0</ele><time>2026-04-26T12:35:59.556Z</time></trkpt><trkpt lat="44.226395" lon="11.6965883"><ele>174.0</ele><time>2026-04-26T12:36:00.566Z</time></trkpt><trkpt lat="44.2264767" lon="11.6966067"><ele>174.0</ele><time>2026-04-26T12:36:01.56Z</time></trkpt><trkpt lat="44.2265517" lon="11.69662"><ele>174.0</ele><time>2026-04-26T12:36:02.555Z</time></trkpt><trkpt lat="44.2266233" lon="11.6966317"><ele>174.0</ele><time>2026-04-26T12:36:03.561Z</time></trkpt><trkpt lat="44.2266967" lon="11.6966383"><ele>174.0</ele><time>2026-04-26T12:36:04.556Z</time></trkpt><trkpt lat="44.2267783" lon="11.6966367"><ele>174.0</ele><time>2026-04-26T12:36:05.561Z</time></trkpt><trkpt lat="44.2268633" lon="11.6966317"><ele>172.5</ele><time>2026-04-26T12:36:06.555Z</time></trkpt><trkpt lat="44.22695" lon="11.6966283"><ele>171.0</ele><time>2026-04-26T12:36:07.562Z</time></trkpt><trkpt lat="44.2270417" lon="11.696615"><ele>169.5</ele><time>2026-04-26T12:36:08.549Z</time></trkpt><trkpt lat="44.227135" lon="11.6965967"><ele>168.0</ele><time>2026-04-26T12:36:09.552Z</time></trkpt><trkpt lat="44.2272233" lon="11.696585"><ele>166.5</ele><time>2026-04-26T12:36:10.56Z</time></trkpt><trkpt lat="44.2272967" lon="11.69657"><ele>165.0</ele><time>2026-04-26T12:36:11.55Z</time></trkpt><trkpt lat="44.2273967" lon="11.6965433"><ele>163.8</ele><time>2026-04-26T12:36:13.557Z</time></trkpt><trkpt lat="44.2274833" lon="11.6965617"><ele>162.6</ele><time>2026-04-26T12:36:16.549Z</time></trkpt><trkpt lat="44.2275717" lon="11.696535"><ele>161.4</ele><time>2026-04-26T12:36:18.552Z</time></trkpt><trkpt lat="44.22766" lon="11.6964617"><ele>160.2</ele><time>2026-04-26T12:36:20.567Z</time></trkpt><trkpt lat="44.2277233" lon="11.6963483"><ele>159.0</ele><time>2026-04-26T12:36:22.561Z</time></trkpt><trkpt lat="44.2277767" lon="11.696215"><ele>159.0</ele><time>2026-04-26T12:36:24.552Z</time></trkpt><trkpt lat="44.2278267" lon="11.6961"><ele>159.0</ele><time>2026-04-26T12:36:26.545Z</time></trkpt><trkpt lat="44.2278533" lon="11.6960133"><ele>159.0</ele><time>2026-04-26T12:36:29.554Z</time></trkpt><trkpt lat="44.2278017" lon="11.695905"><ele>159.0</ele><time>2026-04-26T12:36:36.561Z</time></trkpt><trkpt lat="44.22772" lon="11.69583"><ele>159.0</ele><time>2026-04-26T12:36:38.548Z</time></trkpt><trkpt lat="44.2276333" lon="11.6957617"><ele>159.0</ele><time>2026-04-26T12:36:40.554Z</time></trkpt><trkpt lat="44.2275367" lon="11.6957033"><ele>159.0</ele><time>2026-04-26T12:36:42.545Z</time></trkpt><trkpt lat="44.227445" lon="11.6956233"><ele>159.0</ele><time>2026-04-26T12:36:44.556Z</time></trkpt><trkpt lat="44.227385" lon="11.69555"><ele>159.0</ele><time>2026-04-26T12:36:46.547Z</time></trkpt><trkpt lat="44.2273317" lon="11.695485"><ele>159.0</ele><time>2026-04-26T12:36:49.545Z</time></trkpt><trkpt lat="44.2272867" lon="11.6955583"><ele>159.0</ele><time>2026-04-26T12:37:13.559Z</time></trkpt><trkpt lat="44.2272533" lon="11.6956717"><ele>161.0</ele><time>2026-04-26T12:37:16.563Z</time></trkpt><trkpt lat="44.2272233" lon="11.6957617"><ele>161.0</ele><time>2026-04-26T12:37:19.555Z</time></trkpt></trkseg><trkseg><trkpt lat="44.2298267" lon="11.7059333"><ele>154.2</ele><time>2026-04-26T13:49:49.56Z</time></trkpt><trkpt lat="44.2298483" lon="11.7061033"><ele>153.4</ele><time>2026-04-26T13:49:51.568Z</time></trkpt><trkpt lat="44.22985" lon="11.7062817"><ele>152.6</ele><time>2026-04-26T13:49:53.57Z</time></trkpt><trkpt lat="44.22985" lon="11.70638"><ele>151.8</ele><time>2026-04-26T13:49:54.561Z</time></trkpt><trkpt lat="44.22985" lon="11.7064917"><ele>151.0</ele><time>2026-04-26T13:49:55.57Z</time></trkpt><trkpt lat="44.2298533" lon="11.7066"><ele>151.0</ele><time>2026-04-26T13:49:56.57Z</time></trkpt><trkpt lat="44.229855" lon="11.706705"><ele>151.0</ele><time>2026-04-26T13:49:57.574Z</time></trkpt><trkpt lat="44.2298567" lon="11.70681"><ele>151.0</ele><time>2026-04-26T13:49:58.566Z</time></trkpt><trkpt lat="44.229865" lon="11.7069067"><ele>151.0</ele><time>2026-04-26T13:49:59.559Z</time></trkpt><trkpt lat="44.229875" lon="11.7070483"><ele>151.0</ele><time>2026-04-26T13:50:01.568Z</time></trkpt><trkpt lat="44.2298683" lon="11.7071533"><ele>151.0</ele><time>2026-04-26T13:50:04.565Z</time></trkpt><trkpt lat="44.2298967" lon="11.7072417"><ele>149.8</ele><time>2026-04-26T13:51:04.584Z</time></trkpt><trkpt lat="44.2299683" lon="11.7073533"><ele>148.6</ele><time>2026-04-26T13:51:06.579Z</time></trkpt><trkpt lat="44.23002" lon="11.7074167"><ele>147.4</ele><time>2026-04-26T13:51:07.582Z</time></trkpt><trkpt lat="44.2300867" lon="11.707495"><ele>146.2</ele><time>2026-04-26T13:51:08.591Z</time></trkpt><trkpt lat="44.2301633" lon="11.7075733"><ele>145.0</ele><time>2026-04-26T13:51:09.585Z</time></trkpt><trkpt lat="44.2302417" lon="11.707655"><ele>145.0</ele><time>2026-04-26T13:51:10.58Z</time></trkpt><trkpt lat="44.2303267" lon="11.70774"><ele>145.0</ele><time>2026-04-26T13:51:11.578Z</time></trkpt><trkpt lat="44.2304117" lon="11.707825"><ele>145.0</ele><time>2026-04-26T13:51:12.574Z</time></trkpt><trkpt lat="44.2304983" lon="11.70791"><ele>145.0</ele><time>2026-04-26T13:51:13.578Z</time></trkpt><trkpt lat="44.2305833" lon="11.7079983"><ele>145.0</ele><time>2026-04-26T13:51:14.577Z</time></trkpt><trkpt lat="44.2306683" lon="11.7080867"><ele>144.5</ele><time>2026-04-26T13:51:15.56Z</time></trkpt><trkpt lat="44.2307567" lon="11.7081767"><ele>144.0</ele><time>2026-04-26T13:51:16.582Z</time></trkpt><trkpt lat="44.2308467" lon="11.7082683"><ele>143.5</ele><time>2026-04-26T13:51:17.575Z</time></trkpt><trkpt lat="44.2309383" lon="11.7083667"><ele>143.0</ele><time>2026-04-26T13:51:18.577Z</time></trkpt><trkpt lat="44.2310317" lon="11.708465"><ele>143.0</ele><time>2026-04-26T13:51:19.58Z</time></trkpt><trkpt lat="44.231125" lon="11.7085633"><ele>143.0</ele><time>2026-04-26T13:51:20.568Z</time></trkpt><trkpt lat="44.2312217" lon="11.7086617"><ele>143.0</ele><time>2026-04-26T13:51:21.577Z</time></trkpt><trkpt lat="44.2313167" lon="11.70876"><ele>143.0</ele><time>2026-04-26T13:51:22.57Z</time></trkpt><trkpt lat="44.23141" lon="11.70886"><ele>144.25</ele><time>2026-04-26T13:51:23.577Z</time></trkpt><trkpt lat="44.231505" lon="11.708965"><ele>145.5</ele><time>2026-04-26T13:51:24.579Z</time></trkpt><trkpt lat="44.2315917" lon="11.7090783"><ele>146.75</ele><time>2026-04-26T13:51:25.572Z</time></trkpt><trkpt lat="44.231665" lon="11.7092033"><ele>148.0</ele><time>2026-04-26T13:51:26.567Z</time></trkpt><trkpt lat="44.2317217" lon="11.709345"><ele>147.0</ele><time>2026-04-26T13:51:27.577Z</time></trkpt><trkpt lat="44.2317633" lon="11.7094983"><ele>146.0</ele><time>2026-04-26T13:51:28.578Z</time></trkpt><trkpt lat="44.2317933" lon="11.7096583"><ele>145.0</ele><time>2026-04-26T13:51:29.577Z</time></trkpt><trkpt lat="44.2318167" lon="11.7098233"><ele>144.0</ele><time>2026-04-26T13:51:30.575Z</time></trkpt><trkpt lat="44.2318417" lon="11.7099933"><ele>144.0</ele><time>2026-04-26T13:51:31.578Z</time></trkpt><trkpt lat="44.23187" lon="11.7101633"><ele>144.0</ele><time>2026-04-26T13:51:32.567Z</time></trkpt><trkpt lat="44.231895" lon="11.710335"><ele>144.0</ele><time>2026-04-26T13:51:33.565Z</time></trkpt><trkpt lat="44.23192" lon="11.7104983"><ele>144.0</ele><time>2026-04-26T13:51:34.564Z</time></trkpt><trkpt lat="44.2319433" lon="11.7106567"><ele>143.2</ele><time>2026-04-26T13:51:35.579Z</time></trkpt><trkpt lat="44.2319667" lon="11.7108017"><ele>142.4</ele><time>2026-04-26T13:51:36.573Z</time></trkpt><trkpt lat="44.231995" lon="11.7109333"><ele>141.6</ele><time>2026-04-26T13:51:37.576Z</time></trkpt><trkpt lat="44.232035" lon="11.7110533"><ele>140.8</ele><time>2026-04-26T13:51:38.574Z</time></trkpt><trkpt lat="44.2320917" lon="11.7111567"><ele>140.0</ele><time>2026-04-26T13:51:39.57Z</time></trkpt><trkpt lat="44.23216" lon="11.7112383"><ele>139.8</ele><time>2026-04-26T13:51:40.574Z</time></trkpt><trkpt lat="44.2322383" lon="11.7113067"><ele>139.6</ele><time>2026-04-26T13:51:41.576Z</time></trkpt><trkpt lat="44.2323233" lon="11.7113667"><ele>139.4</ele><time>2026-04-26T13:51:42.577Z</time></trkpt><trkpt lat="44.232415" lon="11.711425"><ele>139.2</ele><time>2026-04-26T13:51:43.579Z</time></trkpt><trkpt lat="44.2325133" lon="11.7114783"><ele>139.0</ele><time>2026-04-26T13:51:44.578Z</time></trkpt><trkpt lat="44.2326133" lon="11.71153"><ele>139.0</ele><time>2026-04-26T13:51:45.566Z</time></trkpt><trkpt lat="44.232715" lon="11.7115917"><ele>139.0</ele><time>2026-04-26T13:51:46.571Z</time></trkpt><trkpt lat="44.2328217" lon="11.7116567"><ele>139.0</ele><time>2026-04-26T13:51:47.564Z</time></trkpt><trkpt lat="44.232935" lon="11.7117217"><ele>139.0</ele><time>2026-04-26T13:51:48.56Z</time></trkpt><trkpt lat="44.2330483" lon="11.711785"><ele>139.25</ele><time>2026-04-26T13:51:49.585Z</time></trkpt><trkpt lat="44.2331667" lon="11.7118467"><ele>139.5</ele><time>2026-04-26T13:51:50.568Z</time></trkpt><trkpt lat="44.2332867" lon="11.7119083"><ele>139.75</ele><time>2026-04-26T13:51:51.575Z</time></trkpt><trkpt lat="44.233405" lon="11.71197"><ele>140.0</ele><time>2026-04-26T13:51:52.574Z</time></trkpt><trkpt lat="44.2335217" lon="11.7120333"><ele>140.0</ele><time>2026-04-26T13:51:53.574Z</time></trkpt><trkpt lat="44.2336383" lon="11.7121"><ele>140.0</ele><time>2026-04-26T13:51:54.575Z</time></trkpt><trkpt lat="44.2337567" lon="11.7121683"><ele>140.0</ele><time>2026-04-26T13:51:55.579Z</time></trkpt><trkpt lat="44.2338683" lon="11.7122367"><ele>140.0</ele><time>2026-04-26T13:51:56.579Z</time></trkpt><trkpt lat="44.2339717" lon="11.7123117"><ele>140.25</ele><time>2026-04-26T13:51:57.58Z</time></trkpt><trkpt lat="44.23407" lon="11.7124033"><ele>140.5</ele><time>2026-04-26T13:51:58.58Z</time></trkpt><trkpt lat="44.234155" lon="11.7125133"><ele>140.75</ele><time>2026-04-26T13:51:59.566Z</time></trkpt><trkpt lat="44.23423" lon="11.71264"><ele>141.0</ele><time>2026-04-26T13:52:00.58Z</time></trkpt><trkpt lat="44.2343017" lon="11.7127783"><ele>143.0</ele><time>2026-04-26T13:52:01.577Z</time></trkpt><trkpt lat="44.2343717" lon="11.7129267"><ele>145.0</ele><time>2026-04-26T13:52:02.57Z</time></trkpt><trkpt lat="44.2344433" lon="11.713075"><ele>147.0</ele><time>2026-04-26T13:52:03.571Z</time></trkpt><trkpt lat="44.23452" lon="11.7132233"><ele>149.0</ele><time>2026-04-26T13:52:04.575Z</time></trkpt><trkpt lat="44.234595" lon="11.7133667"><ele>149.0</ele><time>2026-04-26T13:52:05.572Z</time></trkpt><trkpt lat="44.2346717" lon="11.71351"><ele>149.0</ele><time>2026-04-26T13:52:06.581Z</time></trkpt><trkpt lat="44.234755" lon="11.7136533"><ele>149.0</ele><time>2026-04-26T13:52:07.576Z</time></trkpt><trkpt lat="44.2348417" lon="11.7137933"><ele>149.0</ele><time>2026-04-26T13:52:08.576Z</time></trkpt><trkpt lat="44.2349333" lon="11.7139267"><ele>147.0</ele><time>2026-04-26T13:52:09.578Z</time></trkpt><trkpt lat="44.23503" lon="11.7140567"><ele>145.0</ele><time>2026-04-26T13:52:10.576Z</time></trkpt><trkpt lat="44.2351317" lon="11.7141767"><ele>143.0</ele><time>2026-04-26T13:52:11.573Z</time></trkpt><trkpt lat="44.2352383" lon="11.7142917"><ele>141.0</ele><time>2026-04-26T13:52:12.573Z</time></trkpt><trkpt lat="44.2353467" lon="11.7144"><ele>142.2</ele><time>2026-04-26T13:52:13.569Z</time></trkpt><trkpt lat="44.2354483" lon="11.7144983"><ele>143.39999999999998</ele><time>2026-04-26T13:52:14.578Z</time></trkpt><trkpt lat="44.235545" lon="11.7145867"><ele>144.6</ele><time>2026-04-26T13:52:15.593Z</time></trkpt><trkpt lat="44.235635" lon="11.7146683"><ele>145.79999999999998</ele><time>2026-04-26T13:52:16.585Z</time></trkpt><trkpt lat="44.2357167" lon="11.7147467"><ele>147.0</ele><time>2026-04-26T13:52:17.57Z</time></trkpt><trkpt lat="44.2358" lon="11.7148183"><ele>147.0</ele><time>2026-04-26T13:52:18.576Z</time></trkpt><trkpt lat="44.2358867" lon="11.7148783"><ele>147.0</ele><time>2026-04-26T13:52:19.566Z</time></trkpt><trkpt lat="44.2359733" lon="11.7149433"><ele>147.0</ele><time>2026-04-26T13:52:20.568Z</time></trkpt><trkpt lat="44.236045" lon="11.7150317"><ele>147.0</ele><time>2026-04-26T13:52:21.588Z</time></trkpt><trkpt lat="44.2361033" lon="11.7151383"><ele>147.0</ele><time>2026-04-26T13:52:22.57Z</time></trkpt><trkpt lat="44.2361517" lon="11.7152717"><ele>147.79999999999998</ele><time>2026-04-26T13:52:23.58Z</time></trkpt><trkpt lat="44.236185" lon="11.7154133"><ele>148.6</ele><time>2026-04-26T13:52:24.585Z</time></trkpt><trkpt lat="44.2361983" lon="11.71556"><ele>149.39999999999998</ele><time>2026-04-26T13:52:25.578Z</time></trkpt><trkpt lat="44.236205" lon="11.715715"><ele>150.2</ele><time>2026-04-26T13:52:26.593Z</time></trkpt><trkpt lat="44.2362083" lon="11.7158683"><ele>151.0</ele><time>2026-04-26T13:52:27.568Z</time></trkpt><trkpt lat="44.23622" lon="11.71602"><ele>152.75</ele><time>2026-04-26T13:52:28.569Z</time></trkpt><trkpt lat="44.236255" lon="11.7161633"><ele>154.5</ele><time>2026-04-26T13:52:29.561Z</time></trkpt><trkpt lat="44.2363133" lon="11.7162967"><ele>156.25</ele><time>2026-04-26T13:52:30.563Z</time></trkpt><trkpt lat="44.2363883" lon="11.71642"><ele>158.0</ele><time>2026-04-26T13:52:31.571Z</time></trkpt><trkpt lat="44.2364683" lon="11.71654"><ele>154.0</ele><time>2026-04-26T13:52:32.559Z</time></trkpt><trkpt lat="44.2365467" lon="11.71666"><ele>150.0</ele><time>2026-04-26T13:52:33.559Z</time></trkpt><trkpt lat="44.236615" lon="11.71679"><ele>146.0</ele><time>2026-04-26T13:52:34.568Z</time></trkpt><trkpt lat="44.2366683" lon="11.716935"><ele>142.0</ele><time>2026-04-26T13:52:35.566Z</time></trkpt><trkpt lat="44.236695" lon="11.7170983"><ele>142.0</ele><time>2026-04-26T13:52:36.569Z</time></trkpt><trkpt lat="44.2367067" lon="11.71727"><ele>142.0</ele><time>2026-04-26T13:52:37.569Z</time></trkpt><trkpt lat="44.2367033" lon="11.7174467"><ele>142.0</ele><time>2026-04-26T13:52:38.579Z</time></trkpt><trkpt lat="44.2366967" lon="11.7176233"><ele>142.0</ele><time>2026-04-26T13:52:39.582Z</time></trkpt><trkpt lat="44.23669" lon="11.7178017"><ele>142.25</ele><time>2026-04-26T13:52:40.56Z</time></trkpt><trkpt lat="44.2366883" lon="11.71798"><ele>142.5</ele><time>2026-04-26T13:52:41.577Z</time></trkpt><trkpt lat="44.2366933" lon="11.71816"><ele>142.75</ele><time>2026-04-26T13:52:42.577Z</time></trkpt><trkpt lat="44.2367" lon="11.7183367"><ele>143.0</ele><time>2026-04-26T13:52:43.587Z</time></trkpt><trkpt lat="44.23671" lon="11.7185133"><ele>144.5</ele><time>2026-04-26T13:52:44.58Z</time></trkpt><trkpt lat="44.2367283" lon="11.71869"><ele>146.0</ele><time>2026-04-26T13:52:45.579Z</time></trkpt><trkpt lat="44.236755" lon="11.7188567"><ele>147.5</ele><time>2026-04-26T13:52:46.578Z</time></trkpt><trkpt lat="44.236785" lon="11.7190133"><ele>149.0</ele><time>2026-04-26T13:52:47.58Z</time></trkpt><trkpt lat="44.23681" lon="11.7191617"><ele>149.0</ele><time>2026-04-26T13:52:48.577Z</time></trkpt><trkpt lat="44.2368233" lon="11.7193133"><ele>149.0</ele><time>2026-04-26T13:52:49.576Z</time></trkpt><trkpt lat="44.2368183" lon="11.7194633"><ele>149.0</ele><time>2026-04-26T13:52:50.573Z</time></trkpt><trkpt lat="44.2367933" lon="11.7196133"><ele>149.0</ele><time>2026-04-26T13:52:51.596Z</time></trkpt><trkpt lat="44.236755" lon="11.7197667"><ele>149.0</ele><time>2026-04-26T13:52:52.562Z</time></trkpt><trkpt lat="44.2367083" lon="11.7199233"><ele>149.25</ele><time>2026-04-26T13:52:53.567Z</time></trkpt><trkpt lat="44.23666" lon="11.72008"><ele>149.5</ele><time>2026-04-26T13:52:54.6Z</time></trkpt><trkpt lat="44.2366183" lon="11.720245"><ele>149.75</ele><time>2026-04-26T13:52:55.572Z</time></trkpt><trkpt lat="44.236585" lon="11.7204217"><ele>150.0</ele><time>2026-04-26T13:52:56.568Z</time></trkpt><trkpt lat="44.2365633" lon="11.720595"><ele>150.4</ele><time>2026-04-26T13:52:57.569Z</time></trkpt><trkpt lat="44.23655" lon="11.7207683"><ele>150.8</ele><time>2026-04-26T13:52:58.593Z</time></trkpt><trkpt lat="44.2365383" lon="11.7209267"><ele>151.2</ele><time>2026-04-26T13:52:59.588Z</time></trkpt><trkpt lat="44.23654" lon="11.7210633"><ele>151.6</ele><time>2026-04-26T13:53:00.567Z</time></trkpt><trkpt lat="44.2365617" lon="11.7211817"><ele>152.0</ele><time>2026-04-26T13:53:01.572Z</time></trkpt><trkpt lat="44.2366133" lon="11.7212783"><ele>152.0</ele><time>2026-04-26T13:53:02.577Z</time></trkpt><trkpt lat="44.236695" lon="11.7213567"><ele>152.0</ele><time>2026-04-26T13:53:03.576Z</time></trkpt><trkpt lat="44.236795" lon="11.7214117"><ele>152.0</ele><time>2026-04-26T13:53:04.574Z</time></trkpt><trkpt lat="44.2369083" lon="11.7214467"><ele>152.0</ele><time>2026-04-26T13:53:05.574Z</time></trkpt><trkpt lat="44.23703" lon="11.7214783"><ele>152.0</ele><time>2026-04-26T13:53:06.583Z</time></trkpt><trkpt lat="44.237155" lon="11.721515"><ele>152.0</ele><time>2026-04-26T13:53:07.586Z</time></trkpt><trkpt lat="44.23728" lon="11.7215567"><ele>152.0</ele><time>2026-04-26T13:53:08.596Z</time></trkpt><trkpt lat="44.237395" lon="11.7216183"><ele>152.0</ele><time>2026-04-26T13:53:09.582Z</time></trkpt><trkpt lat="44.237495" lon="11.721705"><ele>152.0</ele><time>2026-04-26T13:53:10.578Z</time></trkpt><trkpt lat="44.2375817" lon="11.7218167"><ele>151.0</ele><time>2026-04-26T13:53:11.574Z</time></trkpt><trkpt lat="44.2376583" lon="11.7219433"><ele>150.0</ele><time>2026-04-26T13:53:12.59Z</time></trkpt><trkpt lat="44.237725" lon="11.7220833"><ele>149.0</ele><time>2026-04-26T13:53:13.599Z</time></trkpt><trkpt lat="44.237785" lon="11.7222317"><ele>148.0</ele><time>2026-04-26T13:53:14.591Z</time></trkpt><trkpt lat="44.2378383" lon="11.7223933"><ele>148.0</ele><time>2026-04-26T13:53:15.575Z</time></trkpt><trkpt lat="44.237875" lon="11.72256"><ele>148.0</ele><time>2026-04-26T13:53:16.571Z</time></trkpt><trkpt lat="44.2379083" lon="11.7227217"><ele>148.0</ele><time>2026-04-26T13:53:17.584Z</time></trkpt><trkpt lat="44.23795" lon="11.722875"><ele>148.0</ele><time>2026-04-26T13:53:18.575Z</time></trkpt><trkpt lat="44.2380117" lon="11.7230133"><ele>149.75</ele><time>2026-04-26T13:53:19.589Z</time></trkpt><trkpt lat="44.2380983" lon="11.72313"><ele>151.5</ele><time>2026-04-26T13:53:20.566Z</time></trkpt><trkpt lat="44.2382017" lon="11.7232283"><ele>153.25</ele><time>2026-04-26T13:53:21.576Z</time></trkpt><trkpt lat="44.2383133" lon="11.7233117"><ele>155.0</ele><time>2026-04-26T13:53:22.574Z</time></trkpt><trkpt lat="44.2384283" lon="11.7233933"><ele>153.5</ele><time>2026-04-26T13:53:23.575Z</time></trkpt><trkpt lat="44.2385417" lon="11.7234817"><ele>152.0</ele><time>2026-04-26T13:53:24.572Z</time></trkpt><trkpt lat="44.2386633" lon="11.723575"><ele>150.5</ele><time>2026-04-26T13:53:25.573Z</time></trkpt><trkpt lat="44.2387833" lon="11.7236683"><ele>149.0</ele><time>2026-04-26T13:53:26.571Z</time></trkpt><trkpt lat="44.2389017" lon="11.7237683"><ele>145.25</ele><time>2026-04-26T13:53:27.569Z</time></trkpt><trkpt lat="44.2390167" lon="11.7238683"><ele>141.5</ele><time>2026-04-26T13:53:28.576Z</time></trkpt><trkpt lat="44.2391333" lon="11.72397"><ele>137.75</ele><time>2026-04-26T13:53:29.578Z</time></trkpt><trkpt lat="44.2392433" lon="11.7240683"><ele>134.0</ele><time>2026-04-26T13:53:30.58Z</time></trkpt><trkpt lat="44.23935" lon="11.7241567"><ele>134.0</ele><time>2026-04-26T13:53:31.573Z</time></trkpt><trkpt lat="44.2394617" lon="11.7242333"><ele>134.0</ele><time>2026-04-26T13:53:32.569Z</time></trkpt><trkpt lat="44.2395633" lon="11.7243217"><ele>134.0</ele><time>2026-04-26T13:53:33.582Z</time></trkpt><trkpt lat="44.2396467" lon="11.72443"><ele>134.0</ele><time>2026-04-26T13:53:34.606Z</time></trkpt><trkpt lat="44.2397133" lon="11.72456"><ele>134.75</ele><time>2026-04-26T13:53:35.575Z</time></trkpt><trkpt lat="44.2397583" lon="11.7247067"><ele>135.5</ele><time>2026-04-26T13:53:36.569Z</time></trkpt><trkpt lat="44.2397967" lon="11.724865"><ele>136.25</ele><time>2026-04-26T13:53:37.576Z</time></trkpt><trkpt lat="44.2398267" lon="11.725035"><ele>137.0</ele><time>2026-04-26T13:53:38.589Z</time></trkpt><trkpt lat="44.2398567" lon="11.7252083"><ele>132.25</ele><time>2026-04-26T13:53:39.57Z</time></trkpt><trkpt lat="44.2398917" lon="11.7253733"><ele>127.5</ele><time>2026-04-26T13:53:40.566Z</time></trkpt><trkpt lat="44.2399283" lon="11.7255367"><ele>122.75</ele><time>2026-04-26T13:53:41.558Z</time></trkpt><trkpt lat="44.23996" lon="11.7256983"><ele>118.0</ele><time>2026-04-26T13:53:42.566Z</time></trkpt><trkpt lat="44.23998" lon="11.725865"><ele>118.0</ele><time>2026-04-26T13:53:43.563Z</time></trkpt><trkpt lat="44.2399817" lon="11.72603"><ele>118.0</ele><time>2026-04-26T13:53:44.563Z</time></trkpt><trkpt lat="44.2399583" lon="11.7261883"><ele>118.0</ele><time>2026-04-26T13:53:45.573Z</time></trkpt><trkpt lat="44.239915" lon="11.726335"><ele>118.0</ele><time>2026-04-26T13:53:46.573Z</time></trkpt><trkpt lat="44.2398583" lon="11.726475"><ele>119.80000000000001</ele><time>2026-04-26T13:53:47.584Z</time></trkpt><trkpt lat="44.2397933" lon="11.7266117"><ele>121.60000000000001</ele><time>2026-04-26T13:53:48.564Z</time></trkpt><trkpt lat="44.2397283" lon="11.7267483"><ele>123.39999999999999</ele><time>2026-04-26T13:53:49.573Z</time></trkpt><trkpt lat="44.2396683" lon="11.726875"><ele>125.19999999999999</ele><time>2026-04-26T13:53:50.573Z</time></trkpt><trkpt lat="44.23962" lon="11.7269883"><ele>127.0</ele><time>2026-04-26T13:53:51.567Z</time></trkpt><trkpt lat="44.239595" lon="11.7270983"><ele>127.00000000000001</ele><time>2026-04-26T13:53:52.57Z</time></trkpt><trkpt lat="44.23959" lon="11.72721"><ele>127.0</ele><time>2026-04-26T13:53:53.567Z</time></trkpt><trkpt lat="44.2396033" lon="11.727305"><ele>127.0</ele><time>2026-04-26T13:53:54.565Z</time></trkpt><trkpt lat="44.2396767" lon="11.727335"><ele>127.0</ele><time>2026-04-26T13:53:55.576Z</time></trkpt><trkpt lat="44.239755" lon="11.7273483"><ele>127.00000000000001</ele><time>2026-04-26T13:53:56.57Z</time></trkpt><trkpt lat="44.2398333" lon="11.7273317"><ele>127.0</ele><time>2026-04-26T13:53:57.57Z</time></trkpt><trkpt lat="44.23995" lon="11.7272133"><ele>125.14285714285714</ele><time>2026-04-26T13:53:59.573Z</time></trkpt><trkpt lat="44.2399733" lon="11.7271"><ele>123.28571428571428</ele><time>2026-04-26T13:54:00.57Z</time></trkpt><trkpt lat="44.2399883" lon="11.72699"><ele>121.42857142857142</ele><time>2026-04-26T13:54:01.567Z</time></trkpt><trkpt lat="44.240015" lon="11.7268983"><ele>119.57142857142857</ele><time>2026-04-26T13:54:02.578Z</time></trkpt><trkpt lat="44.24006" lon="11.7268167"><ele>117.7142857142857</ele><time>2026-04-26T13:54:03.576Z</time></trkpt><trkpt lat="44.2401283" lon="11.7267967"><ele>115.85714285714285</ele><time>2026-04-26T13:54:04.578Z</time></trkpt><trkpt lat="44.2401917" lon="11.726805"><ele>114.0</ele><time>2026-04-26T13:54:05.576Z</time></trkpt><trkpt lat="44.2402417" lon="11.72686"><ele>113.0</ele><time>2026-04-26T13:54:06.572Z</time></trkpt><trkpt lat="44.24027" lon="11.7269667"><ele>112.0</ele><time>2026-04-26T13:54:07.562Z</time></trkpt><trkpt lat="44.240275" lon="11.7270933"><ele>111.0</ele><time>2026-04-26T13:54:08.569Z</time></trkpt><trkpt lat="44.2402633" lon="11.727225"><ele>110.0</ele><time>2026-04-26T13:54:09.564Z</time></trkpt><trkpt lat="44.2402633" lon="11.727365"><ele>109.0</ele><time>2026-04-26T13:54:10.569Z</time></trkpt><trkpt lat="44.24028" lon="11.7275017"><ele>109.0</ele><time>2026-04-26T13:54:11.558Z</time></trkpt><trkpt lat="44.240325" lon="11.7276283"><ele>109.0</ele><time>2026-04-26T13:54:12.563Z</time></trkpt><trkpt lat="44.2403883" lon="11.7277417"><ele>109.0</ele><time>2026-04-26T13:54:13.565Z</time></trkpt><trkpt lat="44.2404667" lon="11.7278517"><ele>109.0</ele><time>2026-04-26T13:54:14.562Z</time></trkpt><trkpt lat="44.2405517" lon="11.7279633"><ele>109.0</ele><time>2026-04-26T13:54:15.574Z</time></trkpt><trkpt lat="44.2406417" lon="11.728075"><ele>110.25</ele><time>2026-04-26T13:54:16.568Z</time></trkpt><trkpt lat="44.2407267" lon="11.7281883"><ele>111.5</ele><time>2026-04-26T13:54:17.583Z</time></trkpt><trkpt lat="44.2408117" lon="11.728305"><ele>112.75</ele><time>2026-04-26T13:54:18.57Z</time></trkpt><trkpt lat="44.2408917" lon="11.72843"><ele>114.0</ele><time>2026-04-26T13:54:19.566Z</time></trkpt><trkpt lat="44.2409617" lon="11.7285667"><ele>114.0</ele><time>2026-04-26T13:54:20.573Z</time></trkpt><trkpt lat="44.2410133" lon="11.7287183"><ele>114.0</ele><time>2026-04-26T13:54:21.578Z</time></trkpt><trkpt lat="44.2410567" lon="11.72888"><ele>114.0</ele><time>2026-04-26T13:54:22.588Z</time></trkpt><trkpt lat="44.2410833" lon="11.7290483"><ele>114.0</ele><time>2026-04-26T13:54:23.59Z</time></trkpt><trkpt lat="44.24111" lon="11.7292167"><ele>114.0</ele><time>2026-04-26T13:54:24.587Z</time></trkpt><trkpt lat="44.2411383" lon="11.7293833"><ele>114.0</ele><time>2026-04-26T13:54:25.571Z</time></trkpt><trkpt lat="44.24118" lon="11.72955"><ele>114.0</ele><time>2026-04-26T13:54:26.576Z</time></trkpt><trkpt lat="44.2412267" lon="11.7297183"><ele>114.0</ele><time>2026-04-26T13:54:27.576Z</time></trkpt><trkpt lat="44.241275" lon="11.7298833"><ele>114.0</ele><time>2026-04-26T13:54:28.569Z</time></trkpt><trkpt lat="44.2413383" lon="11.7300467"><ele>114.0</ele><time>2026-04-26T13:54:29.573Z</time></trkpt><trkpt lat="44.2414017" lon="11.7302067"><ele>114.0</ele><time>2026-04-26T13:54:30.574Z</time></trkpt><trkpt lat="44.241465" lon="11.7303533"><ele>114.0</ele><time>2026-04-26T13:54:31.576Z</time></trkpt><trkpt lat="44.24154" lon="11.7304817"><ele>111.0</ele><time>2026-04-26T13:54:32.573Z</time></trkpt><trkpt lat="44.24162" lon="11.73059"><ele>108.0</ele><time>2026-04-26T13:54:33.573Z</time></trkpt><trkpt lat="44.24172" lon="11.7306633"><ele>105.0</ele><time>2026-04-26T13:54:34.577Z</time></trkpt><trkpt lat="44.2418283" lon="11.730695"><ele>102.0</ele><time>2026-04-26T13:54:35.569Z</time></trkpt><trkpt lat="44.2419417" lon="11.730695"><ele>99.0</ele><time>2026-04-26T13:54:36.578Z</time></trkpt><trkpt lat="44.2420683" lon="11.7306767"><ele>99.0</ele><time>2026-04-26T13:54:37.574Z</time></trkpt><trkpt lat="44.242195" lon="11.73065"><ele>99.0</ele><time>2026-04-26T13:54:38.577Z</time></trkpt><trkpt lat="44.24232" lon="11.7306233"><ele>99.0</ele><time>2026-04-26T13:54:39.575Z</time></trkpt><trkpt lat="44.2424417" lon="11.7305983"><ele>99.0</ele><time>2026-04-26T13:54:40.577Z</time></trkpt><trkpt lat="44.2425533" lon="11.730595"><ele>97.5</ele><time>2026-04-26T13:54:41.573Z</time></trkpt><trkpt lat="44.24266" lon="11.7306333"><ele>96.0</ele><time>2026-04-26T13:54:42.578Z</time></trkpt><trkpt lat="44.2427567" lon="11.7307117"><ele>94.5</ele><time>2026-04-26T13:54:43.574Z</time></trkpt><trkpt lat="44.2428383" lon="11.730825"><ele>93.0</ele><time>2026-04-26T13:54:44.562Z</time></trkpt><trkpt lat="44.2429083" lon="11.730965"><ele>93.25</ele><time>2026-04-26T13:54:45.576Z</time></trkpt><trkpt lat="44.2429717" lon="11.7311117"><ele>93.5</ele><time>2026-04-26T13:54:46.571Z</time></trkpt><trkpt lat="44.24304" lon="11.7312567"><ele>93.75</ele><time>2026-04-26T13:54:47.573Z</time></trkpt><trkpt lat="44.24311" lon="11.7314017"><ele>94.0</ele><time>2026-04-26T13:54:48.566Z</time></trkpt><trkpt lat="44.243185" lon="11.7315517"><ele>92.75</ele><time>2026-04-26T13:54:49.595Z</time></trkpt><trkpt lat="44.2432617" lon="11.7317017"><ele>91.5</ele><time>2026-04-26T13:54:50.577Z</time></trkpt><trkpt lat="44.2433367" lon="11.7318567"><ele>90.25</ele><time>2026-04-26T13:54:51.585Z</time></trkpt><trkpt lat="44.2434133" lon="11.73201"><ele>89.0</ele><time>2026-04-26T13:54:52.606Z</time></trkpt><trkpt lat="44.2434883" lon="11.732165"><ele>89.0</ele><time>2026-04-26T13:54:53.576Z</time></trkpt><trkpt lat="44.2435617" lon="11.73232"><ele>89.0</ele><time>2026-04-26T13:54:54.568Z</time></trkpt><trkpt lat="44.2436367" lon="11.7324717"><ele>89.0</ele><time>2026-04-26T13:54:55.579Z</time></trkpt><trkpt lat="44.2437133" lon="11.7326217"><ele>89.0</ele><time>2026-04-26T13:54:56.577Z</time></trkpt><trkpt lat="44.2437867" lon="11.7327633"><ele>89.25</ele><time>2026-04-26T13:54:57.572Z</time></trkpt><trkpt lat="44.2438567" lon="11.73289"><ele>89.5</ele><time>2026-04-26T13:54:58.597Z</time></trkpt><trkpt lat="44.2439717" lon="11.7331167"><ele>89.75</ele><time>2026-04-26T13:55:00.581Z</time></trkpt><trkpt lat="44.2440217" lon="11.7332167"><ele>90.0</ele><time>2026-04-26T13:55:01.577Z</time></trkpt><trkpt lat="44.2440667" lon="11.7333083"><ele>90.0</ele><time>2026-04-26T13:55:02.57Z</time></trkpt><trkpt lat="44.2441067" lon="11.7333867"><ele>90.0</ele><time>2026-04-26T13:55:03.575Z</time></trkpt><trkpt lat="44.2441633" lon="11.7334567"><ele>90.0</ele><time>2026-04-26T13:55:05.576Z</time></trkpt><trkpt lat="44.24427" lon="11.7334467"><ele>90.0</ele><time>2026-04-26T13:55:08.574Z</time></trkpt><trkpt lat="44.2443733" lon="11.7333467"><ele>90.0</ele><time>2026-04-26T13:55:10.57Z</time></trkpt><trkpt lat="44.244435" lon="11.7332867"><ele>90.0</ele><time>2026-04-26T13:55:11.567Z</time></trkpt><trkpt lat="44.2445017" lon="11.7332183"><ele>90.0</ele><time>2026-04-26T13:55:12.573Z</time></trkpt><trkpt lat="44.2445717" lon="11.7331433"><ele>90.0</ele><time>2026-04-26T13:55:13.57Z</time></trkpt><trkpt lat="44.2446433" lon="11.73307"><ele>90.0</ele><time>2026-04-26T13:55:14.572Z</time></trkpt><trkpt lat="44.2447167" lon="11.7329883"><ele>90.0</ele><time>2026-04-26T13:55:15.59Z</time></trkpt><trkpt lat="44.2447933" lon="11.7329017"><ele>89.4</ele><time>2026-04-26T13:55:16.589Z</time></trkpt><trkpt lat="44.244875" lon="11.7328083"><ele>88.8</ele><time>2026-04-26T13:55:17.579Z</time></trkpt><trkpt lat="44.24496" lon="11.7327133"><ele>88.19999999999999</ele><time>2026-04-26T13:55:18.582Z</time></trkpt><trkpt lat="44.24505" lon="11.7326267"><ele>87.6</ele><time>2026-04-26T13:55:19.573Z</time></trkpt><trkpt lat="44.2451417" lon="11.7325617"><ele>87.0</ele><time>2026-04-26T13:55:20.567Z</time></trkpt><trkpt lat="44.2452383" lon="11.7325233"><ele>87.0</ele><time>2026-04-26T13:55:21.578Z</time></trkpt><trkpt lat="44.245335" lon="11.7325383"><ele>87.0</ele><time>2026-04-26T13:55:22.582Z</time></trkpt><trkpt lat="44.2454233" lon="11.732595"><ele>87.0</ele><time>2026-04-26T13:55:23.574Z</time></trkpt><trkpt lat="44.2455017" lon="11.7326917"><ele>87.0</ele><time>2026-04-26T13:55:24.584Z</time></trkpt><trkpt lat="44.2455617" lon="11.7328233"><ele>87.0</ele><time>2026-04-26T13:55:25.579Z</time></trkpt><trkpt lat="44.2456167" lon="11.7329733"><ele>89.0</ele><time>2026-04-26T13:55:26.581Z</time></trkpt><trkpt lat="44.245675" lon="11.7331267"><ele>91.0</ele><time>2026-04-26T13:55:27.57Z</time></trkpt><trkpt lat="44.24574" lon="11.7332867"><ele>93.0</ele><time>2026-04-26T13:55:28.583Z</time></trkpt><trkpt lat="44.2458033" lon="11.7334483"><ele>95.0</ele><time>2026-04-26T13:55:29.582Z</time></trkpt><trkpt lat="44.2458667" lon="11.7336067"><ele>95.0</ele><time>2026-04-26T13:55:30.584Z</time></trkpt><trkpt lat="44.2459233" lon="11.7337533"><ele>95.0</ele><time>2026-04-26T13:55:31.576Z</time></trkpt><trkpt lat="44.2459767" lon="11.7338933"><ele>95.0</ele><time>2026-04-26T13:55:32.585Z</time></trkpt><trkpt lat="44.24603" lon="11.7340133"><ele>95.0</ele><time>2026-04-26T13:55:33.579Z</time></trkpt><trkpt lat="44.2461" lon="11.7341033"><ele>95.0</ele><time>2026-04-26T13:55:34.572Z</time></trkpt><trkpt lat="44.2461833" lon="11.7341517"><ele>95.0</ele><time>2026-04-26T13:55:35.577Z</time></trkpt><trkpt lat="44.2462733" lon="11.7341667"><ele>95.0</ele><time>2026-04-26T13:55:36.573Z</time></trkpt><trkpt lat="44.246365" lon="11.734145"><ele>95.0</ele><time>2026-04-26T13:55:37.573Z</time></trkpt><trkpt lat="44.2464517" lon="11.7340767"><ele>95.0</ele><time>2026-04-26T13:55:38.57Z</time></trkpt><trkpt lat="44.2465367" lon="11.7339767"><ele>95.0</ele><time>2026-04-26T13:55:39.58Z</time></trkpt><trkpt lat="44.24662" lon="11.7338833"><ele>97.6</ele><time>2026-04-26T13:55:40.65Z</time></trkpt><trkpt lat="44.246705" lon="11.7337933"><ele>100.2</ele><time>2026-04-26T13:55:41.583Z</time></trkpt><trkpt lat="44.2467917" lon="11.7337033"><ele>102.80000000000001</ele><time>2026-04-26T13:55:42.56Z</time></trkpt><trkpt lat="44.2468783" lon="11.733615"><ele>105.4</ele><time>2026-04-26T13:55:43.572Z</time></trkpt><trkpt lat="44.2469683" lon="11.733545"><ele>108.0</ele><time>2026-04-26T13:55:44.576Z</time></trkpt><trkpt lat="44.2470667" lon="11.7335083"><ele>109.80000000000001</ele><time>2026-04-26T13:55:45.586Z</time></trkpt><trkpt lat="44.2471667" lon="11.7335067"><ele>111.60000000000001</ele><time>2026-04-26T13:55:46.586Z</time></trkpt><trkpt lat="44.2472617" lon="11.7335433"><ele>113.39999999999999</ele><time>2026-04-26T13:55:47.575Z</time></trkpt><trkpt lat="44.2473483" lon="11.73362"><ele>115.19999999999999</ele><time>2026-04-26T13:55:48.59Z</time></trkpt><trkpt lat="44.2474233" lon="11.73372"><ele>117.0</ele><time>2026-04-26T13:55:49.621Z</time></trkpt><trkpt lat="44.2474967" lon="11.733835"><ele>117.0</ele><time>2026-04-26T13:55:50.567Z</time></trkpt><trkpt lat="44.2475717" lon="11.7339517"><ele>117.0</ele><time>2026-04-26T13:55:51.572Z</time></trkpt><trkpt lat="44.24765" lon="11.73407"><ele>117.0</ele><time>2026-04-26T13:55:52.566Z</time></trkpt><trkpt lat="44.24773" lon="11.73419"><ele>117.0</ele><time>2026-04-26T13:55:53.565Z</time></trkpt><trkpt lat="44.2478133" lon="11.73431"><ele>116.75</ele><time>2026-04-26T13:55:54.568Z</time></trkpt><trkpt lat="44.2478983" lon="11.7344417"><ele>116.5</ele><time>2026-04-26T13:55:55.577Z</time></trkpt><trkpt lat="44.2479817" lon="11.73458"><ele>116.25</ele><time>2026-04-26T13:55:56.567Z</time></trkpt><trkpt lat="44.2480667" lon="11.73472"><ele>116.0</ele><time>2026-04-26T13:55:57.555Z</time></trkpt><trkpt lat="44.2481583" lon="11.73486"><ele>116.25</ele><time>2026-04-26T13:55:58.563Z</time></trkpt><trkpt lat="44.2482533" lon="11.734995"><ele>116.5</ele><time>2026-04-26T13:55:59.57Z</time></trkpt><trkpt lat="44.24835" lon="11.7351217"><ele>116.75</ele><time>2026-04-26T13:56:00.558Z</time></trkpt><trkpt lat="44.2484517" lon="11.735245"><ele>117.0</ele><time>2026-04-26T13:56:01.562Z</time></trkpt><trkpt lat="44.2485567" lon="11.7353683"><ele>117.0</ele><time>2026-04-26T13:56:02.574Z</time></trkpt><trkpt lat="44.248665" lon="11.73549"><ele>117.0</ele><time>2026-04-26T13:56:03.575Z</time></trkpt><trkpt lat="44.2487733" lon="11.7356133"><ele>117.0</ele><time>2026-04-26T13:56:04.569Z</time></trkpt><trkpt lat="44.2488917" lon="11.7357317"><ele>117.0</ele><time>2026-04-26T13:56:05.571Z</time></trkpt><trkpt lat="44.249015" lon="11.7358483"><ele>118.0</ele><time>2026-04-26T13:56:06.566Z</time></trkpt><trkpt lat="44.2491417" lon="11.7359583"><ele>119.0</ele><time>2026-04-26T13:56:07.572Z</time></trkpt><trkpt lat="44.249275" lon="11.7360733"><ele>120.0</ele><time>2026-04-26T13:56:08.571Z</time></trkpt><trkpt lat="44.2494083" lon="11.7361867"><ele>120.33333333333334</ele><time>2026-04-26T13:56:09.559Z</time></trkpt><trkpt lat="44.249545" lon="11.7362983"><ele>120.66666666666667</ele><time>2026-04-26T13:56:10.579Z</time></trkpt><trkpt lat="44.2496833" lon="11.73641"><ele>121.0</ele><time>2026-04-26T13:56:11.567Z</time></trkpt><trkpt lat="44.24982" lon="11.7365283"><ele>121.0</ele><time>2026-04-26T13:56:12.573Z</time></trkpt><trkpt lat="44.2499567" lon="11.736645"><ele>121.0</ele><time>2026-04-26T13:56:13.579Z</time></trkpt><trkpt lat="44.25009" lon="11.73676"><ele>121.0</ele><time>2026-04-26T13:56:14.577Z</time></trkpt><trkpt lat="44.250225" lon="11.7368717"><ele>121.0</ele><time>2026-04-26T13:56:15.581Z</time></trkpt><trkpt lat="44.250365" lon="11.73698"><ele>121.0</ele><time>2026-04-26T13:56:16.584Z</time></trkpt><trkpt lat="44.2505017" lon="11.7370917"><ele>121.0</ele><time>2026-04-26T13:56:17.572Z</time></trkpt><trkpt lat="44.2506383" lon="11.7372033"><ele>121.0</ele><time>2026-04-26T13:56:18.583Z</time></trkpt><trkpt lat="44.2507717" lon="11.7373133"><ele>121.0</ele><time>2026-04-26T13:56:19.557Z</time></trkpt><trkpt lat="44.2509083" lon="11.737425"><ele>121.0</ele><time>2026-04-26T13:56:20.568Z</time></trkpt><trkpt lat="44.2510433" lon="11.7375333"><ele>121.0</ele><time>2026-04-26T13:56:21.59Z</time></trkpt><trkpt lat="44.2511783" lon="11.7376417"><ele>121.0</ele><time>2026-04-26T13:56:22.58Z</time></trkpt><trkpt lat="44.2513117" lon="11.7377483"><ele>121.0</ele><time>2026-04-26T13:56:23.583Z</time></trkpt><trkpt lat="44.25144" lon="11.7378567"><ele>119.25</ele><time>2026-04-26T13:56:24.574Z</time></trkpt><trkpt lat="44.2515667" lon="11.7379667"><ele>117.5</ele><time>2026-04-26T13:56:25.581Z</time></trkpt><trkpt lat="44.251695" lon="11.738075"><ele>115.75</ele><time>2026-04-26T13:56:26.581Z</time></trkpt><trkpt lat="44.2518217" lon="11.7381833"><ele>114.0</ele><time>2026-04-26T13:56:27.589Z</time></trkpt><trkpt lat="44.25195" lon="11.73829"><ele>114.0</ele><time>2026-04-26T13:56:28.578Z</time></trkpt><trkpt lat="44.25208" lon="11.7383967"><ele>114.0</ele><time>2026-04-26T13:56:29.574Z</time></trkpt><trkpt lat="44.25221" lon="11.7384983"><ele>114.0</ele><time>2026-04-26T13:56:30.574Z</time></trkpt><trkpt lat="44.2523383" lon="11.7385967"><ele>114.0</ele><time>2026-04-26T13:56:31.575Z</time></trkpt><trkpt lat="44.252465" lon="11.738695"><ele>113.5</ele><time>2026-04-26T13:56:32.573Z</time></trkpt><trkpt lat="44.2525933" lon="11.7387967"><ele>113.0</ele><time>2026-04-26T13:56:33.579Z</time></trkpt><trkpt lat="44.25272" lon="11.738905"><ele>112.5</ele><time>2026-04-26T13:56:34.573Z</time></trkpt><trkpt lat="44.2528433" lon="11.7390233"><ele>112.0</ele><time>2026-04-26T13:56:35.57Z</time></trkpt><trkpt lat="44.252965" lon="11.7391467"><ele>112.0</ele><time>2026-04-26T13:56:36.575Z</time></trkpt><trkpt lat="44.2530817" lon="11.739275"><ele>112.0</ele><time>2026-04-26T13:56:37.573Z</time></trkpt><trkpt lat="44.2531983" lon="11.7394067"><ele>112.0</ele><time>2026-04-26T13:56:38.584Z</time></trkpt><trkpt lat="44.253315" lon="11.7395417"><ele>111.0</ele><time>2026-04-26T13:56:39.577Z</time></trkpt><trkpt lat="44.2534317" lon="11.7396817"><ele>110.0</ele><time>2026-04-26T13:56:40.586Z</time></trkpt><trkpt lat="44.253545" lon="11.739825"><ele>109.0</ele><time>2026-04-26T13:56:41.574Z</time></trkpt><trkpt lat="44.2536567" lon="11.7399683"><ele>109.0</ele><time>2026-04-26T13:56:42.576Z</time></trkpt><trkpt lat="44.2537667" lon="11.7401083"><ele>109.0</ele><time>2026-04-26T13:56:43.573Z</time></trkpt><trkpt lat="44.2538783" lon="11.74025"><ele>109.0</ele><time>2026-04-26T13:56:44.578Z</time></trkpt><trkpt lat="44.2539883" lon="11.7403917"><ele>109.0</ele><time>2026-04-26T13:56:45.565Z</time></trkpt><trkpt lat="44.2540967" lon="11.7405333"><ele>107.75</ele><time>2026-04-26T13:56:46.569Z</time></trkpt><trkpt lat="44.254205" lon="11.7406733"><ele>106.5</ele><time>2026-04-26T13:56:47.572Z</time></trkpt><trkpt lat="44.2543117" lon="11.7408133"><ele>105.25</ele><time>2026-04-26T13:56:48.573Z</time></trkpt><trkpt lat="44.25442" lon="11.7409517"><ele>104.0</ele><time>2026-04-26T13:56:49.574Z</time></trkpt><trkpt lat="44.2545267" lon="11.7410867"><ele>103.5</ele><time>2026-04-26T13:56:50.585Z</time></trkpt><trkpt lat="44.25463" lon="11.741225"><ele>103.0</ele><time>2026-04-26T13:56:51.572Z</time></trkpt><trkpt lat="44.2547333" lon="11.7413617"><ele>102.5</ele><time>2026-04-26T13:56:52.58Z</time></trkpt><trkpt lat="44.2548333" lon="11.7414967"><ele>102.0</ele><time>2026-04-26T13:56:53.583Z</time></trkpt><trkpt lat="44.254935" lon="11.74163"><ele>102.0</ele><time>2026-04-26T13:56:54.576Z</time></trkpt><trkpt lat="44.255035" lon="11.7417617"><ele>102.0</ele><time>2026-04-26T13:56:55.582Z</time></trkpt><trkpt lat="44.2551367" lon="11.7418933"><ele>102.0</ele><time>2026-04-26T13:56:56.573Z</time></trkpt><trkpt lat="44.2552367" lon="11.742025"><ele>102.0</ele><time>2026-04-26T13:56:57.588Z</time></trkpt><trkpt lat="44.2553367" lon="11.7421533"><ele>102.0</ele><time>2026-04-26T13:56:58.594Z</time></trkpt><trkpt lat="44.255435" lon="11.74228"><ele>102.0</ele><time>2026-04-26T13:56:59.591Z</time></trkpt><trkpt lat="44.2555317" lon="11.7424083"><ele>102.0</ele><time>2026-04-26T13:57:00.569Z</time></trkpt><trkpt lat="44.2556283" lon="11.7425317"><ele>102.0</ele><time>2026-04-26T13:57:01.582Z</time></trkpt><trkpt lat="44.2557217" lon="11.7426533"><ele>100.25</ele><time>2026-04-26T13:57:02.573Z</time></trkpt><trkpt lat="44.2558167" lon="11.7427733"><ele>98.5</ele><time>2026-04-26T13:57:03.571Z</time></trkpt><trkpt lat="44.2559083" lon="11.7428967"><ele>96.75</ele><time>2026-04-26T13:57:04.571Z</time></trkpt><trkpt lat="44.2560017" lon="11.74302"><ele>95.0</ele><time>2026-04-26T13:57:05.575Z</time></trkpt><trkpt lat="44.2560933" lon="11.743145"><ele>95.0</ele><time>2026-04-26T13:57:06.577Z</time></trkpt><trkpt lat="44.2561867" lon="11.74327"><ele>95.0</ele><time>2026-04-26T13:57:07.583Z</time></trkpt><trkpt lat="44.2562817" lon="11.743395"><ele>95.0</ele><time>2026-04-26T13:57:08.582Z</time></trkpt><trkpt lat="44.2563783" lon="11.7435217"><ele>95.0</ele><time>2026-04-26T13:57:09.582Z</time></trkpt><trkpt lat="44.256475" lon="11.7436467"><ele>96.0</ele><time>2026-04-26T13:57:10.589Z</time></trkpt><trkpt lat="44.2565683" lon="11.7437717"><ele>97.0</ele><time>2026-04-26T13:57:11.598Z</time></trkpt><trkpt lat="44.25666" lon="11.7438933"><ele>98.0</ele><time>2026-04-26T13:57:12.573Z</time></trkpt><trkpt lat="44.25675" lon="11.744015"><ele>99.0</ele><time>2026-04-26T13:57:13.581Z</time></trkpt><trkpt lat="44.25684" lon="11.7441283"><ele>99.0</ele><time>2026-04-26T13:57:14.58Z</time></trkpt><trkpt lat="44.2569333" lon="11.74423"><ele>99.0</ele><time>2026-04-26T13:57:15.569Z</time></trkpt><trkpt lat="44.2570333" lon="11.7443083"><ele>99.0</ele><time>2026-04-26T13:57:16.578Z</time></trkpt><trkpt lat="44.2571367" lon="11.744355"><ele>99.0</ele><time>2026-04-26T13:57:17.574Z</time></trkpt><trkpt lat="44.2572417" lon="11.7443567"><ele>99.0</ele><time>2026-04-26T13:57:18.574Z</time></trkpt><trkpt lat="44.2573417" lon="11.7443167"><ele>97.75</ele><time>2026-04-26T13:57:19.58Z</time></trkpt><trkpt lat="44.2574283" lon="11.74423"><ele>96.5</ele><time>2026-04-26T13:57:20.571Z</time></trkpt><trkpt lat="44.257505" lon="11.744115"><ele>95.25</ele><time>2026-04-26T13:57:21.596Z</time></trkpt><trkpt lat="44.2575567" lon="11.74397"><ele>94.0</ele><time>2026-04-26T13:57:22.559Z</time></trkpt><trkpt lat="44.2575767" lon="11.74381"><ele>94.0</ele><time>2026-04-26T13:57:23.575Z</time></trkpt><trkpt lat="44.2575817" lon="11.7436367"><ele>94.0</ele><time>2026-04-26T13:57:24.586Z</time></trkpt><trkpt lat="44.2575783" lon="11.743455"><ele>94.0</ele><time>2026-04-26T13:57:25.568Z</time></trkpt><trkpt lat="44.2575783" lon="11.7432683"><ele>94.0</ele><time>2026-04-26T13:57:26.584Z</time></trkpt><trkpt lat="44.2575883" lon="11.7430817"><ele>93.0</ele><time>2026-04-26T13:57:27.584Z</time></trkpt><trkpt lat="44.2576" lon="11.7428967"><ele>92.0</ele><time>2026-04-26T13:57:28.579Z</time></trkpt><trkpt lat="44.2576167" lon="11.742715"><ele>91.0</ele><time>2026-04-26T13:57:29.575Z</time></trkpt><trkpt lat="44.2576317" lon="11.7425383"><ele>90.0</ele><time>2026-04-26T13:57:30.582Z</time></trkpt><trkpt lat="44.2576633" lon="11.742195"><ele>89.5</ele><time>2026-04-26T13:57:32.574Z</time></trkpt><trkpt lat="44.2576767" lon="11.7420267"><ele>89.0</ele><time>2026-04-26T13:57:33.571Z</time></trkpt><trkpt lat="44.2576967" lon="11.7418633"><ele>88.5</ele><time>2026-04-26T13:57:34.569Z</time></trkpt><trkpt lat="44.2577283" lon="11.74171"><ele>88.0</ele><time>2026-04-26T13:57:35.579Z</time></trkpt><trkpt lat="44.25778" lon="11.7415733"><ele>88.0</ele><time>2026-04-26T13:57:36.568Z</time></trkpt><trkpt lat="44.2578417" lon="11.7414533"><ele>88.0</ele><time>2026-04-26T13:57:37.575Z</time></trkpt><trkpt lat="44.2579083" lon="11.741355"><ele>88.0</ele><time>2026-04-26T13:57:38.576Z</time></trkpt><trkpt lat="44.2579783" lon="11.7412867"><ele>88.0</ele><time>2026-04-26T13:57:39.572Z</time></trkpt><trkpt lat="44.2580483" lon="11.741245"><ele>88.0</ele><time>2026-04-26T13:57:40.582Z</time></trkpt><trkpt lat="44.2581133" lon="11.7412517"><ele>88.0</ele><time>2026-04-26T13:57:41.579Z</time></trkpt><trkpt lat="44.2581733" lon="11.7413"><ele>88.0</ele><time>2026-04-26T13:57:42.578Z</time></trkpt><trkpt lat="44.2582217" lon="11.7413817"><ele>88.0</ele><time>2026-04-26T13:57:43.591Z</time></trkpt><trkpt lat="44.258255" lon="11.7414917"><ele>88.0</ele><time>2026-04-26T13:57:44.569Z</time></trkpt><trkpt lat="44.2582833" lon="11.74162"><ele>88.0</ele><time>2026-04-26T13:57:45.573Z</time></trkpt><trkpt lat="44.2583133" lon="11.7417567"><ele>88.0</ele><time>2026-04-26T13:57:46.584Z</time></trkpt><trkpt lat="44.2583417" lon="11.741895"><ele>87.4</ele><time>2026-04-26T13:57:47.574Z</time></trkpt><trkpt lat="44.2583733" lon="11.7420367"><ele>86.80000000000001</ele><time>2026-04-26T13:57:48.574Z</time></trkpt><trkpt lat="44.2584067" lon="11.74218"><ele>86.2</ele><time>2026-04-26T13:57:49.61Z</time></trkpt><trkpt lat="44.2584433" lon="11.7423267"><ele>85.6</ele><time>2026-04-26T13:57:50.573Z</time></trkpt><trkpt lat="44.25848" lon="11.742475"><ele>85.0</ele><time>2026-04-26T13:57:51.579Z</time></trkpt><trkpt lat="44.2585183" lon="11.7426283"><ele>84.75</ele><time>2026-04-26T13:57:52.571Z</time></trkpt><trkpt lat="44.2585533" lon="11.7427833"><ele>84.5</ele><time>2026-04-26T13:57:53.572Z</time></trkpt><trkpt lat="44.2585883" lon="11.7429417"><ele>84.25</ele><time>2026-04-26T13:57:54.573Z</time></trkpt><trkpt lat="44.2586283" lon="11.7430983"><ele>84.0</ele><time>2026-04-26T13:57:55.572Z</time></trkpt><trkpt lat="44.2586717" lon="11.74325"><ele>84.0</ele><time>2026-04-26T13:57:56.572Z</time></trkpt><trkpt lat="44.2587233" lon="11.7433983"><ele>84.0</ele><time>2026-04-26T13:57:57.574Z</time></trkpt><trkpt lat="44.2587833" lon="11.7435467"><ele>84.0</ele><time>2026-04-26T13:57:58.58Z</time></trkpt><trkpt lat="44.2588517" lon="11.74369"><ele>84.0</ele><time>2026-04-26T13:57:59.576Z</time></trkpt><trkpt lat="44.2589233" lon="11.743825"><ele>87.25</ele><time>2026-04-26T13:58:00.582Z</time></trkpt><trkpt lat="44.259005" lon="11.7439517"><ele>90.5</ele><time>2026-04-26T13:58:01.585Z</time></trkpt><trkpt lat="44.2590983" lon="11.7440667"><ele>93.75</ele><time>2026-04-26T13:58:02.551Z</time></trkpt><trkpt lat="44.2592" lon="11.744165"><ele>97.0</ele><time>2026-04-26T13:58:03.573Z</time></trkpt><trkpt lat="44.259315" lon="11.7442467"><ele>97.0</ele><time>2026-04-26T13:58:04.576Z</time></trkpt><trkpt lat="44.25943" lon="11.7443183"><ele>97.0</ele><time>2026-04-26T13:58:05.577Z</time></trkpt><trkpt lat="44.259545" lon="11.7443917"><ele>97.0</ele><time>2026-04-26T13:58:06.577Z</time></trkpt><trkpt lat="44.25966" lon="11.7444617"><ele>97.0</ele><time>2026-04-26T13:58:07.581Z</time></trkpt><trkpt lat="44.2597767" lon="11.7445333"><ele>97.0</ele><time>2026-04-26T13:58:08.584Z</time></trkpt><trkpt lat="44.259895" lon="11.7446033"><ele>97.0</ele><time>2026-04-26T13:58:09.578Z</time></trkpt><trkpt lat="44.260015" lon="11.744675"><ele>97.0</ele><time>2026-04-26T13:58:10.569Z</time></trkpt><trkpt lat="44.2601317" lon="11.744745"><ele>97.0</ele><time>2026-04-26T13:58:11.579Z</time></trkpt><trkpt lat="44.2602533" lon="11.744815"><ele>97.0</ele><time>2026-04-26T13:58:12.575Z</time></trkpt><trkpt lat="44.2603767" lon="11.7448867"><ele>97.0</ele><time>2026-04-26T13:58:13.579Z</time></trkpt><trkpt lat="44.2605033" lon="11.7449617"><ele>97.0</ele><time>2026-04-26T13:58:14.584Z</time></trkpt><trkpt lat="44.26063" lon="11.7450367"><ele>97.0</ele><time>2026-04-26T13:58:15.568Z</time></trkpt><trkpt lat="44.2607583" lon="11.7451133"><ele>96.75</ele><time>2026-04-26T13:58:16.573Z</time></trkpt><trkpt lat="44.26088" lon="11.7451883"><ele>96.5</ele><time>2026-04-26T13:58:17.573Z</time></trkpt><trkpt lat="44.2609983" lon="11.745265"><ele>96.25</ele><time>2026-04-26T13:58:18.576Z</time></trkpt><trkpt lat="44.261115" lon="11.7453467"><ele>96.0</ele><time>2026-04-26T13:58:19.584Z</time></trkpt><trkpt lat="44.2612333" lon="11.745435"><ele>95.5</ele><time>2026-04-26T13:58:20.572Z</time></trkpt><trkpt lat="44.26135" lon="11.7455283"><ele>95.0</ele><time>2026-04-26T13:58:21.579Z</time></trkpt><trkpt lat="44.261465" lon="11.7456233"><ele>94.5</ele><time>2026-04-26T13:58:22.58Z</time></trkpt><trkpt lat="44.2615817" lon="11.745715"><ele>94.0</ele><time>2026-04-26T13:58:23.587Z</time></trkpt><trkpt lat="44.2616983" lon="11.7458117"><ele>94.0</ele><time>2026-04-26T13:58:24.576Z</time></trkpt><trkpt lat="44.2618167" lon="11.7459083"><ele>94.0</ele><time>2026-04-26T13:58:25.59Z</time></trkpt><trkpt lat="44.261935" lon="11.7460033"><ele>94.0</ele><time>2026-04-26T13:58:26.567Z</time></trkpt><trkpt lat="44.2620517" lon="11.7461017"><ele>94.0</ele><time>2026-04-26T13:58:27.572Z</time></trkpt><trkpt lat="44.2621683" lon="11.7462017"><ele>93.5</ele><time>2026-04-26T13:58:28.615Z</time></trkpt><trkpt lat="44.2622883" lon="11.7463033"><ele>93.0</ele><time>2026-04-26T13:58:29.567Z</time></trkpt><trkpt lat="44.26241" lon="11.7464083"><ele>92.5</ele><time>2026-04-26T13:58:30.567Z</time></trkpt><trkpt lat="44.26253" lon="11.7465117"><ele>92.0</ele><time>2026-04-26T13:58:31.567Z</time></trkpt><trkpt lat="44.2626517" lon="11.746615"><ele>92.0</ele><time>2026-04-26T13:58:32.573Z</time></trkpt><trkpt lat="44.2627733" lon="11.7467183"><ele>92.0</ele><time>2026-04-26T13:58:33.601Z</time></trkpt><trkpt lat="44.262895" lon="11.7468183"><ele>92.0</ele><time>2026-04-26T13:58:34.581Z</time></trkpt><trkpt lat="44.263015" lon="11.7469167"><ele>92.0</ele><time>2026-04-26T13:58:35.574Z</time></trkpt><trkpt lat="44.263135" lon="11.7470183"><ele>91.5</ele><time>2026-04-26T13:58:36.569Z</time></trkpt><trkpt lat="44.2632517" lon="11.7471183"><ele>91.0</ele><time>2026-04-26T13:58:37.567Z</time></trkpt><trkpt lat="44.2633733" lon="11.74722"><ele>90.5</ele><time>2026-04-26T13:58:38.585Z</time></trkpt><trkpt lat="44.2634967" lon="11.7473233"><ele>90.0</ele><time>2026-04-26T13:58:39.589Z</time></trkpt><trkpt lat="44.263615" lon="11.7474267"><ele>90.0</ele><time>2026-04-26T13:58:40.586Z</time></trkpt><trkpt lat="44.2637317" lon="11.7475267"><ele>90.0</ele><time>2026-04-26T13:58:41.571Z</time></trkpt><trkpt lat="44.2638417" lon="11.747615"><ele>90.0</ele><time>2026-04-26T13:58:42.574Z</time></trkpt><trkpt lat="44.2639483" lon="11.7476933"><ele>90.0</ele><time>2026-04-26T13:58:43.572Z</time></trkpt><trkpt lat="44.264055" lon="11.7477583"><ele>90.0</ele><time>2026-04-26T13:58:44.582Z</time></trkpt><trkpt lat="44.2641617" lon="11.7478133"><ele>90.0</ele><time>2026-04-26T13:58:45.575Z</time></trkpt><trkpt lat="44.2642683" lon="11.747865"><ele>90.0</ele><time>2026-04-26T13:58:46.579Z</time></trkpt><trkpt lat="44.2643717" lon="11.7479167"><ele>90.0</ele><time>2026-04-26T13:58:47.578Z</time></trkpt><trkpt lat="44.2644717" lon="11.7479767"><ele>90.0</ele><time>2026-04-26T13:58:48.588Z</time></trkpt><trkpt lat="44.264565" lon="11.7480433"><ele>90.0</ele><time>2026-04-26T13:58:49.583Z</time></trkpt><trkpt lat="44.2646533" lon="11.748115"><ele>90.0</ele><time>2026-04-26T13:58:50.568Z</time></trkpt><trkpt lat="44.264735" lon="11.7481867"><ele>90.0</ele><time>2026-04-26T13:58:51.561Z</time></trkpt><trkpt lat="44.2648117" lon="11.7482533"><ele>90.0</ele><time>2026-04-26T13:58:52.566Z</time></trkpt><trkpt lat="44.2648767" lon="11.748315"><ele>90.0</ele><time>2026-04-26T13:58:53.57Z</time></trkpt><trkpt lat="44.2649317" lon="11.7483733"><ele>90.0</ele><time>2026-04-26T13:58:54.577Z</time></trkpt><trkpt lat="44.2649867" lon="11.748475"><ele>89.6</ele><time>2026-04-26T13:58:56.575Z</time></trkpt><trkpt lat="44.2649583" lon="11.7485917"><ele>89.2</ele><time>2026-04-26T13:58:59.576Z</time></trkpt><trkpt lat="44.2648883" lon="11.7487067"><ele>88.80000000000001</ele><time>2026-04-26T13:59:01.575Z</time></trkpt><trkpt lat="44.2648133" lon="11.7488183"><ele>88.4</ele><time>2026-04-26T13:59:03.568Z</time></trkpt><trkpt lat="44.26474" lon="11.7488733"><ele>88.0</ele><time>2026-04-26T13:59:05.574Z</time></trkpt><trkpt lat="44.2646383" lon="11.7488833"><ele>88.0</ele><time>2026-04-26T13:59:07.579Z</time></trkpt><trkpt lat="44.264575" lon="11.74889"><ele>88.0</ele><time>2026-04-26T13:59:08.574Z</time></trkpt><trkpt lat="44.264505" lon="11.7489067"><ele>88.0</ele><time>2026-04-26T13:59:09.573Z</time></trkpt><trkpt lat="44.264435" lon="11.7489433"><ele>88.0</ele><time>2026-04-26T13:59:10.618Z</time></trkpt><trkpt lat="44.26437" lon="11.74901"><ele>88.0</ele><time>2026-04-26T13:59:11.578Z</time></trkpt><trkpt lat="44.2643083" lon="11.7491017"><ele>88.0</ele><time>2026-04-26T13:59:12.576Z</time></trkpt><trkpt lat="44.2642483" lon="11.749205"><ele>88.0</ele><time>2026-04-26T13:59:13.576Z</time></trkpt><trkpt lat="44.26419" lon="11.74931"><ele>88.0</ele><time>2026-04-26T13:59:14.574Z</time></trkpt><trkpt lat="44.2641267" lon="11.749415"><ele>88.0</ele><time>2026-04-26T13:59:15.581Z</time></trkpt><trkpt lat="44.2640667" lon="11.7495283"><ele>88.0</ele><time>2026-04-26T13:59:16.573Z</time></trkpt><trkpt lat="44.2640067" lon="11.7496483"><ele>88.0</ele><time>2026-04-26T13:59:17.577Z</time></trkpt><trkpt lat="44.2639483" lon="11.7497767"><ele>87.75</ele><time>2026-04-26T13:59:18.577Z</time></trkpt><trkpt lat="44.2638883" lon="11.74991"><ele>87.5</ele><time>2026-04-26T13:59:19.588Z</time></trkpt><trkpt lat="44.263825" lon="11.7500517"><ele>87.25</ele><time>2026-04-26T13:59:20.572Z</time></trkpt><trkpt lat="44.2637633" lon="11.7501917"><ele>87.0</ele><time>2026-04-26T13:59:21.574Z</time></trkpt><trkpt lat="44.2637033" lon="11.7503333"><ele>86.5</ele><time>2026-04-26T13:59:22.58Z</time></trkpt><trkpt lat="44.2636467" lon="11.7504783"><ele>86.0</ele><time>2026-04-26T13:59:23.575Z</time></trkpt><trkpt lat="44.2635883" lon="11.750625"><ele>85.5</ele><time>2026-04-26T13:59:24.577Z</time></trkpt><trkpt lat="44.2635333" lon="11.7507717"><ele>85.0</ele><time>2026-04-26T13:59:25.577Z</time></trkpt><trkpt lat="44.2634783" lon="11.7509133"><ele>84.0</ele><time>2026-04-26T13:59:26.581Z</time></trkpt><trkpt lat="44.2634283" lon="11.7510517"><ele>83.0</ele><time>2026-04-26T13:59:27.575Z</time></trkpt><trkpt lat="44.2633817" lon="11.751185"><ele>82.0</ele><time>2026-04-26T13:59:28.576Z</time></trkpt><trkpt lat="44.2633383" lon="11.751315"><ele>81.0</ele><time>2026-04-26T13:59:29.573Z</time></trkpt><trkpt lat="44.2632983" lon="11.7514467"><ele>80.0</ele><time>2026-04-26T13:59:30.567Z</time></trkpt><trkpt lat="44.263265" lon="11.7515767"><ele>80.0</ele><time>2026-04-26T13:59:31.581Z</time></trkpt><trkpt lat="44.26325" lon="11.75171"><ele>80.0</ele><time>2026-04-26T13:59:32.573Z</time></trkpt><trkpt lat="44.263255" lon="11.7518467"><ele>80.0</ele><time>2026-04-26T13:59:33.595Z</time></trkpt><trkpt lat="44.2632767" lon="11.7519833"><ele>80.0</ele><time>2026-04-26T13:59:34.58Z</time></trkpt><trkpt lat="44.2633067" lon="11.75212"><ele>80.0</ele><time>2026-04-26T13:59:35.57Z</time></trkpt><trkpt lat="44.2633417" lon="11.7522567"><ele>78.8</ele><time>2026-04-26T13:59:36.568Z</time></trkpt><trkpt lat="44.2633783" lon="11.7523917"><ele>77.6</ele><time>2026-04-26T13:59:37.591Z</time></trkpt><trkpt lat="44.2634233" lon="11.752525"><ele>76.4</ele><time>2026-04-26T13:59:38.587Z</time></trkpt><trkpt lat="44.2634667" lon="11.752655"><ele>75.2</ele><time>2026-04-26T13:59:39.57Z</time></trkpt><trkpt lat="44.2635" lon="11.7527833"><ele>74.0</ele><time>2026-04-26T13:59:40.586Z</time></trkpt><trkpt lat="44.263525" lon="11.7529117"><ele>72.60000000000001</ele><time>2026-04-26T13:59:41.579Z</time></trkpt><trkpt lat="44.263535" lon="11.753045"><ele>71.2</ele><time>2026-04-26T13:59:42.574Z</time></trkpt><trkpt lat="44.2635267" lon="11.7531767"><ele>69.80000000000001</ele><time>2026-04-26T13:59:43.581Z</time></trkpt><trkpt lat="44.2635067" lon="11.7533067"><ele>68.4</ele><time>2026-04-26T13:59:44.581Z</time></trkpt><trkpt lat="44.2634783" lon="11.7534267"><ele>67.0</ele><time>2026-04-26T13:59:45.571Z</time></trkpt><trkpt lat="44.2634367" lon="11.7535267"><ele>66.5</ele><time>2026-04-26T13:59:46.584Z</time></trkpt><trkpt lat="44.2633883" lon="11.753595"><ele>66.0</ele><time>2026-04-26T13:59:47.581Z</time></trkpt><trkpt lat="44.2632667" lon="11.7536317"><ele>65.5</ele><time>2026-04-26T13:59:49.578Z</time></trkpt><trkpt lat="44.2631933" lon="11.7536283"><ele>65.0</ele><time>2026-04-26T13:59:50.588Z</time></trkpt><trkpt lat="44.2631133" lon="11.7536367"><ele>64.5</ele><time>2026-04-26T13:59:51.57Z</time></trkpt><trkpt lat="44.26303" lon="11.7536517"><ele>64.0</ele><time>2026-04-26T13:59:52.569Z</time></trkpt><trkpt lat="44.2629483" lon="11.7536733"><ele>63.99999999999999</ele><time>2026-04-26T13:59:53.573Z</time></trkpt><trkpt lat="44.2628683" lon="11.7537"><ele>64.0</ele><time>2026-04-26T13:59:54.584Z</time></trkpt><trkpt lat="44.2627867" lon="11.7537333"><ele>64.0</ele><time>2026-04-26T13:59:55.585Z</time></trkpt><trkpt lat="44.26271" lon="11.753775"><ele>64.0</ele><time>2026-04-26T13:59:56.594Z</time></trkpt><trkpt lat="44.2626383" lon="11.7538333"><ele>63.99999999999999</ele><time>2026-04-26T13:59:57.568Z</time></trkpt><trkpt lat="44.262565" lon="11.7538883"><ele>64.0</ele><time>2026-04-26T13:59:58.591Z</time></trkpt><trkpt lat="44.2624933" lon="11.7539533"><ele>63.99999999999999</ele><time>2026-04-26T13:59:59.571Z</time></trkpt><trkpt lat="44.26242" lon="11.7540217"><ele>64.0</ele><time>2026-04-26T14:00:00.571Z</time></trkpt><trkpt lat="44.2623467" lon="11.75409"><ele>64.0</ele><time>2026-04-26T14:00:01.573Z</time></trkpt><trkpt lat="44.2622733" lon="11.7541533"><ele>64.0</ele><time>2026-04-26T14:00:02.572Z</time></trkpt><trkpt lat="44.2622067" lon="11.7542183"><ele>63.99999999999999</ele><time>2026-04-26T14:00:03.581Z</time></trkpt><trkpt lat="44.2621617" lon="11.75429"><ele>64.0</ele><time>2026-04-26T14:00:04.574Z</time></trkpt><trkpt lat="44.2621317" lon="11.7543683"><ele>64.83333333333333</ele><time>2026-04-26T14:00:05.592Z</time></trkpt><trkpt lat="44.2621333" lon="11.75446"><ele>65.66666666666666</ele><time>2026-04-26T14:00:06.576Z</time></trkpt><trkpt lat="44.2621517" lon="11.754565"><ele>66.5</ele><time>2026-04-26T14:00:07.575Z</time></trkpt><trkpt lat="44.262185" lon="11.754675"><ele>67.33333333333333</ele><time>2026-04-26T14:00:08.589Z</time></trkpt><trkpt lat="44.26223" lon="11.7547933"><ele>68.16666666666667</ele><time>2026-04-26T14:00:09.589Z</time></trkpt><trkpt lat="44.2622717" lon="11.7549117"><ele>69.0</ele><time>2026-04-26T14:00:10.579Z</time></trkpt><trkpt lat="44.2623217" lon="11.755035"><ele>69.0</ele><time>2026-04-26T14:00:11.574Z</time></trkpt><trkpt lat="44.2623783" lon="11.75516"><ele>69.0</ele><time>2026-04-26T14:00:12.583Z</time></trkpt><trkpt lat="44.26244" lon="11.7552817"><ele>69.0</ele><time>2026-04-26T14:00:13.592Z</time></trkpt><trkpt lat="44.2625" lon="11.7554"><ele>69.0</ele><time>2026-04-26T14:00:14.578Z</time></trkpt><trkpt lat="44.2625633" lon="11.7555183"><ele>69.0</ele><time>2026-04-26T14:00:15.572Z</time></trkpt><trkpt lat="44.2626233" lon="11.7556367"><ele>71.80000000000001</ele><time>2026-04-26T14:00:16.578Z</time></trkpt><trkpt lat="44.26268" lon="11.7557533"><ele>74.60000000000001</ele><time>2026-04-26T14:00:17.583Z</time></trkpt><trkpt lat="44.262735" lon="11.755865"><ele>77.4</ele><time>2026-04-26T14:00:18.607Z</time></trkpt><trkpt lat="44.2627783" lon="11.75597"><ele>80.2</ele><time>2026-04-26T14:00:19.581Z</time></trkpt><trkpt lat="44.2628067" lon="11.7560633"><ele>83.0</ele><time>2026-04-26T14:00:20.581Z</time></trkpt><trkpt lat="44.2628183" lon="11.7562317"><ele>84.60000000000001</ele><time>2026-04-26T14:00:22.577Z</time></trkpt><trkpt lat="44.26278" lon="11.7564033"><ele>86.2</ele><time>2026-04-26T14:00:24.581Z</time></trkpt><trkpt lat="44.262745" lon="11.7564867"><ele>87.8</ele><time>2026-04-26T14:00:25.579Z</time></trkpt><trkpt lat="44.2627" lon="11.7565617"><ele>89.4</ele><time>2026-04-26T14:00:26.584Z</time></trkpt><trkpt lat="44.262665" lon="11.7566383"><ele>91.0</ele><time>2026-04-26T14:00:27.572Z</time></trkpt><trkpt lat="44.2626367" lon="11.7568017"><ele>92.5</ele><time>2026-04-26T14:00:29.577Z</time></trkpt><trkpt lat="44.2626483" lon="11.7568933"><ele>94.0</ele><time>2026-04-26T14:00:30.582Z</time></trkpt><trkpt lat="44.2626917" lon="11.75699"><ele>95.5</ele><time>2026-04-26T14:00:31.585Z</time></trkpt><trkpt lat="44.2627433" lon="11.757085"><ele>97.0</ele><time>2026-04-26T14:00:32.598Z</time></trkpt><trkpt lat="44.2628" lon="11.757175"><ele>98.50000000000001</ele><time>2026-04-26T14:00:33.579Z</time></trkpt><trkpt lat="44.2628633" lon="11.7572483"><ele>100.0</ele><time>2026-04-26T14:00:34.591Z</time></trkpt><trkpt lat="44.2629383" lon="11.7572833"><ele>100.00000000000001</ele><time>2026-04-26T14:00:35.567Z</time></trkpt><trkpt lat="44.2630217" lon="11.757275"><ele>100.0</ele><time>2026-04-26T14:00:36.579Z</time></trkpt><trkpt lat="44.2630917" lon="11.757205"><ele>100.0</ele><time>2026-04-26T14:00:37.565Z</time></trkpt><trkpt lat="44.263155" lon="11.7571183"><ele>100.0</ele><time>2026-04-26T14:00:38.577Z</time></trkpt><trkpt lat="44.26323" lon="11.7570583"><ele>100.00000000000001</ele><time>2026-04-26T14:00:39.573Z</time></trkpt><trkpt lat="44.2633017" lon="11.7569883"><ele>100.0</ele><time>2026-04-26T14:00:40.577Z</time></trkpt><trkpt lat="44.2633717" lon="11.7569183"><ele>99.66666666666667</ele><time>2026-04-26T14:00:41.562Z</time></trkpt><trkpt lat="44.263435" lon="11.7568567"><ele>99.33333333333334</ele><time>2026-04-26T14:00:42.564Z</time></trkpt><trkpt lat="44.2634917" lon="11.7568183"><ele>99.0</ele><time>2026-04-26T14:00:43.563Z</time></trkpt><trkpt lat="44.2636033" lon="11.756805"><ele>98.66666666666666</ele><time>2026-04-26T14:00:45.564Z</time></trkpt><trkpt lat="44.263665" lon="11.7568267"><ele>98.33333333333333</ele><time>2026-04-26T14:00:46.568Z</time></trkpt><trkpt lat="44.263735" lon="11.7568517"><ele>98.0</ele><time>2026-04-26T14:00:47.562Z</time></trkpt><trkpt lat="44.2638067" lon="11.756875"><ele>97.99999999999999</ele><time>2026-04-26T14:00:48.569Z</time></trkpt><trkpt lat="44.26387" lon="11.7568917"><ele>98.0</ele><time>2026-04-26T14:00:49.559Z</time></trkpt><trkpt lat="44.26394" lon="11.7569567"><ele>98.0</ele><time>2026-04-26T14:00:51.556Z</time></trkpt><trkpt lat="44.2639185" lon="11.7570456"><ele>98.0</ele><time>2026-04-26T14:00:53.573Z</time></trkpt><trkpt lat="44.2638553" lon="11.7570737"><ele>97.99999999999999</ele><time>2026-04-26T14:00:54.562Z</time></trkpt><trkpt lat="44.2637761" lon="11.7570821"><ele>98.0</ele><time>2026-04-26T14:00:55.564Z</time></trkpt><trkpt lat="44.2636881" lon="11.7570765"><ele>98.0</ele><time>2026-04-26T14:00:56.573Z</time></trkpt><trkpt lat="44.2635998" lon="11.7570743"><ele>98.0</ele><time>2026-04-26T14:00:57.561Z</time></trkpt><trkpt lat="44.2635177" lon="11.7570868"><ele>98.0</ele><time>2026-04-26T14:00:58.57Z</time></trkpt><trkpt lat="44.2634483" lon="11.7571247"><ele>98.0</ele><time>2026-04-26T14:00:59.562Z</time></trkpt><trkpt lat="44.2633943" lon="11.7571858"><ele>98.0</ele><time>2026-04-26T14:01:00.568Z</time></trkpt><trkpt lat="44.2633577" lon="11.7572629"><ele>98.0</ele><time>2026-04-26T14:01:01.578Z</time></trkpt><trkpt lat="44.2633368" lon="11.7573525"><ele>98.0</ele><time>2026-04-26T14:01:02.562Z</time></trkpt><trkpt lat="44.2633316" lon="11.7574516"><ele>97.99999999999999</ele><time>2026-04-26T14:01:03.577Z</time></trkpt><trkpt lat="44.263342" lon="11.7575623"><ele>98.0</ele><time>2026-04-26T14:01:04.57Z</time></trkpt><trkpt lat="44.2633559" lon="11.7576769"><ele>98.0</ele><time>2026-04-26T14:01:05.567Z</time></trkpt><trkpt lat="44.2633684" lon="11.7577913"><ele>98.0</ele><time>2026-04-26T14:01:06.554Z</time></trkpt><trkpt lat="44.2633769" lon="11.7579067"><ele>97.99999999999999</ele><time>2026-04-26T14:01:07.564Z</time></trkpt><trkpt lat="44.2633854" lon="11.7580284"><ele>98.0</ele><time>2026-04-26T14:01:08.573Z</time></trkpt><trkpt lat="44.2633945" lon="11.7581542"><ele>100.60000000000001</ele><time>2026-04-26T14:01:09.566Z</time></trkpt><trkpt lat="44.2634008" lon="11.7582821"><ele>103.2</ele><time>2026-04-26T14:01:10.572Z</time></trkpt><trkpt lat="44.2634111" lon="11.7584083"><ele>105.8</ele><time>2026-04-26T14:01:11.574Z</time></trkpt><trkpt lat="44.2634209" lon="11.7585351"><ele>108.4</ele><time>2026-04-26T14:01:12.587Z</time></trkpt><trkpt lat="44.2634318" lon="11.7586618"><ele>111.0</ele><time>2026-04-26T14:01:13.576Z</time></trkpt><trkpt lat="44.2634404" lon="11.7587896"><ele>112.19999999999999</ele><time>2026-04-26T14:01:14.585Z</time></trkpt><trkpt lat="44.2634466" lon="11.7589138"><ele>113.39999999999999</ele><time>2026-04-26T14:01:15.574Z</time></trkpt><trkpt lat="44.2634555" lon="11.759045"><ele>114.6</ele><time>2026-04-26T14:01:16.574Z</time></trkpt><trkpt lat="44.2634661" lon="11.7591865"><ele>115.8</ele><time>2026-04-26T14:01:17.57Z</time></trkpt><trkpt lat="44.2634779" lon="11.7593347"><ele>117.0</ele><time>2026-04-26T14:01:18.577Z</time></trkpt><trkpt lat="44.2634934" lon="11.7594823"><ele>117.6</ele><time>2026-04-26T14:01:19.578Z</time></trkpt><trkpt lat="44.2635111" lon="11.7596305"><ele>118.19999999999999</ele><time>2026-04-26T14:01:20.574Z</time></trkpt><trkpt lat="44.2635285" lon="11.7597768"><ele>118.8</ele><time>2026-04-26T14:01:21.568Z</time></trkpt><trkpt lat="44.2635453" lon="11.7599178"><ele>119.4</ele><time>2026-04-26T14:01:22.566Z</time></trkpt><trkpt lat="44.263554" lon="11.7600401"><ele>120.0</ele><time>2026-04-26T14:01:23.577Z</time></trkpt><trkpt lat="44.2635519" lon="11.7601489"><ele>119.5</ele><time>2026-04-26T14:01:24.577Z</time></trkpt><trkpt lat="44.2635366" lon="11.7602403"><ele>119.0</ele><time>2026-04-26T14:01:25.577Z</time></trkpt><trkpt lat="44.263455" lon="11.7603696"><ele>118.5</ele><time>2026-04-26T14:01:27.582Z</time></trkpt><trkpt lat="44.2633899" lon="11.7604251"><ele>118.0</ele><time>2026-04-26T14:01:28.575Z</time></trkpt><trkpt lat="44.2633151" lon="11.7604845"><ele>117.5</ele><time>2026-04-26T14:01:29.574Z</time></trkpt><trkpt lat="44.2632325" lon="11.7605451"><ele>117.0</ele><time>2026-04-26T14:01:30.582Z</time></trkpt><trkpt lat="44.2631497" lon="11.7606118"><ele>120.39999999999999</ele><time>2026-04-26T14:01:31.574Z</time></trkpt><trkpt lat="44.2630689" lon="11.7606817"><ele>123.79999999999998</ele><time>2026-04-26T14:01:32.566Z</time></trkpt><trkpt lat="44.262991" lon="11.7607524"><ele>127.2</ele><time>2026-04-26T14:01:33.572Z</time></trkpt><trkpt lat="44.262914" lon="11.7608227"><ele>130.6</ele><time>2026-04-26T14:01:34.583Z</time></trkpt><trkpt lat="44.2628374" lon="11.7608898"><ele>134.0</ele><time>2026-04-26T14:01:35.583Z</time></trkpt><trkpt lat="44.2627605" lon="11.7609463"><ele>134.0</ele><time>2026-04-26T14:01:36.584Z</time></trkpt><trkpt lat="44.2626876" lon="11.7609864"><ele>134.0</ele><time>2026-04-26T14:01:37.583Z</time></trkpt><trkpt lat="44.2626144" lon="11.7610073"><ele>134.0</ele><time>2026-04-26T14:01:38.579Z</time></trkpt><trkpt lat="44.2625395" lon="11.761011"><ele>134.0</ele><time>2026-04-26T14:01:39.574Z</time></trkpt><trkpt lat="44.2624616" lon="11.7609985"><ele>134.0</ele><time>2026-04-26T14:01:40.571Z</time></trkpt><trkpt lat="44.2623829" lon="11.7609765"><ele>134.0</ele><time>2026-04-26T14:01:41.566Z</time></trkpt><trkpt lat="44.2623025" lon="11.7609458"><ele>134.6</ele><time>2026-04-26T14:01:42.58Z</time></trkpt><trkpt lat="44.2622213" lon="11.7609127"><ele>135.2</ele><time>2026-04-26T14:01:43.575Z</time></trkpt><trkpt lat="44.2621395" lon="11.7608733"><ele>135.79999999999998</ele><time>2026-04-26T14:01:44.572Z</time></trkpt><trkpt lat="44.2620577" lon="11.7608252"><ele>136.4</ele><time>2026-04-26T14:01:45.571Z</time></trkpt><trkpt lat="44.2619734" lon="11.7607688"><ele>137.0</ele><time>2026-04-26T14:01:46.572Z</time></trkpt><trkpt lat="44.261887" lon="11.7607082"><ele>137.0</ele><time>2026-04-26T14:01:47.574Z</time></trkpt><trkpt lat="44.2617999" lon="11.7606479"><ele>137.0</ele><time>2026-04-26T14:01:48.581Z</time></trkpt><trkpt lat="44.2617076" lon="11.7606009"><ele>137.0</ele><time>2026-04-26T14:01:49.585Z</time></trkpt><trkpt lat="44.2616142" lon="11.7605627"><ele>137.0</ele><time>2026-04-26T14:01:50.576Z</time></trkpt><trkpt lat="44.2615194" lon="11.7605309"><ele>137.0</ele><time>2026-04-26T14:01:51.571Z</time></trkpt><trkpt lat="44.2614307" lon="11.7605014"><ele>138.0</ele><time>2026-04-26T14:01:52.571Z</time></trkpt><trkpt lat="44.261344" lon="11.7604662"><ele>139.0</ele><time>2026-04-26T14:01:53.569Z</time></trkpt><trkpt lat="44.2612587" lon="11.7604223"><ele>140.0</ele><time>2026-04-26T14:01:54.577Z</time></trkpt><trkpt lat="44.2611744" lon="11.7603749"><ele>141.0</ele><time>2026-04-26T14:01:55.572Z</time></trkpt><trkpt lat="44.2610898" lon="11.7603247"><ele>142.0</ele><time>2026-04-26T14:01:56.566Z</time></trkpt><trkpt lat="44.2610061" lon="11.7602714"><ele>142.0</ele><time>2026-04-26T14:01:57.57Z</time></trkpt><trkpt lat="44.2609198" lon="11.760214"><ele>142.0</ele><time>2026-04-26T14:01:58.588Z</time></trkpt><trkpt lat="44.2608335" lon="11.7601542"><ele>142.0</ele><time>2026-04-26T14:01:59.571Z</time></trkpt><trkpt lat="44.2607422" lon="11.760098"><ele>142.0</ele><time>2026-04-26T14:02:00.574Z</time></trkpt><trkpt lat="44.2606502" lon="11.7600542"><ele>142.0</ele><time>2026-04-26T14:02:01.579Z</time></trkpt><trkpt lat="44.2605542" lon="11.7600221"><ele>146.39999999999998</ele><time>2026-04-26T14:02:02.584Z</time></trkpt><trkpt lat="44.2604514" lon="11.7600035"><ele>150.79999999999998</ele><time>2026-04-26T14:02:03.565Z</time></trkpt><trkpt lat="44.260348" lon="11.7599924"><ele>155.2</ele><time>2026-04-26T14:02:04.58Z</time></trkpt><trkpt lat="44.260246" lon="11.7599892"><ele>159.6</ele><time>2026-04-26T14:02:05.59Z</time></trkpt><trkpt lat="44.2601462" lon="11.7599988"><ele>164.0</ele><time>2026-04-26T14:02:06.58Z</time></trkpt><trkpt lat="44.26005" lon="11.7600249"><ele>164.0</ele><time>2026-04-26T14:02:07.582Z</time></trkpt><trkpt lat="44.2599576" lon="11.7600584"><ele>164.0</ele><time>2026-04-26T14:02:08.59Z</time></trkpt><trkpt lat="44.2598679" lon="11.7600929"><ele>164.0</ele><time>2026-04-26T14:02:09.586Z</time></trkpt><trkpt lat="44.2597784" lon="11.7601268"><ele>164.0</ele><time>2026-04-26T14:02:10.569Z</time></trkpt><trkpt lat="44.2596853" lon="11.7601574"><ele>164.0</ele><time>2026-04-26T14:02:11.575Z</time></trkpt><trkpt lat="44.2595934" lon="11.7601746"><ele>164.28571428571428</ele><time>2026-04-26T14:02:12.58Z</time></trkpt><trkpt lat="44.2595087" lon="11.7601763"><ele>164.57142857142856</ele><time>2026-04-26T14:02:13.586Z</time></trkpt><trkpt lat="44.2594317" lon="11.7601811"><ele>164.85714285714283</ele><time>2026-04-26T14:02:14.584Z</time></trkpt><trkpt lat="44.2593661" lon="11.7602024"><ele>165.14285714285714</ele><time>2026-04-26T14:02:15.569Z</time></trkpt><trkpt lat="44.2593089" lon="11.7602497"><ele>165.42857142857144</ele><time>2026-04-26T14:02:16.581Z</time></trkpt><trkpt lat="44.2592603" lon="11.7603168"><ele>165.7142857142857</ele><time>2026-04-26T14:02:17.581Z</time></trkpt><trkpt lat="44.2592228" lon="11.7604052"><ele>166.0</ele><time>2026-04-26T14:02:18.574Z</time></trkpt><trkpt lat="44.2591786" lon="11.7605052"><ele>166.0</ele><time>2026-04-26T14:02:19.573Z</time></trkpt><trkpt lat="44.259125" lon="11.7606081"><ele>166.0</ele><time>2026-04-26T14:02:20.575Z</time></trkpt><trkpt lat="44.2590608" lon="11.7607053"><ele>166.0</ele><time>2026-04-26T14:02:21.594Z</time></trkpt><trkpt lat="44.2589917" lon="11.7608083"><ele>166.0</ele><time>2026-04-26T14:02:22.577Z</time></trkpt><trkpt lat="44.258925" lon="11.7609117"><ele>166.0</ele><time>2026-04-26T14:02:23.564Z</time></trkpt><trkpt lat="44.25886" lon="11.7610067"><ele>166.33333333333334</ele><time>2026-04-26T14:02:24.574Z</time></trkpt><trkpt lat="44.2588" lon="11.7610867"><ele>166.66666666666669</ele><time>2026-04-26T14:02:25.568Z</time></trkpt><trkpt lat="44.25874" lon="11.7611517"><ele>167.0</ele><time>2026-04-26T14:02:26.574Z</time></trkpt><trkpt lat="44.2586733" lon="11.7612117"><ele>167.33333333333334</ele><time>2026-04-26T14:02:27.572Z</time></trkpt><trkpt lat="44.2586017" lon="11.761265"><ele>167.66666666666666</ele><time>2026-04-26T14:02:28.584Z</time></trkpt><trkpt lat="44.2585283" lon="11.7613133"><ele>168.0</ele><time>2026-04-26T14:02:29.567Z</time></trkpt><trkpt lat="44.2584517" lon="11.761355"><ele>168.0</ele><time>2026-04-26T14:02:30.567Z</time></trkpt><trkpt lat="44.258375" lon="11.7613933"><ele>168.0</ele><time>2026-04-26T14:02:31.571Z</time></trkpt><trkpt lat="44.2583" lon="11.7614317"><ele>168.0</ele><time>2026-04-26T14:02:32.575Z</time></trkpt><trkpt lat="44.2582233" lon="11.761465"><ele>168.0</ele><time>2026-04-26T14:02:33.573Z</time></trkpt><trkpt lat="44.2581433" lon="11.7614983"><ele>168.0</ele><time>2026-04-26T14:02:34.579Z</time></trkpt><trkpt lat="44.2580667" lon="11.7615383"><ele>168.0</ele><time>2026-04-26T14:02:35.576Z</time></trkpt><trkpt lat="44.257985" lon="11.7615783"><ele>169.0</ele><time>2026-04-26T14:02:36.584Z</time></trkpt><trkpt lat="44.2579017" lon="11.7616233"><ele>170.0</ele><time>2026-04-26T14:02:37.566Z</time></trkpt><trkpt lat="44.25782" lon="11.7616633"><ele>171.0</ele><time>2026-04-26T14:02:38.564Z</time></trkpt><trkpt lat="44.2577333" lon="11.7616883"><ele>172.0</ele><time>2026-04-26T14:02:39.577Z</time></trkpt><trkpt lat="44.25765" lon="11.7616883"><ele>173.0</ele><time>2026-04-26T14:02:40.572Z</time></trkpt><trkpt lat="44.2575683" lon="11.7616733"><ele>174.0</ele><time>2026-04-26T14:02:41.574Z</time></trkpt><trkpt lat="44.2574917" lon="11.761645"><ele>174.0</ele><time>2026-04-26T14:02:42.58Z</time></trkpt><trkpt lat="44.2574167" lon="11.7615933"><ele>174.0</ele><time>2026-04-26T14:02:43.568Z</time></trkpt><trkpt lat="44.2573417" lon="11.76152"><ele>174.0</ele><time>2026-04-26T14:02:44.574Z</time></trkpt><trkpt lat="44.2572717" lon="11.7614383"><ele>174.0</ele><time>2026-04-26T14:02:45.573Z</time></trkpt><trkpt lat="44.257205" lon="11.76136"><ele>174.0</ele><time>2026-04-26T14:02:46.565Z</time></trkpt><trkpt lat="44.2571367" lon="11.7612917"><ele>174.0</ele><time>2026-04-26T14:02:47.572Z</time></trkpt><trkpt lat="44.25706" lon="11.7612367"><ele>175.6</ele><time>2026-04-26T14:02:48.581Z</time></trkpt><trkpt lat="44.2569833" lon="11.761185"><ele>177.2</ele><time>2026-04-26T14:02:49.57Z</time></trkpt><trkpt lat="44.2569017" lon="11.761135"><ele>178.79999999999998</ele><time>2026-04-26T14:02:50.568Z</time></trkpt><trkpt lat="44.25682" lon="11.7610717"><ele>180.39999999999998</ele><time>2026-04-26T14:02:51.572Z</time></trkpt><trkpt lat="44.2567417" lon="11.7609917"><ele>182.0</ele><time>2026-04-26T14:02:52.562Z</time></trkpt><trkpt lat="44.25667" lon="11.7609017"><ele>182.0</ele><time>2026-04-26T14:02:53.562Z</time></trkpt><trkpt lat="44.2566017" lon="11.7608033"><ele>182.0</ele><time>2026-04-26T14:02:54.579Z</time></trkpt><trkpt lat="44.2565367" lon="11.7607017"><ele>182.0</ele><time>2026-04-26T14:02:55.578Z</time></trkpt><trkpt lat="44.2564733" lon="11.7606033"><ele>182.0</ele><time>2026-04-26T14:02:56.575Z</time></trkpt><trkpt lat="44.25641" lon="11.7605033"><ele>182.0</ele><time>2026-04-26T14:02:57.581Z</time></trkpt><trkpt lat="44.2563417" lon="11.760405"><ele>182.6</ele><time>2026-04-26T14:02:58.592Z</time></trkpt><trkpt lat="44.2562667" lon="11.7603117"><ele>183.2</ele><time>2026-04-26T14:02:59.584Z</time></trkpt><trkpt lat="44.2561933" lon="11.7602183"><ele>183.8</ele><time>2026-04-26T14:03:00.582Z</time></trkpt><trkpt lat="44.2561233" lon="11.7601233"><ele>184.4</ele><time>2026-04-26T14:03:01.572Z</time></trkpt><trkpt lat="44.256055" lon="11.76002"><ele>185.0</ele><time>2026-04-26T14:03:02.568Z</time></trkpt><trkpt lat="44.2559867" lon="11.7599167"><ele>185.0</ele><time>2026-04-26T14:03:03.576Z</time></trkpt><trkpt lat="44.255915" lon="11.7598183"><ele>185.0</ele><time>2026-04-26T14:03:04.574Z</time></trkpt><trkpt lat="44.2558433" lon="11.759725"><ele>185.0</ele><time>2026-04-26T14:03:05.571Z</time></trkpt><trkpt lat="44.2557033" lon="11.75953"><ele>185.0</ele><time>2026-04-26T14:03:07.567Z</time></trkpt><trkpt lat="44.2556317" lon="11.759425"><ele>186.0</ele><time>2026-04-26T14:03:08.579Z</time></trkpt><trkpt lat="44.2555617" lon="11.7593167"><ele>187.0</ele><time>2026-04-26T14:03:09.579Z</time></trkpt><trkpt lat="44.255485" lon="11.7592083"><ele>188.0</ele><time>2026-04-26T14:03:10.576Z</time></trkpt><trkpt lat="44.2554033" lon="11.7591067"><ele>189.0</ele><time>2026-04-26T14:03:11.568Z</time></trkpt><trkpt lat="44.2553167" lon="11.7590133"><ele>190.0</ele><time>2026-04-26T14:03:12.576Z</time></trkpt><trkpt lat="44.255225" lon="11.75893"><ele>190.0</ele><time>2026-04-26T14:03:13.58Z</time></trkpt><trkpt lat="44.2551333" lon="11.7588483"><ele>190.0</ele><time>2026-04-26T14:03:14.584Z</time></trkpt><trkpt lat="44.2550367" lon="11.7587833"><ele>190.0</ele><time>2026-04-26T14:03:15.567Z</time></trkpt><trkpt lat="44.2549333" lon="11.7587283"><ele>190.0</ele><time>2026-04-26T14:03:16.571Z</time></trkpt><trkpt lat="44.2548233" lon="11.7586933"><ele>190.0</ele><time>2026-04-26T14:03:17.569Z</time></trkpt><trkpt lat="44.2547083" lon="11.758675"><ele>189.5</ele><time>2026-04-26T14:03:18.576Z</time></trkpt><trkpt lat="44.25459" lon="11.7586617"><ele>189.0</ele><time>2026-04-26T14:03:19.575Z</time></trkpt><trkpt lat="44.2544683" lon="11.75865"><ele>188.5</ele><time>2026-04-26T14:03:20.573Z</time></trkpt><trkpt lat="44.25435" lon="11.758645"><ele>188.0</ele><time>2026-04-26T14:03:21.583Z</time></trkpt><trkpt lat="44.25423" lon="11.7586483"><ele>188.0</ele><time>2026-04-26T14:03:22.567Z</time></trkpt><trkpt lat="44.254115" lon="11.758645"><ele>188.0</ele><time>2026-04-26T14:03:23.58Z</time></trkpt><trkpt lat="44.2539983" lon="11.7586433"><ele>188.0</ele><time>2026-04-26T14:03:24.582Z</time></trkpt><trkpt lat="44.253885" lon="11.7586433"><ele>188.0</ele><time>2026-04-26T14:03:25.579Z</time></trkpt><trkpt lat="44.2537733" lon="11.7586417"><ele>188.4</ele><time>2026-04-26T14:03:26.573Z</time></trkpt><trkpt lat="44.2536633" lon="11.7586367"><ele>188.8</ele><time>2026-04-26T14:03:27.566Z</time></trkpt><trkpt lat="44.253555" lon="11.75863"><ele>189.2</ele><time>2026-04-26T14:03:28.584Z</time></trkpt><trkpt lat="44.2534517" lon="11.758605"><ele>189.6</ele><time>2026-04-26T14:03:29.573Z</time></trkpt><trkpt lat="44.2533517" lon="11.7585533"><ele>190.0</ele><time>2026-04-26T14:03:30.583Z</time></trkpt><trkpt lat="44.253255" lon="11.758485"><ele>190.0</ele><time>2026-04-26T14:03:31.568Z</time></trkpt><trkpt lat="44.2531567" lon="11.7584033"><ele>190.0</ele><time>2026-04-26T14:03:32.573Z</time></trkpt><trkpt lat="44.253055" lon="11.7583183"><ele>190.0</ele><time>2026-04-26T14:03:33.567Z</time></trkpt><trkpt lat="44.25295" lon="11.7582333"><ele>190.0</ele><time>2026-04-26T14:03:34.584Z</time></trkpt><trkpt lat="44.252845" lon="11.7581433"><ele>191.25</ele><time>2026-04-26T14:03:35.575Z</time></trkpt><trkpt lat="44.2527367" lon="11.7580567"><ele>192.5</ele><time>2026-04-26T14:03:36.577Z</time></trkpt><trkpt lat="44.2526283" lon="11.7579667"><ele>193.75</ele><time>2026-04-26T14:03:37.564Z</time></trkpt><trkpt lat="44.2525183" lon="11.7578783"><ele>195.0</ele><time>2026-04-26T14:03:38.572Z</time></trkpt><trkpt lat="44.2524067" lon="11.75779"><ele>195.0</ele><time>2026-04-26T14:03:39.578Z</time></trkpt><trkpt lat="44.2522967" lon="11.7577"><ele>195.0</ele><time>2026-04-26T14:03:40.573Z</time></trkpt><trkpt lat="44.25219" lon="11.7576067"><ele>195.0</ele><time>2026-04-26T14:03:41.573Z</time></trkpt><trkpt lat="44.25208" lon="11.7575133"><ele>195.0</ele><time>2026-04-26T14:03:42.575Z</time></trkpt><trkpt lat="44.2519667" lon="11.7574233"><ele>195.0</ele><time>2026-04-26T14:03:43.572Z</time></trkpt><trkpt lat="44.2518533" lon="11.7573367"><ele>195.0</ele><time>2026-04-26T14:03:44.568Z</time></trkpt><trkpt lat="44.2517383" lon="11.75725"><ele>195.0</ele><time>2026-04-26T14:03:45.575Z</time></trkpt><trkpt lat="44.2516233" lon="11.7571633"><ele>195.0</ele><time>2026-04-26T14:03:46.577Z</time></trkpt><trkpt lat="44.2515117" lon="11.7570783"><ele>197.25</ele><time>2026-04-26T14:03:47.573Z</time></trkpt><trkpt lat="44.2513967" lon="11.7569967"><ele>199.5</ele><time>2026-04-26T14:03:48.583Z</time></trkpt><trkpt lat="44.2512817" lon="11.7569217"><ele>201.75</ele><time>2026-04-26T14:03:49.575Z</time></trkpt><trkpt lat="44.2511683" lon="11.75685"><ele>204.0</ele><time>2026-04-26T14:03:50.572Z</time></trkpt><trkpt lat="44.251055" lon="11.7567833"><ele>204.0</ele><time>2026-04-26T14:03:51.569Z</time></trkpt><trkpt lat="44.2509417" lon="11.7567217"><ele>204.0</ele><time>2026-04-26T14:03:52.558Z</time></trkpt><trkpt lat="44.2508283" lon="11.75667"><ele>204.0</ele><time>2026-04-26T14:03:53.574Z</time></trkpt><trkpt lat="44.250715" lon="11.756635"><ele>204.0</ele><time>2026-04-26T14:03:54.575Z</time></trkpt><trkpt lat="44.2506117" lon="11.7566133"><ele>201.79999999999998</ele><time>2026-04-26T14:03:55.578Z</time></trkpt><trkpt lat="44.2505133" lon="11.7566"><ele>199.6</ele><time>2026-04-26T14:03:56.578Z</time></trkpt><trkpt lat="44.250425" lon="11.75658"><ele>197.4</ele><time>2026-04-26T14:03:57.569Z</time></trkpt><trkpt lat="44.2503367" lon="11.7565517"><ele>195.2</ele><time>2026-04-26T14:03:58.579Z</time></trkpt><trkpt lat="44.2502517" lon="11.7565117"><ele>193.0</ele><time>2026-04-26T14:03:59.57Z</time></trkpt><trkpt lat="44.2501633" lon="11.7564733"><ele>192.99999999999997</ele><time>2026-04-26T14:04:00.578Z</time></trkpt><trkpt lat="44.2500717" lon="11.7564433"><ele>193.0</ele><time>2026-04-26T14:04:01.575Z</time></trkpt><trkpt lat="44.24998" lon="11.7564233"><ele>193.0</ele><time>2026-04-26T14:04:02.578Z</time></trkpt><trkpt lat="44.2498883" lon="11.7564133"><ele>193.0</ele><time>2026-04-26T14:04:03.582Z</time></trkpt><trkpt lat="44.2498017" lon="11.7563983"><ele>192.99999999999997</ele><time>2026-04-26T14:04:04.573Z</time></trkpt><trkpt lat="44.2497233" lon="11.7563683"><ele>193.0</ele><time>2026-04-26T14:04:05.574Z</time></trkpt><trkpt lat="44.2496567" lon="11.7563133"><ele>191.8</ele><time>2026-04-26T14:04:06.579Z</time></trkpt><trkpt lat="44.2495133" lon="11.75622"><ele>190.60000000000002</ele><time>2026-04-26T14:04:08.569Z</time></trkpt><trkpt lat="44.2494367" lon="11.756215"><ele>189.39999999999998</ele><time>2026-04-26T14:04:09.574Z</time></trkpt><trkpt lat="44.2493617" lon="11.75625"><ele>188.2</ele><time>2026-04-26T14:04:10.575Z</time></trkpt><trkpt lat="44.249295" lon="11.756315"><ele>187.0</ele><time>2026-04-26T14:04:11.568Z</time></trkpt><trkpt lat="44.2492333" lon="11.756385"><ele>187.0</ele><time>2026-04-26T14:04:12.581Z</time></trkpt><trkpt lat="44.2491717" lon="11.7564533"><ele>187.0</ele><time>2026-04-26T14:04:13.574Z</time></trkpt><trkpt lat="44.2491067" lon="11.7565083"><ele>187.0</ele><time>2026-04-26T14:04:14.579Z</time></trkpt><trkpt lat="44.24903" lon="11.7565317"><ele>187.0</ele><time>2026-04-26T14:04:15.567Z</time></trkpt><trkpt lat="44.2489467" lon="11.7565317"><ele>187.0</ele><time>2026-04-26T14:04:16.577Z</time></trkpt><trkpt lat="44.2488583" lon="11.7565283"><ele>187.0</ele><time>2026-04-26T14:04:17.572Z</time></trkpt><trkpt lat="44.248765" lon="11.75653"><ele>187.0</ele><time>2026-04-26T14:04:18.573Z</time></trkpt><trkpt lat="44.2486733" lon="11.75655"><ele>187.0</ele><time>2026-04-26T14:04:19.575Z</time></trkpt><trkpt lat="44.24858" lon="11.7565633"><ele>187.0</ele><time>2026-04-26T14:04:20.572Z</time></trkpt><trkpt lat="44.2484867" lon="11.7565617"><ele>187.0</ele><time>2026-04-26T14:04:21.567Z</time></trkpt><trkpt lat="44.2483917" lon="11.7565617"><ele>187.0</ele><time>2026-04-26T14:04:22.586Z</time></trkpt><trkpt lat="44.2482933" lon="11.7565783"><ele>187.0</ele><time>2026-04-26T14:04:23.564Z</time></trkpt><trkpt lat="44.2482" lon="11.7566117"><ele>187.0</ele><time>2026-04-26T14:04:24.572Z</time></trkpt><trkpt lat="44.2481133" lon="11.75666"><ele>187.0</ele><time>2026-04-26T14:04:25.571Z</time></trkpt><trkpt lat="44.248035" lon="11.7567067"><ele>187.0</ele><time>2026-04-26T14:04:26.569Z</time></trkpt><trkpt lat="44.2479583" lon="11.7567417"><ele>187.0</ele><time>2026-04-26T14:04:27.586Z</time></trkpt><trkpt lat="44.2478767" lon="11.75675"><ele>187.0</ele><time>2026-04-26T14:04:28.577Z</time></trkpt><trkpt lat="44.2477933" lon="11.756745"><ele>187.5</ele><time>2026-04-26T14:04:29.577Z</time></trkpt><trkpt lat="44.247705" lon="11.7567283"><ele>188.0</ele><time>2026-04-26T14:04:30.578Z</time></trkpt><trkpt lat="44.2476167" lon="11.7567267"><ele>188.5</ele><time>2026-04-26T14:04:31.572Z</time></trkpt><trkpt lat="44.2475283" lon="11.7567483"><ele>189.0</ele><time>2026-04-26T14:04:32.577Z</time></trkpt><trkpt lat="44.2474467" lon="11.7568"><ele>189.5</ele><time>2026-04-26T14:04:33.573Z</time></trkpt><trkpt lat="44.2473733" lon="11.7568783"><ele>190.0</ele><time>2026-04-26T14:04:34.598Z</time></trkpt><trkpt lat="44.2473133" lon="11.7569683"><ele>188.16666666666669</ele><time>2026-04-26T14:04:35.591Z</time></trkpt><trkpt lat="44.2472533" lon="11.75705"><ele>186.33333333333334</ele><time>2026-04-26T14:04:36.583Z</time></trkpt><trkpt lat="44.2471833" lon="11.757095"><ele>184.5</ele><time>2026-04-26T14:04:37.576Z</time></trkpt><trkpt lat="44.2471067" lon="11.7571083"><ele>182.66666666666666</ele><time>2026-04-26T14:04:38.567Z</time></trkpt><trkpt lat="44.2470317" lon="11.7571133"><ele>180.83333333333331</ele><time>2026-04-26T14:04:39.567Z</time></trkpt><trkpt lat="44.24696" lon="11.7571333"><ele>179.0</ele><time>2026-04-26T14:04:40.576Z</time></trkpt><trkpt lat="44.2468967" lon="11.7571717"><ele>179.0</ele><time>2026-04-26T14:04:41.571Z</time></trkpt><trkpt lat="44.2468483" lon="11.7572383"><ele>179.0</ele><time>2026-04-26T14:04:42.575Z</time></trkpt><trkpt lat="44.246815" lon="11.7573267"><ele>179.0</ele><time>2026-04-26T14:04:43.568Z</time></trkpt><trkpt lat="44.2468067" lon="11.7574367"><ele>179.0</ele><time>2026-04-26T14:04:44.579Z</time></trkpt><trkpt lat="44.2468233" lon="11.7575633"><ele>179.0</ele><time>2026-04-26T14:04:45.581Z</time></trkpt><trkpt lat="44.2468433" lon="11.7576933"><ele>179.0</ele><time>2026-04-26T14:04:46.571Z</time></trkpt><trkpt lat="44.2468617" lon="11.757815"><ele>179.16666666666666</ele><time>2026-04-26T14:04:47.574Z</time></trkpt><trkpt lat="44.2468767" lon="11.7579367"><ele>179.33333333333331</ele><time>2026-04-26T14:04:48.573Z</time></trkpt><trkpt lat="44.2468967" lon="11.75805"><ele>179.5</ele><time>2026-04-26T14:04:49.578Z</time></trkpt><trkpt lat="44.2469367" lon="11.7581567"><ele>179.66666666666666</ele><time>2026-04-26T14:04:50.573Z</time></trkpt><trkpt lat="44.2469983" lon="11.758245"><ele>179.83333333333334</ele><time>2026-04-26T14:04:51.578Z</time></trkpt><trkpt lat="44.247075" lon="11.7583083"><ele>180.0</ele><time>2026-04-26T14:04:52.575Z</time></trkpt><trkpt lat="44.24716" lon="11.7583467"><ele>180.0</ele><time>2026-04-26T14:04:53.563Z</time></trkpt><trkpt lat="44.24724" lon="11.758395"><ele>180.0</ele><time>2026-04-26T14:04:54.565Z</time></trkpt><trkpt lat="44.24731" lon="11.7584667"><ele>180.0</ele><time>2026-04-26T14:04:55.574Z</time></trkpt><trkpt lat="44.247375" lon="11.7585517"><ele>180.0</ele><time>2026-04-26T14:04:56.578Z</time></trkpt><trkpt lat="44.2474317" lon="11.7586483"><ele>180.0</ele><time>2026-04-26T14:04:57.573Z</time></trkpt><trkpt lat="44.2474867" lon="11.75875"><ele>180.0</ele><time>2026-04-26T14:04:58.583Z</time></trkpt><trkpt lat="44.247545" lon="11.7588483"><ele>180.0</ele><time>2026-04-26T14:04:59.576Z</time></trkpt><trkpt lat="44.247605" lon="11.758945"><ele>180.0</ele><time>2026-04-26T14:05:00.594Z</time></trkpt><trkpt lat="44.2476633" lon="11.7590367"><ele>180.0</ele><time>2026-04-26T14:05:01.555Z</time></trkpt><trkpt lat="44.2477167" lon="11.759125"><ele>180.0</ele><time>2026-04-26T14:05:02.569Z</time></trkpt><trkpt lat="44.24775" lon="11.7592217"><ele>180.0</ele><time>2026-04-26T14:05:03.569Z</time></trkpt><trkpt lat="44.2477667" lon="11.7593333"><ele>180.0</ele><time>2026-04-26T14:05:04.563Z</time></trkpt><trkpt lat="44.2477767" lon="11.7594417"><ele>180.0</ele><time>2026-04-26T14:05:05.575Z</time></trkpt><trkpt lat="44.247775" lon="11.7595617"><ele>180.0</ele><time>2026-04-26T14:05:06.573Z</time></trkpt><trkpt lat="44.2477617" lon="11.75968"><ele>180.0</ele><time>2026-04-26T14:05:07.576Z</time></trkpt><trkpt lat="44.2477367" lon="11.7597967"><ele>180.0</ele><time>2026-04-26T14:05:08.585Z</time></trkpt><trkpt lat="44.2477067" lon="11.7599067"><ele>180.0</ele><time>2026-04-26T14:05:09.571Z</time></trkpt><trkpt lat="44.2476667" lon="11.76001"><ele>180.0</ele><time>2026-04-26T14:05:10.57Z</time></trkpt><trkpt lat="44.2476183" lon="11.7601117"><ele>180.2</ele><time>2026-04-26T14:05:11.564Z</time></trkpt><trkpt lat="44.2475617" lon="11.7602083"><ele>180.4</ele><time>2026-04-26T14:05:12.571Z</time></trkpt><trkpt lat="44.2475033" lon="11.7603017"><ele>180.60000000000002</ele><time>2026-04-26T14:05:13.576Z</time></trkpt><trkpt lat="44.2474483" lon="11.7604067"><ele>180.8</ele><time>2026-04-26T14:05:14.565Z</time></trkpt><trkpt lat="44.2474033" lon="11.7605183"><ele>181.0</ele><time>2026-04-26T14:05:15.567Z</time></trkpt><trkpt lat="44.2473767" lon="11.7606417"><ele>181.0</ele><time>2026-04-26T14:05:16.572Z</time></trkpt><trkpt lat="44.24736" lon="11.760765"><ele>181.0</ele><time>2026-04-26T14:05:17.574Z</time></trkpt><trkpt lat="44.2473517" lon="11.7608817"><ele>181.0</ele><time>2026-04-26T14:05:18.575Z</time></trkpt><trkpt lat="44.2473417" lon="11.7609983"><ele>181.0</ele><time>2026-04-26T14:05:19.577Z</time></trkpt><trkpt lat="44.2473333" lon="11.76111"><ele>181.0</ele><time>2026-04-26T14:05:20.574Z</time></trkpt><trkpt lat="44.247325" lon="11.761215"><ele>181.0</ele><time>2026-04-26T14:05:21.581Z</time></trkpt><trkpt lat="44.2473067" lon="11.761305"><ele>181.57142857142856</ele><time>2026-04-26T14:05:22.577Z</time></trkpt><trkpt lat="44.2472767" lon="11.7613833"><ele>182.14285714285714</ele><time>2026-04-26T14:05:23.564Z</time></trkpt><trkpt lat="44.24722" lon="11.7614333"><ele>182.71428571428572</ele><time>2026-04-26T14:05:24.57Z</time></trkpt><trkpt lat="44.24715" lon="11.7614633"><ele>183.28571428571428</ele><time>2026-04-26T14:05:25.576Z</time></trkpt><trkpt lat="44.2470767" lon="11.76149"><ele>183.85714285714286</ele><time>2026-04-26T14:05:26.573Z</time></trkpt><trkpt lat="44.247005" lon="11.7615133"><ele>184.42857142857142</ele><time>2026-04-26T14:05:27.573Z</time></trkpt><trkpt lat="44.246935" lon="11.7615283"><ele>185.0</ele><time>2026-04-26T14:05:28.579Z</time></trkpt><trkpt lat="44.2468667" lon="11.76152"><ele>184.99999999999997</ele><time>2026-04-26T14:05:29.567Z</time></trkpt><trkpt lat="44.2468033" lon="11.7614817"><ele>185.0</ele><time>2026-04-26T14:05:30.562Z</time></trkpt><trkpt lat="44.2467517" lon="11.761415"><ele>185.0</ele><time>2026-04-26T14:05:31.576Z</time></trkpt><trkpt lat="44.246705" lon="11.7613383"><ele>185.0</ele><time>2026-04-26T14:05:32.566Z</time></trkpt><trkpt lat="44.2466517" lon="11.7612633"><ele>185.0</ele><time>2026-04-26T14:05:33.575Z</time></trkpt><trkpt lat="44.2465967" lon="11.7611917"><ele>184.99999999999997</ele><time>2026-04-26T14:05:34.577Z</time></trkpt><trkpt lat="44.2465367" lon="11.7611283"><ele>185.0</ele><time>2026-04-26T14:05:35.575Z</time></trkpt><trkpt lat="44.2464767" lon="11.7610667"><ele>181.0</ele><time>2026-04-26T14:05:36.566Z</time></trkpt><trkpt lat="44.2464217" lon="11.7609983"><ele>177.0</ele><time>2026-04-26T14:05:37.574Z</time></trkpt><trkpt lat="44.2463233" lon="11.7608417"><ele>173.0</ele><time>2026-04-26T14:05:39.571Z</time></trkpt><trkpt lat="44.2462717" lon="11.7607633"><ele>169.0</ele><time>2026-04-26T14:05:40.575Z</time></trkpt><trkpt lat="44.2462133" lon="11.760695"><ele>165.0</ele><time>2026-04-26T14:05:41.564Z</time></trkpt><trkpt lat="44.2461517" lon="11.7606317"><ele>165.00000000000003</ele><time>2026-04-26T14:05:42.569Z</time></trkpt><trkpt lat="44.2460983" lon="11.7605617"><ele>165.0</ele><time>2026-04-26T14:05:43.579Z</time></trkpt><trkpt lat="44.24606" lon="11.760475"><ele>165.0</ele><time>2026-04-26T14:05:44.579Z</time></trkpt><trkpt lat="44.2460333" lon="11.7603833"><ele>165.0</ele><time>2026-04-26T14:05:45.576Z</time></trkpt><trkpt lat="44.2460067" lon="11.7602883"><ele>165.0</ele><time>2026-04-26T14:05:46.572Z</time></trkpt><trkpt lat="44.2459717" lon="11.7602"><ele>165.00000000000003</ele><time>2026-04-26T14:05:47.563Z</time></trkpt><trkpt lat="44.2459233" lon="11.7601333"><ele>165.0</ele><time>2026-04-26T14:05:48.575Z</time></trkpt><trkpt lat="44.24586" lon="11.7600917"><ele>165.57142857142858</ele><time>2026-04-26T14:05:49.566Z</time></trkpt><trkpt lat="44.24579" lon="11.7600883"><ele>166.14285714285714</ele><time>2026-04-26T14:05:50.564Z</time></trkpt><trkpt lat="44.2457217" lon="11.76011"><ele>166.71428571428572</ele><time>2026-04-26T14:05:51.571Z</time></trkpt><trkpt lat="44.2456517" lon="11.7601467"><ele>167.28571428571428</ele><time>2026-04-26T14:05:52.572Z</time></trkpt><trkpt lat="44.24558" lon="11.760185"><ele>167.85714285714286</ele><time>2026-04-26T14:05:53.56Z</time></trkpt><trkpt lat="44.245505" lon="11.76021"><ele>168.42857142857144</ele><time>2026-04-26T14:05:54.561Z</time></trkpt><trkpt lat="44.2454283" lon="11.7602167"><ele>169.0</ele><time>2026-04-26T14:05:55.569Z</time></trkpt><trkpt lat="44.2453517" lon="11.7602133"><ele>166.0</ele><time>2026-04-26T14:05:56.566Z</time></trkpt><trkpt lat="44.2452767" lon="11.760215"><ele>163.0</ele><time>2026-04-26T14:05:57.573Z</time></trkpt><trkpt lat="44.2452133" lon="11.760235"><ele>160.0</ele><time>2026-04-26T14:05:58.581Z</time></trkpt><trkpt lat="44.2451333" lon="11.7603517"><ele>157.0</ele><time>2026-04-26T14:06:00.573Z</time></trkpt><trkpt lat="44.245165" lon="11.7604433"><ele>154.0</ele><time>2026-04-26T14:06:01.572Z</time></trkpt><trkpt lat="44.24521" lon="11.760515"><ele>151.0</ele><time>2026-04-26T14:06:02.564Z</time></trkpt><trkpt lat="44.2452783" lon="11.7605417"><ele>151.0</ele><time>2026-04-26T14:06:03.575Z</time></trkpt><trkpt lat="44.2453583" lon="11.7605317"><ele>151.0</ele><time>2026-04-26T14:06:04.578Z</time></trkpt><trkpt lat="44.24544" lon="11.7605067"><ele>151.0</ele><time>2026-04-26T14:06:05.57Z</time></trkpt><trkpt lat="44.2455183" lon="11.7604817"><ele>151.0</ele><time>2026-04-26T14:06:06.576Z</time></trkpt><trkpt lat="44.245595" lon="11.7604717"><ele>151.0</ele><time>2026-04-26T14:06:07.583Z</time></trkpt><trkpt lat="44.2456683" lon="11.7604933"><ele>151.0</ele><time>2026-04-26T14:06:08.569Z</time></trkpt><trkpt lat="44.2457767" lon="11.7606267"><ele>153.16666666666669</ele><time>2026-04-26T14:06:10.573Z</time></trkpt><trkpt lat="44.2458167" lon="11.7607383"><ele>155.33333333333334</ele><time>2026-04-26T14:06:11.573Z</time></trkpt><trkpt lat="44.245855" lon="11.7608567"><ele>157.5</ele><time>2026-04-26T14:06:12.573Z</time></trkpt><trkpt lat="44.24589" lon="11.7609667"><ele>159.66666666666666</ele><time>2026-04-26T14:06:13.572Z</time></trkpt><trkpt lat="44.2459167" lon="11.7610767"><ele>161.83333333333331</ele><time>2026-04-26T14:06:14.564Z</time></trkpt><trkpt lat="44.2459217" lon="11.7611733"><ele>164.0</ele><time>2026-04-26T14:06:15.57Z</time></trkpt><trkpt lat="44.24585" lon="11.7612883"><ele>163.99999999999997</ele><time>2026-04-26T14:06:17.574Z</time></trkpt><trkpt lat="44.2457867" lon="11.7612933"><ele>164.0</ele><time>2026-04-26T14:06:18.58Z</time></trkpt><trkpt lat="44.2457117" lon="11.76128"><ele>164.0</ele><time>2026-04-26T14:06:19.572Z</time></trkpt><trkpt lat="44.2456317" lon="11.76127"><ele>164.0</ele><time>2026-04-26T14:06:20.578Z</time></trkpt><trkpt lat="44.2455533" lon="11.76128"><ele>164.0</ele><time>2026-04-26T14:06:21.576Z</time></trkpt><trkpt lat="44.2454833" lon="11.761315"><ele>163.99999999999997</ele><time>2026-04-26T14:06:22.571Z</time></trkpt><trkpt lat="44.2454217" lon="11.7613683"><ele>164.0</ele><time>2026-04-26T14:06:23.578Z</time></trkpt><trkpt lat="44.24537" lon="11.761435"><ele>162.5</ele><time>2026-04-26T14:06:24.57Z</time></trkpt><trkpt lat="44.24533" lon="11.7615067"><ele>161.0</ele><time>2026-04-26T14:06:25.573Z</time></trkpt><trkpt lat="44.245295" lon="11.7616667"><ele>159.5</ele><time>2026-04-26T14:06:27.568Z</time></trkpt><trkpt lat="44.2452917" lon="11.76176"><ele>158.0</ele><time>2026-04-26T14:06:28.58Z</time></trkpt><trkpt lat="44.2452917" lon="11.7618633"><ele>156.5</ele><time>2026-04-26T14:06:29.574Z</time></trkpt><trkpt lat="44.2452967" lon="11.7619733"><ele>155.0</ele><time>2026-04-26T14:06:30.571Z</time></trkpt><trkpt lat="44.2452967" lon="11.762075"><ele>155.0</ele><time>2026-04-26T14:06:31.564Z</time></trkpt><trkpt lat="44.24528" lon="11.7621617"><ele>155.0</ele><time>2026-04-26T14:06:32.57Z</time></trkpt><trkpt lat="44.2451933" lon="11.7622267"><ele>155.0</ele><time>2026-04-26T14:06:34.572Z</time></trkpt><trkpt lat="44.2450983" lon="11.7620933"><ele>155.0</ele><time>2026-04-26T14:06:36.569Z</time></trkpt><trkpt lat="44.2450517" lon="11.76199"><ele>155.0</ele><time>2026-04-26T14:06:37.572Z</time></trkpt><trkpt lat="44.245" lon="11.7618717"><ele>153.6</ele><time>2026-04-26T14:06:38.575Z</time></trkpt><trkpt lat="44.2449383" lon="11.7617567"><ele>152.2</ele><time>2026-04-26T14:06:39.568Z</time></trkpt><trkpt lat="44.244865" lon="11.7616533"><ele>150.8</ele><time>2026-04-26T14:06:40.575Z</time></trkpt><trkpt lat="44.2447833" lon="11.7615633"><ele>149.4</ele><time>2026-04-26T14:06:41.573Z</time></trkpt><trkpt lat="44.244695" lon="11.761485"><ele>148.0</ele><time>2026-04-26T14:06:42.572Z</time></trkpt><trkpt lat="44.2445983" lon="11.7614217"><ele>148.0</ele><time>2026-04-26T14:06:43.569Z</time></trkpt><trkpt lat="44.2444967" lon="11.7613617"><ele>148.0</ele><time>2026-04-26T14:06:44.576Z</time></trkpt><trkpt lat="44.2443917" lon="11.761305"><ele>148.0</ele><time>2026-04-26T14:06:45.573Z</time></trkpt><trkpt lat="44.2442867" lon="11.7612483"><ele>148.0</ele><time>2026-04-26T14:06:46.576Z</time></trkpt><trkpt lat="44.2441833" lon="11.761185"><ele>148.0</ele><time>2026-04-26T14:06:47.577Z</time></trkpt><trkpt lat="44.2440817" lon="11.7611267"><ele>148.0</ele><time>2026-04-26T14:06:48.584Z</time></trkpt><trkpt lat="44.243975" lon="11.761075"><ele>148.0</ele><time>2026-04-26T14:06:49.576Z</time></trkpt><trkpt lat="44.2438667" lon="11.7610267"><ele>148.0</ele><time>2026-04-26T14:06:50.576Z</time></trkpt><trkpt lat="44.24376" lon="11.7609767"><ele>148.0</ele><time>2026-04-26T14:06:51.586Z</time></trkpt><trkpt lat="44.2436517" lon="11.7609233"><ele>144.75</ele><time>2026-04-26T14:06:52.569Z</time></trkpt><trkpt lat="44.2435417" lon="11.760865"><ele>141.5</ele><time>2026-04-26T14:06:53.597Z</time></trkpt><trkpt lat="44.2434267" lon="11.7608067"><ele>138.25</ele><time>2026-04-26T14:06:54.569Z</time></trkpt><trkpt lat="44.2433133" lon="11.760725"><ele>135.0</ele><time>2026-04-26T14:06:55.576Z</time></trkpt><trkpt lat="44.2432067" lon="11.7606233"><ele>133.5</ele><time>2026-04-26T14:06:56.586Z</time></trkpt><trkpt lat="44.2431017" lon="11.7605133"><ele>132.0</ele><time>2026-04-26T14:06:57.568Z</time></trkpt><trkpt lat="44.2429983" lon="11.7604"><ele>130.5</ele><time>2026-04-26T14:06:58.586Z</time></trkpt><trkpt lat="44.242895" lon="11.7602883"><ele>129.0</ele><time>2026-04-26T14:06:59.581Z</time></trkpt><trkpt lat="44.2427933" lon="11.7601833"><ele>129.0</ele><time>2026-04-26T14:07:00.575Z</time></trkpt><trkpt lat="44.24269" lon="11.760085"><ele>129.0</ele><time>2026-04-26T14:07:01.573Z</time></trkpt><trkpt lat="44.2425883" lon="11.7599983"><ele>129.0</ele><time>2026-04-26T14:07:02.568Z</time></trkpt><trkpt lat="44.24248" lon="11.75993"><ele>129.0</ele><time>2026-04-26T14:07:03.575Z</time></trkpt><trkpt lat="44.2423733" lon="11.75988"><ele>128.0</ele><time>2026-04-26T14:07:04.581Z</time></trkpt><trkpt lat="44.242265" lon="11.7598683"><ele>127.0</ele><time>2026-04-26T14:07:05.576Z</time></trkpt><trkpt lat="44.2421583" lon="11.7598833"><ele>126.0</ele><time>2026-04-26T14:07:06.566Z</time></trkpt><trkpt lat="44.24205" lon="11.759925"><ele>125.0</ele><time>2026-04-26T14:07:07.577Z</time></trkpt><trkpt lat="44.2419417" lon="11.7599767"><ele>124.0</ele><time>2026-04-26T14:07:08.575Z</time></trkpt><trkpt lat="44.2418283" lon="11.7600333"><ele>124.0</ele><time>2026-04-26T14:07:09.574Z</time></trkpt><trkpt lat="44.2415933" lon="11.7601567"><ele>124.0</ele><time>2026-04-26T14:07:11.568Z</time></trkpt><trkpt lat="44.2414733" lon="11.760215"><ele>124.0</ele><time>2026-04-26T14:07:12.57Z</time></trkpt><trkpt lat="44.2413533" lon="11.7602717"><ele>123.5</ele><time>2026-04-26T14:07:13.579Z</time></trkpt><trkpt lat="44.241235" lon="11.76034"><ele>123.0</ele><time>2026-04-26T14:07:14.568Z</time></trkpt><trkpt lat="44.241115" lon="11.76042"><ele>122.5</ele><time>2026-04-26T14:07:15.564Z</time></trkpt><trkpt lat="44.2409983" lon="11.7605117"><ele>122.0</ele><time>2026-04-26T14:07:16.567Z</time></trkpt><trkpt lat="44.2408883" lon="11.7606067"><ele>122.0</ele><time>2026-04-26T14:07:17.566Z</time></trkpt><trkpt lat="44.2407833" lon="11.7607033"><ele>122.0</ele><time>2026-04-26T14:07:18.574Z</time></trkpt><trkpt lat="44.2406733" lon="11.7608017"><ele>122.0</ele><time>2026-04-26T14:07:19.574Z</time></trkpt><trkpt lat="44.2405633" lon="11.7608983"><ele>122.0</ele><time>2026-04-26T14:07:20.571Z</time></trkpt><trkpt lat="44.240455" lon="11.7609883"><ele>121.19999999999999</ele><time>2026-04-26T14:07:21.572Z</time></trkpt><trkpt lat="44.24035" lon="11.761075"><ele>120.39999999999999</ele><time>2026-04-26T14:07:22.57Z</time></trkpt><trkpt lat="44.2402533" lon="11.7611617"><ele>119.60000000000001</ele><time>2026-04-26T14:07:23.573Z</time></trkpt><trkpt lat="44.24017" lon="11.7612567"><ele>118.80000000000001</ele><time>2026-04-26T14:07:24.57Z</time></trkpt><trkpt lat="44.2401" lon="11.76136"><ele>118.0</ele><time>2026-04-26T14:07:25.571Z</time></trkpt><trkpt lat="44.2400433" lon="11.761475"><ele>118.00000000000001</ele><time>2026-04-26T14:07:26.57Z</time></trkpt><trkpt lat="44.2399883" lon="11.7615817"><ele>118.0</ele><time>2026-04-26T14:07:27.566Z</time></trkpt><trkpt lat="44.23993" lon="11.7616583"><ele>118.0</ele><time>2026-04-26T14:07:28.572Z</time></trkpt><trkpt lat="44.23986" lon="11.7617017"><ele>118.0</ele><time>2026-04-26T14:07:29.557Z</time></trkpt><trkpt lat="44.239785" lon="11.7617117"><ele>118.00000000000001</ele><time>2026-04-26T14:07:30.563Z</time></trkpt><trkpt lat="44.2397133" lon="11.76172"><ele>118.0</ele><time>2026-04-26T14:07:31.569Z</time></trkpt><trkpt lat="44.2396517" lon="11.7617467"><ele>118.4</ele><time>2026-04-26T14:07:32.568Z</time></trkpt><trkpt lat="44.2395717" lon="11.761875"><ele>118.80000000000001</ele><time>2026-04-26T14:07:34.575Z</time></trkpt><trkpt lat="44.2395617" lon="11.7619733"><ele>119.2</ele><time>2026-04-26T14:07:35.571Z</time></trkpt><trkpt lat="44.2395717" lon="11.7620933"><ele>119.6</ele><time>2026-04-26T14:07:36.57Z</time></trkpt><trkpt lat="44.23958" lon="11.762225"><ele>120.0</ele><time>2026-04-26T14:07:37.575Z</time></trkpt><trkpt lat="44.2395833" lon="11.7623633"><ele>120.0</ele><time>2026-04-26T14:07:38.575Z</time></trkpt><trkpt lat="44.2395817" lon="11.7624983"><ele>120.0</ele><time>2026-04-26T14:07:39.575Z</time></trkpt><trkpt lat="44.2395717" lon="11.7626317"><ele>120.0</ele><time>2026-04-26T14:07:40.573Z</time></trkpt><trkpt lat="44.2395533" lon="11.76276"><ele>120.0</ele><time>2026-04-26T14:07:41.569Z</time></trkpt><trkpt lat="44.239525" lon="11.7628717"><ele>120.0</ele><time>2026-04-26T14:07:42.569Z</time></trkpt><trkpt lat="44.239495" lon="11.762965"><ele>120.0</ele><time>2026-04-26T14:07:43.566Z</time></trkpt><trkpt lat="44.2394517" lon="11.76312"><ele>118.8</ele><time>2026-04-26T14:07:45.568Z</time></trkpt><trkpt lat="44.2394067" lon="11.76327"><ele>117.6</ele><time>2026-04-26T14:07:47.57Z</time></trkpt><trkpt lat="44.239375" lon="11.7633683"><ele>116.4</ele><time>2026-04-26T14:07:48.579Z</time></trkpt><trkpt lat="44.2393267" lon="11.763485"><ele>115.2</ele><time>2026-04-26T14:07:49.58Z</time></trkpt><trkpt lat="44.23927" lon="11.7636117"><ele>114.0</ele><time>2026-04-26T14:07:50.561Z</time></trkpt><trkpt lat="44.239215" lon="11.7637483"><ele>113.5</ele><time>2026-04-26T14:07:51.568Z</time></trkpt><trkpt lat="44.2391583" lon="11.7638933"><ele>113.0</ele><time>2026-04-26T14:07:52.566Z</time></trkpt><trkpt lat="44.2391017" lon="11.7640433"><ele>112.5</ele><time>2026-04-26T14:07:53.564Z</time></trkpt><trkpt lat="44.2390383" lon="11.7641983"><ele>112.0</ele><time>2026-04-26T14:07:54.569Z</time></trkpt><trkpt lat="44.2389717" lon="11.7643533"><ele>111.75</ele><time>2026-04-26T14:07:55.564Z</time></trkpt><trkpt lat="44.2388967" lon="11.7645017"><ele>111.5</ele><time>2026-04-26T14:07:56.566Z</time></trkpt><trkpt lat="44.2388167" lon="11.7646467"><ele>111.25</ele><time>2026-04-26T14:07:57.567Z</time></trkpt><trkpt lat="44.23873" lon="11.764785"><ele>111.0</ele><time>2026-04-26T14:07:58.576Z</time></trkpt><trkpt lat="44.2386367" lon="11.7649167"><ele>111.0</ele><time>2026-04-26T14:07:59.574Z</time></trkpt><trkpt lat="44.2385433" lon="11.76506"><ele>111.0</ele><time>2026-04-26T14:08:00.569Z</time></trkpt><trkpt lat="44.2384483" lon="11.7652017"><ele>111.0</ele><time>2026-04-26T14:08:01.569Z</time></trkpt><trkpt lat="44.2383533" lon="11.7653567"><ele>111.0</ele><time>2026-04-26T14:08:02.568Z</time></trkpt><trkpt lat="44.2382583" lon="11.765515"><ele>110.5</ele><time>2026-04-26T14:08:03.567Z</time></trkpt><trkpt lat="44.23816" lon="11.76567"><ele>110.0</ele><time>2026-04-26T14:08:04.575Z</time></trkpt><trkpt lat="44.238065" lon="11.7658183"><ele>109.5</ele><time>2026-04-26T14:08:05.572Z</time></trkpt><trkpt lat="44.2379783" lon="11.7659633"><ele>109.0</ele><time>2026-04-26T14:08:06.579Z</time></trkpt><trkpt lat="44.2379067" lon="11.7661117"><ele>109.0</ele><time>2026-04-26T14:08:07.567Z</time></trkpt><trkpt lat="44.23786" lon="11.7662667"><ele>109.0</ele><time>2026-04-26T14:08:08.6Z</time></trkpt><trkpt lat="44.2378217" lon="11.7664233"><ele>109.0</ele><time>2026-04-26T14:08:09.56Z</time></trkpt><trkpt lat="44.23778" lon="11.766565"><ele>109.0</ele><time>2026-04-26T14:08:10.563Z</time></trkpt><trkpt lat="44.23773" lon="11.766685"><ele>109.0</ele><time>2026-04-26T14:08:11.575Z</time></trkpt><trkpt lat="44.2376733" lon="11.7667867"><ele>108.4</ele><time>2026-04-26T14:08:12.571Z</time></trkpt><trkpt lat="44.237605" lon="11.766875"><ele>107.80000000000001</ele><time>2026-04-26T14:08:13.572Z</time></trkpt><trkpt lat="44.2375267" lon="11.766965"><ele>107.19999999999999</ele><time>2026-04-26T14:08:14.571Z</time></trkpt><trkpt lat="44.2374383" lon="11.7670517"><ele>106.6</ele><time>2026-04-26T14:08:15.58Z</time></trkpt><trkpt lat="44.2373517" lon="11.7671467"><ele>106.0</ele><time>2026-04-26T14:08:16.571Z</time></trkpt><trkpt lat="44.2372667" lon="11.7672467"><ele>105.6</ele><time>2026-04-26T14:08:17.569Z</time></trkpt><trkpt lat="44.23719" lon="11.7673467"><ele>105.19999999999999</ele><time>2026-04-26T14:08:18.582Z</time></trkpt><trkpt lat="44.2371217" lon="11.767465"><ele>104.80000000000001</ele><time>2026-04-26T14:08:19.573Z</time></trkpt><trkpt lat="44.2370633" lon="11.767595"><ele>104.4</ele><time>2026-04-26T14:08:20.575Z</time></trkpt><trkpt lat="44.2370117" lon="11.7677333"><ele>104.0</ele><time>2026-04-26T14:08:21.568Z</time></trkpt><trkpt lat="44.2369667" lon="11.7678667"><ele>104.0</ele><time>2026-04-26T14:08:22.559Z</time></trkpt><trkpt lat="44.2369283" lon="11.76799"><ele>104.0</ele><time>2026-04-26T14:08:23.566Z</time></trkpt><trkpt lat="44.23689" lon="11.7680967"><ele>104.0</ele><time>2026-04-26T14:08:24.569Z</time></trkpt><trkpt lat="44.2368483" lon="11.7682017"><ele>104.0</ele><time>2026-04-26T14:08:25.566Z</time></trkpt><trkpt lat="44.2367983" lon="11.768305"><ele>104.0</ele><time>2026-04-26T14:08:26.583Z</time></trkpt><trkpt lat="44.2367433" lon="11.76841"><ele>104.0</ele><time>2026-04-26T14:08:27.576Z</time></trkpt><trkpt lat="44.2366833" lon="11.76852"><ele>104.0</ele><time>2026-04-26T14:08:28.579Z</time></trkpt><trkpt lat="44.2366217" lon="11.768635"><ele>104.0</ele><time>2026-04-26T14:08:29.567Z</time></trkpt><trkpt lat="44.23656" lon="11.7687567"><ele>104.0</ele><time>2026-04-26T14:08:30.568Z</time></trkpt><trkpt lat="44.2364983" lon="11.7688783"><ele>104.0</ele><time>2026-04-26T14:08:31.577Z</time></trkpt><trkpt lat="44.23644" lon="11.7690083"><ele>104.5</ele><time>2026-04-26T14:08:32.567Z</time></trkpt><trkpt lat="44.2363833" lon="11.7691533"><ele>105.0</ele><time>2026-04-26T14:08:33.568Z</time></trkpt><trkpt lat="44.23633" lon="11.7692983"><ele>105.5</ele><time>2026-04-26T14:08:34.572Z</time></trkpt><trkpt lat="44.23628" lon="11.76945"><ele>106.0</ele><time>2026-04-26T14:08:35.57Z</time></trkpt><trkpt lat="44.236235" lon="11.76961"><ele>106.0</ele><time>2026-04-26T14:08:36.575Z</time></trkpt><trkpt lat="44.2361917" lon="11.7697683"><ele>106.0</ele><time>2026-04-26T14:08:37.581Z</time></trkpt><trkpt lat="44.2361483" lon="11.76992"><ele>106.0</ele><time>2026-04-26T14:08:38.574Z</time></trkpt><trkpt lat="44.2361067" lon="11.7700617"><ele>106.0</ele><time>2026-04-26T14:08:39.566Z</time></trkpt><trkpt lat="44.2360667" lon="11.7702"><ele>105.19999999999999</ele><time>2026-04-26T14:08:40.565Z</time></trkpt><trkpt lat="44.236025" lon="11.77034"><ele>104.39999999999999</ele><time>2026-04-26T14:08:41.584Z</time></trkpt><trkpt lat="44.235975" lon="11.7704717"><ele>103.6</ele><time>2026-04-26T14:08:42.572Z</time></trkpt><trkpt lat="44.2359217" lon="11.7706083"><ele>102.8</ele><time>2026-04-26T14:08:43.573Z</time></trkpt><trkpt lat="44.235865" lon="11.7707483"><ele>102.0</ele><time>2026-04-26T14:08:44.581Z</time></trkpt><trkpt lat="44.2358033" lon="11.7708883"><ele>101.75</ele><time>2026-04-26T14:08:45.571Z</time></trkpt><trkpt lat="44.2357383" lon="11.7710317"><ele>101.5</ele><time>2026-04-26T14:08:46.569Z</time></trkpt><trkpt lat="44.23567" lon="11.7711733"><ele>101.25</ele><time>2026-04-26T14:08:47.574Z</time></trkpt><trkpt lat="44.2355983" lon="11.7713167"><ele>101.0</ele><time>2026-04-26T14:08:48.583Z</time></trkpt><trkpt lat="44.235525" lon="11.7714583"><ele>101.75</ele><time>2026-04-26T14:08:49.57Z</time></trkpt><trkpt lat="44.2354533" lon="11.7716067"><ele>102.5</ele><time>2026-04-26T14:08:50.573Z</time></trkpt><trkpt lat="44.2353817" lon="11.7717533"><ele>103.25</ele><time>2026-04-26T14:08:51.569Z</time></trkpt><trkpt lat="44.2353133" lon="11.771905"><ele>104.0</ele><time>2026-04-26T14:08:52.571Z</time></trkpt><trkpt lat="44.2352417" lon="11.7720533"><ele>102.5</ele><time>2026-04-26T14:08:53.567Z</time></trkpt><trkpt lat="44.23517" lon="11.772205"><ele>101.0</ele><time>2026-04-26T14:08:54.577Z</time></trkpt><trkpt lat="44.2351" lon="11.7723567"><ele>99.5</ele><time>2026-04-26T14:08:55.561Z</time></trkpt><trkpt lat="44.2350323" lon="11.7725053"><ele>98.0</ele><time>2026-04-26T14:08:56.562Z</time></trkpt><trkpt lat="44.2349635" lon="11.7726534"><ele>97.5</ele><time>2026-04-26T14:08:57.574Z</time></trkpt><trkpt lat="44.2348951" lon="11.7727983"><ele>97.0</ele><time>2026-04-26T14:08:58.578Z</time></trkpt><trkpt lat="44.2348316" lon="11.7729404"><ele>96.5</ele><time>2026-04-26T14:08:59.568Z</time></trkpt><trkpt lat="44.2347753" lon="11.7730919"><ele>96.0</ele><time>2026-04-26T14:09:00.57Z</time></trkpt><trkpt lat="44.234731" lon="11.7732591"><ele>96.4</ele><time>2026-04-26T14:09:01.577Z</time></trkpt><trkpt lat="44.2346948" lon="11.7734151"><ele>96.8</ele><time>2026-04-26T14:09:02.569Z</time></trkpt><trkpt lat="44.234659" lon="11.7735707"><ele>97.2</ele><time>2026-04-26T14:09:03.568Z</time></trkpt><trkpt lat="44.2346237" lon="11.773715"><ele>97.60000000000001</ele><time>2026-04-26T14:09:04.568Z</time></trkpt><trkpt lat="44.2345942" lon="11.7738483"><ele>98.0</ele><time>2026-04-26T14:09:05.565Z</time></trkpt><trkpt lat="44.2345845" lon="11.7739684"><ele>97.99999999999999</ele><time>2026-04-26T14:09:06.572Z</time></trkpt><trkpt lat="44.2345999" lon="11.7740752"><ele>98.0</ele><time>2026-04-26T14:09:07.571Z</time></trkpt><trkpt lat="44.2346355" lon="11.7741781"><ele>98.0</ele><time>2026-04-26T14:09:08.575Z</time></trkpt><trkpt lat="44.2346978" lon="11.7742598"><ele>98.0</ele><time>2026-04-26T14:09:09.578Z</time></trkpt><trkpt lat="44.2347723" lon="11.7743206"><ele>97.99999999999999</ele><time>2026-04-26T14:09:10.564Z</time></trkpt><trkpt lat="44.2348383" lon="11.7743778"><ele>98.0</ele><time>2026-04-26T14:09:11.562Z</time></trkpt><trkpt lat="44.2348951" lon="11.7745411"><ele>97.80000000000001</ele><time>2026-04-26T14:09:13.563Z</time></trkpt><trkpt lat="44.2348847" lon="11.7746409"><ele>97.6</ele><time>2026-04-26T14:09:14.572Z</time></trkpt><trkpt lat="44.234858" lon="11.7747417"><ele>97.4</ele><time>2026-04-26T14:09:15.576Z</time></trkpt><trkpt lat="44.2348205" lon="11.7748597"><ele>97.19999999999999</ele><time>2026-04-26T14:09:16.574Z</time></trkpt><trkpt lat="44.2347846" lon="11.774999"><ele>97.0</ele><time>2026-04-26T14:09:17.56Z</time></trkpt><trkpt lat="44.2347534" lon="11.7751508"><ele>95.75</ele><time>2026-04-26T14:09:18.58Z</time></trkpt><trkpt lat="44.2347249" lon="11.775313"><ele>94.5</ele><time>2026-04-26T14:09:19.572Z</time></trkpt><trkpt lat="44.2347009" lon="11.7754836"><ele>93.25</ele><time>2026-04-26T14:09:20.569Z</time></trkpt><trkpt lat="44.2346834" lon="11.7756571"><ele>92.0</ele><time>2026-04-26T14:09:21.573Z</time></trkpt><trkpt lat="44.2346703" lon="11.7758297"><ele>92.0</ele><time>2026-04-26T14:09:22.567Z</time></trkpt><trkpt lat="44.2346606" lon="11.7760055"><ele>92.0</ele><time>2026-04-26T14:09:23.568Z</time></trkpt><trkpt lat="44.2346488" lon="11.7761826"><ele>92.0</ele><time>2026-04-26T14:09:24.573Z</time></trkpt><trkpt lat="44.2346385" lon="11.7763629"><ele>92.0</ele><time>2026-04-26T14:09:25.564Z</time></trkpt><trkpt lat="44.2346302" lon="11.7765432"><ele>91.75</ele><time>2026-04-26T14:09:26.559Z</time></trkpt><trkpt lat="44.2346192" lon="11.776724"><ele>91.5</ele><time>2026-04-26T14:09:27.569Z</time></trkpt><trkpt lat="44.2346036" lon="11.7768992"><ele>91.25</ele><time>2026-04-26T14:09:28.578Z</time></trkpt><trkpt lat="44.2345922" lon="11.7770718"><ele>91.0</ele><time>2026-04-26T14:09:29.566Z</time></trkpt><trkpt lat="44.2345821" lon="11.7772495"><ele>90.25</ele><time>2026-04-26T14:09:30.594Z</time></trkpt><trkpt lat="44.2345697" lon="11.7774238"><ele>89.5</ele><time>2026-04-26T14:09:31.572Z</time></trkpt><trkpt lat="44.2345587" lon="11.7775931"><ele>88.75</ele><time>2026-04-26T14:09:32.568Z</time></trkpt><trkpt lat="44.2345443" lon="11.7777642"><ele>88.0</ele><time>2026-04-26T14:09:33.57Z</time></trkpt><trkpt lat="44.2345172" lon="11.777934"><ele>88.0</ele><time>2026-04-26T14:09:34.569Z</time></trkpt><trkpt lat="44.2344746" lon="11.778108"><ele>88.0</ele><time>2026-04-26T14:09:35.564Z</time></trkpt><trkpt lat="44.2344146" lon="11.778278"><ele>88.0</ele><time>2026-04-26T14:09:36.575Z</time></trkpt><trkpt lat="44.234353" lon="11.7784445"><ele>88.0</ele><time>2026-04-26T14:09:37.576Z</time></trkpt><trkpt lat="44.2342991" lon="11.7786094"><ele>88.0</ele><time>2026-04-26T14:09:38.575Z</time></trkpt><trkpt lat="44.2342606" lon="11.7787716"><ele>88.0</ele><time>2026-04-26T14:09:39.574Z</time></trkpt><trkpt lat="44.2342408" lon="11.7789393"><ele>88.0</ele><time>2026-04-26T14:09:40.565Z</time></trkpt><trkpt lat="44.2342341" lon="11.7791161"><ele>88.0</ele><time>2026-04-26T14:09:41.564Z</time></trkpt><trkpt lat="44.2342361" lon="11.7792944"><ele>87.5</ele><time>2026-04-26T14:09:42.572Z</time></trkpt><trkpt lat="44.2342361" lon="11.7794709"><ele>87.0</ele><time>2026-04-26T14:09:43.581Z</time></trkpt><trkpt lat="44.2342264" lon="11.779646"><ele>86.5</ele><time>2026-04-26T14:09:44.577Z</time></trkpt><trkpt lat="44.2342103" lon="11.7798232"><ele>86.0</ele><time>2026-04-26T14:09:45.589Z</time></trkpt><trkpt lat="44.2341888" lon="11.7799977"><ele>86.0</ele><time>2026-04-26T14:09:46.571Z</time></trkpt><trkpt lat="44.2341594" lon="11.7801722"><ele>86.0</ele><time>2026-04-26T14:09:47.57Z</time></trkpt><trkpt lat="44.2341225" lon="11.7803438"><ele>86.0</ele><time>2026-04-26T14:09:48.57Z</time></trkpt><trkpt lat="44.2340748" lon="11.7805114"><ele>86.0</ele><time>2026-04-26T14:09:49.576Z</time></trkpt><trkpt lat="44.2340145" lon="11.7806748"><ele>86.25</ele><time>2026-04-26T14:09:50.574Z</time></trkpt><trkpt lat="44.2339513" lon="11.7808355"><ele>86.5</ele><time>2026-04-26T14:09:51.576Z</time></trkpt><trkpt lat="44.2338886" lon="11.7810017"><ele>86.75</ele><time>2026-04-26T14:09:52.57Z</time></trkpt><trkpt lat="44.233825" lon="11.7811738"><ele>87.0</ele><time>2026-04-26T14:09:53.573Z</time></trkpt><trkpt lat="44.2337594" lon="11.7813388"><ele>87.0</ele><time>2026-04-26T14:09:54.572Z</time></trkpt><trkpt lat="44.2336829" lon="11.7814975"><ele>87.0</ele><time>2026-04-26T14:09:55.564Z</time></trkpt><trkpt lat="44.2335978" lon="11.7816486"><ele>87.0</ele><time>2026-04-26T14:09:56.566Z</time></trkpt><trkpt lat="44.233507" lon="11.7817955"><ele>87.0</ele><time>2026-04-26T14:09:57.571Z</time></trkpt><trkpt lat="44.2334118" lon="11.7819393"><ele>87.75</ele><time>2026-04-26T14:09:58.58Z</time></trkpt><trkpt lat="44.2333153" lon="11.7820782"><ele>88.5</ele><time>2026-04-26T14:09:59.568Z</time></trkpt><trkpt lat="44.2332223" lon="11.7822165"><ele>89.25</ele><time>2026-04-26T14:10:00.568Z</time></trkpt><trkpt lat="44.2331351" lon="11.7823631"><ele>90.0</ele><time>2026-04-26T14:10:01.575Z</time></trkpt><trkpt lat="44.2330565" lon="11.782518"><ele>90.0</ele><time>2026-04-26T14:10:02.57Z</time></trkpt><trkpt lat="44.2329886" lon="11.7826764"><ele>90.0</ele><time>2026-04-26T14:10:03.571Z</time></trkpt><trkpt lat="44.2329315" lon="11.7828352"><ele>90.0</ele><time>2026-04-26T14:10:04.571Z</time></trkpt><trkpt lat="44.2328819" lon="11.7829905"><ele>90.0</ele><time>2026-04-26T14:10:05.565Z</time></trkpt><trkpt lat="44.2328271" lon="11.7831303"><ele>89.2</ele><time>2026-04-26T14:10:06.576Z</time></trkpt><trkpt lat="44.2327624" lon="11.7832484"><ele>88.4</ele><time>2026-04-26T14:10:07.563Z</time></trkpt><trkpt lat="44.2326879" lon="11.7833474"><ele>87.6</ele><time>2026-04-26T14:10:08.571Z</time></trkpt><trkpt lat="44.2326023" lon="11.7834144"><ele>86.8</ele><time>2026-04-26T14:10:09.57Z</time></trkpt><trkpt lat="44.2325071" lon="11.7834521"><ele>86.0</ele><time>2026-04-26T14:10:10.583Z</time></trkpt><trkpt lat="44.2324068" lon="11.7834676"><ele>85.75</ele><time>2026-04-26T14:10:11.567Z</time></trkpt><trkpt lat="44.2322996" lon="11.7834724"><ele>85.5</ele><time>2026-04-26T14:10:12.569Z</time></trkpt><trkpt lat="44.2320811" lon="11.7835221"><ele>85.25</ele><time>2026-04-26T14:10:14.57Z</time></trkpt><trkpt lat="44.2319767" lon="11.783582"><ele>85.0</ele><time>2026-04-26T14:10:15.568Z</time></trkpt><trkpt lat="44.2318749" lon="11.7836656"><ele>85.0</ele><time>2026-04-26T14:10:16.572Z</time></trkpt><trkpt lat="44.2317778" lon="11.783763"><ele>85.0</ele><time>2026-04-26T14:10:17.569Z</time></trkpt><trkpt lat="44.2316815" lon="11.7838712"><ele>85.0</ele><time>2026-04-26T14:10:18.568Z</time></trkpt><trkpt lat="44.2315874" lon="11.7839916"><ele>85.0</ele><time>2026-04-26T14:10:19.576Z</time></trkpt><trkpt lat="44.2314888" lon="11.7841177"><ele>85.0</ele><time>2026-04-26T14:10:20.598Z</time></trkpt><trkpt lat="44.231389" lon="11.7842347"><ele>85.0</ele><time>2026-04-26T14:10:21.577Z</time></trkpt><trkpt lat="44.2312872" lon="11.7843417"><ele>85.0</ele><time>2026-04-26T14:10:22.569Z</time></trkpt><trkpt lat="44.2311838" lon="11.7844341"><ele>85.0</ele><time>2026-04-26T14:10:23.566Z</time></trkpt><trkpt lat="44.2310794" lon="11.7845214"><ele>85.0</ele><time>2026-04-26T14:10:24.581Z</time></trkpt><trkpt lat="44.2309762" lon="11.7846095"><ele>85.0</ele><time>2026-04-26T14:10:25.572Z</time></trkpt><trkpt lat="44.2308729" lon="11.7847047"><ele>85.0</ele><time>2026-04-26T14:10:26.578Z</time></trkpt><trkpt lat="44.2307677" lon="11.7848039"><ele>85.0</ele><time>2026-04-26T14:10:27.571Z</time></trkpt><trkpt lat="44.2306558" lon="11.7849047"><ele>85.25</ele><time>2026-04-26T14:10:28.572Z</time></trkpt><trkpt lat="44.2305417" lon="11.7850083"><ele>85.5</ele><time>2026-04-26T14:10:29.58Z</time></trkpt><trkpt lat="44.2304259" lon="11.7851122"><ele>85.75</ele><time>2026-04-26T14:10:30.573Z</time></trkpt><trkpt lat="44.2303102" lon="11.7852159"><ele>86.0</ele><time>2026-04-26T14:10:31.574Z</time></trkpt><trkpt lat="44.2301915" lon="11.785313"><ele>86.0</ele><time>2026-04-26T14:10:32.57Z</time></trkpt><trkpt lat="44.2300754" lon="11.7854042"><ele>86.0</ele><time>2026-04-26T14:10:33.572Z</time></trkpt><trkpt lat="44.2299601" lon="11.7854883"><ele>86.0</ele><time>2026-04-26T14:10:34.574Z</time></trkpt><trkpt lat="44.2298457" lon="11.7855687"><ele>86.0</ele><time>2026-04-26T14:10:35.558Z</time></trkpt><trkpt lat="44.2297369" lon="11.785643"><ele>84.8</ele><time>2026-04-26T14:10:36.56Z</time></trkpt><trkpt lat="44.2296368" lon="11.7857077"><ele>83.6</ele><time>2026-04-26T14:10:37.582Z</time></trkpt><trkpt lat="44.2295487" lon="11.7857572"><ele>82.4</ele><time>2026-04-26T14:10:38.579Z</time></trkpt><trkpt lat="44.229474" lon="11.7857886"><ele>81.2</ele><time>2026-04-26T14:10:39.563Z</time></trkpt><trkpt lat="44.2294086" lon="11.7858024"><ele>80.0</ele><time>2026-04-26T14:10:40.568Z</time></trkpt><trkpt lat="44.2293039" lon="11.7857468"><ele>80.0</ele><time>2026-04-26T14:10:42.57Z</time></trkpt><trkpt lat="44.2292672" lon="11.7856663"><ele>80.0</ele><time>2026-04-26T14:10:43.57Z</time></trkpt><trkpt lat="44.2292276" lon="11.7855795"><ele>80.0</ele><time>2026-04-26T14:10:44.569Z</time></trkpt><trkpt lat="44.2291738" lon="11.7855099"><ele>80.0</ele><time>2026-04-26T14:10:45.566Z</time></trkpt><trkpt lat="44.2291042" lon="11.7854642"><ele>80.0</ele><time>2026-04-26T14:10:46.57Z</time></trkpt><trkpt lat="44.2290201" lon="11.7854493"><ele>80.0</ele><time>2026-04-26T14:10:47.566Z</time></trkpt><trkpt lat="44.2289257" lon="11.7854599"><ele>80.6</ele><time>2026-04-26T14:10:48.572Z</time></trkpt><trkpt lat="44.2288241" lon="11.7854976"><ele>81.2</ele><time>2026-04-26T14:10:49.567Z</time></trkpt><trkpt lat="44.2287204" lon="11.7855441"><ele>81.80000000000001</ele><time>2026-04-26T14:10:50.571Z</time></trkpt><trkpt lat="44.228615" lon="11.7855983"><ele>82.4</ele><time>2026-04-26T14:10:51.571Z</time></trkpt><trkpt lat="44.2285083" lon="11.7856483"><ele>83.0</ele><time>2026-04-26T14:10:52.556Z</time></trkpt><trkpt lat="44.2284033" lon="11.785695"><ele>83.0</ele><time>2026-04-26T14:10:53.573Z</time></trkpt><trkpt lat="44.2283" lon="11.7857367"><ele>83.0</ele><time>2026-04-26T14:10:54.573Z</time></trkpt><trkpt lat="44.2282" lon="11.7857833"><ele>83.0</ele><time>2026-04-26T14:10:55.564Z</time></trkpt><trkpt lat="44.2281" lon="11.7858433"><ele>83.0</ele><time>2026-04-26T14:10:56.575Z</time></trkpt><trkpt lat="44.2280017" lon="11.7859"><ele>83.0</ele><time>2026-04-26T14:10:57.571Z</time></trkpt><trkpt lat="44.2279083" lon="11.7859633"><ele>83.66666666666667</ele><time>2026-04-26T14:10:58.578Z</time></trkpt><trkpt lat="44.22782" lon="11.7860217"><ele>84.33333333333334</ele><time>2026-04-26T14:10:59.567Z</time></trkpt><trkpt lat="44.2277367" lon="11.78608"><ele>85.0</ele><time>2026-04-26T14:11:00.574Z</time></trkpt><trkpt lat="44.22766" lon="11.786135"><ele>85.66666666666667</ele><time>2026-04-26T14:11:01.578Z</time></trkpt><trkpt lat="44.227585" lon="11.78618"><ele>86.33333333333333</ele><time>2026-04-26T14:11:02.592Z</time></trkpt><trkpt lat="44.2275167" lon="11.7862117"><ele>87.0</ele><time>2026-04-26T14:11:03.574Z</time></trkpt><trkpt lat="44.2274067" lon="11.7862433"><ele>87.0</ele><time>2026-04-26T14:11:05.564Z</time></trkpt><trkpt lat="44.2273417" lon="11.786235"><ele>87.0</ele><time>2026-04-26T14:11:07.563Z</time></trkpt><trkpt lat="44.2273117" lon="11.7861233"><ele>87.0</ele><time>2026-04-26T14:11:16.568Z</time></trkpt><trkpt lat="44.2273" lon="11.7860367"><ele>87.0</ele><time>2026-04-26T14:11:17.571Z</time></trkpt><trkpt lat="44.2272883" lon="11.7859383"><ele>87.0</ele><time>2026-04-26T14:11:18.571Z</time></trkpt><trkpt lat="44.2272767" lon="11.7858233"><ele>87.0</ele><time>2026-04-26T14:11:19.572Z</time></trkpt><trkpt lat="44.2272617" lon="11.7856967"><ele>87.19999999999999</ele><time>2026-04-26T14:11:20.572Z</time></trkpt><trkpt lat="44.227245" lon="11.7855667"><ele>87.4</ele><time>2026-04-26T14:11:21.573Z</time></trkpt><trkpt lat="44.2272283" lon="11.785435"><ele>87.6</ele><time>2026-04-26T14:11:22.569Z</time></trkpt><trkpt lat="44.2272067" lon="11.7853017"><ele>87.80000000000001</ele><time>2026-04-26T14:11:23.566Z</time></trkpt><trkpt lat="44.22718" lon="11.7851633"><ele>88.0</ele><time>2026-04-26T14:11:24.572Z</time></trkpt><trkpt lat="44.227145" lon="11.78502"><ele>88.75</ele><time>2026-04-26T14:11:25.573Z</time></trkpt><trkpt lat="44.2271083" lon="11.784875"><ele>89.5</ele><time>2026-04-26T14:11:26.568Z</time></trkpt><trkpt lat="44.2270717" lon="11.7847283"><ele>90.25</ele><time>2026-04-26T14:11:27.576Z</time></trkpt><trkpt lat="44.2270333" lon="11.7845783"><ele>91.0</ele><time>2026-04-26T14:11:28.572Z</time></trkpt><trkpt lat="44.2269867" lon="11.7844333"><ele>91.75</ele><time>2026-04-26T14:11:29.562Z</time></trkpt><trkpt lat="44.2269433" lon="11.7842883"><ele>92.5</ele><time>2026-04-26T14:11:30.572Z</time></trkpt><trkpt lat="44.2268967" lon="11.7841383"><ele>93.25</ele><time>2026-04-26T14:11:31.566Z</time></trkpt><trkpt lat="44.22685" lon="11.7839817"><ele>94.0</ele><time>2026-04-26T14:11:32.569Z</time></trkpt><trkpt lat="44.2268" lon="11.7838217"><ele>94.0</ele><time>2026-04-26T14:11:33.561Z</time></trkpt><trkpt lat="44.2267533" lon="11.7836567"><ele>94.0</ele><time>2026-04-26T14:11:34.57Z</time></trkpt><trkpt lat="44.2267017" lon="11.783495"><ele>94.0</ele><time>2026-04-26T14:11:35.577Z</time></trkpt><trkpt lat="44.2266483" lon="11.783335"><ele>94.0</ele><time>2026-04-26T14:11:36.569Z</time></trkpt><trkpt lat="44.2265983" lon="11.7831717"><ele>94.75</ele><time>2026-04-26T14:11:37.57Z</time></trkpt><trkpt lat="44.2265467" lon="11.7830067"><ele>95.5</ele><time>2026-04-26T14:11:38.574Z</time></trkpt><trkpt lat="44.2264967" lon="11.7828433"><ele>96.25</ele><time>2026-04-26T14:11:39.569Z</time></trkpt><trkpt lat="44.226445" lon="11.78268"><ele>97.0</ele><time>2026-04-26T14:11:40.565Z</time></trkpt><trkpt lat="44.2263933" lon="11.78252"><ele>97.0</ele><time>2026-04-26T14:11:41.571Z</time></trkpt><trkpt lat="44.2263383" lon="11.78236"><ele>97.0</ele><time>2026-04-26T14:11:42.568Z</time></trkpt><trkpt lat="44.22628" lon="11.7822033"><ele>97.0</ele><time>2026-04-26T14:11:43.571Z</time></trkpt><trkpt lat="44.2262117" lon="11.782055"><ele>97.0</ele><time>2026-04-26T14:11:44.568Z</time></trkpt><trkpt lat="44.2261317" lon="11.78192"><ele>97.5</ele><time>2026-04-26T14:11:45.56Z</time></trkpt><trkpt lat="44.2260417" lon="11.7817933"><ele>98.0</ele><time>2026-04-26T14:11:46.563Z</time></trkpt><trkpt lat="44.2259483" lon="11.7816717"><ele>98.5</ele><time>2026-04-26T14:11:47.576Z</time></trkpt><trkpt lat="44.2258533" lon="11.7815517"><ele>99.0</ele><time>2026-04-26T14:11:48.566Z</time></trkpt><trkpt lat="44.2257567" lon="11.7814283"><ele>99.0</ele><time>2026-04-26T14:11:49.58Z</time></trkpt><trkpt lat="44.2256617" lon="11.7813067"><ele>99.0</ele><time>2026-04-26T14:11:50.564Z</time></trkpt><trkpt lat="44.2255717" lon="11.781175"><ele>99.0</ele><time>2026-04-26T14:11:51.564Z</time></trkpt><trkpt lat="44.2254867" lon="11.7810417"><ele>99.0</ele><time>2026-04-26T14:11:52.569Z</time></trkpt><trkpt lat="44.2254083" lon="11.7809017"><ele>98.5</ele><time>2026-04-26T14:11:53.573Z</time></trkpt><trkpt lat="44.2253383" lon="11.7807583"><ele>98.0</ele><time>2026-04-26T14:11:54.576Z</time></trkpt><trkpt lat="44.2252733" lon="11.7806133"><ele>97.5</ele><time>2026-04-26T14:11:55.567Z</time></trkpt><trkpt lat="44.22521" lon="11.78047"><ele>97.0</ele><time>2026-04-26T14:11:56.567Z</time></trkpt><trkpt lat="44.2251517" lon="11.7803283"><ele>97.0</ele><time>2026-04-26T14:11:57.573Z</time></trkpt><trkpt lat="44.2250917" lon="11.780185"><ele>97.0</ele><time>2026-04-26T14:11:58.58Z</time></trkpt><trkpt lat="44.225035" lon="11.7800417"><ele>97.0</ele><time>2026-04-26T14:11:59.572Z</time></trkpt><trkpt lat="44.2249783" lon="11.779895"><ele>97.0</ele><time>2026-04-26T14:12:00.572Z</time></trkpt><trkpt lat="44.2249183" lon="11.7797467"><ele>96.75</ele><time>2026-04-26T14:12:01.561Z</time></trkpt><trkpt lat="44.2248583" lon="11.779595"><ele>96.5</ele><time>2026-04-26T14:12:02.569Z</time></trkpt><trkpt lat="44.2247967" lon="11.7794367"><ele>96.25</ele><time>2026-04-26T14:12:03.568Z</time></trkpt><trkpt lat="44.224735" lon="11.7792733"><ele>96.0</ele><time>2026-04-26T14:12:04.576Z</time></trkpt><trkpt lat="44.2246683" lon="11.77911"><ele>97.0</ele><time>2026-04-26T14:12:05.573Z</time></trkpt><trkpt lat="44.2245983" lon="11.7789517"><ele>98.0</ele><time>2026-04-26T14:12:06.571Z</time></trkpt><trkpt lat="44.2245233" lon="11.7788"><ele>99.0</ele><time>2026-04-26T14:12:07.57Z</time></trkpt><trkpt lat="44.2244433" lon="11.7786617"><ele>100.0</ele><time>2026-04-26T14:12:08.58Z</time></trkpt><trkpt lat="44.224365" lon="11.7785333"><ele>101.0</ele><time>2026-04-26T14:12:09.57Z</time></trkpt><trkpt lat="44.2242933" lon="11.77841"><ele>102.0</ele><time>2026-04-26T14:12:10.561Z</time></trkpt><trkpt lat="44.2242267" lon="11.7782933"><ele>103.0</ele><time>2026-04-26T14:12:11.562Z</time></trkpt><trkpt lat="44.2241667" lon="11.77818"><ele>104.0</ele><time>2026-04-26T14:12:12.581Z</time></trkpt><trkpt lat="44.2241117" lon="11.7780733"><ele>105.0</ele><time>2026-04-26T14:12:13.572Z</time></trkpt><trkpt lat="44.22406" lon="11.7779733"><ele>104.6</ele><time>2026-04-26T14:12:14.573Z</time></trkpt><trkpt lat="44.2239783" lon="11.7778183"><ele>104.2</ele><time>2026-04-26T14:12:16.571Z</time></trkpt><trkpt lat="44.2239283" lon="11.7777267"><ele>103.80000000000001</ele><time>2026-04-26T14:12:18.574Z</time></trkpt><trkpt lat="44.223875" lon="11.7776483"><ele>103.4</ele><time>2026-04-26T14:12:22.574Z</time></trkpt><trkpt lat="44.223785" lon="11.7777383"><ele>103.0</ele><time>2026-04-26T14:12:25.568Z</time></trkpt><trkpt lat="44.22375" lon="11.777815"><ele>102.66666666666667</ele><time>2026-04-26T14:12:26.563Z</time></trkpt><trkpt lat="44.2237167" lon="11.7778967"><ele>102.33333333333334</ele><time>2026-04-26T14:12:27.566Z</time></trkpt><trkpt lat="44.2236967" lon="11.77799"><ele>102.0</ele><time>2026-04-26T14:12:28.572Z</time></trkpt><trkpt lat="44.223695" lon="11.7780967"><ele>101.66666666666666</ele><time>2026-04-26T14:12:29.563Z</time></trkpt><trkpt lat="44.2237167" lon="11.778205"><ele>101.33333333333333</ele><time>2026-04-26T14:12:30.566Z</time></trkpt><trkpt lat="44.2237617" lon="11.778315"><ele>101.0</ele><time>2026-04-26T14:12:31.571Z</time></trkpt><trkpt lat="44.223825" lon="11.7784267"><ele>100.8</ele><time>2026-04-26T14:12:32.568Z</time></trkpt><trkpt lat="44.2238917" lon="11.77854"><ele>100.6</ele><time>2026-04-26T14:12:33.584Z</time></trkpt><trkpt lat="44.2239583" lon="11.7786567"><ele>100.4</ele><time>2026-04-26T14:12:34.572Z</time></trkpt><trkpt lat="44.2240267" lon="11.7787783"><ele>100.2</ele><time>2026-04-26T14:12:35.571Z</time></trkpt><trkpt lat="44.2240967" lon="11.7788967"><ele>100.0</ele><time>2026-04-26T14:12:36.564Z</time></trkpt><trkpt lat="44.2241633" lon="11.77901"><ele>100.0</ele><time>2026-04-26T14:12:37.571Z</time></trkpt><trkpt lat="44.2242283" lon="11.779115"><ele>100.0</ele><time>2026-04-26T14:12:38.581Z</time></trkpt><trkpt lat="44.2242967" lon="11.7792167"><ele>100.0</ele><time>2026-04-26T14:12:39.574Z</time></trkpt><trkpt lat="44.2243617" lon="11.7793183"><ele>100.0</ele><time>2026-04-26T14:12:40.561Z</time></trkpt><trkpt lat="44.2244217" lon="11.7794167"><ele>100.0</ele><time>2026-04-26T14:12:41.562Z</time></trkpt><trkpt lat="44.224475" lon="11.779515"><ele>99.2</ele><time>2026-04-26T14:12:42.565Z</time></trkpt><trkpt lat="44.22451" lon="11.7796083"><ele>98.4</ele><time>2026-04-26T14:12:43.564Z</time></trkpt><trkpt lat="44.2245233" lon="11.7797"><ele>97.6</ele><time>2026-04-26T14:12:44.575Z</time></trkpt><trkpt lat="44.22446" lon="11.7798667"><ele>96.8</ele><time>2026-04-26T14:12:46.571Z</time></trkpt><trkpt lat="44.2244083" lon="11.7799567"><ele>96.0</ele><time>2026-04-26T14:12:47.57Z</time></trkpt><trkpt lat="44.224345" lon="11.780045"><ele>96.0</ele><time>2026-04-26T14:12:48.573Z</time></trkpt><trkpt lat="44.2242667" lon="11.7801317"><ele>96.0</ele><time>2026-04-26T14:12:49.574Z</time></trkpt><trkpt lat="44.22418" lon="11.7802183"><ele>96.0</ele><time>2026-04-26T14:12:50.599Z</time></trkpt><trkpt lat="44.2240917" lon="11.7803133"><ele>96.0</ele><time>2026-04-26T14:12:51.571Z</time></trkpt><trkpt lat="44.22401" lon="11.780405"><ele>96.0</ele><time>2026-04-26T14:12:52.573Z</time></trkpt><trkpt lat="44.223935" lon="11.7805167"><ele>93.25</ele><time>2026-04-26T14:12:53.565Z</time></trkpt><trkpt lat="44.2238683" lon="11.7806417"><ele>90.5</ele><time>2026-04-26T14:12:54.573Z</time></trkpt><trkpt lat="44.2238017" lon="11.7807767"><ele>87.75</ele><time>2026-04-26T14:12:55.564Z</time></trkpt><trkpt lat="44.223735" lon="11.7809183"><ele>85.0</ele><time>2026-04-26T14:12:56.566Z</time></trkpt><trkpt lat="44.22367" lon="11.781065"><ele>83.75</ele><time>2026-04-26T14:12:57.564Z</time></trkpt><trkpt lat="44.22361" lon="11.7812133"><ele>82.5</ele><time>2026-04-26T14:12:58.575Z</time></trkpt><trkpt lat="44.22355" lon="11.7813767"><ele>81.25</ele><time>2026-04-26T14:12:59.567Z</time></trkpt><trkpt lat="44.2234867" lon="11.7815433"><ele>80.0</ele><time>2026-04-26T14:13:00.573Z</time></trkpt><trkpt lat="44.2234183" lon="11.7817217"><ele>79.75</ele><time>2026-04-26T14:13:01.568Z</time></trkpt><trkpt lat="44.2233517" lon="11.78189"><ele>79.5</ele><time>2026-04-26T14:13:02.577Z</time></trkpt><trkpt lat="44.2232883" lon="11.7820533"><ele>79.25</ele><time>2026-04-26T14:13:03.572Z</time></trkpt><trkpt lat="44.2232267" lon="11.782215"><ele>79.0</ele><time>2026-04-26T14:13:04.574Z</time></trkpt><trkpt lat="44.2231633" lon="11.782375"><ele>78.75</ele><time>2026-04-26T14:13:05.569Z</time></trkpt><trkpt lat="44.2231" lon="11.7825367"><ele>78.5</ele><time>2026-04-26T14:13:06.572Z</time></trkpt><trkpt lat="44.2230333" lon="11.7826967"><ele>78.25</ele><time>2026-04-26T14:13:07.58Z</time></trkpt><trkpt lat="44.2229667" lon="11.782855"><ele>78.0</ele><time>2026-04-26T14:13:08.584Z</time></trkpt><trkpt lat="44.2229017" lon="11.783025"><ele>78.0</ele><time>2026-04-26T14:13:09.565Z</time></trkpt><trkpt lat="44.2228383" lon="11.7832"><ele>78.0</ele><time>2026-04-26T14:13:10.584Z</time></trkpt><trkpt lat="44.2227833" lon="11.7833817"><ele>78.0</ele><time>2026-04-26T14:13:11.558Z</time></trkpt><trkpt lat="44.2227383" lon="11.78357"><ele>78.0</ele><time>2026-04-26T14:13:12.561Z</time></trkpt><trkpt lat="44.2226933" lon="11.7837617"><ele>77.0</ele><time>2026-04-26T14:13:13.572Z</time></trkpt><trkpt lat="44.2226533" lon="11.7839533"><ele>76.0</ele><time>2026-04-26T14:13:14.579Z</time></trkpt><trkpt lat="44.222615" lon="11.7841467"><ele>75.0</ele><time>2026-04-26T14:13:15.57Z</time></trkpt><trkpt lat="44.2225717" lon="11.78434"><ele>74.0</ele><time>2026-04-26T14:13:16.565Z</time></trkpt><trkpt lat="44.222525" lon="11.7845367"><ele>73.25</ele><time>2026-04-26T14:13:17.562Z</time></trkpt><trkpt lat="44.2224767" lon="11.7847317"><ele>72.5</ele><time>2026-04-26T14:13:18.576Z</time></trkpt><trkpt lat="44.2224217" lon="11.78492"><ele>71.75</ele><time>2026-04-26T14:13:19.577Z</time></trkpt><trkpt lat="44.22236" lon="11.7851067"><ele>71.0</ele><time>2026-04-26T14:13:20.572Z</time></trkpt><trkpt lat="44.2222917" lon="11.7852867"><ele>70.75</ele><time>2026-04-26T14:13:21.575Z</time></trkpt><trkpt lat="44.2222233" lon="11.7854717"><ele>70.5</ele><time>2026-04-26T14:13:22.564Z</time></trkpt><trkpt lat="44.2221533" lon="11.7856567"><ele>70.25</ele><time>2026-04-26T14:13:23.567Z</time></trkpt><trkpt lat="44.2220867" lon="11.7858383"><ele>70.0</ele><time>2026-04-26T14:13:24.571Z</time></trkpt><trkpt lat="44.2220217" lon="11.7860233"><ele>70.0</ele><time>2026-04-26T14:13:25.555Z</time></trkpt><trkpt lat="44.22195" lon="11.7862033"><ele>70.0</ele><time>2026-04-26T14:13:26.559Z</time></trkpt><trkpt lat="44.22188" lon="11.7863783"><ele>70.0</ele><time>2026-04-26T14:13:27.562Z</time></trkpt><trkpt lat="44.2218117" lon="11.7865567"><ele>70.0</ele><time>2026-04-26T14:13:28.58Z</time></trkpt><trkpt lat="44.2217433" lon="11.7867417"><ele>70.25</ele><time>2026-04-26T14:13:29.576Z</time></trkpt><trkpt lat="44.221675" lon="11.7869317"><ele>70.5</ele><time>2026-04-26T14:13:30.568Z</time></trkpt><trkpt lat="44.2216067" lon="11.7871167"><ele>70.75</ele><time>2026-04-26T14:13:31.573Z</time></trkpt><trkpt lat="44.2215383" lon="11.7872983"><ele>71.0</ele><time>2026-04-26T14:13:32.57Z</time></trkpt><trkpt lat="44.22147" lon="11.7874817"><ele>73.5</ele><time>2026-04-26T14:13:33.567Z</time></trkpt><trkpt lat="44.2214083" lon="11.7876667"><ele>76.0</ele><time>2026-04-26T14:13:34.572Z</time></trkpt><trkpt lat="44.2213567" lon="11.78785"><ele>78.5</ele><time>2026-04-26T14:13:35.568Z</time></trkpt><trkpt lat="44.2213233" lon="11.78803"><ele>81.0</ele><time>2026-04-26T14:13:36.574Z</time></trkpt><trkpt lat="44.22131" lon="11.7882133"><ele>82.0</ele><time>2026-04-26T14:13:37.575Z</time></trkpt><trkpt lat="44.2213167" lon="11.7883967"><ele>83.0</ele><time>2026-04-26T14:13:38.576Z</time></trkpt><trkpt lat="44.22134" lon="11.7885783"><ele>84.0</ele><time>2026-04-26T14:13:39.567Z</time></trkpt><trkpt lat="44.2213717" lon="11.78876"><ele>85.0</ele><time>2026-04-26T14:13:40.573Z</time></trkpt><trkpt lat="44.221415" lon="11.78893"><ele>85.0</ele><time>2026-04-26T14:13:41.564Z</time></trkpt><trkpt lat="44.22147" lon="11.7890967"><ele>85.0</ele><time>2026-04-26T14:13:42.569Z</time></trkpt><trkpt lat="44.2215383" lon="11.789255"><ele>85.0</ele><time>2026-04-26T14:13:43.578Z</time></trkpt><trkpt lat="44.2216117" lon="11.789405"><ele>85.0</ele><time>2026-04-26T14:13:44.566Z</time></trkpt><trkpt lat="44.22169" lon="11.7895483"><ele>82.25</ele><time>2026-04-26T14:13:45.57Z</time></trkpt><trkpt lat="44.221765" lon="11.789695"><ele>79.5</ele><time>2026-04-26T14:13:46.57Z</time></trkpt><trkpt lat="44.2218467" lon="11.7898433"><ele>76.75</ele><time>2026-04-26T14:13:47.57Z</time></trkpt><trkpt lat="44.2219233" lon="11.7899933"><ele>74.0</ele><time>2026-04-26T14:13:48.574Z</time></trkpt><trkpt lat="44.2220017" lon="11.7901383"><ele>75.0</ele><time>2026-04-26T14:13:49.577Z</time></trkpt><trkpt lat="44.2220767" lon="11.790285"><ele>76.0</ele><time>2026-04-26T14:13:50.565Z</time></trkpt><trkpt lat="44.22215" lon="11.7904333"><ele>77.0</ele><time>2026-04-26T14:13:51.572Z</time></trkpt><trkpt lat="44.22222" lon="11.7905867"><ele>78.0</ele><time>2026-04-26T14:13:52.569Z</time></trkpt><trkpt lat="44.2222833" lon="11.7907467"><ele>76.5</ele><time>2026-04-26T14:13:53.565Z</time></trkpt><trkpt lat="44.2223417" lon="11.7909133"><ele>75.0</ele><time>2026-04-26T14:13:54.571Z</time></trkpt><trkpt lat="44.2223983" lon="11.7910883"><ele>73.5</ele><time>2026-04-26T14:13:55.573Z</time></trkpt><trkpt lat="44.2224483" lon="11.79127"><ele>72.0</ele><time>2026-04-26T14:13:56.56Z</time></trkpt><trkpt lat="44.222495" lon="11.79146"><ele>72.0</ele><time>2026-04-26T14:13:57.565Z</time></trkpt><trkpt lat="44.2225317" lon="11.7916567"><ele>72.0</ele><time>2026-04-26T14:13:58.576Z</time></trkpt><trkpt lat="44.2225617" lon="11.7918583"><ele>72.0</ele><time>2026-04-26T14:13:59.569Z</time></trkpt><trkpt lat="44.2225933" lon="11.7920633"><ele>72.0</ele><time>2026-04-26T14:14:00.568Z</time></trkpt><trkpt lat="44.222625" lon="11.7922717"><ele>72.33333333333333</ele><time>2026-04-26T14:14:01.57Z</time></trkpt><trkpt lat="44.2226583" lon="11.7924817"><ele>72.66666666666666</ele><time>2026-04-26T14:14:02.568Z</time></trkpt><trkpt lat="44.2226917" lon="11.79269"><ele>73.0</ele><time>2026-04-26T14:14:03.57Z</time></trkpt><trkpt lat="44.2227233" lon="11.7929017"><ele>73.66666666666666</ele><time>2026-04-26T14:14:04.572Z</time></trkpt><trkpt lat="44.22276" lon="11.7931133"><ele>74.33333333333333</ele><time>2026-04-26T14:14:05.566Z</time></trkpt><trkpt lat="44.222805" lon="11.793325"><ele>75.0</ele><time>2026-04-26T14:14:06.566Z</time></trkpt><trkpt lat="44.2228633" lon="11.7935317"><ele>76.33333333333333</ele><time>2026-04-26T14:14:07.569Z</time></trkpt><trkpt lat="44.2229333" lon="11.7937333"><ele>77.66666666666666</ele><time>2026-04-26T14:14:08.572Z</time></trkpt><trkpt lat="44.2230133" lon="11.79393"><ele>79.0</ele><time>2026-04-26T14:14:09.571Z</time></trkpt><trkpt lat="44.223095" lon="11.7941233"><ele>77.0</ele><time>2026-04-26T14:14:10.577Z</time></trkpt><trkpt lat="44.2231783" lon="11.7943183"><ele>75.0</ele><time>2026-04-26T14:14:11.563Z</time></trkpt><trkpt lat="44.2232633" lon="11.7945117"><ele>73.0</ele><time>2026-04-26T14:14:12.562Z</time></trkpt><trkpt lat="44.22335" lon="11.7946967"><ele>73.0</ele><time>2026-04-26T14:14:13.572Z</time></trkpt><trkpt lat="44.2234467" lon="11.7948683"><ele>73.0</ele><time>2026-04-26T14:14:14.578Z</time></trkpt><trkpt lat="44.2235517" lon="11.7950283"><ele>73.0</ele><time>2026-04-26T14:14:15.564Z</time></trkpt><trkpt lat="44.2236667" lon="11.7951717"><ele>72.0</ele><time>2026-04-26T14:14:16.575Z</time></trkpt><trkpt lat="44.2237783" lon="11.795305"><ele>71.0</ele><time>2026-04-26T14:14:17.578Z</time></trkpt><trkpt lat="44.2238767" lon="11.79544"><ele>70.0</ele><time>2026-04-26T14:14:18.578Z</time></trkpt><trkpt lat="44.223955" lon="11.79558"><ele>69.0</ele><time>2026-04-26T14:14:19.567Z</time></trkpt><trkpt lat="44.22402" lon="11.7957267"><ele>69.0</ele><time>2026-04-26T14:14:20.577Z</time></trkpt><trkpt lat="44.22407" lon="11.7958817"><ele>69.0</ele><time>2026-04-26T14:14:21.568Z</time></trkpt><trkpt lat="44.2241033" lon="11.7960483"><ele>69.0</ele><time>2026-04-26T14:14:22.566Z</time></trkpt><trkpt lat="44.2241267" lon="11.79622"><ele>69.0</ele><time>2026-04-26T14:14:23.571Z</time></trkpt><trkpt lat="44.2241417" lon="11.7963983"><ele>69.0</ele><time>2026-04-26T14:14:24.582Z</time></trkpt><trkpt lat="44.2241583" lon="11.79658"><ele>69.0</ele><time>2026-04-26T14:14:25.577Z</time></trkpt><trkpt lat="44.2241733" lon="11.796765"><ele>69.0</ele><time>2026-04-26T14:14:26.565Z</time></trkpt><trkpt lat="44.224185" lon="11.796955"><ele>69.0</ele><time>2026-04-26T14:14:27.57Z</time></trkpt><trkpt lat="44.2241983" lon="11.797145"><ele>69.75</ele><time>2026-04-26T14:14:28.568Z</time></trkpt><trkpt lat="44.2242133" lon="11.797335"><ele>70.5</ele><time>2026-04-26T14:14:29.574Z</time></trkpt><trkpt lat="44.2242233" lon="11.7975267"><ele>71.25</ele><time>2026-04-26T14:14:30.57Z</time></trkpt><trkpt lat="44.2242317" lon="11.7977217"><ele>72.0</ele><time>2026-04-26T14:14:31.577Z</time></trkpt><trkpt lat="44.2242417" lon="11.7979183"><ele>72.75</ele><time>2026-04-26T14:14:32.566Z</time></trkpt><trkpt lat="44.2242583" lon="11.7981117"><ele>73.5</ele><time>2026-04-26T14:14:33.563Z</time></trkpt><trkpt lat="44.224285" lon="11.7983017"><ele>74.25</ele><time>2026-04-26T14:14:34.563Z</time></trkpt><trkpt lat="44.22433" lon="11.7984833"><ele>75.0</ele><time>2026-04-26T14:14:35.57Z</time></trkpt><trkpt lat="44.22438" lon="11.79866"><ele>77.25</ele><time>2026-04-26T14:14:36.558Z</time></trkpt><trkpt lat="44.2244267" lon="11.798835"><ele>79.5</ele><time>2026-04-26T14:14:37.564Z</time></trkpt><trkpt lat="44.2244617" lon="11.799015"><ele>81.75</ele><time>2026-04-26T14:14:38.581Z</time></trkpt><trkpt lat="44.2244833" lon="11.799195"><ele>84.0</ele><time>2026-04-26T14:14:39.573Z</time></trkpt><trkpt lat="44.224485" lon="11.7993783"><ele>84.75</ele><time>2026-04-26T14:14:40.567Z</time></trkpt><trkpt lat="44.22447" lon="11.7995617"><ele>85.5</ele><time>2026-04-26T14:14:41.549Z</time></trkpt><trkpt lat="44.224445" lon="11.7997467"><ele>86.25</ele><time>2026-04-26T14:14:42.574Z</time></trkpt><trkpt lat="44.22442" lon="11.799935"><ele>87.0</ele><time>2026-04-26T14:14:43.571Z</time></trkpt><trkpt lat="44.224395" lon="11.800125"><ele>87.66666666666667</ele><time>2026-04-26T14:14:44.569Z</time></trkpt><trkpt lat="44.2243683" lon="11.8003167"><ele>88.33333333333334</ele><time>2026-04-26T14:14:45.567Z</time></trkpt><trkpt lat="44.2243383" lon="11.8005083"><ele>89.0</ele><time>2026-04-26T14:14:46.573Z</time></trkpt><trkpt lat="44.224275" lon="11.800905"><ele>89.5</ele><time>2026-04-26T14:14:48.575Z</time></trkpt><trkpt lat="44.2242467" lon="11.8010967"><ele>90.0</ele><time>2026-04-26T14:14:49.568Z</time></trkpt><trkpt lat="44.224225" lon="11.8012783"><ele>90.5</ele><time>2026-04-26T14:14:50.577Z</time></trkpt><trkpt lat="44.224225" lon="11.8014567"><ele>91.0</ele><time>2026-04-26T14:14:51.571Z</time></trkpt><trkpt lat="44.2242383" lon="11.801635"><ele>91.0</ele><time>2026-04-26T14:14:52.569Z</time></trkpt><trkpt lat="44.2242667" lon="11.8018117"><ele>91.0</ele><time>2026-04-26T14:14:53.568Z</time></trkpt><trkpt lat="44.22431" lon="11.80199"><ele>91.0</ele><time>2026-04-26T14:14:54.569Z</time></trkpt><trkpt lat="44.22437" lon="11.8021683"><ele>91.0</ele><time>2026-04-26T14:14:55.565Z</time></trkpt><trkpt lat="44.2244383" lon="11.8023517"><ele>91.0</ele><time>2026-04-26T14:14:56.561Z</time></trkpt><trkpt lat="44.2245067" lon="11.8025417"><ele>91.0</ele><time>2026-04-26T14:14:57.561Z</time></trkpt><trkpt lat="44.224575" lon="11.8027383"><ele>91.0</ele><time>2026-04-26T14:14:58.573Z</time></trkpt><trkpt lat="44.224645" lon="11.8029417"><ele>91.0</ele><time>2026-04-26T14:14:59.566Z</time></trkpt><trkpt lat="44.2247117" lon="11.8031517"><ele>91.0</ele><time>2026-04-26T14:15:00.58Z</time></trkpt><trkpt lat="44.22478" lon="11.803365"><ele>91.0</ele><time>2026-04-26T14:15:01.572Z</time></trkpt><trkpt lat="44.2248483" lon="11.8035717"><ele>87.0</ele><time>2026-04-26T14:15:02.57Z</time></trkpt><trkpt lat="44.224915" lon="11.8037683"><ele>83.0</ele><time>2026-04-26T14:15:03.59Z</time></trkpt><trkpt lat="44.2249883" lon="11.803955"><ele>79.0</ele><time>2026-04-26T14:15:04.573Z</time></trkpt><trkpt lat="44.2250633" lon="11.8041317"><ele>79.0</ele><time>2026-04-26T14:15:05.572Z</time></trkpt><trkpt lat="44.2251417" lon="11.8043033"><ele>79.0</ele><time>2026-04-26T14:15:06.566Z</time></trkpt><trkpt lat="44.2252183" lon="11.8044733"><ele>79.0</ele><time>2026-04-26T14:15:07.568Z</time></trkpt><trkpt lat="44.2252933" lon="11.8046433"><ele>79.0</ele><time>2026-04-26T14:15:08.57Z</time></trkpt><trkpt lat="44.2253667" lon="11.804815"><ele>79.0</ele><time>2026-04-26T14:15:09.569Z</time></trkpt><trkpt lat="44.22544" lon="11.80499"><ele>79.0</ele><time>2026-04-26T14:15:10.579Z</time></trkpt><trkpt lat="44.2255117" lon="11.805165"><ele>79.0</ele><time>2026-04-26T14:15:11.576Z</time></trkpt><trkpt lat="44.2255833" lon="11.8053383"><ele>79.0</ele><time>2026-04-26T14:15:12.576Z</time></trkpt><trkpt lat="44.225655" lon="11.8055083"><ele>77.0</ele><time>2026-04-26T14:15:13.578Z</time></trkpt><trkpt lat="44.2257267" lon="11.8056817"><ele>75.0</ele><time>2026-04-26T14:15:14.581Z</time></trkpt><trkpt lat="44.2258017" lon="11.8058567"><ele>73.0</ele><time>2026-04-26T14:15:15.564Z</time></trkpt><trkpt lat="44.225875" lon="11.806035"><ele>71.0</ele><time>2026-04-26T14:15:16.572Z</time></trkpt><trkpt lat="44.2259533" lon="11.8062183"><ele>71.0</ele><time>2026-04-26T14:15:17.574Z</time></trkpt><trkpt lat="44.2261133" lon="11.8065967"><ele>71.0</ele><time>2026-04-26T14:15:19.59Z</time></trkpt><trkpt lat="44.22619" lon="11.8067867"><ele>73.33333333333334</ele><time>2026-04-26T14:15:20.581Z</time></trkpt><trkpt lat="44.2262683" lon="11.8069767"><ele>75.66666666666667</ele><time>2026-04-26T14:15:21.571Z</time></trkpt><trkpt lat="44.2263417" lon="11.8071667"><ele>78.0</ele><time>2026-04-26T14:15:22.582Z</time></trkpt><trkpt lat="44.2264067" lon="11.80736"><ele>78.0</ele><time>2026-04-26T14:15:23.577Z</time></trkpt><trkpt lat="44.2264617" lon="11.8075583"><ele>78.0</ele><time>2026-04-26T14:15:24.574Z</time></trkpt><trkpt lat="44.2265083" lon="11.8077583"><ele>78.0</ele><time>2026-04-26T14:15:25.573Z</time></trkpt><trkpt lat="44.22655" lon="11.8079617"><ele>77.5</ele><time>2026-04-26T14:15:26.575Z</time></trkpt><trkpt lat="44.2265867" lon="11.8081633"><ele>77.0</ele><time>2026-04-26T14:15:27.572Z</time></trkpt><trkpt lat="44.22662" lon="11.8083633"><ele>76.5</ele><time>2026-04-26T14:15:28.568Z</time></trkpt><trkpt lat="44.2266567" lon="11.80856"><ele>76.0</ele><time>2026-04-26T14:15:29.587Z</time></trkpt><trkpt lat="44.2266933" lon="11.8087517"><ele>76.0</ele><time>2026-04-26T14:15:30.572Z</time></trkpt><trkpt lat="44.2267267" lon="11.8089417"><ele>76.0</ele><time>2026-04-26T14:15:31.579Z</time></trkpt><trkpt lat="44.22676" lon="11.8091267"><ele>76.0</ele><time>2026-04-26T14:15:32.582Z</time></trkpt><trkpt lat="44.226795" lon="11.80931"><ele>76.0</ele><time>2026-04-26T14:15:33.579Z</time></trkpt><trkpt lat="44.226845" lon="11.8094767"><ele>78.25</ele><time>2026-04-26T14:15:34.566Z</time></trkpt><trkpt lat="44.226915" lon="11.8096183"><ele>80.5</ele><time>2026-04-26T14:15:35.569Z</time></trkpt><trkpt lat="44.2270067" lon="11.8097333"><ele>82.75</ele><time>2026-04-26T14:15:36.571Z</time></trkpt><trkpt lat="44.2271067" lon="11.8098433"><ele>85.0</ele><time>2026-04-26T14:15:37.571Z</time></trkpt><trkpt lat="44.2272067" lon="11.809965"><ele>85.0</ele><time>2026-04-26T14:15:38.577Z</time></trkpt><trkpt lat="44.2272967" lon="11.8101017"><ele>85.0</ele><time>2026-04-26T14:15:39.612Z</time></trkpt><trkpt lat="44.22738" lon="11.8102483"><ele>85.0</ele><time>2026-04-26T14:15:40.562Z</time></trkpt><trkpt lat="44.2274617" lon="11.8103967"><ele>85.0</ele><time>2026-04-26T14:15:41.569Z</time></trkpt><trkpt lat="44.2275517" lon="11.8105383"><ele>87.0</ele><time>2026-04-26T14:15:42.578Z</time></trkpt><trkpt lat="44.2276533" lon="11.8106633"><ele>89.0</ele><time>2026-04-26T14:15:43.57Z</time></trkpt><trkpt lat="44.22776" lon="11.8107767"><ele>91.0</ele><time>2026-04-26T14:15:44.572Z</time></trkpt><trkpt lat="44.227875" lon="11.81088"><ele>93.0</ele><time>2026-04-26T14:15:45.577Z</time></trkpt><trkpt lat="44.227995" lon="11.8109817"><ele>92.33333333333333</ele><time>2026-04-26T14:15:46.58Z</time></trkpt><trkpt lat="44.2281167" lon="11.8110817"><ele>91.66666666666666</ele><time>2026-04-26T14:15:47.569Z</time></trkpt><trkpt lat="44.22824" lon="11.8111883"><ele>91.0</ele><time>2026-04-26T14:15:48.573Z</time></trkpt><trkpt lat="44.2284917" lon="11.8114083"><ele>91.0</ele><time>2026-04-26T14:15:50.575Z</time></trkpt><trkpt lat="44.228625" lon="11.811515"><ele>91.0</ele><time>2026-04-26T14:15:51.573Z</time></trkpt><trkpt lat="44.2287583" lon="11.81162"><ele>91.0</ele><time>2026-04-26T14:15:52.57Z</time></trkpt><trkpt lat="44.2288933" lon="11.8117233"><ele>90.0</ele><time>2026-04-26T14:15:53.572Z</time></trkpt><trkpt lat="44.2290317" lon="11.8118167"><ele>89.0</ele><time>2026-04-26T14:15:54.576Z</time></trkpt><trkpt lat="44.2291733" lon="11.8119067"><ele>88.0</ele><time>2026-04-26T14:15:55.567Z</time></trkpt><trkpt lat="44.22932" lon="11.8119983"><ele>88.0</ele><time>2026-04-26T14:15:56.555Z</time></trkpt><trkpt lat="44.22946" lon="11.8120917"><ele>88.0</ele><time>2026-04-26T14:15:57.572Z</time></trkpt><trkpt lat="44.2295933" lon="11.8121917"><ele>88.0</ele><time>2026-04-26T14:15:58.575Z</time></trkpt><trkpt lat="44.2297267" lon="11.812305"><ele>88.25</ele><time>2026-04-26T14:15:59.576Z</time></trkpt><trkpt lat="44.2298433" lon="11.8124267"><ele>88.5</ele><time>2026-04-26T14:16:00.568Z</time></trkpt><trkpt lat="44.2299533" lon="11.812555"><ele>88.75</ele><time>2026-04-26T14:16:01.565Z</time></trkpt><trkpt lat="44.2300617" lon="11.8126833"><ele>89.0</ele><time>2026-04-26T14:16:02.569Z</time></trkpt><trkpt lat="44.2301667" lon="11.8128133"><ele>89.0</ele><time>2026-04-26T14:16:03.571Z</time></trkpt><trkpt lat="44.2302733" lon="11.8129433"><ele>89.0</ele><time>2026-04-26T14:16:04.566Z</time></trkpt><trkpt lat="44.2303783" lon="11.8130733"><ele>89.0</ele><time>2026-04-26T14:16:05.575Z</time></trkpt><trkpt lat="44.2304783" lon="11.8131983"><ele>89.0</ele><time>2026-04-26T14:16:06.57Z</time></trkpt><trkpt lat="44.2305767" lon="11.8133133"><ele>89.25</ele><time>2026-04-26T14:16:07.603Z</time></trkpt><trkpt lat="44.2306717" lon="11.8134183"><ele>89.5</ele><time>2026-04-26T14:16:08.577Z</time></trkpt><trkpt lat="44.230765" lon="11.8135233"><ele>89.75</ele><time>2026-04-26T14:16:09.603Z</time></trkpt><trkpt lat="44.2308483" lon="11.81364"><ele>90.0</ele><time>2026-04-26T14:16:10.579Z</time></trkpt><trkpt lat="44.2309183" lon="11.8137717"><ele>90.0</ele><time>2026-04-26T14:16:11.575Z</time></trkpt><trkpt lat="44.230975" lon="11.8139217"><ele>90.0</ele><time>2026-04-26T14:16:12.571Z</time></trkpt><trkpt lat="44.2310183" lon="11.8140783"><ele>90.0</ele><time>2026-04-26T14:16:13.578Z</time></trkpt><trkpt lat="44.2310617" lon="11.81424"><ele>90.0</ele><time>2026-04-26T14:16:14.576Z</time></trkpt><trkpt lat="44.2311133" lon="11.814395"><ele>91.0</ele><time>2026-04-26T14:16:15.573Z</time></trkpt><trkpt lat="44.23118" lon="11.8145417"><ele>92.0</ele><time>2026-04-26T14:16:16.564Z</time></trkpt><trkpt lat="44.231255" lon="11.8146717"><ele>93.0</ele><time>2026-04-26T14:16:17.57Z</time></trkpt><trkpt lat="44.231325" lon="11.8147783"><ele>94.0</ele><time>2026-04-26T14:16:18.569Z</time></trkpt><trkpt lat="44.2313783" lon="11.8148683"><ele>95.0</ele><time>2026-04-26T14:16:19.566Z</time></trkpt><trkpt lat="44.2314067" lon="11.8149633"><ele>95.0</ele><time>2026-04-26T14:16:20.566Z</time></trkpt><trkpt lat="44.2313933" lon="11.8150567"><ele>95.0</ele><time>2026-04-26T14:16:21.578Z</time></trkpt><trkpt lat="44.2313517" lon="11.815145"><ele>95.0</ele><time>2026-04-26T14:16:22.568Z</time></trkpt><trkpt lat="44.2312917" lon="11.8152317"><ele>95.0</ele><time>2026-04-26T14:16:23.572Z</time></trkpt><trkpt lat="44.23122" lon="11.8153317"><ele>95.0</ele><time>2026-04-26T14:16:24.572Z</time></trkpt><trkpt lat="44.231145" lon="11.8154417"><ele>95.0</ele><time>2026-04-26T14:16:25.572Z</time></trkpt><trkpt lat="44.2310683" lon="11.8155633"><ele>95.5</ele><time>2026-04-26T14:16:26.567Z</time></trkpt><trkpt lat="44.230985" lon="11.815695"><ele>96.0</ele><time>2026-04-26T14:16:27.568Z</time></trkpt><trkpt lat="44.230895" lon="11.815835"><ele>96.5</ele><time>2026-04-26T14:16:28.576Z</time></trkpt><trkpt lat="44.2308083" lon="11.8159833"><ele>97.0</ele><time>2026-04-26T14:16:29.576Z</time></trkpt><trkpt lat="44.2307267" lon="11.81613"><ele>97.5</ele><time>2026-04-26T14:16:30.572Z</time></trkpt><trkpt lat="44.2306467" lon="11.81629"><ele>98.0</ele><time>2026-04-26T14:16:31.57Z</time></trkpt><trkpt lat="44.2305717" lon="11.81646"><ele>98.5</ele><time>2026-04-26T14:16:32.586Z</time></trkpt><trkpt lat="44.2305" lon="11.8166367"><ele>99.0</ele><time>2026-04-26T14:16:33.578Z</time></trkpt><trkpt lat="44.23043" lon="11.8168083"><ele>100.25</ele><time>2026-04-26T14:16:34.576Z</time></trkpt><trkpt lat="44.2303617" lon="11.81696"><ele>101.5</ele><time>2026-04-26T14:16:35.57Z</time></trkpt><trkpt lat="44.2302983" lon="11.8171083"><ele>102.75</ele><time>2026-04-26T14:16:36.568Z</time></trkpt><trkpt lat="44.23024" lon="11.8172583"><ele>104.0</ele><time>2026-04-26T14:16:37.581Z</time></trkpt><trkpt lat="44.2301917" lon="11.8174133"><ele>104.0</ele><time>2026-04-26T14:16:38.566Z</time></trkpt><trkpt lat="44.2301583" lon="11.81757"><ele>104.0</ele><time>2026-04-26T14:16:39.563Z</time></trkpt><trkpt lat="44.230145" lon="11.8177183"><ele>104.0</ele><time>2026-04-26T14:16:40.572Z</time></trkpt><trkpt lat="44.230155" lon="11.817855"><ele>104.0</ele><time>2026-04-26T14:16:41.576Z</time></trkpt><trkpt lat="44.2301983" lon="11.8179717"><ele>104.0</ele><time>2026-04-26T14:16:42.565Z</time></trkpt><trkpt lat="44.23027" lon="11.818075"><ele>104.5</ele><time>2026-04-26T14:16:43.577Z</time></trkpt><trkpt lat="44.2303683" lon="11.8181733"><ele>105.0</ele><time>2026-04-26T14:16:44.565Z</time></trkpt><trkpt lat="44.2304733" lon="11.8182733"><ele>105.5</ele><time>2026-04-26T14:16:45.579Z</time></trkpt><trkpt lat="44.230575" lon="11.8183917"><ele>106.0</ele><time>2026-04-26T14:16:46.57Z</time></trkpt><trkpt lat="44.2306767" lon="11.8185233"><ele>106.0</ele><time>2026-04-26T14:16:47.57Z</time></trkpt><trkpt lat="44.23077" lon="11.8186617"><ele>106.0</ele><time>2026-04-26T14:16:48.575Z</time></trkpt><trkpt lat="44.23085" lon="11.8187967"><ele>106.0</ele><time>2026-04-26T14:16:49.573Z</time></trkpt><trkpt lat="44.2308983" lon="11.81892"><ele>106.0</ele><time>2026-04-26T14:16:50.568Z</time></trkpt><trkpt lat="44.230915" lon="11.819035"><ele>106.0</ele><time>2026-04-26T14:16:51.582Z</time></trkpt><trkpt lat="44.2309" lon="11.819145"><ele>106.0</ele><time>2026-04-26T14:16:52.572Z</time></trkpt><trkpt lat="44.2308583" lon="11.81925"><ele>106.0</ele><time>2026-04-26T14:16:53.578Z</time></trkpt><trkpt lat="44.2307983" lon="11.8193517"><ele>106.0</ele><time>2026-04-26T14:16:54.575Z</time></trkpt><trkpt lat="44.23073" lon="11.819455"><ele>106.0</ele><time>2026-04-26T14:16:55.572Z</time></trkpt><trkpt lat="44.2306533" lon="11.8195617"><ele>106.0</ele><time>2026-04-26T14:16:56.564Z</time></trkpt><trkpt lat="44.2305733" lon="11.81967"><ele>108.0</ele><time>2026-04-26T14:16:57.566Z</time></trkpt><trkpt lat="44.2304883" lon="11.8197867"><ele>110.0</ele><time>2026-04-26T14:16:58.574Z</time></trkpt><trkpt lat="44.230405" lon="11.8199067"><ele>112.0</ele><time>2026-04-26T14:16:59.573Z</time></trkpt><trkpt lat="44.230325" lon="11.8200333"><ele>114.0</ele><time>2026-04-26T14:17:00.579Z</time></trkpt><trkpt lat="44.2302483" lon="11.8201633"><ele>115.6</ele><time>2026-04-26T14:17:01.568Z</time></trkpt><trkpt lat="44.2301767" lon="11.8202933"><ele>117.2</ele><time>2026-04-26T14:17:02.569Z</time></trkpt><trkpt lat="44.230115" lon="11.8204117"><ele>118.79999999999998</ele><time>2026-04-26T14:17:03.57Z</time></trkpt><trkpt lat="44.2300767" lon="11.8205167"><ele>120.39999999999999</ele><time>2026-04-26T14:17:04.575Z</time></trkpt><trkpt lat="44.23006" lon="11.8206233"><ele>122.0</ele><time>2026-04-26T14:17:05.66Z</time></trkpt><trkpt lat="44.230085" lon="11.8207233"><ele>122.0</ele><time>2026-04-26T14:17:06.588Z</time></trkpt><trkpt lat="44.2301267" lon="11.820815"><ele>121.99999999999999</ele><time>2026-04-26T14:17:07.559Z</time></trkpt><trkpt lat="44.2301983" lon="11.820885"><ele>121.99999999999999</ele><time>2026-04-26T14:17:08.557Z</time></trkpt><trkpt lat="44.2302933" lon="11.82092"><ele>122.0</ele><time>2026-04-26T14:17:09.561Z</time></trkpt><trkpt lat="44.2303917" lon="11.8209583"><ele>122.0</ele><time>2026-04-26T14:17:10.558Z</time></trkpt><trkpt lat="44.2304867" lon="11.8210133"><ele>123.0</ele><time>2026-04-26T14:17:11.551Z</time></trkpt><trkpt lat="44.23057" lon="11.8210917"><ele>123.99999999999999</ele><time>2026-04-26T14:17:12.557Z</time></trkpt><trkpt lat="44.2306483" lon="11.821185"><ele>124.99999999999999</ele><time>2026-04-26T14:17:13.555Z</time></trkpt><trkpt lat="44.2307167" lon="11.8212883"><ele>126.0</ele><time>2026-04-26T14:17:14.564Z</time></trkpt><trkpt lat="44.2307717" lon="11.821395"><ele>127.0</ele><time>2026-04-26T14:17:15.582Z</time></trkpt><trkpt lat="44.2308033" lon="11.8215133"><ele>127.0</ele><time>2026-04-26T14:17:16.58Z</time></trkpt><trkpt lat="44.2308117" lon="11.8216383"><ele>126.99999999999999</ele><time>2026-04-26T14:17:17.584Z</time></trkpt><trkpt lat="44.2307933" lon="11.8217683"><ele>126.99999999999999</ele><time>2026-04-26T14:17:18.571Z</time></trkpt><trkpt lat="44.2307533" lon="11.8219"><ele>127.0</ele><time>2026-04-26T14:17:19.569Z</time></trkpt><trkpt lat="44.2307" lon="11.8220317"><ele>127.0</ele><time>2026-04-26T14:17:20.558Z</time></trkpt><trkpt lat="44.230565" lon="11.82229"><ele>130.75</ele><time>2026-04-26T14:17:22.569Z</time></trkpt><trkpt lat="44.2304817" lon="11.8224183"><ele>134.5</ele><time>2026-04-26T14:17:23.575Z</time></trkpt><trkpt lat="44.2303967" lon="11.8225433"><ele>138.25</ele><time>2026-04-26T14:17:24.566Z</time></trkpt><trkpt lat="44.2303117" lon="11.8226667"><ele>142.0</ele><time>2026-04-26T14:17:25.568Z</time></trkpt><trkpt lat="44.2302383" lon="11.8227883"><ele>143.2</ele><time>2026-04-26T14:17:26.575Z</time></trkpt><trkpt lat="44.2301833" lon="11.82292"><ele>144.39999999999998</ele><time>2026-04-26T14:17:27.582Z</time></trkpt><trkpt lat="44.2301583" lon="11.8230683"><ele>145.60000000000002</ele><time>2026-04-26T14:17:28.577Z</time></trkpt><trkpt lat="44.230165" lon="11.823215"><ele>146.8</ele><time>2026-04-26T14:17:29.574Z</time></trkpt><trkpt lat="44.2301917" lon="11.823355"><ele>148.0</ele><time>2026-04-26T14:17:30.576Z</time></trkpt><trkpt lat="44.2302117" lon="11.8234967"><ele>148.6</ele><time>2026-04-26T14:17:31.581Z</time></trkpt><trkpt lat="44.2302167" lon="11.82364"><ele>149.20000000000002</ele><time>2026-04-26T14:17:32.575Z</time></trkpt><trkpt lat="44.2301983" lon="11.8237817"><ele>149.8</ele><time>2026-04-26T14:17:33.579Z</time></trkpt><trkpt lat="44.23016" lon="11.8239183"><ele>150.4</ele><time>2026-04-26T14:17:34.572Z</time></trkpt><trkpt lat="44.2301083" lon="11.8240533"><ele>151.0</ele><time>2026-04-26T14:17:35.566Z</time></trkpt><trkpt lat="44.2300533" lon="11.824185"><ele>151.0</ele><time>2026-04-26T14:17:36.577Z</time></trkpt><trkpt lat="44.229995" lon="11.8243067"><ele>151.0</ele><time>2026-04-26T14:17:37.582Z</time></trkpt><trkpt lat="44.22993" lon="11.824405"><ele>151.0</ele><time>2026-04-26T14:17:38.578Z</time></trkpt><trkpt lat="44.2298517" lon="11.82448"><ele>151.0</ele><time>2026-04-26T14:17:39.575Z</time></trkpt><trkpt lat="44.2297617" lon="11.8245267"><ele>151.0</ele><time>2026-04-26T14:17:40.58Z</time></trkpt><trkpt lat="44.2296617" lon="11.82455"><ele>152.6</ele><time>2026-04-26T14:17:41.57Z</time></trkpt><trkpt lat="44.2295583" lon="11.8245483"><ele>154.2</ele><time>2026-04-26T14:17:42.575Z</time></trkpt><trkpt lat="44.2294567" lon="11.8245133"><ele>155.8</ele><time>2026-04-26T14:17:43.569Z</time></trkpt><trkpt lat="44.2293583" lon="11.8244517"><ele>157.4</ele><time>2026-04-26T14:17:44.57Z</time></trkpt><trkpt lat="44.2292667" lon="11.824375"><ele>159.0</ele><time>2026-04-26T14:17:45.588Z</time></trkpt><trkpt lat="44.229185" lon="11.8243"><ele>159.83333333333334</ele><time>2026-04-26T14:17:46.57Z</time></trkpt><trkpt lat="44.22911" lon="11.8242417"><ele>160.66666666666666</ele><time>2026-04-26T14:17:47.574Z</time></trkpt><trkpt lat="44.2290367" lon="11.8242083"><ele>161.5</ele><time>2026-04-26T14:17:48.574Z</time></trkpt><trkpt lat="44.228965" lon="11.8242083"><ele>162.33333333333331</ele><time>2026-04-26T14:17:49.598Z</time></trkpt><trkpt lat="44.2289033" lon="11.8242433"><ele>163.16666666666666</ele><time>2026-04-26T14:17:50.578Z</time></trkpt><trkpt lat="44.2288917" lon="11.8244317"><ele>164.0</ele><time>2026-04-26T14:17:52.579Z</time></trkpt><trkpt lat="44.2289217" lon="11.82454"><ele>166.66666666666666</ele><time>2026-04-26T14:17:53.571Z</time></trkpt><trkpt lat="44.2289417" lon="11.8246467"><ele>169.33333333333331</ele><time>2026-04-26T14:17:54.559Z</time></trkpt><trkpt lat="44.2289483" lon="11.8247583"><ele>172.0</ele><time>2026-04-26T14:17:55.583Z</time></trkpt><trkpt lat="44.2289317" lon="11.8248667"><ele>174.66666666666666</ele><time>2026-04-26T14:17:56.569Z</time></trkpt><trkpt lat="44.22888" lon="11.8249517"><ele>177.33333333333334</ele><time>2026-04-26T14:17:57.579Z</time></trkpt><trkpt lat="44.2288" lon="11.8250133"><ele>180.0</ele><time>2026-04-26T14:17:58.584Z</time></trkpt><trkpt lat="44.228705" lon="11.825065"><ele>180.0</ele><time>2026-04-26T14:17:59.57Z</time></trkpt><trkpt lat="44.2286083" lon="11.825125"><ele>180.0</ele><time>2026-04-26T14:18:00.575Z</time></trkpt><trkpt lat="44.22851" lon="11.8251833"><ele>180.0</ele><time>2026-04-26T14:18:01.574Z</time></trkpt><trkpt lat="44.2284067" lon="11.82525"><ele>180.0</ele><time>2026-04-26T14:18:02.573Z</time></trkpt><trkpt lat="44.228305" lon="11.825315"><ele>180.0</ele><time>2026-04-26T14:18:03.571Z</time></trkpt><trkpt lat="44.228205" lon="11.8253717"><ele>181.8</ele><time>2026-04-26T14:18:04.559Z</time></trkpt><trkpt lat="44.2281033" lon="11.825425"><ele>183.6</ele><time>2026-04-26T14:18:05.556Z</time></trkpt><trkpt lat="44.228" lon="11.825475"><ele>185.39999999999998</ele><time>2026-04-26T14:18:06.593Z</time></trkpt><trkpt lat="44.2278983" lon="11.825515"><ele>187.2</ele><time>2026-04-26T14:18:07.576Z</time></trkpt><trkpt lat="44.2278" lon="11.825565"><ele>189.0</ele><time>2026-04-26T14:18:08.574Z</time></trkpt><trkpt lat="44.2277117" lon="11.8256267"><ele>189.0</ele><time>2026-04-26T14:18:09.578Z</time></trkpt><trkpt lat="44.2276367" lon="11.8257283"><ele>189.0</ele><time>2026-04-26T14:18:10.567Z</time></trkpt><trkpt lat="44.2275683" lon="11.8258517"><ele>189.0</ele><time>2026-04-26T14:18:11.574Z</time></trkpt><trkpt lat="44.2274983" lon="11.8259917"><ele>189.0</ele><time>2026-04-26T14:18:12.58Z</time></trkpt><trkpt lat="44.2274217" lon="11.826135"><ele>190.5</ele><time>2026-04-26T14:18:13.576Z</time></trkpt><trkpt lat="44.227345" lon="11.8262733"><ele>192.0</ele><time>2026-04-26T14:18:14.562Z</time></trkpt><trkpt lat="44.227265" lon="11.826405"><ele>193.5</ele><time>2026-04-26T14:18:15.572Z</time></trkpt><trkpt lat="44.2271933" lon="11.8265333"><ele>195.0</ele><time>2026-04-26T14:18:16.564Z</time></trkpt><trkpt lat="44.2271383" lon="11.8266583"><ele>195.0</ele><time>2026-04-26T14:18:17.578Z</time></trkpt><trkpt lat="44.2271" lon="11.8267867"><ele>195.0</ele><time>2026-04-26T14:18:18.581Z</time></trkpt><trkpt lat="44.227095" lon="11.826925"><ele>195.0</ele><time>2026-04-26T14:18:19.583Z</time></trkpt><trkpt lat="44.227115" lon="11.82707"><ele>195.0</ele><time>2026-04-26T14:18:20.567Z</time></trkpt><trkpt lat="44.22715" lon="11.827225"><ele>195.0</ele><time>2026-04-26T14:18:21.585Z</time></trkpt><trkpt lat="44.227225" lon="11.8275717"><ele>195.0</ele><time>2026-04-26T14:18:23.57Z</time></trkpt><trkpt lat="44.2272667" lon="11.827755"><ele>195.0</ele><time>2026-04-26T14:18:24.576Z</time></trkpt><trkpt lat="44.2273117" lon="11.8279433"><ele>195.0</ele><time>2026-04-26T14:18:25.575Z</time></trkpt><trkpt lat="44.2273517" lon="11.8281333"><ele>195.0</ele><time>2026-04-26T14:18:26.576Z</time></trkpt><trkpt lat="44.227395" lon="11.8283217"><ele>191.25</ele><time>2026-04-26T14:18:27.567Z</time></trkpt><trkpt lat="44.227435" lon="11.8285083"><ele>187.5</ele><time>2026-04-26T14:18:28.571Z</time></trkpt><trkpt lat="44.2274767" lon="11.8286933"><ele>183.75</ele><time>2026-04-26T14:18:29.567Z</time></trkpt><trkpt lat="44.22752" lon="11.828885"><ele>180.0</ele><time>2026-04-26T14:18:30.572Z</time></trkpt><trkpt lat="44.2275617" lon="11.8290783"><ele>180.0</ele><time>2026-04-26T14:18:31.576Z</time></trkpt><trkpt lat="44.2276033" lon="11.8292733"><ele>180.0</ele><time>2026-04-26T14:18:32.579Z</time></trkpt><trkpt lat="44.227645" lon="11.8294733"><ele>180.0</ele><time>2026-04-26T14:18:33.575Z</time></trkpt><trkpt lat="44.2276883" lon="11.82968"><ele>180.0</ele><time>2026-04-26T14:18:34.569Z</time></trkpt><trkpt lat="44.2277333" lon="11.8298833"><ele>179.5</ele><time>2026-04-26T14:18:35.567Z</time></trkpt><trkpt lat="44.227785" lon="11.830085"><ele>179.0</ele><time>2026-04-26T14:18:36.618Z</time></trkpt><trkpt lat="44.2278367" lon="11.8302783"><ele>178.5</ele><time>2026-04-26T14:18:37.574Z</time></trkpt><trkpt lat="44.2278767" lon="11.8304567"><ele>178.0</ele><time>2026-04-26T14:18:38.574Z</time></trkpt><trkpt lat="44.2279217" lon="11.8306267"><ele>176.25</ele><time>2026-04-26T14:18:39.572Z</time></trkpt><trkpt lat="44.2279833" lon="11.8307833"><ele>174.5</ele><time>2026-04-26T14:18:40.58Z</time></trkpt><trkpt lat="44.2280583" lon="11.8309267"><ele>172.75</ele><time>2026-04-26T14:18:41.576Z</time></trkpt><trkpt lat="44.2281333" lon="11.8310533"><ele>171.0</ele><time>2026-04-26T14:18:42.581Z</time></trkpt><trkpt lat="44.228205" lon="11.8311533"><ele>175.0</ele><time>2026-04-26T14:18:43.566Z</time></trkpt><trkpt lat="44.228265" lon="11.831235"><ele>179.0</ele><time>2026-04-26T14:18:44.564Z</time></trkpt><trkpt lat="44.22831" lon="11.8313033"><ele>183.0</ele><time>2026-04-26T14:18:45.592Z</time></trkpt><trkpt lat="44.2283783" lon="11.8314117"><ele>187.0</ele><time>2026-04-26T14:18:47.57Z</time></trkpt><trkpt lat="44.2284933" lon="11.831485"><ele>191.0</ele><time>2026-04-26T14:18:49.584Z</time></trkpt><trkpt lat="44.22856" lon="11.8315267"><ele>191.0</ele><time>2026-04-26T14:18:50.579Z</time></trkpt><trkpt lat="44.2286283" lon="11.831585"><ele>191.0</ele><time>2026-04-26T14:18:51.57Z</time></trkpt><trkpt lat="44.2286983" lon="11.8316533"><ele>191.0</ele><time>2026-04-26T14:18:52.567Z</time></trkpt><trkpt lat="44.228855" lon="11.8318067"><ele>191.0</ele><time>2026-04-26T14:18:54.568Z</time></trkpt><trkpt lat="44.2289417" lon="11.8318883"><ele>193.0</ele><time>2026-04-26T14:18:55.574Z</time></trkpt><trkpt lat="44.2290333" lon="11.8319733"><ele>195.0</ele><time>2026-04-26T14:18:56.575Z</time></trkpt><trkpt lat="44.2291317" lon="11.8320617"><ele>197.0</ele><time>2026-04-26T14:18:57.572Z</time></trkpt><trkpt lat="44.2292367" lon="11.8321483"><ele>199.0</ele><time>2026-04-26T14:18:58.577Z</time></trkpt><trkpt lat="44.2293433" lon="11.83223"><ele>199.0</ele><time>2026-04-26T14:18:59.561Z</time></trkpt><trkpt lat="44.2294467" lon="11.832305"><ele>199.0</ele><time>2026-04-26T14:19:00.577Z</time></trkpt><trkpt lat="44.229545" lon="11.8323783"><ele>199.0</ele><time>2026-04-26T14:19:01.584Z</time></trkpt><trkpt lat="44.2296433" lon="11.8324517"><ele>199.0</ele><time>2026-04-26T14:19:02.575Z</time></trkpt><trkpt lat="44.2297433" lon="11.8325217"><ele>199.25</ele><time>2026-04-26T14:19:03.596Z</time></trkpt><trkpt lat="44.2298417" lon="11.8325967"><ele>199.5</ele><time>2026-04-26T14:19:04.584Z</time></trkpt><trkpt lat="44.229935" lon="11.8326783"><ele>199.75</ele><time>2026-04-26T14:19:05.58Z</time></trkpt><trkpt lat="44.230025" lon="11.8327717"><ele>200.0</ele><time>2026-04-26T14:19:06.582Z</time></trkpt><trkpt lat="44.2301183" lon="11.832875"><ele>198.0</ele><time>2026-04-26T14:19:07.571Z</time></trkpt><trkpt lat="44.2302067" lon="11.8329833"><ele>196.0</ele><time>2026-04-26T14:19:08.576Z</time></trkpt><trkpt lat="44.2302883" lon="11.8331083"><ele>194.0</ele><time>2026-04-26T14:19:09.574Z</time></trkpt><trkpt lat="44.2303633" lon="11.8332533"><ele>192.0</ele><time>2026-04-26T14:19:10.571Z</time></trkpt><trkpt lat="44.2304333" lon="11.83341"><ele>191.75</ele><time>2026-04-26T14:19:11.581Z</time></trkpt><trkpt lat="44.230505" lon="11.8335667"><ele>191.5</ele><time>2026-04-26T14:19:12.572Z</time></trkpt><trkpt lat="44.2305817" lon="11.8337233"><ele>191.25</ele><time>2026-04-26T14:19:13.564Z</time></trkpt><trkpt lat="44.2306633" lon="11.8338733"><ele>191.0</ele><time>2026-04-26T14:19:14.569Z</time></trkpt><trkpt lat="44.230745" lon="11.83402"><ele>191.0</ele><time>2026-04-26T14:19:15.57Z</time></trkpt><trkpt lat="44.230825" lon="11.8341583"><ele>191.0</ele><time>2026-04-26T14:19:16.572Z</time></trkpt><trkpt lat="44.2309133" lon="11.8342717"><ele>191.0</ele><time>2026-04-26T14:19:17.57Z</time></trkpt><trkpt lat="44.2310133" lon="11.8343533"><ele>191.0</ele><time>2026-04-26T14:19:18.579Z</time></trkpt><trkpt lat="44.2311183" lon="11.834415"><ele>190.25</ele><time>2026-04-26T14:19:19.564Z</time></trkpt><trkpt lat="44.2312283" lon="11.834475"><ele>189.5</ele><time>2026-04-26T14:19:20.573Z</time></trkpt><trkpt lat="44.231335" lon="11.8345483"><ele>188.75</ele><time>2026-04-26T14:19:21.58Z</time></trkpt><trkpt lat="44.2314367" lon="11.8346417"><ele>188.0</ele><time>2026-04-26T14:19:22.567Z</time></trkpt><trkpt lat="44.2315333" lon="11.8347367"><ele>188.0</ele><time>2026-04-26T14:19:23.567Z</time></trkpt><trkpt lat="44.231625" lon="11.8348233"><ele>188.0</ele><time>2026-04-26T14:19:24.564Z</time></trkpt><trkpt lat="44.231705" lon="11.8349017"><ele>188.0</ele><time>2026-04-26T14:19:25.569Z</time></trkpt><trkpt lat="44.23177" lon="11.8349883"><ele>188.0</ele><time>2026-04-26T14:19:26.568Z</time></trkpt><trkpt lat="44.2318167" lon="11.8350883"><ele>188.0</ele><time>2026-04-26T14:19:27.572Z</time></trkpt><trkpt lat="44.2318433" lon="11.8352"><ele>187.60000000000002</ele><time>2026-04-26T14:19:28.575Z</time></trkpt><trkpt lat="44.2318567" lon="11.835315"><ele>187.20000000000002</ele><time>2026-04-26T14:19:29.568Z</time></trkpt><trkpt lat="44.2318567" lon="11.8354367"><ele>186.8</ele><time>2026-04-26T14:19:30.566Z</time></trkpt><trkpt lat="44.2318467" lon="11.8355617"><ele>186.4</ele><time>2026-04-26T14:19:31.581Z</time></trkpt><trkpt lat="44.2318317" lon="11.8356933"><ele>186.0</ele><time>2026-04-26T14:19:32.583Z</time></trkpt><trkpt lat="44.2318117" lon="11.83583"><ele>186.0</ele><time>2026-04-26T14:19:33.568Z</time></trkpt><trkpt lat="44.231795" lon="11.8359667"><ele>186.0</ele><time>2026-04-26T14:19:34.568Z</time></trkpt><trkpt lat="44.23178" lon="11.83611"><ele>186.0</ele><time>2026-04-26T14:19:35.574Z</time></trkpt><trkpt lat="44.231765" lon="11.836255"><ele>186.0</ele><time>2026-04-26T14:19:36.566Z</time></trkpt><trkpt lat="44.2317483" lon="11.8364017"><ele>186.0</ele><time>2026-04-26T14:19:37.559Z</time></trkpt><trkpt lat="44.2317317" lon="11.8365533"><ele>185.5</ele><time>2026-04-26T14:19:38.576Z</time></trkpt><trkpt lat="44.2317233" lon="11.8367083"><ele>185.0</ele><time>2026-04-26T14:19:39.568Z</time></trkpt><trkpt lat="44.231725" lon="11.83687"><ele>184.5</ele><time>2026-04-26T14:19:40.576Z</time></trkpt><trkpt lat="44.23174" lon="11.8370267"><ele>184.0</ele><time>2026-04-26T14:19:41.569Z</time></trkpt><trkpt lat="44.2317633" lon="11.8371767"><ele>185.5</ele><time>2026-04-26T14:19:42.57Z</time></trkpt><trkpt lat="44.2318" lon="11.8373283"><ele>187.0</ele><time>2026-04-26T14:19:43.571Z</time></trkpt><trkpt lat="44.2318467" lon="11.8374733"><ele>188.5</ele><time>2026-04-26T14:19:44.575Z</time></trkpt><trkpt lat="44.2319" lon="11.837615"><ele>190.0</ele><time>2026-04-26T14:19:45.574Z</time></trkpt><trkpt lat="44.2319583" lon="11.8377483"><ele>191.4</ele><time>2026-04-26T14:19:46.567Z</time></trkpt><trkpt lat="44.232025" lon="11.83787"><ele>192.8</ele><time>2026-04-26T14:19:47.568Z</time></trkpt><trkpt lat="44.23209" lon="11.8379917"><ele>194.2</ele><time>2026-04-26T14:19:48.595Z</time></trkpt><trkpt lat="44.2321533" lon="11.8381133"><ele>195.6</ele><time>2026-04-26T14:19:49.572Z</time></trkpt><trkpt lat="44.2322033" lon="11.8382433"><ele>197.0</ele><time>2026-04-26T14:19:50.571Z</time></trkpt><trkpt lat="44.23224" lon="11.83838"><ele>197.5</ele><time>2026-04-26T14:19:51.567Z</time></trkpt><trkpt lat="44.2322733" lon="11.83852"><ele>198.0</ele><time>2026-04-26T14:19:52.559Z</time></trkpt><trkpt lat="44.2323117" lon="11.8386583"><ele>198.5</ele><time>2026-04-26T14:19:53.558Z</time></trkpt><trkpt lat="44.2324067" lon="11.838905"><ele>199.0</ele><time>2026-04-26T14:19:55.57Z</time></trkpt><trkpt lat="44.232475" lon="11.8390067"><ele>199.0</ele><time>2026-04-26T14:19:56.571Z</time></trkpt><trkpt lat="44.2325517" lon="11.839095"><ele>199.0</ele><time>2026-04-26T14:19:57.584Z</time></trkpt><trkpt lat="44.232625" lon="11.8391817"><ele>199.0</ele><time>2026-04-26T14:19:58.581Z</time></trkpt><trkpt lat="44.2327" lon="11.83927"><ele>199.0</ele><time>2026-04-26T14:19:59.568Z</time></trkpt><trkpt lat="44.2327683" lon="11.83936"><ele>199.0</ele><time>2026-04-26T14:20:00.567Z</time></trkpt><trkpt lat="44.2328383" lon="11.8394533"><ele>198.79999999999998</ele><time>2026-04-26T14:20:01.567Z</time></trkpt><trkpt lat="44.2329017" lon="11.8395517"><ele>198.6</ele><time>2026-04-26T14:20:02.565Z</time></trkpt><trkpt lat="44.2329533" lon="11.839655"><ele>198.4</ele><time>2026-04-26T14:20:03.56Z</time></trkpt><trkpt lat="44.23301" lon="11.8397633"><ele>198.2</ele><time>2026-04-26T14:20:04.569Z</time></trkpt><trkpt lat="44.233065" lon="11.83987"><ele>198.0</ele><time>2026-04-26T14:20:05.574Z</time></trkpt><trkpt lat="44.2331233" lon="11.8399817"><ele>198.4</ele><time>2026-04-26T14:20:06.577Z</time></trkpt><trkpt lat="44.2331783" lon="11.8400983"><ele>198.8</ele><time>2026-04-26T14:20:07.571Z</time></trkpt><trkpt lat="44.23323" lon="11.84022"><ele>199.2</ele><time>2026-04-26T14:20:08.575Z</time></trkpt><trkpt lat="44.2332883" lon="11.8403467"><ele>199.6</ele><time>2026-04-26T14:20:09.576Z</time></trkpt><trkpt lat="44.2333483" lon="11.840475"><ele>200.0</ele><time>2026-04-26T14:20:10.575Z</time></trkpt><trkpt lat="44.23341" lon="11.8406067"><ele>200.4</ele><time>2026-04-26T14:20:11.585Z</time></trkpt><trkpt lat="44.23347" lon="11.84074"><ele>200.8</ele><time>2026-04-26T14:20:12.567Z</time></trkpt><trkpt lat="44.233515" lon="11.8408683"><ele>201.2</ele><time>2026-04-26T14:20:13.571Z</time></trkpt><trkpt lat="44.23355" lon="11.8409983"><ele>201.6</ele><time>2026-04-26T14:20:14.568Z</time></trkpt><trkpt lat="44.2335717" lon="11.8411333"><ele>202.0</ele><time>2026-04-26T14:20:15.572Z</time></trkpt><trkpt lat="44.23358" lon="11.84127"><ele>202.0</ele><time>2026-04-26T14:20:16.569Z</time></trkpt><trkpt lat="44.2335817" lon="11.8414067"><ele>202.0</ele><time>2026-04-26T14:20:17.574Z</time></trkpt><trkpt lat="44.233585" lon="11.841545"><ele>202.0</ele><time>2026-04-26T14:20:18.576Z</time></trkpt><trkpt lat="44.2335883" lon="11.841685"><ele>202.0</ele><time>2026-04-26T14:20:19.579Z</time></trkpt><trkpt lat="44.2335817" lon="11.8418217"><ele>202.0</ele><time>2026-04-26T14:20:20.567Z</time></trkpt><trkpt lat="44.2335717" lon="11.8419483"><ele>202.83333333333331</ele><time>2026-04-26T14:20:21.577Z</time></trkpt><trkpt lat="44.23356" lon="11.84206"><ele>203.66666666666666</ele><time>2026-04-26T14:20:22.58Z</time></trkpt><trkpt lat="44.233545" lon="11.8421617"><ele>204.5</ele><time>2026-04-26T14:20:23.59Z</time></trkpt><trkpt lat="44.2335317" lon="11.8422533"><ele>205.33333333333331</ele><time>2026-04-26T14:20:24.58Z</time></trkpt><trkpt lat="44.233525" lon="11.842395"><ele>206.16666666666666</ele><time>2026-04-26T14:20:26.582Z</time></trkpt><trkpt lat="44.2335583" lon="11.8424733"><ele>207.0</ele><time>2026-04-26T14:20:28.574Z</time></trkpt><trkpt lat="44.23364" lon="11.8424617"><ele>207.0</ele><time>2026-04-26T14:20:30.561Z</time></trkpt><trkpt lat="44.2336983" lon="11.8424217"><ele>207.0</ele><time>2026-04-26T14:20:31.571Z</time></trkpt><trkpt lat="44.2337667" lon="11.8423717"><ele>207.0</ele><time>2026-04-26T14:20:32.574Z</time></trkpt><trkpt lat="44.23383" lon="11.8423233"><ele>207.0</ele><time>2026-04-26T14:20:33.572Z</time></trkpt><trkpt lat="44.2338883" lon="11.84228"><ele>207.0</ele><time>2026-04-26T14:20:34.612Z</time></trkpt><trkpt lat="44.2339917" lon="11.84223"><ele>207.0</ele><time>2026-04-26T14:20:36.571Z</time></trkpt><trkpt lat="44.23408" lon="11.8422717"><ele>207.66666666666666</ele><time>2026-04-26T14:20:38.577Z</time></trkpt><trkpt lat="44.23416" lon="11.842395"><ele>208.33333333333331</ele><time>2026-04-26T14:20:40.582Z</time></trkpt><trkpt lat="44.2342083" lon="11.8424533"><ele>209.0</ele><time>2026-04-26T14:20:41.568Z</time></trkpt><trkpt lat="44.2342633" lon="11.8425083"><ele>209.66666666666666</ele><time>2026-04-26T14:20:42.563Z</time></trkpt><trkpt lat="44.234325" lon="11.8425483"><ele>210.33333333333331</ele><time>2026-04-26T14:20:43.568Z</time></trkpt><trkpt lat="44.2343967" lon="11.842565"><ele>211.0</ele><time>2026-04-26T14:20:44.564Z</time></trkpt><trkpt lat="44.2344783" lon="11.8425667"><ele>210.99999999999997</ele><time>2026-04-26T14:20:45.577Z</time></trkpt><trkpt lat="44.23456" lon="11.8425583"><ele>211.0</ele><time>2026-04-26T14:20:46.58Z</time></trkpt><trkpt lat="44.2346417" lon="11.8425517"><ele>211.0</ele><time>2026-04-26T14:20:47.575Z</time></trkpt><trkpt lat="44.2347217" lon="11.8425467"><ele>211.0</ele><time>2026-04-26T14:20:48.581Z</time></trkpt><trkpt lat="44.234805" lon="11.8425467"><ele>210.99999999999997</ele><time>2026-04-26T14:20:49.568Z</time></trkpt><trkpt lat="44.2348867" lon="11.8425533"><ele>211.0</ele><time>2026-04-26T14:20:50.565Z</time></trkpt><trkpt lat="44.2349717" lon="11.8425717"><ele>209.66666666666666</ele><time>2026-04-26T14:20:51.565Z</time></trkpt><trkpt lat="44.2350583" lon="11.8425983"><ele>208.33333333333331</ele><time>2026-04-26T14:20:52.564Z</time></trkpt><trkpt lat="44.235145" lon="11.84263"><ele>207.0</ele><time>2026-04-26T14:20:53.565Z</time></trkpt><trkpt lat="44.2352283" lon="11.84267"><ele>205.66666666666669</ele><time>2026-04-26T14:20:54.565Z</time></trkpt><trkpt lat="44.2353083" lon="11.8427217"><ele>204.33333333333334</ele><time>2026-04-26T14:20:55.572Z</time></trkpt><trkpt lat="44.23538" lon="11.8427883"><ele>203.0</ele><time>2026-04-26T14:20:56.564Z</time></trkpt><trkpt lat="44.23545" lon="11.8428633"><ele>203.00000000000003</ele><time>2026-04-26T14:20:57.581Z</time></trkpt><trkpt lat="44.2355233" lon="11.84295"><ele>203.0</ele><time>2026-04-26T14:20:58.574Z</time></trkpt><trkpt lat="44.2355883" lon="11.843045"><ele>203.0</ele><time>2026-04-26T14:20:59.573Z</time></trkpt><trkpt lat="44.2356383" lon="11.843145"><ele>203.0</ele><time>2026-04-26T14:21:00.567Z</time></trkpt><trkpt lat="44.2356783" lon="11.8432417"><ele>203.00000000000003</ele><time>2026-04-26T14:21:01.573Z</time></trkpt><trkpt lat="44.2357117" lon="11.8433417"><ele>203.0</ele><time>2026-04-26T14:21:02.573Z</time></trkpt><trkpt lat="44.2357317" lon="11.8434567"><ele>204.83333333333334</ele><time>2026-04-26T14:21:03.596Z</time></trkpt><trkpt lat="44.2357467" lon="11.8435733"><ele>206.66666666666669</ele><time>2026-04-26T14:21:04.562Z</time></trkpt><trkpt lat="44.2357533" lon="11.8436933"><ele>208.5</ele><time>2026-04-26T14:21:05.565Z</time></trkpt><trkpt lat="44.2357617" lon="11.8438067"><ele>210.33333333333331</ele><time>2026-04-26T14:21:06.571Z</time></trkpt><trkpt lat="44.23577" lon="11.843925"><ele>212.16666666666666</ele><time>2026-04-26T14:21:07.573Z</time></trkpt><trkpt lat="44.2357833" lon="11.8440717"><ele>214.0</ele><time>2026-04-26T14:21:08.563Z</time></trkpt><trkpt lat="44.2357933" lon="11.84421"><ele>212.79999999999998</ele><time>2026-04-26T14:21:09.569Z</time></trkpt><trkpt lat="44.2357983" lon="11.8443367"><ele>211.59999999999997</ele><time>2026-04-26T14:21:10.564Z</time></trkpt><trkpt lat="44.235805" lon="11.844465"><ele>210.4</ele><time>2026-04-26T14:21:11.57Z</time></trkpt><trkpt lat="44.2358167" lon="11.8446083"><ele>209.2</ele><time>2026-04-26T14:21:12.586Z</time></trkpt><trkpt lat="44.2358383" lon="11.8447417"><ele>208.0</ele><time>2026-04-26T14:21:13.573Z</time></trkpt><trkpt lat="44.235875" lon="11.8448733"><ele>208.0</ele><time>2026-04-26T14:21:14.563Z</time></trkpt><trkpt lat="44.23593" lon="11.845"><ele>208.0</ele><time>2026-04-26T14:21:15.573Z</time></trkpt><trkpt lat="44.2359933" lon="11.8451167"><ele>208.0</ele><time>2026-04-26T14:21:16.569Z</time></trkpt><trkpt lat="44.2360567" lon="11.8452267"><ele>208.0</ele><time>2026-04-26T14:21:17.586Z</time></trkpt><trkpt lat="44.23612" lon="11.8453417"><ele>208.0</ele><time>2026-04-26T14:21:18.583Z</time></trkpt><trkpt lat="44.236185" lon="11.8454483"><ele>206.2</ele><time>2026-04-26T14:21:19.57Z</time></trkpt><trkpt lat="44.23625" lon="11.8455567"><ele>204.4</ele><time>2026-04-26T14:21:20.571Z</time></trkpt><trkpt lat="44.236315" lon="11.8456683"><ele>202.6</ele><time>2026-04-26T14:21:21.566Z</time></trkpt><trkpt lat="44.2363767" lon="11.8457833"><ele>200.79999999999998</ele><time>2026-04-26T14:21:22.56Z</time></trkpt><trkpt lat="44.236435" lon="11.8459067"><ele>199.0</ele><time>2026-04-26T14:21:23.561Z</time></trkpt><trkpt lat="44.2364891" lon="11.8460342"><ele>199.0</ele><time>2026-04-26T14:21:24.576Z</time></trkpt><trkpt lat="44.2365339" lon="11.8461658"><ele>199.0</ele><time>2026-04-26T14:21:25.573Z</time></trkpt><trkpt lat="44.2365754" lon="11.8462955"><ele>199.0</ele><time>2026-04-26T14:21:26.564Z</time></trkpt><trkpt lat="44.2366167" lon="11.846421"><ele>199.0</ele><time>2026-04-26T14:21:27.585Z</time></trkpt><trkpt lat="44.236659" lon="11.8465424"><ele>199.0</ele><time>2026-04-26T14:21:28.583Z</time></trkpt><trkpt lat="44.2366976" lon="11.8466605"><ele>198.99999999999997</ele><time>2026-04-26T14:21:29.58Z</time></trkpt><trkpt lat="44.2367342" lon="11.8467699"><ele>199.0</ele><time>2026-04-26T14:21:30.565Z</time></trkpt><trkpt lat="44.2367711" lon="11.8468678"><ele>199.0</ele><time>2026-04-26T14:21:31.572Z</time></trkpt><trkpt lat="44.2368173" lon="11.846945"><ele>199.0</ele><time>2026-04-26T14:21:32.575Z</time></trkpt><trkpt lat="44.2368775" lon="11.8469988"><ele>198.99999999999997</ele><time>2026-04-26T14:21:33.581Z</time></trkpt><trkpt lat="44.2369467" lon="11.8470457"><ele>199.0</ele><time>2026-04-26T14:21:34.573Z</time></trkpt><trkpt lat="44.2370092" lon="11.8471055"><ele>196.66666666666666</ele><time>2026-04-26T14:21:35.572Z</time></trkpt><trkpt lat="44.2370547" lon="11.8471807"><ele>194.33333333333331</ele><time>2026-04-26T14:21:36.571Z</time></trkpt><trkpt lat="44.2370888" lon="11.8472652"><ele>192.0</ele><time>2026-04-26T14:21:37.561Z</time></trkpt><trkpt lat="44.237121" lon="11.8473575"><ele>189.66666666666666</ele><time>2026-04-26T14:21:38.572Z</time></trkpt><trkpt lat="44.2371503" lon="11.8474542"><ele>187.33333333333331</ele><time>2026-04-26T14:21:39.561Z</time></trkpt><trkpt lat="44.2371817" lon="11.8475567"><ele>185.0</ele><time>2026-04-26T14:21:40.574Z</time></trkpt><trkpt lat="44.2372107" lon="11.8476654"><ele>182.6</ele><time>2026-04-26T14:21:41.576Z</time></trkpt><trkpt lat="44.2372462" lon="11.8477799"><ele>180.2</ele><time>2026-04-26T14:21:42.573Z</time></trkpt><trkpt lat="44.2372871" lon="11.8478999"><ele>177.8</ele><time>2026-04-26T14:21:43.583Z</time></trkpt><trkpt lat="44.2373293" lon="11.8480224"><ele>175.4</ele><time>2026-04-26T14:21:44.567Z</time></trkpt><trkpt lat="44.2373734" lon="11.8481513"><ele>173.0</ele><time>2026-04-26T14:21:45.578Z</time></trkpt><trkpt lat="44.2374125" lon="11.848278"><ele>176.66666666666666</ele><time>2026-04-26T14:21:46.575Z</time></trkpt><trkpt lat="44.2374467" lon="11.8483983"><ele>180.33333333333331</ele><time>2026-04-26T14:21:47.574Z</time></trkpt><trkpt lat="44.2374791" lon="11.8485154"><ele>184.0</ele><time>2026-04-26T14:21:48.573Z</time></trkpt><trkpt lat="44.2375111" lon="11.8486291"><ele>187.66666666666666</ele><time>2026-04-26T14:21:49.566Z</time></trkpt><trkpt lat="44.2375464" lon="11.8487385"><ele>191.33333333333334</ele><time>2026-04-26T14:21:50.571Z</time></trkpt><trkpt lat="44.2375837" lon="11.8488398"><ele>195.0</ele><time>2026-04-26T14:21:51.57Z</time></trkpt><trkpt lat="44.2376247" lon="11.8489358"><ele>195.0</ele><time>2026-04-26T14:21:52.57Z</time></trkpt><trkpt lat="44.2376673" lon="11.8490285"><ele>195.0</ele><time>2026-04-26T14:21:53.566Z</time></trkpt><trkpt lat="44.2377088" lon="11.8491276"><ele>195.0</ele><time>2026-04-26T14:21:54.573Z</time></trkpt><trkpt lat="44.2377487" lon="11.8492349"><ele>195.0</ele><time>2026-04-26T14:21:55.573Z</time></trkpt><trkpt lat="44.2377886" lon="11.849347"><ele>195.0</ele><time>2026-04-26T14:21:56.579Z</time></trkpt><trkpt lat="44.2378309" lon="11.8494626"><ele>195.0</ele><time>2026-04-26T14:21:57.556Z</time></trkpt><trkpt lat="44.237871" lon="11.8495828"><ele>193.6</ele><time>2026-04-26T14:21:58.575Z</time></trkpt><trkpt lat="44.2379116" lon="11.8497059"><ele>192.2</ele><time>2026-04-26T14:21:59.579Z</time></trkpt><trkpt lat="44.2379499" lon="11.8498323"><ele>190.8</ele><time>2026-04-26T14:22:00.569Z</time></trkpt><trkpt lat="44.2379852" lon="11.8499613"><ele>189.4</ele><time>2026-04-26T14:22:01.566Z</time></trkpt><trkpt lat="44.2380189" lon="11.8500907"><ele>188.0</ele><time>2026-04-26T14:22:02.575Z</time></trkpt><trkpt lat="44.2380527" lon="11.8502188"><ele>186.60000000000002</ele><time>2026-04-26T14:22:03.573Z</time></trkpt><trkpt lat="44.238084" lon="11.8503427"><ele>185.20000000000002</ele><time>2026-04-26T14:22:04.585Z</time></trkpt><trkpt lat="44.2381132" lon="11.8504511"><ele>183.8</ele><time>2026-04-26T14:22:05.565Z</time></trkpt><trkpt lat="44.2381404" lon="11.850539"><ele>182.4</ele><time>2026-04-26T14:22:06.575Z</time></trkpt><trkpt lat="44.2382214" lon="11.850648"><ele>181.0</ele><time>2026-04-26T14:22:08.58Z</time></trkpt><trkpt lat="44.2383179" lon="11.8507315"><ele>183.5</ele><time>2026-04-26T14:22:10.563Z</time></trkpt><trkpt lat="44.2383678" lon="11.8507854"><ele>186.0</ele><time>2026-04-26T14:22:11.578Z</time></trkpt><trkpt lat="44.2384181" lon="11.8508442"><ele>188.5</ele><time>2026-04-26T14:22:12.559Z</time></trkpt><trkpt lat="44.238476" lon="11.8509004"><ele>191.0</ele><time>2026-04-26T14:22:13.565Z</time></trkpt><trkpt lat="44.2386034" lon="11.8510194"><ele>193.49999999999997</ele><time>2026-04-26T14:22:15.596Z</time></trkpt><trkpt lat="44.2386674" lon="11.8510904"><ele>196.0</ele><time>2026-04-26T14:22:16.588Z</time></trkpt><trkpt lat="44.2387318" lon="11.8511659"><ele>195.99999999999997</ele><time>2026-04-26T14:22:17.559Z</time></trkpt><trkpt lat="44.2387968" lon="11.8512491"><ele>196.0</ele><time>2026-04-26T14:22:18.556Z</time></trkpt><trkpt lat="44.2388563" lon="11.8513388"><ele>196.0</ele><time>2026-04-26T14:22:19.561Z</time></trkpt><trkpt lat="44.2389077" lon="11.8514325"><ele>196.0</ele><time>2026-04-26T14:22:20.572Z</time></trkpt><trkpt lat="44.2389528" lon="11.8515277"><ele>195.99999999999997</ele><time>2026-04-26T14:22:21.562Z</time></trkpt><trkpt lat="44.2389948" lon="11.8516264"><ele>196.0</ele><time>2026-04-26T14:22:22.568Z</time></trkpt><trkpt lat="44.2390347" lon="11.8517249"><ele>193.99999999999997</ele><time>2026-04-26T14:22:23.564Z</time></trkpt><trkpt lat="44.2390733" lon="11.851822"><ele>192.0</ele><time>2026-04-26T14:22:24.562Z</time></trkpt><trkpt lat="44.2391127" lon="11.8519195"><ele>190.0</ele><time>2026-04-26T14:22:25.568Z</time></trkpt><trkpt lat="44.2391523" lon="11.8520146"><ele>188.0</ele><time>2026-04-26T14:22:26.558Z</time></trkpt><trkpt lat="44.2391889" lon="11.852101"><ele>186.0</ele><time>2026-04-26T14:22:27.566Z</time></trkpt><trkpt lat="44.2392494" lon="11.8522341"><ele>184.0</ele><time>2026-04-26T14:22:29.565Z</time></trkpt><trkpt lat="44.2393239" lon="11.8523147"><ele>184.0</ele><time>2026-04-26T14:22:31.565Z</time></trkpt><trkpt lat="44.2394142" lon="11.8523923"><ele>184.0</ele><time>2026-04-26T14:22:33.563Z</time></trkpt><trkpt lat="44.2395113" lon="11.8524668"><ele>184.0</ele><time>2026-04-26T14:22:35.566Z</time></trkpt><trkpt lat="44.2396213" lon="11.8525451"><ele>184.0</ele><time>2026-04-26T14:22:37.565Z</time></trkpt><trkpt lat="44.2396821" lon="11.8525874"><ele>184.0</ele><time>2026-04-26T14:22:38.562Z</time></trkpt><trkpt lat="44.2397482" lon="11.8526338"><ele>181.5</ele><time>2026-04-26T14:22:39.56Z</time></trkpt><trkpt lat="44.239816" lon="11.8526835"><ele>179.0</ele><time>2026-04-26T14:22:40.567Z</time></trkpt><trkpt lat="44.2398819" lon="11.8527365"><ele>176.5</ele><time>2026-04-26T14:22:41.569Z</time></trkpt><trkpt lat="44.2399481" lon="11.852794"><ele>174.0</ele><time>2026-04-26T14:22:42.635Z</time></trkpt><trkpt lat="44.240015" lon="11.8528497"><ele>171.5</ele><time>2026-04-26T14:22:43.566Z</time></trkpt><trkpt lat="44.2400874" lon="11.8529075"><ele>169.0</ele><time>2026-04-26T14:22:44.566Z</time></trkpt><trkpt lat="44.2401611" lon="11.8529641"><ele>169.0</ele><time>2026-04-26T14:22:45.566Z</time></trkpt><trkpt lat="44.240235" lon="11.8530172"><ele>169.0</ele><time>2026-04-26T14:22:46.566Z</time></trkpt><trkpt lat="44.2403091" lon="11.8530703"><ele>169.0</ele><time>2026-04-26T14:22:47.567Z</time></trkpt><trkpt lat="44.2403838" lon="11.8531158"><ele>169.0</ele><time>2026-04-26T14:22:48.635Z</time></trkpt><trkpt lat="44.2404516" lon="11.85316"><ele>169.0</ele><time>2026-04-26T14:22:49.57Z</time></trkpt><trkpt lat="44.240515" lon="11.8532055"><ele>169.0</ele><time>2026-04-26T14:22:50.57Z</time></trkpt><trkpt lat="44.2405764" lon="11.8532486"><ele>167.71428571428572</ele><time>2026-04-26T14:22:51.558Z</time></trkpt><trkpt lat="44.2406407" lon="11.8532902"><ele>166.42857142857142</ele><time>2026-04-26T14:22:52.56Z</time></trkpt><trkpt lat="44.240704" lon="11.8533317"><ele>165.14285714285714</ele><time>2026-04-26T14:22:53.57Z</time></trkpt><trkpt lat="44.240764" lon="11.8533731"><ele>163.85714285714286</ele><time>2026-04-26T14:22:54.563Z</time></trkpt><trkpt lat="44.2408266" lon="11.853413"><ele>162.57142857142858</ele><time>2026-04-26T14:22:55.589Z</time></trkpt><trkpt lat="44.2408879" lon="11.8534524"><ele>161.28571428571428</ele><time>2026-04-26T14:22:56.58Z</time></trkpt><trkpt lat="44.2409477" lon="11.8534962"><ele>160.0</ele><time>2026-04-26T14:22:57.57Z</time></trkpt><trkpt lat="44.2410025" lon="11.853547"><ele>159.71428571428572</ele><time>2026-04-26T14:22:58.569Z</time></trkpt><trkpt lat="44.2410751" lon="11.8536785"><ele>159.42857142857144</ele><time>2026-04-26T14:23:00.569Z</time></trkpt><trkpt lat="44.2411081" lon="11.853754"><ele>159.14285714285717</ele><time>2026-04-26T14:23:01.568Z</time></trkpt><trkpt lat="44.2411437" lon="11.8538272"><ele>158.85714285714286</ele><time>2026-04-26T14:23:02.569Z</time></trkpt><trkpt lat="44.2411818" lon="11.8539019"><ele>158.57142857142858</ele><time>2026-04-26T14:23:03.57Z</time></trkpt><trkpt lat="44.2412307" lon="11.8539722"><ele>158.2857142857143</ele><time>2026-04-26T14:23:04.569Z</time></trkpt><trkpt lat="44.2412842" lon="11.8540292"><ele>158.0</ele><time>2026-04-26T14:23:05.561Z</time></trkpt><trkpt lat="44.2413411" lon="11.8540792"><ele>158.00000000000003</ele><time>2026-04-26T14:23:06.559Z</time></trkpt><trkpt lat="44.2414003" lon="11.8541271"><ele>158.0</ele><time>2026-04-26T14:23:07.57Z</time></trkpt><trkpt lat="44.2414594" lon="11.8541776"><ele>158.0</ele><time>2026-04-26T14:23:08.574Z</time></trkpt><trkpt lat="44.2415114" lon="11.8542311"><ele>158.0</ele><time>2026-04-26T14:23:09.565Z</time></trkpt><trkpt lat="44.2415559" lon="11.8542936"><ele>158.0</ele><time>2026-04-26T14:23:10.569Z</time></trkpt><trkpt lat="44.241598" lon="11.8543732"><ele>158.00000000000003</ele><time>2026-04-26T14:23:11.567Z</time></trkpt><trkpt lat="44.241641" lon="11.8544689"><ele>158.0</ele><time>2026-04-26T14:23:12.566Z</time></trkpt><trkpt lat="44.2416809" lon="11.8545805"><ele>158.60000000000002</ele><time>2026-04-26T14:23:13.568Z</time></trkpt><trkpt lat="44.2417165" lon="11.8547022"><ele>159.20000000000002</ele><time>2026-04-26T14:23:14.567Z</time></trkpt><trkpt lat="44.2417496" lon="11.8548235"><ele>159.8</ele><time>2026-04-26T14:23:15.564Z</time></trkpt><trkpt lat="44.2417856" lon="11.8549418"><ele>160.4</ele><time>2026-04-26T14:23:16.566Z</time></trkpt><trkpt lat="44.2418225" lon="11.8550617"><ele>161.0</ele><time>2026-04-26T14:23:17.562Z</time></trkpt><trkpt lat="44.2418609" lon="11.8551854"><ele>161.20000000000002</ele><time>2026-04-26T14:23:18.568Z</time></trkpt><trkpt lat="44.2419" lon="11.8553171"><ele>161.4</ele><time>2026-04-26T14:23:19.637Z</time></trkpt><trkpt lat="44.2419389" lon="11.8554452"><ele>161.6</ele><time>2026-04-26T14:23:20.568Z</time></trkpt><trkpt lat="44.241982" lon="11.855586"><ele>161.8</ele><time>2026-04-26T14:23:21.566Z</time></trkpt><trkpt lat="44.2420246" lon="11.8557313"><ele>162.0</ele><time>2026-04-26T14:23:22.568Z</time></trkpt><trkpt lat="44.2420676" lon="11.8558802"><ele>162.0</ele><time>2026-04-26T14:23:23.567Z</time></trkpt><trkpt lat="44.2421114" lon="11.8560335"><ele>162.0</ele><time>2026-04-26T14:23:24.567Z</time></trkpt><trkpt lat="44.2421548" lon="11.8561819"><ele>162.0</ele><time>2026-04-26T14:23:25.566Z</time></trkpt><trkpt lat="44.2421938" lon="11.8563282"><ele>162.0</ele><time>2026-04-26T14:23:26.566Z</time></trkpt><trkpt lat="44.242235" lon="11.8564797"><ele>162.0</ele><time>2026-04-26T14:23:27.567Z</time></trkpt><trkpt lat="44.2422754" lon="11.8566377"><ele>162.0</ele><time>2026-04-26T14:23:28.566Z</time></trkpt><trkpt lat="44.2423172" lon="11.8568009"><ele>162.0</ele><time>2026-04-26T14:23:29.604Z</time></trkpt><trkpt lat="44.2423565" lon="11.8569556"><ele>162.0</ele><time>2026-04-26T14:23:30.564Z</time></trkpt><trkpt lat="44.2423967" lon="11.857104"><ele>164.39999999999998</ele><time>2026-04-26T14:23:31.569Z</time></trkpt><trkpt lat="44.2424269" lon="11.8572431"><ele>166.79999999999998</ele><time>2026-04-26T14:23:32.573Z</time></trkpt><trkpt lat="44.2424433" lon="11.8573804"><ele>169.2</ele><time>2026-04-26T14:23:33.571Z</time></trkpt><trkpt lat="44.2424542" lon="11.8575212"><ele>171.6</ele><time>2026-04-26T14:23:34.566Z</time></trkpt><trkpt lat="44.2424685" lon="11.8576639"><ele>174.0</ele><time>2026-04-26T14:23:35.58Z</time></trkpt><trkpt lat="44.2424875" lon="11.8578011"><ele>174.0</ele><time>2026-04-26T14:23:36.578Z</time></trkpt><trkpt lat="44.2425059" lon="11.8579255"><ele>174.0</ele><time>2026-04-26T14:23:37.56Z</time></trkpt><trkpt lat="44.2425258" lon="11.8580439"><ele>174.0</ele><time>2026-04-26T14:23:38.563Z</time></trkpt><trkpt lat="44.2425488" lon="11.8581617"><ele>174.0</ele><time>2026-04-26T14:23:39.57Z</time></trkpt><trkpt lat="44.2425793" lon="11.8582754"><ele>174.0</ele><time>2026-04-26T14:23:40.57Z</time></trkpt><trkpt lat="44.2426157" lon="11.8583837"><ele>174.0</ele><time>2026-04-26T14:23:41.568Z</time></trkpt><trkpt lat="44.2426529" lon="11.8584887"><ele>171.79999999999998</ele><time>2026-04-26T14:23:42.567Z</time></trkpt><trkpt lat="44.2426935" lon="11.8585944"><ele>169.6</ele><time>2026-04-26T14:23:43.565Z</time></trkpt><trkpt lat="44.2427345" lon="11.8587045"><ele>167.4</ele><time>2026-04-26T14:23:44.564Z</time></trkpt><trkpt lat="44.2427805" lon="11.8588192"><ele>165.2</ele><time>2026-04-26T14:23:45.572Z</time></trkpt><trkpt lat="44.2428368" lon="11.8589271"><ele>163.0</ele><time>2026-04-26T14:23:46.568Z</time></trkpt><trkpt lat="44.2429005" lon="11.8590259"><ele>163.0</ele><time>2026-04-26T14:23:47.565Z</time></trkpt><trkpt lat="44.2429657" lon="11.8591179"><ele>163.0</ele><time>2026-04-26T14:23:48.569Z</time></trkpt><trkpt lat="44.243031" lon="11.8592109"><ele>163.0</ele><time>2026-04-26T14:23:49.568Z</time></trkpt><trkpt lat="44.2430989" lon="11.8592984"><ele>163.0</ele><time>2026-04-26T14:23:50.562Z</time></trkpt><trkpt lat="44.2431651" lon="11.8593881"><ele>163.0</ele><time>2026-04-26T14:23:51.633Z</time></trkpt><trkpt lat="44.2432296" lon="11.8594745"><ele>162.8</ele><time>2026-04-26T14:23:52.566Z</time></trkpt><trkpt lat="44.2432971" lon="11.8595667"><ele>162.60000000000002</ele><time>2026-04-26T14:23:53.567Z</time></trkpt><trkpt lat="44.2433666" lon="11.859659"><ele>162.39999999999998</ele><time>2026-04-26T14:23:54.567Z</time></trkpt><trkpt lat="44.2434344" lon="11.8597496"><ele>162.2</ele><time>2026-04-26T14:23:55.564Z</time></trkpt><trkpt lat="44.2435013" lon="11.8598393"><ele>162.0</ele><time>2026-04-26T14:23:56.563Z</time></trkpt><trkpt lat="44.2435697" lon="11.8599234"><ele>162.0</ele><time>2026-04-26T14:23:57.634Z</time></trkpt><trkpt lat="44.2436362" lon="11.8599918"><ele>162.0</ele><time>2026-04-26T14:23:58.566Z</time></trkpt><trkpt lat="44.2437122" lon="11.8600517"><ele>162.0</ele><time>2026-04-26T14:23:59.566Z</time></trkpt><trkpt lat="44.2437937" lon="11.8600962"><ele>162.0</ele><time>2026-04-26T14:24:00.568Z</time></trkpt><trkpt lat="44.2438812" lon="11.8601319"><ele>162.0</ele><time>2026-04-26T14:24:01.563Z</time></trkpt><trkpt lat="44.2439703" lon="11.8601702"><ele>162.0</ele><time>2026-04-26T14:24:02.563Z</time></trkpt><trkpt lat="44.2440595" lon="11.8602201"><ele>161.4</ele><time>2026-04-26T14:24:03.569Z</time></trkpt><trkpt lat="44.2441495" lon="11.8602817"><ele>160.79999999999998</ele><time>2026-04-26T14:24:04.564Z</time></trkpt><trkpt lat="44.2442403" lon="11.8603486"><ele>160.2</ele><time>2026-04-26T14:24:05.566Z</time></trkpt><trkpt lat="44.2443387" lon="11.8604175"><ele>159.6</ele><time>2026-04-26T14:24:06.563Z</time></trkpt><trkpt lat="44.2444405" lon="11.8604826"><ele>159.0</ele><time>2026-04-26T14:24:07.564Z</time></trkpt><trkpt lat="44.2445425" lon="11.8605423"><ele>159.0</ele><time>2026-04-26T14:24:08.565Z</time></trkpt><trkpt lat="44.2446416" lon="11.8606032"><ele>159.0</ele><time>2026-04-26T14:24:09.566Z</time></trkpt><trkpt lat="44.2447368" lon="11.8606726"><ele>159.0</ele><time>2026-04-26T14:24:10.568Z</time></trkpt><trkpt lat="44.244824" lon="11.8607475"><ele>159.0</ele><time>2026-04-26T14:24:11.562Z</time></trkpt><trkpt lat="44.2449051" lon="11.8608322"><ele>159.0</ele><time>2026-04-26T14:24:12.566Z</time></trkpt><trkpt lat="44.2449705" lon="11.8609282"><ele>156.5</ele><time>2026-04-26T14:24:13.564Z</time></trkpt><trkpt lat="44.2450284" lon="11.8610305"><ele>154.0</ele><time>2026-04-26T14:24:14.566Z</time></trkpt><trkpt lat="44.2450752" lon="11.8611362"><ele>151.5</ele><time>2026-04-26T14:24:15.566Z</time></trkpt><trkpt lat="44.2451133" lon="11.8612411"><ele>149.0</ele><time>2026-04-26T14:24:16.566Z</time></trkpt><trkpt lat="44.2451412" lon="11.8613451"><ele>146.5</ele><time>2026-04-26T14:24:17.562Z</time></trkpt><trkpt lat="44.2451644" lon="11.8614558"><ele>144.0</ele><time>2026-04-26T14:24:18.566Z</time></trkpt><trkpt lat="44.2451868" lon="11.861571"><ele>144.0</ele><time>2026-04-26T14:24:19.571Z</time></trkpt><trkpt lat="44.2452079" lon="11.8616928"><ele>144.0</ele><time>2026-04-26T14:24:20.634Z</time></trkpt><trkpt lat="44.2452188" lon="11.8618152"><ele>144.0</ele><time>2026-04-26T14:24:21.565Z</time></trkpt><trkpt lat="44.2452218" lon="11.861948"><ele>144.0</ele><time>2026-04-26T14:24:22.562Z</time></trkpt><trkpt lat="44.2452214" lon="11.8620849"><ele>144.0</ele><time>2026-04-26T14:24:23.565Z</time></trkpt><trkpt lat="44.2452205" lon="11.8622209"><ele>142.8</ele><time>2026-04-26T14:24:24.568Z</time></trkpt><trkpt lat="44.2452205" lon="11.8623596"><ele>141.60000000000002</ele><time>2026-04-26T14:24:25.57Z</time></trkpt><trkpt lat="44.245223" lon="11.8625012"><ele>140.4</ele><time>2026-04-26T14:24:26.566Z</time></trkpt><trkpt lat="44.2452251" lon="11.8626423"><ele>139.20000000000002</ele><time>2026-04-26T14:24:27.569Z</time></trkpt><trkpt lat="44.2452313" lon="11.8627846"><ele>138.0</ele><time>2026-04-26T14:24:28.564Z</time></trkpt><trkpt lat="44.2452399" lon="11.8629276"><ele>137.4</ele><time>2026-04-26T14:24:29.564Z</time></trkpt><trkpt lat="44.2452489" lon="11.8630698"><ele>136.8</ele><time>2026-04-26T14:24:30.569Z</time></trkpt><trkpt lat="44.2452618" lon="11.863213"><ele>136.2</ele><time>2026-04-26T14:24:31.565Z</time></trkpt><trkpt lat="44.2452787" lon="11.8633608"><ele>135.6</ele><time>2026-04-26T14:24:32.566Z</time></trkpt><trkpt lat="44.2452987" lon="11.8635052"><ele>135.0</ele><time>2026-04-26T14:24:33.565Z</time></trkpt><trkpt lat="44.2453203" lon="11.8636467"><ele>134.0</ele><time>2026-04-26T14:24:34.567Z</time></trkpt><trkpt lat="44.2453466" lon="11.863781"><ele>133.0</ele><time>2026-04-26T14:24:35.564Z</time></trkpt><trkpt lat="44.245375" lon="11.8639155"><ele>132.0</ele><time>2026-04-26T14:24:36.567Z</time></trkpt><trkpt lat="44.2454002" lon="11.8640472"><ele>131.0</ele><time>2026-04-26T14:24:37.568Z</time></trkpt><trkpt lat="44.245427" lon="11.8641746"><ele>130.0</ele><time>2026-04-26T14:24:38.626Z</time></trkpt><trkpt lat="44.2454514" lon="11.8642882"><ele>130.16666666666669</ele><time>2026-04-26T14:24:39.561Z</time></trkpt><trkpt lat="44.2454783" lon="11.8643971"><ele>130.33333333333334</ele><time>2026-04-26T14:24:40.566Z</time></trkpt><trkpt lat="44.2455064" lon="11.8644934"><ele>130.5</ele><time>2026-04-26T14:24:41.567Z</time></trkpt><trkpt lat="44.2455375" lon="11.8645773"><ele>130.66666666666666</ele><time>2026-04-26T14:24:42.566Z</time></trkpt><trkpt lat="44.2456052" lon="11.8646747"><ele>130.83333333333331</ele><time>2026-04-26T14:24:44.567Z</time></trkpt><trkpt lat="44.2456673" lon="11.864634"><ele>131.0</ele><time>2026-04-26T14:24:46.567Z</time></trkpt><trkpt lat="44.2456723" lon="11.864485"><ele>131.0</ele><time>2026-04-26T14:24:48.568Z</time></trkpt><trkpt lat="44.2456677" lon="11.8643821"><ele>131.0</ele><time>2026-04-26T14:24:49.569Z</time></trkpt><trkpt lat="44.2456687" lon="11.8642625"><ele>131.0</ele><time>2026-04-26T14:24:50.568Z</time></trkpt><trkpt lat="44.245673" lon="11.8641308"><ele>131.0</ele><time>2026-04-26T14:24:51.565Z</time></trkpt><trkpt lat="44.2456849" lon="11.8639932"><ele>131.0</ele><time>2026-04-26T14:24:52.565Z</time></trkpt><trkpt lat="44.2457081" lon="11.8638581"><ele>130.4</ele><time>2026-04-26T14:24:53.563Z</time></trkpt><trkpt lat="44.2457396" lon="11.8637284"><ele>129.8</ele><time>2026-04-26T14:24:54.572Z</time></trkpt><trkpt lat="44.2457804" lon="11.8636123"><ele>129.20000000000002</ele><time>2026-04-26T14:24:55.567Z</time></trkpt><trkpt lat="44.2458288" lon="11.8635031"><ele>128.6</ele><time>2026-04-26T14:24:56.57Z</time></trkpt><trkpt lat="44.2458821" lon="11.8634002"><ele>128.0</ele><time>2026-04-26T14:24:57.566Z</time></trkpt><trkpt lat="44.2459354" lon="11.8632991"><ele>127.60000000000001</ele><time>2026-04-26T14:24:58.569Z</time></trkpt><trkpt lat="44.2459918" lon="11.8631969"><ele>127.20000000000002</ele><time>2026-04-26T14:24:59.565Z</time></trkpt><trkpt lat="44.2460547" lon="11.8630937"><ele>126.8</ele><time>2026-04-26T14:25:00.566Z</time></trkpt><trkpt lat="44.2461174" lon="11.8629929"><ele>126.4</ele><time>2026-04-26T14:25:01.565Z</time></trkpt><trkpt lat="44.2461821" lon="11.8628914"><ele>126.0</ele><time>2026-04-26T14:25:02.565Z</time></trkpt><trkpt lat="44.2462431" lon="11.8627944"><ele>126.0</ele><time>2026-04-26T14:25:03.562Z</time></trkpt><trkpt lat="44.2463073" lon="11.8626967"><ele>126.0</ele><time>2026-04-26T14:25:04.565Z</time></trkpt><trkpt lat="44.2463763" lon="11.8626059"><ele>126.0</ele><time>2026-04-26T14:25:05.564Z</time></trkpt><trkpt lat="44.2464467" lon="11.8625253"><ele>126.0</ele><time>2026-04-26T14:25:06.566Z</time></trkpt><trkpt lat="44.2465144" lon="11.8624593"><ele>126.0</ele><time>2026-04-26T14:25:07.635Z</time></trkpt><trkpt lat="44.2465733" lon="11.862415"><ele>126.0</ele><time>2026-04-26T14:25:08.572Z</time></trkpt><trkpt lat="44.2466816" lon="11.8623359"><ele>123.19999999999999</ele><time>2026-04-26T14:25:10.566Z</time></trkpt><trkpt lat="44.246775" lon="11.8622265"><ele>120.39999999999999</ele><time>2026-04-26T14:25:12.569Z</time></trkpt><trkpt lat="44.2468234" lon="11.8620886"><ele>117.6</ele><time>2026-04-26T14:25:14.572Z</time></trkpt><trkpt lat="44.2468247" lon="11.8619934"><ele>114.8</ele><time>2026-04-26T14:25:15.566Z</time></trkpt><trkpt lat="44.2468149" lon="11.8618821"><ele>112.0</ele><time>2026-04-26T14:25:16.573Z</time></trkpt><trkpt lat="44.2468031" lon="11.8617577"><ele>112.0</ele><time>2026-04-26T14:25:17.572Z</time></trkpt><trkpt lat="44.2467876" lon="11.8616211"><ele>111.99999999999999</ele><time>2026-04-26T14:25:18.573Z</time></trkpt><trkpt lat="44.2467811" lon="11.8614737"><ele>111.99999999999999</ele><time>2026-04-26T14:25:19.565Z</time></trkpt><trkpt lat="44.2467778" lon="11.8613229"><ele>112.0</ele><time>2026-04-26T14:25:20.566Z</time></trkpt><trkpt lat="44.2467763" lon="11.861169"><ele>112.0</ele><time>2026-04-26T14:25:21.558Z</time></trkpt><trkpt lat="44.2467784" lon="11.8610187"><ele>111.0</ele><time>2026-04-26T14:25:22.576Z</time></trkpt><trkpt lat="44.2467874" lon="11.8608777"><ele>109.99999999999999</ele><time>2026-04-26T14:25:23.567Z</time></trkpt><trkpt lat="44.2467925" lon="11.8607272"><ele>108.99999999999999</ele><time>2026-04-26T14:25:24.566Z</time></trkpt><trkpt lat="44.2467976" lon="11.8605788"><ele>108.0</ele><time>2026-04-26T14:25:25.565Z</time></trkpt><trkpt lat="44.2468064" lon="11.8604335"><ele>107.0</ele><time>2026-04-26T14:25:26.565Z</time></trkpt><trkpt lat="44.2468186" lon="11.8602973"><ele>106.99999999999999</ele><time>2026-04-26T14:25:27.564Z</time></trkpt><trkpt lat="44.2468283" lon="11.8601672"><ele>107.0</ele><time>2026-04-26T14:25:28.572Z</time></trkpt><trkpt lat="44.2468385" lon="11.8600477"><ele>107.0</ele><time>2026-04-26T14:25:29.564Z</time></trkpt><trkpt lat="44.24685" lon="11.8599316"><ele>107.0</ele><time>2026-04-26T14:25:30.579Z</time></trkpt><trkpt lat="44.2468704" lon="11.8598279"><ele>106.99999999999999</ele><time>2026-04-26T14:25:31.566Z</time></trkpt><trkpt lat="44.2469091" lon="11.8597305"><ele>107.0</ele><time>2026-04-26T14:25:32.564Z</time></trkpt><trkpt lat="44.2469675" lon="11.8596517"><ele>106.0</ele><time>2026-04-26T14:25:33.564Z</time></trkpt><trkpt lat="44.2470467" lon="11.8595998"><ele>104.99999999999999</ele><time>2026-04-26T14:25:34.568Z</time></trkpt><trkpt lat="44.2471388" lon="11.8595585"><ele>104.0</ele><time>2026-04-26T14:25:35.566Z</time></trkpt><trkpt lat="44.2472392" lon="11.8595166"><ele>103.0</ele><time>2026-04-26T14:25:36.564Z</time></trkpt><trkpt lat="44.2473461" lon="11.8594639"><ele>102.0</ele><time>2026-04-26T14:25:37.635Z</time></trkpt><trkpt lat="44.2474529" lon="11.859413"><ele>99.0</ele><time>2026-04-26T14:25:38.645Z</time></trkpt><trkpt lat="44.2475631" lon="11.8593628"><ele>96.0</ele><time>2026-04-26T14:25:39.565Z</time></trkpt><trkpt lat="44.2476807" lon="11.8593058"><ele>93.0</ele><time>2026-04-26T14:25:40.566Z</time></trkpt><trkpt lat="44.2478013" lon="11.859247"><ele>90.0</ele><time>2026-04-26T14:25:41.57Z</time></trkpt><trkpt lat="44.247926" lon="11.8591883"><ele>90.0</ele><time>2026-04-26T14:25:42.57Z</time></trkpt><trkpt lat="44.2480501" lon="11.8591274"><ele>90.0</ele><time>2026-04-26T14:25:43.567Z</time></trkpt><trkpt lat="44.2481738" lon="11.8590613"><ele>90.0</ele><time>2026-04-26T14:25:44.568Z</time></trkpt><trkpt lat="44.2482974" lon="11.8589917"><ele>90.0</ele><time>2026-04-26T14:25:45.566Z</time></trkpt><trkpt lat="44.2484225" lon="11.8589244"><ele>88.75</ele><time>2026-04-26T14:25:46.566Z</time></trkpt><trkpt lat="44.24855" lon="11.8588576"><ele>87.5</ele><time>2026-04-26T14:25:47.561Z</time></trkpt><trkpt lat="44.2486786" lon="11.8587916"><ele>86.25</ele><time>2026-04-26T14:25:48.569Z</time></trkpt><trkpt lat="44.2488026" lon="11.8587341"><ele>85.0</ele><time>2026-04-26T14:25:49.563Z</time></trkpt><trkpt lat="44.2489205" lon="11.8586778"><ele>84.6</ele><time>2026-04-26T14:25:50.563Z</time></trkpt><trkpt lat="44.2490327" lon="11.8586187"><ele>84.2</ele><time>2026-04-26T14:25:51.565Z</time></trkpt><trkpt lat="44.2491413" lon="11.8585626"><ele>83.80000000000001</ele><time>2026-04-26T14:25:52.633Z</time></trkpt><trkpt lat="44.2492406" lon="11.8585156"><ele>83.4</ele><time>2026-04-26T14:25:53.566Z</time></trkpt><trkpt lat="44.2493374" lon="11.8584736"><ele>83.0</ele><time>2026-04-26T14:25:54.569Z</time></trkpt><trkpt lat="44.2494292" lon="11.8584349"><ele>83.0</ele><time>2026-04-26T14:25:55.568Z</time></trkpt><trkpt lat="44.2495192" lon="11.8584043"><ele>83.0</ele><time>2026-04-26T14:25:56.565Z</time></trkpt><trkpt lat="44.2496133" lon="11.8583874"><ele>83.0</ele><time>2026-04-26T14:25:57.572Z</time></trkpt><trkpt lat="44.2497108" lon="11.8583876"><ele>83.0</ele><time>2026-04-26T14:25:58.631Z</time></trkpt><trkpt lat="44.2498086" lon="11.8584145"><ele>83.0</ele><time>2026-04-26T14:25:59.566Z</time></trkpt><trkpt lat="44.2499171" lon="11.8584635"><ele>82.75</ele><time>2026-04-26T14:26:00.57Z</time></trkpt><trkpt lat="44.2500267" lon="11.858514"><ele>82.5</ele><time>2026-04-26T14:26:01.569Z</time></trkpt><trkpt lat="44.2501463" lon="11.8585601"><ele>82.25</ele><time>2026-04-26T14:26:02.565Z</time></trkpt><trkpt lat="44.2502715" lon="11.8586045"><ele>82.0</ele><time>2026-04-26T14:26:03.566Z</time></trkpt><trkpt lat="44.2503976" lon="11.8586564"><ele>82.0</ele><time>2026-04-26T14:26:04.565Z</time></trkpt><trkpt lat="44.250521" lon="11.858719"><ele>82.0</ele><time>2026-04-26T14:26:05.567Z</time></trkpt><trkpt lat="44.2506427" lon="11.8587978"><ele>82.0</ele><time>2026-04-26T14:26:06.566Z</time></trkpt><trkpt lat="44.250763" lon="11.8588893"><ele>82.0</ele><time>2026-04-26T14:26:07.566Z</time></trkpt><trkpt lat="44.2508833" lon="11.8589872"><ele>81.25</ele><time>2026-04-26T14:26:08.57Z</time></trkpt><trkpt lat="44.2510058" lon="11.8590904"><ele>80.5</ele><time>2026-04-26T14:26:09.565Z</time></trkpt><trkpt lat="44.2511292" lon="11.8591965"><ele>79.75</ele><time>2026-04-26T14:26:10.564Z</time></trkpt><trkpt lat="44.2512529" lon="11.8593093"><ele>79.0</ele><time>2026-04-26T14:26:11.566Z</time></trkpt><trkpt lat="44.2513761" lon="11.859425"><ele>78.0</ele><time>2026-04-26T14:26:12.562Z</time></trkpt><trkpt lat="44.2514971" lon="11.8595456"><ele>77.0</ele><time>2026-04-26T14:26:13.566Z</time></trkpt><trkpt lat="44.2516174" lon="11.8596704"><ele>76.0</ele><time>2026-04-26T14:26:14.568Z</time></trkpt><trkpt lat="44.2517402" lon="11.8597925"><ele>75.0</ele><time>2026-04-26T14:26:15.566Z</time></trkpt><trkpt lat="44.2518665" lon="11.8599154"><ele>75.0</ele><time>2026-04-26T14:26:16.565Z</time></trkpt><trkpt lat="44.251992" lon="11.8600412"><ele>75.0</ele><time>2026-04-26T14:26:17.562Z</time></trkpt><trkpt lat="44.2521158" lon="11.8601727"><ele>75.0</ele><time>2026-04-26T14:26:18.567Z</time></trkpt><trkpt lat="44.2522386" lon="11.8603108"><ele>74.33333333333333</ele><time>2026-04-26T14:26:19.567Z</time></trkpt><trkpt lat="44.2523619" lon="11.8604497"><ele>73.66666666666666</ele><time>2026-04-26T14:26:20.567Z</time></trkpt><trkpt lat="44.2524867" lon="11.8605811"><ele>73.0</ele><time>2026-04-26T14:26:21.561Z</time></trkpt><trkpt lat="44.252616" lon="11.8607084"><ele>73.0</ele><time>2026-04-26T14:26:22.633Z</time></trkpt><trkpt lat="44.252741" lon="11.8608291"><ele>73.0</ele><time>2026-04-26T14:26:23.562Z</time></trkpt><trkpt lat="44.2528686" lon="11.8609638"><ele>73.0</ele><time>2026-04-26T14:26:24.567Z</time></trkpt><trkpt lat="44.2529921" lon="11.8611008"><ele>72.66666666666666</ele><time>2026-04-26T14:26:25.561Z</time></trkpt><trkpt lat="44.2531146" lon="11.861243"><ele>72.33333333333333</ele><time>2026-04-26T14:26:26.569Z</time></trkpt><trkpt lat="44.2532335" lon="11.8613892"><ele>72.0</ele><time>2026-04-26T14:26:27.566Z</time></trkpt><trkpt lat="44.2533495" lon="11.8615402"><ele>72.0</ele><time>2026-04-26T14:26:28.63Z</time></trkpt><trkpt lat="44.2534499" lon="11.8616836"><ele>72.0</ele><time>2026-04-26T14:26:29.562Z</time></trkpt><trkpt lat="44.253545" lon="11.8618311"><ele>72.0</ele><time>2026-04-26T14:26:30.569Z</time></trkpt><trkpt lat="44.2536343" lon="11.8619732"><ele>72.0</ele><time>2026-04-26T14:26:31.565Z</time></trkpt><trkpt lat="44.2537287" lon="11.8621059"><ele>72.0</ele><time>2026-04-26T14:26:32.566Z</time></trkpt><trkpt lat="44.253833" lon="11.8622265"><ele>72.0</ele><time>2026-04-26T14:26:33.566Z</time></trkpt><trkpt lat="44.2539448" lon="11.8623432"><ele>72.0</ele><time>2026-04-26T14:26:34.631Z</time></trkpt><trkpt lat="44.2540533" lon="11.8624526"><ele>72.0</ele><time>2026-04-26T14:26:35.564Z</time></trkpt><trkpt lat="44.2541665" lon="11.862564"><ele>71.0</ele><time>2026-04-26T14:26:36.564Z</time></trkpt><trkpt lat="44.2542792" lon="11.8626654"><ele>70.0</ele><time>2026-04-26T14:26:37.567Z</time></trkpt><trkpt lat="44.25439" lon="11.8627589"><ele>69.0</ele><time>2026-04-26T14:26:38.563Z</time></trkpt><trkpt lat="44.2545027" lon="11.862839"><ele>68.0</ele><time>2026-04-26T14:26:39.566Z</time></trkpt><trkpt lat="44.2546192" lon="11.8629075"><ele>68.0</ele><time>2026-04-26T14:26:40.623Z</time></trkpt><trkpt lat="44.2547355" lon="11.8629546"><ele>68.0</ele><time>2026-04-26T14:26:41.564Z</time></trkpt><trkpt lat="44.2548595" lon="11.8629782"><ele>68.0</ele><time>2026-04-26T14:26:42.559Z</time></trkpt><trkpt lat="44.2549793" lon="11.8629872"><ele>68.0</ele><time>2026-04-26T14:26:43.56Z</time></trkpt><trkpt lat="44.255091" lon="11.8630027"><ele>67.6</ele><time>2026-04-26T14:26:44.566Z</time></trkpt><trkpt lat="44.2551964" lon="11.863038"><ele>67.19999999999999</ele><time>2026-04-26T14:26:45.566Z</time></trkpt><trkpt lat="44.2552902" lon="11.8631026"><ele>66.8</ele><time>2026-04-26T14:26:46.562Z</time></trkpt><trkpt lat="44.2553696" lon="11.8632"><ele>66.39999999999999</ele><time>2026-04-26T14:26:47.563Z</time></trkpt><trkpt lat="44.2554421" lon="11.863321"><ele>66.0</ele><time>2026-04-26T14:26:48.565Z</time></trkpt><trkpt lat="44.2555185" lon="11.8634484"><ele>66.0</ele><time>2026-04-26T14:26:49.565Z</time></trkpt><trkpt lat="44.255604" lon="11.8635736"><ele>66.0</ele><time>2026-04-26T14:26:50.565Z</time></trkpt><trkpt lat="44.2556971" lon="11.8636956"><ele>66.0</ele><time>2026-04-26T14:26:51.565Z</time></trkpt><trkpt lat="44.2557918" lon="11.8638165"><ele>66.0</ele><time>2026-04-26T14:26:52.632Z</time></trkpt><trkpt lat="44.2558807" lon="11.8639299"><ele>66.25</ele><time>2026-04-26T14:26:53.566Z</time></trkpt><trkpt lat="44.2559731" lon="11.8640505"><ele>66.5</ele><time>2026-04-26T14:26:54.564Z</time></trkpt><trkpt lat="44.256061" lon="11.8641752"><ele>66.75</ele><time>2026-04-26T14:26:55.566Z</time></trkpt><trkpt lat="44.2561528" lon="11.8642969"><ele>67.0</ele><time>2026-04-26T14:26:56.572Z</time></trkpt><trkpt lat="44.2562449" lon="11.8644178"><ele>66.75</ele><time>2026-04-26T14:26:57.568Z</time></trkpt><trkpt lat="44.2563414" lon="11.8645454"><ele>66.5</ele><time>2026-04-26T14:26:58.632Z</time></trkpt><trkpt lat="44.2564312" lon="11.8646698"><ele>66.25</ele><time>2026-04-26T14:26:59.564Z</time></trkpt><trkpt lat="44.256525" lon="11.864804"><ele>66.0</ele><time>2026-04-26T14:27:00.561Z</time></trkpt><trkpt lat="44.2566183" lon="11.8649416"><ele>66.0</ele><time>2026-04-26T14:27:01.566Z</time></trkpt><trkpt lat="44.2567101" lon="11.8650832"><ele>66.0</ele><time>2026-04-26T14:27:02.565Z</time></trkpt><trkpt lat="44.2568003" lon="11.8652282"><ele>66.0</ele><time>2026-04-26T14:27:03.564Z</time></trkpt><trkpt lat="44.256893" lon="11.8653738"><ele>66.0</ele><time>2026-04-26T14:27:04.634Z</time></trkpt><trkpt lat="44.2569787" lon="11.8655025"><ele>65.5</ele><time>2026-04-26T14:27:05.562Z</time></trkpt><trkpt lat="44.2570672" lon="11.8656298"><ele>65.0</ele><time>2026-04-26T14:27:06.568Z</time></trkpt><trkpt lat="44.257155" lon="11.8657485"><ele>64.5</ele><time>2026-04-26T14:27:07.564Z</time></trkpt><trkpt lat="44.2572391" lon="11.8658615"><ele>64.0</ele><time>2026-04-26T14:27:08.569Z</time></trkpt><trkpt lat="44.2573192" lon="11.8659707"><ele>63.2</ele><time>2026-04-26T14:27:09.57Z</time></trkpt><trkpt lat="44.2573953" lon="11.8660851"><ele>62.400000000000006</ele><time>2026-04-26T14:27:10.633Z</time></trkpt><trkpt lat="44.2574576" lon="11.8662032"><ele>61.6</ele><time>2026-04-26T14:27:11.564Z</time></trkpt><trkpt lat="44.2575177" lon="11.8663347"><ele>60.8</ele><time>2026-04-26T14:27:12.568Z</time></trkpt><trkpt lat="44.2575729" lon="11.8664713"><ele>60.0</ele><time>2026-04-26T14:27:13.563Z</time></trkpt><trkpt lat="44.2576316" lon="11.8666075"><ele>60.0</ele><time>2026-04-26T14:27:14.565Z</time></trkpt><trkpt lat="44.2576961" lon="11.8667414"><ele>60.0</ele><time>2026-04-26T14:27:15.571Z</time></trkpt><trkpt lat="44.2577627" lon="11.8668741"><ele>60.0</ele><time>2026-04-26T14:27:16.561Z</time></trkpt><trkpt lat="44.2578316" lon="11.8670079"><ele>60.0</ele><time>2026-04-26T14:27:17.568Z</time></trkpt><trkpt lat="44.2579006" lon="11.8671412"><ele>60.0</ele><time>2026-04-26T14:27:18.57Z</time></trkpt><trkpt lat="44.2579703" lon="11.8672731"><ele>60.0</ele><time>2026-04-26T14:27:19.566Z</time></trkpt><trkpt lat="44.2580405" lon="11.8674079"><ele>60.0</ele><time>2026-04-26T14:27:20.568Z</time></trkpt><trkpt lat="44.2581129" lon="11.8675444"><ele>60.0</ele><time>2026-04-26T14:27:21.56Z</time></trkpt><trkpt lat="44.2581893" lon="11.8676845"><ele>60.0</ele><time>2026-04-26T14:27:22.634Z</time></trkpt><trkpt lat="44.2582632" lon="11.8678194"><ele>60.0</ele><time>2026-04-26T14:27:23.566Z</time></trkpt><trkpt lat="44.2583396" lon="11.867962"><ele>60.0</ele><time>2026-04-26T14:27:24.563Z</time></trkpt><trkpt lat="44.258415" lon="11.8681045"><ele>60.0</ele><time>2026-04-26T14:27:25.564Z</time></trkpt><trkpt lat="44.2584915" lon="11.868248"><ele>60.0</ele><time>2026-04-26T14:27:26.568Z</time></trkpt><trkpt lat="44.2585683" lon="11.8683927"><ele>60.0</ele><time>2026-04-26T14:27:27.568Z</time></trkpt><trkpt lat="44.2586453" lon="11.8685415"><ele>60.0</ele><time>2026-04-26T14:27:28.629Z</time></trkpt><trkpt lat="44.2587207" lon="11.8686866"><ele>60.0</ele><time>2026-04-26T14:27:29.564Z</time></trkpt><trkpt lat="44.2587985" lon="11.868834"><ele>60.0</ele><time>2026-04-26T14:27:30.567Z</time></trkpt><trkpt lat="44.2588781" lon="11.8689741"><ele>60.0</ele><time>2026-04-26T14:27:31.567Z</time></trkpt><trkpt lat="44.2589581" lon="11.8691151"><ele>60.0</ele><time>2026-04-26T14:27:32.564Z</time></trkpt><trkpt lat="44.2590369" lon="11.8692538"><ele>60.0</ele><time>2026-04-26T14:27:33.563Z</time></trkpt><trkpt lat="44.259115" lon="11.8693962"><ele>59.5</ele><time>2026-04-26T14:27:34.633Z</time></trkpt><trkpt lat="44.2591838" lon="11.8695312"><ele>59.0</ele><time>2026-04-26T14:27:35.565Z</time></trkpt><trkpt lat="44.2592544" lon="11.869664"><ele>58.5</ele><time>2026-04-26T14:27:36.565Z</time></trkpt><trkpt lat="44.2593229" lon="11.869792"><ele>58.0</ele><time>2026-04-26T14:27:37.566Z</time></trkpt><trkpt lat="44.2593923" lon="11.8699158"><ele>58.0</ele><time>2026-04-26T14:27:38.57Z</time></trkpt><trkpt lat="44.2594576" lon="11.870033"><ele>58.0</ele><time>2026-04-26T14:27:39.566Z</time></trkpt><trkpt lat="44.2595207" lon="11.8701423"><ele>58.0</ele><time>2026-04-26T14:27:40.566Z</time></trkpt><trkpt lat="44.2595813" lon="11.8702485"><ele>58.0</ele><time>2026-04-26T14:27:41.571Z</time></trkpt><trkpt lat="44.2596435" lon="11.8703583"><ele>58.0</ele><time>2026-04-26T14:27:42.564Z</time></trkpt><trkpt lat="44.2597041" lon="11.8704714"><ele>57.8</ele><time>2026-04-26T14:27:43.563Z</time></trkpt><trkpt lat="44.2597669" lon="11.8705905"><ele>57.599999999999994</ele><time>2026-04-26T14:27:44.566Z</time></trkpt><trkpt lat="44.2598328" lon="11.8707122"><ele>57.400000000000006</ele><time>2026-04-26T14:27:45.565Z</time></trkpt><trkpt lat="44.2598988" lon="11.8708401"><ele>57.2</ele><time>2026-04-26T14:27:46.625Z</time></trkpt><trkpt lat="44.2599651" lon="11.8709612"><ele>57.0</ele><time>2026-04-26T14:27:47.567Z</time></trkpt><trkpt lat="44.2600383" lon="11.8710875"><ele>56.25</ele><time>2026-04-26T14:27:48.563Z</time></trkpt><trkpt lat="44.2601137" lon="11.8712129"><ele>55.5</ele><time>2026-04-26T14:27:49.565Z</time></trkpt><trkpt lat="44.260193" lon="11.8713355"><ele>54.75</ele><time>2026-04-26T14:27:50.562Z</time></trkpt><trkpt lat="44.2602738" lon="11.8714611"><ele>54.0</ele><time>2026-04-26T14:27:51.565Z</time></trkpt><trkpt lat="44.2603614" lon="11.871583"><ele>54.0</ele><time>2026-04-26T14:27:52.566Z</time></trkpt><trkpt lat="44.2604545" lon="11.8717027"><ele>54.0</ele><time>2026-04-26T14:27:53.566Z</time></trkpt><trkpt lat="44.2605525" lon="11.8718186"><ele>54.0</ele><time>2026-04-26T14:27:54.567Z</time></trkpt><trkpt lat="44.2606543" lon="11.8719334"><ele>54.0</ele><time>2026-04-26T14:27:55.566Z</time></trkpt><trkpt lat="44.2607594" lon="11.8720432"><ele>53.25</ele><time>2026-04-26T14:27:56.568Z</time></trkpt><trkpt lat="44.2608636" lon="11.8721537"><ele>52.5</ele><time>2026-04-26T14:27:57.567Z</time></trkpt><trkpt lat="44.2609683" lon="11.872261"><ele>51.75</ele><time>2026-04-26T14:27:58.567Z</time></trkpt><trkpt lat="44.261072" lon="11.8723696"><ele>51.0</ele><time>2026-04-26T14:27:59.565Z</time></trkpt><trkpt lat="44.2611755" lon="11.8724795"><ele>51.0</ele><time>2026-04-26T14:28:00.569Z</time></trkpt><trkpt lat="44.2612801" lon="11.8725821"><ele>51.0</ele><time>2026-04-26T14:28:01.565Z</time></trkpt><trkpt lat="44.261391" lon="11.8726713"><ele>51.0</ele><time>2026-04-26T14:28:02.567Z</time></trkpt><trkpt lat="44.2615056" lon="11.8727468"><ele>51.0</ele><time>2026-04-26T14:28:03.567Z</time></trkpt><trkpt lat="44.2616218" lon="11.8728086"><ele>49.5</ele><time>2026-04-26T14:28:04.632Z</time></trkpt><trkpt lat="44.2617331" lon="11.8728566"><ele>48.0</ele><time>2026-04-26T14:28:05.568Z</time></trkpt><trkpt lat="44.2618492" lon="11.8729"><ele>46.5</ele><time>2026-04-26T14:28:06.564Z</time></trkpt><trkpt lat="44.2619648" lon="11.8729426"><ele>45.0</ele><time>2026-04-26T14:28:07.571Z</time></trkpt><trkpt lat="44.2620772" lon="11.8729859"><ele>45.0</ele><time>2026-04-26T14:28:08.572Z</time></trkpt><trkpt lat="44.2621874" lon="11.8730345"><ele>45.0</ele><time>2026-04-26T14:28:09.568Z</time></trkpt><trkpt lat="44.2622985" lon="11.8730828"><ele>45.0</ele><time>2026-04-26T14:28:10.566Z</time></trkpt><trkpt lat="44.2624101" lon="11.8731321"><ele>45.0</ele><time>2026-04-26T14:28:11.568Z</time></trkpt><trkpt lat="44.2625202" lon="11.8731892"><ele>45.5</ele><time>2026-04-26T14:28:12.566Z</time></trkpt><trkpt lat="44.2626315" lon="11.8732565"><ele>46.0</ele><time>2026-04-26T14:28:13.566Z</time></trkpt><trkpt lat="44.2627404" lon="11.8733329"><ele>46.5</ele><time>2026-04-26T14:28:14.565Z</time></trkpt><trkpt lat="44.2628472" lon="11.8734135"><ele>47.0</ele><time>2026-04-26T14:28:15.566Z</time></trkpt><trkpt lat="44.2629466" lon="11.8734943"><ele>46.8</ele><time>2026-04-26T14:28:16.564Z</time></trkpt><trkpt lat="44.2630438" lon="11.8735711"><ele>46.6</ele><time>2026-04-26T14:28:17.564Z</time></trkpt><trkpt lat="44.2631351" lon="11.8736471"><ele>46.4</ele><time>2026-04-26T14:28:18.573Z</time></trkpt><trkpt lat="44.2632226" lon="11.8737221"><ele>46.199999999999996</ele><time>2026-04-26T14:28:19.566Z</time></trkpt><trkpt lat="44.2632959" lon="11.873797"><ele>46.0</ele><time>2026-04-26T14:28:20.57Z</time></trkpt><trkpt lat="44.2633498" lon="11.8738744"><ele>46.0</ele><time>2026-04-26T14:28:21.566Z</time></trkpt><trkpt lat="44.263387" lon="11.8739509"><ele>46.0</ele><time>2026-04-26T14:28:22.567Z</time></trkpt><trkpt lat="44.2634342" lon="11.8740659"><ele>46.0</ele><time>2026-04-26T14:28:24.565Z</time></trkpt><trkpt lat="44.2635523" lon="11.8741274"><ele>46.0</ele><time>2026-04-26T14:28:32.565Z</time></trkpt><trkpt lat="44.2636388" lon="11.8741244"><ele>46.0</ele><time>2026-04-26T14:28:33.564Z</time></trkpt><trkpt lat="44.2637353" lon="11.8741073"><ele>46.0</ele><time>2026-04-26T14:28:34.564Z</time></trkpt><trkpt lat="44.2638347" lon="11.8740846"><ele>46.0</ele><time>2026-04-26T14:28:35.564Z</time></trkpt><trkpt lat="44.2639359" lon="11.8740635"><ele>46.0</ele><time>2026-04-26T14:28:36.558Z</time></trkpt><trkpt lat="44.2640383" lon="11.8740389"><ele>46.0</ele><time>2026-04-26T14:28:37.565Z</time></trkpt><trkpt lat="44.2641439" lon="11.8740107"><ele>46.0</ele><time>2026-04-26T14:28:38.567Z</time></trkpt><trkpt lat="44.2642535" lon="11.8739838"><ele>46.4</ele><time>2026-04-26T14:28:39.596Z</time></trkpt><trkpt lat="44.2643637" lon="11.8739589"><ele>46.8</ele><time>2026-04-26T14:28:40.601Z</time></trkpt><trkpt lat="44.2644729" lon="11.8739297"><ele>47.199999999999996</ele><time>2026-04-26T14:28:41.563Z</time></trkpt><trkpt lat="44.264584" lon="11.8739004"><ele>47.599999999999994</ele><time>2026-04-26T14:28:42.567Z</time></trkpt><trkpt lat="44.2646944" lon="11.8738783"><ele>48.0</ele><time>2026-04-26T14:28:43.564Z</time></trkpt><trkpt lat="44.2648074" lon="11.8738568"><ele>46.75</ele><time>2026-04-26T14:28:44.566Z</time></trkpt><trkpt lat="44.2649226" lon="11.8738326"><ele>45.5</ele><time>2026-04-26T14:28:45.566Z</time></trkpt><trkpt lat="44.2650396" lon="11.873806"><ele>44.25</ele><time>2026-04-26T14:28:46.566Z</time></trkpt><trkpt lat="44.2651566" lon="11.8737779"><ele>43.0</ele><time>2026-04-26T14:28:47.566Z</time></trkpt><trkpt lat="44.2652762" lon="11.8737504"><ele>43.0</ele><time>2026-04-26T14:28:48.571Z</time></trkpt><trkpt lat="44.2653974" lon="11.8737265"><ele>43.0</ele><time>2026-04-26T14:28:49.566Z</time></trkpt><trkpt lat="44.2655235" lon="11.8736996"><ele>43.0</ele><time>2026-04-26T14:28:50.568Z</time></trkpt><trkpt lat="44.2656515" lon="11.8736712"><ele>43.0</ele><time>2026-04-26T14:28:51.562Z</time></trkpt><trkpt lat="44.2657807" lon="11.873641"><ele>43.75</ele><time>2026-04-26T14:28:52.568Z</time></trkpt><trkpt lat="44.2659133" lon="11.8736093"><ele>44.5</ele><time>2026-04-26T14:28:53.568Z</time></trkpt><trkpt lat="44.2660482" lon="11.8735767"><ele>45.25</ele><time>2026-04-26T14:28:54.561Z</time></trkpt><trkpt lat="44.2661869" lon="11.8735459"><ele>46.0</ele><time>2026-04-26T14:28:55.567Z</time></trkpt><trkpt lat="44.2663247" lon="11.8735161"><ele>46.0</ele><time>2026-04-26T14:28:56.584Z</time></trkpt><trkpt lat="44.2664613" lon="11.873489"><ele>46.0</ele><time>2026-04-26T14:28:57.565Z</time></trkpt><trkpt lat="44.2665977" lon="11.8734578"><ele>46.0</ele><time>2026-04-26T14:28:58.566Z</time></trkpt><trkpt lat="44.2667318" lon="11.8734263"><ele>46.0</ele><time>2026-04-26T14:28:59.565Z</time></trkpt><trkpt lat="44.2668626" lon="11.8733978"><ele>46.0</ele><time>2026-04-26T14:29:00.566Z</time></trkpt><trkpt lat="44.2669888" lon="11.8733695"><ele>46.0</ele><time>2026-04-26T14:29:01.542Z</time></trkpt><trkpt lat="44.267113" lon="11.8733353"><ele>46.0</ele><time>2026-04-26T14:29:02.555Z</time></trkpt><trkpt lat="44.2672312" lon="11.8733033"><ele>46.0</ele><time>2026-04-26T14:29:03.565Z</time></trkpt><trkpt lat="44.2673436" lon="11.873281"><ele>45.25</ele><time>2026-04-26T14:29:04.57Z</time></trkpt><trkpt lat="44.2674575" lon="11.8732729"><ele>44.5</ele><time>2026-04-26T14:29:05.566Z</time></trkpt><trkpt lat="44.2675724" lon="11.8732747"><ele>43.75</ele><time>2026-04-26T14:29:06.571Z</time></trkpt><trkpt lat="44.2676907" lon="11.8732863"><ele>43.0</ele><time>2026-04-26T14:29:07.558Z</time></trkpt><trkpt lat="44.2678152" lon="11.8733102"><ele>43.0</ele><time>2026-04-26T14:29:08.568Z</time></trkpt><trkpt lat="44.2679428" lon="11.8733441"><ele>43.0</ele><time>2026-04-26T14:29:09.562Z</time></trkpt><trkpt lat="44.2680748" lon="11.8733832"><ele>43.0</ele><time>2026-04-26T14:29:10.567Z</time></trkpt><trkpt lat="44.2682056" lon="11.8734311"><ele>43.0</ele><time>2026-04-26T14:29:11.562Z</time></trkpt><trkpt lat="44.2683351" lon="11.8734893"><ele>42.25</ele><time>2026-04-26T14:29:12.602Z</time></trkpt><trkpt lat="44.2684653" lon="11.873546"><ele>41.5</ele><time>2026-04-26T14:29:13.57Z</time></trkpt><trkpt lat="44.2685996" lon="11.8736041"><ele>40.75</ele><time>2026-04-26T14:29:14.571Z</time></trkpt><trkpt lat="44.2687383" lon="11.873661"><ele>40.0</ele><time>2026-04-26T14:29:15.566Z</time></trkpt><trkpt lat="44.2688748" lon="11.8737209"><ele>39.75</ele><time>2026-04-26T14:29:16.564Z</time></trkpt><trkpt lat="44.2690118" lon="11.8737836"><ele>39.5</ele><time>2026-04-26T14:29:17.566Z</time></trkpt><trkpt lat="44.2691514" lon="11.8738464"><ele>39.25</ele><time>2026-04-26T14:29:18.567Z</time></trkpt><trkpt lat="44.2692917" lon="11.8739077"><ele>39.0</ele><time>2026-04-26T14:29:19.567Z</time></trkpt><trkpt lat="44.2694359" lon="11.87397"><ele>39.0</ele><time>2026-04-26T14:29:20.564Z</time></trkpt><trkpt lat="44.2695814" lon="11.874034"><ele>39.0</ele><time>2026-04-26T14:29:21.57Z</time></trkpt><trkpt lat="44.2697279" lon="11.8740977"><ele>39.0</ele><time>2026-04-26T14:29:22.567Z</time></trkpt><trkpt lat="44.2698752" lon="11.8741639"><ele>39.0</ele><time>2026-04-26T14:29:23.569Z</time></trkpt><trkpt lat="44.2700232" lon="11.8742304"><ele>39.0</ele><time>2026-04-26T14:29:24.566Z</time></trkpt><trkpt lat="44.2701719" lon="11.8742971"><ele>39.0</ele><time>2026-04-26T14:29:25.567Z</time></trkpt><trkpt lat="44.2703233" lon="11.8743626"><ele>39.0</ele><time>2026-04-26T14:29:26.567Z</time></trkpt><trkpt lat="44.2704806" lon="11.8744286"><ele>39.0</ele><time>2026-04-26T14:29:27.637Z</time></trkpt><trkpt lat="44.2706297" lon="11.874494"><ele>39.0</ele><time>2026-04-26T14:29:28.573Z</time></trkpt><trkpt lat="44.2707859" lon="11.8745621"><ele>38.0</ele><time>2026-04-26T14:29:29.567Z</time></trkpt><trkpt lat="44.2709429" lon="11.8746309"><ele>37.0</ele><time>2026-04-26T14:29:30.567Z</time></trkpt><trkpt lat="44.2710982" lon="11.8746965"><ele>36.0</ele><time>2026-04-26T14:29:31.559Z</time></trkpt><trkpt lat="44.2712529" lon="11.8747613"><ele>36.0</ele><time>2026-04-26T14:29:32.568Z</time></trkpt><trkpt lat="44.2714071" lon="11.8748232"><ele>36.0</ele><time>2026-04-26T14:29:33.561Z</time></trkpt><trkpt lat="44.2715619" lon="11.8748818"><ele>36.0</ele><time>2026-04-26T14:29:34.561Z</time></trkpt><trkpt lat="44.2717168" lon="11.8749412"><ele>36.0</ele><time>2026-04-26T14:29:35.569Z</time></trkpt><trkpt lat="44.2718699" lon="11.8749982"><ele>36.0</ele><time>2026-04-26T14:29:36.567Z</time></trkpt><trkpt lat="44.2720219" lon="11.8750464"><ele>36.0</ele><time>2026-04-26T14:29:37.571Z</time></trkpt><trkpt lat="44.2721721" lon="11.8750768"><ele>35.666666666666664</ele><time>2026-04-26T14:29:38.574Z</time></trkpt><trkpt lat="44.2723217" lon="11.8750807"><ele>35.33333333333333</ele><time>2026-04-26T14:29:39.57Z</time></trkpt><trkpt lat="44.2724716" lon="11.8750631"><ele>35.0</ele><time>2026-04-26T14:29:40.568Z</time></trkpt><trkpt lat="44.2726227" lon="11.8750353"><ele>35.0</ele><time>2026-04-26T14:29:41.568Z</time></trkpt><trkpt lat="44.2727729" lon="11.8750056"><ele>35.0</ele><time>2026-04-26T14:29:42.572Z</time></trkpt><trkpt lat="44.2729201" lon="11.8749778"><ele>35.0</ele><time>2026-04-26T14:29:43.568Z</time></trkpt><trkpt lat="44.2730682" lon="11.8749492"><ele>33.75</ele><time>2026-04-26T14:29:44.565Z</time></trkpt><trkpt lat="44.2732164" lon="11.8749255"><ele>32.5</ele><time>2026-04-26T14:29:45.559Z</time></trkpt><trkpt lat="44.2733637" lon="11.8749003"><ele>31.25</ele><time>2026-04-26T14:29:46.559Z</time></trkpt><trkpt lat="44.2735107" lon="11.8748752"><ele>30.0</ele><time>2026-04-26T14:29:47.565Z</time></trkpt><trkpt lat="44.2736585" lon="11.8748502"><ele>30.0</ele><time>2026-04-26T14:29:48.569Z</time></trkpt><trkpt lat="44.273805" lon="11.8748326"><ele>30.0</ele><time>2026-04-26T14:29:49.568Z</time></trkpt><trkpt lat="44.2739529" lon="11.8748288"><ele>30.0</ele><time>2026-04-26T14:29:50.568Z</time></trkpt><trkpt lat="44.2740982" lon="11.874838"><ele>30.0</ele><time>2026-04-26T14:29:51.569Z</time></trkpt><trkpt lat="44.2742418" lon="11.8748543"><ele>29.75</ele><time>2026-04-26T14:29:52.567Z</time></trkpt><trkpt lat="44.2743845" lon="11.874875"><ele>29.5</ele><time>2026-04-26T14:29:53.557Z</time></trkpt><trkpt lat="44.2745272" lon="11.8748956"><ele>29.25</ele><time>2026-04-26T14:29:54.571Z</time></trkpt><trkpt lat="44.274667" lon="11.8749227"><ele>29.0</ele><time>2026-04-26T14:29:55.566Z</time></trkpt><trkpt lat="44.2748054" lon="11.8749581"><ele>29.5</ele><time>2026-04-26T14:29:56.565Z</time></trkpt><trkpt lat="44.2749408" lon="11.8750082"><ele>30.0</ele><time>2026-04-26T14:29:57.567Z</time></trkpt><trkpt lat="44.2750712" lon="11.8750772"><ele>30.5</ele><time>2026-04-26T14:29:58.568Z</time></trkpt><trkpt lat="44.275198" lon="11.8751641"><ele>31.0</ele><time>2026-04-26T14:29:59.57Z</time></trkpt><trkpt lat="44.2753194" lon="11.8752685"><ele>31.0</ele><time>2026-04-26T14:30:00.567Z</time></trkpt><trkpt lat="44.2754319" lon="11.8753903"><ele>31.0</ele><time>2026-04-26T14:30:01.568Z</time></trkpt><trkpt lat="44.27554" lon="11.8755197"><ele>31.0</ele><time>2026-04-26T14:30:02.566Z</time></trkpt><trkpt lat="44.2756506" lon="11.8756497"><ele>31.0</ele><time>2026-04-26T14:30:03.568Z</time></trkpt><trkpt lat="44.2757621" lon="11.875779"><ele>31.25</ele><time>2026-04-26T14:30:04.568Z</time></trkpt><trkpt lat="44.2758737" lon="11.8759102"><ele>31.5</ele><time>2026-04-26T14:30:05.565Z</time></trkpt><trkpt lat="44.2759855" lon="11.8760409"><ele>31.75</ele><time>2026-04-26T14:30:06.567Z</time></trkpt><trkpt lat="44.2760984" lon="11.876174"><ele>32.0</ele><time>2026-04-26T14:30:07.567Z</time></trkpt><trkpt lat="44.276212" lon="11.8763072"><ele>32.0</ele><time>2026-04-26T14:30:08.569Z</time></trkpt><trkpt lat="44.2763266" lon="11.8764406"><ele>32.0</ele><time>2026-04-26T14:30:09.567Z</time></trkpt><trkpt lat="44.276439" lon="11.8765796"><ele>32.0</ele><time>2026-04-26T14:30:10.566Z</time></trkpt><trkpt lat="44.2765545" lon="11.8767204"><ele>31.75</ele><time>2026-04-26T14:30:11.566Z</time></trkpt><trkpt lat="44.2766697" lon="11.8768622"><ele>31.5</ele><time>2026-04-26T14:30:12.603Z</time></trkpt><trkpt lat="44.2767795" lon="11.8769911"><ele>31.25</ele><time>2026-04-26T14:30:13.567Z</time></trkpt><trkpt lat="44.2768858" lon="11.8771141"><ele>31.0</ele><time>2026-04-26T14:30:14.565Z</time></trkpt><trkpt lat="44.2769844" lon="11.8772277"><ele>31.0</ele><time>2026-04-26T14:30:15.558Z</time></trkpt><trkpt lat="44.2770799" lon="11.8773317"><ele>31.0</ele><time>2026-04-26T14:30:16.569Z</time></trkpt><trkpt lat="44.2771707" lon="11.8774248"><ele>31.0</ele><time>2026-04-26T14:30:17.557Z</time></trkpt><trkpt lat="44.2772551" lon="11.8775092"><ele>31.0</ele><time>2026-04-26T14:30:18.573Z</time></trkpt><trkpt lat="44.2773329" lon="11.8775832"><ele>31.0</ele><time>2026-04-26T14:30:19.564Z</time></trkpt><trkpt lat="44.2773981" lon="11.8776485"><ele>30.833333333333336</ele><time>2026-04-26T14:30:20.57Z</time></trkpt><trkpt lat="44.2774518" lon="11.8777006"><ele>30.666666666666668</ele><time>2026-04-26T14:30:21.564Z</time></trkpt><trkpt lat="44.2775287" lon="11.8777734"><ele>30.5</ele><time>2026-04-26T14:30:23.574Z</time></trkpt><trkpt lat="44.2776067" lon="11.877815"><ele>30.333333333333336</ele><time>2026-04-26T14:30:40.565Z</time></trkpt><trkpt lat="44.2776617" lon="11.8778583"><ele>30.166666666666668</ele><time>2026-04-26T14:30:41.563Z</time></trkpt><trkpt lat="44.2777233" lon="11.8779033"><ele>30.0</ele><time>2026-04-26T14:30:42.566Z</time></trkpt><trkpt lat="44.2777917" lon="11.8779633"><ele>30.0</ele><time>2026-04-26T14:30:43.576Z</time></trkpt><trkpt lat="44.277865" lon="11.87803"><ele>30.0</ele><time>2026-04-26T14:30:44.559Z</time></trkpt><trkpt lat="44.2779367" lon="11.8781033"><ele>30.0</ele><time>2026-04-26T14:30:45.558Z</time></trkpt><trkpt lat="44.27801" lon="11.87818"><ele>30.0</ele><time>2026-04-26T14:30:46.551Z</time></trkpt><trkpt lat="44.2780817" lon="11.8782467"><ele>30.0</ele><time>2026-04-26T14:30:47.563Z</time></trkpt><trkpt lat="44.278145" lon="11.878305"><ele>30.0</ele><time>2026-04-26T14:30:48.566Z</time></trkpt><trkpt lat="44.2782167" lon="11.8784083"><ele>30.0</ele><time>2026-04-26T14:30:50.564Z</time></trkpt><trkpt lat="44.278185" lon="11.8785433"><ele>30.0</ele><time>2026-04-26T14:30:52.566Z</time></trkpt><trkpt lat="44.2781383" lon="11.8786183"><ele>30.0</ele><time>2026-04-26T14:30:53.564Z</time></trkpt><trkpt lat="44.2780867" lon="11.8787033"><ele>30.0</ele><time>2026-04-26T14:30:54.624Z</time></trkpt><trkpt lat="44.2780283" lon="11.8788"><ele>30.0</ele><time>2026-04-26T14:30:55.567Z</time></trkpt><trkpt lat="44.2779667" lon="11.8789"><ele>30.0</ele><time>2026-04-26T14:30:56.567Z</time></trkpt><trkpt lat="44.2779017" lon="11.8790033"><ele>30.0</ele><time>2026-04-26T14:30:57.567Z</time></trkpt><trkpt lat="44.2778367" lon="11.8791117"><ele>30.0</ele><time>2026-04-26T14:30:58.565Z</time></trkpt><trkpt lat="44.2777717" lon="11.8792283"><ele>30.0</ele><time>2026-04-26T14:30:59.567Z</time></trkpt><trkpt lat="44.27771" lon="11.879345"><ele>30.0</ele><time>2026-04-26T14:31:00.535Z</time></trkpt><trkpt lat="44.2776533" lon="11.879455"><ele>30.0</ele><time>2026-04-26T14:31:01.56Z</time></trkpt><trkpt lat="44.2775983" lon="11.8795617"><ele>30.166666666666668</ele><time>2026-04-26T14:31:02.544Z</time></trkpt><trkpt lat="44.2775483" lon="11.8796617"><ele>30.333333333333336</ele><time>2026-04-26T14:31:03.542Z</time></trkpt><trkpt lat="44.2775033" lon="11.8797583"><ele>30.5</ele><time>2026-04-26T14:31:04.549Z</time></trkpt><trkpt lat="44.2774617" lon="11.8798467"><ele>30.666666666666668</ele><time>2026-04-26T14:31:05.545Z</time></trkpt><trkpt lat="44.2774217" lon="11.8799267"><ele>30.833333333333336</ele><time>2026-04-26T14:31:06.549Z</time></trkpt><trkpt lat="44.277385" lon="11.8800067"><ele>31.0</ele><time>2026-04-26T14:31:07.551Z</time></trkpt><trkpt lat="44.2773467" lon="11.8800967"><ele>31.000000000000004</ele><time>2026-04-26T14:31:08.564Z</time></trkpt><trkpt lat="44.2773033" lon="11.88019"><ele>31.0</ele><time>2026-04-26T14:31:09.543Z</time></trkpt><trkpt lat="44.2772567" lon="11.8802917"><ele>31.0</ele><time>2026-04-26T14:31:10.544Z</time></trkpt><trkpt lat="44.27721" lon="11.8803917"><ele>31.0</ele><time>2026-04-26T14:31:11.543Z</time></trkpt><trkpt lat="44.277165" lon="11.8804883"><ele>31.000000000000004</ele><time>2026-04-26T14:31:12.545Z</time></trkpt><trkpt lat="44.2771267" lon="11.8805783"><ele>31.0</ele><time>2026-04-26T14:31:13.545Z</time></trkpt><trkpt lat="44.2770933" lon="11.880665"><ele>31.0</ele><time>2026-04-26T14:31:14.543Z</time></trkpt><trkpt lat="44.2770667" lon="11.8807467"><ele>31.000000000000004</ele><time>2026-04-26T14:31:15.539Z</time></trkpt><trkpt lat="44.2770417" lon="11.8808283"><ele>31.0</ele><time>2026-04-26T14:31:16.544Z</time></trkpt><trkpt lat="44.2770183" lon="11.8809183"><ele>31.0</ele><time>2026-04-26T14:31:17.555Z</time></trkpt><trkpt lat="44.276995" lon="11.8810183"><ele>31.000000000000004</ele><time>2026-04-26T14:31:18.568Z</time></trkpt><trkpt lat="44.2769767" lon="11.8811283"><ele>31.0</ele><time>2026-04-26T14:31:19.569Z</time></trkpt><trkpt lat="44.2769717" lon="11.8812483"><ele>31.0</ele><time>2026-04-26T14:31:20.565Z</time></trkpt><trkpt lat="44.276985" lon="11.8813783"><ele>31.0</ele><time>2026-04-26T14:31:21.565Z</time></trkpt><trkpt lat="44.2770133" lon="11.8815133"><ele>31.0</ele><time>2026-04-26T14:31:22.55Z</time></trkpt><trkpt lat="44.2770583" lon="11.8816483"><ele>31.0</ele><time>2026-04-26T14:31:23.564Z</time></trkpt><trkpt lat="44.2771183" lon="11.8817817"><ele>31.0</ele><time>2026-04-26T14:31:24.554Z</time></trkpt><trkpt lat="44.27719" lon="11.8819117"><ele>31.0</ele><time>2026-04-26T14:31:25.551Z</time></trkpt><trkpt lat="44.27727" lon="11.8820417"><ele>31.0</ele><time>2026-04-26T14:31:26.613Z</time></trkpt><trkpt lat="44.2773567" lon="11.8821733"><ele>31.0</ele><time>2026-04-26T14:31:27.568Z</time></trkpt><trkpt lat="44.2774467" lon="11.8823067"><ele>31.0</ele><time>2026-04-26T14:31:28.565Z</time></trkpt><trkpt lat="44.2775383" lon="11.8824417"><ele>31.0</ele><time>2026-04-26T14:31:29.552Z</time></trkpt><trkpt lat="44.27763" lon="11.8825717"><ele>30.75</ele><time>2026-04-26T14:31:30.567Z</time></trkpt><trkpt lat="44.2777233" lon="11.8826883"><ele>30.5</ele><time>2026-04-26T14:31:31.565Z</time></trkpt><trkpt lat="44.2778167" lon="11.882805"><ele>30.25</ele><time>2026-04-26T14:31:32.564Z</time></trkpt><trkpt lat="44.2779117" lon="11.8829217"><ele>30.0</ele><time>2026-04-26T14:31:33.565Z</time></trkpt><trkpt lat="44.27801" lon="11.8830383"><ele>30.25</ele><time>2026-04-26T14:31:34.563Z</time></trkpt><trkpt lat="44.27811" lon="11.883155"><ele>30.5</ele><time>2026-04-26T14:31:35.563Z</time></trkpt><trkpt lat="44.27821" lon="11.8832767"><ele>30.75</ele><time>2026-04-26T14:31:36.567Z</time></trkpt><trkpt lat="44.2783133" lon="11.883395"><ele>31.0</ele><time>2026-04-26T14:31:37.557Z</time></trkpt><trkpt lat="44.2784217" lon="11.883515"><ele>31.0</ele><time>2026-04-26T14:31:38.572Z</time></trkpt><trkpt lat="44.27853" lon="11.8836417"><ele>31.0</ele><time>2026-04-26T14:31:39.572Z</time></trkpt><trkpt lat="44.27863" lon="11.883775"><ele>31.0</ele><time>2026-04-26T14:31:40.566Z</time></trkpt><trkpt lat="44.278735" lon="11.8838933"><ele>31.0</ele><time>2026-04-26T14:31:41.561Z</time></trkpt><trkpt lat="44.2788417" lon="11.8840067"><ele>31.0</ele><time>2026-04-26T14:31:42.566Z</time></trkpt><trkpt lat="44.2789567" lon="11.88412"><ele>31.0</ele><time>2026-04-26T14:31:43.564Z</time></trkpt><trkpt lat="44.2790733" lon="11.8842417"><ele>31.0</ele><time>2026-04-26T14:31:44.568Z</time></trkpt><trkpt lat="44.27919" lon="11.8843633"><ele>31.0</ele><time>2026-04-26T14:31:45.565Z</time></trkpt><trkpt lat="44.2793067" lon="11.8844833"><ele>31.0</ele><time>2026-04-26T14:31:46.564Z</time></trkpt><trkpt lat="44.279425" lon="11.884605"><ele>31.0</ele><time>2026-04-26T14:31:47.565Z</time></trkpt><trkpt lat="44.27954" lon="11.88472"><ele>31.0</ele><time>2026-04-26T14:31:48.565Z</time></trkpt><trkpt lat="44.2796583" lon="11.884835"><ele>31.0</ele><time>2026-04-26T14:31:49.566Z</time></trkpt><trkpt lat="44.2797767" lon="11.8849483"><ele>31.25</ele><time>2026-04-26T14:31:50.568Z</time></trkpt><trkpt lat="44.2798917" lon="11.88506"><ele>31.5</ele><time>2026-04-26T14:31:51.568Z</time></trkpt><trkpt lat="44.280005" lon="11.8851717"><ele>31.75</ele><time>2026-04-26T14:31:52.564Z</time></trkpt><trkpt lat="44.2801133" lon="11.8852767"><ele>32.0</ele><time>2026-04-26T14:31:53.563Z</time></trkpt><trkpt lat="44.2802233" lon="11.88537"><ele>31.75</ele><time>2026-04-26T14:31:54.566Z</time></trkpt><trkpt lat="44.2803333" lon="11.885465"><ele>31.5</ele><time>2026-04-26T14:31:55.636Z</time></trkpt><trkpt lat="44.2804467" lon="11.88556"><ele>31.25</ele><time>2026-04-26T14:31:56.563Z</time></trkpt><trkpt lat="44.2805633" lon="11.8856517"><ele>31.0</ele><time>2026-04-26T14:31:57.568Z</time></trkpt><trkpt lat="44.2806833" lon="11.885745"><ele>31.0</ele><time>2026-04-26T14:31:58.559Z</time></trkpt><trkpt lat="44.2808017" lon="11.8858383"><ele>31.0</ele><time>2026-04-26T14:31:59.559Z</time></trkpt><trkpt lat="44.2809233" lon="11.8859333"><ele>31.0</ele><time>2026-04-26T14:32:00.57Z</time></trkpt><trkpt lat="44.2810483" lon="11.8860267"><ele>31.0</ele><time>2026-04-26T14:32:01.568Z</time></trkpt><trkpt lat="44.281175" lon="11.88612"><ele>30.75</ele><time>2026-04-26T14:32:02.566Z</time></trkpt><trkpt lat="44.2813033" lon="11.8862133"><ele>30.5</ele><time>2026-04-26T14:32:03.565Z</time></trkpt><trkpt lat="44.2814333" lon="11.8863083"><ele>30.25</ele><time>2026-04-26T14:32:04.566Z</time></trkpt><trkpt lat="44.2815617" lon="11.8864017"><ele>30.0</ele><time>2026-04-26T14:32:05.564Z</time></trkpt><trkpt lat="44.2816867" lon="11.8864917"><ele>29.75</ele><time>2026-04-26T14:32:06.573Z</time></trkpt><trkpt lat="44.2818083" lon="11.8865733"><ele>29.5</ele><time>2026-04-26T14:32:07.573Z</time></trkpt><trkpt lat="44.2819283" lon="11.88665"><ele>29.25</ele><time>2026-04-26T14:32:08.563Z</time></trkpt><trkpt lat="44.2820483" lon="11.8867133"><ele>29.0</ele><time>2026-04-26T14:32:09.569Z</time></trkpt><trkpt lat="44.28217" lon="11.88676"><ele>28.799999999999997</ele><time>2026-04-26T14:32:10.568Z</time></trkpt><trkpt lat="44.2822833" lon="11.8868"><ele>28.599999999999998</ele><time>2026-04-26T14:32:11.564Z</time></trkpt><trkpt lat="44.28239" lon="11.8868283"><ele>28.4</ele><time>2026-04-26T14:32:12.564Z</time></trkpt><trkpt lat="44.2824867" lon="11.8868533"><ele>28.2</ele><time>2026-04-26T14:32:13.569Z</time></trkpt><trkpt lat="44.2825783" lon="11.8868867"><ele>28.0</ele><time>2026-04-26T14:32:14.578Z</time></trkpt><trkpt lat="44.2826583" lon="11.88693"><ele>28.0</ele><time>2026-04-26T14:32:15.567Z</time></trkpt><trkpt lat="44.2827317" lon="11.88697"><ele>28.0</ele><time>2026-04-26T14:32:16.557Z</time></trkpt><trkpt lat="44.2828" lon="11.88699"><ele>28.0</ele><time>2026-04-26T14:32:17.634Z</time></trkpt><trkpt lat="44.282865" lon="11.8869833"><ele>28.0</ele><time>2026-04-26T14:32:18.567Z</time></trkpt><trkpt lat="44.2829283" lon="11.886965"><ele>28.0</ele><time>2026-04-26T14:32:19.585Z</time></trkpt><trkpt lat="44.282995" lon="11.8869583"><ele>28.0</ele><time>2026-04-26T14:32:20.612Z</time></trkpt><trkpt lat="44.2830683" lon="11.886975"><ele>28.0</ele><time>2026-04-26T14:32:21.561Z</time></trkpt><trkpt lat="44.2831467" lon="11.887005"><ele>28.599999999999998</ele><time>2026-04-26T14:32:22.566Z</time></trkpt><trkpt lat="44.2832283" lon="11.8870433"><ele>29.199999999999996</ele><time>2026-04-26T14:32:23.564Z</time></trkpt><trkpt lat="44.2833133" lon="11.887085"><ele>29.8</ele><time>2026-04-26T14:32:24.561Z</time></trkpt><trkpt lat="44.283405" lon="11.8871283"><ele>30.4</ele><time>2026-04-26T14:32:25.563Z</time></trkpt><trkpt lat="44.2835" lon="11.8871733"><ele>31.0</ele><time>2026-04-26T14:32:26.566Z</time></trkpt><trkpt lat="44.2835983" lon="11.8872183"><ele>31.000000000000004</ele><time>2026-04-26T14:32:27.564Z</time></trkpt><trkpt lat="44.2836917" lon="11.8872617"><ele>31.0</ele><time>2026-04-26T14:32:28.566Z</time></trkpt><trkpt lat="44.283775" lon="11.8873017"><ele>31.0</ele><time>2026-04-26T14:32:29.598Z</time></trkpt><trkpt lat="44.2838483" lon="11.88734"><ele>31.0</ele><time>2026-04-26T14:32:30.585Z</time></trkpt><trkpt lat="44.2839167" lon="11.88738"><ele>31.000000000000004</ele><time>2026-04-26T14:32:31.571Z</time></trkpt><trkpt lat="44.2839817" lon="11.88743"><ele>31.0</ele><time>2026-04-26T14:32:32.565Z</time></trkpt><trkpt lat="44.2840517" lon="11.8874883"><ele>31.4</ele><time>2026-04-26T14:32:33.565Z</time></trkpt><trkpt lat="44.28413" lon="11.887555"><ele>31.8</ele><time>2026-04-26T14:32:34.565Z</time></trkpt><trkpt lat="44.28422" lon="11.8876283"><ele>32.199999999999996</ele><time>2026-04-26T14:32:35.563Z</time></trkpt><trkpt lat="44.2843217" lon="11.887715"><ele>32.6</ele><time>2026-04-26T14:32:36.575Z</time></trkpt><trkpt lat="44.2844317" lon="11.8878117"><ele>33.0</ele><time>2026-04-26T14:32:37.565Z</time></trkpt><trkpt lat="44.2845383" lon="11.8879117"><ele>33.0</ele><time>2026-04-26T14:32:38.563Z</time></trkpt><trkpt lat="44.28465" lon="11.8880017"><ele>33.0</ele><time>2026-04-26T14:32:39.565Z</time></trkpt><trkpt lat="44.2847617" lon="11.88808"><ele>33.0</ele><time>2026-04-26T14:32:40.565Z</time></trkpt><trkpt lat="44.2848733" lon="11.8881583"><ele>33.0</ele><time>2026-04-26T14:32:41.561Z</time></trkpt><trkpt lat="44.2849883" lon="11.88824"><ele>33.75</ele><time>2026-04-26T14:32:42.561Z</time></trkpt><trkpt lat="44.2851133" lon="11.8883333"><ele>34.5</ele><time>2026-04-26T14:32:43.565Z</time></trkpt><trkpt lat="44.2852433" lon="11.8884333"><ele>35.25</ele><time>2026-04-26T14:32:44.569Z</time></trkpt><trkpt lat="44.2853767" lon="11.8885333"><ele>36.0</ele><time>2026-04-26T14:32:45.565Z</time></trkpt><trkpt lat="44.28551" lon="11.8886333"><ele>35.25</ele><time>2026-04-26T14:32:46.565Z</time></trkpt><trkpt lat="44.285645" lon="11.8887283"><ele>34.5</ele><time>2026-04-26T14:32:47.565Z</time></trkpt><trkpt lat="44.2857733" lon="11.8888183"><ele>33.75</ele><time>2026-04-26T14:32:48.563Z</time></trkpt><trkpt lat="44.2858933" lon="11.888905"><ele>33.0</ele><time>2026-04-26T14:32:49.565Z</time></trkpt><trkpt lat="44.2860033" lon="11.8889833"><ele>33.0</ele><time>2026-04-26T14:32:50.565Z</time></trkpt><trkpt lat="44.2861133" lon="11.8890433"><ele>33.0</ele><time>2026-04-26T14:32:51.566Z</time></trkpt><trkpt lat="44.2862317" lon="11.8890783"><ele>33.0</ele><time>2026-04-26T14:32:52.562Z</time></trkpt><trkpt lat="44.2863617" lon="11.889105"><ele>33.0</ele><time>2026-04-26T14:32:53.566Z</time></trkpt><trkpt lat="44.2864967" lon="11.8891267"><ele>33.5</ele><time>2026-04-26T14:32:54.566Z</time></trkpt><trkpt lat="44.2866383" lon="11.88915"><ele>34.0</ele><time>2026-04-26T14:32:55.565Z</time></trkpt><trkpt lat="44.28678" lon="11.8891783"><ele>34.5</ele><time>2026-04-26T14:32:56.563Z</time></trkpt><trkpt lat="44.2869217" lon="11.889205"><ele>35.0</ele><time>2026-04-26T14:32:57.562Z</time></trkpt><trkpt lat="44.2870567" lon="11.8892283"><ele>35.0</ele><time>2026-04-26T14:32:58.563Z</time></trkpt><trkpt lat="44.2871833" lon="11.88925"><ele>35.0</ele><time>2026-04-26T14:32:59.566Z</time></trkpt><trkpt lat="44.2873017" lon="11.8892717"><ele>35.0</ele><time>2026-04-26T14:33:00.56Z</time></trkpt><trkpt lat="44.2874133" lon="11.8892833"><ele>35.0</ele><time>2026-04-26T14:33:01.56Z</time></trkpt><trkpt lat="44.2875183" lon="11.8892867"><ele>34.83333333333333</ele><time>2026-04-26T14:33:02.565Z</time></trkpt><trkpt lat="44.2876167" lon="11.88926"><ele>34.666666666666664</ele><time>2026-04-26T14:33:03.565Z</time></trkpt><trkpt lat="44.287695" lon="11.8892033"><ele>34.5</ele><time>2026-04-26T14:33:04.564Z</time></trkpt><trkpt lat="44.2877467" lon="11.8891167"><ele>34.333333333333336</ele><time>2026-04-26T14:33:05.567Z</time></trkpt><trkpt lat="44.2877733" lon="11.8890167"><ele>34.16666666666667</ele><time>2026-04-26T14:33:06.571Z</time></trkpt><trkpt lat="44.2877883" lon="11.888925"><ele>34.0</ele><time>2026-04-26T14:33:07.565Z</time></trkpt><trkpt lat="44.2878433" lon="11.8888117"><ele>34.0</ele><time>2026-04-26T14:33:09.569Z</time></trkpt><trkpt lat="44.2879117" lon="11.8887633"><ele>34.0</ele><time>2026-04-26T14:33:11.565Z</time></trkpt><trkpt lat="44.2879733" lon="11.888735"><ele>34.0</ele><time>2026-04-26T14:33:14.564Z</time></trkpt><trkpt lat="44.288065" lon="11.888725"><ele>34.0</ele><time>2026-04-26T14:33:26.571Z</time></trkpt><trkpt lat="44.2881867" lon="11.888665"><ele>34.0</ele><time>2026-04-26T14:33:28.566Z</time></trkpt><trkpt lat="44.28826" lon="11.888605"><ele>34.0</ele><time>2026-04-26T14:33:29.563Z</time></trkpt><trkpt lat="44.2883317" lon="11.8885183"><ele>34.0</ele><time>2026-04-26T14:33:30.566Z</time></trkpt><trkpt lat="44.288395" lon="11.8884167"><ele>34.0</ele><time>2026-04-26T14:33:31.565Z</time></trkpt><trkpt lat="44.2884533" lon="11.888305"><ele>34.0</ele><time>2026-04-26T14:33:32.564Z</time></trkpt><trkpt lat="44.2885217" lon="11.8882"><ele>34.0</ele><time>2026-04-26T14:33:33.564Z</time></trkpt><trkpt lat="44.2885917" lon="11.8880867"><ele>34.0</ele><time>2026-04-26T14:33:34.567Z</time></trkpt><trkpt lat="44.2886617" lon="11.8879633"><ele>34.0</ele><time>2026-04-26T14:33:35.565Z</time></trkpt><trkpt lat="44.2887283" lon="11.8878467"><ele>34.0</ele><time>2026-04-26T14:33:36.567Z</time></trkpt><trkpt lat="44.2887983" lon="11.8877383"><ele>34.0</ele><time>2026-04-26T14:33:37.563Z</time></trkpt><trkpt lat="44.288865" lon="11.8876367"><ele>34.0</ele><time>2026-04-26T14:33:38.563Z</time></trkpt><trkpt lat="44.288935" lon="11.88754"><ele>34.0</ele><time>2026-04-26T14:33:39.561Z</time></trkpt><trkpt lat="44.289" lon="11.88745"><ele>34.333333333333336</ele><time>2026-04-26T14:33:40.566Z</time></trkpt><trkpt lat="44.2890617" lon="11.8873667"><ele>34.66666666666667</ele><time>2026-04-26T14:33:41.567Z</time></trkpt><trkpt lat="44.289115" lon="11.887285"><ele>35.0</ele><time>2026-04-26T14:33:42.563Z</time></trkpt><trkpt lat="44.2891683" lon="11.8872183"><ele>35.333333333333336</ele><time>2026-04-26T14:33:43.567Z</time></trkpt><trkpt lat="44.2892483" lon="11.8871133"><ele>35.666666666666664</ele><time>2026-04-26T14:33:45.561Z</time></trkpt><trkpt lat="44.2892933" lon="11.8870517"><ele>36.0</ele><time>2026-04-26T14:33:47.563Z</time></trkpt><trkpt lat="44.2893367" lon="11.8869433"><ele>36.0</ele><time>2026-04-26T14:34:16.562Z</time></trkpt><trkpt lat="44.289375" lon="11.8868683"><ele>36.0</ele><time>2026-04-26T14:34:17.561Z</time></trkpt><trkpt lat="44.2894183" lon="11.8867817"><ele>36.0</ele><time>2026-04-26T14:34:18.572Z</time></trkpt><trkpt lat="44.2894633" lon="11.8866817"><ele>36.0</ele><time>2026-04-26T14:34:19.563Z</time></trkpt><trkpt lat="44.2895083" lon="11.8865667"><ele>36.0</ele><time>2026-04-26T14:34:20.555Z</time></trkpt><trkpt lat="44.2895517" lon="11.8864483"><ele>36.0</ele><time>2026-04-26T14:34:21.543Z</time></trkpt><trkpt lat="44.2895967" lon="11.886325"><ele>36.4</ele><time>2026-04-26T14:34:22.56Z</time></trkpt><trkpt lat="44.2896383" lon="11.886195"><ele>36.8</ele><time>2026-04-26T14:34:23.565Z</time></trkpt><trkpt lat="44.2896867" lon="11.886065"><ele>37.199999999999996</ele><time>2026-04-26T14:34:24.567Z</time></trkpt><trkpt lat="44.289735" lon="11.8859367"><ele>37.6</ele><time>2026-04-26T14:34:25.566Z</time></trkpt><trkpt lat="44.2897883" lon="11.885815"><ele>38.0</ele><time>2026-04-26T14:34:26.56Z</time></trkpt><trkpt lat="44.2898417" lon="11.8857"><ele>38.0</ele><time>2026-04-26T14:34:27.56Z</time></trkpt><trkpt lat="44.2898867" lon="11.88557"><ele>38.0</ele><time>2026-04-26T14:34:28.572Z</time></trkpt><trkpt lat="44.2899333" lon="11.8854433"><ele>38.0</ele><time>2026-04-26T14:34:29.562Z</time></trkpt><trkpt lat="44.2899733" lon="11.8853283"><ele>38.0</ele><time>2026-04-26T14:34:30.563Z</time></trkpt><trkpt lat="44.2900133" lon="11.885225"><ele>38.0</ele><time>2026-04-26T14:34:31.566Z</time></trkpt><trkpt lat="44.2901067" lon="11.8851483"><ele>38.0</ele><time>2026-04-26T14:34:33.564Z</time></trkpt><trkpt lat="44.2902267" lon="11.8851467"><ele>38.0</ele><time>2026-04-26T14:34:35.563Z</time></trkpt><trkpt lat="44.2903083" lon="11.88515"><ele>38.0</ele><time>2026-04-26T14:34:36.564Z</time></trkpt><trkpt lat="44.2903917" lon="11.8851467"><ele>38.0</ele><time>2026-04-26T14:34:37.569Z</time></trkpt><trkpt lat="44.2904767" lon="11.8851517"><ele>38.0</ele><time>2026-04-26T14:34:38.566Z</time></trkpt><trkpt lat="44.2905733" lon="11.88516"><ele>37.6</ele><time>2026-04-26T14:34:39.567Z</time></trkpt><trkpt lat="44.29068" lon="11.8851833"><ele>37.199999999999996</ele><time>2026-04-26T14:34:40.567Z</time></trkpt><trkpt lat="44.29079" lon="11.8852083"><ele>36.8</ele><time>2026-04-26T14:34:41.563Z</time></trkpt><trkpt lat="44.2908967" lon="11.8852383"><ele>36.4</ele><time>2026-04-26T14:34:42.649Z</time></trkpt><trkpt lat="44.291" lon="11.8852783"><ele>36.0</ele><time>2026-04-26T14:34:43.568Z</time></trkpt><trkpt lat="44.291105" lon="11.8853433"><ele>36.0</ele><time>2026-04-26T14:34:44.567Z</time></trkpt><trkpt lat="44.2912133" lon="11.8854183"><ele>36.0</ele><time>2026-04-26T14:34:45.57Z</time></trkpt><trkpt lat="44.2913233" lon="11.8854967"><ele>36.0</ele><time>2026-04-26T14:34:46.562Z</time></trkpt><trkpt lat="44.2914367" lon="11.8855717"><ele>36.0</ele><time>2026-04-26T14:34:47.564Z</time></trkpt><trkpt lat="44.2915483" lon="11.88565"><ele>36.0</ele><time>2026-04-26T14:34:48.563Z</time></trkpt><trkpt lat="44.2916667" lon="11.88573"><ele>36.0</ele><time>2026-04-26T14:34:49.565Z</time></trkpt><trkpt lat="44.2917883" lon="11.88581"><ele>36.0</ele><time>2026-04-26T14:34:50.568Z</time></trkpt><trkpt lat="44.2919083" lon="11.8858917"><ele>36.0</ele><time>2026-04-26T14:34:51.563Z</time></trkpt><trkpt lat="44.2920283" lon="11.8859717"><ele>36.0</ele><time>2026-04-26T14:34:52.562Z</time></trkpt><trkpt lat="44.2921517" lon="11.8860517"><ele>36.0</ele><time>2026-04-26T14:34:53.629Z</time></trkpt><trkpt lat="44.2922717" lon="11.8861267"><ele>36.0</ele><time>2026-04-26T14:34:54.559Z</time></trkpt><trkpt lat="44.2923867" lon="11.8862017"><ele>36.0</ele><time>2026-04-26T14:34:55.556Z</time></trkpt><trkpt lat="44.2924983" lon="11.8862767"><ele>35.5</ele><time>2026-04-26T14:34:56.562Z</time></trkpt><trkpt lat="44.2926067" lon="11.88635"><ele>35.0</ele><time>2026-04-26T14:34:57.564Z</time></trkpt><trkpt lat="44.2927117" lon="11.8864217"><ele>34.5</ele><time>2026-04-26T14:34:58.565Z</time></trkpt><trkpt lat="44.2928167" lon="11.88649"><ele>34.0</ele><time>2026-04-26T14:34:59.563Z</time></trkpt><trkpt lat="44.29292" lon="11.8865583"><ele>34.0</ele><time>2026-04-26T14:35:00.56Z</time></trkpt><trkpt lat="44.2930233" lon="11.8866267"><ele>34.0</ele><time>2026-04-26T14:35:01.568Z</time></trkpt><trkpt lat="44.2931267" lon="11.886695"><ele>34.0</ele><time>2026-04-26T14:35:02.57Z</time></trkpt><trkpt lat="44.2932317" lon="11.8867617"><ele>34.0</ele><time>2026-04-26T14:35:03.571Z</time></trkpt><trkpt lat="44.293335" lon="11.8868283"><ele>34.5</ele><time>2026-04-26T14:35:04.565Z</time></trkpt><trkpt lat="44.29344" lon="11.886895"><ele>35.0</ele><time>2026-04-26T14:35:05.564Z</time></trkpt><trkpt lat="44.2935483" lon="11.886965"><ele>35.5</ele><time>2026-04-26T14:35:06.567Z</time></trkpt><trkpt lat="44.2936567" lon="11.8870333"><ele>36.0</ele><time>2026-04-26T14:35:07.567Z</time></trkpt><trkpt lat="44.2937633" lon="11.8871083"><ele>36.0</ele><time>2026-04-26T14:35:08.562Z</time></trkpt><trkpt lat="44.2938717" lon="11.887185"><ele>36.0</ele><time>2026-04-26T14:35:09.563Z</time></trkpt><trkpt lat="44.2939817" lon="11.8872583"><ele>36.0</ele><time>2026-04-26T14:35:10.564Z</time></trkpt><trkpt lat="44.2940867" lon="11.8873267"><ele>36.0</ele><time>2026-04-26T14:35:11.565Z</time></trkpt><trkpt lat="44.2941883" lon="11.8873883"><ele>35.6</ele><time>2026-04-26T14:35:12.564Z</time></trkpt><trkpt lat="44.2942867" lon="11.8874517"><ele>35.2</ele><time>2026-04-26T14:35:13.633Z</time></trkpt><trkpt lat="44.2943817" lon="11.88751"><ele>34.8</ele><time>2026-04-26T14:35:14.563Z</time></trkpt><trkpt lat="44.2944783" lon="11.88757"><ele>34.4</ele><time>2026-04-26T14:35:15.565Z</time></trkpt><trkpt lat="44.2945767" lon="11.88763"><ele>34.0</ele><time>2026-04-26T14:35:16.564Z</time></trkpt><trkpt lat="44.2946767" lon="11.88769"><ele>33.5</ele><time>2026-04-26T14:35:17.564Z</time></trkpt><trkpt lat="44.2947817" lon="11.8877533"><ele>33.0</ele><time>2026-04-26T14:35:18.572Z</time></trkpt><trkpt lat="44.2948883" lon="11.8878167"><ele>32.5</ele><time>2026-04-26T14:35:19.64Z</time></trkpt><trkpt lat="44.2949967" lon="11.8878833"><ele>32.0</ele><time>2026-04-26T14:35:20.564Z</time></trkpt><trkpt lat="44.2951033" lon="11.88795"><ele>32.0</ele><time>2026-04-26T14:35:21.561Z</time></trkpt><trkpt lat="44.2952067" lon="11.88801"><ele>32.0</ele><time>2026-04-26T14:35:22.565Z</time></trkpt><trkpt lat="44.2953067" lon="11.8880583"><ele>32.0</ele><time>2026-04-26T14:35:23.563Z</time></trkpt><trkpt lat="44.2954" lon="11.88809"><ele>32.0</ele><time>2026-04-26T14:35:24.565Z</time></trkpt><trkpt lat="44.295485" lon="11.8881217"><ele>32.0</ele><time>2026-04-26T14:35:25.569Z</time></trkpt><trkpt lat="44.2955633" lon="11.8881633"><ele>31.833333333333332</ele><time>2026-04-26T14:35:26.568Z</time></trkpt><trkpt lat="44.2956417" lon="11.8882167"><ele>31.666666666666664</ele><time>2026-04-26T14:35:27.566Z</time></trkpt><trkpt lat="44.295715" lon="11.88827"><ele>31.5</ele><time>2026-04-26T14:35:28.57Z</time></trkpt><trkpt lat="44.2957917" lon="11.8883"><ele>31.333333333333336</ele><time>2026-04-26T14:35:29.564Z</time></trkpt><trkpt lat="44.295865" lon="11.8883117"><ele>31.166666666666668</ele><time>2026-04-26T14:35:30.563Z</time></trkpt><trkpt lat="44.2959367" lon="11.888285"><ele>31.0</ele><time>2026-04-26T14:35:31.565Z</time></trkpt><trkpt lat="44.2960017" lon="11.8882283"><ele>31.000000000000004</ele><time>2026-04-26T14:35:32.566Z</time></trkpt><trkpt lat="44.296045" lon="11.88814"><ele>31.0</ele><time>2026-04-26T14:35:33.565Z</time></trkpt><trkpt lat="44.296075" lon="11.8880417"><ele>31.0</ele><time>2026-04-26T14:35:34.564Z</time></trkpt><trkpt lat="44.2960783" lon="11.8879367"><ele>31.0</ele><time>2026-04-26T14:35:35.561Z</time></trkpt><trkpt lat="44.2960533" lon="11.8878267"><ele>31.000000000000004</ele><time>2026-04-26T14:35:36.565Z</time></trkpt><trkpt lat="44.296015" lon="11.88771"><ele>31.0</ele><time>2026-04-26T14:35:37.563Z</time></trkpt><trkpt lat="44.2959833" lon="11.8875883"><ele>31.200000000000003</ele><time>2026-04-26T14:35:38.569Z</time></trkpt><trkpt lat="44.2959717" lon="11.8874583"><ele>31.400000000000002</ele><time>2026-04-26T14:35:39.562Z</time></trkpt><trkpt lat="44.295985" lon="11.887325"><ele>31.6</ele><time>2026-04-26T14:35:40.565Z</time></trkpt><trkpt lat="44.2960217" lon="11.8871867"><ele>31.8</ele><time>2026-04-26T14:35:41.564Z</time></trkpt><trkpt lat="44.2960733" lon="11.88705"><ele>32.0</ele><time>2026-04-26T14:35:42.564Z</time></trkpt><trkpt lat="44.29613" lon="11.8869183"><ele>32.0</ele><time>2026-04-26T14:35:43.567Z</time></trkpt><trkpt lat="44.2961883" lon="11.8867833"><ele>32.0</ele><time>2026-04-26T14:35:44.564Z</time></trkpt><trkpt lat="44.2962483" lon="11.8866467"><ele>32.0</ele><time>2026-04-26T14:35:45.564Z</time></trkpt><trkpt lat="44.296305" lon="11.8865067"><ele>32.0</ele><time>2026-04-26T14:35:46.568Z</time></trkpt><trkpt lat="44.29636" lon="11.8863617"><ele>32.0</ele><time>2026-04-26T14:35:47.563Z</time></trkpt><trkpt lat="44.2964167" lon="11.886215"><ele>32.0</ele><time>2026-04-26T14:35:48.572Z</time></trkpt><trkpt lat="44.2964783" lon="11.8860667"><ele>32.0</ele><time>2026-04-26T14:35:49.566Z</time></trkpt><trkpt lat="44.29654" lon="11.8859183"><ele>32.0</ele><time>2026-04-26T14:35:50.565Z</time></trkpt><trkpt lat="44.2966033" lon="11.8857667"><ele>32.0</ele><time>2026-04-26T14:35:51.567Z</time></trkpt><trkpt lat="44.2966667" lon="11.885615"><ele>32.0</ele><time>2026-04-26T14:35:52.564Z</time></trkpt><trkpt lat="44.2967317" lon="11.8854583"><ele>32.0</ele><time>2026-04-26T14:35:53.568Z</time></trkpt><trkpt lat="44.2968" lon="11.8853017"><ele>32.0</ele><time>2026-04-26T14:35:54.564Z</time></trkpt><trkpt lat="44.2968683" lon="11.8851433"><ele>32.0</ele><time>2026-04-26T14:35:55.565Z</time></trkpt><trkpt lat="44.296935" lon="11.8849883"><ele>32.0</ele><time>2026-04-26T14:35:56.559Z</time></trkpt><trkpt lat="44.2969967" lon="11.8848317"><ele>32.0</ele><time>2026-04-26T14:35:57.559Z</time></trkpt><trkpt lat="44.2970583" lon="11.88468"><ele>32.0</ele><time>2026-04-26T14:35:58.566Z</time></trkpt><trkpt lat="44.2971217" lon="11.8845333"><ele>32.0</ele><time>2026-04-26T14:35:59.562Z</time></trkpt><trkpt lat="44.2971817" lon="11.8843917"><ele>32.0</ele><time>2026-04-26T14:36:00.564Z</time></trkpt><trkpt lat="44.29724" lon="11.8842567"><ele>32.0</ele><time>2026-04-26T14:36:01.629Z</time></trkpt><trkpt lat="44.2972983" lon="11.8841267"><ele>32.0</ele><time>2026-04-26T14:36:02.564Z</time></trkpt><trkpt lat="44.2973517" lon="11.884"><ele>32.0</ele><time>2026-04-26T14:36:03.565Z</time></trkpt><trkpt lat="44.297405" lon="11.8838783"><ele>32.2</ele><time>2026-04-26T14:36:04.565Z</time></trkpt><trkpt lat="44.2974567" lon="11.8837583"><ele>32.400000000000006</ele><time>2026-04-26T14:36:05.564Z</time></trkpt><trkpt lat="44.2975067" lon="11.8836367"><ele>32.599999999999994</ele><time>2026-04-26T14:36:06.564Z</time></trkpt><trkpt lat="44.2975567" lon="11.8835233"><ele>32.8</ele><time>2026-04-26T14:36:07.632Z</time></trkpt><trkpt lat="44.2976067" lon="11.88342"><ele>33.0</ele><time>2026-04-26T14:36:08.563Z</time></trkpt><trkpt lat="44.29766" lon="11.88334"><ele>32.6</ele><time>2026-04-26T14:36:09.565Z</time></trkpt><trkpt lat="44.29771" lon="11.88328"><ele>32.199999999999996</ele><time>2026-04-26T14:36:10.565Z</time></trkpt><trkpt lat="44.2977917" lon="11.8832283"><ele>31.8</ele><time>2026-04-26T14:36:12.567Z</time></trkpt><trkpt lat="44.2978817" lon="11.8832133"><ele>31.4</ele><time>2026-04-26T14:36:14.567Z</time></trkpt><trkpt lat="44.2980167" lon="11.8831883"><ele>31.0</ele><time>2026-04-26T14:36:16.566Z</time></trkpt><trkpt lat="44.2980917" lon="11.8831633"><ele>31.000000000000004</ele><time>2026-04-26T14:36:17.566Z</time></trkpt><trkpt lat="44.2981683" lon="11.8831383"><ele>31.0</ele><time>2026-04-26T14:36:18.626Z</time></trkpt><trkpt lat="44.2982483" lon="11.8831317"><ele>31.0</ele><time>2026-04-26T14:36:19.568Z</time></trkpt><trkpt lat="44.29833" lon="11.8831517"><ele>31.0</ele><time>2026-04-26T14:36:20.566Z</time></trkpt><trkpt lat="44.2984067" lon="11.883205"><ele>31.000000000000004</ele><time>2026-04-26T14:36:21.568Z</time></trkpt><trkpt lat="44.298485" lon="11.8832733"><ele>31.0</ele><time>2026-04-26T14:36:22.566Z</time></trkpt><trkpt lat="44.2985733" lon="11.8833333"><ele>31.0</ele><time>2026-04-26T14:36:23.566Z</time></trkpt><trkpt lat="44.2986717" lon="11.8833867"><ele>31.0</ele><time>2026-04-26T14:36:24.564Z</time></trkpt><trkpt lat="44.2987767" lon="11.8834317"><ele>31.0</ele><time>2026-04-26T14:36:25.565Z</time></trkpt><trkpt lat="44.2988833" lon="11.8834733"><ele>31.0</ele><time>2026-04-26T14:36:26.565Z</time></trkpt><trkpt lat="44.29899" lon="11.8835183"><ele>31.0</ele><time>2026-04-26T14:36:27.57Z</time></trkpt><trkpt lat="44.2991033" lon="11.8835667"><ele>30.75</ele><time>2026-04-26T14:36:28.653Z</time></trkpt><trkpt lat="44.2992183" lon="11.8836167"><ele>30.5</ele><time>2026-04-26T14:36:29.575Z</time></trkpt><trkpt lat="44.29934" lon="11.883665"><ele>30.25</ele><time>2026-04-26T14:36:30.566Z</time></trkpt><trkpt lat="44.2994633" lon="11.88371"><ele>30.0</ele><time>2026-04-26T14:36:31.567Z</time></trkpt><trkpt lat="44.29959" lon="11.8837567"><ele>30.0</ele><time>2026-04-26T14:36:32.564Z</time></trkpt><trkpt lat="44.29972" lon="11.8838067"><ele>30.0</ele><time>2026-04-26T14:36:33.564Z</time></trkpt><trkpt lat="44.2998533" lon="11.8838633"><ele>30.0</ele><time>2026-04-26T14:36:34.568Z</time></trkpt><trkpt lat="44.299985" lon="11.88392"><ele>30.0</ele><time>2026-04-26T14:36:35.564Z</time></trkpt><trkpt lat="44.300115" lon="11.8839767"><ele>29.75</ele><time>2026-04-26T14:36:36.562Z</time></trkpt><trkpt lat="44.3002517" lon="11.884035"><ele>29.5</ele><time>2026-04-26T14:36:37.568Z</time></trkpt><trkpt lat="44.3003883" lon="11.8840933"><ele>29.25</ele><time>2026-04-26T14:36:38.569Z</time></trkpt><trkpt lat="44.3005267" lon="11.88415"><ele>29.0</ele><time>2026-04-26T14:36:39.563Z</time></trkpt><trkpt lat="44.3006667" lon="11.884205"><ele>29.0</ele><time>2026-04-26T14:36:40.633Z</time></trkpt><trkpt lat="44.300805" lon="11.884265"><ele>29.0</ele><time>2026-04-26T14:36:41.568Z</time></trkpt><trkpt lat="44.3009417" lon="11.884325"><ele>29.0</ele><time>2026-04-26T14:36:42.568Z</time></trkpt><trkpt lat="44.3010783" lon="11.8843783"><ele>29.0</ele><time>2026-04-26T14:36:43.564Z</time></trkpt><trkpt lat="44.3012183" lon="11.8844333"><ele>29.0</ele><time>2026-04-26T14:36:44.564Z</time></trkpt><trkpt lat="44.3013567" lon="11.884495"><ele>29.0</ele><time>2026-04-26T14:36:45.564Z</time></trkpt><trkpt lat="44.3015017" lon="11.88455"><ele>29.0</ele><time>2026-04-26T14:36:46.564Z</time></trkpt><trkpt lat="44.301645" lon="11.8846017"><ele>29.0</ele><time>2026-04-26T14:36:47.564Z</time></trkpt><trkpt lat="44.3017933" lon="11.8846533"><ele>28.666666666666664</ele><time>2026-04-26T14:36:48.564Z</time></trkpt><trkpt lat="44.3019417" lon="11.8847083"><ele>28.333333333333336</ele><time>2026-04-26T14:36:49.569Z</time></trkpt><trkpt lat="44.3020917" lon="11.8847633"><ele>28.0</ele><time>2026-04-26T14:36:50.565Z</time></trkpt><trkpt lat="44.30224" lon="11.8848167"><ele>28.0</ele><time>2026-04-26T14:36:51.561Z</time></trkpt><trkpt lat="44.3023867" lon="11.8848733"><ele>28.0</ele><time>2026-04-26T14:36:52.562Z</time></trkpt><trkpt lat="44.302535" lon="11.88493"><ele>28.0</ele><time>2026-04-26T14:36:53.565Z</time></trkpt><trkpt lat="44.3026817" lon="11.8849883"><ele>28.0</ele><time>2026-04-26T14:36:54.564Z</time></trkpt><trkpt lat="44.3028283" lon="11.885045"><ele>28.0</ele><time>2026-04-26T14:36:55.565Z</time></trkpt><trkpt lat="44.302975" lon="11.8850983"><ele>28.0</ele><time>2026-04-26T14:36:56.565Z</time></trkpt><trkpt lat="44.3031233" lon="11.8851533"><ele>28.0</ele><time>2026-04-26T14:36:57.632Z</time></trkpt><trkpt lat="44.3032733" lon="11.88521"><ele>28.0</ele><time>2026-04-26T14:36:58.565Z</time></trkpt><trkpt lat="44.3034233" lon="11.8852667"><ele>28.0</ele><time>2026-04-26T14:36:59.565Z</time></trkpt><trkpt lat="44.3035733" lon="11.8853183"><ele>28.0</ele><time>2026-04-26T14:37:00.563Z</time></trkpt><trkpt lat="44.303725" lon="11.8853667"><ele>28.0</ele><time>2026-04-26T14:37:01.569Z</time></trkpt><trkpt lat="44.303875" lon="11.88542"><ele>28.0</ele><time>2026-04-26T14:37:02.566Z</time></trkpt><trkpt lat="44.30402" lon="11.8854733"><ele>27.5</ele><time>2026-04-26T14:37:03.567Z</time></trkpt><trkpt lat="44.30416" lon="11.8855233"><ele>27.0</ele><time>2026-04-26T14:37:04.567Z</time></trkpt><trkpt lat="44.3042917" lon="11.8855667"><ele>26.5</ele><time>2026-04-26T14:37:05.562Z</time></trkpt><trkpt lat="44.3044183" lon="11.885605"><ele>26.0</ele><time>2026-04-26T14:37:06.567Z</time></trkpt><trkpt lat="44.3045317" lon="11.885645"><ele>26.0</ele><time>2026-04-26T14:37:07.568Z</time></trkpt><trkpt lat="44.3046333" lon="11.8856817"><ele>26.0</ele><time>2026-04-26T14:37:08.565Z</time></trkpt><trkpt lat="44.30472" lon="11.885715"><ele>26.0</ele><time>2026-04-26T14:37:09.566Z</time></trkpt><trkpt lat="44.304795" lon="11.8857517"><ele>26.0</ele><time>2026-04-26T14:37:10.56Z</time></trkpt><trkpt lat="44.3048567" lon="11.88579"><ele>26.0</ele><time>2026-04-26T14:37:11.565Z</time></trkpt><trkpt lat="44.3049533" lon="11.885875"><ele>25.666666666666664</ele><time>2026-04-26T14:37:13.565Z</time></trkpt><trkpt lat="44.3050383" lon="11.886"><ele>25.333333333333332</ele><time>2026-04-26T14:37:15.563Z</time></trkpt><trkpt lat="44.3050917" lon="11.8860683"><ele>25.0</ele><time>2026-04-26T14:37:16.564Z</time></trkpt><trkpt lat="44.3051567" lon="11.8861333"><ele>24.666666666666664</ele><time>2026-04-26T14:37:17.565Z</time></trkpt><trkpt lat="44.30523" lon="11.8861867"><ele>24.333333333333332</ele><time>2026-04-26T14:37:18.572Z</time></trkpt><trkpt lat="44.3053083" lon="11.8862083"><ele>24.0</ele><time>2026-04-26T14:37:19.565Z</time></trkpt><trkpt lat="44.30539" lon="11.8861983"><ele>24.0</ele><time>2026-04-26T14:37:20.631Z</time></trkpt><trkpt lat="44.3054783" lon="11.8861533"><ele>24.0</ele><time>2026-04-26T14:37:21.564Z</time></trkpt><trkpt lat="44.305575" lon="11.8861"><ele>24.0</ele><time>2026-04-26T14:37:22.576Z</time></trkpt><trkpt lat="44.3056783" lon="11.8860617"><ele>24.0</ele><time>2026-04-26T14:37:23.567Z</time></trkpt><trkpt lat="44.3057883" lon="11.8860467"><ele>24.0</ele><time>2026-04-26T14:37:24.567Z</time></trkpt><trkpt lat="44.305905" lon="11.886055"><ele>24.25</ele><time>2026-04-26T14:37:25.565Z</time></trkpt><trkpt lat="44.3060233" lon="11.88608"><ele>24.5</ele><time>2026-04-26T14:37:26.56Z</time></trkpt><trkpt lat="44.306145" lon="11.886115"><ele>24.75</ele><time>2026-04-26T14:37:27.566Z</time></trkpt><trkpt lat="44.3062717" lon="11.88615"><ele>25.0</ele><time>2026-04-26T14:37:28.564Z</time></trkpt><trkpt lat="44.3063983" lon="11.8861883"><ele>25.5</ele><time>2026-04-26T14:37:29.564Z</time></trkpt><trkpt lat="44.3065317" lon="11.88623"><ele>26.0</ele><time>2026-04-26T14:37:30.563Z</time></trkpt><trkpt lat="44.3066667" lon="11.8862733"><ele>26.5</ele><time>2026-04-26T14:37:31.629Z</time></trkpt><trkpt lat="44.3068033" lon="11.8863117"><ele>27.0</ele><time>2026-04-26T14:37:32.563Z</time></trkpt><trkpt lat="44.3069417" lon="11.8863533"><ele>27.0</ele><time>2026-04-26T14:37:33.561Z</time></trkpt><trkpt lat="44.3070817" lon="11.8863967"><ele>27.0</ele><time>2026-04-26T14:37:34.565Z</time></trkpt><trkpt lat="44.3072267" lon="11.88644"><ele>27.0</ele><time>2026-04-26T14:37:35.568Z</time></trkpt><trkpt lat="44.3073717" lon="11.8864833"><ele>27.0</ele><time>2026-04-26T14:37:36.564Z</time></trkpt><trkpt lat="44.307515" lon="11.88653"><ele>27.0</ele><time>2026-04-26T14:37:37.63Z</time></trkpt><trkpt lat="44.3076517" lon="11.8865767"><ele>27.0</ele><time>2026-04-26T14:37:38.565Z</time></trkpt><trkpt lat="44.3077817" lon="11.8866183"><ele>27.0</ele><time>2026-04-26T14:37:39.564Z</time></trkpt><trkpt lat="44.30791" lon="11.8866583"><ele>27.0</ele><time>2026-04-26T14:37:40.567Z</time></trkpt><trkpt lat="44.3080367" lon="11.8866983"><ele>26.5</ele><time>2026-04-26T14:37:41.566Z</time></trkpt><trkpt lat="44.3081633" lon="11.88674"><ele>26.0</ele><time>2026-04-26T14:37:42.566Z</time></trkpt><trkpt lat="44.30829" lon="11.88678"><ele>25.5</ele><time>2026-04-26T14:37:43.565Z</time></trkpt><trkpt lat="44.3084183" lon="11.886825"><ele>25.0</ele><time>2026-04-26T14:37:44.566Z</time></trkpt><trkpt lat="44.3085467" lon="11.886875"><ele>25.0</ele><time>2026-04-26T14:37:45.564Z</time></trkpt><trkpt lat="44.3086783" lon="11.8869283"><ele>25.0</ele><time>2026-04-26T14:37:46.569Z</time></trkpt><trkpt lat="44.30881" lon="11.886985"><ele>25.0</ele><time>2026-04-26T14:37:47.566Z</time></trkpt><trkpt lat="44.3089433" lon="11.887045"><ele>25.0</ele><time>2026-04-26T14:37:48.563Z</time></trkpt><trkpt lat="44.30908" lon="11.8871083"><ele>24.75</ele><time>2026-04-26T14:37:49.565Z</time></trkpt><trkpt lat="44.3092167" lon="11.8871767"><ele>24.5</ele><time>2026-04-26T14:37:50.568Z</time></trkpt><trkpt lat="44.3093567" lon="11.88725"><ele>24.25</ele><time>2026-04-26T14:37:51.567Z</time></trkpt><trkpt lat="44.3094967" lon="11.8873283"><ele>24.0</ele><time>2026-04-26T14:37:52.564Z</time></trkpt><trkpt lat="44.3096367" lon="11.8874133"><ele>23.666666666666668</ele><time>2026-04-26T14:37:53.562Z</time></trkpt><trkpt lat="44.3097767" lon="11.8875"><ele>23.333333333333336</ele><time>2026-04-26T14:37:54.565Z</time></trkpt><trkpt lat="44.3099183" lon="11.8875883"><ele>23.0</ele><time>2026-04-26T14:37:55.636Z</time></trkpt><trkpt lat="44.31006" lon="11.8876783"><ele>23.0</ele><time>2026-04-26T14:37:56.568Z</time></trkpt><trkpt lat="44.3102033" lon="11.8877717"><ele>23.0</ele><time>2026-04-26T14:37:57.565Z</time></trkpt><trkpt lat="44.3103483" lon="11.8878667"><ele>23.0</ele><time>2026-04-26T14:37:58.563Z</time></trkpt><trkpt lat="44.3104933" lon="11.887965"><ele>23.0</ele><time>2026-04-26T14:37:59.558Z</time></trkpt><trkpt lat="44.3106433" lon="11.88806"><ele>23.0</ele><time>2026-04-26T14:38:00.559Z</time></trkpt><trkpt lat="44.3107917" lon="11.8881567"><ele>23.0</ele><time>2026-04-26T14:38:01.564Z</time></trkpt><trkpt lat="44.31094" lon="11.88825"><ele>23.0</ele><time>2026-04-26T14:38:02.569Z</time></trkpt><trkpt lat="44.3110867" lon="11.8883483"><ele>23.0</ele><time>2026-04-26T14:38:03.564Z</time></trkpt><trkpt lat="44.3112333" lon="11.8884483"><ele>23.0</ele><time>2026-04-26T14:38:04.567Z</time></trkpt><trkpt lat="44.31138" lon="11.8885517"><ele>22.666666666666668</ele><time>2026-04-26T14:38:05.565Z</time></trkpt><trkpt lat="44.311525" lon="11.8886533"><ele>22.333333333333332</ele><time>2026-04-26T14:38:06.564Z</time></trkpt><trkpt lat="44.3116717" lon="11.8887533"><ele>22.0</ele><time>2026-04-26T14:38:07.563Z</time></trkpt><trkpt lat="44.3118183" lon="11.8888583"><ele>22.0</ele><time>2026-04-26T14:38:08.564Z</time></trkpt><trkpt lat="44.3119667" lon="11.88896"><ele>22.0</ele><time>2026-04-26T14:38:09.565Z</time></trkpt><trkpt lat="44.312115" lon="11.88906"><ele>22.0</ele><time>2026-04-26T14:38:10.564Z</time></trkpt><trkpt lat="44.3122583" lon="11.8891567"><ele>22.5</ele><time>2026-04-26T14:38:11.569Z</time></trkpt><trkpt lat="44.312395" lon="11.8892483"><ele>23.0</ele><time>2026-04-26T14:38:12.565Z</time></trkpt><trkpt lat="44.3125283" lon="11.88934"><ele>23.5</ele><time>2026-04-26T14:38:13.623Z</time></trkpt><trkpt lat="44.3126617" lon="11.8894317"><ele>24.0</ele><time>2026-04-26T14:38:14.565Z</time></trkpt><trkpt lat="44.3127933" lon="11.8895233"><ele>24.333333333333336</ele><time>2026-04-26T14:38:15.563Z</time></trkpt><trkpt lat="44.3129283" lon="11.88962"><ele>24.666666666666668</ele><time>2026-04-26T14:38:16.568Z</time></trkpt><trkpt lat="44.31306" lon="11.88972"><ele>25.0</ele><time>2026-04-26T14:38:17.565Z</time></trkpt><trkpt lat="44.3131933" lon="11.8898233"><ele>25.0</ele><time>2026-04-26T14:38:18.565Z</time></trkpt><trkpt lat="44.313325" lon="11.8899317"><ele>25.0</ele><time>2026-04-26T14:38:19.571Z</time></trkpt><trkpt lat="44.3134583" lon="11.890045"><ele>25.0</ele><time>2026-04-26T14:38:20.565Z</time></trkpt><trkpt lat="44.3135883" lon="11.8901717"><ele>25.0</ele><time>2026-04-26T14:38:21.562Z</time></trkpt><trkpt lat="44.3137167" lon="11.8903033"><ele>25.0</ele><time>2026-04-26T14:38:22.563Z</time></trkpt><trkpt lat="44.3138383" lon="11.8904383"><ele>25.0</ele><time>2026-04-26T14:38:23.567Z</time></trkpt><trkpt lat="44.31396" lon="11.8905767"><ele>25.0</ele><time>2026-04-26T14:38:24.565Z</time></trkpt><trkpt lat="44.31408" lon="11.89072"><ele>25.0</ele><time>2026-04-26T14:38:25.632Z</time></trkpt><trkpt lat="44.3141983" lon="11.8908667"><ele>25.0</ele><time>2026-04-26T14:38:26.562Z</time></trkpt><trkpt lat="44.3143133" lon="11.891015"><ele>25.666666666666668</ele><time>2026-04-26T14:38:27.567Z</time></trkpt><trkpt lat="44.31442" lon="11.8911717"><ele>26.333333333333336</ele><time>2026-04-26T14:38:28.563Z</time></trkpt><trkpt lat="44.3145283" lon="11.8913333"><ele>27.0</ele><time>2026-04-26T14:38:29.557Z</time></trkpt><trkpt lat="44.3146367" lon="11.891495"><ele>26.0</ele><time>2026-04-26T14:38:30.564Z</time></trkpt><trkpt lat="44.314745" lon="11.89166"><ele>25.0</ele><time>2026-04-26T14:38:31.632Z</time></trkpt><trkpt lat="44.3148517" lon="11.8918267"><ele>24.0</ele><time>2026-04-26T14:38:32.568Z</time></trkpt><trkpt lat="44.3149567" lon="11.8919883"><ele>24.0</ele><time>2026-04-26T14:38:33.563Z</time></trkpt><trkpt lat="44.3150633" lon="11.8921533"><ele>24.0</ele><time>2026-04-26T14:38:34.565Z</time></trkpt><trkpt lat="44.3151683" lon="11.8923167"><ele>24.0</ele><time>2026-04-26T14:38:35.565Z</time></trkpt><trkpt lat="44.3152733" lon="11.8924817"><ele>24.666666666666664</ele><time>2026-04-26T14:38:36.563Z</time></trkpt><trkpt lat="44.3153783" lon="11.8926417"><ele>25.333333333333332</ele><time>2026-04-26T14:38:37.564Z</time></trkpt><trkpt lat="44.3154833" lon="11.8928"><ele>26.0</ele><time>2026-04-26T14:38:38.566Z</time></trkpt><trkpt lat="44.3155833" lon="11.8929533"><ele>25.5</ele><time>2026-04-26T14:38:39.564Z</time></trkpt><trkpt lat="44.3156783" lon="11.8930983"><ele>25.0</ele><time>2026-04-26T14:38:40.567Z</time></trkpt><trkpt lat="44.31577" lon="11.893235"><ele>24.5</ele><time>2026-04-26T14:38:41.559Z</time></trkpt><trkpt lat="44.3158617" lon="11.8933733"><ele>24.0</ele><time>2026-04-26T14:38:42.567Z</time></trkpt><trkpt lat="44.315955" lon="11.8935133"><ele>24.0</ele><time>2026-04-26T14:38:43.563Z</time></trkpt><trkpt lat="44.31605" lon="11.893655"><ele>24.0</ele><time>2026-04-26T14:38:44.566Z</time></trkpt><trkpt lat="44.316145" lon="11.8938"><ele>24.0</ele><time>2026-04-26T14:38:45.565Z</time></trkpt><trkpt lat="44.3162433" lon="11.8939483"><ele>24.0</ele><time>2026-04-26T14:38:46.554Z</time></trkpt><trkpt lat="44.3163433" lon="11.8940983"><ele>23.333333333333332</ele><time>2026-04-26T14:38:47.565Z</time></trkpt><trkpt lat="44.3164467" lon="11.8942483"><ele>22.666666666666664</ele><time>2026-04-26T14:38:48.566Z</time></trkpt><trkpt lat="44.31655" lon="11.8944017"><ele>22.0</ele><time>2026-04-26T14:38:49.573Z</time></trkpt><trkpt lat="44.3166533" lon="11.8945583"><ele>22.0</ele><time>2026-04-26T14:38:50.564Z</time></trkpt><trkpt lat="44.3167533" lon="11.89472"><ele>22.0</ele><time>2026-04-26T14:38:51.594Z</time></trkpt><trkpt lat="44.3168483" lon="11.8948767"><ele>22.0</ele><time>2026-04-26T14:38:52.569Z</time></trkpt><trkpt lat="44.3169383" lon="11.8950267"><ele>22.0</ele><time>2026-04-26T14:38:53.563Z</time></trkpt><trkpt lat="44.317025" lon="11.8951683"><ele>22.25</ele><time>2026-04-26T14:38:54.564Z</time></trkpt><trkpt lat="44.3171017" lon="11.8953033"><ele>22.5</ele><time>2026-04-26T14:38:55.566Z</time></trkpt><trkpt lat="44.317175" lon="11.895435"><ele>22.75</ele><time>2026-04-26T14:38:56.565Z</time></trkpt><trkpt lat="44.3172433" lon="11.8955567"><ele>23.0</ele><time>2026-04-26T14:38:57.564Z</time></trkpt><trkpt lat="44.317305" lon="11.8956767"><ele>23.0</ele><time>2026-04-26T14:38:58.566Z</time></trkpt><trkpt lat="44.3173667" lon="11.895785"><ele>23.0</ele><time>2026-04-26T14:38:59.565Z</time></trkpt><trkpt lat="44.317425" lon="11.89589"><ele>23.0</ele><time>2026-04-26T14:39:00.632Z</time></trkpt><trkpt lat="44.3174833" lon="11.8959933"><ele>23.0</ele><time>2026-04-26T14:39:01.564Z</time></trkpt><trkpt lat="44.3175433" lon="11.896095"><ele>23.0</ele><time>2026-04-26T14:39:02.563Z</time></trkpt><trkpt lat="44.3176033" lon="11.896195"><ele>23.0</ele><time>2026-04-26T14:39:03.563Z</time></trkpt><trkpt lat="44.317665" lon="11.8962967"><ele>23.0</ele><time>2026-04-26T14:39:04.565Z</time></trkpt><trkpt lat="44.3177233" lon="11.8964"><ele>23.0</ele><time>2026-04-26T14:39:05.564Z</time></trkpt><trkpt lat="44.3177767" lon="11.89651"><ele>23.0</ele><time>2026-04-26T14:39:06.564Z</time></trkpt><trkpt lat="44.31782" lon="11.8966267"><ele>23.0</ele><time>2026-04-26T14:39:07.562Z</time></trkpt><trkpt lat="44.3178467" lon="11.8967517"><ele>23.0</ele><time>2026-04-26T14:39:08.565Z</time></trkpt><trkpt lat="44.317865" lon="11.8968767"><ele>23.0</ele><time>2026-04-26T14:39:09.563Z</time></trkpt><trkpt lat="44.31788" lon="11.8970033"><ele>23.0</ele><time>2026-04-26T14:39:10.565Z</time></trkpt><trkpt lat="44.317905" lon="11.8971217"><ele>23.0</ele><time>2026-04-26T14:39:11.564Z</time></trkpt><trkpt lat="44.3179517" lon="11.8972233"><ele>23.0</ele><time>2026-04-26T14:39:12.63Z</time></trkpt><trkpt lat="44.3180133" lon="11.8973017"><ele>23.0</ele><time>2026-04-26T14:39:13.561Z</time></trkpt><trkpt lat="44.3180917" lon="11.8973517"><ele>22.799999999999997</ele><time>2026-04-26T14:39:14.565Z</time></trkpt><trkpt lat="44.318185" lon="11.89733"><ele>22.6</ele><time>2026-04-26T14:39:15.563Z</time></trkpt><trkpt lat="44.3182683" lon="11.89728"><ele>22.4</ele><time>2026-04-26T14:39:16.564Z</time></trkpt><trkpt lat="44.3183383" lon="11.897195"><ele>22.200000000000003</ele><time>2026-04-26T14:39:17.564Z</time></trkpt><trkpt lat="44.3183933" lon="11.89708"><ele>22.0</ele><time>2026-04-26T14:39:18.626Z</time></trkpt><trkpt lat="44.3184217" lon="11.8969317"><ele>22.0</ele><time>2026-04-26T14:39:19.566Z</time></trkpt><trkpt lat="44.3184483" lon="11.8967883"><ele>22.0</ele><time>2026-04-26T14:39:20.565Z</time></trkpt><trkpt lat="44.3184883" lon="11.8966483"><ele>22.0</ele><time>2026-04-26T14:39:21.566Z</time></trkpt><trkpt lat="44.3185517" lon="11.8965233"><ele>22.0</ele><time>2026-04-26T14:39:22.568Z</time></trkpt><trkpt lat="44.3186383" lon="11.8964133"><ele>22.0</ele><time>2026-04-26T14:39:23.576Z</time></trkpt><trkpt lat="44.3187367" lon="11.8963067"><ele>22.0</ele><time>2026-04-26T14:39:24.563Z</time></trkpt><trkpt lat="44.318845" lon="11.896195"><ele>22.0</ele><time>2026-04-26T14:39:25.566Z</time></trkpt><trkpt lat="44.31896" lon="11.896085"><ele>22.0</ele><time>2026-04-26T14:39:26.565Z</time></trkpt><trkpt lat="44.31908" lon="11.8959783"><ele>22.0</ele><time>2026-04-26T14:39:27.566Z</time></trkpt><trkpt lat="44.3191967" lon="11.8958683"><ele>22.0</ele><time>2026-04-26T14:39:28.563Z</time></trkpt><trkpt lat="44.3193133" lon="11.8957633"><ele>22.0</ele><time>2026-04-26T14:39:29.565Z</time></trkpt><trkpt lat="44.3194333" lon="11.895655"><ele>22.0</ele><time>2026-04-26T14:39:30.634Z</time></trkpt><trkpt lat="44.319555" lon="11.8955517"><ele>22.0</ele><time>2026-04-26T14:39:31.567Z</time></trkpt><trkpt lat="44.31968" lon="11.8954517"><ele>22.0</ele><time>2026-04-26T14:39:32.566Z</time></trkpt><trkpt lat="44.3198083" lon="11.895355"><ele>22.0</ele><time>2026-04-26T14:39:33.564Z</time></trkpt><trkpt lat="44.3199383" lon="11.8952533"><ele>22.0</ele><time>2026-04-26T14:39:34.565Z</time></trkpt><trkpt lat="44.320075" lon="11.8951633"><ele>22.0</ele><time>2026-04-26T14:39:35.562Z</time></trkpt><trkpt lat="44.3202167" lon="11.895085"><ele>21.666666666666664</ele><time>2026-04-26T14:39:36.566Z</time></trkpt><trkpt lat="44.3203633" lon="11.8950117"><ele>21.333333333333332</ele><time>2026-04-26T14:39:37.567Z</time></trkpt><trkpt lat="44.3205133" lon="11.89494"><ele>21.0</ele><time>2026-04-26T14:39:38.564Z</time></trkpt><trkpt lat="44.3206617" lon="11.8948617"><ele>21.0</ele><time>2026-04-26T14:39:39.565Z</time></trkpt><trkpt lat="44.3208083" lon="11.89477"><ele>21.0</ele><time>2026-04-26T14:39:40.565Z</time></trkpt><trkpt lat="44.3209517" lon="11.8946683"><ele>21.0</ele><time>2026-04-26T14:39:41.566Z</time></trkpt><trkpt lat="44.3210917" lon="11.8945583"><ele>21.0</ele><time>2026-04-26T14:39:42.566Z</time></trkpt><trkpt lat="44.3212317" lon="11.8944467"><ele>21.0</ele><time>2026-04-26T14:39:43.569Z</time></trkpt><trkpt lat="44.32137" lon="11.8943267"><ele>21.0</ele><time>2026-04-26T14:39:44.566Z</time></trkpt><trkpt lat="44.321505" lon="11.8942017"><ele>21.333333333333332</ele><time>2026-04-26T14:39:45.565Z</time></trkpt><trkpt lat="44.3216367" lon="11.89407"><ele>21.666666666666664</ele><time>2026-04-26T14:39:46.566Z</time></trkpt><trkpt lat="44.3217683" lon="11.893935"><ele>22.0</ele><time>2026-04-26T14:39:47.565Z</time></trkpt><trkpt lat="44.3219" lon="11.8938"><ele>22.0</ele><time>2026-04-26T14:39:48.564Z</time></trkpt><trkpt lat="44.32203" lon="11.893665"><ele>22.0</ele><time>2026-04-26T14:39:49.567Z</time></trkpt><trkpt lat="44.3221617" lon="11.8935267"><ele>22.0</ele><time>2026-04-26T14:39:50.564Z</time></trkpt><trkpt lat="44.3222917" lon="11.8933883"><ele>22.333333333333332</ele><time>2026-04-26T14:39:51.568Z</time></trkpt><trkpt lat="44.3224267" lon="11.8932483"><ele>22.666666666666668</ele><time>2026-04-26T14:39:52.564Z</time></trkpt><trkpt lat="44.32256" lon="11.893105"><ele>23.0</ele><time>2026-04-26T14:39:53.564Z</time></trkpt><trkpt lat="44.322695" lon="11.8929617"><ele>23.0</ele><time>2026-04-26T14:39:54.561Z</time></trkpt><trkpt lat="44.3228283" lon="11.89282"><ele>23.0</ele><time>2026-04-26T14:39:55.559Z</time></trkpt><trkpt lat="44.3229583" lon="11.89268"><ele>23.0</ele><time>2026-04-26T14:39:56.566Z</time></trkpt><trkpt lat="44.3230883" lon="11.8925383"><ele>23.0</ele><time>2026-04-26T14:39:57.565Z</time></trkpt><trkpt lat="44.3232167" lon="11.8924017"><ele>23.0</ele><time>2026-04-26T14:39:58.57Z</time></trkpt><trkpt lat="44.323345" lon="11.892265"><ele>23.0</ele><time>2026-04-26T14:39:59.564Z</time></trkpt><trkpt lat="44.3234733" lon="11.8921333"><ele>23.0</ele><time>2026-04-26T14:40:00.62Z</time></trkpt><trkpt lat="44.323605" lon="11.89201"><ele>23.0</ele><time>2026-04-26T14:40:01.57Z</time></trkpt><trkpt lat="44.3237417" lon="11.8918967"><ele>23.0</ele><time>2026-04-26T14:40:02.566Z</time></trkpt><trkpt lat="44.323885" lon="11.8917967"><ele>22.666666666666668</ele><time>2026-04-26T14:40:03.566Z</time></trkpt><trkpt lat="44.3240317" lon="11.8917067"><ele>22.333333333333332</ele><time>2026-04-26T14:40:04.565Z</time></trkpt><trkpt lat="44.3241817" lon="11.8916283"><ele>22.0</ele><time>2026-04-26T14:40:05.563Z</time></trkpt><trkpt lat="44.3243333" lon="11.8915667"><ele>22.0</ele><time>2026-04-26T14:40:06.568Z</time></trkpt><trkpt lat="44.324485" lon="11.8915167"><ele>22.0</ele><time>2026-04-26T14:40:07.568Z</time></trkpt><trkpt lat="44.3246383" lon="11.89148"><ele>22.0</ele><time>2026-04-26T14:40:08.566Z</time></trkpt><trkpt lat="44.32479" lon="11.8914583"><ele>21.75</ele><time>2026-04-26T14:40:09.564Z</time></trkpt><trkpt lat="44.3249317" lon="11.891445"><ele>21.5</ele><time>2026-04-26T14:40:10.566Z</time></trkpt><trkpt lat="44.3250667" lon="11.8914433"><ele>21.25</ele><time>2026-04-26T14:40:11.566Z</time></trkpt><trkpt lat="44.325195" lon="11.8914533"><ele>21.0</ele><time>2026-04-26T14:40:12.566Z</time></trkpt><trkpt lat="44.3253183" lon="11.8914667"><ele>21.0</ele><time>2026-04-26T14:40:13.565Z</time></trkpt><trkpt lat="44.325435" lon="11.89149"><ele>21.0</ele><time>2026-04-26T14:40:14.565Z</time></trkpt><trkpt lat="44.32554" lon="11.891525"><ele>21.0</ele><time>2026-04-26T14:40:15.562Z</time></trkpt><trkpt lat="44.3256367" lon="11.8915767"><ele>21.0</ele><time>2026-04-26T14:40:16.567Z</time></trkpt><trkpt lat="44.3257267" lon="11.89165"><ele>21.0</ele><time>2026-04-26T14:40:17.564Z</time></trkpt><trkpt lat="44.3258033" lon="11.8917383"><ele>21.0</ele><time>2026-04-26T14:40:18.628Z</time></trkpt><trkpt lat="44.3258783" lon="11.8918233"><ele>21.0</ele><time>2026-04-26T14:40:19.566Z</time></trkpt><trkpt lat="44.32596" lon="11.8918833"><ele>21.0</ele><time>2026-04-26T14:40:20.564Z</time></trkpt><trkpt lat="44.3260433" lon="11.8919183"><ele>21.0</ele><time>2026-04-26T14:40:21.566Z</time></trkpt><trkpt lat="44.3261267" lon="11.8919233"><ele>21.0</ele><time>2026-04-26T14:40:22.565Z</time></trkpt><trkpt lat="44.3262017" lon="11.89188"><ele>21.0</ele><time>2026-04-26T14:40:23.564Z</time></trkpt><trkpt lat="44.3262567" lon="11.89175"><ele>21.0</ele><time>2026-04-26T14:40:24.634Z</time></trkpt><trkpt lat="44.3263083" lon="11.89162"><ele>21.0</ele><time>2026-04-26T14:40:25.57Z</time></trkpt><trkpt lat="44.32637" lon="11.8914933"><ele>21.0</ele><time>2026-04-26T14:40:26.581Z</time></trkpt><trkpt lat="44.3264517" lon="11.8913833"><ele>21.0</ele><time>2026-04-26T14:40:27.565Z</time></trkpt><trkpt lat="44.3265533" lon="11.891295"><ele>21.0</ele><time>2026-04-26T14:40:28.565Z</time></trkpt><trkpt lat="44.3266633" lon="11.8912083"><ele>21.5</ele><time>2026-04-26T14:40:29.565Z</time></trkpt><trkpt lat="44.3267767" lon="11.8911167"><ele>22.0</ele><time>2026-04-26T14:40:30.564Z</time></trkpt><trkpt lat="44.3268933" lon="11.891015"><ele>22.5</ele><time>2026-04-26T14:40:31.568Z</time></trkpt><trkpt lat="44.327005" lon="11.8908983"><ele>23.0</ele><time>2026-04-26T14:40:32.566Z</time></trkpt><trkpt lat="44.3271117" lon="11.89077"><ele>23.0</ele><time>2026-04-26T14:40:33.565Z</time></trkpt><trkpt lat="44.3272117" lon="11.8906317"><ele>23.0</ele><time>2026-04-26T14:40:34.564Z</time></trkpt><trkpt lat="44.327305" lon="11.89048"><ele>23.0</ele><time>2026-04-26T14:40:35.572Z</time></trkpt><trkpt lat="44.32739" lon="11.8903167"><ele>23.0</ele><time>2026-04-26T14:40:36.557Z</time></trkpt><trkpt lat="44.3274667" lon="11.8901433"><ele>22.333333333333336</ele><time>2026-04-26T14:40:37.568Z</time></trkpt><trkpt lat="44.3275433" lon="11.8899617"><ele>21.666666666666668</ele><time>2026-04-26T14:40:38.564Z</time></trkpt><trkpt lat="44.3276167" lon="11.8897733"><ele>21.0</ele><time>2026-04-26T14:40:39.563Z</time></trkpt><trkpt lat="44.3276917" lon="11.8895817"><ele>21.0</ele><time>2026-04-26T14:40:40.564Z</time></trkpt><trkpt lat="44.327765" lon="11.8893867"><ele>21.0</ele><time>2026-04-26T14:40:41.56Z</time></trkpt><trkpt lat="44.3278383" lon="11.88919"><ele>21.0</ele><time>2026-04-26T14:40:42.566Z</time></trkpt><trkpt lat="44.327915" lon="11.8889933"><ele>21.333333333333332</ele><time>2026-04-26T14:40:43.566Z</time></trkpt><trkpt lat="44.3279933" lon="11.888795"><ele>21.666666666666664</ele><time>2026-04-26T14:40:44.564Z</time></trkpt><trkpt lat="44.3280717" lon="11.8885967"><ele>22.0</ele><time>2026-04-26T14:40:45.569Z</time></trkpt><trkpt lat="44.32815" lon="11.8883983"><ele>22.666666666666664</ele><time>2026-04-26T14:40:46.625Z</time></trkpt><trkpt lat="44.3282283" lon="11.8882"><ele>23.333333333333332</ele><time>2026-04-26T14:40:47.562Z</time></trkpt><trkpt lat="44.328305" lon="11.8880017"><ele>24.0</ele><time>2026-04-26T14:40:48.565Z</time></trkpt><trkpt lat="44.3283833" lon="11.8878033"><ele>24.0</ele><time>2026-04-26T14:40:49.565Z</time></trkpt><trkpt lat="44.3284617" lon="11.8876033"><ele>24.0</ele><time>2026-04-26T14:40:50.563Z</time></trkpt><trkpt lat="44.3285417" lon="11.8874033"><ele>24.0</ele><time>2026-04-26T14:40:51.565Z</time></trkpt><trkpt lat="44.3286233" lon="11.8872033"><ele>24.0</ele><time>2026-04-26T14:40:52.564Z</time></trkpt><trkpt lat="44.3287033" lon="11.8870033"><ele>24.0</ele><time>2026-04-26T14:40:53.564Z</time></trkpt><trkpt lat="44.3287833" lon="11.8868017"><ele>24.0</ele><time>2026-04-26T14:40:54.566Z</time></trkpt><trkpt lat="44.328865" lon="11.8865983"><ele>23.0</ele><time>2026-04-26T14:40:55.567Z</time></trkpt><trkpt lat="44.3289483" lon="11.886395"><ele>22.0</ele><time>2026-04-26T14:40:56.564Z</time></trkpt><trkpt lat="44.3290317" lon="11.88619"><ele>21.0</ele><time>2026-04-26T14:40:57.635Z</time></trkpt><trkpt lat="44.3291117" lon="11.885985"><ele>21.666666666666668</ele><time>2026-04-26T14:40:58.57Z</time></trkpt><trkpt lat="44.3291917" lon="11.88578"><ele>22.333333333333336</ele><time>2026-04-26T14:40:59.564Z</time></trkpt><trkpt lat="44.3292717" lon="11.8855733"><ele>23.0</ele><time>2026-04-26T14:41:00.565Z</time></trkpt><trkpt lat="44.3293517" lon="11.8853667"><ele>23.0</ele><time>2026-04-26T14:41:01.566Z</time></trkpt><trkpt lat="44.3294333" lon="11.88516"><ele>23.0</ele><time>2026-04-26T14:41:02.563Z</time></trkpt><trkpt lat="44.3295133" lon="11.8849533"><ele>23.0</ele><time>2026-04-26T14:41:03.565Z</time></trkpt><trkpt lat="44.3295933" lon="11.884745"><ele>22.666666666666668</ele><time>2026-04-26T14:41:04.561Z</time></trkpt><trkpt lat="44.3296733" lon="11.8845383"><ele>22.333333333333332</ele><time>2026-04-26T14:41:05.564Z</time></trkpt><trkpt lat="44.3297517" lon="11.8843317"><ele>22.0</ele><time>2026-04-26T14:41:06.568Z</time></trkpt><trkpt lat="44.3298317" lon="11.884125"><ele>23.333333333333332</ele><time>2026-04-26T14:41:07.57Z</time></trkpt><trkpt lat="44.32991" lon="11.8839217"><ele>24.666666666666664</ele><time>2026-04-26T14:41:08.566Z</time></trkpt><trkpt lat="44.3299867" lon="11.88372"><ele>26.0</ele><time>2026-04-26T14:41:09.63Z</time></trkpt><trkpt lat="44.330065" lon="11.88352"><ele>25.333333333333332</ele><time>2026-04-26T14:41:10.566Z</time></trkpt><trkpt lat="44.3301417" lon="11.8833233"><ele>24.666666666666664</ele><time>2026-04-26T14:41:11.563Z</time></trkpt><trkpt lat="44.3302167" lon="11.88313"><ele>24.0</ele><time>2026-04-26T14:41:12.568Z</time></trkpt><trkpt lat="44.3302917" lon="11.8829383"><ele>24.0</ele><time>2026-04-26T14:41:13.565Z</time></trkpt><trkpt lat="44.3303633" lon="11.8827517"><ele>24.0</ele><time>2026-04-26T14:41:14.565Z</time></trkpt><trkpt lat="44.3304333" lon="11.882575"><ele>24.0</ele><time>2026-04-26T14:41:15.634Z</time></trkpt><trkpt lat="44.3304983" lon="11.8824167"><ele>24.0</ele><time>2026-04-26T14:41:16.566Z</time></trkpt><trkpt lat="44.3305567" lon="11.88228"><ele>24.333333333333332</ele><time>2026-04-26T14:41:17.563Z</time></trkpt><trkpt lat="44.3306117" lon="11.8821633"><ele>24.666666666666664</ele><time>2026-04-26T14:41:18.564Z</time></trkpt><trkpt lat="44.3306733" lon="11.8820767"><ele>25.0</ele><time>2026-04-26T14:41:19.566Z</time></trkpt><trkpt lat="44.3307433" lon="11.8820233"><ele>25.333333333333332</ele><time>2026-04-26T14:41:20.559Z</time></trkpt><trkpt lat="44.330825" lon="11.8820117"><ele>25.666666666666664</ele><time>2026-04-26T14:41:21.565Z</time></trkpt><trkpt lat="44.3309117" lon="11.8820317"><ele>26.0</ele><time>2026-04-26T14:41:22.564Z</time></trkpt><trkpt lat="44.3310017" lon="11.8820817"><ele>26.0</ele><time>2026-04-26T14:41:23.565Z</time></trkpt><trkpt lat="44.3310933" lon="11.8821467"><ele>26.0</ele><time>2026-04-26T14:41:24.562Z</time></trkpt><trkpt lat="44.33119" lon="11.8822183"><ele>26.0</ele><time>2026-04-26T14:41:25.569Z</time></trkpt><trkpt lat="44.33129" lon="11.8822883"><ele>26.0</ele><time>2026-04-26T14:41:26.564Z</time></trkpt><trkpt lat="44.3313983" lon="11.8823567"><ele>26.0</ele><time>2026-04-26T14:41:27.563Z</time></trkpt><trkpt lat="44.3315067" lon="11.8824267"><ele>26.0</ele><time>2026-04-26T14:41:28.565Z</time></trkpt><trkpt lat="44.3316167" lon="11.8824983"><ele>26.0</ele><time>2026-04-26T14:41:29.562Z</time></trkpt><trkpt lat="44.331725" lon="11.8825717"><ele>26.0</ele><time>2026-04-26T14:41:30.567Z</time></trkpt><trkpt lat="44.331835" lon="11.8826483"><ele>26.0</ele><time>2026-04-26T14:41:31.568Z</time></trkpt><trkpt lat="44.331945" lon="11.8827283"><ele>26.0</ele><time>2026-04-26T14:41:32.563Z</time></trkpt><trkpt lat="44.332055" lon="11.88281"><ele>26.0</ele><time>2026-04-26T14:41:33.564Z</time></trkpt><trkpt lat="44.332165" lon="11.8828983"><ele>26.0</ele><time>2026-04-26T14:41:34.566Z</time></trkpt><trkpt lat="44.3322733" lon="11.8829867"><ele>26.0</ele><time>2026-04-26T14:41:35.565Z</time></trkpt><trkpt lat="44.3323833" lon="11.8830717"><ele>26.0</ele><time>2026-04-26T14:41:36.566Z</time></trkpt><trkpt lat="44.332495" lon="11.8831567"><ele>26.0</ele><time>2026-04-26T14:41:37.564Z</time></trkpt><trkpt lat="44.3326133" lon="11.8832417"><ele>26.0</ele><time>2026-04-26T14:41:38.571Z</time></trkpt><trkpt lat="44.3327283" lon="11.88333"><ele>26.0</ele><time>2026-04-26T14:41:39.563Z</time></trkpt><trkpt lat="44.332845" lon="11.883425"><ele>25.75</ele><time>2026-04-26T14:41:40.566Z</time></trkpt><trkpt lat="44.33296" lon="11.8835283"><ele>25.5</ele><time>2026-04-26T14:41:41.561Z</time></trkpt><trkpt lat="44.3330767" lon="11.88364"><ele>25.25</ele><time>2026-04-26T14:41:42.564Z</time></trkpt><trkpt lat="44.333195" lon="11.8837533"><ele>25.0</ele><time>2026-04-26T14:41:43.566Z</time></trkpt><trkpt lat="44.3333167" lon="11.8838733"><ele>24.333333333333336</ele><time>2026-04-26T14:41:44.566Z</time></trkpt><trkpt lat="44.3334433" lon="11.884"><ele>23.666666666666668</ele><time>2026-04-26T14:41:45.563Z</time></trkpt><trkpt lat="44.3335683" lon="11.8841217"><ele>23.0</ele><time>2026-04-26T14:41:46.564Z</time></trkpt><trkpt lat="44.3336967" lon="11.8842417"><ele>23.0</ele><time>2026-04-26T14:41:47.566Z</time></trkpt><trkpt lat="44.3338283" lon="11.884365"><ele>23.0</ele><time>2026-04-26T14:41:48.565Z</time></trkpt><trkpt lat="44.33396" lon="11.8844917"><ele>23.0</ele><time>2026-04-26T14:41:49.566Z</time></trkpt><trkpt lat="44.3340933" lon="11.8846167"><ele>23.0</ele><time>2026-04-26T14:41:50.565Z</time></trkpt><trkpt lat="44.3342233" lon="11.8847383"><ele>23.0</ele><time>2026-04-26T14:41:51.563Z</time></trkpt><trkpt lat="44.33435" lon="11.8848467"><ele>23.0</ele><time>2026-04-26T14:41:52.568Z</time></trkpt><trkpt lat="44.334475" lon="11.8849467"><ele>23.0</ele><time>2026-04-26T14:41:53.562Z</time></trkpt><trkpt lat="44.3345983" lon="11.88504"><ele>22.75</ele><time>2026-04-26T14:41:54.566Z</time></trkpt><trkpt lat="44.3347233" lon="11.8851317"><ele>22.5</ele><time>2026-04-26T14:41:55.571Z</time></trkpt><trkpt lat="44.3348467" lon="11.885225"><ele>22.25</ele><time>2026-04-26T14:41:56.564Z</time></trkpt><trkpt lat="44.3349667" lon="11.8853133"><ele>22.0</ele><time>2026-04-26T14:41:57.567Z</time></trkpt><trkpt lat="44.3350817" lon="11.8853967"><ele>22.0</ele><time>2026-04-26T14:41:58.565Z</time></trkpt><trkpt lat="44.335185" lon="11.8854867"><ele>22.0</ele><time>2026-04-26T14:41:59.566Z</time></trkpt><trkpt lat="44.3352733" lon="11.8856"><ele>22.0</ele><time>2026-04-26T14:42:00.564Z</time></trkpt><trkpt lat="44.3353417" lon="11.88574"><ele>22.0</ele><time>2026-04-26T14:42:01.565Z</time></trkpt><trkpt lat="44.33538" lon="11.885895"><ele>22.0</ele><time>2026-04-26T14:42:02.565Z</time></trkpt><trkpt lat="44.33539" lon="11.88605"><ele>22.0</ele><time>2026-04-26T14:42:03.565Z</time></trkpt><trkpt lat="44.3353767" lon="11.886215"><ele>22.0</ele><time>2026-04-26T14:42:04.557Z</time></trkpt><trkpt lat="44.33534" lon="11.8863783"><ele>22.0</ele><time>2026-04-26T14:42:05.567Z</time></trkpt><trkpt lat="44.33529" lon="11.8865417"><ele>22.0</ele><time>2026-04-26T14:42:06.566Z</time></trkpt><trkpt lat="44.3352283" lon="11.886705"><ele>22.0</ele><time>2026-04-26T14:42:07.563Z</time></trkpt><trkpt lat="44.335165" lon="11.8868633"><ele>22.0</ele><time>2026-04-26T14:42:08.564Z</time></trkpt><trkpt lat="44.3351033" lon="11.887015"><ele>22.0</ele><time>2026-04-26T14:42:09.625Z</time></trkpt><trkpt lat="44.3350467" lon="11.8871583"><ele>22.0</ele><time>2026-04-26T14:42:10.565Z</time></trkpt><trkpt lat="44.3349917" lon="11.8872967"><ele>22.0</ele><time>2026-04-26T14:42:11.564Z</time></trkpt><trkpt lat="44.33494" lon="11.8874317"><ele>22.0</ele><time>2026-04-26T14:42:12.565Z</time></trkpt><trkpt lat="44.3348883" lon="11.8875583"><ele>22.0</ele><time>2026-04-26T14:42:13.565Z</time></trkpt><trkpt lat="44.3348417" lon="11.8876767"><ele>22.0</ele><time>2026-04-26T14:42:14.565Z</time></trkpt><trkpt lat="44.3347983" lon="11.8877833"><ele>22.0</ele><time>2026-04-26T14:42:15.633Z</time></trkpt><trkpt lat="44.3347617" lon="11.8878767"><ele>22.0</ele><time>2026-04-26T14:42:16.565Z</time></trkpt><trkpt lat="44.3347317" lon="11.88796"><ele>22.0</ele><time>2026-04-26T14:42:17.565Z</time></trkpt><trkpt lat="44.3346817" lon="11.8880917"><ele>22.0</ele><time>2026-04-26T14:42:19.565Z</time></trkpt><trkpt lat="44.33464" lon="11.8882"><ele>22.0</ele><time>2026-04-26T14:42:21.628Z</time></trkpt><trkpt lat="44.3346033" lon="11.8883"><ele>22.0</ele><time>2026-04-26T14:42:23.563Z</time></trkpt><trkpt lat="44.334595" lon="11.888425"><ele>22.0</ele><time>2026-04-26T14:42:26.567Z</time></trkpt></trkseg></trk></gpx>